<?xml version="1.0" encoding="UTF-8" standalone="no" ?>
<gpx xmlns="http://www.topografix.com/GPX/1/1" xmlns:xsi="http://www.w3.org/2001/XMLSchema-instance" xsi:schemaLocation="http://www.topografix.com/GPX/1/1 http://www.topografix.com/GPX/1/1/gpx.xsd" version="1.1" creator="VisuGPX - https://www.visugpx.com">
  <metadata>
    <name>Petite sortie</name>
  </metadata>
  <trk>
    <name><![CDATA[Petite sortie_1]]></name>
    <trkseg>
      <trkpt lat="49.18846" lon="-0.40102">
        <ele>51</ele>
        <time>2023-04-28T10:56:50Z</time>
      </trkpt>
      <trkpt lat="49.18846" lon="-0.40102">
        <ele>51</ele>
        <time>2023-04-28T10:56:51Z</time>
      </trkpt>
      <trkpt lat="49.18846" lon="-0.40102">
        <ele>51</ele>
        <time>2023-04-28T10:56:52Z</time>
      </trkpt>
      <trkpt lat="49.18847" lon="-0.40102">
        <ele>51</ele>
        <time>2023-04-28T10:56:53Z</time>
      </trkpt>
      <trkpt lat="49.18847" lon="-0.40103">
        <ele>51.2</ele>
        <time>2023-04-28T10:56:54Z</time>
      </trkpt>
      <trkpt lat="49.18848" lon="-0.40103">
        <ele>51.2</ele>
        <time>2023-04-28T10:56:55Z</time>
      </trkpt>
      <trkpt lat="49.18849" lon="-0.40104">
        <ele>51.2</ele>
        <time>2023-04-28T10:56:56Z</time>
      </trkpt>
      <trkpt lat="49.18849" lon="-0.40104">
        <ele>51.4</ele>
        <time>2023-04-28T10:56:57Z</time>
      </trkpt>
      <trkpt lat="49.1885" lon="-0.40105">
        <ele>51.4</ele>
        <time>2023-04-28T10:56:58Z</time>
      </trkpt>
      <trkpt lat="49.18849" lon="-0.40107">
        <ele>51.4</ele>
        <time>2023-04-28T10:56:59Z</time>
      </trkpt>
      <trkpt lat="49.18849" lon="-0.40109">
        <ele>51.4</ele>
        <time>2023-04-28T10:57:00Z</time>
      </trkpt>
      <trkpt lat="49.1885" lon="-0.40111">
        <ele>51.6</ele>
        <time>2023-04-28T10:57:01Z</time>
      </trkpt>
      <trkpt lat="49.18852" lon="-0.40113">
        <ele>51.6</ele>
        <time>2023-04-28T10:57:02Z</time>
      </trkpt>
      <trkpt lat="49.18855" lon="-0.4011">
        <ele>51.8</ele>
        <time>2023-04-28T10:57:03Z</time>
      </trkpt>
      <trkpt lat="49.18859" lon="-0.40107">
        <ele>52</ele>
        <time>2023-04-28T10:57:04Z</time>
      </trkpt>
      <trkpt lat="49.18862" lon="-0.40107">
        <ele>52.2</ele>
        <time>2023-04-28T10:57:05Z</time>
      </trkpt>
      <trkpt lat="49.18865" lon="-0.40109">
        <ele>52.6</ele>
        <time>2023-04-28T10:57:06Z</time>
      </trkpt>
      <trkpt lat="49.18868" lon="-0.40112">
        <ele>52.8</ele>
        <time>2023-04-28T10:57:07Z</time>
      </trkpt>
      <trkpt lat="49.18871" lon="-0.40116">
        <ele>53</ele>
        <time>2023-04-28T10:57:08Z</time>
      </trkpt>
      <trkpt lat="49.18873" lon="-0.40119">
        <ele>53</ele>
        <time>2023-04-28T10:57:09Z</time>
      </trkpt>
      <trkpt lat="49.18875" lon="-0.40121">
        <ele>53.2</ele>
        <time>2023-04-28T10:57:10Z</time>
      </trkpt>
      <trkpt lat="49.18876" lon="-0.40122">
        <ele>53.2</ele>
        <time>2023-04-28T10:57:11Z</time>
      </trkpt>
      <trkpt lat="49.18877" lon="-0.40123">
        <ele>53.4</ele>
        <time>2023-04-28T10:57:12Z</time>
      </trkpt>
      <trkpt lat="49.18878" lon="-0.40122">
        <ele>53.4</ele>
        <time>2023-04-28T10:57:13Z</time>
      </trkpt>
      <trkpt lat="49.18878" lon="-0.40122">
        <ele>53.4</ele>
        <time>2023-04-28T10:57:14Z</time>
      </trkpt>
      <trkpt lat="49.18879" lon="-0.40122">
        <ele>53.6</ele>
        <time>2023-04-28T10:57:15Z</time>
      </trkpt>
      <trkpt lat="49.18879" lon="-0.40121">
        <ele>53.6</ele>
        <time>2023-04-28T10:57:16Z</time>
      </trkpt>
      <trkpt lat="49.18879" lon="-0.40121">
        <ele>53.6</ele>
        <time>2023-04-28T10:57:17Z</time>
      </trkpt>
      <trkpt lat="49.18879" lon="-0.40121">
        <ele>53.6</ele>
        <time>2023-04-28T10:57:18Z</time>
      </trkpt>
      <trkpt lat="49.18879" lon="-0.40121">
        <ele>53.6</ele>
        <time>2023-04-28T10:57:19Z</time>
      </trkpt>
      <trkpt lat="49.1888" lon="-0.40121">
        <ele>53.6</ele>
        <time>2023-04-28T10:57:20Z</time>
      </trkpt>
      <trkpt lat="49.1888" lon="-0.40121">
        <ele>53.6</ele>
        <time>2023-04-28T10:57:21Z</time>
      </trkpt>
      <trkpt lat="49.1888" lon="-0.40121">
        <ele>53.6</ele>
        <time>2023-04-28T10:57:22Z</time>
      </trkpt>
      <trkpt lat="49.18881" lon="-0.40121">
        <ele>53.6</ele>
        <time>2023-04-28T10:57:23Z</time>
      </trkpt>
      <trkpt lat="49.18882" lon="-0.40121">
        <ele>53.8</ele>
        <time>2023-04-28T10:57:24Z</time>
      </trkpt>
      <trkpt lat="49.18882" lon="-0.4012">
        <ele>53.8</ele>
        <time>2023-04-28T10:57:25Z</time>
      </trkpt>
      <trkpt lat="49.18882" lon="-0.4012">
        <ele>53.8</ele>
        <time>2023-04-28T10:57:26Z</time>
      </trkpt>
      <trkpt lat="49.18882" lon="-0.4012">
        <ele>53.8</ele>
        <time>2023-04-28T10:57:27Z</time>
      </trkpt>
      <trkpt lat="49.18882" lon="-0.4012">
        <ele>53.8</ele>
        <time>2023-04-28T10:57:28Z</time>
      </trkpt>
      <trkpt lat="49.18882" lon="-0.4012">
        <ele>53.8</ele>
        <time>2023-04-28T10:57:29Z</time>
      </trkpt>
      <trkpt lat="49.18882" lon="-0.4012">
        <ele>53.8</ele>
        <time>2023-04-28T10:57:30Z</time>
      </trkpt>
      <trkpt lat="49.18882" lon="-0.4012">
        <ele>53.8</ele>
        <time>2023-04-28T10:57:31Z</time>
      </trkpt>
      <trkpt lat="49.18883" lon="-0.4012">
        <ele>53.8</ele>
        <time>2023-04-28T10:57:32Z</time>
      </trkpt>
      <trkpt lat="49.18883" lon="-0.4012">
        <ele>53.8</ele>
        <time>2023-04-28T10:57:33Z</time>
      </trkpt>
      <trkpt lat="49.18883" lon="-0.4012">
        <ele>53.8</ele>
        <time>2023-04-28T10:57:34Z</time>
      </trkpt>
      <trkpt lat="49.18883" lon="-0.4012">
        <ele>53.8</ele>
        <time>2023-04-28T10:57:35Z</time>
      </trkpt>
      <trkpt lat="49.18883" lon="-0.4012">
        <ele>53.8</ele>
        <time>2023-04-28T10:57:36Z</time>
      </trkpt>
      <trkpt lat="49.18884" lon="-0.40119">
        <ele>53.8</ele>
        <time>2023-04-28T10:57:37Z</time>
      </trkpt>
      <trkpt lat="49.18885" lon="-0.40119">
        <ele>54</ele>
        <time>2023-04-28T10:57:38Z</time>
      </trkpt>
      <trkpt lat="49.18886" lon="-0.40119">
        <ele>54</ele>
        <time>2023-04-28T10:57:39Z</time>
      </trkpt>
      <trkpt lat="49.18887" lon="-0.40118">
        <ele>54</ele>
        <time>2023-04-28T10:57:40Z</time>
      </trkpt>
      <trkpt lat="49.18888" lon="-0.40117">
        <ele>54</ele>
        <time>2023-04-28T10:57:41Z</time>
      </trkpt>
      <trkpt lat="49.18889" lon="-0.40114">
        <ele>54.2</ele>
        <time>2023-04-28T10:57:42Z</time>
      </trkpt>
      <trkpt lat="49.18891" lon="-0.40111">
        <ele>54.2</ele>
        <time>2023-04-28T10:57:43Z</time>
      </trkpt>
      <trkpt lat="49.18892" lon="-0.40107">
        <ele>54.2</ele>
        <time>2023-04-28T10:57:44Z</time>
      </trkpt>
      <trkpt lat="49.18893" lon="-0.40101">
        <ele>54.4</ele>
        <time>2023-04-28T10:57:45Z</time>
      </trkpt>
      <trkpt lat="49.18895" lon="-0.40096">
        <ele>54.6</ele>
        <time>2023-04-28T10:57:46Z</time>
      </trkpt>
      <trkpt lat="49.18896" lon="-0.4009">
        <ele>54.6</ele>
        <time>2023-04-28T10:57:47Z</time>
      </trkpt>
      <trkpt lat="49.18898" lon="-0.40083">
        <ele>54.6</ele>
        <time>2023-04-28T10:57:48Z</time>
      </trkpt>
      <trkpt lat="49.18899" lon="-0.40077">
        <ele>54.8</ele>
        <time>2023-04-28T10:57:49Z</time>
      </trkpt>
      <trkpt lat="49.18901" lon="-0.40069">
        <ele>54.8</ele>
        <time>2023-04-28T10:57:50Z</time>
      </trkpt>
      <trkpt lat="49.18903" lon="-0.40062">
        <ele>54.8</ele>
        <time>2023-04-28T10:57:51Z</time>
      </trkpt>
      <trkpt lat="49.18904" lon="-0.40054">
        <ele>54.8</ele>
        <time>2023-04-28T10:57:52Z</time>
      </trkpt>
      <trkpt lat="49.18905" lon="-0.40045">
        <ele>54.8</ele>
        <time>2023-04-28T10:57:53Z</time>
      </trkpt>
      <trkpt lat="49.18907" lon="-0.40037">
        <ele>54.8</ele>
        <time>2023-04-28T10:57:54Z</time>
      </trkpt>
      <trkpt lat="49.18908" lon="-0.40028">
        <ele>54.8</ele>
        <time>2023-04-28T10:57:55Z</time>
      </trkpt>
      <trkpt lat="49.18909" lon="-0.40019">
        <ele>54.8</ele>
        <time>2023-04-28T10:57:56Z</time>
      </trkpt>
      <trkpt lat="49.1891" lon="-0.40009">
        <ele>54.8</ele>
        <time>2023-04-28T10:57:57Z</time>
      </trkpt>
      <trkpt lat="49.18911" lon="-0.4">
        <ele>54.6</ele>
        <time>2023-04-28T10:57:58Z</time>
      </trkpt>
      <trkpt lat="49.18912" lon="-0.3999">
        <ele>54.6</ele>
        <time>2023-04-28T10:57:59Z</time>
      </trkpt>
      <trkpt lat="49.18913" lon="-0.3998">
        <ele>54.2</ele>
        <time>2023-04-28T10:58:00Z</time>
      </trkpt>
      <trkpt lat="49.18913" lon="-0.3997">
        <ele>54</ele>
        <time>2023-04-28T10:58:01Z</time>
      </trkpt>
      <trkpt lat="49.18914" lon="-0.39959">
        <ele>53.8</ele>
        <time>2023-04-28T10:58:02Z</time>
      </trkpt>
      <trkpt lat="49.18914" lon="-0.39949">
        <ele>53.6</ele>
        <time>2023-04-28T10:58:03Z</time>
      </trkpt>
      <trkpt lat="49.18914" lon="-0.39938">
        <ele>53.4</ele>
        <time>2023-04-28T10:58:04Z</time>
      </trkpt>
      <trkpt lat="49.18914" lon="-0.39927">
        <ele>53</ele>
        <time>2023-04-28T10:58:05Z</time>
      </trkpt>
      <trkpt lat="49.18914" lon="-0.39917">
        <ele>52.8</ele>
        <time>2023-04-28T10:58:06Z</time>
      </trkpt>
      <trkpt lat="49.18913" lon="-0.39905">
        <ele>52.8</ele>
        <time>2023-04-28T10:58:07Z</time>
      </trkpt>
      <trkpt lat="49.18912" lon="-0.39894">
        <ele>52.8</ele>
        <time>2023-04-28T10:58:08Z</time>
      </trkpt>
      <trkpt lat="49.18911" lon="-0.39883">
        <ele>52.6</ele>
        <time>2023-04-28T10:58:09Z</time>
      </trkpt>
      <trkpt lat="49.1891" lon="-0.39872">
        <ele>52.6</ele>
        <time>2023-04-28T10:58:10Z</time>
      </trkpt>
      <trkpt lat="49.18909" lon="-0.39861">
        <ele>52.4</ele>
        <time>2023-04-28T10:58:11Z</time>
      </trkpt>
      <trkpt lat="49.18909" lon="-0.3985">
        <ele>52.2</ele>
        <time>2023-04-28T10:58:12Z</time>
      </trkpt>
      <trkpt lat="49.18909" lon="-0.39838">
        <ele>52.2</ele>
        <time>2023-04-28T10:58:13Z</time>
      </trkpt>
      <trkpt lat="49.18908" lon="-0.39827">
        <ele>52</ele>
        <time>2023-04-28T10:58:14Z</time>
      </trkpt>
      <trkpt lat="49.18907" lon="-0.39816">
        <ele>52</ele>
        <time>2023-04-28T10:58:15Z</time>
      </trkpt>
      <trkpt lat="49.18906" lon="-0.39804">
        <ele>51.8</ele>
        <time>2023-04-28T10:58:16Z</time>
      </trkpt>
      <trkpt lat="49.18905" lon="-0.39792">
        <ele>51.4</ele>
        <time>2023-04-28T10:58:17Z</time>
      </trkpt>
      <trkpt lat="49.18904" lon="-0.39781">
        <ele>51.2</ele>
        <time>2023-04-28T10:58:18Z</time>
      </trkpt>
      <trkpt lat="49.18903" lon="-0.39769">
        <ele>51</ele>
        <time>2023-04-28T10:58:19Z</time>
      </trkpt>
      <trkpt lat="49.18903" lon="-0.39758">
        <ele>51</ele>
        <time>2023-04-28T10:58:20Z</time>
      </trkpt>
      <trkpt lat="49.18903" lon="-0.39746">
        <ele>51</ele>
        <time>2023-04-28T10:58:21Z</time>
      </trkpt>
      <trkpt lat="49.18903" lon="-0.39734">
        <ele>51</ele>
        <time>2023-04-28T10:58:22Z</time>
      </trkpt>
      <trkpt lat="49.18904" lon="-0.39722">
        <ele>51</ele>
        <time>2023-04-28T10:58:23Z</time>
      </trkpt>
      <trkpt lat="49.18904" lon="-0.3971">
        <ele>51</ele>
        <time>2023-04-28T10:58:24Z</time>
      </trkpt>
      <trkpt lat="49.18905" lon="-0.39698">
        <ele>51</ele>
        <time>2023-04-28T10:58:25Z</time>
      </trkpt>
      <trkpt lat="49.18906" lon="-0.39685">
        <ele>51.2</ele>
        <time>2023-04-28T10:58:26Z</time>
      </trkpt>
      <trkpt lat="49.18907" lon="-0.39673">
        <ele>51.2</ele>
        <time>2023-04-28T10:58:27Z</time>
      </trkpt>
      <trkpt lat="49.18908" lon="-0.39661">
        <ele>51.2</ele>
        <time>2023-04-28T10:58:28Z</time>
      </trkpt>
      <trkpt lat="49.1891" lon="-0.39649">
        <ele>51</ele>
        <time>2023-04-28T10:58:29Z</time>
      </trkpt>
      <trkpt lat="49.18912" lon="-0.39638">
        <ele>51</ele>
        <time>2023-04-28T10:58:30Z</time>
      </trkpt>
      <trkpt lat="49.18915" lon="-0.39626">
        <ele>51</ele>
        <time>2023-04-28T10:58:31Z</time>
      </trkpt>
      <trkpt lat="49.18918" lon="-0.39615">
        <ele>50.8</ele>
        <time>2023-04-28T10:58:32Z</time>
      </trkpt>
      <trkpt lat="49.18921" lon="-0.39605">
        <ele>50.6</ele>
        <time>2023-04-28T10:58:33Z</time>
      </trkpt>
      <trkpt lat="49.18924" lon="-0.39595">
        <ele>50.2</ele>
        <time>2023-04-28T10:58:34Z</time>
      </trkpt>
      <trkpt lat="49.18928" lon="-0.39585">
        <ele>50</ele>
        <time>2023-04-28T10:58:35Z</time>
      </trkpt>
      <trkpt lat="49.18931" lon="-0.39577">
        <ele>49.8</ele>
        <time>2023-04-28T10:58:36Z</time>
      </trkpt>
      <trkpt lat="49.18934" lon="-0.39568">
        <ele>49.6</ele>
        <time>2023-04-28T10:58:37Z</time>
      </trkpt>
      <trkpt lat="49.18936" lon="-0.39561">
        <ele>49.4</ele>
        <time>2023-04-28T10:58:38Z</time>
      </trkpt>
      <trkpt lat="49.18938" lon="-0.39554">
        <ele>49.2</ele>
        <time>2023-04-28T10:58:39Z</time>
      </trkpt>
      <trkpt lat="49.18939" lon="-0.39549">
        <ele>49</ele>
        <time>2023-04-28T10:58:40Z</time>
      </trkpt>
      <trkpt lat="49.18939" lon="-0.39547">
        <ele>49</ele>
        <time>2023-04-28T10:58:41Z</time>
      </trkpt>
      <trkpt lat="49.1894" lon="-0.39546">
        <ele>49</ele>
        <time>2023-04-28T10:58:42Z</time>
      </trkpt>
      <trkpt lat="49.1894" lon="-0.39543">
        <ele>49</ele>
        <time>2023-04-28T10:58:43Z</time>
      </trkpt>
      <trkpt lat="49.18941" lon="-0.3954">
        <ele>49</ele>
        <time>2023-04-28T10:58:44Z</time>
      </trkpt>
      <trkpt lat="49.18943" lon="-0.39536">
        <ele>48.8</ele>
        <time>2023-04-28T10:58:45Z</time>
      </trkpt>
      <trkpt lat="49.18945" lon="-0.3953">
        <ele>48.8</ele>
        <time>2023-04-28T10:58:46Z</time>
      </trkpt>
      <trkpt lat="49.18947" lon="-0.39524">
        <ele>48.6</ele>
        <time>2023-04-28T10:58:47Z</time>
      </trkpt>
      <trkpt lat="49.18949" lon="-0.39518">
        <ele>48.6</ele>
        <time>2023-04-28T10:58:48Z</time>
      </trkpt>
      <trkpt lat="49.18951" lon="-0.39512">
        <ele>48.6</ele>
        <time>2023-04-28T10:58:49Z</time>
      </trkpt>
      <trkpt lat="49.18954" lon="-0.39505">
        <ele>48.4</ele>
        <time>2023-04-28T10:58:50Z</time>
      </trkpt>
      <trkpt lat="49.18956" lon="-0.39498">
        <ele>48.4</ele>
        <time>2023-04-28T10:58:51Z</time>
      </trkpt>
      <trkpt lat="49.18959" lon="-0.3949">
        <ele>48.2</ele>
        <time>2023-04-28T10:58:52Z</time>
      </trkpt>
      <trkpt lat="49.18962" lon="-0.39482">
        <ele>48.2</ele>
        <time>2023-04-28T10:58:53Z</time>
      </trkpt>
      <trkpt lat="49.18964" lon="-0.39474">
        <ele>48.2</ele>
        <time>2023-04-28T10:58:54Z</time>
      </trkpt>
      <trkpt lat="49.18967" lon="-0.39466">
        <ele>48.2</ele>
        <time>2023-04-28T10:58:55Z</time>
      </trkpt>
      <trkpt lat="49.1897" lon="-0.39458">
        <ele>48.2</ele>
        <time>2023-04-28T10:58:56Z</time>
      </trkpt>
      <trkpt lat="49.18973" lon="-0.3945">
        <ele>48.2</ele>
        <time>2023-04-28T10:58:57Z</time>
      </trkpt>
      <trkpt lat="49.18976" lon="-0.39441">
        <ele>48.2</ele>
        <time>2023-04-28T10:58:58Z</time>
      </trkpt>
      <trkpt lat="49.18979" lon="-0.39432">
        <ele>48.2</ele>
        <time>2023-04-28T10:58:59Z</time>
      </trkpt>
      <trkpt lat="49.18983" lon="-0.39423">
        <ele>48.2</ele>
        <time>2023-04-28T10:59:00Z</time>
      </trkpt>
      <trkpt lat="49.18986" lon="-0.39414">
        <ele>48.2</ele>
        <time>2023-04-28T10:59:01Z</time>
      </trkpt>
      <trkpt lat="49.18989" lon="-0.39405">
        <ele>48.4</ele>
        <time>2023-04-28T10:59:02Z</time>
      </trkpt>
      <trkpt lat="49.18992" lon="-0.39397">
        <ele>48.4</ele>
        <time>2023-04-28T10:59:03Z</time>
      </trkpt>
      <trkpt lat="49.18996" lon="-0.39388">
        <ele>48.6</ele>
        <time>2023-04-28T10:59:04Z</time>
      </trkpt>
      <trkpt lat="49.18999" lon="-0.39379">
        <ele>48.6</ele>
        <time>2023-04-28T10:59:05Z</time>
      </trkpt>
      <trkpt lat="49.19002" lon="-0.3937">
        <ele>48.6</ele>
        <time>2023-04-28T10:59:06Z</time>
      </trkpt>
      <trkpt lat="49.19005" lon="-0.39361">
        <ele>48.8</ele>
        <time>2023-04-28T10:59:07Z</time>
      </trkpt>
      <trkpt lat="49.19009" lon="-0.39352">
        <ele>49</ele>
        <time>2023-04-28T10:59:08Z</time>
      </trkpt>
      <trkpt lat="49.19012" lon="-0.39343">
        <ele>49</ele>
        <time>2023-04-28T10:59:09Z</time>
      </trkpt>
      <trkpt lat="49.19015" lon="-0.39334">
        <ele>49.2</ele>
        <time>2023-04-28T10:59:10Z</time>
      </trkpt>
      <trkpt lat="49.19018" lon="-0.39326">
        <ele>49.6</ele>
        <time>2023-04-28T10:59:11Z</time>
      </trkpt>
      <trkpt lat="49.19021" lon="-0.39317">
        <ele>49.8</ele>
        <time>2023-04-28T10:59:12Z</time>
      </trkpt>
      <trkpt lat="49.19024" lon="-0.39308">
        <ele>50</ele>
        <time>2023-04-28T10:59:13Z</time>
      </trkpt>
      <trkpt lat="49.19028" lon="-0.39299">
        <ele>50.2</ele>
        <time>2023-04-28T10:59:14Z</time>
      </trkpt>
      <trkpt lat="49.19031" lon="-0.39291">
        <ele>50.6</ele>
        <time>2023-04-28T10:59:15Z</time>
      </trkpt>
      <trkpt lat="49.19034" lon="-0.39282">
        <ele>50.8</ele>
        <time>2023-04-28T10:59:16Z</time>
      </trkpt>
      <trkpt lat="49.19037" lon="-0.39274">
        <ele>51</ele>
        <time>2023-04-28T10:59:17Z</time>
      </trkpt>
      <trkpt lat="49.1904" lon="-0.39266">
        <ele>51.4</ele>
        <time>2023-04-28T10:59:18Z</time>
      </trkpt>
      <trkpt lat="49.19043" lon="-0.39257">
        <ele>51.6</ele>
        <time>2023-04-28T10:59:19Z</time>
      </trkpt>
      <trkpt lat="49.19046" lon="-0.3925">
        <ele>51.8</ele>
        <time>2023-04-28T10:59:20Z</time>
      </trkpt>
      <trkpt lat="49.19048" lon="-0.39243">
        <ele>52</ele>
        <time>2023-04-28T10:59:21Z</time>
      </trkpt>
      <trkpt lat="49.1905" lon="-0.39237">
        <ele>52.2</ele>
        <time>2023-04-28T10:59:22Z</time>
      </trkpt>
      <trkpt lat="49.19052" lon="-0.39232">
        <ele>52.6</ele>
        <time>2023-04-28T10:59:23Z</time>
      </trkpt>
      <trkpt lat="49.19054" lon="-0.39228">
        <ele>52.8</ele>
        <time>2023-04-28T10:59:24Z</time>
      </trkpt>
      <trkpt lat="49.19055" lon="-0.39223">
        <ele>53</ele>
        <time>2023-04-28T10:59:25Z</time>
      </trkpt>
      <trkpt lat="49.19057" lon="-0.39217">
        <ele>53</ele>
        <time>2023-04-28T10:59:26Z</time>
      </trkpt>
      <trkpt lat="49.19059" lon="-0.39211">
        <ele>53.2</ele>
        <time>2023-04-28T10:59:27Z</time>
      </trkpt>
      <trkpt lat="49.19061" lon="-0.39205">
        <ele>53.6</ele>
        <time>2023-04-28T10:59:28Z</time>
      </trkpt>
      <trkpt lat="49.19064" lon="-0.39199">
        <ele>54</ele>
        <time>2023-04-28T10:59:29Z</time>
      </trkpt>
      <trkpt lat="49.19067" lon="-0.39193">
        <ele>54.2</ele>
        <time>2023-04-28T10:59:30Z</time>
      </trkpt>
      <trkpt lat="49.19071" lon="-0.39189">
        <ele>54.6</ele>
        <time>2023-04-28T10:59:31Z</time>
      </trkpt>
      <trkpt lat="49.19076" lon="-0.39186">
        <ele>55</ele>
        <time>2023-04-28T10:59:32Z</time>
      </trkpt>
      <trkpt lat="49.1908" lon="-0.39186">
        <ele>55.6</ele>
        <time>2023-04-28T10:59:33Z</time>
      </trkpt>
      <trkpt lat="49.19086" lon="-0.39188">
        <ele>56</ele>
        <time>2023-04-28T10:59:34Z</time>
      </trkpt>
      <trkpt lat="49.19091" lon="-0.39191">
        <ele>56</ele>
        <time>2023-04-28T10:59:35Z</time>
      </trkpt>
      <trkpt lat="49.19096" lon="-0.39194">
        <ele>56.2</ele>
        <time>2023-04-28T10:59:36Z</time>
      </trkpt>
      <trkpt lat="49.19101" lon="-0.39198">
        <ele>56.6</ele>
        <time>2023-04-28T10:59:37Z</time>
      </trkpt>
      <trkpt lat="49.19105" lon="-0.39202">
        <ele>56.6</ele>
        <time>2023-04-28T10:59:38Z</time>
      </trkpt>
      <trkpt lat="49.1911" lon="-0.39205">
        <ele>56.8</ele>
        <time>2023-04-28T10:59:39Z</time>
      </trkpt>
      <trkpt lat="49.19114" lon="-0.39209">
        <ele>57</ele>
        <time>2023-04-28T10:59:40Z</time>
      </trkpt>
      <trkpt lat="49.19118" lon="-0.39212">
        <ele>57</ele>
        <time>2023-04-28T10:59:41Z</time>
      </trkpt>
      <trkpt lat="49.19122" lon="-0.39215">
        <ele>57.2</ele>
        <time>2023-04-28T10:59:42Z</time>
      </trkpt>
      <trkpt lat="49.19126" lon="-0.39219">
        <ele>57.4</ele>
        <time>2023-04-28T10:59:43Z</time>
      </trkpt>
      <trkpt lat="49.19129" lon="-0.39222">
        <ele>57.6</ele>
        <time>2023-04-28T10:59:44Z</time>
      </trkpt>
      <trkpt lat="49.19133" lon="-0.39225">
        <ele>57.8</ele>
        <time>2023-04-28T10:59:45Z</time>
      </trkpt>
      <trkpt lat="49.19137" lon="-0.39228">
        <ele>57.8</ele>
        <time>2023-04-28T10:59:46Z</time>
      </trkpt>
      <trkpt lat="49.1914" lon="-0.39231">
        <ele>58</ele>
        <time>2023-04-28T10:59:47Z</time>
      </trkpt>
      <trkpt lat="49.19144" lon="-0.39233">
        <ele>58</ele>
        <time>2023-04-28T10:59:48Z</time>
      </trkpt>
      <trkpt lat="49.19148" lon="-0.39233">
        <ele>58.2</ele>
        <time>2023-04-28T10:59:49Z</time>
      </trkpt>
      <trkpt lat="49.19151" lon="-0.39231">
        <ele>58.6</ele>
        <time>2023-04-28T10:59:50Z</time>
      </trkpt>
      <trkpt lat="49.19153" lon="-0.39227">
        <ele>58.6</ele>
        <time>2023-04-28T10:59:51Z</time>
      </trkpt>
      <trkpt lat="49.19154" lon="-0.39222">
        <ele>58.8</ele>
        <time>2023-04-28T10:59:52Z</time>
      </trkpt>
      <trkpt lat="49.19156" lon="-0.39217">
        <ele>59</ele>
        <time>2023-04-28T10:59:53Z</time>
      </trkpt>
      <trkpt lat="49.19158" lon="-0.39211">
        <ele>59</ele>
        <time>2023-04-28T10:59:54Z</time>
      </trkpt>
      <trkpt lat="49.1916" lon="-0.39206">
        <ele>59.2</ele>
        <time>2023-04-28T10:59:55Z</time>
      </trkpt>
      <trkpt lat="49.19162" lon="-0.39201">
        <ele>59.4</ele>
        <time>2023-04-28T10:59:56Z</time>
      </trkpt>
      <trkpt lat="49.19164" lon="-0.39195">
        <ele>59.6</ele>
        <time>2023-04-28T10:59:57Z</time>
      </trkpt>
      <trkpt lat="49.19166" lon="-0.39189">
        <ele>59.8</ele>
        <time>2023-04-28T10:59:58Z</time>
      </trkpt>
      <trkpt lat="49.19169" lon="-0.39184">
        <ele>60</ele>
        <time>2023-04-28T10:59:59Z</time>
      </trkpt>
      <trkpt lat="49.19171" lon="-0.39178">
        <ele>60</ele>
        <time>2023-04-28T11:00:00Z</time>
      </trkpt>
      <trkpt lat="49.19173" lon="-0.39172">
        <ele>60.2</ele>
        <time>2023-04-28T11:00:01Z</time>
      </trkpt>
      <trkpt lat="49.19175" lon="-0.39166">
        <ele>60.4</ele>
        <time>2023-04-28T11:00:02Z</time>
      </trkpt>
      <trkpt lat="49.19177" lon="-0.39161">
        <ele>60.8</ele>
        <time>2023-04-28T11:00:03Z</time>
      </trkpt>
      <trkpt lat="49.19179" lon="-0.39155">
        <ele>61</ele>
        <time>2023-04-28T11:00:04Z</time>
      </trkpt>
      <trkpt lat="49.19181" lon="-0.39149">
        <ele>61.2</ele>
        <time>2023-04-28T11:00:05Z</time>
      </trkpt>
      <trkpt lat="49.19184" lon="-0.39144">
        <ele>61.4</ele>
        <time>2023-04-28T11:00:06Z</time>
      </trkpt>
      <trkpt lat="49.19186" lon="-0.39138">
        <ele>61.6</ele>
        <time>2023-04-28T11:00:07Z</time>
      </trkpt>
      <trkpt lat="49.19188" lon="-0.39132">
        <ele>61.8</ele>
        <time>2023-04-28T11:00:08Z</time>
      </trkpt>
      <trkpt lat="49.1919" lon="-0.39126">
        <ele>62</ele>
        <time>2023-04-28T11:00:09Z</time>
      </trkpt>
      <trkpt lat="49.19192" lon="-0.3912">
        <ele>62.2</ele>
        <time>2023-04-28T11:00:10Z</time>
      </trkpt>
      <trkpt lat="49.19194" lon="-0.39114">
        <ele>62.4</ele>
        <time>2023-04-28T11:00:11Z</time>
      </trkpt>
      <trkpt lat="49.19196" lon="-0.39108">
        <ele>62.6</ele>
        <time>2023-04-28T11:00:12Z</time>
      </trkpt>
      <trkpt lat="49.19198" lon="-0.39102">
        <ele>62.8</ele>
        <time>2023-04-28T11:00:13Z</time>
      </trkpt>
      <trkpt lat="49.19201" lon="-0.39095">
        <ele>62.8</ele>
        <time>2023-04-28T11:00:14Z</time>
      </trkpt>
      <trkpt lat="49.19203" lon="-0.39089">
        <ele>63</ele>
        <time>2023-04-28T11:00:15Z</time>
      </trkpt>
      <trkpt lat="49.19205" lon="-0.39083">
        <ele>63</ele>
        <time>2023-04-28T11:00:16Z</time>
      </trkpt>
      <trkpt lat="49.19208" lon="-0.39077">
        <ele>63</ele>
        <time>2023-04-28T11:00:17Z</time>
      </trkpt>
      <trkpt lat="49.1921" lon="-0.3907">
        <ele>63</ele>
        <time>2023-04-28T11:00:18Z</time>
      </trkpt>
      <trkpt lat="49.19212" lon="-0.39064">
        <ele>63</ele>
        <time>2023-04-28T11:00:19Z</time>
      </trkpt>
      <trkpt lat="49.19214" lon="-0.39058">
        <ele>62.8</ele>
        <time>2023-04-28T11:00:20Z</time>
      </trkpt>
      <trkpt lat="49.19217" lon="-0.39052">
        <ele>62.8</ele>
        <time>2023-04-28T11:00:21Z</time>
      </trkpt>
      <trkpt lat="49.19219" lon="-0.39045">
        <ele>62.8</ele>
        <time>2023-04-28T11:00:22Z</time>
      </trkpt>
      <trkpt lat="49.19221" lon="-0.39039">
        <ele>62.8</ele>
        <time>2023-04-28T11:00:23Z</time>
      </trkpt>
      <trkpt lat="49.19223" lon="-0.39033">
        <ele>62.6</ele>
        <time>2023-04-28T11:00:24Z</time>
      </trkpt>
      <trkpt lat="49.19226" lon="-0.39026">
        <ele>62.6</ele>
        <time>2023-04-28T11:00:25Z</time>
      </trkpt>
      <trkpt lat="49.19228" lon="-0.3902">
        <ele>62.4</ele>
        <time>2023-04-28T11:00:26Z</time>
      </trkpt>
      <trkpt lat="49.19231" lon="-0.39013">
        <ele>62.4</ele>
        <time>2023-04-28T11:00:27Z</time>
      </trkpt>
      <trkpt lat="49.19233" lon="-0.39007">
        <ele>62.2</ele>
        <time>2023-04-28T11:00:28Z</time>
      </trkpt>
      <trkpt lat="49.19236" lon="-0.39">
        <ele>62.2</ele>
        <time>2023-04-28T11:00:29Z</time>
      </trkpt>
      <trkpt lat="49.19238" lon="-0.38993">
        <ele>62</ele>
        <time>2023-04-28T11:00:30Z</time>
      </trkpt>
      <trkpt lat="49.19241" lon="-0.38986">
        <ele>62</ele>
        <time>2023-04-28T11:00:31Z</time>
      </trkpt>
      <trkpt lat="49.19244" lon="-0.38979">
        <ele>62</ele>
        <time>2023-04-28T11:00:32Z</time>
      </trkpt>
      <trkpt lat="49.19247" lon="-0.38972">
        <ele>62</ele>
        <time>2023-04-28T11:00:33Z</time>
      </trkpt>
      <trkpt lat="49.1925" lon="-0.38965">
        <ele>62</ele>
        <time>2023-04-28T11:00:34Z</time>
      </trkpt>
      <trkpt lat="49.19253" lon="-0.38957">
        <ele>62</ele>
        <time>2023-04-28T11:00:35Z</time>
      </trkpt>
      <trkpt lat="49.19255" lon="-0.3895">
        <ele>62</ele>
        <time>2023-04-28T11:00:36Z</time>
      </trkpt>
      <trkpt lat="49.19258" lon="-0.38942">
        <ele>62</ele>
        <time>2023-04-28T11:00:37Z</time>
      </trkpt>
      <trkpt lat="49.19261" lon="-0.38935">
        <ele>62</ele>
        <time>2023-04-28T11:00:38Z</time>
      </trkpt>
      <trkpt lat="49.19264" lon="-0.38927">
        <ele>62.2</ele>
        <time>2023-04-28T11:00:39Z</time>
      </trkpt>
      <trkpt lat="49.19267" lon="-0.3892">
        <ele>62.2</ele>
        <time>2023-04-28T11:00:40Z</time>
      </trkpt>
      <trkpt lat="49.1927" lon="-0.38912">
        <ele>62.2</ele>
        <time>2023-04-28T11:00:41Z</time>
      </trkpt>
      <trkpt lat="49.19273" lon="-0.38904">
        <ele>62.2</ele>
        <time>2023-04-28T11:00:42Z</time>
      </trkpt>
      <trkpt lat="49.19276" lon="-0.38896">
        <ele>62.4</ele>
        <time>2023-04-28T11:00:43Z</time>
      </trkpt>
      <trkpt lat="49.19279" lon="-0.38888">
        <ele>62.6</ele>
        <time>2023-04-28T11:00:44Z</time>
      </trkpt>
      <trkpt lat="49.19282" lon="-0.3888">
        <ele>62.6</ele>
        <time>2023-04-28T11:00:45Z</time>
      </trkpt>
      <trkpt lat="49.19285" lon="-0.38872">
        <ele>62.6</ele>
        <time>2023-04-28T11:00:46Z</time>
      </trkpt>
      <trkpt lat="49.19288" lon="-0.38864">
        <ele>62.8</ele>
        <time>2023-04-28T11:00:47Z</time>
      </trkpt>
      <trkpt lat="49.19291" lon="-0.38856">
        <ele>62.8</ele>
        <time>2023-04-28T11:00:48Z</time>
      </trkpt>
      <trkpt lat="49.19294" lon="-0.38847">
        <ele>63</ele>
        <time>2023-04-28T11:00:49Z</time>
      </trkpt>
      <trkpt lat="49.19297" lon="-0.38839">
        <ele>63</ele>
        <time>2023-04-28T11:00:50Z</time>
      </trkpt>
      <trkpt lat="49.193" lon="-0.3883">
        <ele>63.2</ele>
        <time>2023-04-28T11:00:51Z</time>
      </trkpt>
      <trkpt lat="49.19303" lon="-0.38822">
        <ele>63.2</ele>
        <time>2023-04-28T11:00:52Z</time>
      </trkpt>
      <trkpt lat="49.19306" lon="-0.38813">
        <ele>63.2</ele>
        <time>2023-04-28T11:00:53Z</time>
      </trkpt>
      <trkpt lat="49.19309" lon="-0.38804">
        <ele>63.2</ele>
        <time>2023-04-28T11:00:54Z</time>
      </trkpt>
      <trkpt lat="49.19312" lon="-0.38796">
        <ele>63.4</ele>
        <time>2023-04-28T11:00:55Z</time>
      </trkpt>
      <trkpt lat="49.19315" lon="-0.38787">
        <ele>63.4</ele>
        <time>2023-04-28T11:00:56Z</time>
      </trkpt>
      <trkpt lat="49.19318" lon="-0.38778">
        <ele>63.6</ele>
        <time>2023-04-28T11:00:57Z</time>
      </trkpt>
      <trkpt lat="49.19321" lon="-0.38768">
        <ele>63.6</ele>
        <time>2023-04-28T11:00:58Z</time>
      </trkpt>
      <trkpt lat="49.19324" lon="-0.38759">
        <ele>63.8</ele>
        <time>2023-04-28T11:00:59Z</time>
      </trkpt>
      <trkpt lat="49.19327" lon="-0.3875">
        <ele>63.8</ele>
        <time>2023-04-28T11:01:00Z</time>
      </trkpt>
      <trkpt lat="49.1933" lon="-0.3874">
        <ele>63.8</ele>
        <time>2023-04-28T11:01:01Z</time>
      </trkpt>
      <trkpt lat="49.19333" lon="-0.38731">
        <ele>63.8</ele>
        <time>2023-04-28T11:01:02Z</time>
      </trkpt>
      <trkpt lat="49.19336" lon="-0.38721">
        <ele>63.6</ele>
        <time>2023-04-28T11:01:03Z</time>
      </trkpt>
      <trkpt lat="49.19339" lon="-0.38711">
        <ele>63.4</ele>
        <time>2023-04-28T11:01:04Z</time>
      </trkpt>
      <trkpt lat="49.19342" lon="-0.38701">
        <ele>63</ele>
        <time>2023-04-28T11:01:05Z</time>
      </trkpt>
      <trkpt lat="49.19345" lon="-0.38691">
        <ele>63</ele>
        <time>2023-04-28T11:01:06Z</time>
      </trkpt>
      <trkpt lat="49.19348" lon="-0.3868">
        <ele>62.8</ele>
        <time>2023-04-28T11:01:07Z</time>
      </trkpt>
      <trkpt lat="49.1935" lon="-0.3867">
        <ele>62.4</ele>
        <time>2023-04-28T11:01:08Z</time>
      </trkpt>
      <trkpt lat="49.19353" lon="-0.3866">
        <ele>62</ele>
        <time>2023-04-28T11:01:09Z</time>
      </trkpt>
      <trkpt lat="49.19356" lon="-0.38649">
        <ele>61.6</ele>
        <time>2023-04-28T11:01:10Z</time>
      </trkpt>
      <trkpt lat="49.19358" lon="-0.38639">
        <ele>61.2</ele>
        <time>2023-04-28T11:01:11Z</time>
      </trkpt>
      <trkpt lat="49.1936" lon="-0.38628">
        <ele>60.8</ele>
        <time>2023-04-28T11:01:12Z</time>
      </trkpt>
      <trkpt lat="49.19362" lon="-0.38616">
        <ele>60.4</ele>
        <time>2023-04-28T11:01:13Z</time>
      </trkpt>
      <trkpt lat="49.19365" lon="-0.38605">
        <ele>60</ele>
        <time>2023-04-28T11:01:14Z</time>
      </trkpt>
      <trkpt lat="49.19367" lon="-0.38593">
        <ele>59.6</ele>
        <time>2023-04-28T11:01:15Z</time>
      </trkpt>
      <trkpt lat="49.19369" lon="-0.38581">
        <ele>59</ele>
        <time>2023-04-28T11:01:16Z</time>
      </trkpt>
      <trkpt lat="49.19372" lon="-0.38569">
        <ele>58.6</ele>
        <time>2023-04-28T11:01:17Z</time>
      </trkpt>
      <trkpt lat="49.19374" lon="-0.38556">
        <ele>58</ele>
        <time>2023-04-28T11:01:18Z</time>
      </trkpt>
      <trkpt lat="49.19377" lon="-0.38544">
        <ele>57.2</ele>
        <time>2023-04-28T11:01:19Z</time>
      </trkpt>
      <trkpt lat="49.19379" lon="-0.38531">
        <ele>56.8</ele>
        <time>2023-04-28T11:01:20Z</time>
      </trkpt>
      <trkpt lat="49.19381" lon="-0.38519">
        <ele>56</ele>
        <time>2023-04-28T11:01:21Z</time>
      </trkpt>
      <trkpt lat="49.19383" lon="-0.38508">
        <ele>55.6</ele>
        <time>2023-04-28T11:01:22Z</time>
      </trkpt>
      <trkpt lat="49.19385" lon="-0.38498">
        <ele>55.2</ele>
        <time>2023-04-28T11:01:23Z</time>
      </trkpt>
      <trkpt lat="49.19386" lon="-0.38491">
        <ele>55</ele>
        <time>2023-04-28T11:01:24Z</time>
      </trkpt>
      <trkpt lat="49.19387" lon="-0.38488">
        <ele>55</ele>
        <time>2023-04-28T11:01:25Z</time>
      </trkpt>
      <trkpt lat="49.19387" lon="-0.38486">
        <ele>55</ele>
        <time>2023-04-28T11:01:26Z</time>
      </trkpt>
      <trkpt lat="49.19387" lon="-0.38486">
        <ele>55</ele>
        <time>2023-04-28T11:01:27Z</time>
      </trkpt>
      <trkpt lat="49.19387" lon="-0.38486">
        <ele>55</ele>
        <time>2023-04-28T11:01:28Z</time>
      </trkpt>
      <trkpt lat="49.19387" lon="-0.38486">
        <ele>55</ele>
        <time>2023-04-28T11:01:29Z</time>
      </trkpt>
      <trkpt lat="49.19387" lon="-0.38486">
        <ele>55</ele>
        <time>2023-04-28T11:01:30Z</time>
      </trkpt>
      <trkpt lat="49.19387" lon="-0.38486">
        <ele>55</ele>
        <time>2023-04-28T11:01:31Z</time>
      </trkpt>
      <trkpt lat="49.19387" lon="-0.38486">
        <ele>55</ele>
        <time>2023-04-28T11:01:32Z</time>
      </trkpt>
      <trkpt lat="49.19387" lon="-0.38486">
        <ele>55</ele>
        <time>2023-04-28T11:01:33Z</time>
      </trkpt>
      <trkpt lat="49.19387" lon="-0.38486">
        <ele>55</ele>
        <time>2023-04-28T11:01:34Z</time>
      </trkpt>
      <trkpt lat="49.19387" lon="-0.38486">
        <ele>55</ele>
        <time>2023-04-28T11:01:35Z</time>
      </trkpt>
      <trkpt lat="49.19387" lon="-0.38486">
        <ele>55</ele>
        <time>2023-04-28T11:01:36Z</time>
      </trkpt>
      <trkpt lat="49.19387" lon="-0.38486">
        <ele>55</ele>
        <time>2023-04-28T11:01:37Z</time>
      </trkpt>
      <trkpt lat="49.19387" lon="-0.38486">
        <ele>55</ele>
        <time>2023-04-28T11:01:38Z</time>
      </trkpt>
      <trkpt lat="49.19387" lon="-0.38486">
        <ele>55</ele>
        <time>2023-04-28T11:01:39Z</time>
      </trkpt>
      <trkpt lat="49.19387" lon="-0.38486">
        <ele>55</ele>
        <time>2023-04-28T11:01:40Z</time>
      </trkpt>
      <trkpt lat="49.19387" lon="-0.38486">
        <ele>55</ele>
        <time>2023-04-28T11:01:41Z</time>
      </trkpt>
      <trkpt lat="49.19387" lon="-0.38486">
        <ele>55</ele>
        <time>2023-04-28T11:01:42Z</time>
      </trkpt>
      <trkpt lat="49.19387" lon="-0.38486">
        <ele>55</ele>
        <time>2023-04-28T11:01:43Z</time>
      </trkpt>
      <trkpt lat="49.19387" lon="-0.38486">
        <ele>55</ele>
        <time>2023-04-28T11:01:44Z</time>
      </trkpt>
      <trkpt lat="49.19387" lon="-0.38486">
        <ele>55</ele>
        <time>2023-04-28T11:01:45Z</time>
      </trkpt>
      <trkpt lat="49.19387" lon="-0.38486">
        <ele>55</ele>
        <time>2023-04-28T11:01:46Z</time>
      </trkpt>
      <trkpt lat="49.19387" lon="-0.38486">
        <ele>55</ele>
        <time>2023-04-28T11:01:47Z</time>
      </trkpt>
      <trkpt lat="49.19387" lon="-0.38486">
        <ele>55</ele>
        <time>2023-04-28T11:01:48Z</time>
      </trkpt>
      <trkpt lat="49.19388" lon="-0.38485">
        <ele>55</ele>
        <time>2023-04-28T11:01:49Z</time>
      </trkpt>
      <trkpt lat="49.19388" lon="-0.38484">
        <ele>55</ele>
        <time>2023-04-28T11:01:50Z</time>
      </trkpt>
      <trkpt lat="49.19388" lon="-0.38483">
        <ele>55</ele>
        <time>2023-04-28T11:01:51Z</time>
      </trkpt>
      <trkpt lat="49.19389" lon="-0.3848">
        <ele>55</ele>
        <time>2023-04-28T11:01:52Z</time>
      </trkpt>
      <trkpt lat="49.19389" lon="-0.38476">
        <ele>55</ele>
        <time>2023-04-28T11:01:53Z</time>
      </trkpt>
      <trkpt lat="49.1939" lon="-0.38472">
        <ele>55</ele>
        <time>2023-04-28T11:01:54Z</time>
      </trkpt>
      <trkpt lat="49.19391" lon="-0.38469">
        <ele>55</ele>
        <time>2023-04-28T11:01:55Z</time>
      </trkpt>
      <trkpt lat="49.19392" lon="-0.38465">
        <ele>55</ele>
        <time>2023-04-28T11:01:56Z</time>
      </trkpt>
      <trkpt lat="49.19393" lon="-0.38463">
        <ele>55</ele>
        <time>2023-04-28T11:01:57Z</time>
      </trkpt>
      <trkpt lat="49.19393" lon="-0.3846">
        <ele>54.8</ele>
        <time>2023-04-28T11:01:58Z</time>
      </trkpt>
      <trkpt lat="49.19394" lon="-0.38457">
        <ele>54.8</ele>
        <time>2023-04-28T11:01:59Z</time>
      </trkpt>
      <trkpt lat="49.19394" lon="-0.38455">
        <ele>54.8</ele>
        <time>2023-04-28T11:02:00Z</time>
      </trkpt>
      <trkpt lat="49.19396" lon="-0.38453">
        <ele>54.8</ele>
        <time>2023-04-28T11:02:01Z</time>
      </trkpt>
      <trkpt lat="49.19399" lon="-0.38452">
        <ele>54.6</ele>
        <time>2023-04-28T11:02:02Z</time>
      </trkpt>
      <trkpt lat="49.19403" lon="-0.38455">
        <ele>54.6</ele>
        <time>2023-04-28T11:02:03Z</time>
      </trkpt>
      <trkpt lat="49.19407" lon="-0.3846">
        <ele>54.2</ele>
        <time>2023-04-28T11:02:04Z</time>
      </trkpt>
      <trkpt lat="49.19411" lon="-0.38466">
        <ele>54.2</ele>
        <time>2023-04-28T11:02:05Z</time>
      </trkpt>
      <trkpt lat="49.19415" lon="-0.38474">
        <ele>54</ele>
        <time>2023-04-28T11:02:06Z</time>
      </trkpt>
      <trkpt lat="49.1942" lon="-0.38483">
        <ele>53.8</ele>
        <time>2023-04-28T11:02:07Z</time>
      </trkpt>
      <trkpt lat="49.19425" lon="-0.38491">
        <ele>53.6</ele>
        <time>2023-04-28T11:02:08Z</time>
      </trkpt>
      <trkpt lat="49.19431" lon="-0.38499">
        <ele>53.2</ele>
        <time>2023-04-28T11:02:09Z</time>
      </trkpt>
      <trkpt lat="49.19437" lon="-0.38507">
        <ele>53.2</ele>
        <time>2023-04-28T11:02:10Z</time>
      </trkpt>
      <trkpt lat="49.19443" lon="-0.38515">
        <ele>53.4</ele>
        <time>2023-04-28T11:02:11Z</time>
      </trkpt>
      <trkpt lat="49.19448" lon="-0.38522">
        <ele>53.4</ele>
        <time>2023-04-28T11:02:12Z</time>
      </trkpt>
      <trkpt lat="49.19454" lon="-0.38529">
        <ele>53.4</ele>
        <time>2023-04-28T11:02:13Z</time>
      </trkpt>
      <trkpt lat="49.1946" lon="-0.38535">
        <ele>53.4</ele>
        <time>2023-04-28T11:02:14Z</time>
      </trkpt>
      <trkpt lat="49.19465" lon="-0.38541">
        <ele>53.4</ele>
        <time>2023-04-28T11:02:15Z</time>
      </trkpt>
      <trkpt lat="49.1947" lon="-0.38546">
        <ele>53.2</ele>
        <time>2023-04-28T11:02:16Z</time>
      </trkpt>
      <trkpt lat="49.19474" lon="-0.38551">
        <ele>53.2</ele>
        <time>2023-04-28T11:02:17Z</time>
      </trkpt>
      <trkpt lat="49.19479" lon="-0.38555">
        <ele>53.2</ele>
        <time>2023-04-28T11:02:18Z</time>
      </trkpt>
      <trkpt lat="49.19484" lon="-0.3856">
        <ele>53</ele>
        <time>2023-04-28T11:02:19Z</time>
      </trkpt>
      <trkpt lat="49.19488" lon="-0.38564">
        <ele>53</ele>
        <time>2023-04-28T11:02:20Z</time>
      </trkpt>
      <trkpt lat="49.19493" lon="-0.38569">
        <ele>53</ele>
        <time>2023-04-28T11:02:21Z</time>
      </trkpt>
      <trkpt lat="49.19498" lon="-0.38573">
        <ele>52.8</ele>
        <time>2023-04-28T11:02:22Z</time>
      </trkpt>
      <trkpt lat="49.19504" lon="-0.38577">
        <ele>52.6</ele>
        <time>2023-04-28T11:02:23Z</time>
      </trkpt>
      <trkpt lat="49.19509" lon="-0.38581">
        <ele>52.6</ele>
        <time>2023-04-28T11:02:24Z</time>
      </trkpt>
      <trkpt lat="49.19515" lon="-0.38586">
        <ele>52.6</ele>
        <time>2023-04-28T11:02:25Z</time>
      </trkpt>
      <trkpt lat="49.1952" lon="-0.3859">
        <ele>52.4</ele>
        <time>2023-04-28T11:02:26Z</time>
      </trkpt>
      <trkpt lat="49.19526" lon="-0.38594">
        <ele>52.2</ele>
        <time>2023-04-28T11:02:27Z</time>
      </trkpt>
      <trkpt lat="49.19532" lon="-0.38598">
        <ele>52.2</ele>
        <time>2023-04-28T11:02:28Z</time>
      </trkpt>
      <trkpt lat="49.19539" lon="-0.38602">
        <ele>52.2</ele>
        <time>2023-04-28T11:02:29Z</time>
      </trkpt>
      <trkpt lat="49.19545" lon="-0.38606">
        <ele>52</ele>
        <time>2023-04-28T11:02:30Z</time>
      </trkpt>
      <trkpt lat="49.19551" lon="-0.3861">
        <ele>52</ele>
        <time>2023-04-28T11:02:31Z</time>
      </trkpt>
      <trkpt lat="49.19557" lon="-0.38614">
        <ele>52</ele>
        <time>2023-04-28T11:02:32Z</time>
      </trkpt>
      <trkpt lat="49.19563" lon="-0.38618">
        <ele>52</ele>
        <time>2023-04-28T11:02:33Z</time>
      </trkpt>
      <trkpt lat="49.1957" lon="-0.38622">
        <ele>52</ele>
        <time>2023-04-28T11:02:34Z</time>
      </trkpt>
      <trkpt lat="49.19576" lon="-0.38626">
        <ele>52.2</ele>
        <time>2023-04-28T11:02:35Z</time>
      </trkpt>
      <trkpt lat="49.19582" lon="-0.3863">
        <ele>52.2</ele>
        <time>2023-04-28T11:02:36Z</time>
      </trkpt>
      <trkpt lat="49.19588" lon="-0.38634">
        <ele>52.2</ele>
        <time>2023-04-28T11:02:37Z</time>
      </trkpt>
      <trkpt lat="49.19594" lon="-0.38638">
        <ele>52.6</ele>
        <time>2023-04-28T11:02:38Z</time>
      </trkpt>
      <trkpt lat="49.196" lon="-0.38642">
        <ele>52.6</ele>
        <time>2023-04-28T11:02:39Z</time>
      </trkpt>
      <trkpt lat="49.19606" lon="-0.38646">
        <ele>52.8</ele>
        <time>2023-04-28T11:02:40Z</time>
      </trkpt>
      <trkpt lat="49.19612" lon="-0.3865">
        <ele>53</ele>
        <time>2023-04-28T11:02:41Z</time>
      </trkpt>
      <trkpt lat="49.19618" lon="-0.38655">
        <ele>53.2</ele>
        <time>2023-04-28T11:02:42Z</time>
      </trkpt>
      <trkpt lat="49.19624" lon="-0.38659">
        <ele>53.4</ele>
        <time>2023-04-28T11:02:43Z</time>
      </trkpt>
      <trkpt lat="49.19629" lon="-0.38663">
        <ele>53.8</ele>
        <time>2023-04-28T11:02:44Z</time>
      </trkpt>
      <trkpt lat="49.19635" lon="-0.38668">
        <ele>54</ele>
        <time>2023-04-28T11:02:45Z</time>
      </trkpt>
      <trkpt lat="49.19641" lon="-0.38672">
        <ele>54</ele>
        <time>2023-04-28T11:02:46Z</time>
      </trkpt>
      <trkpt lat="49.19647" lon="-0.38677">
        <ele>54.2</ele>
        <time>2023-04-28T11:02:47Z</time>
      </trkpt>
      <trkpt lat="49.19652" lon="-0.38682">
        <ele>54.2</ele>
        <time>2023-04-28T11:02:48Z</time>
      </trkpt>
      <trkpt lat="49.19658" lon="-0.38687">
        <ele>54.6</ele>
        <time>2023-04-28T11:02:49Z</time>
      </trkpt>
      <trkpt lat="49.19664" lon="-0.38692">
        <ele>54.6</ele>
        <time>2023-04-28T11:02:50Z</time>
      </trkpt>
      <trkpt lat="49.1967" lon="-0.38697">
        <ele>54.6</ele>
        <time>2023-04-28T11:02:51Z</time>
      </trkpt>
      <trkpt lat="49.19675" lon="-0.38702">
        <ele>54.6</ele>
        <time>2023-04-28T11:02:52Z</time>
      </trkpt>
      <trkpt lat="49.19681" lon="-0.38707">
        <ele>54.6</ele>
        <time>2023-04-28T11:02:53Z</time>
      </trkpt>
      <trkpt lat="49.19687" lon="-0.38712">
        <ele>54.4</ele>
        <time>2023-04-28T11:02:54Z</time>
      </trkpt>
      <trkpt lat="49.19692" lon="-0.38718">
        <ele>54.2</ele>
        <time>2023-04-28T11:02:55Z</time>
      </trkpt>
      <trkpt lat="49.19698" lon="-0.38723">
        <ele>54.2</ele>
        <time>2023-04-28T11:02:56Z</time>
      </trkpt>
      <trkpt lat="49.19704" lon="-0.38729">
        <ele>54.2</ele>
        <time>2023-04-28T11:02:57Z</time>
      </trkpt>
      <trkpt lat="49.19709" lon="-0.38734">
        <ele>54</ele>
        <time>2023-04-28T11:02:58Z</time>
      </trkpt>
      <trkpt lat="49.19714" lon="-0.3874">
        <ele>54</ele>
        <time>2023-04-28T11:02:59Z</time>
      </trkpt>
      <trkpt lat="49.1972" lon="-0.38745">
        <ele>54</ele>
        <time>2023-04-28T11:03:00Z</time>
      </trkpt>
      <trkpt lat="49.19725" lon="-0.38751">
        <ele>54</ele>
        <time>2023-04-28T11:03:01Z</time>
      </trkpt>
      <trkpt lat="49.19731" lon="-0.38757">
        <ele>54</ele>
        <time>2023-04-28T11:03:02Z</time>
      </trkpt>
      <trkpt lat="49.19736" lon="-0.38763">
        <ele>53.8</ele>
        <time>2023-04-28T11:03:03Z</time>
      </trkpt>
      <trkpt lat="49.19741" lon="-0.38769">
        <ele>53.8</ele>
        <time>2023-04-28T11:03:04Z</time>
      </trkpt>
      <trkpt lat="49.19746" lon="-0.38774">
        <ele>53.8</ele>
        <time>2023-04-28T11:03:05Z</time>
      </trkpt>
      <trkpt lat="49.19751" lon="-0.3878">
        <ele>53.8</ele>
        <time>2023-04-28T11:03:06Z</time>
      </trkpt>
      <trkpt lat="49.19756" lon="-0.38786">
        <ele>54</ele>
        <time>2023-04-28T11:03:07Z</time>
      </trkpt>
      <trkpt lat="49.1976" lon="-0.38792">
        <ele>54</ele>
        <time>2023-04-28T11:03:08Z</time>
      </trkpt>
      <trkpt lat="49.19765" lon="-0.38798">
        <ele>54.2</ele>
        <time>2023-04-28T11:03:09Z</time>
      </trkpt>
      <trkpt lat="49.19769" lon="-0.38804">
        <ele>54.2</ele>
        <time>2023-04-28T11:03:10Z</time>
      </trkpt>
      <trkpt lat="49.19773" lon="-0.38809">
        <ele>54.2</ele>
        <time>2023-04-28T11:03:11Z</time>
      </trkpt>
      <trkpt lat="49.19778" lon="-0.38815">
        <ele>54.2</ele>
        <time>2023-04-28T11:03:12Z</time>
      </trkpt>
      <trkpt lat="49.19782" lon="-0.38821">
        <ele>54.2</ele>
        <time>2023-04-28T11:03:13Z</time>
      </trkpt>
      <trkpt lat="49.19786" lon="-0.38827">
        <ele>54.2</ele>
        <time>2023-04-28T11:03:14Z</time>
      </trkpt>
      <trkpt lat="49.19789" lon="-0.38832">
        <ele>54</ele>
        <time>2023-04-28T11:03:15Z</time>
      </trkpt>
      <trkpt lat="49.19793" lon="-0.38838">
        <ele>54.2</ele>
        <time>2023-04-28T11:03:16Z</time>
      </trkpt>
      <trkpt lat="49.19797" lon="-0.38844">
        <ele>54.6</ele>
        <time>2023-04-28T11:03:17Z</time>
      </trkpt>
      <trkpt lat="49.19801" lon="-0.38849">
        <ele>54.8</ele>
        <time>2023-04-28T11:03:18Z</time>
      </trkpt>
      <trkpt lat="49.19804" lon="-0.38855">
        <ele>55</ele>
        <time>2023-04-28T11:03:19Z</time>
      </trkpt>
      <trkpt lat="49.19808" lon="-0.3886">
        <ele>55.2</ele>
        <time>2023-04-28T11:03:20Z</time>
      </trkpt>
      <trkpt lat="49.19811" lon="-0.38866">
        <ele>55.2</ele>
        <time>2023-04-28T11:03:21Z</time>
      </trkpt>
      <trkpt lat="49.19814" lon="-0.38871">
        <ele>55.4</ele>
        <time>2023-04-28T11:03:22Z</time>
      </trkpt>
      <trkpt lat="49.19817" lon="-0.38876">
        <ele>55.6</ele>
        <time>2023-04-28T11:03:23Z</time>
      </trkpt>
      <trkpt lat="49.1982" lon="-0.3888">
        <ele>55.6</ele>
        <time>2023-04-28T11:03:24Z</time>
      </trkpt>
      <trkpt lat="49.19822" lon="-0.38884">
        <ele>55.6</ele>
        <time>2023-04-28T11:03:25Z</time>
      </trkpt>
      <trkpt lat="49.19825" lon="-0.38887">
        <ele>55.6</ele>
        <time>2023-04-28T11:03:26Z</time>
      </trkpt>
      <trkpt lat="49.19826" lon="-0.3889">
        <ele>55.6</ele>
        <time>2023-04-28T11:03:27Z</time>
      </trkpt>
      <trkpt lat="49.19827" lon="-0.38891">
        <ele>55.6</ele>
        <time>2023-04-28T11:03:28Z</time>
      </trkpt>
      <trkpt lat="49.19828" lon="-0.38893">
        <ele>55.6</ele>
        <time>2023-04-28T11:03:29Z</time>
      </trkpt>
      <trkpt lat="49.19828" lon="-0.38894">
        <ele>55.6</ele>
        <time>2023-04-28T11:03:30Z</time>
      </trkpt>
      <trkpt lat="49.19829" lon="-0.38895">
        <ele>55.6</ele>
        <time>2023-04-28T11:03:31Z</time>
      </trkpt>
      <trkpt lat="49.1983" lon="-0.38896">
        <ele>55.6</ele>
        <time>2023-04-28T11:03:32Z</time>
      </trkpt>
      <trkpt lat="49.1983" lon="-0.38898">
        <ele>55.6</ele>
        <time>2023-04-28T11:03:33Z</time>
      </trkpt>
      <trkpt lat="49.19831" lon="-0.38899">
        <ele>55.6</ele>
        <time>2023-04-28T11:03:34Z</time>
      </trkpt>
      <trkpt lat="49.19832" lon="-0.38902">
        <ele>55.6</ele>
        <time>2023-04-28T11:03:35Z</time>
      </trkpt>
      <trkpt lat="49.19834" lon="-0.38906">
        <ele>55.8</ele>
        <time>2023-04-28T11:03:36Z</time>
      </trkpt>
      <trkpt lat="49.19837" lon="-0.38911">
        <ele>56</ele>
        <time>2023-04-28T11:03:37Z</time>
      </trkpt>
      <trkpt lat="49.1984" lon="-0.38917">
        <ele>56.2</ele>
        <time>2023-04-28T11:03:38Z</time>
      </trkpt>
      <trkpt lat="49.19843" lon="-0.38923">
        <ele>57</ele>
        <time>2023-04-28T11:03:39Z</time>
      </trkpt>
      <trkpt lat="49.19847" lon="-0.3893">
        <ele>57.2</ele>
        <time>2023-04-28T11:03:40Z</time>
      </trkpt>
      <trkpt lat="49.1985" lon="-0.38937">
        <ele>57.8</ele>
        <time>2023-04-28T11:03:41Z</time>
      </trkpt>
      <trkpt lat="49.19853" lon="-0.38944">
        <ele>58.2</ele>
        <time>2023-04-28T11:03:42Z</time>
      </trkpt>
      <trkpt lat="49.19857" lon="-0.38951">
        <ele>58.8</ele>
        <time>2023-04-28T11:03:43Z</time>
      </trkpt>
      <trkpt lat="49.1986" lon="-0.38958">
        <ele>59</ele>
        <time>2023-04-28T11:03:44Z</time>
      </trkpt>
      <trkpt lat="49.19863" lon="-0.38966">
        <ele>59.6</ele>
        <time>2023-04-28T11:03:45Z</time>
      </trkpt>
      <trkpt lat="49.19866" lon="-0.38973">
        <ele>60</ele>
        <time>2023-04-28T11:03:46Z</time>
      </trkpt>
      <trkpt lat="49.19869" lon="-0.3898">
        <ele>60.2</ele>
        <time>2023-04-28T11:03:47Z</time>
      </trkpt>
      <trkpt lat="49.19872" lon="-0.38987">
        <ele>60.6</ele>
        <time>2023-04-28T11:03:48Z</time>
      </trkpt>
      <trkpt lat="49.19874" lon="-0.38994">
        <ele>60.8</ele>
        <time>2023-04-28T11:03:49Z</time>
      </trkpt>
      <trkpt lat="49.19877" lon="-0.39001">
        <ele>61</ele>
        <time>2023-04-28T11:03:50Z</time>
      </trkpt>
      <trkpt lat="49.1988" lon="-0.39007">
        <ele>61.4</ele>
        <time>2023-04-28T11:03:51Z</time>
      </trkpt>
      <trkpt lat="49.19882" lon="-0.39014">
        <ele>61.8</ele>
        <time>2023-04-28T11:03:52Z</time>
      </trkpt>
      <trkpt lat="49.19884" lon="-0.39021">
        <ele>62</ele>
        <time>2023-04-28T11:03:53Z</time>
      </trkpt>
      <trkpt lat="49.19887" lon="-0.39028">
        <ele>62.4</ele>
        <time>2023-04-28T11:03:54Z</time>
      </trkpt>
      <trkpt lat="49.19889" lon="-0.39035">
        <ele>62.8</ele>
        <time>2023-04-28T11:03:55Z</time>
      </trkpt>
      <trkpt lat="49.19892" lon="-0.39041">
        <ele>63</ele>
        <time>2023-04-28T11:03:56Z</time>
      </trkpt>
      <trkpt lat="49.19895" lon="-0.39046">
        <ele>63</ele>
        <time>2023-04-28T11:03:57Z</time>
      </trkpt>
      <trkpt lat="49.19899" lon="-0.39049">
        <ele>63</ele>
        <time>2023-04-28T11:03:58Z</time>
      </trkpt>
      <trkpt lat="49.19904" lon="-0.39049">
        <ele>62.8</ele>
        <time>2023-04-28T11:03:59Z</time>
      </trkpt>
      <trkpt lat="49.19907" lon="-0.39046">
        <ele>62.6</ele>
        <time>2023-04-28T11:04:00Z</time>
      </trkpt>
      <trkpt lat="49.19911" lon="-0.39042">
        <ele>62.2</ele>
        <time>2023-04-28T11:04:01Z</time>
      </trkpt>
      <trkpt lat="49.19915" lon="-0.39037">
        <ele>62</ele>
        <time>2023-04-28T11:04:02Z</time>
      </trkpt>
      <trkpt lat="49.19919" lon="-0.39033">
        <ele>62</ele>
        <time>2023-04-28T11:04:03Z</time>
      </trkpt>
      <trkpt lat="49.19923" lon="-0.39029">
        <ele>62</ele>
        <time>2023-04-28T11:04:04Z</time>
      </trkpt>
      <trkpt lat="49.19927" lon="-0.39024">
        <ele>62</ele>
        <time>2023-04-28T11:04:05Z</time>
      </trkpt>
      <trkpt lat="49.19931" lon="-0.3902">
        <ele>62</ele>
        <time>2023-04-28T11:04:06Z</time>
      </trkpt>
      <trkpt lat="49.19936" lon="-0.39016">
        <ele>62</ele>
        <time>2023-04-28T11:04:07Z</time>
      </trkpt>
      <trkpt lat="49.1994" lon="-0.39011">
        <ele>62</ele>
        <time>2023-04-28T11:04:08Z</time>
      </trkpt>
      <trkpt lat="49.19944" lon="-0.39007">
        <ele>62</ele>
        <time>2023-04-28T11:04:09Z</time>
      </trkpt>
      <trkpt lat="49.19948" lon="-0.39002">
        <ele>62.2</ele>
        <time>2023-04-28T11:04:10Z</time>
      </trkpt>
      <trkpt lat="49.19952" lon="-0.38997">
        <ele>62.2</ele>
        <time>2023-04-28T11:04:11Z</time>
      </trkpt>
      <trkpt lat="49.19957" lon="-0.38993">
        <ele>62.4</ele>
        <time>2023-04-28T11:04:12Z</time>
      </trkpt>
      <trkpt lat="49.19961" lon="-0.38988">
        <ele>62.4</ele>
        <time>2023-04-28T11:04:13Z</time>
      </trkpt>
      <trkpt lat="49.19965" lon="-0.38983">
        <ele>62.6</ele>
        <time>2023-04-28T11:04:14Z</time>
      </trkpt>
      <trkpt lat="49.1997" lon="-0.38979">
        <ele>62.8</ele>
        <time>2023-04-28T11:04:15Z</time>
      </trkpt>
      <trkpt lat="49.19974" lon="-0.38974">
        <ele>62.8</ele>
        <time>2023-04-28T11:04:16Z</time>
      </trkpt>
      <trkpt lat="49.19978" lon="-0.38969">
        <ele>63</ele>
        <time>2023-04-28T11:04:17Z</time>
      </trkpt>
      <trkpt lat="49.19983" lon="-0.38964">
        <ele>63</ele>
        <time>2023-04-28T11:04:18Z</time>
      </trkpt>
      <trkpt lat="49.19987" lon="-0.38959">
        <ele>63</ele>
        <time>2023-04-28T11:04:19Z</time>
      </trkpt>
      <trkpt lat="49.19992" lon="-0.38955">
        <ele>63.2</ele>
        <time>2023-04-28T11:04:20Z</time>
      </trkpt>
      <trkpt lat="49.19996" lon="-0.3895">
        <ele>63.2</ele>
        <time>2023-04-28T11:04:21Z</time>
      </trkpt>
      <trkpt lat="49.20001" lon="-0.38945">
        <ele>63.2</ele>
        <time>2023-04-28T11:04:22Z</time>
      </trkpt>
      <trkpt lat="49.20005" lon="-0.3894">
        <ele>63.2</ele>
        <time>2023-04-28T11:04:23Z</time>
      </trkpt>
      <trkpt lat="49.2001" lon="-0.38935">
        <ele>63.2</ele>
        <time>2023-04-28T11:04:24Z</time>
      </trkpt>
      <trkpt lat="49.20014" lon="-0.3893">
        <ele>63.2</ele>
        <time>2023-04-28T11:04:25Z</time>
      </trkpt>
      <trkpt lat="49.20019" lon="-0.38925">
        <ele>63.2</ele>
        <time>2023-04-28T11:04:26Z</time>
      </trkpt>
      <trkpt lat="49.20023" lon="-0.3892">
        <ele>63.2</ele>
        <time>2023-04-28T11:04:27Z</time>
      </trkpt>
      <trkpt lat="49.20028" lon="-0.38915">
        <ele>63.2</ele>
        <time>2023-04-28T11:04:28Z</time>
      </trkpt>
      <trkpt lat="49.20032" lon="-0.3891">
        <ele>63.2</ele>
        <time>2023-04-28T11:04:29Z</time>
      </trkpt>
      <trkpt lat="49.20037" lon="-0.38905">
        <ele>63.2</ele>
        <time>2023-04-28T11:04:30Z</time>
      </trkpt>
      <trkpt lat="49.20041" lon="-0.389">
        <ele>63</ele>
        <time>2023-04-28T11:04:31Z</time>
      </trkpt>
      <trkpt lat="49.20046" lon="-0.38895">
        <ele>63</ele>
        <time>2023-04-28T11:04:32Z</time>
      </trkpt>
      <trkpt lat="49.2005" lon="-0.3889">
        <ele>63</ele>
        <time>2023-04-28T11:04:33Z</time>
      </trkpt>
      <trkpt lat="49.20055" lon="-0.38885">
        <ele>63</ele>
        <time>2023-04-28T11:04:34Z</time>
      </trkpt>
      <trkpt lat="49.20059" lon="-0.38881">
        <ele>63</ele>
        <time>2023-04-28T11:04:35Z</time>
      </trkpt>
      <trkpt lat="49.20064" lon="-0.38876">
        <ele>63</ele>
        <time>2023-04-28T11:04:36Z</time>
      </trkpt>
      <trkpt lat="49.20068" lon="-0.38871">
        <ele>63</ele>
        <time>2023-04-28T11:04:37Z</time>
      </trkpt>
      <trkpt lat="49.20072" lon="-0.38866">
        <ele>63</ele>
        <time>2023-04-28T11:04:38Z</time>
      </trkpt>
      <trkpt lat="49.20077" lon="-0.38861">
        <ele>63</ele>
        <time>2023-04-28T11:04:39Z</time>
      </trkpt>
      <trkpt lat="49.2008" lon="-0.38855">
        <ele>63.2</ele>
        <time>2023-04-28T11:04:40Z</time>
      </trkpt>
      <trkpt lat="49.20082" lon="-0.38848">
        <ele>63.2</ele>
        <time>2023-04-28T11:04:41Z</time>
      </trkpt>
      <trkpt lat="49.20084" lon="-0.38841">
        <ele>63</ele>
        <time>2023-04-28T11:04:42Z</time>
      </trkpt>
      <trkpt lat="49.20085" lon="-0.38833">
        <ele>63</ele>
        <time>2023-04-28T11:04:43Z</time>
      </trkpt>
      <trkpt lat="49.20086" lon="-0.38825">
        <ele>63.4</ele>
        <time>2023-04-28T11:04:44Z</time>
      </trkpt>
      <trkpt lat="49.20088" lon="-0.38818">
        <ele>63.8</ele>
        <time>2023-04-28T11:04:45Z</time>
      </trkpt>
      <trkpt lat="49.20092" lon="-0.38811">
        <ele>64</ele>
        <time>2023-04-28T11:04:46Z</time>
      </trkpt>
      <trkpt lat="49.20097" lon="-0.38808">
        <ele>64.4</ele>
        <time>2023-04-28T11:04:47Z</time>
      </trkpt>
      <trkpt lat="49.20102" lon="-0.38808">
        <ele>64.6</ele>
        <time>2023-04-28T11:04:48Z</time>
      </trkpt>
      <trkpt lat="49.20106" lon="-0.38812">
        <ele>64.6</ele>
        <time>2023-04-28T11:04:49Z</time>
      </trkpt>
      <trkpt lat="49.20109" lon="-0.38819">
        <ele>64.6</ele>
        <time>2023-04-28T11:04:50Z</time>
      </trkpt>
      <trkpt lat="49.20112" lon="-0.38826">
        <ele>64.6</ele>
        <time>2023-04-28T11:04:51Z</time>
      </trkpt>
      <trkpt lat="49.20114" lon="-0.38834">
        <ele>64.6</ele>
        <time>2023-04-28T11:04:52Z</time>
      </trkpt>
      <trkpt lat="49.20117" lon="-0.38842">
        <ele>64.6</ele>
        <time>2023-04-28T11:04:53Z</time>
      </trkpt>
      <trkpt lat="49.2012" lon="-0.3885">
        <ele>65</ele>
        <time>2023-04-28T11:04:54Z</time>
      </trkpt>
      <trkpt lat="49.20123" lon="-0.38858">
        <ele>65.2</ele>
        <time>2023-04-28T11:04:55Z</time>
      </trkpt>
      <trkpt lat="49.20127" lon="-0.38865">
        <ele>65.6</ele>
        <time>2023-04-28T11:04:56Z</time>
      </trkpt>
      <trkpt lat="49.20132" lon="-0.38872">
        <ele>65.8</ele>
        <time>2023-04-28T11:04:57Z</time>
      </trkpt>
      <trkpt lat="49.20136" lon="-0.38879">
        <ele>66</ele>
        <time>2023-04-28T11:04:58Z</time>
      </trkpt>
      <trkpt lat="49.20141" lon="-0.38887">
        <ele>66.4</ele>
        <time>2023-04-28T11:04:59Z</time>
      </trkpt>
      <trkpt lat="49.20145" lon="-0.38894">
        <ele>66.6</ele>
        <time>2023-04-28T11:05:00Z</time>
      </trkpt>
      <trkpt lat="49.2015" lon="-0.38901">
        <ele>67</ele>
        <time>2023-04-28T11:05:01Z</time>
      </trkpt>
      <trkpt lat="49.20154" lon="-0.38909">
        <ele>67.4</ele>
        <time>2023-04-28T11:05:02Z</time>
      </trkpt>
      <trkpt lat="49.20159" lon="-0.38916">
        <ele>67.6</ele>
        <time>2023-04-28T11:05:03Z</time>
      </trkpt>
      <trkpt lat="49.20163" lon="-0.38923">
        <ele>67.8</ele>
        <time>2023-04-28T11:05:04Z</time>
      </trkpt>
      <trkpt lat="49.20168" lon="-0.38931">
        <ele>67.8</ele>
        <time>2023-04-28T11:05:05Z</time>
      </trkpt>
      <trkpt lat="49.20172" lon="-0.38938">
        <ele>67.6</ele>
        <time>2023-04-28T11:05:06Z</time>
      </trkpt>
      <trkpt lat="49.20177" lon="-0.38946">
        <ele>67.6</ele>
        <time>2023-04-28T11:05:07Z</time>
      </trkpt>
      <trkpt lat="49.20181" lon="-0.38954">
        <ele>67.6</ele>
        <time>2023-04-28T11:05:08Z</time>
      </trkpt>
      <trkpt lat="49.20186" lon="-0.38961">
        <ele>67.4</ele>
        <time>2023-04-28T11:05:09Z</time>
      </trkpt>
      <trkpt lat="49.2019" lon="-0.38969">
        <ele>67.4</ele>
        <time>2023-04-28T11:05:10Z</time>
      </trkpt>
      <trkpt lat="49.20195" lon="-0.38976">
        <ele>67.2</ele>
        <time>2023-04-28T11:05:11Z</time>
      </trkpt>
      <trkpt lat="49.20199" lon="-0.38984">
        <ele>67</ele>
        <time>2023-04-28T11:05:12Z</time>
      </trkpt>
      <trkpt lat="49.20204" lon="-0.38991">
        <ele>67</ele>
        <time>2023-04-28T11:05:13Z</time>
      </trkpt>
      <trkpt lat="49.20208" lon="-0.38999">
        <ele>67</ele>
        <time>2023-04-28T11:05:14Z</time>
      </trkpt>
      <trkpt lat="49.20213" lon="-0.39006">
        <ele>67</ele>
        <time>2023-04-28T11:05:15Z</time>
      </trkpt>
      <trkpt lat="49.20217" lon="-0.39014">
        <ele>66.8</ele>
        <time>2023-04-28T11:05:16Z</time>
      </trkpt>
      <trkpt lat="49.20222" lon="-0.39021">
        <ele>66.6</ele>
        <time>2023-04-28T11:05:17Z</time>
      </trkpt>
      <trkpt lat="49.20226" lon="-0.39028">
        <ele>66.6</ele>
        <time>2023-04-28T11:05:18Z</time>
      </trkpt>
      <trkpt lat="49.2023" lon="-0.39036">
        <ele>66.6</ele>
        <time>2023-04-28T11:05:19Z</time>
      </trkpt>
      <trkpt lat="49.20235" lon="-0.39043">
        <ele>66.6</ele>
        <time>2023-04-28T11:05:20Z</time>
      </trkpt>
      <trkpt lat="49.20239" lon="-0.3905">
        <ele>66.4</ele>
        <time>2023-04-28T11:05:21Z</time>
      </trkpt>
      <trkpt lat="49.20243" lon="-0.39057">
        <ele>66.4</ele>
        <time>2023-04-28T11:05:22Z</time>
      </trkpt>
      <trkpt lat="49.20248" lon="-0.39065">
        <ele>66.2</ele>
        <time>2023-04-28T11:05:23Z</time>
      </trkpt>
      <trkpt lat="49.20252" lon="-0.39072">
        <ele>66.2</ele>
        <time>2023-04-28T11:05:24Z</time>
      </trkpt>
      <trkpt lat="49.20256" lon="-0.39079">
        <ele>66.2</ele>
        <time>2023-04-28T11:05:25Z</time>
      </trkpt>
      <trkpt lat="49.20261" lon="-0.39086">
        <ele>66.4</ele>
        <time>2023-04-28T11:05:26Z</time>
      </trkpt>
      <trkpt lat="49.20265" lon="-0.39093">
        <ele>66.4</ele>
        <time>2023-04-28T11:05:27Z</time>
      </trkpt>
      <trkpt lat="49.2027" lon="-0.39099">
        <ele>66.6</ele>
        <time>2023-04-28T11:05:28Z</time>
      </trkpt>
      <trkpt lat="49.20275" lon="-0.39102">
        <ele>66.6</ele>
        <time>2023-04-28T11:05:29Z</time>
      </trkpt>
      <trkpt lat="49.2028" lon="-0.39101">
        <ele>66.6</ele>
        <time>2023-04-28T11:05:30Z</time>
      </trkpt>
      <trkpt lat="49.20285" lon="-0.39098">
        <ele>66.8</ele>
        <time>2023-04-28T11:05:31Z</time>
      </trkpt>
      <trkpt lat="49.2029" lon="-0.39095">
        <ele>67</ele>
        <time>2023-04-28T11:05:32Z</time>
      </trkpt>
      <trkpt lat="49.20296" lon="-0.39093">
        <ele>67</ele>
        <time>2023-04-28T11:05:33Z</time>
      </trkpt>
      <trkpt lat="49.20301" lon="-0.39092">
        <ele>67.2</ele>
        <time>2023-04-28T11:05:34Z</time>
      </trkpt>
      <trkpt lat="49.20308" lon="-0.39093">
        <ele>67.4</ele>
        <time>2023-04-28T11:05:35Z</time>
      </trkpt>
      <trkpt lat="49.20313" lon="-0.39096">
        <ele>67.6</ele>
        <time>2023-04-28T11:05:36Z</time>
      </trkpt>
      <trkpt lat="49.20318" lon="-0.39101">
        <ele>67.6</ele>
        <time>2023-04-28T11:05:37Z</time>
      </trkpt>
      <trkpt lat="49.20323" lon="-0.39106">
        <ele>67.8</ele>
        <time>2023-04-28T11:05:38Z</time>
      </trkpt>
      <trkpt lat="49.20328" lon="-0.39113">
        <ele>68</ele>
        <time>2023-04-28T11:05:39Z</time>
      </trkpt>
      <trkpt lat="49.20332" lon="-0.39119">
        <ele>68</ele>
        <time>2023-04-28T11:05:40Z</time>
      </trkpt>
      <trkpt lat="49.20337" lon="-0.39125">
        <ele>68</ele>
        <time>2023-04-28T11:05:41Z</time>
      </trkpt>
      <trkpt lat="49.20341" lon="-0.39128">
        <ele>68</ele>
        <time>2023-04-28T11:05:42Z</time>
      </trkpt>
      <trkpt lat="49.20347" lon="-0.39128">
        <ele>67.8</ele>
        <time>2023-04-28T11:05:43Z</time>
      </trkpt>
      <trkpt lat="49.20352" lon="-0.39126">
        <ele>67.8</ele>
        <time>2023-04-28T11:05:44Z</time>
      </trkpt>
      <trkpt lat="49.20358" lon="-0.39123">
        <ele>67.6</ele>
        <time>2023-04-28T11:05:45Z</time>
      </trkpt>
      <trkpt lat="49.20364" lon="-0.39122">
        <ele>67.6</ele>
        <time>2023-04-28T11:05:46Z</time>
      </trkpt>
      <trkpt lat="49.2037" lon="-0.3912">
        <ele>67.6</ele>
        <time>2023-04-28T11:05:47Z</time>
      </trkpt>
      <trkpt lat="49.20376" lon="-0.39118">
        <ele>67.6</ele>
        <time>2023-04-28T11:05:48Z</time>
      </trkpt>
      <trkpt lat="49.20382" lon="-0.39116">
        <ele>67.4</ele>
        <time>2023-04-28T11:05:49Z</time>
      </trkpt>
      <trkpt lat="49.20387" lon="-0.39114">
        <ele>67.4</ele>
        <time>2023-04-28T11:05:50Z</time>
      </trkpt>
      <trkpt lat="49.20393" lon="-0.39111">
        <ele>67.4</ele>
        <time>2023-04-28T11:05:51Z</time>
      </trkpt>
      <trkpt lat="49.20399" lon="-0.39107">
        <ele>67.2</ele>
        <time>2023-04-28T11:05:52Z</time>
      </trkpt>
      <trkpt lat="49.20405" lon="-0.39103">
        <ele>67</ele>
        <time>2023-04-28T11:05:53Z</time>
      </trkpt>
      <trkpt lat="49.2041" lon="-0.39098">
        <ele>67</ele>
        <time>2023-04-28T11:05:54Z</time>
      </trkpt>
      <trkpt lat="49.20416" lon="-0.39093">
        <ele>67</ele>
        <time>2023-04-28T11:05:55Z</time>
      </trkpt>
      <trkpt lat="49.20421" lon="-0.39087">
        <ele>67</ele>
        <time>2023-04-28T11:05:56Z</time>
      </trkpt>
      <trkpt lat="49.20426" lon="-0.39082">
        <ele>67</ele>
        <time>2023-04-28T11:05:57Z</time>
      </trkpt>
      <trkpt lat="49.20432" lon="-0.39076">
        <ele>67</ele>
        <time>2023-04-28T11:05:58Z</time>
      </trkpt>
      <trkpt lat="49.20436" lon="-0.3907">
        <ele>67</ele>
        <time>2023-04-28T11:05:59Z</time>
      </trkpt>
      <trkpt lat="49.20442" lon="-0.39064">
        <ele>67.2</ele>
        <time>2023-04-28T11:06:00Z</time>
      </trkpt>
      <trkpt lat="49.20447" lon="-0.39057">
        <ele>67.2</ele>
        <time>2023-04-28T11:06:01Z</time>
      </trkpt>
      <trkpt lat="49.20452" lon="-0.3905">
        <ele>67.2</ele>
        <time>2023-04-28T11:06:02Z</time>
      </trkpt>
      <trkpt lat="49.20457" lon="-0.39044">
        <ele>67.2</ele>
        <time>2023-04-28T11:06:03Z</time>
      </trkpt>
      <trkpt lat="49.20462" lon="-0.39037">
        <ele>67.4</ele>
        <time>2023-04-28T11:06:04Z</time>
      </trkpt>
      <trkpt lat="49.20467" lon="-0.3903">
        <ele>67.4</ele>
        <time>2023-04-28T11:06:05Z</time>
      </trkpt>
      <trkpt lat="49.20472" lon="-0.39023">
        <ele>67.2</ele>
        <time>2023-04-28T11:06:06Z</time>
      </trkpt>
      <trkpt lat="49.20477" lon="-0.39016">
        <ele>67.2</ele>
        <time>2023-04-28T11:06:07Z</time>
      </trkpt>
      <trkpt lat="49.20482" lon="-0.39009">
        <ele>67.2</ele>
        <time>2023-04-28T11:06:08Z</time>
      </trkpt>
      <trkpt lat="49.20487" lon="-0.39002">
        <ele>67</ele>
        <time>2023-04-28T11:06:09Z</time>
      </trkpt>
      <trkpt lat="49.20492" lon="-0.38996">
        <ele>67</ele>
        <time>2023-04-28T11:06:10Z</time>
      </trkpt>
      <trkpt lat="49.20498" lon="-0.38989">
        <ele>67</ele>
        <time>2023-04-28T11:06:11Z</time>
      </trkpt>
      <trkpt lat="49.20503" lon="-0.38981">
        <ele>66.6</ele>
        <time>2023-04-28T11:06:12Z</time>
      </trkpt>
      <trkpt lat="49.20508" lon="-0.38974">
        <ele>66.6</ele>
        <time>2023-04-28T11:06:13Z</time>
      </trkpt>
      <trkpt lat="49.20513" lon="-0.38967">
        <ele>66.4</ele>
        <time>2023-04-28T11:06:14Z</time>
      </trkpt>
      <trkpt lat="49.20519" lon="-0.3896">
        <ele>66.2</ele>
        <time>2023-04-28T11:06:15Z</time>
      </trkpt>
      <trkpt lat="49.20524" lon="-0.38953">
        <ele>66</ele>
        <time>2023-04-28T11:06:16Z</time>
      </trkpt>
      <trkpt lat="49.2053" lon="-0.38946">
        <ele>66</ele>
        <time>2023-04-28T11:06:17Z</time>
      </trkpt>
      <trkpt lat="49.20535" lon="-0.38939">
        <ele>65.6</ele>
        <time>2023-04-28T11:06:18Z</time>
      </trkpt>
      <trkpt lat="49.2054" lon="-0.38932">
        <ele>65.6</ele>
        <time>2023-04-28T11:06:19Z</time>
      </trkpt>
      <trkpt lat="49.20546" lon="-0.38925">
        <ele>65.6</ele>
        <time>2023-04-28T11:06:20Z</time>
      </trkpt>
      <trkpt lat="49.20551" lon="-0.38918">
        <ele>65.4</ele>
        <time>2023-04-28T11:06:21Z</time>
      </trkpt>
      <trkpt lat="49.20556" lon="-0.38911">
        <ele>65.4</ele>
        <time>2023-04-28T11:06:22Z</time>
      </trkpt>
      <trkpt lat="49.20562" lon="-0.38904">
        <ele>65.6</ele>
        <time>2023-04-28T11:06:23Z</time>
      </trkpt>
      <trkpt lat="49.20567" lon="-0.38897">
        <ele>65.6</ele>
        <time>2023-04-28T11:06:24Z</time>
      </trkpt>
      <trkpt lat="49.20573" lon="-0.3889">
        <ele>65.6</ele>
        <time>2023-04-28T11:06:25Z</time>
      </trkpt>
      <trkpt lat="49.20578" lon="-0.38883">
        <ele>65.8</ele>
        <time>2023-04-28T11:06:26Z</time>
      </trkpt>
      <trkpt lat="49.20584" lon="-0.38876">
        <ele>66</ele>
        <time>2023-04-28T11:06:27Z</time>
      </trkpt>
      <trkpt lat="49.20589" lon="-0.38869">
        <ele>66.2</ele>
        <time>2023-04-28T11:06:28Z</time>
      </trkpt>
      <trkpt lat="49.20595" lon="-0.38862">
        <ele>66.4</ele>
        <time>2023-04-28T11:06:29Z</time>
      </trkpt>
      <trkpt lat="49.20601" lon="-0.38855">
        <ele>66.6</ele>
        <time>2023-04-28T11:06:30Z</time>
      </trkpt>
      <trkpt lat="49.20606" lon="-0.38847">
        <ele>66.6</ele>
        <time>2023-04-28T11:06:31Z</time>
      </trkpt>
      <trkpt lat="49.20612" lon="-0.3884">
        <ele>66.6</ele>
        <time>2023-04-28T11:06:32Z</time>
      </trkpt>
      <trkpt lat="49.20618" lon="-0.38833">
        <ele>66.6</ele>
        <time>2023-04-28T11:06:33Z</time>
      </trkpt>
      <trkpt lat="49.20624" lon="-0.38826">
        <ele>66.6</ele>
        <time>2023-04-28T11:06:34Z</time>
      </trkpt>
      <trkpt lat="49.2063" lon="-0.3882">
        <ele>66.6</ele>
        <time>2023-04-28T11:06:35Z</time>
      </trkpt>
      <trkpt lat="49.20635" lon="-0.38813">
        <ele>66.8</ele>
        <time>2023-04-28T11:06:36Z</time>
      </trkpt>
      <trkpt lat="49.20641" lon="-0.38807">
        <ele>67</ele>
        <time>2023-04-28T11:06:37Z</time>
      </trkpt>
      <trkpt lat="49.20647" lon="-0.388">
        <ele>67</ele>
        <time>2023-04-28T11:06:38Z</time>
      </trkpt>
      <trkpt lat="49.20652" lon="-0.38793">
        <ele>67</ele>
        <time>2023-04-28T11:06:39Z</time>
      </trkpt>
      <trkpt lat="49.20658" lon="-0.38785">
        <ele>67.2</ele>
        <time>2023-04-28T11:06:40Z</time>
      </trkpt>
      <trkpt lat="49.20664" lon="-0.38778">
        <ele>67.4</ele>
        <time>2023-04-28T11:06:41Z</time>
      </trkpt>
      <trkpt lat="49.20669" lon="-0.3877">
        <ele>67.6</ele>
        <time>2023-04-28T11:06:42Z</time>
      </trkpt>
      <trkpt lat="49.20675" lon="-0.38763">
        <ele>67.8</ele>
        <time>2023-04-28T11:06:43Z</time>
      </trkpt>
      <trkpt lat="49.20681" lon="-0.38755">
        <ele>68</ele>
        <time>2023-04-28T11:06:44Z</time>
      </trkpt>
      <trkpt lat="49.20687" lon="-0.38748">
        <ele>68.4</ele>
        <time>2023-04-28T11:06:45Z</time>
      </trkpt>
      <trkpt lat="49.20692" lon="-0.3874">
        <ele>68.6</ele>
        <time>2023-04-28T11:06:46Z</time>
      </trkpt>
      <trkpt lat="49.20698" lon="-0.38733">
        <ele>68.6</ele>
        <time>2023-04-28T11:06:47Z</time>
      </trkpt>
      <trkpt lat="49.20703" lon="-0.38725">
        <ele>68.8</ele>
        <time>2023-04-28T11:06:48Z</time>
      </trkpt>
      <trkpt lat="49.20708" lon="-0.38717">
        <ele>69</ele>
        <time>2023-04-28T11:06:49Z</time>
      </trkpt>
      <trkpt lat="49.20713" lon="-0.38709">
        <ele>69</ele>
        <time>2023-04-28T11:06:50Z</time>
      </trkpt>
      <trkpt lat="49.20718" lon="-0.38702">
        <ele>69</ele>
        <time>2023-04-28T11:06:51Z</time>
      </trkpt>
      <trkpt lat="49.20723" lon="-0.38694">
        <ele>69</ele>
        <time>2023-04-28T11:06:52Z</time>
      </trkpt>
      <trkpt lat="49.20728" lon="-0.38687">
        <ele>68.8</ele>
        <time>2023-04-28T11:06:53Z</time>
      </trkpt>
      <trkpt lat="49.20734" lon="-0.38679">
        <ele>68.6</ele>
        <time>2023-04-28T11:06:54Z</time>
      </trkpt>
      <trkpt lat="49.20739" lon="-0.38672">
        <ele>68.4</ele>
        <time>2023-04-28T11:06:55Z</time>
      </trkpt>
      <trkpt lat="49.20745" lon="-0.38664">
        <ele>68.2</ele>
        <time>2023-04-28T11:06:56Z</time>
      </trkpt>
      <trkpt lat="49.20751" lon="-0.38657">
        <ele>68</ele>
        <time>2023-04-28T11:06:57Z</time>
      </trkpt>
      <trkpt lat="49.20757" lon="-0.3865">
        <ele>68.4</ele>
        <time>2023-04-28T11:06:58Z</time>
      </trkpt>
      <trkpt lat="49.20762" lon="-0.38642">
        <ele>68.4</ele>
        <time>2023-04-28T11:06:59Z</time>
      </trkpt>
      <trkpt lat="49.20768" lon="-0.38635">
        <ele>68.4</ele>
        <time>2023-04-28T11:07:00Z</time>
      </trkpt>
      <trkpt lat="49.20774" lon="-0.38628">
        <ele>68.6</ele>
        <time>2023-04-28T11:07:01Z</time>
      </trkpt>
      <trkpt lat="49.2078" lon="-0.38621">
        <ele>68.6</ele>
        <time>2023-04-28T11:07:02Z</time>
      </trkpt>
      <trkpt lat="49.20787" lon="-0.38614">
        <ele>68.6</ele>
        <time>2023-04-28T11:07:03Z</time>
      </trkpt>
      <trkpt lat="49.20793" lon="-0.38607">
        <ele>68.6</ele>
        <time>2023-04-28T11:07:04Z</time>
      </trkpt>
      <trkpt lat="49.20799" lon="-0.386">
        <ele>68.6</ele>
        <time>2023-04-28T11:07:05Z</time>
      </trkpt>
      <trkpt lat="49.20804" lon="-0.38594">
        <ele>68.4</ele>
        <time>2023-04-28T11:07:06Z</time>
      </trkpt>
      <trkpt lat="49.2081" lon="-0.38587">
        <ele>68.4</ele>
        <time>2023-04-28T11:07:07Z</time>
      </trkpt>
      <trkpt lat="49.20816" lon="-0.3858">
        <ele>68</ele>
        <time>2023-04-28T11:07:08Z</time>
      </trkpt>
      <trkpt lat="49.20822" lon="-0.38573">
        <ele>67.8</ele>
        <time>2023-04-28T11:07:09Z</time>
      </trkpt>
      <trkpt lat="49.20827" lon="-0.38566">
        <ele>67.6</ele>
        <time>2023-04-28T11:07:10Z</time>
      </trkpt>
      <trkpt lat="49.20833" lon="-0.38559">
        <ele>67.2</ele>
        <time>2023-04-28T11:07:11Z</time>
      </trkpt>
      <trkpt lat="49.20838" lon="-0.38552">
        <ele>66.8</ele>
        <time>2023-04-28T11:07:12Z</time>
      </trkpt>
      <trkpt lat="49.20844" lon="-0.38545">
        <ele>66.6</ele>
        <time>2023-04-28T11:07:13Z</time>
      </trkpt>
      <trkpt lat="49.20849" lon="-0.38538">
        <ele>66.4</ele>
        <time>2023-04-28T11:07:14Z</time>
      </trkpt>
      <trkpt lat="49.20855" lon="-0.3853">
        <ele>66</ele>
        <time>2023-04-28T11:07:15Z</time>
      </trkpt>
      <trkpt lat="49.2086" lon="-0.38523">
        <ele>65.6</ele>
        <time>2023-04-28T11:07:16Z</time>
      </trkpt>
      <trkpt lat="49.20866" lon="-0.38516">
        <ele>65.6</ele>
        <time>2023-04-28T11:07:17Z</time>
      </trkpt>
      <trkpt lat="49.20872" lon="-0.38508">
        <ele>65.4</ele>
        <time>2023-04-28T11:07:18Z</time>
      </trkpt>
      <trkpt lat="49.20877" lon="-0.38501">
        <ele>65</ele>
        <time>2023-04-28T11:07:19Z</time>
      </trkpt>
      <trkpt lat="49.20883" lon="-0.38494">
        <ele>65</ele>
        <time>2023-04-28T11:07:20Z</time>
      </trkpt>
      <trkpt lat="49.20889" lon="-0.38486">
        <ele>65</ele>
        <time>2023-04-28T11:07:21Z</time>
      </trkpt>
      <trkpt lat="49.20894" lon="-0.38479">
        <ele>65.2</ele>
        <time>2023-04-28T11:07:22Z</time>
      </trkpt>
      <trkpt lat="49.20899" lon="-0.38471">
        <ele>65.4</ele>
        <time>2023-04-28T11:07:23Z</time>
      </trkpt>
      <trkpt lat="49.20905" lon="-0.38463">
        <ele>65.4</ele>
        <time>2023-04-28T11:07:24Z</time>
      </trkpt>
      <trkpt lat="49.2091" lon="-0.38455">
        <ele>65.6</ele>
        <time>2023-04-28T11:07:25Z</time>
      </trkpt>
      <trkpt lat="49.20915" lon="-0.38447">
        <ele>65.6</ele>
        <time>2023-04-28T11:07:26Z</time>
      </trkpt>
      <trkpt lat="49.2092" lon="-0.3844">
        <ele>65.8</ele>
        <time>2023-04-28T11:07:27Z</time>
      </trkpt>
      <trkpt lat="49.20925" lon="-0.38432">
        <ele>66</ele>
        <time>2023-04-28T11:07:28Z</time>
      </trkpt>
      <trkpt lat="49.2093" lon="-0.38424">
        <ele>66</ele>
        <time>2023-04-28T11:07:29Z</time>
      </trkpt>
      <trkpt lat="49.20935" lon="-0.38417">
        <ele>66.2</ele>
        <time>2023-04-28T11:07:30Z</time>
      </trkpt>
      <trkpt lat="49.20941" lon="-0.38409">
        <ele>66.4</ele>
        <time>2023-04-28T11:07:31Z</time>
      </trkpt>
      <trkpt lat="49.20946" lon="-0.38401">
        <ele>66.4</ele>
        <time>2023-04-28T11:07:32Z</time>
      </trkpt>
      <trkpt lat="49.20951" lon="-0.38393">
        <ele>66.2</ele>
        <time>2023-04-28T11:07:33Z</time>
      </trkpt>
      <trkpt lat="49.20955" lon="-0.38384">
        <ele>66</ele>
        <time>2023-04-28T11:07:34Z</time>
      </trkpt>
      <trkpt lat="49.2096" lon="-0.38375">
        <ele>66</ele>
        <time>2023-04-28T11:07:35Z</time>
      </trkpt>
      <trkpt lat="49.20965" lon="-0.38367">
        <ele>65.8</ele>
        <time>2023-04-28T11:07:36Z</time>
      </trkpt>
      <trkpt lat="49.2097" lon="-0.38359">
        <ele>65.6</ele>
        <time>2023-04-28T11:07:37Z</time>
      </trkpt>
      <trkpt lat="49.20975" lon="-0.38351">
        <ele>65.4</ele>
        <time>2023-04-28T11:07:38Z</time>
      </trkpt>
      <trkpt lat="49.2098" lon="-0.38343">
        <ele>65</ele>
        <time>2023-04-28T11:07:39Z</time>
      </trkpt>
      <trkpt lat="49.20986" lon="-0.38335">
        <ele>64.6</ele>
        <time>2023-04-28T11:07:40Z</time>
      </trkpt>
      <trkpt lat="49.20991" lon="-0.38327">
        <ele>64.4</ele>
        <time>2023-04-28T11:07:41Z</time>
      </trkpt>
      <trkpt lat="49.20996" lon="-0.38319">
        <ele>64.4</ele>
        <time>2023-04-28T11:07:42Z</time>
      </trkpt>
      <trkpt lat="49.21001" lon="-0.38311">
        <ele>64.4</ele>
        <time>2023-04-28T11:07:43Z</time>
      </trkpt>
      <trkpt lat="49.21006" lon="-0.38303">
        <ele>64.4</ele>
        <time>2023-04-28T11:07:44Z</time>
      </trkpt>
      <trkpt lat="49.2101" lon="-0.38295">
        <ele>64.6</ele>
        <time>2023-04-28T11:07:45Z</time>
      </trkpt>
      <trkpt lat="49.21015" lon="-0.38287">
        <ele>64.6</ele>
        <time>2023-04-28T11:07:46Z</time>
      </trkpt>
      <trkpt lat="49.2102" lon="-0.38279">
        <ele>64.6</ele>
        <time>2023-04-28T11:07:47Z</time>
      </trkpt>
      <trkpt lat="49.21024" lon="-0.38271">
        <ele>64.8</ele>
        <time>2023-04-28T11:07:48Z</time>
      </trkpt>
      <trkpt lat="49.21029" lon="-0.38263">
        <ele>65</ele>
        <time>2023-04-28T11:07:49Z</time>
      </trkpt>
      <trkpt lat="49.21033" lon="-0.38255">
        <ele>65</ele>
        <time>2023-04-28T11:07:50Z</time>
      </trkpt>
      <trkpt lat="49.21039" lon="-0.38247">
        <ele>65</ele>
        <time>2023-04-28T11:07:51Z</time>
      </trkpt>
      <trkpt lat="49.21043" lon="-0.38239">
        <ele>65</ele>
        <time>2023-04-28T11:07:52Z</time>
      </trkpt>
      <trkpt lat="49.21048" lon="-0.3823">
        <ele>65</ele>
        <time>2023-04-28T11:07:53Z</time>
      </trkpt>
      <trkpt lat="49.21053" lon="-0.38221">
        <ele>64.8</ele>
        <time>2023-04-28T11:07:54Z</time>
      </trkpt>
      <trkpt lat="49.21057" lon="-0.38213">
        <ele>64.6</ele>
        <time>2023-04-28T11:07:55Z</time>
      </trkpt>
      <trkpt lat="49.21061" lon="-0.38204">
        <ele>64.6</ele>
        <time>2023-04-28T11:07:56Z</time>
      </trkpt>
      <trkpt lat="49.21066" lon="-0.38195">
        <ele>64.6</ele>
        <time>2023-04-28T11:07:57Z</time>
      </trkpt>
      <trkpt lat="49.2107" lon="-0.38187">
        <ele>64.4</ele>
        <time>2023-04-28T11:07:58Z</time>
      </trkpt>
      <trkpt lat="49.21074" lon="-0.38178">
        <ele>64.2</ele>
        <time>2023-04-28T11:07:59Z</time>
      </trkpt>
      <trkpt lat="49.21079" lon="-0.38169">
        <ele>64</ele>
        <time>2023-04-28T11:08:00Z</time>
      </trkpt>
      <trkpt lat="49.21083" lon="-0.3816">
        <ele>64</ele>
        <time>2023-04-28T11:08:01Z</time>
      </trkpt>
      <trkpt lat="49.21087" lon="-0.38151">
        <ele>64</ele>
        <time>2023-04-28T11:08:02Z</time>
      </trkpt>
      <trkpt lat="49.21091" lon="-0.38142">
        <ele>64</ele>
        <time>2023-04-28T11:08:03Z</time>
      </trkpt>
      <trkpt lat="49.21095" lon="-0.38133">
        <ele>64</ele>
        <time>2023-04-28T11:08:04Z</time>
      </trkpt>
      <trkpt lat="49.21099" lon="-0.38123">
        <ele>64</ele>
        <time>2023-04-28T11:08:05Z</time>
      </trkpt>
      <trkpt lat="49.21104" lon="-0.38114">
        <ele>64.2</ele>
        <time>2023-04-28T11:08:06Z</time>
      </trkpt>
      <trkpt lat="49.21108" lon="-0.38104">
        <ele>64.2</ele>
        <time>2023-04-28T11:08:07Z</time>
      </trkpt>
      <trkpt lat="49.21113" lon="-0.38095">
        <ele>64.4</ele>
        <time>2023-04-28T11:08:08Z</time>
      </trkpt>
      <trkpt lat="49.21117" lon="-0.38085">
        <ele>64.4</ele>
        <time>2023-04-28T11:08:09Z</time>
      </trkpt>
      <trkpt lat="49.21121" lon="-0.38076">
        <ele>64.4</ele>
        <time>2023-04-28T11:08:10Z</time>
      </trkpt>
      <trkpt lat="49.21125" lon="-0.38066">
        <ele>64.4</ele>
        <time>2023-04-28T11:08:11Z</time>
      </trkpt>
      <trkpt lat="49.21129" lon="-0.38057">
        <ele>64.4</ele>
        <time>2023-04-28T11:08:12Z</time>
      </trkpt>
      <trkpt lat="49.21133" lon="-0.38047">
        <ele>64.4</ele>
        <time>2023-04-28T11:08:13Z</time>
      </trkpt>
      <trkpt lat="49.21137" lon="-0.38038">
        <ele>64.4</ele>
        <time>2023-04-28T11:08:14Z</time>
      </trkpt>
      <trkpt lat="49.2114" lon="-0.38027">
        <ele>64.2</ele>
        <time>2023-04-28T11:08:15Z</time>
      </trkpt>
      <trkpt lat="49.21143" lon="-0.38017">
        <ele>64</ele>
        <time>2023-04-28T11:08:16Z</time>
      </trkpt>
      <trkpt lat="49.21145" lon="-0.38007">
        <ele>64</ele>
        <time>2023-04-28T11:08:17Z</time>
      </trkpt>
      <trkpt lat="49.21148" lon="-0.37997">
        <ele>64</ele>
        <time>2023-04-28T11:08:18Z</time>
      </trkpt>
      <trkpt lat="49.2115" lon="-0.37987">
        <ele>64</ele>
        <time>2023-04-28T11:08:19Z</time>
      </trkpt>
      <trkpt lat="49.21152" lon="-0.37978">
        <ele>64.2</ele>
        <time>2023-04-28T11:08:20Z</time>
      </trkpt>
      <trkpt lat="49.21153" lon="-0.37968">
        <ele>64.4</ele>
        <time>2023-04-28T11:08:21Z</time>
      </trkpt>
      <trkpt lat="49.21155" lon="-0.37959">
        <ele>64.4</ele>
        <time>2023-04-28T11:08:22Z</time>
      </trkpt>
      <trkpt lat="49.21157" lon="-0.3795">
        <ele>64.6</ele>
        <time>2023-04-28T11:08:23Z</time>
      </trkpt>
      <trkpt lat="49.21159" lon="-0.37941">
        <ele>64.6</ele>
        <time>2023-04-28T11:08:24Z</time>
      </trkpt>
      <trkpt lat="49.21161" lon="-0.37932">
        <ele>64.8</ele>
        <time>2023-04-28T11:08:25Z</time>
      </trkpt>
      <trkpt lat="49.21162" lon="-0.37924">
        <ele>65</ele>
        <time>2023-04-28T11:08:26Z</time>
      </trkpt>
      <trkpt lat="49.21164" lon="-0.37915">
        <ele>65</ele>
        <time>2023-04-28T11:08:27Z</time>
      </trkpt>
      <trkpt lat="49.21166" lon="-0.37906">
        <ele>64.6</ele>
        <time>2023-04-28T11:08:28Z</time>
      </trkpt>
      <trkpt lat="49.21167" lon="-0.37898">
        <ele>64.4</ele>
        <time>2023-04-28T11:08:29Z</time>
      </trkpt>
      <trkpt lat="49.21168" lon="-0.3789">
        <ele>64</ele>
        <time>2023-04-28T11:08:30Z</time>
      </trkpt>
      <trkpt lat="49.2117" lon="-0.37881">
        <ele>63.6</ele>
        <time>2023-04-28T11:08:31Z</time>
      </trkpt>
      <trkpt lat="49.21172" lon="-0.37873">
        <ele>63.2</ele>
        <time>2023-04-28T11:08:32Z</time>
      </trkpt>
      <trkpt lat="49.21175" lon="-0.37864">
        <ele>63</ele>
        <time>2023-04-28T11:08:33Z</time>
      </trkpt>
      <trkpt lat="49.21178" lon="-0.37856">
        <ele>62.6</ele>
        <time>2023-04-28T11:08:34Z</time>
      </trkpt>
      <trkpt lat="49.21182" lon="-0.37847">
        <ele>62</ele>
        <time>2023-04-28T11:08:35Z</time>
      </trkpt>
      <trkpt lat="49.21185" lon="-0.37839">
        <ele>61.8</ele>
        <time>2023-04-28T11:08:36Z</time>
      </trkpt>
      <trkpt lat="49.2119" lon="-0.37831">
        <ele>61.4</ele>
        <time>2023-04-28T11:08:37Z</time>
      </trkpt>
      <trkpt lat="49.21194" lon="-0.37822">
        <ele>61.2</ele>
        <time>2023-04-28T11:08:38Z</time>
      </trkpt>
      <trkpt lat="49.21199" lon="-0.37814">
        <ele>61</ele>
        <time>2023-04-28T11:08:39Z</time>
      </trkpt>
      <trkpt lat="49.21204" lon="-0.37806">
        <ele>61</ele>
        <time>2023-04-28T11:08:40Z</time>
      </trkpt>
      <trkpt lat="49.21209" lon="-0.37797">
        <ele>60.8</ele>
        <time>2023-04-28T11:08:41Z</time>
      </trkpt>
      <trkpt lat="49.21214" lon="-0.37789">
        <ele>60.6</ele>
        <time>2023-04-28T11:08:42Z</time>
      </trkpt>
      <trkpt lat="49.21219" lon="-0.37781">
        <ele>60.6</ele>
        <time>2023-04-28T11:08:43Z</time>
      </trkpt>
      <trkpt lat="49.21224" lon="-0.37772">
        <ele>60.4</ele>
        <time>2023-04-28T11:08:44Z</time>
      </trkpt>
      <trkpt lat="49.2123" lon="-0.37764">
        <ele>60.2</ele>
        <time>2023-04-28T11:08:45Z</time>
      </trkpt>
      <trkpt lat="49.21236" lon="-0.37757">
        <ele>60.2</ele>
        <time>2023-04-28T11:08:46Z</time>
      </trkpt>
      <trkpt lat="49.21242" lon="-0.37751">
        <ele>60</ele>
        <time>2023-04-28T11:08:47Z</time>
      </trkpt>
      <trkpt lat="49.21248" lon="-0.37744">
        <ele>60</ele>
        <time>2023-04-28T11:08:48Z</time>
      </trkpt>
      <trkpt lat="49.21255" lon="-0.37739">
        <ele>60</ele>
        <time>2023-04-28T11:08:49Z</time>
      </trkpt>
      <trkpt lat="49.21262" lon="-0.37734">
        <ele>60</ele>
        <time>2023-04-28T11:08:50Z</time>
      </trkpt>
      <trkpt lat="49.21268" lon="-0.37729">
        <ele>60</ele>
        <time>2023-04-28T11:08:51Z</time>
      </trkpt>
      <trkpt lat="49.21275" lon="-0.37724">
        <ele>60</ele>
        <time>2023-04-28T11:08:52Z</time>
      </trkpt>
      <trkpt lat="49.21282" lon="-0.37719">
        <ele>60</ele>
        <time>2023-04-28T11:08:53Z</time>
      </trkpt>
      <trkpt lat="49.21288" lon="-0.37713">
        <ele>60</ele>
        <time>2023-04-28T11:08:54Z</time>
      </trkpt>
      <trkpt lat="49.21294" lon="-0.37706">
        <ele>60</ele>
        <time>2023-04-28T11:08:55Z</time>
      </trkpt>
      <trkpt lat="49.21299" lon="-0.37699">
        <ele>60</ele>
        <time>2023-04-28T11:08:56Z</time>
      </trkpt>
      <trkpt lat="49.21304" lon="-0.3769">
        <ele>59.8</ele>
        <time>2023-04-28T11:08:57Z</time>
      </trkpt>
      <trkpt lat="49.21308" lon="-0.3768">
        <ele>59.8</ele>
        <time>2023-04-28T11:08:58Z</time>
      </trkpt>
      <trkpt lat="49.21311" lon="-0.3767">
        <ele>59.6</ele>
        <time>2023-04-28T11:08:59Z</time>
      </trkpt>
      <trkpt lat="49.21315" lon="-0.3766">
        <ele>59.6</ele>
        <time>2023-04-28T11:09:00Z</time>
      </trkpt>
      <trkpt lat="49.21319" lon="-0.37651">
        <ele>59.4</ele>
        <time>2023-04-28T11:09:01Z</time>
      </trkpt>
      <trkpt lat="49.21323" lon="-0.37641">
        <ele>59.2</ele>
        <time>2023-04-28T11:09:02Z</time>
      </trkpt>
      <trkpt lat="49.21328" lon="-0.37632">
        <ele>59.2</ele>
        <time>2023-04-28T11:09:03Z</time>
      </trkpt>
      <trkpt lat="49.21332" lon="-0.37623">
        <ele>59</ele>
        <time>2023-04-28T11:09:04Z</time>
      </trkpt>
      <trkpt lat="49.21337" lon="-0.37614">
        <ele>59</ele>
        <time>2023-04-28T11:09:05Z</time>
      </trkpt>
      <trkpt lat="49.21342" lon="-0.37605">
        <ele>59</ele>
        <time>2023-04-28T11:09:06Z</time>
      </trkpt>
      <trkpt lat="49.21346" lon="-0.37596">
        <ele>59</ele>
        <time>2023-04-28T11:09:07Z</time>
      </trkpt>
      <trkpt lat="49.21351" lon="-0.37587">
        <ele>58.8</ele>
        <time>2023-04-28T11:09:08Z</time>
      </trkpt>
      <trkpt lat="49.21355" lon="-0.37577">
        <ele>58.8</ele>
        <time>2023-04-28T11:09:09Z</time>
      </trkpt>
      <trkpt lat="49.21359" lon="-0.37567">
        <ele>58.6</ele>
        <time>2023-04-28T11:09:10Z</time>
      </trkpt>
      <trkpt lat="49.21363" lon="-0.37558">
        <ele>58.6</ele>
        <time>2023-04-28T11:09:11Z</time>
      </trkpt>
      <trkpt lat="49.21367" lon="-0.37549">
        <ele>58.4</ele>
        <time>2023-04-28T11:09:12Z</time>
      </trkpt>
      <trkpt lat="49.21372" lon="-0.37541">
        <ele>58.2</ele>
        <time>2023-04-28T11:09:13Z</time>
      </trkpt>
      <trkpt lat="49.21377" lon="-0.37533">
        <ele>58.2</ele>
        <time>2023-04-28T11:09:14Z</time>
      </trkpt>
      <trkpt lat="49.21381" lon="-0.37524">
        <ele>58</ele>
        <time>2023-04-28T11:09:15Z</time>
      </trkpt>
      <trkpt lat="49.21386" lon="-0.37516">
        <ele>58</ele>
        <time>2023-04-28T11:09:16Z</time>
      </trkpt>
      <trkpt lat="49.21391" lon="-0.37508">
        <ele>57.8</ele>
        <time>2023-04-28T11:09:17Z</time>
      </trkpt>
      <trkpt lat="49.21395" lon="-0.375">
        <ele>57.6</ele>
        <time>2023-04-28T11:09:18Z</time>
      </trkpt>
      <trkpt lat="49.214" lon="-0.37491">
        <ele>57.6</ele>
        <time>2023-04-28T11:09:19Z</time>
      </trkpt>
      <trkpt lat="49.21404" lon="-0.37483">
        <ele>57.6</ele>
        <time>2023-04-28T11:09:20Z</time>
      </trkpt>
      <trkpt lat="49.21409" lon="-0.37474">
        <ele>57.6</ele>
        <time>2023-04-28T11:09:21Z</time>
      </trkpt>
      <trkpt lat="49.21414" lon="-0.37466">
        <ele>57.6</ele>
        <time>2023-04-28T11:09:22Z</time>
      </trkpt>
      <trkpt lat="49.21418" lon="-0.37457">
        <ele>57.6</ele>
        <time>2023-04-28T11:09:23Z</time>
      </trkpt>
      <trkpt lat="49.21423" lon="-0.37448">
        <ele>57.6</ele>
        <time>2023-04-28T11:09:24Z</time>
      </trkpt>
      <trkpt lat="49.21428" lon="-0.37438">
        <ele>57.6</ele>
        <time>2023-04-28T11:09:25Z</time>
      </trkpt>
      <trkpt lat="49.21433" lon="-0.37429">
        <ele>57.6</ele>
        <time>2023-04-28T11:09:26Z</time>
      </trkpt>
      <trkpt lat="49.21438" lon="-0.37419">
        <ele>57.6</ele>
        <time>2023-04-28T11:09:27Z</time>
      </trkpt>
      <trkpt lat="49.21444" lon="-0.37409">
        <ele>57.6</ele>
        <time>2023-04-28T11:09:28Z</time>
      </trkpt>
      <trkpt lat="49.21449" lon="-0.37399">
        <ele>57.6</ele>
        <time>2023-04-28T11:09:29Z</time>
      </trkpt>
      <trkpt lat="49.21454" lon="-0.37389">
        <ele>57.8</ele>
        <time>2023-04-28T11:09:30Z</time>
      </trkpt>
      <trkpt lat="49.2146" lon="-0.37379">
        <ele>58</ele>
        <time>2023-04-28T11:09:31Z</time>
      </trkpt>
      <trkpt lat="49.21466" lon="-0.3737">
        <ele>58</ele>
        <time>2023-04-28T11:09:32Z</time>
      </trkpt>
      <trkpt lat="49.21471" lon="-0.3736">
        <ele>58.2</ele>
        <time>2023-04-28T11:09:33Z</time>
      </trkpt>
      <trkpt lat="49.21477" lon="-0.37351">
        <ele>58.6</ele>
        <time>2023-04-28T11:09:34Z</time>
      </trkpt>
      <trkpt lat="49.21483" lon="-0.37341">
        <ele>58.8</ele>
        <time>2023-04-28T11:09:35Z</time>
      </trkpt>
      <trkpt lat="49.21489" lon="-0.37332">
        <ele>59</ele>
        <time>2023-04-28T11:09:36Z</time>
      </trkpt>
      <trkpt lat="49.21494" lon="-0.37323">
        <ele>59</ele>
        <time>2023-04-28T11:09:37Z</time>
      </trkpt>
      <trkpt lat="49.215" lon="-0.37314">
        <ele>58.8</ele>
        <time>2023-04-28T11:09:38Z</time>
      </trkpt>
      <trkpt lat="49.21506" lon="-0.37305">
        <ele>58.6</ele>
        <time>2023-04-28T11:09:39Z</time>
      </trkpt>
      <trkpt lat="49.21512" lon="-0.37296">
        <ele>58.2</ele>
        <time>2023-04-28T11:09:40Z</time>
      </trkpt>
      <trkpt lat="49.21518" lon="-0.37287">
        <ele>58</ele>
        <time>2023-04-28T11:09:41Z</time>
      </trkpt>
      <trkpt lat="49.21523" lon="-0.37278">
        <ele>58</ele>
        <time>2023-04-28T11:09:42Z</time>
      </trkpt>
      <trkpt lat="49.21529" lon="-0.37269">
        <ele>57.8</ele>
        <time>2023-04-28T11:09:43Z</time>
      </trkpt>
      <trkpt lat="49.21534" lon="-0.3726">
        <ele>57.6</ele>
        <time>2023-04-28T11:09:44Z</time>
      </trkpt>
      <trkpt lat="49.21539" lon="-0.3725">
        <ele>57.6</ele>
        <time>2023-04-28T11:09:45Z</time>
      </trkpt>
      <trkpt lat="49.21544" lon="-0.3724">
        <ele>57.4</ele>
        <time>2023-04-28T11:09:46Z</time>
      </trkpt>
      <trkpt lat="49.21548" lon="-0.3723">
        <ele>57.2</ele>
        <time>2023-04-28T11:09:47Z</time>
      </trkpt>
      <trkpt lat="49.21551" lon="-0.37219">
        <ele>57.2</ele>
        <time>2023-04-28T11:09:48Z</time>
      </trkpt>
      <trkpt lat="49.21555" lon="-0.37208">
        <ele>57.2</ele>
        <time>2023-04-28T11:09:49Z</time>
      </trkpt>
      <trkpt lat="49.21558" lon="-0.37197">
        <ele>57</ele>
        <time>2023-04-28T11:09:50Z</time>
      </trkpt>
      <trkpt lat="49.21561" lon="-0.37186">
        <ele>57</ele>
        <time>2023-04-28T11:09:51Z</time>
      </trkpt>
      <trkpt lat="49.21565" lon="-0.37174">
        <ele>57</ele>
        <time>2023-04-28T11:09:52Z</time>
      </trkpt>
      <trkpt lat="49.21568" lon="-0.37163">
        <ele>57</ele>
        <time>2023-04-28T11:09:53Z</time>
      </trkpt>
      <trkpt lat="49.21572" lon="-0.37151">
        <ele>56.8</ele>
        <time>2023-04-28T11:09:54Z</time>
      </trkpt>
      <trkpt lat="49.21575" lon="-0.3714">
        <ele>56.4</ele>
        <time>2023-04-28T11:09:55Z</time>
      </trkpt>
      <trkpt lat="49.21579" lon="-0.37128">
        <ele>56</ele>
        <time>2023-04-28T11:09:56Z</time>
      </trkpt>
      <trkpt lat="49.21583" lon="-0.37116">
        <ele>55.8</ele>
        <time>2023-04-28T11:09:57Z</time>
      </trkpt>
      <trkpt lat="49.21587" lon="-0.37104">
        <ele>55.6</ele>
        <time>2023-04-28T11:09:58Z</time>
      </trkpt>
      <trkpt lat="49.2159" lon="-0.37092">
        <ele>55.2</ele>
        <time>2023-04-28T11:09:59Z</time>
      </trkpt>
      <trkpt lat="49.21594" lon="-0.3708">
        <ele>55.2</ele>
        <time>2023-04-28T11:10:00Z</time>
      </trkpt>
      <trkpt lat="49.21598" lon="-0.37068">
        <ele>55.6</ele>
        <time>2023-04-28T11:10:01Z</time>
      </trkpt>
      <trkpt lat="49.21602" lon="-0.37056">
        <ele>55.8</ele>
        <time>2023-04-28T11:10:02Z</time>
      </trkpt>
      <trkpt lat="49.21606" lon="-0.37044">
        <ele>56</ele>
        <time>2023-04-28T11:10:03Z</time>
      </trkpt>
      <trkpt lat="49.21611" lon="-0.37032">
        <ele>56.2</ele>
        <time>2023-04-28T11:10:04Z</time>
      </trkpt>
      <trkpt lat="49.21615" lon="-0.37021">
        <ele>56.6</ele>
        <time>2023-04-28T11:10:05Z</time>
      </trkpt>
      <trkpt lat="49.2162" lon="-0.3701">
        <ele>56.8</ele>
        <time>2023-04-28T11:10:06Z</time>
      </trkpt>
      <trkpt lat="49.21626" lon="-0.37">
        <ele>57</ele>
        <time>2023-04-28T11:10:07Z</time>
      </trkpt>
      <trkpt lat="49.21632" lon="-0.36989">
        <ele>57</ele>
        <time>2023-04-28T11:10:08Z</time>
      </trkpt>
      <trkpt lat="49.21638" lon="-0.36979">
        <ele>57</ele>
        <time>2023-04-28T11:10:09Z</time>
      </trkpt>
      <trkpt lat="49.21644" lon="-0.3697">
        <ele>57</ele>
        <time>2023-04-28T11:10:10Z</time>
      </trkpt>
      <trkpt lat="49.21651" lon="-0.36961">
        <ele>57</ele>
        <time>2023-04-28T11:10:11Z</time>
      </trkpt>
      <trkpt lat="49.21657" lon="-0.36953">
        <ele>57</ele>
        <time>2023-04-28T11:10:12Z</time>
      </trkpt>
      <trkpt lat="49.21665" lon="-0.36945">
        <ele>57</ele>
        <time>2023-04-28T11:10:13Z</time>
      </trkpt>
      <trkpt lat="49.21672" lon="-0.36938">
        <ele>57</ele>
        <time>2023-04-28T11:10:14Z</time>
      </trkpt>
      <trkpt lat="49.2168" lon="-0.36931">
        <ele>56.8</ele>
        <time>2023-04-28T11:10:15Z</time>
      </trkpt>
      <trkpt lat="49.21687" lon="-0.36924">
        <ele>56.8</ele>
        <time>2023-04-28T11:10:16Z</time>
      </trkpt>
      <trkpt lat="49.21695" lon="-0.36918">
        <ele>56.8</ele>
        <time>2023-04-28T11:10:17Z</time>
      </trkpt>
      <trkpt lat="49.21702" lon="-0.36913">
        <ele>56.6</ele>
        <time>2023-04-28T11:10:18Z</time>
      </trkpt>
      <trkpt lat="49.2171" lon="-0.36907">
        <ele>56.6</ele>
        <time>2023-04-28T11:10:19Z</time>
      </trkpt>
      <trkpt lat="49.21717" lon="-0.36902">
        <ele>56.4</ele>
        <time>2023-04-28T11:10:20Z</time>
      </trkpt>
      <trkpt lat="49.21724" lon="-0.36897">
        <ele>56.2</ele>
        <time>2023-04-28T11:10:21Z</time>
      </trkpt>
      <trkpt lat="49.2173" lon="-0.36891">
        <ele>56</ele>
        <time>2023-04-28T11:10:22Z</time>
      </trkpt>
      <trkpt lat="49.21736" lon="-0.36886">
        <ele>56</ele>
        <time>2023-04-28T11:10:23Z</time>
      </trkpt>
      <trkpt lat="49.21743" lon="-0.3688">
        <ele>55.8</ele>
        <time>2023-04-28T11:10:24Z</time>
      </trkpt>
      <trkpt lat="49.21749" lon="-0.36874">
        <ele>55.6</ele>
        <time>2023-04-28T11:10:25Z</time>
      </trkpt>
      <trkpt lat="49.21755" lon="-0.36869">
        <ele>55.2</ele>
        <time>2023-04-28T11:10:26Z</time>
      </trkpt>
      <trkpt lat="49.21762" lon="-0.36864">
        <ele>55</ele>
        <time>2023-04-28T11:10:27Z</time>
      </trkpt>
      <trkpt lat="49.21769" lon="-0.36858">
        <ele>54.8</ele>
        <time>2023-04-28T11:10:28Z</time>
      </trkpt>
      <trkpt lat="49.21776" lon="-0.36853">
        <ele>54.6</ele>
        <time>2023-04-28T11:10:29Z</time>
      </trkpt>
      <trkpt lat="49.21783" lon="-0.36848">
        <ele>54.4</ele>
        <time>2023-04-28T11:10:30Z</time>
      </trkpt>
      <trkpt lat="49.2179" lon="-0.36843">
        <ele>54.2</ele>
        <time>2023-04-28T11:10:31Z</time>
      </trkpt>
      <trkpt lat="49.21797" lon="-0.36837">
        <ele>54</ele>
        <time>2023-04-28T11:10:32Z</time>
      </trkpt>
      <trkpt lat="49.21804" lon="-0.36831">
        <ele>53.8</ele>
        <time>2023-04-28T11:10:33Z</time>
      </trkpt>
      <trkpt lat="49.21811" lon="-0.36825">
        <ele>53.6</ele>
        <time>2023-04-28T11:10:34Z</time>
      </trkpt>
      <trkpt lat="49.21818" lon="-0.36819">
        <ele>53.4</ele>
        <time>2023-04-28T11:10:35Z</time>
      </trkpt>
      <trkpt lat="49.21824" lon="-0.36813">
        <ele>53.2</ele>
        <time>2023-04-28T11:10:36Z</time>
      </trkpt>
      <trkpt lat="49.2183" lon="-0.36807">
        <ele>53</ele>
        <time>2023-04-28T11:10:37Z</time>
      </trkpt>
      <trkpt lat="49.21835" lon="-0.368">
        <ele>53</ele>
        <time>2023-04-28T11:10:38Z</time>
      </trkpt>
      <trkpt lat="49.2184" lon="-0.36794">
        <ele>53</ele>
        <time>2023-04-28T11:10:39Z</time>
      </trkpt>
      <trkpt lat="49.21845" lon="-0.36787">
        <ele>53</ele>
        <time>2023-04-28T11:10:40Z</time>
      </trkpt>
      <trkpt lat="49.21849" lon="-0.3678">
        <ele>53</ele>
        <time>2023-04-28T11:10:41Z</time>
      </trkpt>
      <trkpt lat="49.21854" lon="-0.36773">
        <ele>53</ele>
        <time>2023-04-28T11:10:42Z</time>
      </trkpt>
      <trkpt lat="49.21858" lon="-0.36767">
        <ele>53</ele>
        <time>2023-04-28T11:10:43Z</time>
      </trkpt>
      <trkpt lat="49.21861" lon="-0.36762">
        <ele>53</ele>
        <time>2023-04-28T11:10:44Z</time>
      </trkpt>
      <trkpt lat="49.21865" lon="-0.36757">
        <ele>53</ele>
        <time>2023-04-28T11:10:45Z</time>
      </trkpt>
      <trkpt lat="49.21867" lon="-0.36752">
        <ele>53</ele>
        <time>2023-04-28T11:10:46Z</time>
      </trkpt>
      <trkpt lat="49.2187" lon="-0.36749">
        <ele>53</ele>
        <time>2023-04-28T11:10:47Z</time>
      </trkpt>
      <trkpt lat="49.21871" lon="-0.36745">
        <ele>53</ele>
        <time>2023-04-28T11:10:48Z</time>
      </trkpt>
      <trkpt lat="49.21873" lon="-0.36743">
        <ele>53</ele>
        <time>2023-04-28T11:10:49Z</time>
      </trkpt>
      <trkpt lat="49.21874" lon="-0.36741">
        <ele>53</ele>
        <time>2023-04-28T11:10:50Z</time>
      </trkpt>
      <trkpt lat="49.21875" lon="-0.36739">
        <ele>53</ele>
        <time>2023-04-28T11:10:51Z</time>
      </trkpt>
      <trkpt lat="49.21876" lon="-0.36738">
        <ele>53</ele>
        <time>2023-04-28T11:10:52Z</time>
      </trkpt>
      <trkpt lat="49.21877" lon="-0.36737">
        <ele>53</ele>
        <time>2023-04-28T11:10:53Z</time>
      </trkpt>
      <trkpt lat="49.21877" lon="-0.36737">
        <ele>53</ele>
        <time>2023-04-28T11:10:54Z</time>
      </trkpt>
      <trkpt lat="49.21877" lon="-0.36736">
        <ele>53</ele>
        <time>2023-04-28T11:10:55Z</time>
      </trkpt>
      <trkpt lat="49.21878" lon="-0.36736">
        <ele>53</ele>
        <time>2023-04-28T11:10:56Z</time>
      </trkpt>
      <trkpt lat="49.21878" lon="-0.36736">
        <ele>53</ele>
        <time>2023-04-28T11:10:57Z</time>
      </trkpt>
      <trkpt lat="49.21878" lon="-0.36736">
        <ele>53</ele>
        <time>2023-04-28T11:10:58Z</time>
      </trkpt>
      <trkpt lat="49.21877" lon="-0.36737">
        <ele>53</ele>
        <time>2023-04-28T11:10:59Z</time>
      </trkpt>
      <trkpt lat="49.21877" lon="-0.36737">
        <ele>53</ele>
        <time>2023-04-28T11:11:00Z</time>
      </trkpt>
      <trkpt lat="49.21877" lon="-0.36737">
        <ele>53</ele>
        <time>2023-04-28T11:11:01Z</time>
      </trkpt>
      <trkpt lat="49.21877" lon="-0.36737">
        <ele>53</ele>
        <time>2023-04-28T11:11:02Z</time>
      </trkpt>
      <trkpt lat="49.21877" lon="-0.36736">
        <ele>53</ele>
        <time>2023-04-28T11:11:03Z</time>
      </trkpt>
      <trkpt lat="49.21878" lon="-0.36735">
        <ele>53</ele>
        <time>2023-04-28T11:11:04Z</time>
      </trkpt>
      <trkpt lat="49.2188" lon="-0.36733">
        <ele>53</ele>
        <time>2023-04-28T11:11:05Z</time>
      </trkpt>
      <trkpt lat="49.21881" lon="-0.36731">
        <ele>53</ele>
        <time>2023-04-28T11:11:06Z</time>
      </trkpt>
      <trkpt lat="49.21884" lon="-0.36727">
        <ele>53</ele>
        <time>2023-04-28T11:11:07Z</time>
      </trkpt>
      <trkpt lat="49.21886" lon="-0.36723">
        <ele>53</ele>
        <time>2023-04-28T11:11:08Z</time>
      </trkpt>
      <trkpt lat="49.2189" lon="-0.36718">
        <ele>53</ele>
        <time>2023-04-28T11:11:09Z</time>
      </trkpt>
      <trkpt lat="49.21893" lon="-0.36712">
        <ele>53</ele>
        <time>2023-04-28T11:11:10Z</time>
      </trkpt>
      <trkpt lat="49.21896" lon="-0.36705">
        <ele>53</ele>
        <time>2023-04-28T11:11:11Z</time>
      </trkpt>
      <trkpt lat="49.21898" lon="-0.36698">
        <ele>53</ele>
        <time>2023-04-28T11:11:12Z</time>
      </trkpt>
      <trkpt lat="49.219" lon="-0.3669">
        <ele>53</ele>
        <time>2023-04-28T11:11:13Z</time>
      </trkpt>
      <trkpt lat="49.21902" lon="-0.36682">
        <ele>53</ele>
        <time>2023-04-28T11:11:14Z</time>
      </trkpt>
      <trkpt lat="49.21905" lon="-0.36674">
        <ele>53</ele>
        <time>2023-04-28T11:11:15Z</time>
      </trkpt>
      <trkpt lat="49.21907" lon="-0.36666">
        <ele>53</ele>
        <time>2023-04-28T11:11:16Z</time>
      </trkpt>
      <trkpt lat="49.2191" lon="-0.36657">
        <ele>52.8</ele>
        <time>2023-04-28T11:11:17Z</time>
      </trkpt>
      <trkpt lat="49.21913" lon="-0.36648">
        <ele>52.6</ele>
        <time>2023-04-28T11:11:18Z</time>
      </trkpt>
      <trkpt lat="49.21916" lon="-0.36638">
        <ele>52.2</ele>
        <time>2023-04-28T11:11:19Z</time>
      </trkpt>
      <trkpt lat="49.2192" lon="-0.36627">
        <ele>52</ele>
        <time>2023-04-28T11:11:20Z</time>
      </trkpt>
      <trkpt lat="49.21922" lon="-0.36616">
        <ele>51.6</ele>
        <time>2023-04-28T11:11:21Z</time>
      </trkpt>
      <trkpt lat="49.21924" lon="-0.36604">
        <ele>51.2</ele>
        <time>2023-04-28T11:11:22Z</time>
      </trkpt>
      <trkpt lat="49.21927" lon="-0.36593">
        <ele>50.8</ele>
        <time>2023-04-28T11:11:23Z</time>
      </trkpt>
      <trkpt lat="49.21931" lon="-0.36581">
        <ele>50.6</ele>
        <time>2023-04-28T11:11:24Z</time>
      </trkpt>
      <trkpt lat="49.21935" lon="-0.3657">
        <ele>50.4</ele>
        <time>2023-04-28T11:11:25Z</time>
      </trkpt>
      <trkpt lat="49.2194" lon="-0.36559">
        <ele>50.2</ele>
        <time>2023-04-28T11:11:26Z</time>
      </trkpt>
      <trkpt lat="49.21944" lon="-0.36547">
        <ele>50.2</ele>
        <time>2023-04-28T11:11:27Z</time>
      </trkpt>
      <trkpt lat="49.21949" lon="-0.36536">
        <ele>50.2</ele>
        <time>2023-04-28T11:11:28Z</time>
      </trkpt>
      <trkpt lat="49.21955" lon="-0.36526">
        <ele>50.2</ele>
        <time>2023-04-28T11:11:29Z</time>
      </trkpt>
      <trkpt lat="49.21962" lon="-0.36517">
        <ele>50.2</ele>
        <time>2023-04-28T11:11:30Z</time>
      </trkpt>
      <trkpt lat="49.21969" lon="-0.36508">
        <ele>50.2</ele>
        <time>2023-04-28T11:11:31Z</time>
      </trkpt>
      <trkpt lat="49.21976" lon="-0.365">
        <ele>50.2</ele>
        <time>2023-04-28T11:11:32Z</time>
      </trkpt>
      <trkpt lat="49.21983" lon="-0.36492">
        <ele>50.2</ele>
        <time>2023-04-28T11:11:33Z</time>
      </trkpt>
      <trkpt lat="49.2199" lon="-0.36483">
        <ele>50</ele>
        <time>2023-04-28T11:11:34Z</time>
      </trkpt>
      <trkpt lat="49.21997" lon="-0.36475">
        <ele>50</ele>
        <time>2023-04-28T11:11:35Z</time>
      </trkpt>
      <trkpt lat="49.22004" lon="-0.36467">
        <ele>49.8</ele>
        <time>2023-04-28T11:11:36Z</time>
      </trkpt>
      <trkpt lat="49.22011" lon="-0.36458">
        <ele>49.6</ele>
        <time>2023-04-28T11:11:37Z</time>
      </trkpt>
      <trkpt lat="49.22018" lon="-0.36449">
        <ele>49.4</ele>
        <time>2023-04-28T11:11:38Z</time>
      </trkpt>
      <trkpt lat="49.22025" lon="-0.36439">
        <ele>49.2</ele>
        <time>2023-04-28T11:11:39Z</time>
      </trkpt>
      <trkpt lat="49.22031" lon="-0.3643">
        <ele>49</ele>
        <time>2023-04-28T11:11:40Z</time>
      </trkpt>
      <trkpt lat="49.22038" lon="-0.3642">
        <ele>49</ele>
        <time>2023-04-28T11:11:41Z</time>
      </trkpt>
      <trkpt lat="49.22045" lon="-0.3641">
        <ele>48.8</ele>
        <time>2023-04-28T11:11:42Z</time>
      </trkpt>
      <trkpt lat="49.22052" lon="-0.364">
        <ele>48.6</ele>
        <time>2023-04-28T11:11:43Z</time>
      </trkpt>
      <trkpt lat="49.22059" lon="-0.3639">
        <ele>48.4</ele>
        <time>2023-04-28T11:11:44Z</time>
      </trkpt>
      <trkpt lat="49.22066" lon="-0.3638">
        <ele>48.2</ele>
        <time>2023-04-28T11:11:45Z</time>
      </trkpt>
      <trkpt lat="49.22073" lon="-0.36369">
        <ele>48</ele>
        <time>2023-04-28T11:11:46Z</time>
      </trkpt>
      <trkpt lat="49.2208" lon="-0.36359">
        <ele>48</ele>
        <time>2023-04-28T11:11:47Z</time>
      </trkpt>
      <trkpt lat="49.22087" lon="-0.36348">
        <ele>47.8</ele>
        <time>2023-04-28T11:11:48Z</time>
      </trkpt>
      <trkpt lat="49.22094" lon="-0.36337">
        <ele>47.2</ele>
        <time>2023-04-28T11:11:49Z</time>
      </trkpt>
      <trkpt lat="49.22102" lon="-0.36327">
        <ele>46.8</ele>
        <time>2023-04-28T11:11:50Z</time>
      </trkpt>
      <trkpt lat="49.22109" lon="-0.36316">
        <ele>46.2</ele>
        <time>2023-04-28T11:11:51Z</time>
      </trkpt>
      <trkpt lat="49.22116" lon="-0.36305">
        <ele>45.8</ele>
        <time>2023-04-28T11:11:52Z</time>
      </trkpt>
      <trkpt lat="49.22123" lon="-0.36295">
        <ele>45.4</ele>
        <time>2023-04-28T11:11:53Z</time>
      </trkpt>
      <trkpt lat="49.2213" lon="-0.36284">
        <ele>45</ele>
        <time>2023-04-28T11:11:54Z</time>
      </trkpt>
      <trkpt lat="49.22137" lon="-0.36273">
        <ele>44.6</ele>
        <time>2023-04-28T11:11:55Z</time>
      </trkpt>
      <trkpt lat="49.22144" lon="-0.36263">
        <ele>44</ele>
        <time>2023-04-28T11:11:56Z</time>
      </trkpt>
      <trkpt lat="49.22151" lon="-0.36253">
        <ele>43.8</ele>
        <time>2023-04-28T11:11:57Z</time>
      </trkpt>
      <trkpt lat="49.22158" lon="-0.36242">
        <ele>43.6</ele>
        <time>2023-04-28T11:11:58Z</time>
      </trkpt>
      <trkpt lat="49.22165" lon="-0.36232">
        <ele>43.2</ele>
        <time>2023-04-28T11:11:59Z</time>
      </trkpt>
      <trkpt lat="49.22171" lon="-0.36222">
        <ele>43.2</ele>
        <time>2023-04-28T11:12:00Z</time>
      </trkpt>
      <trkpt lat="49.22177" lon="-0.36211">
        <ele>43.2</ele>
        <time>2023-04-28T11:12:01Z</time>
      </trkpt>
      <trkpt lat="49.22183" lon="-0.362">
        <ele>43.2</ele>
        <time>2023-04-28T11:12:02Z</time>
      </trkpt>
      <trkpt lat="49.22189" lon="-0.36188">
        <ele>43.2</ele>
        <time>2023-04-28T11:12:03Z</time>
      </trkpt>
      <trkpt lat="49.22194" lon="-0.36177">
        <ele>43.2</ele>
        <time>2023-04-28T11:12:04Z</time>
      </trkpt>
      <trkpt lat="49.22199" lon="-0.36164">
        <ele>43.2</ele>
        <time>2023-04-28T11:12:05Z</time>
      </trkpt>
      <trkpt lat="49.22204" lon="-0.36151">
        <ele>43</ele>
        <time>2023-04-28T11:12:06Z</time>
      </trkpt>
      <trkpt lat="49.22207" lon="-0.36138">
        <ele>43</ele>
        <time>2023-04-28T11:12:07Z</time>
      </trkpt>
      <trkpt lat="49.22211" lon="-0.36125">
        <ele>43</ele>
        <time>2023-04-28T11:12:08Z</time>
      </trkpt>
      <trkpt lat="49.22214" lon="-0.36111">
        <ele>43</ele>
        <time>2023-04-28T11:12:09Z</time>
      </trkpt>
      <trkpt lat="49.22216" lon="-0.36098">
        <ele>42.8</ele>
        <time>2023-04-28T11:12:10Z</time>
      </trkpt>
      <trkpt lat="49.22218" lon="-0.36085">
        <ele>42.8</ele>
        <time>2023-04-28T11:12:11Z</time>
      </trkpt>
      <trkpt lat="49.22219" lon="-0.36072">
        <ele>42.8</ele>
        <time>2023-04-28T11:12:12Z</time>
      </trkpt>
      <trkpt lat="49.2222" lon="-0.36059">
        <ele>42.6</ele>
        <time>2023-04-28T11:12:13Z</time>
      </trkpt>
      <trkpt lat="49.22221" lon="-0.36046">
        <ele>42.4</ele>
        <time>2023-04-28T11:12:14Z</time>
      </trkpt>
      <trkpt lat="49.2222" lon="-0.36034">
        <ele>42.2</ele>
        <time>2023-04-28T11:12:15Z</time>
      </trkpt>
      <trkpt lat="49.22219" lon="-0.36023">
        <ele>42.2</ele>
        <time>2023-04-28T11:12:16Z</time>
      </trkpt>
      <trkpt lat="49.22217" lon="-0.36014">
        <ele>42.2</ele>
        <time>2023-04-28T11:12:17Z</time>
      </trkpt>
      <trkpt lat="49.22216" lon="-0.36005">
        <ele>42.2</ele>
        <time>2023-04-28T11:12:18Z</time>
      </trkpt>
      <trkpt lat="49.22215" lon="-0.35997">
        <ele>42.2</ele>
        <time>2023-04-28T11:12:19Z</time>
      </trkpt>
      <trkpt lat="49.22215" lon="-0.35988">
        <ele>42.2</ele>
        <time>2023-04-28T11:12:20Z</time>
      </trkpt>
      <trkpt lat="49.22214" lon="-0.35978">
        <ele>42.2</ele>
        <time>2023-04-28T11:12:21Z</time>
      </trkpt>
      <trkpt lat="49.22214" lon="-0.35969">
        <ele>42.2</ele>
        <time>2023-04-28T11:12:22Z</time>
      </trkpt>
      <trkpt lat="49.22213" lon="-0.35959">
        <ele>42.2</ele>
        <time>2023-04-28T11:12:23Z</time>
      </trkpt>
      <trkpt lat="49.22212" lon="-0.35949">
        <ele>42.4</ele>
        <time>2023-04-28T11:12:24Z</time>
      </trkpt>
      <trkpt lat="49.22211" lon="-0.35939">
        <ele>42.4</ele>
        <time>2023-04-28T11:12:25Z</time>
      </trkpt>
      <trkpt lat="49.22209" lon="-0.35929">
        <ele>42.6</ele>
        <time>2023-04-28T11:12:26Z</time>
      </trkpt>
      <trkpt lat="49.22207" lon="-0.3592">
        <ele>42.6</ele>
        <time>2023-04-28T11:12:27Z</time>
      </trkpt>
      <trkpt lat="49.22204" lon="-0.35911">
        <ele>42.8</ele>
        <time>2023-04-28T11:12:28Z</time>
      </trkpt>
      <trkpt lat="49.222" lon="-0.35903">
        <ele>42.8</ele>
        <time>2023-04-28T11:12:29Z</time>
      </trkpt>
      <trkpt lat="49.22195" lon="-0.35896">
        <ele>43</ele>
        <time>2023-04-28T11:12:30Z</time>
      </trkpt>
      <trkpt lat="49.2219" lon="-0.3589">
        <ele>43</ele>
        <time>2023-04-28T11:12:31Z</time>
      </trkpt>
      <trkpt lat="49.22184" lon="-0.35886">
        <ele>43.2</ele>
        <time>2023-04-28T11:12:32Z</time>
      </trkpt>
      <trkpt lat="49.22178" lon="-0.35883">
        <ele>43.4</ele>
        <time>2023-04-28T11:12:33Z</time>
      </trkpt>
      <trkpt lat="49.22172" lon="-0.35882">
        <ele>43.6</ele>
        <time>2023-04-28T11:12:34Z</time>
      </trkpt>
      <trkpt lat="49.22165" lon="-0.35882">
        <ele>43.6</ele>
        <time>2023-04-28T11:12:35Z</time>
      </trkpt>
      <trkpt lat="49.22159" lon="-0.35882">
        <ele>43.6</ele>
        <time>2023-04-28T11:12:36Z</time>
      </trkpt>
      <trkpt lat="49.22153" lon="-0.35881">
        <ele>43.6</ele>
        <time>2023-04-28T11:12:37Z</time>
      </trkpt>
      <trkpt lat="49.22147" lon="-0.35881">
        <ele>43.6</ele>
        <time>2023-04-28T11:12:38Z</time>
      </trkpt>
      <trkpt lat="49.2214" lon="-0.3588">
        <ele>43.6</ele>
        <time>2023-04-28T11:12:39Z</time>
      </trkpt>
      <trkpt lat="49.22134" lon="-0.3588">
        <ele>43.6</ele>
        <time>2023-04-28T11:12:40Z</time>
      </trkpt>
      <trkpt lat="49.22128" lon="-0.3588">
        <ele>43.6</ele>
        <time>2023-04-28T11:12:41Z</time>
      </trkpt>
      <trkpt lat="49.22122" lon="-0.3588">
        <ele>43.6</ele>
        <time>2023-04-28T11:12:42Z</time>
      </trkpt>
      <trkpt lat="49.22115" lon="-0.3588">
        <ele>43.6</ele>
        <time>2023-04-28T11:12:43Z</time>
      </trkpt>
      <trkpt lat="49.22109" lon="-0.35879">
        <ele>43.6</ele>
        <time>2023-04-28T11:12:44Z</time>
      </trkpt>
      <trkpt lat="49.22103" lon="-0.35879">
        <ele>43.6</ele>
        <time>2023-04-28T11:12:45Z</time>
      </trkpt>
      <trkpt lat="49.22097" lon="-0.35879">
        <ele>43.6</ele>
        <time>2023-04-28T11:12:46Z</time>
      </trkpt>
      <trkpt lat="49.22091" lon="-0.35879">
        <ele>43.6</ele>
        <time>2023-04-28T11:12:47Z</time>
      </trkpt>
      <trkpt lat="49.22085" lon="-0.35878">
        <ele>43.6</ele>
        <time>2023-04-28T11:12:48Z</time>
      </trkpt>
      <trkpt lat="49.22079" lon="-0.35878">
        <ele>43.6</ele>
        <time>2023-04-28T11:12:49Z</time>
      </trkpt>
      <trkpt lat="49.22073" lon="-0.35878">
        <ele>43.8</ele>
        <time>2023-04-28T11:12:50Z</time>
      </trkpt>
      <trkpt lat="49.22067" lon="-0.35877">
        <ele>43.8</ele>
        <time>2023-04-28T11:12:51Z</time>
      </trkpt>
      <trkpt lat="49.22061" lon="-0.35877">
        <ele>44</ele>
        <time>2023-04-28T11:12:52Z</time>
      </trkpt>
      <trkpt lat="49.22056" lon="-0.35877">
        <ele>44</ele>
        <time>2023-04-28T11:12:53Z</time>
      </trkpt>
      <trkpt lat="49.2205" lon="-0.35877">
        <ele>44</ele>
        <time>2023-04-28T11:12:54Z</time>
      </trkpt>
      <trkpt lat="49.22044" lon="-0.35877">
        <ele>44.2</ele>
        <time>2023-04-28T11:12:55Z</time>
      </trkpt>
      <trkpt lat="49.22038" lon="-0.35877">
        <ele>44.2</ele>
        <time>2023-04-28T11:12:56Z</time>
      </trkpt>
      <trkpt lat="49.22032" lon="-0.35876">
        <ele>44.4</ele>
        <time>2023-04-28T11:12:57Z</time>
      </trkpt>
      <trkpt lat="49.22027" lon="-0.35876">
        <ele>44.6</ele>
        <time>2023-04-28T11:12:58Z</time>
      </trkpt>
      <trkpt lat="49.22021" lon="-0.35876">
        <ele>44.6</ele>
        <time>2023-04-28T11:12:59Z</time>
      </trkpt>
      <trkpt lat="49.22015" lon="-0.35876">
        <ele>44.8</ele>
        <time>2023-04-28T11:13:00Z</time>
      </trkpt>
      <trkpt lat="49.22009" lon="-0.35876">
        <ele>44.8</ele>
        <time>2023-04-28T11:13:01Z</time>
      </trkpt>
      <trkpt lat="49.22004" lon="-0.35875">
        <ele>45</ele>
        <time>2023-04-28T11:13:02Z</time>
      </trkpt>
      <trkpt lat="49.21998" lon="-0.35875">
        <ele>45</ele>
        <time>2023-04-28T11:13:03Z</time>
      </trkpt>
      <trkpt lat="49.21992" lon="-0.35875">
        <ele>45</ele>
        <time>2023-04-28T11:13:04Z</time>
      </trkpt>
      <trkpt lat="49.21986" lon="-0.35875">
        <ele>45.2</ele>
        <time>2023-04-28T11:13:05Z</time>
      </trkpt>
      <trkpt lat="49.2198" lon="-0.35875">
        <ele>45.4</ele>
        <time>2023-04-28T11:13:06Z</time>
      </trkpt>
      <trkpt lat="49.21974" lon="-0.35875">
        <ele>45.6</ele>
        <time>2023-04-28T11:13:07Z</time>
      </trkpt>
      <trkpt lat="49.21969" lon="-0.35874">
        <ele>45.6</ele>
        <time>2023-04-28T11:13:08Z</time>
      </trkpt>
      <trkpt lat="49.21963" lon="-0.35874">
        <ele>45.8</ele>
        <time>2023-04-28T11:13:09Z</time>
      </trkpt>
      <trkpt lat="49.21957" lon="-0.35873">
        <ele>45.8</ele>
        <time>2023-04-28T11:13:10Z</time>
      </trkpt>
      <trkpt lat="49.21952" lon="-0.35872">
        <ele>45.8</ele>
        <time>2023-04-28T11:13:11Z</time>
      </trkpt>
      <trkpt lat="49.21946" lon="-0.35871">
        <ele>46</ele>
        <time>2023-04-28T11:13:12Z</time>
      </trkpt>
      <trkpt lat="49.21941" lon="-0.35869">
        <ele>46</ele>
        <time>2023-04-28T11:13:13Z</time>
      </trkpt>
      <trkpt lat="49.21935" lon="-0.35867">
        <ele>46</ele>
        <time>2023-04-28T11:13:14Z</time>
      </trkpt>
      <trkpt lat="49.2193" lon="-0.35865">
        <ele>46.2</ele>
        <time>2023-04-28T11:13:15Z</time>
      </trkpt>
      <trkpt lat="49.21925" lon="-0.35862">
        <ele>46.2</ele>
        <time>2023-04-28T11:13:16Z</time>
      </trkpt>
      <trkpt lat="49.21919" lon="-0.3586">
        <ele>46.2</ele>
        <time>2023-04-28T11:13:17Z</time>
      </trkpt>
      <trkpt lat="49.21914" lon="-0.35856">
        <ele>46.2</ele>
        <time>2023-04-28T11:13:18Z</time>
      </trkpt>
      <trkpt lat="49.21909" lon="-0.35853">
        <ele>46.4</ele>
        <time>2023-04-28T11:13:19Z</time>
      </trkpt>
      <trkpt lat="49.21904" lon="-0.35849">
        <ele>46.6</ele>
        <time>2023-04-28T11:13:20Z</time>
      </trkpt>
      <trkpt lat="49.21899" lon="-0.35845">
        <ele>46.6</ele>
        <time>2023-04-28T11:13:21Z</time>
      </trkpt>
      <trkpt lat="49.21894" lon="-0.3584">
        <ele>46.6</ele>
        <time>2023-04-28T11:13:22Z</time>
      </trkpt>
      <trkpt lat="49.21889" lon="-0.35836">
        <ele>46.8</ele>
        <time>2023-04-28T11:13:23Z</time>
      </trkpt>
      <trkpt lat="49.21885" lon="-0.3583">
        <ele>46.8</ele>
        <time>2023-04-28T11:13:24Z</time>
      </trkpt>
      <trkpt lat="49.2188" lon="-0.35825">
        <ele>47</ele>
        <time>2023-04-28T11:13:25Z</time>
      </trkpt>
      <trkpt lat="49.21876" lon="-0.3582">
        <ele>47</ele>
        <time>2023-04-28T11:13:26Z</time>
      </trkpt>
      <trkpt lat="49.21872" lon="-0.35814">
        <ele>47</ele>
        <time>2023-04-28T11:13:27Z</time>
      </trkpt>
      <trkpt lat="49.21868" lon="-0.35808">
        <ele>47.2</ele>
        <time>2023-04-28T11:13:28Z</time>
      </trkpt>
      <trkpt lat="49.21864" lon="-0.35802">
        <ele>47.4</ele>
        <time>2023-04-28T11:13:29Z</time>
      </trkpt>
      <trkpt lat="49.2186" lon="-0.35796">
        <ele>47.6</ele>
        <time>2023-04-28T11:13:30Z</time>
      </trkpt>
      <trkpt lat="49.21857" lon="-0.35789">
        <ele>47.8</ele>
        <time>2023-04-28T11:13:31Z</time>
      </trkpt>
      <trkpt lat="49.21854" lon="-0.35782">
        <ele>47.8</ele>
        <time>2023-04-28T11:13:32Z</time>
      </trkpt>
      <trkpt lat="49.2185" lon="-0.35775">
        <ele>48</ele>
        <time>2023-04-28T11:13:33Z</time>
      </trkpt>
      <trkpt lat="49.21847" lon="-0.35768">
        <ele>48.2</ele>
        <time>2023-04-28T11:13:34Z</time>
      </trkpt>
      <trkpt lat="49.21844" lon="-0.35761">
        <ele>48.4</ele>
        <time>2023-04-28T11:13:35Z</time>
      </trkpt>
      <trkpt lat="49.21842" lon="-0.35754">
        <ele>48.6</ele>
        <time>2023-04-28T11:13:36Z</time>
      </trkpt>
      <trkpt lat="49.21839" lon="-0.35746">
        <ele>48.8</ele>
        <time>2023-04-28T11:13:37Z</time>
      </trkpt>
      <trkpt lat="49.21837" lon="-0.35738">
        <ele>48.8</ele>
        <time>2023-04-28T11:13:38Z</time>
      </trkpt>
      <trkpt lat="49.21835" lon="-0.35731">
        <ele>48.8</ele>
        <time>2023-04-28T11:13:39Z</time>
      </trkpt>
      <trkpt lat="49.21833" lon="-0.35723">
        <ele>48.8</ele>
        <time>2023-04-28T11:13:40Z</time>
      </trkpt>
      <trkpt lat="49.21831" lon="-0.35715">
        <ele>48.8</ele>
        <time>2023-04-28T11:13:41Z</time>
      </trkpt>
      <trkpt lat="49.21828" lon="-0.35708">
        <ele>48.6</ele>
        <time>2023-04-28T11:13:42Z</time>
      </trkpt>
      <trkpt lat="49.21826" lon="-0.357">
        <ele>48.6</ele>
        <time>2023-04-28T11:13:43Z</time>
      </trkpt>
      <trkpt lat="49.21824" lon="-0.35692">
        <ele>48.6</ele>
        <time>2023-04-28T11:13:44Z</time>
      </trkpt>
      <trkpt lat="49.21821" lon="-0.35684">
        <ele>48.6</ele>
        <time>2023-04-28T11:13:45Z</time>
      </trkpt>
      <trkpt lat="49.21819" lon="-0.35676">
        <ele>48.6</ele>
        <time>2023-04-28T11:13:46Z</time>
      </trkpt>
      <trkpt lat="49.21817" lon="-0.35667">
        <ele>48.6</ele>
        <time>2023-04-28T11:13:47Z</time>
      </trkpt>
      <trkpt lat="49.21815" lon="-0.35659">
        <ele>48.6</ele>
        <time>2023-04-28T11:13:48Z</time>
      </trkpt>
      <trkpt lat="49.21812" lon="-0.35651">
        <ele>48.6</ele>
        <time>2023-04-28T11:13:49Z</time>
      </trkpt>
      <trkpt lat="49.2181" lon="-0.35643">
        <ele>48.6</ele>
        <time>2023-04-28T11:13:50Z</time>
      </trkpt>
      <trkpt lat="49.21808" lon="-0.35634">
        <ele>48.6</ele>
        <time>2023-04-28T11:13:51Z</time>
      </trkpt>
      <trkpt lat="49.21806" lon="-0.35626">
        <ele>48.6</ele>
        <time>2023-04-28T11:13:52Z</time>
      </trkpt>
      <trkpt lat="49.21804" lon="-0.35617">
        <ele>48.6</ele>
        <time>2023-04-28T11:13:53Z</time>
      </trkpt>
      <trkpt lat="49.21801" lon="-0.35608">
        <ele>48.4</ele>
        <time>2023-04-28T11:13:54Z</time>
      </trkpt>
      <trkpt lat="49.21799" lon="-0.35599">
        <ele>48.4</ele>
        <time>2023-04-28T11:13:55Z</time>
      </trkpt>
      <trkpt lat="49.21797" lon="-0.35589">
        <ele>48.4</ele>
        <time>2023-04-28T11:13:56Z</time>
      </trkpt>
      <trkpt lat="49.21795" lon="-0.3558">
        <ele>48.4</ele>
        <time>2023-04-28T11:13:57Z</time>
      </trkpt>
      <trkpt lat="49.21793" lon="-0.35571">
        <ele>48.6</ele>
        <time>2023-04-28T11:13:58Z</time>
      </trkpt>
      <trkpt lat="49.21791" lon="-0.35561">
        <ele>48.8</ele>
        <time>2023-04-28T11:13:59Z</time>
      </trkpt>
      <trkpt lat="49.21789" lon="-0.35552">
        <ele>48.8</ele>
        <time>2023-04-28T11:14:00Z</time>
      </trkpt>
      <trkpt lat="49.21787" lon="-0.35543">
        <ele>49</ele>
        <time>2023-04-28T11:14:01Z</time>
      </trkpt>
      <trkpt lat="49.21784" lon="-0.35533">
        <ele>49</ele>
        <time>2023-04-28T11:14:02Z</time>
      </trkpt>
      <trkpt lat="49.21782" lon="-0.35524">
        <ele>49</ele>
        <time>2023-04-28T11:14:03Z</time>
      </trkpt>
      <trkpt lat="49.2178" lon="-0.35514">
        <ele>49.2</ele>
        <time>2023-04-28T11:14:04Z</time>
      </trkpt>
      <trkpt lat="49.21778" lon="-0.35505">
        <ele>49.2</ele>
        <time>2023-04-28T11:14:05Z</time>
      </trkpt>
      <trkpt lat="49.21776" lon="-0.35496">
        <ele>49.2</ele>
        <time>2023-04-28T11:14:06Z</time>
      </trkpt>
      <trkpt lat="49.21774" lon="-0.35486">
        <ele>49</ele>
        <time>2023-04-28T11:14:07Z</time>
      </trkpt>
      <trkpt lat="49.21772" lon="-0.35477">
        <ele>49</ele>
        <time>2023-04-28T11:14:08Z</time>
      </trkpt>
      <trkpt lat="49.21769" lon="-0.35469">
        <ele>48.8</ele>
        <time>2023-04-28T11:14:09Z</time>
      </trkpt>
      <trkpt lat="49.21766" lon="-0.35462">
        <ele>48.8</ele>
        <time>2023-04-28T11:14:10Z</time>
      </trkpt>
      <trkpt lat="49.21761" lon="-0.35456">
        <ele>48.8</ele>
        <time>2023-04-28T11:14:11Z</time>
      </trkpt>
      <trkpt lat="49.21755" lon="-0.35452">
        <ele>48.8</ele>
        <time>2023-04-28T11:14:12Z</time>
      </trkpt>
      <trkpt lat="49.21751" lon="-0.35447">
        <ele>48.8</ele>
        <time>2023-04-28T11:14:13Z</time>
      </trkpt>
      <trkpt lat="49.21748" lon="-0.35441">
        <ele>48.6</ele>
        <time>2023-04-28T11:14:14Z</time>
      </trkpt>
      <trkpt lat="49.21746" lon="-0.35435">
        <ele>48.4</ele>
        <time>2023-04-28T11:14:15Z</time>
      </trkpt>
      <trkpt lat="49.21745" lon="-0.35428">
        <ele>48.2</ele>
        <time>2023-04-28T11:14:16Z</time>
      </trkpt>
      <trkpt lat="49.21745" lon="-0.35421">
        <ele>48</ele>
        <time>2023-04-28T11:14:17Z</time>
      </trkpt>
      <trkpt lat="49.21745" lon="-0.35414">
        <ele>48</ele>
        <time>2023-04-28T11:14:18Z</time>
      </trkpt>
      <trkpt lat="49.21746" lon="-0.35408">
        <ele>47.8</ele>
        <time>2023-04-28T11:14:19Z</time>
      </trkpt>
      <trkpt lat="49.21748" lon="-0.35402">
        <ele>47.8</ele>
        <time>2023-04-28T11:14:20Z</time>
      </trkpt>
      <trkpt lat="49.2175" lon="-0.35397">
        <ele>47.6</ele>
        <time>2023-04-28T11:14:21Z</time>
      </trkpt>
      <trkpt lat="49.21752" lon="-0.35393">
        <ele>47.4</ele>
        <time>2023-04-28T11:14:22Z</time>
      </trkpt>
      <trkpt lat="49.21753" lon="-0.35391">
        <ele>47.2</ele>
        <time>2023-04-28T11:14:23Z</time>
      </trkpt>
      <trkpt lat="49.21754" lon="-0.3539">
        <ele>47.2</ele>
        <time>2023-04-28T11:14:24Z</time>
      </trkpt>
      <trkpt lat="49.21756" lon="-0.35387">
        <ele>47.2</ele>
        <time>2023-04-28T11:14:25Z</time>
      </trkpt>
      <trkpt lat="49.21759" lon="-0.35384">
        <ele>47</ele>
        <time>2023-04-28T11:14:26Z</time>
      </trkpt>
      <trkpt lat="49.21762" lon="-0.35381">
        <ele>47</ele>
        <time>2023-04-28T11:14:27Z</time>
      </trkpt>
      <trkpt lat="49.21763" lon="-0.35376">
        <ele>47</ele>
        <time>2023-04-28T11:14:28Z</time>
      </trkpt>
      <trkpt lat="49.21763" lon="-0.35371">
        <ele>46.8</ele>
        <time>2023-04-28T11:14:29Z</time>
      </trkpt>
      <trkpt lat="49.21761" lon="-0.35365">
        <ele>46.8</ele>
        <time>2023-04-28T11:14:30Z</time>
      </trkpt>
      <trkpt lat="49.21759" lon="-0.35358">
        <ele>46.6</ele>
        <time>2023-04-28T11:14:31Z</time>
      </trkpt>
      <trkpt lat="49.21758" lon="-0.35351">
        <ele>46.4</ele>
        <time>2023-04-28T11:14:32Z</time>
      </trkpt>
      <trkpt lat="49.21756" lon="-0.35344">
        <ele>46.2</ele>
        <time>2023-04-28T11:14:33Z</time>
      </trkpt>
      <trkpt lat="49.21754" lon="-0.35336">
        <ele>46</ele>
        <time>2023-04-28T11:14:34Z</time>
      </trkpt>
      <trkpt lat="49.21753" lon="-0.35329">
        <ele>46</ele>
        <time>2023-04-28T11:14:35Z</time>
      </trkpt>
      <trkpt lat="49.21751" lon="-0.35321">
        <ele>45.8</ele>
        <time>2023-04-28T11:14:36Z</time>
      </trkpt>
      <trkpt lat="49.21749" lon="-0.35312">
        <ele>45.8</ele>
        <time>2023-04-28T11:14:37Z</time>
      </trkpt>
      <trkpt lat="49.21748" lon="-0.35304">
        <ele>45.8</ele>
        <time>2023-04-28T11:14:38Z</time>
      </trkpt>
      <trkpt lat="49.21746" lon="-0.35296">
        <ele>45.8</ele>
        <time>2023-04-28T11:14:39Z</time>
      </trkpt>
      <trkpt lat="49.21744" lon="-0.35287">
        <ele>45.8</ele>
        <time>2023-04-28T11:14:40Z</time>
      </trkpt>
      <trkpt lat="49.21742" lon="-0.35279">
        <ele>46</ele>
        <time>2023-04-28T11:14:41Z</time>
      </trkpt>
      <trkpt lat="49.2174" lon="-0.3527">
        <ele>46</ele>
        <time>2023-04-28T11:14:42Z</time>
      </trkpt>
      <trkpt lat="49.21738" lon="-0.35262">
        <ele>46</ele>
        <time>2023-04-28T11:14:43Z</time>
      </trkpt>
      <trkpt lat="49.21736" lon="-0.35253">
        <ele>46</ele>
        <time>2023-04-28T11:14:44Z</time>
      </trkpt>
      <trkpt lat="49.21734" lon="-0.35244">
        <ele>46.2</ele>
        <time>2023-04-28T11:14:45Z</time>
      </trkpt>
      <trkpt lat="49.21732" lon="-0.35235">
        <ele>46.6</ele>
        <time>2023-04-28T11:14:46Z</time>
      </trkpt>
      <trkpt lat="49.2173" lon="-0.35227">
        <ele>46.8</ele>
        <time>2023-04-28T11:14:47Z</time>
      </trkpt>
      <trkpt lat="49.21729" lon="-0.35218">
        <ele>47</ele>
        <time>2023-04-28T11:14:48Z</time>
      </trkpt>
      <trkpt lat="49.21727" lon="-0.35209">
        <ele>47.2</ele>
        <time>2023-04-28T11:14:49Z</time>
      </trkpt>
      <trkpt lat="49.21725" lon="-0.352">
        <ele>47.6</ele>
        <time>2023-04-28T11:14:50Z</time>
      </trkpt>
      <trkpt lat="49.21723" lon="-0.35191">
        <ele>47.8</ele>
        <time>2023-04-28T11:14:51Z</time>
      </trkpt>
      <trkpt lat="49.21721" lon="-0.35182">
        <ele>48</ele>
        <time>2023-04-28T11:14:52Z</time>
      </trkpt>
      <trkpt lat="49.21719" lon="-0.35173">
        <ele>48</ele>
        <time>2023-04-28T11:14:53Z</time>
      </trkpt>
      <trkpt lat="49.21717" lon="-0.35164">
        <ele>48.2</ele>
        <time>2023-04-28T11:14:54Z</time>
      </trkpt>
      <trkpt lat="49.21716" lon="-0.35156">
        <ele>48.8</ele>
        <time>2023-04-28T11:14:55Z</time>
      </trkpt>
      <trkpt lat="49.21717" lon="-0.35147">
        <ele>49</ele>
        <time>2023-04-28T11:14:56Z</time>
      </trkpt>
      <trkpt lat="49.21719" lon="-0.35138">
        <ele>49.2</ele>
        <time>2023-04-28T11:14:57Z</time>
      </trkpt>
      <trkpt lat="49.21721" lon="-0.35131">
        <ele>49.6</ele>
        <time>2023-04-28T11:14:58Z</time>
      </trkpt>
      <trkpt lat="49.21723" lon="-0.35123">
        <ele>50</ele>
        <time>2023-04-28T11:14:59Z</time>
      </trkpt>
      <trkpt lat="49.21725" lon="-0.35117">
        <ele>50</ele>
        <time>2023-04-28T11:15:00Z</time>
      </trkpt>
      <trkpt lat="49.21726" lon="-0.35113">
        <ele>50.4</ele>
        <time>2023-04-28T11:15:01Z</time>
      </trkpt>
      <trkpt lat="49.21727" lon="-0.35108">
        <ele>50.6</ele>
        <time>2023-04-28T11:15:02Z</time>
      </trkpt>
      <trkpt lat="49.21729" lon="-0.35105">
        <ele>50.8</ele>
        <time>2023-04-28T11:15:03Z</time>
      </trkpt>
      <trkpt lat="49.21733" lon="-0.35102">
        <ele>51</ele>
        <time>2023-04-28T11:15:04Z</time>
      </trkpt>
      <trkpt lat="49.21738" lon="-0.35102">
        <ele>51</ele>
        <time>2023-04-28T11:15:05Z</time>
      </trkpt>
      <trkpt lat="49.21743" lon="-0.35103">
        <ele>50.8</ele>
        <time>2023-04-28T11:15:06Z</time>
      </trkpt>
      <trkpt lat="49.2175" lon="-0.35104">
        <ele>50.8</ele>
        <time>2023-04-28T11:15:07Z</time>
      </trkpt>
      <trkpt lat="49.21757" lon="-0.35105">
        <ele>50.4</ele>
        <time>2023-04-28T11:15:08Z</time>
      </trkpt>
      <trkpt lat="49.21764" lon="-0.35106">
        <ele>50</ele>
        <time>2023-04-28T11:15:09Z</time>
      </trkpt>
      <trkpt lat="49.21772" lon="-0.35107">
        <ele>49.4</ele>
        <time>2023-04-28T11:15:10Z</time>
      </trkpt>
      <trkpt lat="49.21779" lon="-0.35108">
        <ele>49</ele>
        <time>2023-04-28T11:15:11Z</time>
      </trkpt>
      <trkpt lat="49.21788" lon="-0.3511">
        <ele>48.6</ele>
        <time>2023-04-28T11:15:12Z</time>
      </trkpt>
      <trkpt lat="49.21796" lon="-0.3511">
        <ele>48</ele>
        <time>2023-04-28T11:15:13Z</time>
      </trkpt>
      <trkpt lat="49.21804" lon="-0.3511">
        <ele>47.6</ele>
        <time>2023-04-28T11:15:14Z</time>
      </trkpt>
      <trkpt lat="49.21813" lon="-0.35109">
        <ele>47.2</ele>
        <time>2023-04-28T11:15:15Z</time>
      </trkpt>
      <trkpt lat="49.21821" lon="-0.35106">
        <ele>47</ele>
        <time>2023-04-28T11:15:16Z</time>
      </trkpt>
      <trkpt lat="49.21829" lon="-0.35101">
        <ele>46.6</ele>
        <time>2023-04-28T11:15:17Z</time>
      </trkpt>
      <trkpt lat="49.21837" lon="-0.35095">
        <ele>46.4</ele>
        <time>2023-04-28T11:15:18Z</time>
      </trkpt>
      <trkpt lat="49.21844" lon="-0.35089">
        <ele>46.2</ele>
        <time>2023-04-28T11:15:19Z</time>
      </trkpt>
      <trkpt lat="49.21852" lon="-0.35084">
        <ele>46</ele>
        <time>2023-04-28T11:15:20Z</time>
      </trkpt>
      <trkpt lat="49.2186" lon="-0.35078">
        <ele>45.8</ele>
        <time>2023-04-28T11:15:21Z</time>
      </trkpt>
      <trkpt lat="49.21869" lon="-0.35074">
        <ele>45.6</ele>
        <time>2023-04-28T11:15:22Z</time>
      </trkpt>
      <trkpt lat="49.21877" lon="-0.35069">
        <ele>45.4</ele>
        <time>2023-04-28T11:15:23Z</time>
      </trkpt>
      <trkpt lat="49.21886" lon="-0.35065">
        <ele>45.2</ele>
        <time>2023-04-28T11:15:24Z</time>
      </trkpt>
      <trkpt lat="49.21894" lon="-0.35062">
        <ele>45</ele>
        <time>2023-04-28T11:15:25Z</time>
      </trkpt>
      <trkpt lat="49.21903" lon="-0.35059">
        <ele>45</ele>
        <time>2023-04-28T11:15:26Z</time>
      </trkpt>
      <trkpt lat="49.21912" lon="-0.35055">
        <ele>45</ele>
        <time>2023-04-28T11:15:27Z</time>
      </trkpt>
      <trkpt lat="49.21921" lon="-0.35052">
        <ele>44.8</ele>
        <time>2023-04-28T11:15:28Z</time>
      </trkpt>
      <trkpt lat="49.21929" lon="-0.35049">
        <ele>44.6</ele>
        <time>2023-04-28T11:15:29Z</time>
      </trkpt>
      <trkpt lat="49.21938" lon="-0.35045">
        <ele>44.4</ele>
        <time>2023-04-28T11:15:30Z</time>
      </trkpt>
      <trkpt lat="49.21947" lon="-0.35042">
        <ele>44.2</ele>
        <time>2023-04-28T11:15:31Z</time>
      </trkpt>
      <trkpt lat="49.21956" lon="-0.35038">
        <ele>44</ele>
        <time>2023-04-28T11:15:32Z</time>
      </trkpt>
      <trkpt lat="49.21964" lon="-0.35033">
        <ele>43.8</ele>
        <time>2023-04-28T11:15:33Z</time>
      </trkpt>
      <trkpt lat="49.21972" lon="-0.35027">
        <ele>43.6</ele>
        <time>2023-04-28T11:15:34Z</time>
      </trkpt>
      <trkpt lat="49.21979" lon="-0.35019">
        <ele>43.6</ele>
        <time>2023-04-28T11:15:35Z</time>
      </trkpt>
      <trkpt lat="49.21986" lon="-0.3501">
        <ele>43.8</ele>
        <time>2023-04-28T11:15:36Z</time>
      </trkpt>
      <trkpt lat="49.21992" lon="-0.35">
        <ele>43.8</ele>
        <time>2023-04-28T11:15:37Z</time>
      </trkpt>
      <trkpt lat="49.21997" lon="-0.3499">
        <ele>43.6</ele>
        <time>2023-04-28T11:15:38Z</time>
      </trkpt>
      <trkpt lat="49.22002" lon="-0.34979">
        <ele>43.2</ele>
        <time>2023-04-28T11:15:39Z</time>
      </trkpt>
      <trkpt lat="49.22007" lon="-0.34967">
        <ele>43.2</ele>
        <time>2023-04-28T11:15:40Z</time>
      </trkpt>
      <trkpt lat="49.22009" lon="-0.34955">
        <ele>43.4</ele>
        <time>2023-04-28T11:15:41Z</time>
      </trkpt>
      <trkpt lat="49.22011" lon="-0.34942">
        <ele>43.8</ele>
        <time>2023-04-28T11:15:42Z</time>
      </trkpt>
      <trkpt lat="49.22011" lon="-0.34929">
        <ele>44</ele>
        <time>2023-04-28T11:15:43Z</time>
      </trkpt>
      <trkpt lat="49.22009" lon="-0.34916">
        <ele>44.4</ele>
        <time>2023-04-28T11:15:44Z</time>
      </trkpt>
      <trkpt lat="49.22007" lon="-0.34904">
        <ele>44.6</ele>
        <time>2023-04-28T11:15:45Z</time>
      </trkpt>
      <trkpt lat="49.22004" lon="-0.34892">
        <ele>44.8</ele>
        <time>2023-04-28T11:15:46Z</time>
      </trkpt>
      <trkpt lat="49.22001" lon="-0.3488">
        <ele>45</ele>
        <time>2023-04-28T11:15:47Z</time>
      </trkpt>
      <trkpt lat="49.21998" lon="-0.34869">
        <ele>45.2</ele>
        <time>2023-04-28T11:15:48Z</time>
      </trkpt>
      <trkpt lat="49.21996" lon="-0.34858">
        <ele>45.4</ele>
        <time>2023-04-28T11:15:49Z</time>
      </trkpt>
      <trkpt lat="49.21993" lon="-0.34846">
        <ele>45.6</ele>
        <time>2023-04-28T11:15:50Z</time>
      </trkpt>
      <trkpt lat="49.21991" lon="-0.34835">
        <ele>45.8</ele>
        <time>2023-04-28T11:15:51Z</time>
      </trkpt>
      <trkpt lat="49.21989" lon="-0.34825">
        <ele>46</ele>
        <time>2023-04-28T11:15:52Z</time>
      </trkpt>
      <trkpt lat="49.21988" lon="-0.34814">
        <ele>46.4</ele>
        <time>2023-04-28T11:15:53Z</time>
      </trkpt>
      <trkpt lat="49.21986" lon="-0.34803">
        <ele>46.8</ele>
        <time>2023-04-28T11:15:54Z</time>
      </trkpt>
      <trkpt lat="49.21986" lon="-0.34792">
        <ele>47</ele>
        <time>2023-04-28T11:15:55Z</time>
      </trkpt>
      <trkpt lat="49.21985" lon="-0.34781">
        <ele>47.2</ele>
        <time>2023-04-28T11:15:56Z</time>
      </trkpt>
      <trkpt lat="49.21985" lon="-0.3477">
        <ele>47.6</ele>
        <time>2023-04-28T11:15:57Z</time>
      </trkpt>
      <trkpt lat="49.21985" lon="-0.34759">
        <ele>47.8</ele>
        <time>2023-04-28T11:15:58Z</time>
      </trkpt>
      <trkpt lat="49.21985" lon="-0.34749">
        <ele>48</ele>
        <time>2023-04-28T11:15:59Z</time>
      </trkpt>
      <trkpt lat="49.21985" lon="-0.34738">
        <ele>48</ele>
        <time>2023-04-28T11:16:00Z</time>
      </trkpt>
      <trkpt lat="49.21986" lon="-0.34727">
        <ele>48</ele>
        <time>2023-04-28T11:16:01Z</time>
      </trkpt>
      <trkpt lat="49.21987" lon="-0.34716">
        <ele>48</ele>
        <time>2023-04-28T11:16:02Z</time>
      </trkpt>
      <trkpt lat="49.21989" lon="-0.34706">
        <ele>48</ele>
        <time>2023-04-28T11:16:03Z</time>
      </trkpt>
      <trkpt lat="49.2199" lon="-0.34695">
        <ele>48</ele>
        <time>2023-04-28T11:16:04Z</time>
      </trkpt>
      <trkpt lat="49.21992" lon="-0.34684">
        <ele>48</ele>
        <time>2023-04-28T11:16:05Z</time>
      </trkpt>
      <trkpt lat="49.21994" lon="-0.34674">
        <ele>48</ele>
        <time>2023-04-28T11:16:06Z</time>
      </trkpt>
      <trkpt lat="49.21996" lon="-0.34663">
        <ele>48</ele>
        <time>2023-04-28T11:16:07Z</time>
      </trkpt>
      <trkpt lat="49.21999" lon="-0.34653">
        <ele>48</ele>
        <time>2023-04-28T11:16:08Z</time>
      </trkpt>
      <trkpt lat="49.22002" lon="-0.34643">
        <ele>48</ele>
        <time>2023-04-28T11:16:09Z</time>
      </trkpt>
      <trkpt lat="49.22005" lon="-0.34633">
        <ele>47.8</ele>
        <time>2023-04-28T11:16:10Z</time>
      </trkpt>
      <trkpt lat="49.22009" lon="-0.34623">
        <ele>47.6</ele>
        <time>2023-04-28T11:16:11Z</time>
      </trkpt>
      <trkpt lat="49.22013" lon="-0.34613">
        <ele>47.2</ele>
        <time>2023-04-28T11:16:12Z</time>
      </trkpt>
      <trkpt lat="49.22017" lon="-0.34603">
        <ele>47</ele>
        <time>2023-04-28T11:16:13Z</time>
      </trkpt>
      <trkpt lat="49.22021" lon="-0.34593">
        <ele>46.8</ele>
        <time>2023-04-28T11:16:14Z</time>
      </trkpt>
      <trkpt lat="49.22025" lon="-0.34583">
        <ele>46.6</ele>
        <time>2023-04-28T11:16:15Z</time>
      </trkpt>
      <trkpt lat="49.22028" lon="-0.34573">
        <ele>46</ele>
        <time>2023-04-28T11:16:16Z</time>
      </trkpt>
      <trkpt lat="49.22032" lon="-0.34563">
        <ele>45.8</ele>
        <time>2023-04-28T11:16:17Z</time>
      </trkpt>
      <trkpt lat="49.22035" lon="-0.34552">
        <ele>45.6</ele>
        <time>2023-04-28T11:16:18Z</time>
      </trkpt>
      <trkpt lat="49.22038" lon="-0.3454">
        <ele>45.2</ele>
        <time>2023-04-28T11:16:19Z</time>
      </trkpt>
      <trkpt lat="49.22041" lon="-0.34529">
        <ele>45</ele>
        <time>2023-04-28T11:16:20Z</time>
      </trkpt>
      <trkpt lat="49.22043" lon="-0.34517">
        <ele>44.8</ele>
        <time>2023-04-28T11:16:21Z</time>
      </trkpt>
      <trkpt lat="49.22045" lon="-0.34505">
        <ele>44.4</ele>
        <time>2023-04-28T11:16:22Z</time>
      </trkpt>
      <trkpt lat="49.22046" lon="-0.34493">
        <ele>44.4</ele>
        <time>2023-04-28T11:16:23Z</time>
      </trkpt>
      <trkpt lat="49.22047" lon="-0.3448">
        <ele>44.4</ele>
        <time>2023-04-28T11:16:24Z</time>
      </trkpt>
      <trkpt lat="49.22048" lon="-0.34468">
        <ele>44.4</ele>
        <time>2023-04-28T11:16:25Z</time>
      </trkpt>
      <trkpt lat="49.22048" lon="-0.34455">
        <ele>44.6</ele>
        <time>2023-04-28T11:16:26Z</time>
      </trkpt>
      <trkpt lat="49.22048" lon="-0.34443">
        <ele>44.6</ele>
        <time>2023-04-28T11:16:27Z</time>
      </trkpt>
      <trkpt lat="49.22048" lon="-0.3443">
        <ele>44.6</ele>
        <time>2023-04-28T11:16:28Z</time>
      </trkpt>
      <trkpt lat="49.22047" lon="-0.34418">
        <ele>44.8</ele>
        <time>2023-04-28T11:16:29Z</time>
      </trkpt>
      <trkpt lat="49.22046" lon="-0.34406">
        <ele>44.8</ele>
        <time>2023-04-28T11:16:30Z</time>
      </trkpt>
      <trkpt lat="49.22044" lon="-0.34393">
        <ele>44.8</ele>
        <time>2023-04-28T11:16:31Z</time>
      </trkpt>
      <trkpt lat="49.22043" lon="-0.34381">
        <ele>44.8</ele>
        <time>2023-04-28T11:16:32Z</time>
      </trkpt>
      <trkpt lat="49.2204" lon="-0.34369">
        <ele>44.8</ele>
        <time>2023-04-28T11:16:33Z</time>
      </trkpt>
      <trkpt lat="49.22038" lon="-0.34357">
        <ele>45</ele>
        <time>2023-04-28T11:16:34Z</time>
      </trkpt>
      <trkpt lat="49.22035" lon="-0.34346">
        <ele>45</ele>
        <time>2023-04-28T11:16:35Z</time>
      </trkpt>
      <trkpt lat="49.22032" lon="-0.34334">
        <ele>45</ele>
        <time>2023-04-28T11:16:36Z</time>
      </trkpt>
      <trkpt lat="49.2203" lon="-0.34322">
        <ele>45.2</ele>
        <time>2023-04-28T11:16:37Z</time>
      </trkpt>
      <trkpt lat="49.22028" lon="-0.3431">
        <ele>45.2</ele>
        <time>2023-04-28T11:16:38Z</time>
      </trkpt>
      <trkpt lat="49.22026" lon="-0.34299">
        <ele>45.6</ele>
        <time>2023-04-28T11:16:39Z</time>
      </trkpt>
      <trkpt lat="49.22024" lon="-0.34287">
        <ele>45.6</ele>
        <time>2023-04-28T11:16:40Z</time>
      </trkpt>
      <trkpt lat="49.22024" lon="-0.34275">
        <ele>45.6</ele>
        <time>2023-04-28T11:16:41Z</time>
      </trkpt>
      <trkpt lat="49.22023" lon="-0.34263">
        <ele>45.6</ele>
        <time>2023-04-28T11:16:42Z</time>
      </trkpt>
      <trkpt lat="49.22022" lon="-0.34252">
        <ele>45.8</ele>
        <time>2023-04-28T11:16:43Z</time>
      </trkpt>
      <trkpt lat="49.22022" lon="-0.3424">
        <ele>45.6</ele>
        <time>2023-04-28T11:16:44Z</time>
      </trkpt>
      <trkpt lat="49.22022" lon="-0.34228">
        <ele>45.6</ele>
        <time>2023-04-28T11:16:45Z</time>
      </trkpt>
      <trkpt lat="49.22023" lon="-0.34217">
        <ele>45.4</ele>
        <time>2023-04-28T11:16:46Z</time>
      </trkpt>
      <trkpt lat="49.22024" lon="-0.34205">
        <ele>45.2</ele>
        <time>2023-04-28T11:16:47Z</time>
      </trkpt>
      <trkpt lat="49.22025" lon="-0.34194">
        <ele>45.2</ele>
        <time>2023-04-28T11:16:48Z</time>
      </trkpt>
      <trkpt lat="49.22027" lon="-0.34182">
        <ele>45</ele>
        <time>2023-04-28T11:16:49Z</time>
      </trkpt>
      <trkpt lat="49.22028" lon="-0.34171">
        <ele>45</ele>
        <time>2023-04-28T11:16:50Z</time>
      </trkpt>
      <trkpt lat="49.2203" lon="-0.34159">
        <ele>45</ele>
        <time>2023-04-28T11:16:51Z</time>
      </trkpt>
      <trkpt lat="49.22032" lon="-0.34148">
        <ele>45</ele>
        <time>2023-04-28T11:16:52Z</time>
      </trkpt>
      <trkpt lat="49.22034" lon="-0.34137">
        <ele>44.8</ele>
        <time>2023-04-28T11:16:53Z</time>
      </trkpt>
      <trkpt lat="49.22036" lon="-0.34125">
        <ele>44.8</ele>
        <time>2023-04-28T11:16:54Z</time>
      </trkpt>
      <trkpt lat="49.22038" lon="-0.34114">
        <ele>44.8</ele>
        <time>2023-04-28T11:16:55Z</time>
      </trkpt>
      <trkpt lat="49.2204" lon="-0.34102">
        <ele>44.6</ele>
        <time>2023-04-28T11:16:56Z</time>
      </trkpt>
      <trkpt lat="49.22042" lon="-0.3409">
        <ele>44.6</ele>
        <time>2023-04-28T11:16:57Z</time>
      </trkpt>
      <trkpt lat="49.22044" lon="-0.34078">
        <ele>44.2</ele>
        <time>2023-04-28T11:16:58Z</time>
      </trkpt>
      <trkpt lat="49.22046" lon="-0.34066">
        <ele>44</ele>
        <time>2023-04-28T11:16:59Z</time>
      </trkpt>
      <trkpt lat="49.22048" lon="-0.34054">
        <ele>43.8</ele>
        <time>2023-04-28T11:17:00Z</time>
      </trkpt>
      <trkpt lat="49.22048" lon="-0.34042">
        <ele>43.6</ele>
        <time>2023-04-28T11:17:01Z</time>
      </trkpt>
      <trkpt lat="49.22048" lon="-0.3403">
        <ele>43.6</ele>
        <time>2023-04-28T11:17:02Z</time>
      </trkpt>
      <trkpt lat="49.22046" lon="-0.34018">
        <ele>43.6</ele>
        <time>2023-04-28T11:17:03Z</time>
      </trkpt>
      <trkpt lat="49.22044" lon="-0.34006">
        <ele>43.6</ele>
        <time>2023-04-28T11:17:04Z</time>
      </trkpt>
      <trkpt lat="49.2204" lon="-0.33995">
        <ele>43.6</ele>
        <time>2023-04-28T11:17:05Z</time>
      </trkpt>
      <trkpt lat="49.22036" lon="-0.33985">
        <ele>43.6</ele>
        <time>2023-04-28T11:17:06Z</time>
      </trkpt>
      <trkpt lat="49.22031" lon="-0.33975">
        <ele>43.8</ele>
        <time>2023-04-28T11:17:07Z</time>
      </trkpt>
      <trkpt lat="49.22025" lon="-0.33967">
        <ele>44</ele>
        <time>2023-04-28T11:17:08Z</time>
      </trkpt>
      <trkpt lat="49.22019" lon="-0.3396">
        <ele>44</ele>
        <time>2023-04-28T11:17:09Z</time>
      </trkpt>
      <trkpt lat="49.22012" lon="-0.33954">
        <ele>44.4</ele>
        <time>2023-04-28T11:17:10Z</time>
      </trkpt>
      <trkpt lat="49.22004" lon="-0.3395">
        <ele>44.6</ele>
        <time>2023-04-28T11:17:11Z</time>
      </trkpt>
      <trkpt lat="49.21997" lon="-0.33947">
        <ele>44.8</ele>
        <time>2023-04-28T11:17:12Z</time>
      </trkpt>
      <trkpt lat="49.21989" lon="-0.33946">
        <ele>45</ele>
        <time>2023-04-28T11:17:13Z</time>
      </trkpt>
      <trkpt lat="49.21982" lon="-0.33946">
        <ele>45</ele>
        <time>2023-04-28T11:17:14Z</time>
      </trkpt>
      <trkpt lat="49.21974" lon="-0.33947">
        <ele>45.2</ele>
        <time>2023-04-28T11:17:15Z</time>
      </trkpt>
      <trkpt lat="49.21967" lon="-0.3395">
        <ele>45.4</ele>
        <time>2023-04-28T11:17:16Z</time>
      </trkpt>
      <trkpt lat="49.2196" lon="-0.33953">
        <ele>45.6</ele>
        <time>2023-04-28T11:17:17Z</time>
      </trkpt>
      <trkpt lat="49.21954" lon="-0.33958">
        <ele>45.8</ele>
        <time>2023-04-28T11:17:18Z</time>
      </trkpt>
      <trkpt lat="49.21947" lon="-0.33962">
        <ele>46</ele>
        <time>2023-04-28T11:17:19Z</time>
      </trkpt>
      <trkpt lat="49.21942" lon="-0.33967">
        <ele>46.2</ele>
        <time>2023-04-28T11:17:20Z</time>
      </trkpt>
      <trkpt lat="49.21936" lon="-0.33971">
        <ele>46.2</ele>
        <time>2023-04-28T11:17:21Z</time>
      </trkpt>
      <trkpt lat="49.2193" lon="-0.33975">
        <ele>46.6</ele>
        <time>2023-04-28T11:17:22Z</time>
      </trkpt>
      <trkpt lat="49.21925" lon="-0.33979">
        <ele>46.6</ele>
        <time>2023-04-28T11:17:23Z</time>
      </trkpt>
      <trkpt lat="49.21919" lon="-0.33983">
        <ele>46.8</ele>
        <time>2023-04-28T11:17:24Z</time>
      </trkpt>
      <trkpt lat="49.21914" lon="-0.33987">
        <ele>47</ele>
        <time>2023-04-28T11:17:25Z</time>
      </trkpt>
      <trkpt lat="49.21909" lon="-0.33991">
        <ele>47.2</ele>
        <time>2023-04-28T11:17:26Z</time>
      </trkpt>
      <trkpt lat="49.21903" lon="-0.33994">
        <ele>47.6</ele>
        <time>2023-04-28T11:17:27Z</time>
      </trkpt>
      <trkpt lat="49.21899" lon="-0.33998">
        <ele>48</ele>
        <time>2023-04-28T11:17:28Z</time>
      </trkpt>
      <trkpt lat="49.21894" lon="-0.34002">
        <ele>48</ele>
        <time>2023-04-28T11:17:29Z</time>
      </trkpt>
      <trkpt lat="49.21889" lon="-0.34005">
        <ele>48.4</ele>
        <time>2023-04-28T11:17:30Z</time>
      </trkpt>
      <trkpt lat="49.21884" lon="-0.34009">
        <ele>48.8</ele>
        <time>2023-04-28T11:17:31Z</time>
      </trkpt>
      <trkpt lat="49.2188" lon="-0.34012">
        <ele>49</ele>
        <time>2023-04-28T11:17:32Z</time>
      </trkpt>
      <trkpt lat="49.21875" lon="-0.34016">
        <ele>49.2</ele>
        <time>2023-04-28T11:17:33Z</time>
      </trkpt>
      <trkpt lat="49.21871" lon="-0.34019">
        <ele>49.6</ele>
        <time>2023-04-28T11:17:34Z</time>
      </trkpt>
      <trkpt lat="49.21866" lon="-0.34022">
        <ele>49.8</ele>
        <time>2023-04-28T11:17:35Z</time>
      </trkpt>
      <trkpt lat="49.21862" lon="-0.34026">
        <ele>50</ele>
        <time>2023-04-28T11:17:36Z</time>
      </trkpt>
      <trkpt lat="49.21857" lon="-0.3403">
        <ele>50.2</ele>
        <time>2023-04-28T11:17:37Z</time>
      </trkpt>
      <trkpt lat="49.21852" lon="-0.34034">
        <ele>50.6</ele>
        <time>2023-04-28T11:17:38Z</time>
      </trkpt>
      <trkpt lat="49.21847" lon="-0.34037">
        <ele>51</ele>
        <time>2023-04-28T11:17:39Z</time>
      </trkpt>
      <trkpt lat="49.21842" lon="-0.34041">
        <ele>51</ele>
        <time>2023-04-28T11:17:40Z</time>
      </trkpt>
      <trkpt lat="49.21838" lon="-0.34045">
        <ele>51.4</ele>
        <time>2023-04-28T11:17:41Z</time>
      </trkpt>
      <trkpt lat="49.21833" lon="-0.34049">
        <ele>51.6</ele>
        <time>2023-04-28T11:17:42Z</time>
      </trkpt>
      <trkpt lat="49.21828" lon="-0.34052">
        <ele>51.8</ele>
        <time>2023-04-28T11:17:43Z</time>
      </trkpt>
      <trkpt lat="49.21823" lon="-0.34056">
        <ele>52</ele>
        <time>2023-04-28T11:17:44Z</time>
      </trkpt>
      <trkpt lat="49.21818" lon="-0.3406">
        <ele>52</ele>
        <time>2023-04-28T11:17:45Z</time>
      </trkpt>
      <trkpt lat="49.21813" lon="-0.34063">
        <ele>52.2</ele>
        <time>2023-04-28T11:17:46Z</time>
      </trkpt>
      <trkpt lat="49.21808" lon="-0.34067">
        <ele>52.2</ele>
        <time>2023-04-28T11:17:47Z</time>
      </trkpt>
      <trkpt lat="49.21803" lon="-0.3407">
        <ele>52.4</ele>
        <time>2023-04-28T11:17:48Z</time>
      </trkpt>
      <trkpt lat="49.21798" lon="-0.34073">
        <ele>52.4</ele>
        <time>2023-04-28T11:17:49Z</time>
      </trkpt>
      <trkpt lat="49.21794" lon="-0.34076">
        <ele>52.6</ele>
        <time>2023-04-28T11:17:50Z</time>
      </trkpt>
      <trkpt lat="49.21789" lon="-0.34078">
        <ele>52.6</ele>
        <time>2023-04-28T11:17:51Z</time>
      </trkpt>
      <trkpt lat="49.21784" lon="-0.34081">
        <ele>52.6</ele>
        <time>2023-04-28T11:17:52Z</time>
      </trkpt>
      <trkpt lat="49.21779" lon="-0.34083">
        <ele>52.8</ele>
        <time>2023-04-28T11:17:53Z</time>
      </trkpt>
      <trkpt lat="49.21774" lon="-0.34085">
        <ele>52.8</ele>
        <time>2023-04-28T11:17:54Z</time>
      </trkpt>
      <trkpt lat="49.21769" lon="-0.34086">
        <ele>52.8</ele>
        <time>2023-04-28T11:17:55Z</time>
      </trkpt>
      <trkpt lat="49.21764" lon="-0.34088">
        <ele>53</ele>
        <time>2023-04-28T11:17:56Z</time>
      </trkpt>
      <trkpt lat="49.21759" lon="-0.34089">
        <ele>53</ele>
        <time>2023-04-28T11:17:57Z</time>
      </trkpt>
      <trkpt lat="49.21754" lon="-0.3409">
        <ele>53</ele>
        <time>2023-04-28T11:17:58Z</time>
      </trkpt>
      <trkpt lat="49.21749" lon="-0.34091">
        <ele>53.2</ele>
        <time>2023-04-28T11:17:59Z</time>
      </trkpt>
      <trkpt lat="49.21743" lon="-0.34091">
        <ele>53.4</ele>
        <time>2023-04-28T11:18:00Z</time>
      </trkpt>
      <trkpt lat="49.21738" lon="-0.34092">
        <ele>53.8</ele>
        <time>2023-04-28T11:18:01Z</time>
      </trkpt>
      <trkpt lat="49.21733" lon="-0.34092">
        <ele>54</ele>
        <time>2023-04-28T11:18:02Z</time>
      </trkpt>
      <trkpt lat="49.21728" lon="-0.34091">
        <ele>54.2</ele>
        <time>2023-04-28T11:18:03Z</time>
      </trkpt>
      <trkpt lat="49.21723" lon="-0.34091">
        <ele>54.4</ele>
        <time>2023-04-28T11:18:04Z</time>
      </trkpt>
      <trkpt lat="49.21718" lon="-0.3409">
        <ele>54.6</ele>
        <time>2023-04-28T11:18:05Z</time>
      </trkpt>
      <trkpt lat="49.21713" lon="-0.34089">
        <ele>55</ele>
        <time>2023-04-28T11:18:06Z</time>
      </trkpt>
      <trkpt lat="49.21708" lon="-0.34088">
        <ele>55</ele>
        <time>2023-04-28T11:18:07Z</time>
      </trkpt>
      <trkpt lat="49.21704" lon="-0.34087">
        <ele>55.2</ele>
        <time>2023-04-28T11:18:08Z</time>
      </trkpt>
      <trkpt lat="49.21699" lon="-0.34085">
        <ele>55.6</ele>
        <time>2023-04-28T11:18:09Z</time>
      </trkpt>
      <trkpt lat="49.21694" lon="-0.34083">
        <ele>55.8</ele>
        <time>2023-04-28T11:18:10Z</time>
      </trkpt>
      <trkpt lat="49.21689" lon="-0.34081">
        <ele>56</ele>
        <time>2023-04-28T11:18:11Z</time>
      </trkpt>
      <trkpt lat="49.21685" lon="-0.34079">
        <ele>56.2</ele>
        <time>2023-04-28T11:18:12Z</time>
      </trkpt>
      <trkpt lat="49.2168" lon="-0.34077">
        <ele>56.4</ele>
        <time>2023-04-28T11:18:13Z</time>
      </trkpt>
      <trkpt lat="49.21676" lon="-0.34075">
        <ele>56.8</ele>
        <time>2023-04-28T11:18:14Z</time>
      </trkpt>
      <trkpt lat="49.21671" lon="-0.34072">
        <ele>57</ele>
        <time>2023-04-28T11:18:15Z</time>
      </trkpt>
      <trkpt lat="49.21667" lon="-0.3407">
        <ele>57.2</ele>
        <time>2023-04-28T11:18:16Z</time>
      </trkpt>
      <trkpt lat="49.21662" lon="-0.34068">
        <ele>57.4</ele>
        <time>2023-04-28T11:18:17Z</time>
      </trkpt>
      <trkpt lat="49.21658" lon="-0.34065">
        <ele>57.8</ele>
        <time>2023-04-28T11:18:18Z</time>
      </trkpt>
      <trkpt lat="49.21653" lon="-0.34063">
        <ele>58</ele>
        <time>2023-04-28T11:18:19Z</time>
      </trkpt>
      <trkpt lat="49.21649" lon="-0.34061">
        <ele>58.2</ele>
        <time>2023-04-28T11:18:20Z</time>
      </trkpt>
      <trkpt lat="49.21645" lon="-0.34058">
        <ele>58.6</ele>
        <time>2023-04-28T11:18:21Z</time>
      </trkpt>
      <trkpt lat="49.2164" lon="-0.34056">
        <ele>58.8</ele>
        <time>2023-04-28T11:18:22Z</time>
      </trkpt>
      <trkpt lat="49.21636" lon="-0.34054">
        <ele>59</ele>
        <time>2023-04-28T11:18:23Z</time>
      </trkpt>
      <trkpt lat="49.21632" lon="-0.34051">
        <ele>59.4</ele>
        <time>2023-04-28T11:18:24Z</time>
      </trkpt>
      <trkpt lat="49.21628" lon="-0.34049">
        <ele>59.8</ele>
        <time>2023-04-28T11:18:25Z</time>
      </trkpt>
      <trkpt lat="49.21624" lon="-0.34046">
        <ele>60</ele>
        <time>2023-04-28T11:18:26Z</time>
      </trkpt>
      <trkpt lat="49.2162" lon="-0.34043">
        <ele>60.2</ele>
        <time>2023-04-28T11:18:27Z</time>
      </trkpt>
      <trkpt lat="49.21616" lon="-0.3404">
        <ele>60.6</ele>
        <time>2023-04-28T11:18:28Z</time>
      </trkpt>
      <trkpt lat="49.21612" lon="-0.34037">
        <ele>61</ele>
        <time>2023-04-28T11:18:29Z</time>
      </trkpt>
      <trkpt lat="49.21608" lon="-0.34033">
        <ele>61.2</ele>
        <time>2023-04-28T11:18:30Z</time>
      </trkpt>
      <trkpt lat="49.21604" lon="-0.34029">
        <ele>61.6</ele>
        <time>2023-04-28T11:18:31Z</time>
      </trkpt>
      <trkpt lat="49.21601" lon="-0.34025">
        <ele>62</ele>
        <time>2023-04-28T11:18:32Z</time>
      </trkpt>
      <trkpt lat="49.21598" lon="-0.34021">
        <ele>62.2</ele>
        <time>2023-04-28T11:18:33Z</time>
      </trkpt>
      <trkpt lat="49.21595" lon="-0.34016">
        <ele>62.8</ele>
        <time>2023-04-28T11:18:34Z</time>
      </trkpt>
      <trkpt lat="49.21592" lon="-0.34012">
        <ele>63</ele>
        <time>2023-04-28T11:18:35Z</time>
      </trkpt>
      <trkpt lat="49.21589" lon="-0.34007">
        <ele>63.2</ele>
        <time>2023-04-28T11:18:36Z</time>
      </trkpt>
      <trkpt lat="49.21587" lon="-0.34002">
        <ele>63.8</ele>
        <time>2023-04-28T11:18:37Z</time>
      </trkpt>
      <trkpt lat="49.21585" lon="-0.33998">
        <ele>64</ele>
        <time>2023-04-28T11:18:38Z</time>
      </trkpt>
      <trkpt lat="49.21583" lon="-0.33993">
        <ele>64</ele>
        <time>2023-04-28T11:18:39Z</time>
      </trkpt>
      <trkpt lat="49.21582" lon="-0.33989">
        <ele>64</ele>
        <time>2023-04-28T11:18:40Z</time>
      </trkpt>
      <trkpt lat="49.2158" lon="-0.33985">
        <ele>64.2</ele>
        <time>2023-04-28T11:18:41Z</time>
      </trkpt>
      <trkpt lat="49.21579" lon="-0.33982">
        <ele>64.4</ele>
        <time>2023-04-28T11:18:42Z</time>
      </trkpt>
      <trkpt lat="49.21578" lon="-0.3398">
        <ele>64.4</ele>
        <time>2023-04-28T11:18:43Z</time>
      </trkpt>
      <trkpt lat="49.21578" lon="-0.33978">
        <ele>64.4</ele>
        <time>2023-04-28T11:18:44Z</time>
      </trkpt>
      <trkpt lat="49.21578" lon="-0.33977">
        <ele>64.4</ele>
        <time>2023-04-28T11:18:45Z</time>
      </trkpt>
      <trkpt lat="49.21577" lon="-0.33977">
        <ele>64.4</ele>
        <time>2023-04-28T11:18:46Z</time>
      </trkpt>
      <trkpt lat="49.21577" lon="-0.33977">
        <ele>64.4</ele>
        <time>2023-04-28T11:18:47Z</time>
      </trkpt>
      <trkpt lat="49.21577" lon="-0.33977">
        <ele>64.4</ele>
        <time>2023-04-28T11:18:48Z</time>
      </trkpt>
      <trkpt lat="49.21577" lon="-0.33977">
        <ele>64.4</ele>
        <time>2023-04-28T11:18:49Z</time>
      </trkpt>
      <trkpt lat="49.21577" lon="-0.33977">
        <ele>64.6</ele>
        <time>2023-04-28T11:18:50Z</time>
      </trkpt>
      <trkpt lat="49.21577" lon="-0.33977">
        <ele>64.6</ele>
        <time>2023-04-28T11:18:51Z</time>
      </trkpt>
      <trkpt lat="49.21577" lon="-0.33977">
        <ele>64.6</ele>
        <time>2023-04-28T11:18:52Z</time>
      </trkpt>
      <trkpt lat="49.21577" lon="-0.33977">
        <ele>64.6</ele>
        <time>2023-04-28T11:18:53Z</time>
      </trkpt>
      <trkpt lat="49.21577" lon="-0.33977">
        <ele>64.6</ele>
        <time>2023-04-28T11:18:54Z</time>
      </trkpt>
      <trkpt lat="49.21577" lon="-0.33976">
        <ele>64.6</ele>
        <time>2023-04-28T11:18:55Z</time>
      </trkpt>
      <trkpt lat="49.21576" lon="-0.33976">
        <ele>64.6</ele>
        <time>2023-04-28T11:18:56Z</time>
      </trkpt>
      <trkpt lat="49.21576" lon="-0.33974">
        <ele>64.6</ele>
        <time>2023-04-28T11:18:57Z</time>
      </trkpt>
      <trkpt lat="49.21575" lon="-0.33972">
        <ele>64.6</ele>
        <time>2023-04-28T11:18:58Z</time>
      </trkpt>
      <trkpt lat="49.21574" lon="-0.33969">
        <ele>64.6</ele>
        <time>2023-04-28T11:18:59Z</time>
      </trkpt>
      <trkpt lat="49.21573" lon="-0.33965">
        <ele>64.6</ele>
        <time>2023-04-28T11:19:00Z</time>
      </trkpt>
      <trkpt lat="49.21572" lon="-0.33959">
        <ele>64.8</ele>
        <time>2023-04-28T11:19:01Z</time>
      </trkpt>
      <trkpt lat="49.21571" lon="-0.33953">
        <ele>64.8</ele>
        <time>2023-04-28T11:19:02Z</time>
      </trkpt>
      <trkpt lat="49.21569" lon="-0.33946">
        <ele>65</ele>
        <time>2023-04-28T11:19:03Z</time>
      </trkpt>
      <trkpt lat="49.21568" lon="-0.33938">
        <ele>65</ele>
        <time>2023-04-28T11:19:04Z</time>
      </trkpt>
      <trkpt lat="49.21566" lon="-0.33929">
        <ele>65</ele>
        <time>2023-04-28T11:19:05Z</time>
      </trkpt>
      <trkpt lat="49.21565" lon="-0.33921">
        <ele>65</ele>
        <time>2023-04-28T11:19:06Z</time>
      </trkpt>
      <trkpt lat="49.21564" lon="-0.33912">
        <ele>64.8</ele>
        <time>2023-04-28T11:19:07Z</time>
      </trkpt>
      <trkpt lat="49.21563" lon="-0.33904">
        <ele>64.6</ele>
        <time>2023-04-28T11:19:08Z</time>
      </trkpt>
      <trkpt lat="49.21562" lon="-0.33895">
        <ele>64.4</ele>
        <time>2023-04-28T11:19:09Z</time>
      </trkpt>
      <trkpt lat="49.2156" lon="-0.33887">
        <ele>64</ele>
        <time>2023-04-28T11:19:10Z</time>
      </trkpt>
      <trkpt lat="49.21559" lon="-0.33878">
        <ele>64</ele>
        <time>2023-04-28T11:19:11Z</time>
      </trkpt>
      <trkpt lat="49.21558" lon="-0.33869">
        <ele>63.8</ele>
        <time>2023-04-28T11:19:12Z</time>
      </trkpt>
      <trkpt lat="49.21556" lon="-0.3386">
        <ele>63.6</ele>
        <time>2023-04-28T11:19:13Z</time>
      </trkpt>
      <trkpt lat="49.21555" lon="-0.33851">
        <ele>63.2</ele>
        <time>2023-04-28T11:19:14Z</time>
      </trkpt>
      <trkpt lat="49.21554" lon="-0.33842">
        <ele>63</ele>
        <time>2023-04-28T11:19:15Z</time>
      </trkpt>
      <trkpt lat="49.21552" lon="-0.33832">
        <ele>63</ele>
        <time>2023-04-28T11:19:16Z</time>
      </trkpt>
      <trkpt lat="49.21551" lon="-0.33823">
        <ele>63</ele>
        <time>2023-04-28T11:19:17Z</time>
      </trkpt>
      <trkpt lat="49.2155" lon="-0.33813">
        <ele>63.4</ele>
        <time>2023-04-28T11:19:18Z</time>
      </trkpt>
      <trkpt lat="49.21549" lon="-0.33803">
        <ele>63.6</ele>
        <time>2023-04-28T11:19:19Z</time>
      </trkpt>
      <trkpt lat="49.21547" lon="-0.33793">
        <ele>64</ele>
        <time>2023-04-28T11:19:20Z</time>
      </trkpt>
      <trkpt lat="49.21546" lon="-0.33782">
        <ele>64</ele>
        <time>2023-04-28T11:19:21Z</time>
      </trkpt>
      <trkpt lat="49.21545" lon="-0.33772">
        <ele>64.4</ele>
        <time>2023-04-28T11:19:22Z</time>
      </trkpt>
      <trkpt lat="49.21543" lon="-0.33762">
        <ele>64.6</ele>
        <time>2023-04-28T11:19:23Z</time>
      </trkpt>
      <trkpt lat="49.21542" lon="-0.33751">
        <ele>65</ele>
        <time>2023-04-28T11:19:24Z</time>
      </trkpt>
      <trkpt lat="49.2154" lon="-0.33741">
        <ele>65</ele>
        <time>2023-04-28T11:19:25Z</time>
      </trkpt>
      <trkpt lat="49.21539" lon="-0.3373">
        <ele>64.8</ele>
        <time>2023-04-28T11:19:26Z</time>
      </trkpt>
      <trkpt lat="49.21538" lon="-0.33719">
        <ele>64.8</ele>
        <time>2023-04-28T11:19:27Z</time>
      </trkpt>
      <trkpt lat="49.21536" lon="-0.33708">
        <ele>64.6</ele>
        <time>2023-04-28T11:19:28Z</time>
      </trkpt>
      <trkpt lat="49.21535" lon="-0.33697">
        <ele>64.6</ele>
        <time>2023-04-28T11:19:29Z</time>
      </trkpt>
      <trkpt lat="49.21533" lon="-0.33686">
        <ele>64.6</ele>
        <time>2023-04-28T11:19:30Z</time>
      </trkpt>
      <trkpt lat="49.21532" lon="-0.33675">
        <ele>64.4</ele>
        <time>2023-04-28T11:19:31Z</time>
      </trkpt>
      <trkpt lat="49.21531" lon="-0.33664">
        <ele>64.4</ele>
        <time>2023-04-28T11:19:32Z</time>
      </trkpt>
      <trkpt lat="49.21529" lon="-0.33653">
        <ele>64.4</ele>
        <time>2023-04-28T11:19:33Z</time>
      </trkpt>
      <trkpt lat="49.21528" lon="-0.33641">
        <ele>64.2</ele>
        <time>2023-04-28T11:19:34Z</time>
      </trkpt>
      <trkpt lat="49.21526" lon="-0.3363">
        <ele>64</ele>
        <time>2023-04-28T11:19:35Z</time>
      </trkpt>
      <trkpt lat="49.21525" lon="-0.33619">
        <ele>64</ele>
        <time>2023-04-28T11:19:36Z</time>
      </trkpt>
      <trkpt lat="49.21523" lon="-0.33608">
        <ele>63.8</ele>
        <time>2023-04-28T11:19:37Z</time>
      </trkpt>
      <trkpt lat="49.21522" lon="-0.33597">
        <ele>63.8</ele>
        <time>2023-04-28T11:19:38Z</time>
      </trkpt>
      <trkpt lat="49.2152" lon="-0.33585">
        <ele>63.6</ele>
        <time>2023-04-28T11:19:39Z</time>
      </trkpt>
      <trkpt lat="49.21519" lon="-0.33574">
        <ele>63.6</ele>
        <time>2023-04-28T11:19:40Z</time>
      </trkpt>
      <trkpt lat="49.21517" lon="-0.33563">
        <ele>63.2</ele>
        <time>2023-04-28T11:19:41Z</time>
      </trkpt>
      <trkpt lat="49.21516" lon="-0.33551">
        <ele>63.2</ele>
        <time>2023-04-28T11:19:42Z</time>
      </trkpt>
      <trkpt lat="49.21514" lon="-0.3354">
        <ele>63</ele>
        <time>2023-04-28T11:19:43Z</time>
      </trkpt>
      <trkpt lat="49.21513" lon="-0.33528">
        <ele>63</ele>
        <time>2023-04-28T11:19:44Z</time>
      </trkpt>
      <trkpt lat="49.21511" lon="-0.33517">
        <ele>62.8</ele>
        <time>2023-04-28T11:19:45Z</time>
      </trkpt>
      <trkpt lat="49.21509" lon="-0.33505">
        <ele>62.6</ele>
        <time>2023-04-28T11:19:46Z</time>
      </trkpt>
      <trkpt lat="49.21508" lon="-0.33494">
        <ele>62.2</ele>
        <time>2023-04-28T11:19:47Z</time>
      </trkpt>
      <trkpt lat="49.21506" lon="-0.33482">
        <ele>62</ele>
        <time>2023-04-28T11:19:48Z</time>
      </trkpt>
      <trkpt lat="49.21505" lon="-0.3347">
        <ele>61.8</ele>
        <time>2023-04-28T11:19:49Z</time>
      </trkpt>
      <trkpt lat="49.21503" lon="-0.33458">
        <ele>61.4</ele>
        <time>2023-04-28T11:19:50Z</time>
      </trkpt>
      <trkpt lat="49.21501" lon="-0.33447">
        <ele>61</ele>
        <time>2023-04-28T11:19:51Z</time>
      </trkpt>
      <trkpt lat="49.215" lon="-0.33435">
        <ele>60.8</ele>
        <time>2023-04-28T11:19:52Z</time>
      </trkpt>
      <trkpt lat="49.21498" lon="-0.33423">
        <ele>60.4</ele>
        <time>2023-04-28T11:19:53Z</time>
      </trkpt>
      <trkpt lat="49.21496" lon="-0.33411">
        <ele>60.4</ele>
        <time>2023-04-28T11:19:54Z</time>
      </trkpt>
      <trkpt lat="49.21495" lon="-0.334">
        <ele>60.6</ele>
        <time>2023-04-28T11:19:55Z</time>
      </trkpt>
      <trkpt lat="49.21493" lon="-0.33388">
        <ele>61</ele>
        <time>2023-04-28T11:19:56Z</time>
      </trkpt>
      <trkpt lat="49.21492" lon="-0.33376">
        <ele>61</ele>
        <time>2023-04-28T11:19:57Z</time>
      </trkpt>
      <trkpt lat="49.2149" lon="-0.33364">
        <ele>61.4</ele>
        <time>2023-04-28T11:19:58Z</time>
      </trkpt>
      <trkpt lat="49.21489" lon="-0.33352">
        <ele>61.6</ele>
        <time>2023-04-28T11:19:59Z</time>
      </trkpt>
      <trkpt lat="49.21487" lon="-0.33341">
        <ele>61.8</ele>
        <time>2023-04-28T11:20:00Z</time>
      </trkpt>
      <trkpt lat="49.21486" lon="-0.33329">
        <ele>61.8</ele>
        <time>2023-04-28T11:20:01Z</time>
      </trkpt>
      <trkpt lat="49.21484" lon="-0.33317">
        <ele>61.6</ele>
        <time>2023-04-28T11:20:02Z</time>
      </trkpt>
      <trkpt lat="49.21483" lon="-0.33306">
        <ele>61</ele>
        <time>2023-04-28T11:20:03Z</time>
      </trkpt>
      <trkpt lat="49.21481" lon="-0.33294">
        <ele>60.8</ele>
        <time>2023-04-28T11:20:04Z</time>
      </trkpt>
      <trkpt lat="49.2148" lon="-0.33282">
        <ele>60.2</ele>
        <time>2023-04-28T11:20:05Z</time>
      </trkpt>
      <trkpt lat="49.21478" lon="-0.3327">
        <ele>60</ele>
        <time>2023-04-28T11:20:06Z</time>
      </trkpt>
      <trkpt lat="49.21476" lon="-0.33259">
        <ele>59.6</ele>
        <time>2023-04-28T11:20:07Z</time>
      </trkpt>
      <trkpt lat="49.21475" lon="-0.33247">
        <ele>59</ele>
        <time>2023-04-28T11:20:08Z</time>
      </trkpt>
      <trkpt lat="49.21473" lon="-0.33235">
        <ele>58.8</ele>
        <time>2023-04-28T11:20:09Z</time>
      </trkpt>
      <trkpt lat="49.21472" lon="-0.33223">
        <ele>58.6</ele>
        <time>2023-04-28T11:20:10Z</time>
      </trkpt>
      <trkpt lat="49.2147" lon="-0.3321">
        <ele>58</ele>
        <time>2023-04-28T11:20:11Z</time>
      </trkpt>
      <trkpt lat="49.21469" lon="-0.33198">
        <ele>57.8</ele>
        <time>2023-04-28T11:20:12Z</time>
      </trkpt>
      <trkpt lat="49.21467" lon="-0.33186">
        <ele>57.4</ele>
        <time>2023-04-28T11:20:13Z</time>
      </trkpt>
      <trkpt lat="49.21465" lon="-0.33173">
        <ele>57</ele>
        <time>2023-04-28T11:20:14Z</time>
      </trkpt>
      <trkpt lat="49.21463" lon="-0.33161">
        <ele>57</ele>
        <time>2023-04-28T11:20:15Z</time>
      </trkpt>
      <trkpt lat="49.2146" lon="-0.33148">
        <ele>57</ele>
        <time>2023-04-28T11:20:16Z</time>
      </trkpt>
      <trkpt lat="49.21458" lon="-0.33135">
        <ele>57</ele>
        <time>2023-04-28T11:20:17Z</time>
      </trkpt>
      <trkpt lat="49.21455" lon="-0.33123">
        <ele>57</ele>
        <time>2023-04-28T11:20:18Z</time>
      </trkpt>
      <trkpt lat="49.21452" lon="-0.3311">
        <ele>57.2</ele>
        <time>2023-04-28T11:20:19Z</time>
      </trkpt>
      <trkpt lat="49.21449" lon="-0.33097">
        <ele>57.2</ele>
        <time>2023-04-28T11:20:20Z</time>
      </trkpt>
      <trkpt lat="49.21445" lon="-0.33085">
        <ele>57.2</ele>
        <time>2023-04-28T11:20:21Z</time>
      </trkpt>
      <trkpt lat="49.21441" lon="-0.33072">
        <ele>57</ele>
        <time>2023-04-28T11:20:22Z</time>
      </trkpt>
      <trkpt lat="49.21438" lon="-0.33059">
        <ele>56.8</ele>
        <time>2023-04-28T11:20:23Z</time>
      </trkpt>
      <trkpt lat="49.21434" lon="-0.33047">
        <ele>56.6</ele>
        <time>2023-04-28T11:20:24Z</time>
      </trkpt>
      <trkpt lat="49.21429" lon="-0.33034">
        <ele>56</ele>
        <time>2023-04-28T11:20:25Z</time>
      </trkpt>
      <trkpt lat="49.21425" lon="-0.33022">
        <ele>55.8</ele>
        <time>2023-04-28T11:20:26Z</time>
      </trkpt>
      <trkpt lat="49.2142" lon="-0.3301">
        <ele>55.2</ele>
        <time>2023-04-28T11:20:27Z</time>
      </trkpt>
      <trkpt lat="49.21416" lon="-0.32997">
        <ele>55</ele>
        <time>2023-04-28T11:20:28Z</time>
      </trkpt>
      <trkpt lat="49.21411" lon="-0.32985">
        <ele>54.4</ele>
        <time>2023-04-28T11:20:29Z</time>
      </trkpt>
      <trkpt lat="49.21406" lon="-0.32972">
        <ele>54</ele>
        <time>2023-04-28T11:20:30Z</time>
      </trkpt>
      <trkpt lat="49.21401" lon="-0.32959">
        <ele>53.2</ele>
        <time>2023-04-28T11:20:31Z</time>
      </trkpt>
      <trkpt lat="49.21396" lon="-0.32947">
        <ele>52.8</ele>
        <time>2023-04-28T11:20:32Z</time>
      </trkpt>
      <trkpt lat="49.21391" lon="-0.32934">
        <ele>52.2</ele>
        <time>2023-04-28T11:20:33Z</time>
      </trkpt>
      <trkpt lat="49.21385" lon="-0.32921">
        <ele>51.8</ele>
        <time>2023-04-28T11:20:34Z</time>
      </trkpt>
      <trkpt lat="49.2138" lon="-0.32909">
        <ele>51.4</ele>
        <time>2023-04-28T11:20:35Z</time>
      </trkpt>
      <trkpt lat="49.21374" lon="-0.32896">
        <ele>51</ele>
        <time>2023-04-28T11:20:36Z</time>
      </trkpt>
      <trkpt lat="49.21368" lon="-0.32884">
        <ele>50.6</ele>
        <time>2023-04-28T11:20:37Z</time>
      </trkpt>
      <trkpt lat="49.21362" lon="-0.32872">
        <ele>50.2</ele>
        <time>2023-04-28T11:20:38Z</time>
      </trkpt>
      <trkpt lat="49.21356" lon="-0.3286">
        <ele>50</ele>
        <time>2023-04-28T11:20:39Z</time>
      </trkpt>
      <trkpt lat="49.21349" lon="-0.32849">
        <ele>49.6</ele>
        <time>2023-04-28T11:20:40Z</time>
      </trkpt>
      <trkpt lat="49.21342" lon="-0.32837">
        <ele>49.2</ele>
        <time>2023-04-28T11:20:41Z</time>
      </trkpt>
      <trkpt lat="49.21335" lon="-0.32826">
        <ele>49</ele>
        <time>2023-04-28T11:20:42Z</time>
      </trkpt>
      <trkpt lat="49.21328" lon="-0.32816">
        <ele>48.4</ele>
        <time>2023-04-28T11:20:43Z</time>
      </trkpt>
      <trkpt lat="49.2132" lon="-0.32805">
        <ele>48</ele>
        <time>2023-04-28T11:20:44Z</time>
      </trkpt>
      <trkpt lat="49.21313" lon="-0.32794">
        <ele>47.4</ele>
        <time>2023-04-28T11:20:45Z</time>
      </trkpt>
      <trkpt lat="49.21305" lon="-0.32784">
        <ele>47</ele>
        <time>2023-04-28T11:20:46Z</time>
      </trkpt>
      <trkpt lat="49.21297" lon="-0.32774">
        <ele>46.6</ele>
        <time>2023-04-28T11:20:47Z</time>
      </trkpt>
      <trkpt lat="49.21289" lon="-0.32765">
        <ele>46.2</ele>
        <time>2023-04-28T11:20:48Z</time>
      </trkpt>
      <trkpt lat="49.2128" lon="-0.32755">
        <ele>45.8</ele>
        <time>2023-04-28T11:20:49Z</time>
      </trkpt>
      <trkpt lat="49.21272" lon="-0.32746">
        <ele>45.2</ele>
        <time>2023-04-28T11:20:50Z</time>
      </trkpt>
      <trkpt lat="49.21263" lon="-0.32736">
        <ele>44.8</ele>
        <time>2023-04-28T11:20:51Z</time>
      </trkpt>
      <trkpt lat="49.21254" lon="-0.32727">
        <ele>44</ele>
        <time>2023-04-28T11:20:52Z</time>
      </trkpt>
      <trkpt lat="49.21245" lon="-0.32718">
        <ele>43.6</ele>
        <time>2023-04-28T11:20:53Z</time>
      </trkpt>
      <trkpt lat="49.21235" lon="-0.3271">
        <ele>43</ele>
        <time>2023-04-28T11:20:54Z</time>
      </trkpt>
      <trkpt lat="49.21226" lon="-0.32701">
        <ele>42.8</ele>
        <time>2023-04-28T11:20:55Z</time>
      </trkpt>
      <trkpt lat="49.21216" lon="-0.32692">
        <ele>42.4</ele>
        <time>2023-04-28T11:20:56Z</time>
      </trkpt>
      <trkpt lat="49.21206" lon="-0.32684">
        <ele>42</ele>
        <time>2023-04-28T11:20:57Z</time>
      </trkpt>
      <trkpt lat="49.21196" lon="-0.32675">
        <ele>42</ele>
        <time>2023-04-28T11:20:58Z</time>
      </trkpt>
      <trkpt lat="49.21186" lon="-0.32666">
        <ele>41.8</ele>
        <time>2023-04-28T11:20:59Z</time>
      </trkpt>
      <trkpt lat="49.21176" lon="-0.32656">
        <ele>41.6</ele>
        <time>2023-04-28T11:21:00Z</time>
      </trkpt>
      <trkpt lat="49.21166" lon="-0.32647">
        <ele>41.2</ele>
        <time>2023-04-28T11:21:01Z</time>
      </trkpt>
      <trkpt lat="49.21156" lon="-0.32638">
        <ele>41</ele>
        <time>2023-04-28T11:21:02Z</time>
      </trkpt>
      <trkpt lat="49.21146" lon="-0.32629">
        <ele>40.4</ele>
        <time>2023-04-28T11:21:03Z</time>
      </trkpt>
      <trkpt lat="49.21136" lon="-0.3262">
        <ele>40</ele>
        <time>2023-04-28T11:21:04Z</time>
      </trkpt>
      <trkpt lat="49.21125" lon="-0.3261">
        <ele>39.6</ele>
        <time>2023-04-28T11:21:05Z</time>
      </trkpt>
      <trkpt lat="49.21115" lon="-0.326">
        <ele>39</ele>
        <time>2023-04-28T11:21:06Z</time>
      </trkpt>
      <trkpt lat="49.21105" lon="-0.3259">
        <ele>38.6</ele>
        <time>2023-04-28T11:21:07Z</time>
      </trkpt>
      <trkpt lat="49.21094" lon="-0.32579">
        <ele>38</ele>
        <time>2023-04-28T11:21:08Z</time>
      </trkpt>
      <trkpt lat="49.21084" lon="-0.32568">
        <ele>37.6</ele>
        <time>2023-04-28T11:21:09Z</time>
      </trkpt>
      <trkpt lat="49.21075" lon="-0.32556">
        <ele>37</ele>
        <time>2023-04-28T11:21:10Z</time>
      </trkpt>
      <trkpt lat="49.21065" lon="-0.32543">
        <ele>36.8</ele>
        <time>2023-04-28T11:21:11Z</time>
      </trkpt>
      <trkpt lat="49.21056" lon="-0.32529">
        <ele>36.2</ele>
        <time>2023-04-28T11:21:12Z</time>
      </trkpt>
      <trkpt lat="49.21048" lon="-0.32515">
        <ele>35.6</ele>
        <time>2023-04-28T11:21:13Z</time>
      </trkpt>
      <trkpt lat="49.2104" lon="-0.32499">
        <ele>35</ele>
        <time>2023-04-28T11:21:14Z</time>
      </trkpt>
      <trkpt lat="49.21032" lon="-0.32482">
        <ele>34</ele>
        <time>2023-04-28T11:21:15Z</time>
      </trkpt>
      <trkpt lat="49.21024" lon="-0.32465">
        <ele>33.2</ele>
        <time>2023-04-28T11:21:16Z</time>
      </trkpt>
      <trkpt lat="49.21017" lon="-0.32448">
        <ele>32</ele>
        <time>2023-04-28T11:21:17Z</time>
      </trkpt>
      <trkpt lat="49.2101" lon="-0.32429">
        <ele>31</ele>
        <time>2023-04-28T11:21:18Z</time>
      </trkpt>
      <trkpt lat="49.21003" lon="-0.3241">
        <ele>29.8</ele>
        <time>2023-04-28T11:21:19Z</time>
      </trkpt>
      <trkpt lat="49.20998" lon="-0.3239">
        <ele>28.8</ele>
        <time>2023-04-28T11:21:20Z</time>
      </trkpt>
      <trkpt lat="49.20993" lon="-0.3237">
        <ele>27.8</ele>
        <time>2023-04-28T11:21:21Z</time>
      </trkpt>
      <trkpt lat="49.20989" lon="-0.32349">
        <ele>26.8</ele>
        <time>2023-04-28T11:21:22Z</time>
      </trkpt>
      <trkpt lat="49.20986" lon="-0.32327">
        <ele>25.8</ele>
        <time>2023-04-28T11:21:23Z</time>
      </trkpt>
      <trkpt lat="49.20985" lon="-0.32305">
        <ele>24.8</ele>
        <time>2023-04-28T11:21:24Z</time>
      </trkpt>
      <trkpt lat="49.20984" lon="-0.32282">
        <ele>23.8</ele>
        <time>2023-04-28T11:21:25Z</time>
      </trkpt>
      <trkpt lat="49.20984" lon="-0.3226">
        <ele>22.8</ele>
        <time>2023-04-28T11:21:26Z</time>
      </trkpt>
      <trkpt lat="49.20984" lon="-0.32238">
        <ele>21.8</ele>
        <time>2023-04-28T11:21:27Z</time>
      </trkpt>
      <trkpt lat="49.20984" lon="-0.32217">
        <ele>20.8</ele>
        <time>2023-04-28T11:21:28Z</time>
      </trkpt>
      <trkpt lat="49.20984" lon="-0.32196">
        <ele>19.8</ele>
        <time>2023-04-28T11:21:29Z</time>
      </trkpt>
      <trkpt lat="49.20984" lon="-0.32177">
        <ele>18.8</ele>
        <time>2023-04-28T11:21:30Z</time>
      </trkpt>
      <trkpt lat="49.20983" lon="-0.32159">
        <ele>18.2</ele>
        <time>2023-04-28T11:21:31Z</time>
      </trkpt>
      <trkpt lat="49.20982" lon="-0.32142">
        <ele>18.2</ele>
        <time>2023-04-28T11:21:32Z</time>
      </trkpt>
      <trkpt lat="49.20981" lon="-0.32127">
        <ele>18</ele>
        <time>2023-04-28T11:21:33Z</time>
      </trkpt>
      <trkpt lat="49.2098" lon="-0.32112">
        <ele>17.8</ele>
        <time>2023-04-28T11:21:34Z</time>
      </trkpt>
      <trkpt lat="49.20978" lon="-0.32099">
        <ele>17.8</ele>
        <time>2023-04-28T11:21:35Z</time>
      </trkpt>
      <trkpt lat="49.20976" lon="-0.32089">
        <ele>17.8</ele>
        <time>2023-04-28T11:21:36Z</time>
      </trkpt>
      <trkpt lat="49.20973" lon="-0.32083">
        <ele>17.8</ele>
        <time>2023-04-28T11:21:37Z</time>
      </trkpt>
      <trkpt lat="49.20971" lon="-0.3208">
        <ele>17.6</ele>
        <time>2023-04-28T11:21:38Z</time>
      </trkpt>
      <trkpt lat="49.2097" lon="-0.32079">
        <ele>17.6</ele>
        <time>2023-04-28T11:21:39Z</time>
      </trkpt>
      <trkpt lat="49.20969" lon="-0.32078">
        <ele>17.6</ele>
        <time>2023-04-28T11:21:40Z</time>
      </trkpt>
      <trkpt lat="49.20969" lon="-0.32078">
        <ele>17.6</ele>
        <time>2023-04-28T11:21:41Z</time>
      </trkpt>
      <trkpt lat="49.20969" lon="-0.32079">
        <ele>17.6</ele>
        <time>2023-04-28T11:21:42Z</time>
      </trkpt>
      <trkpt lat="49.20969" lon="-0.32079">
        <ele>17.6</ele>
        <time>2023-04-28T11:21:43Z</time>
      </trkpt>
      <trkpt lat="49.20968" lon="-0.32079">
        <ele>17.6</ele>
        <time>2023-04-28T11:21:44Z</time>
      </trkpt>
      <trkpt lat="49.20967" lon="-0.32078">
        <ele>17.6</ele>
        <time>2023-04-28T11:21:45Z</time>
      </trkpt>
      <trkpt lat="49.20965" lon="-0.32075">
        <ele>17.6</ele>
        <time>2023-04-28T11:21:46Z</time>
      </trkpt>
      <trkpt lat="49.20964" lon="-0.32071">
        <ele>17.4</ele>
        <time>2023-04-28T11:21:47Z</time>
      </trkpt>
      <trkpt lat="49.20963" lon="-0.32066">
        <ele>17.4</ele>
        <time>2023-04-28T11:21:48Z</time>
      </trkpt>
      <trkpt lat="49.20963" lon="-0.3206">
        <ele>17.2</ele>
        <time>2023-04-28T11:21:49Z</time>
      </trkpt>
      <trkpt lat="49.20963" lon="-0.32054">
        <ele>17.2</ele>
        <time>2023-04-28T11:21:50Z</time>
      </trkpt>
      <trkpt lat="49.20962" lon="-0.32047">
        <ele>17.2</ele>
        <time>2023-04-28T11:21:51Z</time>
      </trkpt>
      <trkpt lat="49.20961" lon="-0.32041">
        <ele>17</ele>
        <time>2023-04-28T11:21:52Z</time>
      </trkpt>
      <trkpt lat="49.2096" lon="-0.32034">
        <ele>16.8</ele>
        <time>2023-04-28T11:21:53Z</time>
      </trkpt>
      <trkpt lat="49.20959" lon="-0.32027">
        <ele>16.8</ele>
        <time>2023-04-28T11:21:54Z</time>
      </trkpt>
      <trkpt lat="49.20957" lon="-0.3202">
        <ele>16.8</ele>
        <time>2023-04-28T11:21:55Z</time>
      </trkpt>
      <trkpt lat="49.20955" lon="-0.32013">
        <ele>16.6</ele>
        <time>2023-04-28T11:21:56Z</time>
      </trkpt>
      <trkpt lat="49.20953" lon="-0.32006">
        <ele>16.6</ele>
        <time>2023-04-28T11:21:57Z</time>
      </trkpt>
      <trkpt lat="49.20951" lon="-0.31999">
        <ele>16.4</ele>
        <time>2023-04-28T11:21:58Z</time>
      </trkpt>
      <trkpt lat="49.20948" lon="-0.3199">
        <ele>16.2</ele>
        <time>2023-04-28T11:21:59Z</time>
      </trkpt>
      <trkpt lat="49.20945" lon="-0.31981">
        <ele>16</ele>
        <time>2023-04-28T11:22:00Z</time>
      </trkpt>
      <trkpt lat="49.20942" lon="-0.31971">
        <ele>15.6</ele>
        <time>2023-04-28T11:22:01Z</time>
      </trkpt>
      <trkpt lat="49.20938" lon="-0.31961">
        <ele>15.6</ele>
        <time>2023-04-28T11:22:02Z</time>
      </trkpt>
      <trkpt lat="49.20935" lon="-0.31951">
        <ele>15.2</ele>
        <time>2023-04-28T11:22:03Z</time>
      </trkpt>
      <trkpt lat="49.2093" lon="-0.31941">
        <ele>14.8</ele>
        <time>2023-04-28T11:22:04Z</time>
      </trkpt>
      <trkpt lat="49.20926" lon="-0.31931">
        <ele>14.6</ele>
        <time>2023-04-28T11:22:05Z</time>
      </trkpt>
      <trkpt lat="49.20921" lon="-0.3192">
        <ele>14.2</ele>
        <time>2023-04-28T11:22:06Z</time>
      </trkpt>
      <trkpt lat="49.20915" lon="-0.3191">
        <ele>13.8</ele>
        <time>2023-04-28T11:22:07Z</time>
      </trkpt>
      <trkpt lat="49.2091" lon="-0.319">
        <ele>13.4</ele>
        <time>2023-04-28T11:22:08Z</time>
      </trkpt>
      <trkpt lat="49.20904" lon="-0.31889">
        <ele>13</ele>
        <time>2023-04-28T11:22:09Z</time>
      </trkpt>
      <trkpt lat="49.20897" lon="-0.31879">
        <ele>12.6</ele>
        <time>2023-04-28T11:22:10Z</time>
      </trkpt>
      <trkpt lat="49.20889" lon="-0.31869">
        <ele>11.8</ele>
        <time>2023-04-28T11:22:11Z</time>
      </trkpt>
      <trkpt lat="49.20882" lon="-0.31859">
        <ele>11.4</ele>
        <time>2023-04-28T11:22:12Z</time>
      </trkpt>
      <trkpt lat="49.20874" lon="-0.31849">
        <ele>10.6</ele>
        <time>2023-04-28T11:22:13Z</time>
      </trkpt>
      <trkpt lat="49.20866" lon="-0.3184">
        <ele>10.2</ele>
        <time>2023-04-28T11:22:14Z</time>
      </trkpt>
      <trkpt lat="49.20857" lon="-0.3183">
        <ele>9.4</ele>
        <time>2023-04-28T11:22:15Z</time>
      </trkpt>
      <trkpt lat="49.20849" lon="-0.3182">
        <ele>8.6</ele>
        <time>2023-04-28T11:22:16Z</time>
      </trkpt>
      <trkpt lat="49.2084" lon="-0.31811">
        <ele>8.2</ele>
        <time>2023-04-28T11:22:17Z</time>
      </trkpt>
      <trkpt lat="49.20831" lon="-0.31801">
        <ele>7.6</ele>
        <time>2023-04-28T11:22:18Z</time>
      </trkpt>
      <trkpt lat="49.20822" lon="-0.31791">
        <ele>7.6</ele>
        <time>2023-04-28T11:22:19Z</time>
      </trkpt>
      <trkpt lat="49.20813" lon="-0.31781">
        <ele>7.6</ele>
        <time>2023-04-28T11:22:20Z</time>
      </trkpt>
      <trkpt lat="49.20804" lon="-0.31771">
        <ele>7.4</ele>
        <time>2023-04-28T11:22:21Z</time>
      </trkpt>
      <trkpt lat="49.20795" lon="-0.31761">
        <ele>7</ele>
        <time>2023-04-28T11:22:22Z</time>
      </trkpt>
      <trkpt lat="49.20786" lon="-0.31752">
        <ele>6.6</ele>
        <time>2023-04-28T11:22:23Z</time>
      </trkpt>
      <trkpt lat="49.20777" lon="-0.31742">
        <ele>6</ele>
        <time>2023-04-28T11:22:24Z</time>
      </trkpt>
      <trkpt lat="49.20769" lon="-0.31733">
        <ele>5.6</ele>
        <time>2023-04-28T11:22:25Z</time>
      </trkpt>
      <trkpt lat="49.20761" lon="-0.31724">
        <ele>5</ele>
        <time>2023-04-28T11:22:26Z</time>
      </trkpt>
      <trkpt lat="49.20754" lon="-0.31714">
        <ele>4.4</ele>
        <time>2023-04-28T11:22:27Z</time>
      </trkpt>
      <trkpt lat="49.20747" lon="-0.31703">
        <ele>3.8</ele>
        <time>2023-04-28T11:22:28Z</time>
      </trkpt>
      <trkpt lat="49.20741" lon="-0.31692">
        <ele>3.2</ele>
        <time>2023-04-28T11:22:29Z</time>
      </trkpt>
      <trkpt lat="49.20735" lon="-0.31681">
        <ele>2.8</ele>
        <time>2023-04-28T11:22:30Z</time>
      </trkpt>
      <trkpt lat="49.20729" lon="-0.31671">
        <ele>2.2</ele>
        <time>2023-04-28T11:22:31Z</time>
      </trkpt>
      <trkpt lat="49.20723" lon="-0.31661">
        <ele>1.8</ele>
        <time>2023-04-28T11:22:32Z</time>
      </trkpt>
      <trkpt lat="49.20718" lon="-0.3165">
        <ele>1.6</ele>
        <time>2023-04-28T11:22:33Z</time>
      </trkpt>
      <trkpt lat="49.20716" lon="-0.31639">
        <ele>1.4</ele>
        <time>2023-04-28T11:22:34Z</time>
      </trkpt>
      <trkpt lat="49.20714" lon="-0.31628">
        <ele>1.2</ele>
        <time>2023-04-28T11:22:35Z</time>
      </trkpt>
      <trkpt lat="49.20711" lon="-0.31617">
        <ele>1</ele>
        <time>2023-04-28T11:22:36Z</time>
      </trkpt>
      <trkpt lat="49.20707" lon="-0.31607">
        <ele>1</ele>
        <time>2023-04-28T11:22:37Z</time>
      </trkpt>
      <trkpt lat="49.20704" lon="-0.31597">
        <ele>1</ele>
        <time>2023-04-28T11:22:38Z</time>
      </trkpt>
      <trkpt lat="49.20701" lon="-0.31587">
        <ele>1</ele>
        <time>2023-04-28T11:22:39Z</time>
      </trkpt>
      <trkpt lat="49.20698" lon="-0.31577">
        <ele>1.2</ele>
        <time>2023-04-28T11:22:40Z</time>
      </trkpt>
      <trkpt lat="49.20695" lon="-0.31567">
        <ele>1.6</ele>
        <time>2023-04-28T11:22:41Z</time>
      </trkpt>
      <trkpt lat="49.20692" lon="-0.31558">
        <ele>2</ele>
        <time>2023-04-28T11:22:42Z</time>
      </trkpt>
      <trkpt lat="49.20688" lon="-0.3155">
        <ele>2.2</ele>
        <time>2023-04-28T11:22:43Z</time>
      </trkpt>
      <trkpt lat="49.20685" lon="-0.31541">
        <ele>2.6</ele>
        <time>2023-04-28T11:22:44Z</time>
      </trkpt>
      <trkpt lat="49.20683" lon="-0.31533">
        <ele>3</ele>
        <time>2023-04-28T11:22:45Z</time>
      </trkpt>
      <trkpt lat="49.20682" lon="-0.31524">
        <ele>3</ele>
        <time>2023-04-28T11:22:46Z</time>
      </trkpt>
      <trkpt lat="49.20682" lon="-0.31516">
        <ele>3.2</ele>
        <time>2023-04-28T11:22:47Z</time>
      </trkpt>
      <trkpt lat="49.20685" lon="-0.31509">
        <ele>3.2</ele>
        <time>2023-04-28T11:22:48Z</time>
      </trkpt>
      <trkpt lat="49.2069" lon="-0.31504">
        <ele>3</ele>
        <time>2023-04-28T11:22:49Z</time>
      </trkpt>
      <trkpt lat="49.20695" lon="-0.31501">
        <ele>3</ele>
        <time>2023-04-28T11:22:50Z</time>
      </trkpt>
      <trkpt lat="49.20699" lon="-0.31498">
        <ele>2.8</ele>
        <time>2023-04-28T11:22:51Z</time>
      </trkpt>
      <trkpt lat="49.20704" lon="-0.31495">
        <ele>2.8</ele>
        <time>2023-04-28T11:22:52Z</time>
      </trkpt>
      <trkpt lat="49.20709" lon="-0.31493">
        <ele>2.6</ele>
        <time>2023-04-28T11:22:53Z</time>
      </trkpt>
      <trkpt lat="49.20714" lon="-0.3149">
        <ele>2.6</ele>
        <time>2023-04-28T11:22:54Z</time>
      </trkpt>
      <trkpt lat="49.20719" lon="-0.31486">
        <ele>2.4</ele>
        <time>2023-04-28T11:22:55Z</time>
      </trkpt>
      <trkpt lat="49.20725" lon="-0.31483">
        <ele>2.2</ele>
        <time>2023-04-28T11:22:56Z</time>
      </trkpt>
      <trkpt lat="49.20731" lon="-0.31479">
        <ele>2.2</ele>
        <time>2023-04-28T11:22:57Z</time>
      </trkpt>
      <trkpt lat="49.20737" lon="-0.31476">
        <ele>2.2</ele>
        <time>2023-04-28T11:22:58Z</time>
      </trkpt>
      <trkpt lat="49.20742" lon="-0.31472">
        <ele>2.2</ele>
        <time>2023-04-28T11:22:59Z</time>
      </trkpt>
      <trkpt lat="49.20749" lon="-0.31468">
        <ele>2.2</ele>
        <time>2023-04-28T11:23:00Z</time>
      </trkpt>
      <trkpt lat="49.20755" lon="-0.31464">
        <ele>2.2</ele>
        <time>2023-04-28T11:23:01Z</time>
      </trkpt>
      <trkpt lat="49.20761" lon="-0.3146">
        <ele>2.2</ele>
        <time>2023-04-28T11:23:02Z</time>
      </trkpt>
      <trkpt lat="49.20767" lon="-0.31456">
        <ele>2.2</ele>
        <time>2023-04-28T11:23:03Z</time>
      </trkpt>
      <trkpt lat="49.20774" lon="-0.31452">
        <ele>2.2</ele>
        <time>2023-04-28T11:23:04Z</time>
      </trkpt>
      <trkpt lat="49.20781" lon="-0.31448">
        <ele>2.2</ele>
        <time>2023-04-28T11:23:05Z</time>
      </trkpt>
      <trkpt lat="49.20787" lon="-0.31443">
        <ele>2</ele>
        <time>2023-04-28T11:23:06Z</time>
      </trkpt>
      <trkpt lat="49.20794" lon="-0.31439">
        <ele>2</ele>
        <time>2023-04-28T11:23:07Z</time>
      </trkpt>
      <trkpt lat="49.20801" lon="-0.31435">
        <ele>1.8</ele>
        <time>2023-04-28T11:23:08Z</time>
      </trkpt>
      <trkpt lat="49.20808" lon="-0.31431">
        <ele>1.8</ele>
        <time>2023-04-28T11:23:09Z</time>
      </trkpt>
      <trkpt lat="49.20815" lon="-0.31427">
        <ele>1.6</ele>
        <time>2023-04-28T11:23:10Z</time>
      </trkpt>
      <trkpt lat="49.20822" lon="-0.31423">
        <ele>1.4</ele>
        <time>2023-04-28T11:23:11Z</time>
      </trkpt>
      <trkpt lat="49.20829" lon="-0.31419">
        <ele>1.2</ele>
        <time>2023-04-28T11:23:12Z</time>
      </trkpt>
      <trkpt lat="49.20836" lon="-0.31415">
        <ele>0.80000000000001</ele>
        <time>2023-04-28T11:23:13Z</time>
      </trkpt>
      <trkpt lat="49.20843" lon="-0.3141">
        <ele>0.60000000000002</ele>
        <time>2023-04-28T11:23:14Z</time>
      </trkpt>
      <trkpt lat="49.2085" lon="-0.31406">
        <ele>0.39999999999998</ele>
        <time>2023-04-28T11:23:15Z</time>
      </trkpt>
      <trkpt lat="49.20857" lon="-0.31402">
        <ele>0.19999999999999</ele>
        <time>2023-04-28T11:23:16Z</time>
      </trkpt>
      <trkpt lat="49.20864" lon="-0.31398">
        <ele>-0.19999999999999</ele>
        <time>2023-04-28T11:23:17Z</time>
      </trkpt>
      <trkpt lat="49.20872" lon="-0.31393">
        <ele>-0.39999999999998</ele>
        <time>2023-04-28T11:23:18Z</time>
      </trkpt>
      <trkpt lat="49.20879" lon="-0.31389">
        <ele>-0.60000000000002</ele>
        <time>2023-04-28T11:23:19Z</time>
      </trkpt>
      <trkpt lat="49.20886" lon="-0.31385">
        <ele>-0.80000000000001</ele>
        <time>2023-04-28T11:23:20Z</time>
      </trkpt>
      <trkpt lat="49.20893" lon="-0.3138">
        <ele>-1.2</ele>
        <time>2023-04-28T11:23:21Z</time>
      </trkpt>
      <trkpt lat="49.209" lon="-0.31376">
        <ele>-1.4</ele>
        <time>2023-04-28T11:23:22Z</time>
      </trkpt>
      <trkpt lat="49.20907" lon="-0.31372">
        <ele>-1.8</ele>
        <time>2023-04-28T11:23:23Z</time>
      </trkpt>
      <trkpt lat="49.20915" lon="-0.31368">
        <ele>-1.8</ele>
        <time>2023-04-28T11:23:24Z</time>
      </trkpt>
      <trkpt lat="49.20922" lon="-0.31363">
        <ele>-2</ele>
        <time>2023-04-28T11:23:25Z</time>
      </trkpt>
      <trkpt lat="49.20929" lon="-0.31359">
        <ele>-2</ele>
        <time>2023-04-28T11:23:26Z</time>
      </trkpt>
      <trkpt lat="49.20936" lon="-0.31354">
        <ele>-1.8</ele>
        <time>2023-04-28T11:23:27Z</time>
      </trkpt>
      <trkpt lat="49.20944" lon="-0.3135">
        <ele>-1.8</ele>
        <time>2023-04-28T11:23:28Z</time>
      </trkpt>
      <trkpt lat="49.20951" lon="-0.31346">
        <ele>-1.8</ele>
        <time>2023-04-28T11:23:29Z</time>
      </trkpt>
      <trkpt lat="49.20958" lon="-0.31341">
        <ele>-2</ele>
        <time>2023-04-28T11:23:30Z</time>
      </trkpt>
      <trkpt lat="49.20965" lon="-0.31337">
        <ele>-2</ele>
        <time>2023-04-28T11:23:31Z</time>
      </trkpt>
      <trkpt lat="49.20973" lon="-0.31333">
        <ele>-2</ele>
        <time>2023-04-28T11:23:32Z</time>
      </trkpt>
      <trkpt lat="49.2098" lon="-0.31328">
        <ele>-2</ele>
        <time>2023-04-28T11:23:33Z</time>
      </trkpt>
      <trkpt lat="49.20987" lon="-0.31324">
        <ele>-1.8</ele>
        <time>2023-04-28T11:23:34Z</time>
      </trkpt>
      <trkpt lat="49.20995" lon="-0.3132">
        <ele>-2</ele>
        <time>2023-04-28T11:23:35Z</time>
      </trkpt>
      <trkpt lat="49.21002" lon="-0.31315">
        <ele>-1.8</ele>
        <time>2023-04-28T11:23:36Z</time>
      </trkpt>
      <trkpt lat="49.21009" lon="-0.31311">
        <ele>-1.8</ele>
        <time>2023-04-28T11:23:37Z</time>
      </trkpt>
      <trkpt lat="49.21016" lon="-0.31307">
        <ele>-1.6</ele>
        <time>2023-04-28T11:23:38Z</time>
      </trkpt>
      <trkpt lat="49.21024" lon="-0.31302">
        <ele>-1.4</ele>
        <time>2023-04-28T11:23:39Z</time>
      </trkpt>
      <trkpt lat="49.21031" lon="-0.31298">
        <ele>-1.4</ele>
        <time>2023-04-28T11:23:40Z</time>
      </trkpt>
      <trkpt lat="49.21038" lon="-0.31294">
        <ele>-1.2</ele>
        <time>2023-04-28T11:23:41Z</time>
      </trkpt>
      <trkpt lat="49.21045" lon="-0.3129">
        <ele>-1.2</ele>
        <time>2023-04-28T11:23:42Z</time>
      </trkpt>
      <trkpt lat="49.21053" lon="-0.31285">
        <ele>-1.2</ele>
        <time>2023-04-28T11:23:43Z</time>
      </trkpt>
      <trkpt lat="49.2106" lon="-0.31281">
        <ele>-1.2</ele>
        <time>2023-04-28T11:23:44Z</time>
      </trkpt>
      <trkpt lat="49.21067" lon="-0.31277">
        <ele>-1.2</ele>
        <time>2023-04-28T11:23:45Z</time>
      </trkpt>
      <trkpt lat="49.21074" lon="-0.31273">
        <ele>-1.2</ele>
        <time>2023-04-28T11:23:46Z</time>
      </trkpt>
      <trkpt lat="49.21081" lon="-0.31268">
        <ele>-1.4</ele>
        <time>2023-04-28T11:23:47Z</time>
      </trkpt>
      <trkpt lat="49.21088" lon="-0.31264">
        <ele>-1</ele>
        <time>2023-04-28T11:23:48Z</time>
      </trkpt>
      <trkpt lat="49.21095" lon="-0.3126">
        <ele>-0.39999999999998</ele>
        <time>2023-04-28T11:23:49Z</time>
      </trkpt>
      <trkpt lat="49.21102" lon="-0.31256">
        <ele>0.19999999999999</ele>
        <time>2023-04-28T11:23:50Z</time>
      </trkpt>
      <trkpt lat="49.21109" lon="-0.31252">
        <ele>0.80000000000001</ele>
        <time>2023-04-28T11:23:51Z</time>
      </trkpt>
      <trkpt lat="49.21116" lon="-0.31248">
        <ele>1.4</ele>
        <time>2023-04-28T11:23:52Z</time>
      </trkpt>
      <trkpt lat="49.21123" lon="-0.31243">
        <ele>1.8</ele>
        <time>2023-04-28T11:23:53Z</time>
      </trkpt>
      <trkpt lat="49.2113" lon="-0.31239">
        <ele>2.2</ele>
        <time>2023-04-28T11:23:54Z</time>
      </trkpt>
      <trkpt lat="49.21137" lon="-0.31235">
        <ele>2.8</ele>
        <time>2023-04-28T11:23:55Z</time>
      </trkpt>
      <trkpt lat="49.21144" lon="-0.31231">
        <ele>3</ele>
        <time>2023-04-28T11:23:56Z</time>
      </trkpt>
      <trkpt lat="49.21151" lon="-0.31227">
        <ele>3.2</ele>
        <time>2023-04-28T11:23:57Z</time>
      </trkpt>
      <trkpt lat="49.21158" lon="-0.31223">
        <ele>3.4</ele>
        <time>2023-04-28T11:23:58Z</time>
      </trkpt>
      <trkpt lat="49.21166" lon="-0.31219">
        <ele>3.6</ele>
        <time>2023-04-28T11:23:59Z</time>
      </trkpt>
      <trkpt lat="49.21173" lon="-0.31215">
        <ele>3.6</ele>
        <time>2023-04-28T11:24:00Z</time>
      </trkpt>
      <trkpt lat="49.2118" lon="-0.3121">
        <ele>3.6</ele>
        <time>2023-04-28T11:24:01Z</time>
      </trkpt>
      <trkpt lat="49.21187" lon="-0.31206">
        <ele>3.6</ele>
        <time>2023-04-28T11:24:02Z</time>
      </trkpt>
      <trkpt lat="49.21194" lon="-0.31202">
        <ele>3.6</ele>
        <time>2023-04-28T11:24:03Z</time>
      </trkpt>
      <trkpt lat="49.21201" lon="-0.31198">
        <ele>3.4</ele>
        <time>2023-04-28T11:24:04Z</time>
      </trkpt>
      <trkpt lat="49.21208" lon="-0.31193">
        <ele>3.4</ele>
        <time>2023-04-28T11:24:05Z</time>
      </trkpt>
      <trkpt lat="49.21216" lon="-0.31189">
        <ele>3.2</ele>
        <time>2023-04-28T11:24:06Z</time>
      </trkpt>
      <trkpt lat="49.21223" lon="-0.31185">
        <ele>3.2</ele>
        <time>2023-04-28T11:24:07Z</time>
      </trkpt>
      <trkpt lat="49.2123" lon="-0.3118">
        <ele>3.2</ele>
        <time>2023-04-28T11:24:08Z</time>
      </trkpt>
      <trkpt lat="49.21237" lon="-0.31176">
        <ele>3.2</ele>
        <time>2023-04-28T11:24:09Z</time>
      </trkpt>
      <trkpt lat="49.21243" lon="-0.31172">
        <ele>3.2</ele>
        <time>2023-04-28T11:24:10Z</time>
      </trkpt>
      <trkpt lat="49.21251" lon="-0.31168">
        <ele>3.2</ele>
        <time>2023-04-28T11:24:11Z</time>
      </trkpt>
      <trkpt lat="49.21258" lon="-0.31164">
        <ele>3.4</ele>
        <time>2023-04-28T11:24:12Z</time>
      </trkpt>
      <trkpt lat="49.21265" lon="-0.3116">
        <ele>3.6</ele>
        <time>2023-04-28T11:24:13Z</time>
      </trkpt>
      <trkpt lat="49.21273" lon="-0.31157">
        <ele>3.8</ele>
        <time>2023-04-28T11:24:14Z</time>
      </trkpt>
      <trkpt lat="49.2128" lon="-0.31154">
        <ele>4</ele>
        <time>2023-04-28T11:24:15Z</time>
      </trkpt>
      <trkpt lat="49.21287" lon="-0.31152">
        <ele>4.4</ele>
        <time>2023-04-28T11:24:16Z</time>
      </trkpt>
      <trkpt lat="49.21295" lon="-0.3115">
        <ele>4.6</ele>
        <time>2023-04-28T11:24:17Z</time>
      </trkpt>
      <trkpt lat="49.21302" lon="-0.31147">
        <ele>5</ele>
        <time>2023-04-28T11:24:18Z</time>
      </trkpt>
      <trkpt lat="49.21309" lon="-0.31142">
        <ele>5</ele>
        <time>2023-04-28T11:24:19Z</time>
      </trkpt>
      <trkpt lat="49.21315" lon="-0.31136">
        <ele>4.6</ele>
        <time>2023-04-28T11:24:20Z</time>
      </trkpt>
      <trkpt lat="49.21322" lon="-0.31129">
        <ele>4.2</ele>
        <time>2023-04-28T11:24:21Z</time>
      </trkpt>
      <trkpt lat="49.21328" lon="-0.31123">
        <ele>3.8</ele>
        <time>2023-04-28T11:24:22Z</time>
      </trkpt>
      <trkpt lat="49.21334" lon="-0.31117">
        <ele>3.6</ele>
        <time>2023-04-28T11:24:23Z</time>
      </trkpt>
      <trkpt lat="49.21341" lon="-0.31113">
        <ele>3.8</ele>
        <time>2023-04-28T11:24:24Z</time>
      </trkpt>
      <trkpt lat="49.21348" lon="-0.31109">
        <ele>4.2</ele>
        <time>2023-04-28T11:24:25Z</time>
      </trkpt>
      <trkpt lat="49.21355" lon="-0.31104">
        <ele>4.6</ele>
        <time>2023-04-28T11:24:26Z</time>
      </trkpt>
      <trkpt lat="49.21362" lon="-0.311">
        <ele>5</ele>
        <time>2023-04-28T11:24:27Z</time>
      </trkpt>
      <trkpt lat="49.21369" lon="-0.31096">
        <ele>5.6</ele>
        <time>2023-04-28T11:24:28Z</time>
      </trkpt>
      <trkpt lat="49.21376" lon="-0.31092">
        <ele>6</ele>
        <time>2023-04-28T11:24:29Z</time>
      </trkpt>
      <trkpt lat="49.21383" lon="-0.31088">
        <ele>6.6</ele>
        <time>2023-04-28T11:24:30Z</time>
      </trkpt>
      <trkpt lat="49.2139" lon="-0.31083">
        <ele>7.2</ele>
        <time>2023-04-28T11:24:31Z</time>
      </trkpt>
      <trkpt lat="49.21397" lon="-0.31079">
        <ele>7.6</ele>
        <time>2023-04-28T11:24:32Z</time>
      </trkpt>
      <trkpt lat="49.21404" lon="-0.31075">
        <ele>8.2</ele>
        <time>2023-04-28T11:24:33Z</time>
      </trkpt>
      <trkpt lat="49.21411" lon="-0.31071">
        <ele>8.4</ele>
        <time>2023-04-28T11:24:34Z</time>
      </trkpt>
      <trkpt lat="49.21418" lon="-0.31066">
        <ele>8.6</ele>
        <time>2023-04-28T11:24:35Z</time>
      </trkpt>
      <trkpt lat="49.21425" lon="-0.31062">
        <ele>8.4</ele>
        <time>2023-04-28T11:24:36Z</time>
      </trkpt>
      <trkpt lat="49.21432" lon="-0.31058">
        <ele>8.2</ele>
        <time>2023-04-28T11:24:37Z</time>
      </trkpt>
      <trkpt lat="49.21439" lon="-0.31054">
        <ele>8.2</ele>
        <time>2023-04-28T11:24:38Z</time>
      </trkpt>
      <trkpt lat="49.21446" lon="-0.31049">
        <ele>8.2</ele>
        <time>2023-04-28T11:24:39Z</time>
      </trkpt>
      <trkpt lat="49.21453" lon="-0.31045">
        <ele>8.2</ele>
        <time>2023-04-28T11:24:40Z</time>
      </trkpt>
      <trkpt lat="49.2146" lon="-0.31041">
        <ele>8.4</ele>
        <time>2023-04-28T11:24:41Z</time>
      </trkpt>
      <trkpt lat="49.21467" lon="-0.31037">
        <ele>8.4</ele>
        <time>2023-04-28T11:24:42Z</time>
      </trkpt>
      <trkpt lat="49.21474" lon="-0.31032">
        <ele>8.6</ele>
        <time>2023-04-28T11:24:43Z</time>
      </trkpt>
      <trkpt lat="49.21481" lon="-0.31028">
        <ele>8.8</ele>
        <time>2023-04-28T11:24:44Z</time>
      </trkpt>
      <trkpt lat="49.21488" lon="-0.31024">
        <ele>9.2</ele>
        <time>2023-04-28T11:24:45Z</time>
      </trkpt>
      <trkpt lat="49.21495" lon="-0.3102">
        <ele>9.4</ele>
        <time>2023-04-28T11:24:46Z</time>
      </trkpt>
      <trkpt lat="49.21502" lon="-0.31016">
        <ele>9.6</ele>
        <time>2023-04-28T11:24:47Z</time>
      </trkpt>
      <trkpt lat="49.21509" lon="-0.31012">
        <ele>9.4</ele>
        <time>2023-04-28T11:24:48Z</time>
      </trkpt>
      <trkpt lat="49.21515" lon="-0.31008">
        <ele>9</ele>
        <time>2023-04-28T11:24:49Z</time>
      </trkpt>
      <trkpt lat="49.21522" lon="-0.31004">
        <ele>8.8</ele>
        <time>2023-04-28T11:24:50Z</time>
      </trkpt>
      <trkpt lat="49.21529" lon="-0.31">
        <ele>8.6</ele>
        <time>2023-04-28T11:24:51Z</time>
      </trkpt>
      <trkpt lat="49.21536" lon="-0.30996">
        <ele>8.6</ele>
        <time>2023-04-28T11:24:52Z</time>
      </trkpt>
      <trkpt lat="49.21543" lon="-0.30992">
        <ele>8.6</ele>
        <time>2023-04-28T11:24:53Z</time>
      </trkpt>
      <trkpt lat="49.21549" lon="-0.30988">
        <ele>8.4</ele>
        <time>2023-04-28T11:24:54Z</time>
      </trkpt>
      <trkpt lat="49.21556" lon="-0.30984">
        <ele>8.2</ele>
        <time>2023-04-28T11:24:55Z</time>
      </trkpt>
      <trkpt lat="49.21563" lon="-0.30979">
        <ele>8</ele>
        <time>2023-04-28T11:24:56Z</time>
      </trkpt>
      <trkpt lat="49.2157" lon="-0.30975">
        <ele>7.6</ele>
        <time>2023-04-28T11:24:57Z</time>
      </trkpt>
      <trkpt lat="49.21576" lon="-0.30971">
        <ele>7.2</ele>
        <time>2023-04-28T11:24:58Z</time>
      </trkpt>
      <trkpt lat="49.21583" lon="-0.30967">
        <ele>6.8</ele>
        <time>2023-04-28T11:24:59Z</time>
      </trkpt>
      <trkpt lat="49.2159" lon="-0.30963">
        <ele>6.6</ele>
        <time>2023-04-28T11:25:00Z</time>
      </trkpt>
      <trkpt lat="49.21597" lon="-0.30959">
        <ele>6.6</ele>
        <time>2023-04-28T11:25:01Z</time>
      </trkpt>
      <trkpt lat="49.21604" lon="-0.30955">
        <ele>6.4</ele>
        <time>2023-04-28T11:25:02Z</time>
      </trkpt>
      <trkpt lat="49.2161" lon="-0.30951">
        <ele>6.4</ele>
        <time>2023-04-28T11:25:03Z</time>
      </trkpt>
      <trkpt lat="49.21617" lon="-0.30946">
        <ele>6.2</ele>
        <time>2023-04-28T11:25:04Z</time>
      </trkpt>
      <trkpt lat="49.21624" lon="-0.30942">
        <ele>6</ele>
        <time>2023-04-28T11:25:05Z</time>
      </trkpt>
      <trkpt lat="49.21631" lon="-0.30938">
        <ele>6</ele>
        <time>2023-04-28T11:25:06Z</time>
      </trkpt>
      <trkpt lat="49.21637" lon="-0.30934">
        <ele>6</ele>
        <time>2023-04-28T11:25:07Z</time>
      </trkpt>
      <trkpt lat="49.21644" lon="-0.3093">
        <ele>6</ele>
        <time>2023-04-28T11:25:08Z</time>
      </trkpt>
      <trkpt lat="49.21651" lon="-0.30926">
        <ele>6</ele>
        <time>2023-04-28T11:25:09Z</time>
      </trkpt>
      <trkpt lat="49.21658" lon="-0.30922">
        <ele>6</ele>
        <time>2023-04-28T11:25:10Z</time>
      </trkpt>
      <trkpt lat="49.21664" lon="-0.30918">
        <ele>6</ele>
        <time>2023-04-28T11:25:11Z</time>
      </trkpt>
      <trkpt lat="49.21671" lon="-0.30914">
        <ele>6</ele>
        <time>2023-04-28T11:25:12Z</time>
      </trkpt>
      <trkpt lat="49.21678" lon="-0.3091">
        <ele>6</ele>
        <time>2023-04-28T11:25:13Z</time>
      </trkpt>
      <trkpt lat="49.21685" lon="-0.30906">
        <ele>6</ele>
        <time>2023-04-28T11:25:14Z</time>
      </trkpt>
      <trkpt lat="49.21691" lon="-0.30902">
        <ele>6</ele>
        <time>2023-04-28T11:25:15Z</time>
      </trkpt>
      <trkpt lat="49.21698" lon="-0.30898">
        <ele>5.8</ele>
        <time>2023-04-28T11:25:16Z</time>
      </trkpt>
      <trkpt lat="49.21705" lon="-0.30894">
        <ele>5.8</ele>
        <time>2023-04-28T11:25:17Z</time>
      </trkpt>
      <trkpt lat="49.21711" lon="-0.3089">
        <ele>5.6</ele>
        <time>2023-04-28T11:25:18Z</time>
      </trkpt>
      <trkpt lat="49.21718" lon="-0.30886">
        <ele>5.6</ele>
        <time>2023-04-28T11:25:19Z</time>
      </trkpt>
      <trkpt lat="49.21724" lon="-0.30882">
        <ele>5.6</ele>
        <time>2023-04-28T11:25:20Z</time>
      </trkpt>
      <trkpt lat="49.21731" lon="-0.30878">
        <ele>5.6</ele>
        <time>2023-04-28T11:25:21Z</time>
      </trkpt>
      <trkpt lat="49.21737" lon="-0.30874">
        <ele>5.4</ele>
        <time>2023-04-28T11:25:22Z</time>
      </trkpt>
      <trkpt lat="49.21744" lon="-0.3087">
        <ele>5.4</ele>
        <time>2023-04-28T11:25:23Z</time>
      </trkpt>
      <trkpt lat="49.21751" lon="-0.30866">
        <ele>5.2</ele>
        <time>2023-04-28T11:25:24Z</time>
      </trkpt>
      <trkpt lat="49.21757" lon="-0.30862">
        <ele>5</ele>
        <time>2023-04-28T11:25:25Z</time>
      </trkpt>
      <trkpt lat="49.21764" lon="-0.30858">
        <ele>5</ele>
        <time>2023-04-28T11:25:26Z</time>
      </trkpt>
      <trkpt lat="49.2177" lon="-0.30854">
        <ele>5</ele>
        <time>2023-04-28T11:25:27Z</time>
      </trkpt>
      <trkpt lat="49.21777" lon="-0.3085">
        <ele>5</ele>
        <time>2023-04-28T11:25:28Z</time>
      </trkpt>
      <trkpt lat="49.21783" lon="-0.30847">
        <ele>5</ele>
        <time>2023-04-28T11:25:29Z</time>
      </trkpt>
      <trkpt lat="49.2179" lon="-0.30843">
        <ele>5</ele>
        <time>2023-04-28T11:25:30Z</time>
      </trkpt>
      <trkpt lat="49.21797" lon="-0.30838">
        <ele>5.2</ele>
        <time>2023-04-28T11:25:31Z</time>
      </trkpt>
      <trkpt lat="49.21803" lon="-0.30835">
        <ele>5.4</ele>
        <time>2023-04-28T11:25:32Z</time>
      </trkpt>
      <trkpt lat="49.2181" lon="-0.30831">
        <ele>5.4</ele>
        <time>2023-04-28T11:25:33Z</time>
      </trkpt>
      <trkpt lat="49.21816" lon="-0.30827">
        <ele>5.6</ele>
        <time>2023-04-28T11:25:34Z</time>
      </trkpt>
      <trkpt lat="49.21823" lon="-0.30823">
        <ele>5.6</ele>
        <time>2023-04-28T11:25:35Z</time>
      </trkpt>
      <trkpt lat="49.21829" lon="-0.30819">
        <ele>5.6</ele>
        <time>2023-04-28T11:25:36Z</time>
      </trkpt>
      <trkpt lat="49.21835" lon="-0.30815">
        <ele>5.6</ele>
        <time>2023-04-28T11:25:37Z</time>
      </trkpt>
      <trkpt lat="49.21842" lon="-0.30811">
        <ele>5.6</ele>
        <time>2023-04-28T11:25:38Z</time>
      </trkpt>
      <trkpt lat="49.21848" lon="-0.30807">
        <ele>5.4</ele>
        <time>2023-04-28T11:25:39Z</time>
      </trkpt>
      <trkpt lat="49.21854" lon="-0.30803">
        <ele>5.2</ele>
        <time>2023-04-28T11:25:40Z</time>
      </trkpt>
      <trkpt lat="49.2186" lon="-0.30799">
        <ele>5</ele>
        <time>2023-04-28T11:25:41Z</time>
      </trkpt>
      <trkpt lat="49.21867" lon="-0.30795">
        <ele>5</ele>
        <time>2023-04-28T11:25:42Z</time>
      </trkpt>
      <trkpt lat="49.21873" lon="-0.30791">
        <ele>4.8</ele>
        <time>2023-04-28T11:25:43Z</time>
      </trkpt>
      <trkpt lat="49.21879" lon="-0.30788">
        <ele>4.6</ele>
        <time>2023-04-28T11:25:44Z</time>
      </trkpt>
      <trkpt lat="49.21885" lon="-0.30784">
        <ele>4.6</ele>
        <time>2023-04-28T11:25:45Z</time>
      </trkpt>
      <trkpt lat="49.21891" lon="-0.3078">
        <ele>4.6</ele>
        <time>2023-04-28T11:25:46Z</time>
      </trkpt>
      <trkpt lat="49.21898" lon="-0.30776">
        <ele>4.6</ele>
        <time>2023-04-28T11:25:47Z</time>
      </trkpt>
      <trkpt lat="49.21904" lon="-0.30773">
        <ele>4.6</ele>
        <time>2023-04-28T11:25:48Z</time>
      </trkpt>
      <trkpt lat="49.2191" lon="-0.30769">
        <ele>4.6</ele>
        <time>2023-04-28T11:25:49Z</time>
      </trkpt>
      <trkpt lat="49.21916" lon="-0.30765">
        <ele>4.6</ele>
        <time>2023-04-28T11:25:50Z</time>
      </trkpt>
      <trkpt lat="49.21923" lon="-0.30762">
        <ele>4.6</ele>
        <time>2023-04-28T11:25:51Z</time>
      </trkpt>
      <trkpt lat="49.21929" lon="-0.30758">
        <ele>4.6</ele>
        <time>2023-04-28T11:25:52Z</time>
      </trkpt>
      <trkpt lat="49.21935" lon="-0.30754">
        <ele>4.6</ele>
        <time>2023-04-28T11:25:53Z</time>
      </trkpt>
      <trkpt lat="49.21942" lon="-0.3075">
        <ele>4.6</ele>
        <time>2023-04-28T11:25:54Z</time>
      </trkpt>
      <trkpt lat="49.21948" lon="-0.30746">
        <ele>4.6</ele>
        <time>2023-04-28T11:25:55Z</time>
      </trkpt>
      <trkpt lat="49.21954" lon="-0.30742">
        <ele>4.4</ele>
        <time>2023-04-28T11:25:56Z</time>
      </trkpt>
      <trkpt lat="49.21961" lon="-0.30739">
        <ele>4.2</ele>
        <time>2023-04-28T11:25:57Z</time>
      </trkpt>
      <trkpt lat="49.21967" lon="-0.30735">
        <ele>4</ele>
        <time>2023-04-28T11:25:58Z</time>
      </trkpt>
      <trkpt lat="49.21973" lon="-0.30731">
        <ele>4</ele>
        <time>2023-04-28T11:25:59Z</time>
      </trkpt>
      <trkpt lat="49.2198" lon="-0.30727">
        <ele>4</ele>
        <time>2023-04-28T11:26:00Z</time>
      </trkpt>
      <trkpt lat="49.21986" lon="-0.30723">
        <ele>4</ele>
        <time>2023-04-28T11:26:01Z</time>
      </trkpt>
      <trkpt lat="49.21992" lon="-0.30719">
        <ele>4</ele>
        <time>2023-04-28T11:26:02Z</time>
      </trkpt>
      <trkpt lat="49.21999" lon="-0.30715">
        <ele>4</ele>
        <time>2023-04-28T11:26:03Z</time>
      </trkpt>
      <trkpt lat="49.22005" lon="-0.30712">
        <ele>4</ele>
        <time>2023-04-28T11:26:04Z</time>
      </trkpt>
      <trkpt lat="49.22011" lon="-0.30708">
        <ele>4</ele>
        <time>2023-04-28T11:26:05Z</time>
      </trkpt>
      <trkpt lat="49.22018" lon="-0.30704">
        <ele>4</ele>
        <time>2023-04-28T11:26:06Z</time>
      </trkpt>
      <trkpt lat="49.22024" lon="-0.30699">
        <ele>4</ele>
        <time>2023-04-28T11:26:07Z</time>
      </trkpt>
      <trkpt lat="49.22031" lon="-0.30695">
        <ele>4</ele>
        <time>2023-04-28T11:26:08Z</time>
      </trkpt>
      <trkpt lat="49.22037" lon="-0.30691">
        <ele>4.2</ele>
        <time>2023-04-28T11:26:09Z</time>
      </trkpt>
      <trkpt lat="49.22044" lon="-0.30687">
        <ele>4.4</ele>
        <time>2023-04-28T11:26:10Z</time>
      </trkpt>
      <trkpt lat="49.2205" lon="-0.30682">
        <ele>4.4</ele>
        <time>2023-04-28T11:26:11Z</time>
      </trkpt>
      <trkpt lat="49.22057" lon="-0.30678">
        <ele>4.6</ele>
        <time>2023-04-28T11:26:12Z</time>
      </trkpt>
      <trkpt lat="49.22063" lon="-0.30673">
        <ele>4.6</ele>
        <time>2023-04-28T11:26:13Z</time>
      </trkpt>
      <trkpt lat="49.2207" lon="-0.30668">
        <ele>4.8</ele>
        <time>2023-04-28T11:26:14Z</time>
      </trkpt>
      <trkpt lat="49.22076" lon="-0.30663">
        <ele>4.8</ele>
        <time>2023-04-28T11:26:15Z</time>
      </trkpt>
      <trkpt lat="49.22083" lon="-0.30658">
        <ele>4.8</ele>
        <time>2023-04-28T11:26:16Z</time>
      </trkpt>
      <trkpt lat="49.22089" lon="-0.30653">
        <ele>4.6</ele>
        <time>2023-04-28T11:26:17Z</time>
      </trkpt>
      <trkpt lat="49.22096" lon="-0.30647">
        <ele>4</ele>
        <time>2023-04-28T11:26:18Z</time>
      </trkpt>
      <trkpt lat="49.22102" lon="-0.30642">
        <ele>3.8</ele>
        <time>2023-04-28T11:26:19Z</time>
      </trkpt>
      <trkpt lat="49.22108" lon="-0.30637">
        <ele>3.4</ele>
        <time>2023-04-28T11:26:20Z</time>
      </trkpt>
      <trkpt lat="49.22114" lon="-0.30631">
        <ele>3</ele>
        <time>2023-04-28T11:26:21Z</time>
      </trkpt>
      <trkpt lat="49.2212" lon="-0.30625">
        <ele>2.8</ele>
        <time>2023-04-28T11:26:22Z</time>
      </trkpt>
      <trkpt lat="49.22127" lon="-0.30619">
        <ele>2.2</ele>
        <time>2023-04-28T11:26:23Z</time>
      </trkpt>
      <trkpt lat="49.22133" lon="-0.30613">
        <ele>1.8</ele>
        <time>2023-04-28T11:26:24Z</time>
      </trkpt>
      <trkpt lat="49.22139" lon="-0.30607">
        <ele>1.6</ele>
        <time>2023-04-28T11:26:25Z</time>
      </trkpt>
      <trkpt lat="49.22145" lon="-0.30601">
        <ele>1.2</ele>
        <time>2023-04-28T11:26:26Z</time>
      </trkpt>
      <trkpt lat="49.2215" lon="-0.30595">
        <ele>0.80000000000001</ele>
        <time>2023-04-28T11:26:27Z</time>
      </trkpt>
      <trkpt lat="49.22156" lon="-0.30588">
        <ele>0.60000000000002</ele>
        <time>2023-04-28T11:26:28Z</time>
      </trkpt>
      <trkpt lat="49.22162" lon="-0.30582">
        <ele>0.19999999999999</ele>
        <time>2023-04-28T11:26:29Z</time>
      </trkpt>
      <trkpt lat="49.22168" lon="-0.30575">
        <ele>-0.19999999999999</ele>
        <time>2023-04-28T11:26:30Z</time>
      </trkpt>
      <trkpt lat="49.22174" lon="-0.30569">
        <ele>0.19999999999999</ele>
        <time>2023-04-28T11:26:31Z</time>
      </trkpt>
      <trkpt lat="49.2218" lon="-0.30562">
        <ele>0.19999999999999</ele>
        <time>2023-04-28T11:26:32Z</time>
      </trkpt>
      <trkpt lat="49.22186" lon="-0.30555">
        <ele>0.39999999999998</ele>
        <time>2023-04-28T11:26:33Z</time>
      </trkpt>
      <trkpt lat="49.22192" lon="-0.30548">
        <ele>0.60000000000002</ele>
        <time>2023-04-28T11:26:34Z</time>
      </trkpt>
      <trkpt lat="49.22197" lon="-0.30542">
        <ele>0.60000000000002</ele>
        <time>2023-04-28T11:26:35Z</time>
      </trkpt>
      <trkpt lat="49.22203" lon="-0.30534">
        <ele>0.60000000000002</ele>
        <time>2023-04-28T11:26:36Z</time>
      </trkpt>
      <trkpt lat="49.22209" lon="-0.30527">
        <ele>0.80000000000001</ele>
        <time>2023-04-28T11:26:37Z</time>
      </trkpt>
      <trkpt lat="49.22214" lon="-0.3052">
        <ele>0.80000000000001</ele>
        <time>2023-04-28T11:26:38Z</time>
      </trkpt>
      <trkpt lat="49.2222" lon="-0.30512">
        <ele>0.80000000000001</ele>
        <time>2023-04-28T11:26:39Z</time>
      </trkpt>
      <trkpt lat="49.22225" lon="-0.30505">
        <ele>1</ele>
        <time>2023-04-28T11:26:40Z</time>
      </trkpt>
      <trkpt lat="49.22231" lon="-0.30497">
        <ele>1</ele>
        <time>2023-04-28T11:26:41Z</time>
      </trkpt>
      <trkpt lat="49.22236" lon="-0.30489">
        <ele>1.2</ele>
        <time>2023-04-28T11:26:42Z</time>
      </trkpt>
      <trkpt lat="49.22241" lon="-0.30482">
        <ele>1.2</ele>
        <time>2023-04-28T11:26:43Z</time>
      </trkpt>
      <trkpt lat="49.22246" lon="-0.30474">
        <ele>1.6</ele>
        <time>2023-04-28T11:26:44Z</time>
      </trkpt>
      <trkpt lat="49.22251" lon="-0.30467">
        <ele>1.6</ele>
        <time>2023-04-28T11:26:45Z</time>
      </trkpt>
      <trkpt lat="49.22256" lon="-0.30459">
        <ele>1.8</ele>
        <time>2023-04-28T11:26:46Z</time>
      </trkpt>
      <trkpt lat="49.22261" lon="-0.30452">
        <ele>1.8</ele>
        <time>2023-04-28T11:26:47Z</time>
      </trkpt>
      <trkpt lat="49.22266" lon="-0.30444">
        <ele>1.8</ele>
        <time>2023-04-28T11:26:48Z</time>
      </trkpt>
      <trkpt lat="49.22271" lon="-0.30436">
        <ele>1.8</ele>
        <time>2023-04-28T11:26:49Z</time>
      </trkpt>
      <trkpt lat="49.22275" lon="-0.30429">
        <ele>1.8</ele>
        <time>2023-04-28T11:26:50Z</time>
      </trkpt>
      <trkpt lat="49.2228" lon="-0.30421">
        <ele>1.8</ele>
        <time>2023-04-28T11:26:51Z</time>
      </trkpt>
      <trkpt lat="49.22284" lon="-0.30413">
        <ele>1.6</ele>
        <time>2023-04-28T11:26:52Z</time>
      </trkpt>
      <trkpt lat="49.22288" lon="-0.30405">
        <ele>1.4</ele>
        <time>2023-04-28T11:26:53Z</time>
      </trkpt>
      <trkpt lat="49.22293" lon="-0.30396">
        <ele>1.2</ele>
        <time>2023-04-28T11:26:54Z</time>
      </trkpt>
      <trkpt lat="49.22297" lon="-0.30388">
        <ele>1.2</ele>
        <time>2023-04-28T11:26:55Z</time>
      </trkpt>
      <trkpt lat="49.22301" lon="-0.3038">
        <ele>1</ele>
        <time>2023-04-28T11:26:56Z</time>
      </trkpt>
      <trkpt lat="49.22306" lon="-0.30371">
        <ele>1.2</ele>
        <time>2023-04-28T11:26:57Z</time>
      </trkpt>
      <trkpt lat="49.2231" lon="-0.30363">
        <ele>1.2</ele>
        <time>2023-04-28T11:26:58Z</time>
      </trkpt>
      <trkpt lat="49.22314" lon="-0.30355">
        <ele>1.2</ele>
        <time>2023-04-28T11:26:59Z</time>
      </trkpt>
      <trkpt lat="49.22319" lon="-0.30346">
        <ele>1.6</ele>
        <time>2023-04-28T11:27:00Z</time>
      </trkpt>
      <trkpt lat="49.22323" lon="-0.30338">
        <ele>1.8</ele>
        <time>2023-04-28T11:27:01Z</time>
      </trkpt>
      <trkpt lat="49.22327" lon="-0.30329">
        <ele>2.2</ele>
        <time>2023-04-28T11:27:02Z</time>
      </trkpt>
      <trkpt lat="49.22332" lon="-0.30321">
        <ele>2.8</ele>
        <time>2023-04-28T11:27:03Z</time>
      </trkpt>
      <trkpt lat="49.22336" lon="-0.30312">
        <ele>2.8</ele>
        <time>2023-04-28T11:27:04Z</time>
      </trkpt>
      <trkpt lat="49.2234" lon="-0.30304">
        <ele>3</ele>
        <time>2023-04-28T11:27:05Z</time>
      </trkpt>
      <trkpt lat="49.22345" lon="-0.30295">
        <ele>3</ele>
        <time>2023-04-28T11:27:06Z</time>
      </trkpt>
      <trkpt lat="49.22349" lon="-0.30287">
        <ele>3</ele>
        <time>2023-04-28T11:27:07Z</time>
      </trkpt>
      <trkpt lat="49.22353" lon="-0.30278">
        <ele>3</ele>
        <time>2023-04-28T11:27:08Z</time>
      </trkpt>
      <trkpt lat="49.22358" lon="-0.3027">
        <ele>3</ele>
        <time>2023-04-28T11:27:09Z</time>
      </trkpt>
      <trkpt lat="49.22362" lon="-0.30261">
        <ele>3.2</ele>
        <time>2023-04-28T11:27:10Z</time>
      </trkpt>
      <trkpt lat="49.22366" lon="-0.30253">
        <ele>3.2</ele>
        <time>2023-04-28T11:27:11Z</time>
      </trkpt>
      <trkpt lat="49.22371" lon="-0.30244">
        <ele>3.2</ele>
        <time>2023-04-28T11:27:12Z</time>
      </trkpt>
      <trkpt lat="49.22375" lon="-0.30235">
        <ele>3.4</ele>
        <time>2023-04-28T11:27:13Z</time>
      </trkpt>
      <trkpt lat="49.22379" lon="-0.30227">
        <ele>3.6</ele>
        <time>2023-04-28T11:27:14Z</time>
      </trkpt>
      <trkpt lat="49.22384" lon="-0.30218">
        <ele>3.6</ele>
        <time>2023-04-28T11:27:15Z</time>
      </trkpt>
      <trkpt lat="49.22388" lon="-0.3021">
        <ele>3.6</ele>
        <time>2023-04-28T11:27:16Z</time>
      </trkpt>
      <trkpt lat="49.22392" lon="-0.30201">
        <ele>3.6</ele>
        <time>2023-04-28T11:27:17Z</time>
      </trkpt>
      <trkpt lat="49.22397" lon="-0.30192">
        <ele>3.4</ele>
        <time>2023-04-28T11:27:18Z</time>
      </trkpt>
      <trkpt lat="49.22401" lon="-0.30184">
        <ele>3.2</ele>
        <time>2023-04-28T11:27:19Z</time>
      </trkpt>
      <trkpt lat="49.22405" lon="-0.30175">
        <ele>3.2</ele>
        <time>2023-04-28T11:27:20Z</time>
      </trkpt>
      <trkpt lat="49.2241" lon="-0.30166">
        <ele>3</ele>
        <time>2023-04-28T11:27:21Z</time>
      </trkpt>
      <trkpt lat="49.22414" lon="-0.30158">
        <ele>3</ele>
        <time>2023-04-28T11:27:22Z</time>
      </trkpt>
      <trkpt lat="49.22419" lon="-0.30149">
        <ele>3</ele>
        <time>2023-04-28T11:27:23Z</time>
      </trkpt>
      <trkpt lat="49.22423" lon="-0.3014">
        <ele>3.2</ele>
        <time>2023-04-28T11:27:24Z</time>
      </trkpt>
      <trkpt lat="49.22428" lon="-0.30131">
        <ele>3.4</ele>
        <time>2023-04-28T11:27:25Z</time>
      </trkpt>
      <trkpt lat="49.22432" lon="-0.30123">
        <ele>3.6</ele>
        <time>2023-04-28T11:27:26Z</time>
      </trkpt>
      <trkpt lat="49.22438" lon="-0.30116">
        <ele>3.8</ele>
        <time>2023-04-28T11:27:27Z</time>
      </trkpt>
      <trkpt lat="49.22443" lon="-0.30109">
        <ele>3.8</ele>
        <time>2023-04-28T11:27:28Z</time>
      </trkpt>
      <trkpt lat="49.22448" lon="-0.30101">
        <ele>3.8</ele>
        <time>2023-04-28T11:27:29Z</time>
      </trkpt>
      <trkpt lat="49.22452" lon="-0.30092">
        <ele>3.6</ele>
        <time>2023-04-28T11:27:30Z</time>
      </trkpt>
      <trkpt lat="49.22456" lon="-0.30083">
        <ele>3.6</ele>
        <time>2023-04-28T11:27:31Z</time>
      </trkpt>
      <trkpt lat="49.2246" lon="-0.30073">
        <ele>3.4</ele>
        <time>2023-04-28T11:27:32Z</time>
      </trkpt>
      <trkpt lat="49.22464" lon="-0.30064">
        <ele>3.4</ele>
        <time>2023-04-28T11:27:33Z</time>
      </trkpt>
      <trkpt lat="49.22467" lon="-0.30055">
        <ele>3.4</ele>
        <time>2023-04-28T11:27:34Z</time>
      </trkpt>
      <trkpt lat="49.22472" lon="-0.30046">
        <ele>3.6</ele>
        <time>2023-04-28T11:27:35Z</time>
      </trkpt>
      <trkpt lat="49.22476" lon="-0.30037">
        <ele>3.6</ele>
        <time>2023-04-28T11:27:36Z</time>
      </trkpt>
      <trkpt lat="49.2248" lon="-0.30029">
        <ele>3.8</ele>
        <time>2023-04-28T11:27:37Z</time>
      </trkpt>
      <trkpt lat="49.22484" lon="-0.3002">
        <ele>4</ele>
        <time>2023-04-28T11:27:38Z</time>
      </trkpt>
      <trkpt lat="49.22489" lon="-0.30011">
        <ele>4.4</ele>
        <time>2023-04-28T11:27:39Z</time>
      </trkpt>
      <trkpt lat="49.22494" lon="-0.30003">
        <ele>4.6</ele>
        <time>2023-04-28T11:27:40Z</time>
      </trkpt>
      <trkpt lat="49.22498" lon="-0.29994">
        <ele>4.6</ele>
        <time>2023-04-28T11:27:41Z</time>
      </trkpt>
      <trkpt lat="49.22503" lon="-0.29985">
        <ele>4.6</ele>
        <time>2023-04-28T11:27:42Z</time>
      </trkpt>
      <trkpt lat="49.22507" lon="-0.29976">
        <ele>4.6</ele>
        <time>2023-04-28T11:27:43Z</time>
      </trkpt>
      <trkpt lat="49.22512" lon="-0.29967">
        <ele>4.6</ele>
        <time>2023-04-28T11:27:44Z</time>
      </trkpt>
      <trkpt lat="49.22517" lon="-0.29958">
        <ele>4.6</ele>
        <time>2023-04-28T11:27:45Z</time>
      </trkpt>
      <trkpt lat="49.22521" lon="-0.29949">
        <ele>4.6</ele>
        <time>2023-04-28T11:27:46Z</time>
      </trkpt>
      <trkpt lat="49.22526" lon="-0.2994">
        <ele>4.6</ele>
        <time>2023-04-28T11:27:47Z</time>
      </trkpt>
      <trkpt lat="49.2253" lon="-0.29931">
        <ele>4.6</ele>
        <time>2023-04-28T11:27:48Z</time>
      </trkpt>
      <trkpt lat="49.22535" lon="-0.29923">
        <ele>4.8</ele>
        <time>2023-04-28T11:27:49Z</time>
      </trkpt>
      <trkpt lat="49.22539" lon="-0.29914">
        <ele>4.6</ele>
        <time>2023-04-28T11:27:50Z</time>
      </trkpt>
      <trkpt lat="49.22544" lon="-0.29905">
        <ele>4.4</ele>
        <time>2023-04-28T11:27:51Z</time>
      </trkpt>
      <trkpt lat="49.22548" lon="-0.29896">
        <ele>4</ele>
        <time>2023-04-28T11:27:52Z</time>
      </trkpt>
      <trkpt lat="49.22553" lon="-0.29887">
        <ele>3.6</ele>
        <time>2023-04-28T11:27:53Z</time>
      </trkpt>
      <trkpt lat="49.22557" lon="-0.29878">
        <ele>3.2</ele>
        <time>2023-04-28T11:27:54Z</time>
      </trkpt>
      <trkpt lat="49.22562" lon="-0.29869">
        <ele>3</ele>
        <time>2023-04-28T11:27:55Z</time>
      </trkpt>
      <trkpt lat="49.22566" lon="-0.2986">
        <ele>2.6</ele>
        <time>2023-04-28T11:27:56Z</time>
      </trkpt>
      <trkpt lat="49.22571" lon="-0.29851">
        <ele>2.4</ele>
        <time>2023-04-28T11:27:57Z</time>
      </trkpt>
      <trkpt lat="49.22576" lon="-0.29842">
        <ele>2</ele>
        <time>2023-04-28T11:27:58Z</time>
      </trkpt>
      <trkpt lat="49.2258" lon="-0.29833">
        <ele>1.8</ele>
        <time>2023-04-28T11:27:59Z</time>
      </trkpt>
      <trkpt lat="49.22585" lon="-0.29824">
        <ele>1.6</ele>
        <time>2023-04-28T11:28:00Z</time>
      </trkpt>
      <trkpt lat="49.22589" lon="-0.29816">
        <ele>1.2</ele>
        <time>2023-04-28T11:28:01Z</time>
      </trkpt>
      <trkpt lat="49.22593" lon="-0.29807">
        <ele>1</ele>
        <time>2023-04-28T11:28:02Z</time>
      </trkpt>
      <trkpt lat="49.22598" lon="-0.29799">
        <ele>0.80000000000001</ele>
        <time>2023-04-28T11:28:03Z</time>
      </trkpt>
      <trkpt lat="49.22602" lon="-0.29791">
        <ele>0.60000000000002</ele>
        <time>2023-04-28T11:28:04Z</time>
      </trkpt>
      <trkpt lat="49.22606" lon="-0.29783">
        <ele>0.60000000000002</ele>
        <time>2023-04-28T11:28:05Z</time>
      </trkpt>
      <trkpt lat="49.22611" lon="-0.29774">
        <ele>0.60000000000002</ele>
        <time>2023-04-28T11:28:06Z</time>
      </trkpt>
      <trkpt lat="49.22615" lon="-0.29766">
        <ele>0.39999999999998</ele>
        <time>2023-04-28T11:28:07Z</time>
      </trkpt>
      <trkpt lat="49.22619" lon="-0.29758">
        <ele>0.39999999999998</ele>
        <time>2023-04-28T11:28:08Z</time>
      </trkpt>
      <trkpt lat="49.22623" lon="-0.29749">
        <ele>0.39999999999998</ele>
        <time>2023-04-28T11:28:09Z</time>
      </trkpt>
      <trkpt lat="49.22627" lon="-0.29741">
        <ele>0.60000000000002</ele>
        <time>2023-04-28T11:28:10Z</time>
      </trkpt>
      <trkpt lat="49.22631" lon="-0.29733">
        <ele>0.60000000000002</ele>
        <time>2023-04-28T11:28:11Z</time>
      </trkpt>
      <trkpt lat="49.22635" lon="-0.29725">
        <ele>0.80000000000001</ele>
        <time>2023-04-28T11:28:12Z</time>
      </trkpt>
      <trkpt lat="49.22639" lon="-0.29717">
        <ele>0.80000000000001</ele>
        <time>2023-04-28T11:28:13Z</time>
      </trkpt>
      <trkpt lat="49.22644" lon="-0.29709">
        <ele>1.2</ele>
        <time>2023-04-28T11:28:14Z</time>
      </trkpt>
      <trkpt lat="49.22648" lon="-0.29701">
        <ele>1.2</ele>
        <time>2023-04-28T11:28:15Z</time>
      </trkpt>
      <trkpt lat="49.22652" lon="-0.29692">
        <ele>1.4</ele>
        <time>2023-04-28T11:28:16Z</time>
      </trkpt>
      <trkpt lat="49.22656" lon="-0.29683">
        <ele>1.6</ele>
        <time>2023-04-28T11:28:17Z</time>
      </trkpt>
      <trkpt lat="49.22661" lon="-0.29675">
        <ele>1.8</ele>
        <time>2023-04-28T11:28:18Z</time>
      </trkpt>
      <trkpt lat="49.22665" lon="-0.29666">
        <ele>1.8</ele>
        <time>2023-04-28T11:28:19Z</time>
      </trkpt>
      <trkpt lat="49.22669" lon="-0.29657">
        <ele>1.8</ele>
        <time>2023-04-28T11:28:20Z</time>
      </trkpt>
      <trkpt lat="49.22674" lon="-0.29648">
        <ele>1.8</ele>
        <time>2023-04-28T11:28:21Z</time>
      </trkpt>
      <trkpt lat="49.22678" lon="-0.29639">
        <ele>1.8</ele>
        <time>2023-04-28T11:28:22Z</time>
      </trkpt>
      <trkpt lat="49.22682" lon="-0.29631">
        <ele>1.8</ele>
        <time>2023-04-28T11:28:23Z</time>
      </trkpt>
      <trkpt lat="49.22687" lon="-0.29622">
        <ele>1.8</ele>
        <time>2023-04-28T11:28:24Z</time>
      </trkpt>
      <trkpt lat="49.22691" lon="-0.29613">
        <ele>1.8</ele>
        <time>2023-04-28T11:28:25Z</time>
      </trkpt>
      <trkpt lat="49.22696" lon="-0.29604">
        <ele>1.8</ele>
        <time>2023-04-28T11:28:26Z</time>
      </trkpt>
      <trkpt lat="49.227" lon="-0.29595">
        <ele>1.8</ele>
        <time>2023-04-28T11:28:27Z</time>
      </trkpt>
      <trkpt lat="49.22705" lon="-0.29586">
        <ele>1.8</ele>
        <time>2023-04-28T11:28:28Z</time>
      </trkpt>
      <trkpt lat="49.22709" lon="-0.29577">
        <ele>1.8</ele>
        <time>2023-04-28T11:28:29Z</time>
      </trkpt>
      <trkpt lat="49.22714" lon="-0.29568">
        <ele>1.8</ele>
        <time>2023-04-28T11:28:30Z</time>
      </trkpt>
      <trkpt lat="49.22718" lon="-0.2956">
        <ele>1.8</ele>
        <time>2023-04-28T11:28:31Z</time>
      </trkpt>
      <trkpt lat="49.22723" lon="-0.29551">
        <ele>1.6</ele>
        <time>2023-04-28T11:28:32Z</time>
      </trkpt>
      <trkpt lat="49.22727" lon="-0.29542">
        <ele>1.6</ele>
        <time>2023-04-28T11:28:33Z</time>
      </trkpt>
      <trkpt lat="49.22732" lon="-0.29533">
        <ele>1.4</ele>
        <time>2023-04-28T11:28:34Z</time>
      </trkpt>
      <trkpt lat="49.22737" lon="-0.29524">
        <ele>1.2</ele>
        <time>2023-04-28T11:28:35Z</time>
      </trkpt>
      <trkpt lat="49.22741" lon="-0.29515">
        <ele>1.2</ele>
        <time>2023-04-28T11:28:36Z</time>
      </trkpt>
      <trkpt lat="49.22746" lon="-0.29506">
        <ele>1</ele>
        <time>2023-04-28T11:28:37Z</time>
      </trkpt>
      <trkpt lat="49.2275" lon="-0.29497">
        <ele>1</ele>
        <time>2023-04-28T11:28:38Z</time>
      </trkpt>
      <trkpt lat="49.22755" lon="-0.29488">
        <ele>1.2</ele>
        <time>2023-04-28T11:28:39Z</time>
      </trkpt>
      <trkpt lat="49.2276" lon="-0.29479">
        <ele>1.6</ele>
        <time>2023-04-28T11:28:40Z</time>
      </trkpt>
      <trkpt lat="49.22764" lon="-0.2947">
        <ele>1.8</ele>
        <time>2023-04-28T11:28:41Z</time>
      </trkpt>
      <trkpt lat="49.22769" lon="-0.29461">
        <ele>2</ele>
        <time>2023-04-28T11:28:42Z</time>
      </trkpt>
      <trkpt lat="49.22774" lon="-0.29452">
        <ele>2.4</ele>
        <time>2023-04-28T11:28:43Z</time>
      </trkpt>
      <trkpt lat="49.22779" lon="-0.29443">
        <ele>2.8</ele>
        <time>2023-04-28T11:28:44Z</time>
      </trkpt>
      <trkpt lat="49.22783" lon="-0.29434">
        <ele>3</ele>
        <time>2023-04-28T11:28:45Z</time>
      </trkpt>
      <trkpt lat="49.22788" lon="-0.29425">
        <ele>3.2</ele>
        <time>2023-04-28T11:28:46Z</time>
      </trkpt>
      <trkpt lat="49.22792" lon="-0.29416">
        <ele>3.6</ele>
        <time>2023-04-28T11:28:47Z</time>
      </trkpt>
      <trkpt lat="49.22797" lon="-0.29406">
        <ele>3.8</ele>
        <time>2023-04-28T11:28:48Z</time>
      </trkpt>
      <trkpt lat="49.22802" lon="-0.29397">
        <ele>4</ele>
        <time>2023-04-28T11:28:49Z</time>
      </trkpt>
      <trkpt lat="49.22806" lon="-0.29388">
        <ele>4.2</ele>
        <time>2023-04-28T11:28:50Z</time>
      </trkpt>
      <trkpt lat="49.22811" lon="-0.29379">
        <ele>4.4</ele>
        <time>2023-04-28T11:28:51Z</time>
      </trkpt>
      <trkpt lat="49.22815" lon="-0.2937">
        <ele>4.4</ele>
        <time>2023-04-28T11:28:52Z</time>
      </trkpt>
      <trkpt lat="49.2282" lon="-0.2936">
        <ele>4.4</ele>
        <time>2023-04-28T11:28:53Z</time>
      </trkpt>
      <trkpt lat="49.22825" lon="-0.29351">
        <ele>4.4</ele>
        <time>2023-04-28T11:28:54Z</time>
      </trkpt>
      <trkpt lat="49.2283" lon="-0.29342">
        <ele>4.2</ele>
        <time>2023-04-28T11:28:55Z</time>
      </trkpt>
      <trkpt lat="49.22834" lon="-0.29333">
        <ele>4</ele>
        <time>2023-04-28T11:28:56Z</time>
      </trkpt>
      <trkpt lat="49.22839" lon="-0.29323">
        <ele>4.2</ele>
        <time>2023-04-28T11:28:57Z</time>
      </trkpt>
      <trkpt lat="49.22844" lon="-0.29314">
        <ele>4.4</ele>
        <time>2023-04-28T11:28:58Z</time>
      </trkpt>
      <trkpt lat="49.22848" lon="-0.29305">
        <ele>4.6</ele>
        <time>2023-04-28T11:28:59Z</time>
      </trkpt>
      <trkpt lat="49.22853" lon="-0.29295">
        <ele>4.6</ele>
        <time>2023-04-28T11:29:00Z</time>
      </trkpt>
      <trkpt lat="49.22858" lon="-0.29286">
        <ele>4.6</ele>
        <time>2023-04-28T11:29:01Z</time>
      </trkpt>
      <trkpt lat="49.22862" lon="-0.29277">
        <ele>4.6</ele>
        <time>2023-04-28T11:29:02Z</time>
      </trkpt>
      <trkpt lat="49.22867" lon="-0.29268">
        <ele>4.6</ele>
        <time>2023-04-28T11:29:03Z</time>
      </trkpt>
      <trkpt lat="49.22871" lon="-0.29259">
        <ele>4.6</ele>
        <time>2023-04-28T11:29:04Z</time>
      </trkpt>
      <trkpt lat="49.22876" lon="-0.29251">
        <ele>4.6</ele>
        <time>2023-04-28T11:29:05Z</time>
      </trkpt>
      <trkpt lat="49.2288" lon="-0.29242">
        <ele>4.6</ele>
        <time>2023-04-28T11:29:06Z</time>
      </trkpt>
      <trkpt lat="49.22884" lon="-0.29233">
        <ele>4.8</ele>
        <time>2023-04-28T11:29:07Z</time>
      </trkpt>
      <trkpt lat="49.22889" lon="-0.29225">
        <ele>5</ele>
        <time>2023-04-28T11:29:08Z</time>
      </trkpt>
      <trkpt lat="49.22893" lon="-0.29216">
        <ele>5</ele>
        <time>2023-04-28T11:29:09Z</time>
      </trkpt>
      <trkpt lat="49.22898" lon="-0.29207">
        <ele>5</ele>
        <time>2023-04-28T11:29:10Z</time>
      </trkpt>
      <trkpt lat="49.22902" lon="-0.29199">
        <ele>5</ele>
        <time>2023-04-28T11:29:11Z</time>
      </trkpt>
      <trkpt lat="49.22906" lon="-0.2919">
        <ele>5</ele>
        <time>2023-04-28T11:29:12Z</time>
      </trkpt>
      <trkpt lat="49.22911" lon="-0.29182">
        <ele>5</ele>
        <time>2023-04-28T11:29:13Z</time>
      </trkpt>
      <trkpt lat="49.22915" lon="-0.29173">
        <ele>5</ele>
        <time>2023-04-28T11:29:14Z</time>
      </trkpt>
      <trkpt lat="49.2292" lon="-0.29164">
        <ele>5</ele>
        <time>2023-04-28T11:29:15Z</time>
      </trkpt>
      <trkpt lat="49.22924" lon="-0.29156">
        <ele>5.4</ele>
        <time>2023-04-28T11:29:16Z</time>
      </trkpt>
      <trkpt lat="49.22928" lon="-0.29147">
        <ele>5.6</ele>
        <time>2023-04-28T11:29:17Z</time>
      </trkpt>
      <trkpt lat="49.22933" lon="-0.29138">
        <ele>6</ele>
        <time>2023-04-28T11:29:18Z</time>
      </trkpt>
      <trkpt lat="49.22937" lon="-0.2913">
        <ele>6.4</ele>
        <time>2023-04-28T11:29:19Z</time>
      </trkpt>
      <trkpt lat="49.22941" lon="-0.29121">
        <ele>6.6</ele>
        <time>2023-04-28T11:29:20Z</time>
      </trkpt>
      <trkpt lat="49.22945" lon="-0.29113">
        <ele>6.8</ele>
        <time>2023-04-28T11:29:21Z</time>
      </trkpt>
      <trkpt lat="49.22949" lon="-0.29105">
        <ele>7</ele>
        <time>2023-04-28T11:29:22Z</time>
      </trkpt>
      <trkpt lat="49.22953" lon="-0.29098">
        <ele>7</ele>
        <time>2023-04-28T11:29:23Z</time>
      </trkpt>
      <trkpt lat="49.22956" lon="-0.29093">
        <ele>7.2</ele>
        <time>2023-04-28T11:29:24Z</time>
      </trkpt>
      <trkpt lat="49.2296" lon="-0.29091">
        <ele>7.2</ele>
        <time>2023-04-28T11:29:25Z</time>
      </trkpt>
      <trkpt lat="49.22963" lon="-0.29092">
        <ele>7</ele>
        <time>2023-04-28T11:29:26Z</time>
      </trkpt>
      <trkpt lat="49.22966" lon="-0.29095">
        <ele>6.8</ele>
        <time>2023-04-28T11:29:27Z</time>
      </trkpt>
      <trkpt lat="49.22968" lon="-0.29098">
        <ele>6.6</ele>
        <time>2023-04-28T11:29:28Z</time>
      </trkpt>
      <trkpt lat="49.2297" lon="-0.29101">
        <ele>6.6</ele>
        <time>2023-04-28T11:29:29Z</time>
      </trkpt>
      <trkpt lat="49.22973" lon="-0.29104">
        <ele>6.4</ele>
        <time>2023-04-28T11:29:30Z</time>
      </trkpt>
      <trkpt lat="49.22976" lon="-0.29107">
        <ele>6</ele>
        <time>2023-04-28T11:29:31Z</time>
      </trkpt>
      <trkpt lat="49.22979" lon="-0.29111">
        <ele>6</ele>
        <time>2023-04-28T11:29:32Z</time>
      </trkpt>
      <trkpt lat="49.22982" lon="-0.29113">
        <ele>5.8</ele>
        <time>2023-04-28T11:29:33Z</time>
      </trkpt>
      <trkpt lat="49.22984" lon="-0.29116">
        <ele>5.6</ele>
        <time>2023-04-28T11:29:34Z</time>
      </trkpt>
      <trkpt lat="49.22986" lon="-0.29118">
        <ele>5.6</ele>
        <time>2023-04-28T11:29:35Z</time>
      </trkpt>
      <trkpt lat="49.22987" lon="-0.29121">
        <ele>5.4</ele>
        <time>2023-04-28T11:29:36Z</time>
      </trkpt>
      <trkpt lat="49.22989" lon="-0.29125">
        <ele>5.4</ele>
        <time>2023-04-28T11:29:37Z</time>
      </trkpt>
      <trkpt lat="49.22991" lon="-0.29129">
        <ele>5</ele>
        <time>2023-04-28T11:29:38Z</time>
      </trkpt>
      <trkpt lat="49.22993" lon="-0.29135">
        <ele>5</ele>
        <time>2023-04-28T11:29:39Z</time>
      </trkpt>
      <trkpt lat="49.22995" lon="-0.2914">
        <ele>4.6</ele>
        <time>2023-04-28T11:29:40Z</time>
      </trkpt>
      <trkpt lat="49.22996" lon="-0.29147">
        <ele>4.6</ele>
        <time>2023-04-28T11:29:41Z</time>
      </trkpt>
      <trkpt lat="49.22997" lon="-0.29154">
        <ele>4.4</ele>
        <time>2023-04-28T11:29:42Z</time>
      </trkpt>
      <trkpt lat="49.22998" lon="-0.29162">
        <ele>4</ele>
        <time>2023-04-28T11:29:43Z</time>
      </trkpt>
      <trkpt lat="49.23001" lon="-0.29169">
        <ele>4</ele>
        <time>2023-04-28T11:29:44Z</time>
      </trkpt>
      <trkpt lat="49.23005" lon="-0.29176">
        <ele>4.2</ele>
        <time>2023-04-28T11:29:45Z</time>
      </trkpt>
      <trkpt lat="49.23009" lon="-0.29181">
        <ele>4.4</ele>
        <time>2023-04-28T11:29:46Z</time>
      </trkpt>
      <trkpt lat="49.23013" lon="-0.29187">
        <ele>4.4</ele>
        <time>2023-04-28T11:29:47Z</time>
      </trkpt>
      <trkpt lat="49.23017" lon="-0.29192">
        <ele>4.6</ele>
        <time>2023-04-28T11:29:48Z</time>
      </trkpt>
      <trkpt lat="49.2302" lon="-0.29197">
        <ele>4.6</ele>
        <time>2023-04-28T11:29:49Z</time>
      </trkpt>
      <trkpt lat="49.23024" lon="-0.29202">
        <ele>4.6</ele>
        <time>2023-04-28T11:29:50Z</time>
      </trkpt>
      <trkpt lat="49.23027" lon="-0.29207">
        <ele>4.8</ele>
        <time>2023-04-28T11:29:51Z</time>
      </trkpt>
      <trkpt lat="49.2303" lon="-0.29212">
        <ele>5</ele>
        <time>2023-04-28T11:29:52Z</time>
      </trkpt>
      <trkpt lat="49.23034" lon="-0.29217">
        <ele>5</ele>
        <time>2023-04-28T11:29:53Z</time>
      </trkpt>
      <trkpt lat="49.23037" lon="-0.29222">
        <ele>5</ele>
        <time>2023-04-28T11:29:54Z</time>
      </trkpt>
      <trkpt lat="49.2304" lon="-0.29227">
        <ele>5.2</ele>
        <time>2023-04-28T11:29:55Z</time>
      </trkpt>
      <trkpt lat="49.23044" lon="-0.29232">
        <ele>5.4</ele>
        <time>2023-04-28T11:29:56Z</time>
      </trkpt>
      <trkpt lat="49.23047" lon="-0.29236">
        <ele>5.4</ele>
        <time>2023-04-28T11:29:57Z</time>
      </trkpt>
      <trkpt lat="49.23051" lon="-0.29241">
        <ele>5.6</ele>
        <time>2023-04-28T11:29:58Z</time>
      </trkpt>
      <trkpt lat="49.23054" lon="-0.29246">
        <ele>5.6</ele>
        <time>2023-04-28T11:29:59Z</time>
      </trkpt>
      <trkpt lat="49.23058" lon="-0.29252">
        <ele>5.8</ele>
        <time>2023-04-28T11:30:00Z</time>
      </trkpt>
      <trkpt lat="49.23061" lon="-0.29257">
        <ele>6</ele>
        <time>2023-04-28T11:30:01Z</time>
      </trkpt>
      <trkpt lat="49.23065" lon="-0.29262">
        <ele>6.4</ele>
        <time>2023-04-28T11:30:02Z</time>
      </trkpt>
      <trkpt lat="49.23068" lon="-0.29268">
        <ele>6.6</ele>
        <time>2023-04-28T11:30:03Z</time>
      </trkpt>
      <trkpt lat="49.23072" lon="-0.29273">
        <ele>6.6</ele>
        <time>2023-04-28T11:30:04Z</time>
      </trkpt>
      <trkpt lat="49.23075" lon="-0.29279">
        <ele>7</ele>
        <time>2023-04-28T11:30:05Z</time>
      </trkpt>
      <trkpt lat="49.23079" lon="-0.29284">
        <ele>7.2</ele>
        <time>2023-04-28T11:30:06Z</time>
      </trkpt>
      <trkpt lat="49.23083" lon="-0.2929">
        <ele>7.4</ele>
        <time>2023-04-28T11:30:07Z</time>
      </trkpt>
      <trkpt lat="49.23087" lon="-0.29295">
        <ele>7.6</ele>
        <time>2023-04-28T11:30:08Z</time>
      </trkpt>
      <trkpt lat="49.2309" lon="-0.29301">
        <ele>8</ele>
        <time>2023-04-28T11:30:09Z</time>
      </trkpt>
      <trkpt lat="49.23094" lon="-0.29306">
        <ele>8.4</ele>
        <time>2023-04-28T11:30:10Z</time>
      </trkpt>
      <trkpt lat="49.23098" lon="-0.29312">
        <ele>8.6</ele>
        <time>2023-04-28T11:30:11Z</time>
      </trkpt>
      <trkpt lat="49.23102" lon="-0.29317">
        <ele>8.8</ele>
        <time>2023-04-28T11:30:12Z</time>
      </trkpt>
      <trkpt lat="49.23106" lon="-0.29323">
        <ele>9.2</ele>
        <time>2023-04-28T11:30:13Z</time>
      </trkpt>
      <trkpt lat="49.2311" lon="-0.29328">
        <ele>9.4</ele>
        <time>2023-04-28T11:30:14Z</time>
      </trkpt>
      <trkpt lat="49.23114" lon="-0.29333">
        <ele>9.6</ele>
        <time>2023-04-28T11:30:15Z</time>
      </trkpt>
      <trkpt lat="49.23118" lon="-0.29337">
        <ele>10</ele>
        <time>2023-04-28T11:30:16Z</time>
      </trkpt>
      <trkpt lat="49.23123" lon="-0.2934">
        <ele>10.2</ele>
        <time>2023-04-28T11:30:17Z</time>
      </trkpt>
      <trkpt lat="49.23128" lon="-0.29343">
        <ele>10.4</ele>
        <time>2023-04-28T11:30:18Z</time>
      </trkpt>
      <trkpt lat="49.23133" lon="-0.29346">
        <ele>10.6</ele>
        <time>2023-04-28T11:30:19Z</time>
      </trkpt>
      <trkpt lat="49.23138" lon="-0.29348">
        <ele>10.6</ele>
        <time>2023-04-28T11:30:20Z</time>
      </trkpt>
      <trkpt lat="49.23144" lon="-0.29348">
        <ele>10.8</ele>
        <time>2023-04-28T11:30:21Z</time>
      </trkpt>
      <trkpt lat="49.2315" lon="-0.29347">
        <ele>10.8</ele>
        <time>2023-04-28T11:30:22Z</time>
      </trkpt>
      <trkpt lat="49.23156" lon="-0.29346">
        <ele>10.8</ele>
        <time>2023-04-28T11:30:23Z</time>
      </trkpt>
      <trkpt lat="49.23161" lon="-0.29346">
        <ele>11.2</ele>
        <time>2023-04-28T11:30:24Z</time>
      </trkpt>
      <trkpt lat="49.23167" lon="-0.29348">
        <ele>11.2</ele>
        <time>2023-04-28T11:30:25Z</time>
      </trkpt>
      <trkpt lat="49.23172" lon="-0.29353">
        <ele>11.6</ele>
        <time>2023-04-28T11:30:26Z</time>
      </trkpt>
      <trkpt lat="49.23176" lon="-0.29359">
        <ele>11.6</ele>
        <time>2023-04-28T11:30:27Z</time>
      </trkpt>
      <trkpt lat="49.23178" lon="-0.29367">
        <ele>11.8</ele>
        <time>2023-04-28T11:30:28Z</time>
      </trkpt>
      <trkpt lat="49.23178" lon="-0.29375">
        <ele>12</ele>
        <time>2023-04-28T11:30:29Z</time>
      </trkpt>
      <trkpt lat="49.23177" lon="-0.29383">
        <ele>12</ele>
        <time>2023-04-28T11:30:30Z</time>
      </trkpt>
      <trkpt lat="49.23174" lon="-0.2939">
        <ele>12</ele>
        <time>2023-04-28T11:30:31Z</time>
      </trkpt>
      <trkpt lat="49.2317" lon="-0.29396">
        <ele>11.8</ele>
        <time>2023-04-28T11:30:32Z</time>
      </trkpt>
      <trkpt lat="49.23166" lon="-0.29402">
        <ele>11.8</ele>
        <time>2023-04-28T11:30:33Z</time>
      </trkpt>
      <trkpt lat="49.23161" lon="-0.29406">
        <ele>11.8</ele>
        <time>2023-04-28T11:30:34Z</time>
      </trkpt>
      <trkpt lat="49.23156" lon="-0.29412">
        <ele>12</ele>
        <time>2023-04-28T11:30:35Z</time>
      </trkpt>
      <trkpt lat="49.23152" lon="-0.29418">
        <ele>12.2</ele>
        <time>2023-04-28T11:30:36Z</time>
      </trkpt>
      <trkpt lat="49.23149" lon="-0.29426">
        <ele>12.4</ele>
        <time>2023-04-28T11:30:37Z</time>
      </trkpt>
      <trkpt lat="49.23146" lon="-0.29434">
        <ele>12.6</ele>
        <time>2023-04-28T11:30:38Z</time>
      </trkpt>
      <trkpt lat="49.23144" lon="-0.29443">
        <ele>12.8</ele>
        <time>2023-04-28T11:30:39Z</time>
      </trkpt>
      <trkpt lat="49.23141" lon="-0.29451">
        <ele>13.2</ele>
        <time>2023-04-28T11:30:40Z</time>
      </trkpt>
      <trkpt lat="49.23138" lon="-0.29459">
        <ele>13.4</ele>
        <time>2023-04-28T11:30:41Z</time>
      </trkpt>
      <trkpt lat="49.23135" lon="-0.29467">
        <ele>13.6</ele>
        <time>2023-04-28T11:30:42Z</time>
      </trkpt>
      <trkpt lat="49.23132" lon="-0.29474">
        <ele>13.8</ele>
        <time>2023-04-28T11:30:43Z</time>
      </trkpt>
      <trkpt lat="49.23129" lon="-0.29482">
        <ele>14</ele>
        <time>2023-04-28T11:30:44Z</time>
      </trkpt>
      <trkpt lat="49.23126" lon="-0.29489">
        <ele>14.2</ele>
        <time>2023-04-28T11:30:45Z</time>
      </trkpt>
      <trkpt lat="49.23122" lon="-0.29496">
        <ele>14.4</ele>
        <time>2023-04-28T11:30:46Z</time>
      </trkpt>
      <trkpt lat="49.23118" lon="-0.29503">
        <ele>14.6</ele>
        <time>2023-04-28T11:30:47Z</time>
      </trkpt>
      <trkpt lat="49.23115" lon="-0.29509">
        <ele>14.6</ele>
        <time>2023-04-28T11:30:48Z</time>
      </trkpt>
      <trkpt lat="49.23111" lon="-0.29516">
        <ele>14.8</ele>
        <time>2023-04-28T11:30:49Z</time>
      </trkpt>
      <trkpt lat="49.23107" lon="-0.29522">
        <ele>14.8</ele>
        <time>2023-04-28T11:30:50Z</time>
      </trkpt>
      <trkpt lat="49.23103" lon="-0.29528">
        <ele>14.8</ele>
        <time>2023-04-28T11:30:51Z</time>
      </trkpt>
      <trkpt lat="49.23098" lon="-0.29534">
        <ele>15</ele>
        <time>2023-04-28T11:30:52Z</time>
      </trkpt>
      <trkpt lat="49.23094" lon="-0.29539">
        <ele>15</ele>
        <time>2023-04-28T11:30:53Z</time>
      </trkpt>
      <trkpt lat="49.23089" lon="-0.29545">
        <ele>15</ele>
        <time>2023-04-28T11:30:54Z</time>
      </trkpt>
      <trkpt lat="49.23085" lon="-0.2955">
        <ele>15</ele>
        <time>2023-04-28T11:30:55Z</time>
      </trkpt>
      <trkpt lat="49.2308" lon="-0.29554">
        <ele>15</ele>
        <time>2023-04-28T11:30:56Z</time>
      </trkpt>
      <trkpt lat="49.23075" lon="-0.29559">
        <ele>14.8</ele>
        <time>2023-04-28T11:30:57Z</time>
      </trkpt>
      <trkpt lat="49.2307" lon="-0.29564">
        <ele>14.8</ele>
        <time>2023-04-28T11:30:58Z</time>
      </trkpt>
      <trkpt lat="49.23065" lon="-0.29568">
        <ele>14.8</ele>
        <time>2023-04-28T11:30:59Z</time>
      </trkpt>
      <trkpt lat="49.2306" lon="-0.29571">
        <ele>14.8</ele>
        <time>2023-04-28T11:31:00Z</time>
      </trkpt>
      <trkpt lat="49.23055" lon="-0.29575">
        <ele>14.8</ele>
        <time>2023-04-28T11:31:01Z</time>
      </trkpt>
      <trkpt lat="49.23049" lon="-0.29579">
        <ele>15</ele>
        <time>2023-04-28T11:31:02Z</time>
      </trkpt>
      <trkpt lat="49.23044" lon="-0.29583">
        <ele>15</ele>
        <time>2023-04-28T11:31:03Z</time>
      </trkpt>
      <trkpt lat="49.23039" lon="-0.29587">
        <ele>15.2</ele>
        <time>2023-04-28T11:31:04Z</time>
      </trkpt>
      <trkpt lat="49.23034" lon="-0.29591">
        <ele>15.2</ele>
        <time>2023-04-28T11:31:05Z</time>
      </trkpt>
      <trkpt lat="49.2303" lon="-0.29597">
        <ele>15.2</ele>
        <time>2023-04-28T11:31:06Z</time>
      </trkpt>
      <trkpt lat="49.23027" lon="-0.29605">
        <ele>15.4</ele>
        <time>2023-04-28T11:31:07Z</time>
      </trkpt>
      <trkpt lat="49.23025" lon="-0.29613">
        <ele>15.6</ele>
        <time>2023-04-28T11:31:08Z</time>
      </trkpt>
      <trkpt lat="49.23023" lon="-0.29621">
        <ele>15.6</ele>
        <time>2023-04-28T11:31:09Z</time>
      </trkpt>
      <trkpt lat="49.2302" lon="-0.29628">
        <ele>15.6</ele>
        <time>2023-04-28T11:31:10Z</time>
      </trkpt>
      <trkpt lat="49.23018" lon="-0.29636">
        <ele>15.8</ele>
        <time>2023-04-28T11:31:11Z</time>
      </trkpt>
      <trkpt lat="49.23015" lon="-0.29643">
        <ele>15.8</ele>
        <time>2023-04-28T11:31:12Z</time>
      </trkpt>
      <trkpt lat="49.23012" lon="-0.2965">
        <ele>15.8</ele>
        <time>2023-04-28T11:31:13Z</time>
      </trkpt>
      <trkpt lat="49.23008" lon="-0.29656">
        <ele>16</ele>
        <time>2023-04-28T11:31:14Z</time>
      </trkpt>
      <trkpt lat="49.23004" lon="-0.29661">
        <ele>16</ele>
        <time>2023-04-28T11:31:15Z</time>
      </trkpt>
      <trkpt lat="49.23" lon="-0.29666">
        <ele>16</ele>
        <time>2023-04-28T11:31:16Z</time>
      </trkpt>
      <trkpt lat="49.22995" lon="-0.29671">
        <ele>16.2</ele>
        <time>2023-04-28T11:31:17Z</time>
      </trkpt>
      <trkpt lat="49.22991" lon="-0.29676">
        <ele>16.4</ele>
        <time>2023-04-28T11:31:18Z</time>
      </trkpt>
      <trkpt lat="49.22986" lon="-0.2968">
        <ele>16.6</ele>
        <time>2023-04-28T11:31:19Z</time>
      </trkpt>
      <trkpt lat="49.22982" lon="-0.29685">
        <ele>16.8</ele>
        <time>2023-04-28T11:31:20Z</time>
      </trkpt>
      <trkpt lat="49.22977" lon="-0.2969">
        <ele>17</ele>
        <time>2023-04-28T11:31:21Z</time>
      </trkpt>
      <trkpt lat="49.22973" lon="-0.29695">
        <ele>17.2</ele>
        <time>2023-04-28T11:31:22Z</time>
      </trkpt>
      <trkpt lat="49.22969" lon="-0.29699">
        <ele>17.4</ele>
        <time>2023-04-28T11:31:23Z</time>
      </trkpt>
      <trkpt lat="49.22964" lon="-0.29705">
        <ele>17.6</ele>
        <time>2023-04-28T11:31:24Z</time>
      </trkpt>
      <trkpt lat="49.2296" lon="-0.29709">
        <ele>17.8</ele>
        <time>2023-04-28T11:31:25Z</time>
      </trkpt>
      <trkpt lat="49.22956" lon="-0.29714">
        <ele>17.8</ele>
        <time>2023-04-28T11:31:26Z</time>
      </trkpt>
      <trkpt lat="49.22952" lon="-0.29719">
        <ele>18.2</ele>
        <time>2023-04-28T11:31:27Z</time>
      </trkpt>
      <trkpt lat="49.22947" lon="-0.29724">
        <ele>18.2</ele>
        <time>2023-04-28T11:31:28Z</time>
      </trkpt>
      <trkpt lat="49.22943" lon="-0.29729">
        <ele>18.4</ele>
        <time>2023-04-28T11:31:29Z</time>
      </trkpt>
      <trkpt lat="49.22939" lon="-0.29734">
        <ele>18.6</ele>
        <time>2023-04-28T11:31:30Z</time>
      </trkpt>
      <trkpt lat="49.22935" lon="-0.2974">
        <ele>18.8</ele>
        <time>2023-04-28T11:31:31Z</time>
      </trkpt>
      <trkpt lat="49.22932" lon="-0.29746">
        <ele>18.8</ele>
        <time>2023-04-28T11:31:32Z</time>
      </trkpt>
      <trkpt lat="49.22928" lon="-0.29752">
        <ele>19</ele>
        <time>2023-04-28T11:31:33Z</time>
      </trkpt>
      <trkpt lat="49.22925" lon="-0.29758">
        <ele>19</ele>
        <time>2023-04-28T11:31:34Z</time>
      </trkpt>
      <trkpt lat="49.22922" lon="-0.29765">
        <ele>19</ele>
        <time>2023-04-28T11:31:35Z</time>
      </trkpt>
      <trkpt lat="49.22919" lon="-0.29772">
        <ele>19</ele>
        <time>2023-04-28T11:31:36Z</time>
      </trkpt>
      <trkpt lat="49.22916" lon="-0.29779">
        <ele>19</ele>
        <time>2023-04-28T11:31:37Z</time>
      </trkpt>
      <trkpt lat="49.22914" lon="-0.29786">
        <ele>18.8</ele>
        <time>2023-04-28T11:31:38Z</time>
      </trkpt>
      <trkpt lat="49.22911" lon="-0.29793">
        <ele>18.6</ele>
        <time>2023-04-28T11:31:39Z</time>
      </trkpt>
      <trkpt lat="49.22909" lon="-0.298">
        <ele>18.6</ele>
        <time>2023-04-28T11:31:40Z</time>
      </trkpt>
      <trkpt lat="49.22907" lon="-0.29807">
        <ele>18.2</ele>
        <time>2023-04-28T11:31:41Z</time>
      </trkpt>
      <trkpt lat="49.22905" lon="-0.29814">
        <ele>18.2</ele>
        <time>2023-04-28T11:31:42Z</time>
      </trkpt>
      <trkpt lat="49.22903" lon="-0.29821">
        <ele>18.2</ele>
        <time>2023-04-28T11:31:43Z</time>
      </trkpt>
      <trkpt lat="49.22901" lon="-0.29828">
        <ele>18.2</ele>
        <time>2023-04-28T11:31:44Z</time>
      </trkpt>
      <trkpt lat="49.229" lon="-0.29835">
        <ele>18</ele>
        <time>2023-04-28T11:31:45Z</time>
      </trkpt>
      <trkpt lat="49.22898" lon="-0.29842">
        <ele>17.8</ele>
        <time>2023-04-28T11:31:46Z</time>
      </trkpt>
      <trkpt lat="49.22897" lon="-0.29849">
        <ele>17.8</ele>
        <time>2023-04-28T11:31:47Z</time>
      </trkpt>
      <trkpt lat="49.22895" lon="-0.29856">
        <ele>17.8</ele>
        <time>2023-04-28T11:31:48Z</time>
      </trkpt>
      <trkpt lat="49.22893" lon="-0.29863">
        <ele>17.8</ele>
        <time>2023-04-28T11:31:49Z</time>
      </trkpt>
      <trkpt lat="49.22892" lon="-0.2987">
        <ele>17.8</ele>
        <time>2023-04-28T11:31:50Z</time>
      </trkpt>
      <trkpt lat="49.2289" lon="-0.29877">
        <ele>17.8</ele>
        <time>2023-04-28T11:31:51Z</time>
      </trkpt>
      <trkpt lat="49.22887" lon="-0.29884">
        <ele>17.8</ele>
        <time>2023-04-28T11:31:52Z</time>
      </trkpt>
      <trkpt lat="49.22885" lon="-0.29891">
        <ele>17.6</ele>
        <time>2023-04-28T11:31:53Z</time>
      </trkpt>
      <trkpt lat="49.22883" lon="-0.29899">
        <ele>17.6</ele>
        <time>2023-04-28T11:31:54Z</time>
      </trkpt>
      <trkpt lat="49.22883" lon="-0.29907">
        <ele>17.8</ele>
        <time>2023-04-28T11:31:55Z</time>
      </trkpt>
      <trkpt lat="49.22884" lon="-0.29915">
        <ele>17.8</ele>
        <time>2023-04-28T11:31:56Z</time>
      </trkpt>
      <trkpt lat="49.22886" lon="-0.29922">
        <ele>18</ele>
        <time>2023-04-28T11:31:57Z</time>
      </trkpt>
      <trkpt lat="49.22888" lon="-0.29929">
        <ele>18.2</ele>
        <time>2023-04-28T11:31:58Z</time>
      </trkpt>
      <trkpt lat="49.2289" lon="-0.29937">
        <ele>18.2</ele>
        <time>2023-04-28T11:31:59Z</time>
      </trkpt>
      <trkpt lat="49.22892" lon="-0.29944">
        <ele>18.4</ele>
        <time>2023-04-28T11:32:00Z</time>
      </trkpt>
      <trkpt lat="49.22894" lon="-0.29951">
        <ele>18.6</ele>
        <time>2023-04-28T11:32:01Z</time>
      </trkpt>
      <trkpt lat="49.22895" lon="-0.29958">
        <ele>18.8</ele>
        <time>2023-04-28T11:32:02Z</time>
      </trkpt>
      <trkpt lat="49.22897" lon="-0.29964">
        <ele>18.8</ele>
        <time>2023-04-28T11:32:03Z</time>
      </trkpt>
      <trkpt lat="49.22899" lon="-0.29971">
        <ele>19</ele>
        <time>2023-04-28T11:32:04Z</time>
      </trkpt>
      <trkpt lat="49.229" lon="-0.29978">
        <ele>19.2</ele>
        <time>2023-04-28T11:32:05Z</time>
      </trkpt>
      <trkpt lat="49.22902" lon="-0.29985">
        <ele>19.2</ele>
        <time>2023-04-28T11:32:06Z</time>
      </trkpt>
      <trkpt lat="49.22904" lon="-0.29991">
        <ele>19.4</ele>
        <time>2023-04-28T11:32:07Z</time>
      </trkpt>
      <trkpt lat="49.22905" lon="-0.29998">
        <ele>19.6</ele>
        <time>2023-04-28T11:32:08Z</time>
      </trkpt>
      <trkpt lat="49.22907" lon="-0.30005">
        <ele>19.8</ele>
        <time>2023-04-28T11:32:09Z</time>
      </trkpt>
      <trkpt lat="49.22909" lon="-0.30011">
        <ele>19.8</ele>
        <time>2023-04-28T11:32:10Z</time>
      </trkpt>
      <trkpt lat="49.22911" lon="-0.30017">
        <ele>20</ele>
        <time>2023-04-28T11:32:11Z</time>
      </trkpt>
      <trkpt lat="49.22913" lon="-0.30023">
        <ele>20.2</ele>
        <time>2023-04-28T11:32:12Z</time>
      </trkpt>
      <trkpt lat="49.22915" lon="-0.30028">
        <ele>20.2</ele>
        <time>2023-04-28T11:32:13Z</time>
      </trkpt>
      <trkpt lat="49.22918" lon="-0.30033">
        <ele>20.4</ele>
        <time>2023-04-28T11:32:14Z</time>
      </trkpt>
      <trkpt lat="49.2292" lon="-0.30039">
        <ele>20.6</ele>
        <time>2023-04-28T11:32:15Z</time>
      </trkpt>
      <trkpt lat="49.22923" lon="-0.30044">
        <ele>20.6</ele>
        <time>2023-04-28T11:32:16Z</time>
      </trkpt>
      <trkpt lat="49.22925" lon="-0.30049">
        <ele>20.6</ele>
        <time>2023-04-28T11:32:17Z</time>
      </trkpt>
      <trkpt lat="49.22928" lon="-0.30054">
        <ele>20.8</ele>
        <time>2023-04-28T11:32:18Z</time>
      </trkpt>
      <trkpt lat="49.2293" lon="-0.30059">
        <ele>20.8</ele>
        <time>2023-04-28T11:32:19Z</time>
      </trkpt>
      <trkpt lat="49.22933" lon="-0.30064">
        <ele>20.8</ele>
        <time>2023-04-28T11:32:20Z</time>
      </trkpt>
      <trkpt lat="49.22936" lon="-0.3007">
        <ele>21</ele>
        <time>2023-04-28T11:32:21Z</time>
      </trkpt>
      <trkpt lat="49.22938" lon="-0.30075">
        <ele>21.2</ele>
        <time>2023-04-28T11:32:22Z</time>
      </trkpt>
      <trkpt lat="49.22941" lon="-0.3008">
        <ele>21.2</ele>
        <time>2023-04-28T11:32:23Z</time>
      </trkpt>
      <trkpt lat="49.22943" lon="-0.30085">
        <ele>21.2</ele>
        <time>2023-04-28T11:32:24Z</time>
      </trkpt>
      <trkpt lat="49.22946" lon="-0.30091">
        <ele>21.4</ele>
        <time>2023-04-28T11:32:25Z</time>
      </trkpt>
      <trkpt lat="49.22949" lon="-0.30096">
        <ele>21.6</ele>
        <time>2023-04-28T11:32:26Z</time>
      </trkpt>
      <trkpt lat="49.22951" lon="-0.30102">
        <ele>21.6</ele>
        <time>2023-04-28T11:32:27Z</time>
      </trkpt>
      <trkpt lat="49.22954" lon="-0.30107">
        <ele>21.6</ele>
        <time>2023-04-28T11:32:28Z</time>
      </trkpt>
      <trkpt lat="49.22957" lon="-0.30113">
        <ele>21.8</ele>
        <time>2023-04-28T11:32:29Z</time>
      </trkpt>
      <trkpt lat="49.22959" lon="-0.30118">
        <ele>21.8</ele>
        <time>2023-04-28T11:32:30Z</time>
      </trkpt>
      <trkpt lat="49.22962" lon="-0.30124">
        <ele>21.8</ele>
        <time>2023-04-28T11:32:31Z</time>
      </trkpt>
      <trkpt lat="49.22964" lon="-0.30129">
        <ele>21.8</ele>
        <time>2023-04-28T11:32:32Z</time>
      </trkpt>
      <trkpt lat="49.22967" lon="-0.30135">
        <ele>21.8</ele>
        <time>2023-04-28T11:32:33Z</time>
      </trkpt>
      <trkpt lat="49.2297" lon="-0.30141">
        <ele>21.8</ele>
        <time>2023-04-28T11:32:34Z</time>
      </trkpt>
      <trkpt lat="49.22973" lon="-0.30147">
        <ele>21.8</ele>
        <time>2023-04-28T11:32:35Z</time>
      </trkpt>
      <trkpt lat="49.22975" lon="-0.30153">
        <ele>21.8</ele>
        <time>2023-04-28T11:32:36Z</time>
      </trkpt>
      <trkpt lat="49.22978" lon="-0.30158">
        <ele>22</ele>
        <time>2023-04-28T11:32:37Z</time>
      </trkpt>
      <trkpt lat="49.22981" lon="-0.30164">
        <ele>22</ele>
        <time>2023-04-28T11:32:38Z</time>
      </trkpt>
      <trkpt lat="49.22983" lon="-0.3017">
        <ele>22</ele>
        <time>2023-04-28T11:32:39Z</time>
      </trkpt>
      <trkpt lat="49.22986" lon="-0.30176">
        <ele>21.8</ele>
        <time>2023-04-28T11:32:40Z</time>
      </trkpt>
      <trkpt lat="49.22989" lon="-0.30182">
        <ele>21.8</ele>
        <time>2023-04-28T11:32:41Z</time>
      </trkpt>
      <trkpt lat="49.22992" lon="-0.30187">
        <ele>21.8</ele>
        <time>2023-04-28T11:32:42Z</time>
      </trkpt>
      <trkpt lat="49.22994" lon="-0.30193">
        <ele>21.8</ele>
        <time>2023-04-28T11:32:43Z</time>
      </trkpt>
      <trkpt lat="49.22997" lon="-0.30199">
        <ele>21.6</ele>
        <time>2023-04-28T11:32:44Z</time>
      </trkpt>
      <trkpt lat="49.23" lon="-0.30205">
        <ele>21.6</ele>
        <time>2023-04-28T11:32:45Z</time>
      </trkpt>
      <trkpt lat="49.23003" lon="-0.30211">
        <ele>21.6</ele>
        <time>2023-04-28T11:32:46Z</time>
      </trkpt>
      <trkpt lat="49.23005" lon="-0.30217">
        <ele>21.6</ele>
        <time>2023-04-28T11:32:47Z</time>
      </trkpt>
      <trkpt lat="49.23008" lon="-0.30223">
        <ele>21.6</ele>
        <time>2023-04-28T11:32:48Z</time>
      </trkpt>
      <trkpt lat="49.23011" lon="-0.30229">
        <ele>21.6</ele>
        <time>2023-04-28T11:32:49Z</time>
      </trkpt>
      <trkpt lat="49.23014" lon="-0.30236">
        <ele>21.6</ele>
        <time>2023-04-28T11:32:50Z</time>
      </trkpt>
      <trkpt lat="49.23016" lon="-0.30242">
        <ele>21.6</ele>
        <time>2023-04-28T11:32:51Z</time>
      </trkpt>
      <trkpt lat="49.23019" lon="-0.30248">
        <ele>21.6</ele>
        <time>2023-04-28T11:32:52Z</time>
      </trkpt>
      <trkpt lat="49.23022" lon="-0.30255">
        <ele>21.6</ele>
        <time>2023-04-28T11:32:53Z</time>
      </trkpt>
      <trkpt lat="49.23025" lon="-0.30261">
        <ele>21.8</ele>
        <time>2023-04-28T11:32:54Z</time>
      </trkpt>
      <trkpt lat="49.23027" lon="-0.30268">
        <ele>21.8</ele>
        <time>2023-04-28T11:32:55Z</time>
      </trkpt>
      <trkpt lat="49.2303" lon="-0.30274">
        <ele>22</ele>
        <time>2023-04-28T11:32:56Z</time>
      </trkpt>
      <trkpt lat="49.23033" lon="-0.30281">
        <ele>22.2</ele>
        <time>2023-04-28T11:32:57Z</time>
      </trkpt>
      <trkpt lat="49.23035" lon="-0.30288">
        <ele>22.2</ele>
        <time>2023-04-28T11:32:58Z</time>
      </trkpt>
      <trkpt lat="49.23038" lon="-0.30295">
        <ele>22.2</ele>
        <time>2023-04-28T11:32:59Z</time>
      </trkpt>
      <trkpt lat="49.23041" lon="-0.30301">
        <ele>22.2</ele>
        <time>2023-04-28T11:33:00Z</time>
      </trkpt>
      <trkpt lat="49.23043" lon="-0.30308">
        <ele>22.2</ele>
        <time>2023-04-28T11:33:01Z</time>
      </trkpt>
      <trkpt lat="49.23046" lon="-0.30315">
        <ele>22.4</ele>
        <time>2023-04-28T11:33:02Z</time>
      </trkpt>
      <trkpt lat="49.23048" lon="-0.30321">
        <ele>22.4</ele>
        <time>2023-04-28T11:33:03Z</time>
      </trkpt>
      <trkpt lat="49.23051" lon="-0.30328">
        <ele>22.4</ele>
        <time>2023-04-28T11:33:04Z</time>
      </trkpt>
      <trkpt lat="49.23053" lon="-0.30334">
        <ele>22.4</ele>
        <time>2023-04-28T11:33:05Z</time>
      </trkpt>
      <trkpt lat="49.23055" lon="-0.30341">
        <ele>22.6</ele>
        <time>2023-04-28T11:33:06Z</time>
      </trkpt>
      <trkpt lat="49.23058" lon="-0.30347">
        <ele>22.8</ele>
        <time>2023-04-28T11:33:07Z</time>
      </trkpt>
      <trkpt lat="49.2306" lon="-0.30354">
        <ele>22.8</ele>
        <time>2023-04-28T11:33:08Z</time>
      </trkpt>
      <trkpt lat="49.23063" lon="-0.3036">
        <ele>23.2</ele>
        <time>2023-04-28T11:33:09Z</time>
      </trkpt>
      <trkpt lat="49.23065" lon="-0.30367">
        <ele>23.2</ele>
        <time>2023-04-28T11:33:10Z</time>
      </trkpt>
      <trkpt lat="49.23067" lon="-0.30373">
        <ele>23.6</ele>
        <time>2023-04-28T11:33:11Z</time>
      </trkpt>
      <trkpt lat="49.2307" lon="-0.3038">
        <ele>23.8</ele>
        <time>2023-04-28T11:33:12Z</time>
      </trkpt>
      <trkpt lat="49.23072" lon="-0.30387">
        <ele>24</ele>
        <time>2023-04-28T11:33:13Z</time>
      </trkpt>
      <trkpt lat="49.23074" lon="-0.30393">
        <ele>24.2</ele>
        <time>2023-04-28T11:33:14Z</time>
      </trkpt>
      <trkpt lat="49.23077" lon="-0.304">
        <ele>24.4</ele>
        <time>2023-04-28T11:33:15Z</time>
      </trkpt>
      <trkpt lat="49.23079" lon="-0.30406">
        <ele>24.6</ele>
        <time>2023-04-28T11:33:16Z</time>
      </trkpt>
      <trkpt lat="49.23081" lon="-0.30412">
        <ele>24.8</ele>
        <time>2023-04-28T11:33:17Z</time>
      </trkpt>
      <trkpt lat="49.23084" lon="-0.30419">
        <ele>25</ele>
        <time>2023-04-28T11:33:18Z</time>
      </trkpt>
      <trkpt lat="49.23086" lon="-0.30425">
        <ele>25</ele>
        <time>2023-04-28T11:33:19Z</time>
      </trkpt>
      <trkpt lat="49.23088" lon="-0.30431">
        <ele>25.2</ele>
        <time>2023-04-28T11:33:20Z</time>
      </trkpt>
      <trkpt lat="49.23091" lon="-0.30437">
        <ele>25.2</ele>
        <time>2023-04-28T11:33:21Z</time>
      </trkpt>
      <trkpt lat="49.23093" lon="-0.30444">
        <ele>25.2</ele>
        <time>2023-04-28T11:33:22Z</time>
      </trkpt>
      <trkpt lat="49.23095" lon="-0.3045">
        <ele>25.2</ele>
        <time>2023-04-28T11:33:23Z</time>
      </trkpt>
      <trkpt lat="49.23096" lon="-0.30457">
        <ele>25.2</ele>
        <time>2023-04-28T11:33:24Z</time>
      </trkpt>
      <trkpt lat="49.23098" lon="-0.30463">
        <ele>25.4</ele>
        <time>2023-04-28T11:33:25Z</time>
      </trkpt>
      <trkpt lat="49.23099" lon="-0.30469">
        <ele>25.4</ele>
        <time>2023-04-28T11:33:26Z</time>
      </trkpt>
      <trkpt lat="49.23101" lon="-0.30476">
        <ele>25.6</ele>
        <time>2023-04-28T11:33:27Z</time>
      </trkpt>
      <trkpt lat="49.23102" lon="-0.30483">
        <ele>25.6</ele>
        <time>2023-04-28T11:33:28Z</time>
      </trkpt>
      <trkpt lat="49.23103" lon="-0.30489">
        <ele>25.6</ele>
        <time>2023-04-28T11:33:29Z</time>
      </trkpt>
      <trkpt lat="49.23103" lon="-0.30496">
        <ele>25.8</ele>
        <time>2023-04-28T11:33:30Z</time>
      </trkpt>
      <trkpt lat="49.23104" lon="-0.30502">
        <ele>25.8</ele>
        <time>2023-04-28T11:33:31Z</time>
      </trkpt>
      <trkpt lat="49.23104" lon="-0.30509">
        <ele>25.8</ele>
        <time>2023-04-28T11:33:32Z</time>
      </trkpt>
      <trkpt lat="49.23105" lon="-0.30516">
        <ele>25.8</ele>
        <time>2023-04-28T11:33:33Z</time>
      </trkpt>
      <trkpt lat="49.23105" lon="-0.30523">
        <ele>25.8</ele>
        <time>2023-04-28T11:33:34Z</time>
      </trkpt>
      <trkpt lat="49.23105" lon="-0.30529">
        <ele>25.8</ele>
        <time>2023-04-28T11:33:35Z</time>
      </trkpt>
      <trkpt lat="49.23105" lon="-0.30536">
        <ele>25.8</ele>
        <time>2023-04-28T11:33:36Z</time>
      </trkpt>
      <trkpt lat="49.23106" lon="-0.30543">
        <ele>25.8</ele>
        <time>2023-04-28T11:33:37Z</time>
      </trkpt>
      <trkpt lat="49.23106" lon="-0.30551">
        <ele>25.8</ele>
        <time>2023-04-28T11:33:38Z</time>
      </trkpt>
      <trkpt lat="49.23107" lon="-0.30558">
        <ele>25.8</ele>
        <time>2023-04-28T11:33:39Z</time>
      </trkpt>
      <trkpt lat="49.23108" lon="-0.30565">
        <ele>25.8</ele>
        <time>2023-04-28T11:33:40Z</time>
      </trkpt>
      <trkpt lat="49.2311" lon="-0.30573">
        <ele>25.8</ele>
        <time>2023-04-28T11:33:41Z</time>
      </trkpt>
      <trkpt lat="49.23111" lon="-0.3058">
        <ele>26</ele>
        <time>2023-04-28T11:33:42Z</time>
      </trkpt>
      <trkpt lat="49.23114" lon="-0.30588">
        <ele>26.2</ele>
        <time>2023-04-28T11:33:43Z</time>
      </trkpt>
      <trkpt lat="49.23116" lon="-0.30595">
        <ele>26.2</ele>
        <time>2023-04-28T11:33:44Z</time>
      </trkpt>
      <trkpt lat="49.2312" lon="-0.306">
        <ele>26.2</ele>
        <time>2023-04-28T11:33:45Z</time>
      </trkpt>
      <trkpt lat="49.23124" lon="-0.30604">
        <ele>26.6</ele>
        <time>2023-04-28T11:33:46Z</time>
      </trkpt>
      <trkpt lat="49.23129" lon="-0.30607">
        <ele>26.6</ele>
        <time>2023-04-28T11:33:47Z</time>
      </trkpt>
      <trkpt lat="49.23134" lon="-0.30611">
        <ele>26.8</ele>
        <time>2023-04-28T11:33:48Z</time>
      </trkpt>
      <trkpt lat="49.23138" lon="-0.30616">
        <ele>26.8</ele>
        <time>2023-04-28T11:33:49Z</time>
      </trkpt>
      <trkpt lat="49.23142" lon="-0.30622">
        <ele>26.8</ele>
        <time>2023-04-28T11:33:50Z</time>
      </trkpt>
      <trkpt lat="49.23144" lon="-0.30629">
        <ele>26.8</ele>
        <time>2023-04-28T11:33:51Z</time>
      </trkpt>
      <trkpt lat="49.23145" lon="-0.30637">
        <ele>26.8</ele>
        <time>2023-04-28T11:33:52Z</time>
      </trkpt>
      <trkpt lat="49.23144" lon="-0.30645">
        <ele>26.8</ele>
        <time>2023-04-28T11:33:53Z</time>
      </trkpt>
      <trkpt lat="49.23144" lon="-0.30653">
        <ele>26.8</ele>
        <time>2023-04-28T11:33:54Z</time>
      </trkpt>
      <trkpt lat="49.23143" lon="-0.30661">
        <ele>26.8</ele>
        <time>2023-04-28T11:33:55Z</time>
      </trkpt>
      <trkpt lat="49.23143" lon="-0.30669">
        <ele>26.8</ele>
        <time>2023-04-28T11:33:56Z</time>
      </trkpt>
      <trkpt lat="49.23143" lon="-0.30677">
        <ele>26.8</ele>
        <time>2023-04-28T11:33:57Z</time>
      </trkpt>
      <trkpt lat="49.23144" lon="-0.30683">
        <ele>27</ele>
        <time>2023-04-28T11:33:58Z</time>
      </trkpt>
      <trkpt lat="49.23145" lon="-0.30688">
        <ele>27.2</ele>
        <time>2023-04-28T11:33:59Z</time>
      </trkpt>
      <trkpt lat="49.23145" lon="-0.30692">
        <ele>27.2</ele>
        <time>2023-04-28T11:34:00Z</time>
      </trkpt>
      <trkpt lat="49.23144" lon="-0.30695">
        <ele>27.2</ele>
        <time>2023-04-28T11:34:01Z</time>
      </trkpt>
      <trkpt lat="49.23141" lon="-0.30699">
        <ele>27.2</ele>
        <time>2023-04-28T11:34:02Z</time>
      </trkpt>
      <trkpt lat="49.23139" lon="-0.30702">
        <ele>27.4</ele>
        <time>2023-04-28T11:34:03Z</time>
      </trkpt>
      <trkpt lat="49.2314" lon="-0.30707">
        <ele>27.6</ele>
        <time>2023-04-28T11:34:04Z</time>
      </trkpt>
      <trkpt lat="49.23143" lon="-0.30712">
        <ele>27.6</ele>
        <time>2023-04-28T11:34:05Z</time>
      </trkpt>
      <trkpt lat="49.23146" lon="-0.30717">
        <ele>27.6</ele>
        <time>2023-04-28T11:34:06Z</time>
      </trkpt>
      <trkpt lat="49.2315" lon="-0.30721">
        <ele>27.8</ele>
        <time>2023-04-28T11:34:07Z</time>
      </trkpt>
      <trkpt lat="49.23154" lon="-0.30725">
        <ele>27.8</ele>
        <time>2023-04-28T11:34:08Z</time>
      </trkpt>
      <trkpt lat="49.23158" lon="-0.30729">
        <ele>27.8</ele>
        <time>2023-04-28T11:34:09Z</time>
      </trkpt>
      <trkpt lat="49.23162" lon="-0.30733">
        <ele>27.8</ele>
        <time>2023-04-28T11:34:10Z</time>
      </trkpt>
      <trkpt lat="49.23167" lon="-0.30737">
        <ele>27.8</ele>
        <time>2023-04-28T11:34:11Z</time>
      </trkpt>
      <trkpt lat="49.23171" lon="-0.30741">
        <ele>27.8</ele>
        <time>2023-04-28T11:34:12Z</time>
      </trkpt>
      <trkpt lat="49.23175" lon="-0.30745">
        <ele>28</ele>
        <time>2023-04-28T11:34:13Z</time>
      </trkpt>
      <trkpt lat="49.2318" lon="-0.30748">
        <ele>28.2</ele>
        <time>2023-04-28T11:34:14Z</time>
      </trkpt>
      <trkpt lat="49.23184" lon="-0.30752">
        <ele>28.2</ele>
        <time>2023-04-28T11:34:15Z</time>
      </trkpt>
      <trkpt lat="49.23188" lon="-0.30756">
        <ele>28.2</ele>
        <time>2023-04-28T11:34:16Z</time>
      </trkpt>
      <trkpt lat="49.23192" lon="-0.3076">
        <ele>28.2</ele>
        <time>2023-04-28T11:34:17Z</time>
      </trkpt>
      <trkpt lat="49.23196" lon="-0.30765">
        <ele>28.2</ele>
        <time>2023-04-28T11:34:18Z</time>
      </trkpt>
      <trkpt lat="49.232" lon="-0.3077">
        <ele>28.2</ele>
        <time>2023-04-28T11:34:19Z</time>
      </trkpt>
      <trkpt lat="49.23203" lon="-0.30775">
        <ele>28.2</ele>
        <time>2023-04-28T11:34:20Z</time>
      </trkpt>
      <trkpt lat="49.23206" lon="-0.30781">
        <ele>28.2</ele>
        <time>2023-04-28T11:34:21Z</time>
      </trkpt>
      <trkpt lat="49.23208" lon="-0.30788">
        <ele>28.2</ele>
        <time>2023-04-28T11:34:22Z</time>
      </trkpt>
      <trkpt lat="49.2321" lon="-0.30795">
        <ele>28.2</ele>
        <time>2023-04-28T11:34:23Z</time>
      </trkpt>
      <trkpt lat="49.23213" lon="-0.30803">
        <ele>28.2</ele>
        <time>2023-04-28T11:34:24Z</time>
      </trkpt>
      <trkpt lat="49.23215" lon="-0.3081">
        <ele>28.2</ele>
        <time>2023-04-28T11:34:25Z</time>
      </trkpt>
      <trkpt lat="49.23218" lon="-0.30817">
        <ele>28.2</ele>
        <time>2023-04-28T11:34:26Z</time>
      </trkpt>
      <trkpt lat="49.2322" lon="-0.30824">
        <ele>28.2</ele>
        <time>2023-04-28T11:34:27Z</time>
      </trkpt>
      <trkpt lat="49.23223" lon="-0.30832">
        <ele>28</ele>
        <time>2023-04-28T11:34:28Z</time>
      </trkpt>
      <trkpt lat="49.23226" lon="-0.30839">
        <ele>28</ele>
        <time>2023-04-28T11:34:29Z</time>
      </trkpt>
      <trkpt lat="49.23228" lon="-0.30846">
        <ele>28</ele>
        <time>2023-04-28T11:34:30Z</time>
      </trkpt>
      <trkpt lat="49.23231" lon="-0.30854">
        <ele>27.8</ele>
        <time>2023-04-28T11:34:31Z</time>
      </trkpt>
      <trkpt lat="49.23234" lon="-0.30861">
        <ele>27.8</ele>
        <time>2023-04-28T11:34:32Z</time>
      </trkpt>
      <trkpt lat="49.23236" lon="-0.30868">
        <ele>27.8</ele>
        <time>2023-04-28T11:34:33Z</time>
      </trkpt>
      <trkpt lat="49.23239" lon="-0.30876">
        <ele>27.8</ele>
        <time>2023-04-28T11:34:34Z</time>
      </trkpt>
      <trkpt lat="49.23242" lon="-0.30883">
        <ele>27.8</ele>
        <time>2023-04-28T11:34:35Z</time>
      </trkpt>
      <trkpt lat="49.23244" lon="-0.3089">
        <ele>28</ele>
        <time>2023-04-28T11:34:36Z</time>
      </trkpt>
      <trkpt lat="49.23247" lon="-0.30898">
        <ele>28</ele>
        <time>2023-04-28T11:34:37Z</time>
      </trkpt>
      <trkpt lat="49.23249" lon="-0.30905">
        <ele>28</ele>
        <time>2023-04-28T11:34:38Z</time>
      </trkpt>
      <trkpt lat="49.23252" lon="-0.30912">
        <ele>28</ele>
        <time>2023-04-28T11:34:39Z</time>
      </trkpt>
      <trkpt lat="49.23255" lon="-0.30919">
        <ele>28.2</ele>
        <time>2023-04-28T11:34:40Z</time>
      </trkpt>
      <trkpt lat="49.23257" lon="-0.30927">
        <ele>28.2</ele>
        <time>2023-04-28T11:34:41Z</time>
      </trkpt>
      <trkpt lat="49.2326" lon="-0.30934">
        <ele>28.6</ele>
        <time>2023-04-28T11:34:42Z</time>
      </trkpt>
      <trkpt lat="49.23262" lon="-0.30941">
        <ele>28.8</ele>
        <time>2023-04-28T11:34:43Z</time>
      </trkpt>
      <trkpt lat="49.23265" lon="-0.30948">
        <ele>28.8</ele>
        <time>2023-04-28T11:34:44Z</time>
      </trkpt>
      <trkpt lat="49.23268" lon="-0.30955">
        <ele>29</ele>
        <time>2023-04-28T11:34:45Z</time>
      </trkpt>
      <trkpt lat="49.2327" lon="-0.30962">
        <ele>29.2</ele>
        <time>2023-04-28T11:34:46Z</time>
      </trkpt>
      <trkpt lat="49.23273" lon="-0.30969">
        <ele>29.4</ele>
        <time>2023-04-28T11:34:47Z</time>
      </trkpt>
      <trkpt lat="49.23275" lon="-0.30976">
        <ele>29.6</ele>
        <time>2023-04-28T11:34:48Z</time>
      </trkpt>
      <trkpt lat="49.23277" lon="-0.30983">
        <ele>29.8</ele>
        <time>2023-04-28T11:34:49Z</time>
      </trkpt>
      <trkpt lat="49.23279" lon="-0.30989">
        <ele>29.8</ele>
        <time>2023-04-28T11:34:50Z</time>
      </trkpt>
      <trkpt lat="49.23282" lon="-0.30996">
        <ele>29.8</ele>
        <time>2023-04-28T11:34:51Z</time>
      </trkpt>
      <trkpt lat="49.23284" lon="-0.31001">
        <ele>30</ele>
        <time>2023-04-28T11:34:52Z</time>
      </trkpt>
      <trkpt lat="49.23288" lon="-0.31005">
        <ele>30</ele>
        <time>2023-04-28T11:34:53Z</time>
      </trkpt>
      <trkpt lat="49.23291" lon="-0.31005">
        <ele>30</ele>
        <time>2023-04-28T11:34:54Z</time>
      </trkpt>
      <trkpt lat="49.23295" lon="-0.31004">
        <ele>30</ele>
        <time>2023-04-28T11:34:55Z</time>
      </trkpt>
      <trkpt lat="49.23298" lon="-0.31003">
        <ele>30</ele>
        <time>2023-04-28T11:34:56Z</time>
      </trkpt>
      <trkpt lat="49.23303" lon="-0.31002">
        <ele>30</ele>
        <time>2023-04-28T11:34:57Z</time>
      </trkpt>
      <trkpt lat="49.23307" lon="-0.31001">
        <ele>30</ele>
        <time>2023-04-28T11:34:58Z</time>
      </trkpt>
      <trkpt lat="49.23312" lon="-0.30999">
        <ele>30</ele>
        <time>2023-04-28T11:34:59Z</time>
      </trkpt>
      <trkpt lat="49.23316" lon="-0.30996">
        <ele>29.8</ele>
        <time>2023-04-28T11:35:00Z</time>
      </trkpt>
      <trkpt lat="49.23321" lon="-0.30993">
        <ele>29.8</ele>
        <time>2023-04-28T11:35:01Z</time>
      </trkpt>
      <trkpt lat="49.23325" lon="-0.30988">
        <ele>29.8</ele>
        <time>2023-04-28T11:35:02Z</time>
      </trkpt>
      <trkpt lat="49.2333" lon="-0.30984">
        <ele>29.8</ele>
        <time>2023-04-28T11:35:03Z</time>
      </trkpt>
      <trkpt lat="49.23334" lon="-0.30978">
        <ele>29.8</ele>
        <time>2023-04-28T11:35:04Z</time>
      </trkpt>
      <trkpt lat="49.23338" lon="-0.30973">
        <ele>29.8</ele>
        <time>2023-04-28T11:35:05Z</time>
      </trkpt>
      <trkpt lat="49.23343" lon="-0.30967">
        <ele>29.8</ele>
        <time>2023-04-28T11:35:06Z</time>
      </trkpt>
      <trkpt lat="49.23348" lon="-0.30962">
        <ele>29.8</ele>
        <time>2023-04-28T11:35:07Z</time>
      </trkpt>
      <trkpt lat="49.23353" lon="-0.30956">
        <ele>29.8</ele>
        <time>2023-04-28T11:35:08Z</time>
      </trkpt>
      <trkpt lat="49.23358" lon="-0.30951">
        <ele>29.8</ele>
        <time>2023-04-28T11:35:09Z</time>
      </trkpt>
      <trkpt lat="49.23363" lon="-0.30947">
        <ele>29.8</ele>
        <time>2023-04-28T11:35:10Z</time>
      </trkpt>
      <trkpt lat="49.23369" lon="-0.30943">
        <ele>29.8</ele>
        <time>2023-04-28T11:35:11Z</time>
      </trkpt>
      <trkpt lat="49.23374" lon="-0.30939">
        <ele>30</ele>
        <time>2023-04-28T11:35:12Z</time>
      </trkpt>
      <trkpt lat="49.2338" lon="-0.30935">
        <ele>30.2</ele>
        <time>2023-04-28T11:35:13Z</time>
      </trkpt>
      <trkpt lat="49.23386" lon="-0.30932">
        <ele>30.2</ele>
        <time>2023-04-28T11:35:14Z</time>
      </trkpt>
      <trkpt lat="49.23392" lon="-0.3093">
        <ele>30.2</ele>
        <time>2023-04-28T11:35:15Z</time>
      </trkpt>
      <trkpt lat="49.23398" lon="-0.30927">
        <ele>30.6</ele>
        <time>2023-04-28T11:35:16Z</time>
      </trkpt>
      <trkpt lat="49.23404" lon="-0.30925">
        <ele>30.6</ele>
        <time>2023-04-28T11:35:17Z</time>
      </trkpt>
      <trkpt lat="49.2341" lon="-0.30923">
        <ele>30.8</ele>
        <time>2023-04-28T11:35:18Z</time>
      </trkpt>
      <trkpt lat="49.23417" lon="-0.30922">
        <ele>30.8</ele>
        <time>2023-04-28T11:35:19Z</time>
      </trkpt>
      <trkpt lat="49.23423" lon="-0.30921">
        <ele>30.8</ele>
        <time>2023-04-28T11:35:20Z</time>
      </trkpt>
      <trkpt lat="49.2343" lon="-0.3092">
        <ele>30.6</ele>
        <time>2023-04-28T11:35:21Z</time>
      </trkpt>
      <trkpt lat="49.23436" lon="-0.3092">
        <ele>30.6</ele>
        <time>2023-04-28T11:35:22Z</time>
      </trkpt>
      <trkpt lat="49.23443" lon="-0.3092">
        <ele>30.2</ele>
        <time>2023-04-28T11:35:23Z</time>
      </trkpt>
      <trkpt lat="49.23449" lon="-0.3092">
        <ele>30.2</ele>
        <time>2023-04-28T11:35:24Z</time>
      </trkpt>
      <trkpt lat="49.23456" lon="-0.30921">
        <ele>30</ele>
        <time>2023-04-28T11:35:25Z</time>
      </trkpt>
      <trkpt lat="49.23462" lon="-0.30923">
        <ele>29.8</ele>
        <time>2023-04-28T11:35:26Z</time>
      </trkpt>
      <trkpt lat="49.23468" lon="-0.30925">
        <ele>29.8</ele>
        <time>2023-04-28T11:35:27Z</time>
      </trkpt>
      <trkpt lat="49.23474" lon="-0.30928">
        <ele>29.6</ele>
        <time>2023-04-28T11:35:28Z</time>
      </trkpt>
      <trkpt lat="49.2348" lon="-0.30932">
        <ele>29.2</ele>
        <time>2023-04-28T11:35:29Z</time>
      </trkpt>
      <trkpt lat="49.23486" lon="-0.30936">
        <ele>29.2</ele>
        <time>2023-04-28T11:35:30Z</time>
      </trkpt>
      <trkpt lat="49.23491" lon="-0.30941">
        <ele>28.8</ele>
        <time>2023-04-28T11:35:31Z</time>
      </trkpt>
      <trkpt lat="49.23496" lon="-0.30947">
        <ele>28.8</ele>
        <time>2023-04-28T11:35:32Z</time>
      </trkpt>
      <trkpt lat="49.235" lon="-0.30953">
        <ele>28.6</ele>
        <time>2023-04-28T11:35:33Z</time>
      </trkpt>
      <trkpt lat="49.23505" lon="-0.30959">
        <ele>28.4</ele>
        <time>2023-04-28T11:35:34Z</time>
      </trkpt>
      <trkpt lat="49.23509" lon="-0.30966">
        <ele>28.2</ele>
        <time>2023-04-28T11:35:35Z</time>
      </trkpt>
      <trkpt lat="49.23513" lon="-0.30973">
        <ele>28.2</ele>
        <time>2023-04-28T11:35:36Z</time>
      </trkpt>
      <trkpt lat="49.23517" lon="-0.30981">
        <ele>28</ele>
        <time>2023-04-28T11:35:37Z</time>
      </trkpt>
      <trkpt lat="49.23521" lon="-0.30988">
        <ele>27.8</ele>
        <time>2023-04-28T11:35:38Z</time>
      </trkpt>
      <trkpt lat="49.23525" lon="-0.30995">
        <ele>27.8</ele>
        <time>2023-04-28T11:35:39Z</time>
      </trkpt>
      <trkpt lat="49.23529" lon="-0.31003">
        <ele>27.8</ele>
        <time>2023-04-28T11:35:40Z</time>
      </trkpt>
      <trkpt lat="49.23533" lon="-0.3101">
        <ele>27.6</ele>
        <time>2023-04-28T11:35:41Z</time>
      </trkpt>
      <trkpt lat="49.23538" lon="-0.31017">
        <ele>27.6</ele>
        <time>2023-04-28T11:35:42Z</time>
      </trkpt>
      <trkpt lat="49.23542" lon="-0.31025">
        <ele>27.6</ele>
        <time>2023-04-28T11:35:43Z</time>
      </trkpt>
      <trkpt lat="49.23546" lon="-0.31032">
        <ele>27.4</ele>
        <time>2023-04-28T11:35:44Z</time>
      </trkpt>
      <trkpt lat="49.2355" lon="-0.3104">
        <ele>27.2</ele>
        <time>2023-04-28T11:35:45Z</time>
      </trkpt>
      <trkpt lat="49.23555" lon="-0.31048">
        <ele>27.2</ele>
        <time>2023-04-28T11:35:46Z</time>
      </trkpt>
      <trkpt lat="49.23559" lon="-0.31055">
        <ele>27</ele>
        <time>2023-04-28T11:35:47Z</time>
      </trkpt>
      <trkpt lat="49.23563" lon="-0.31063">
        <ele>26.8</ele>
        <time>2023-04-28T11:35:48Z</time>
      </trkpt>
      <trkpt lat="49.23568" lon="-0.31071">
        <ele>26.8</ele>
        <time>2023-04-28T11:35:49Z</time>
      </trkpt>
      <trkpt lat="49.23572" lon="-0.31078">
        <ele>26.6</ele>
        <time>2023-04-28T11:35:50Z</time>
      </trkpt>
      <trkpt lat="49.23576" lon="-0.31086">
        <ele>26.2</ele>
        <time>2023-04-28T11:35:51Z</time>
      </trkpt>
      <trkpt lat="49.23581" lon="-0.31094">
        <ele>26.2</ele>
        <time>2023-04-28T11:35:52Z</time>
      </trkpt>
      <trkpt lat="49.23585" lon="-0.31101">
        <ele>26</ele>
        <time>2023-04-28T11:35:53Z</time>
      </trkpt>
      <trkpt lat="49.23589" lon="-0.31109">
        <ele>25.8</ele>
        <time>2023-04-28T11:35:54Z</time>
      </trkpt>
      <trkpt lat="49.23594" lon="-0.31117">
        <ele>25.8</ele>
        <time>2023-04-28T11:35:55Z</time>
      </trkpt>
      <trkpt lat="49.23598" lon="-0.31124">
        <ele>25.8</ele>
        <time>2023-04-28T11:35:56Z</time>
      </trkpt>
      <trkpt lat="49.23603" lon="-0.31132">
        <ele>25.8</ele>
        <time>2023-04-28T11:35:57Z</time>
      </trkpt>
      <trkpt lat="49.23607" lon="-0.3114">
        <ele>25.8</ele>
        <time>2023-04-28T11:35:58Z</time>
      </trkpt>
      <trkpt lat="49.23611" lon="-0.31148">
        <ele>25.8</ele>
        <time>2023-04-28T11:35:59Z</time>
      </trkpt>
      <trkpt lat="49.23616" lon="-0.31156">
        <ele>25.6</ele>
        <time>2023-04-28T11:36:00Z</time>
      </trkpt>
      <trkpt lat="49.2362" lon="-0.31163">
        <ele>25.6</ele>
        <time>2023-04-28T11:36:01Z</time>
      </trkpt>
      <trkpt lat="49.23624" lon="-0.31171">
        <ele>25.6</ele>
        <time>2023-04-28T11:36:02Z</time>
      </trkpt>
      <trkpt lat="49.23629" lon="-0.31179">
        <ele>25.4</ele>
        <time>2023-04-28T11:36:03Z</time>
      </trkpt>
      <trkpt lat="49.23633" lon="-0.31188">
        <ele>25.2</ele>
        <time>2023-04-28T11:36:04Z</time>
      </trkpt>
      <trkpt lat="49.23638" lon="-0.31196">
        <ele>25.2</ele>
        <time>2023-04-28T11:36:05Z</time>
      </trkpt>
      <trkpt lat="49.23642" lon="-0.31204">
        <ele>25</ele>
        <time>2023-04-28T11:36:06Z</time>
      </trkpt>
      <trkpt lat="49.23647" lon="-0.31212">
        <ele>24.8</ele>
        <time>2023-04-28T11:36:07Z</time>
      </trkpt>
      <trkpt lat="49.23651" lon="-0.31221">
        <ele>24.8</ele>
        <time>2023-04-28T11:36:08Z</time>
      </trkpt>
      <trkpt lat="49.23656" lon="-0.31229">
        <ele>24.6</ele>
        <time>2023-04-28T11:36:09Z</time>
      </trkpt>
      <trkpt lat="49.2366" lon="-0.31238">
        <ele>24.2</ele>
        <time>2023-04-28T11:36:10Z</time>
      </trkpt>
      <trkpt lat="49.23664" lon="-0.31246">
        <ele>24.2</ele>
        <time>2023-04-28T11:36:11Z</time>
      </trkpt>
      <trkpt lat="49.23669" lon="-0.31255">
        <ele>24</ele>
        <time>2023-04-28T11:36:12Z</time>
      </trkpt>
      <trkpt lat="49.23673" lon="-0.31264">
        <ele>24.2</ele>
        <time>2023-04-28T11:36:13Z</time>
      </trkpt>
      <trkpt lat="49.23678" lon="-0.31273">
        <ele>24.2</ele>
        <time>2023-04-28T11:36:14Z</time>
      </trkpt>
      <trkpt lat="49.23682" lon="-0.31281">
        <ele>24</ele>
        <time>2023-04-28T11:36:15Z</time>
      </trkpt>
      <trkpt lat="49.23686" lon="-0.3129">
        <ele>24</ele>
        <time>2023-04-28T11:36:16Z</time>
      </trkpt>
      <trkpt lat="49.23691" lon="-0.31299">
        <ele>23.8</ele>
        <time>2023-04-28T11:36:17Z</time>
      </trkpt>
      <trkpt lat="49.23695" lon="-0.31309">
        <ele>23.8</ele>
        <time>2023-04-28T11:36:18Z</time>
      </trkpt>
      <trkpt lat="49.237" lon="-0.31318">
        <ele>23.8</ele>
        <time>2023-04-28T11:36:19Z</time>
      </trkpt>
      <trkpt lat="49.23704" lon="-0.31327">
        <ele>23.6</ele>
        <time>2023-04-28T11:36:20Z</time>
      </trkpt>
      <trkpt lat="49.23709" lon="-0.31337">
        <ele>23.4</ele>
        <time>2023-04-28T11:36:21Z</time>
      </trkpt>
      <trkpt lat="49.23714" lon="-0.31347">
        <ele>23.2</ele>
        <time>2023-04-28T11:36:22Z</time>
      </trkpt>
      <trkpt lat="49.23718" lon="-0.31357">
        <ele>22.8</ele>
        <time>2023-04-28T11:36:23Z</time>
      </trkpt>
      <trkpt lat="49.23723" lon="-0.31367">
        <ele>22.6</ele>
        <time>2023-04-28T11:36:24Z</time>
      </trkpt>
      <trkpt lat="49.23728" lon="-0.31377">
        <ele>22.2</ele>
        <time>2023-04-28T11:36:25Z</time>
      </trkpt>
      <trkpt lat="49.23733" lon="-0.31388">
        <ele>22</ele>
        <time>2023-04-28T11:36:26Z</time>
      </trkpt>
      <trkpt lat="49.23738" lon="-0.31398">
        <ele>21.8</ele>
        <time>2023-04-28T11:36:27Z</time>
      </trkpt>
      <trkpt lat="49.23743" lon="-0.31408">
        <ele>21.4</ele>
        <time>2023-04-28T11:36:28Z</time>
      </trkpt>
      <trkpt lat="49.23748" lon="-0.31418">
        <ele>21</ele>
        <time>2023-04-28T11:36:29Z</time>
      </trkpt>
      <trkpt lat="49.23752" lon="-0.31427">
        <ele>20.8</ele>
        <time>2023-04-28T11:36:30Z</time>
      </trkpt>
      <trkpt lat="49.23757" lon="-0.31437">
        <ele>20.8</ele>
        <time>2023-04-28T11:36:31Z</time>
      </trkpt>
      <trkpt lat="49.23762" lon="-0.31446">
        <ele>20.8</ele>
        <time>2023-04-28T11:36:32Z</time>
      </trkpt>
      <trkpt lat="49.23767" lon="-0.31455">
        <ele>20.8</ele>
        <time>2023-04-28T11:36:33Z</time>
      </trkpt>
      <trkpt lat="49.23771" lon="-0.31464">
        <ele>20.8</ele>
        <time>2023-04-28T11:36:34Z</time>
      </trkpt>
      <trkpt lat="49.23775" lon="-0.31472">
        <ele>20.8</ele>
        <time>2023-04-28T11:36:35Z</time>
      </trkpt>
      <trkpt lat="49.2378" lon="-0.31481">
        <ele>21</ele>
        <time>2023-04-28T11:36:36Z</time>
      </trkpt>
      <trkpt lat="49.23784" lon="-0.31489">
        <ele>21.2</ele>
        <time>2023-04-28T11:36:37Z</time>
      </trkpt>
      <trkpt lat="49.23787" lon="-0.31496">
        <ele>21.2</ele>
        <time>2023-04-28T11:36:38Z</time>
      </trkpt>
      <trkpt lat="49.23791" lon="-0.31504">
        <ele>21.6</ele>
        <time>2023-04-28T11:36:39Z</time>
      </trkpt>
      <trkpt lat="49.23795" lon="-0.31511">
        <ele>21.6</ele>
        <time>2023-04-28T11:36:40Z</time>
      </trkpt>
      <trkpt lat="49.23798" lon="-0.31518">
        <ele>21.8</ele>
        <time>2023-04-28T11:36:41Z</time>
      </trkpt>
      <trkpt lat="49.23802" lon="-0.31525">
        <ele>21.8</ele>
        <time>2023-04-28T11:36:42Z</time>
      </trkpt>
      <trkpt lat="49.23806" lon="-0.31532">
        <ele>21.8</ele>
        <time>2023-04-28T11:36:43Z</time>
      </trkpt>
      <trkpt lat="49.23809" lon="-0.31538">
        <ele>21.8</ele>
        <time>2023-04-28T11:36:44Z</time>
      </trkpt>
      <trkpt lat="49.23813" lon="-0.31545">
        <ele>22</ele>
        <time>2023-04-28T11:36:45Z</time>
      </trkpt>
      <trkpt lat="49.23816" lon="-0.31551">
        <ele>22</ele>
        <time>2023-04-28T11:36:46Z</time>
      </trkpt>
      <trkpt lat="49.2382" lon="-0.31558">
        <ele>22</ele>
        <time>2023-04-28T11:36:47Z</time>
      </trkpt>
      <trkpt lat="49.23824" lon="-0.31564">
        <ele>22.2</ele>
        <time>2023-04-28T11:36:48Z</time>
      </trkpt>
      <trkpt lat="49.23827" lon="-0.3157">
        <ele>22.2</ele>
        <time>2023-04-28T11:36:49Z</time>
      </trkpt>
      <trkpt lat="49.23831" lon="-0.31576">
        <ele>22.2</ele>
        <time>2023-04-28T11:36:50Z</time>
      </trkpt>
      <trkpt lat="49.23835" lon="-0.31582">
        <ele>22</ele>
        <time>2023-04-28T11:36:51Z</time>
      </trkpt>
      <trkpt lat="49.23839" lon="-0.31588">
        <ele>22</ele>
        <time>2023-04-28T11:36:52Z</time>
      </trkpt>
      <trkpt lat="49.23843" lon="-0.31595">
        <ele>22</ele>
        <time>2023-04-28T11:36:53Z</time>
      </trkpt>
      <trkpt lat="49.23848" lon="-0.31601">
        <ele>22</ele>
        <time>2023-04-28T11:36:54Z</time>
      </trkpt>
      <trkpt lat="49.23853" lon="-0.31608">
        <ele>22</ele>
        <time>2023-04-28T11:36:55Z</time>
      </trkpt>
      <trkpt lat="49.23858" lon="-0.31616">
        <ele>22</ele>
        <time>2023-04-28T11:36:56Z</time>
      </trkpt>
      <trkpt lat="49.23863" lon="-0.31624">
        <ele>22</ele>
        <time>2023-04-28T11:36:57Z</time>
      </trkpt>
      <trkpt lat="49.23869" lon="-0.31633">
        <ele>22.2</ele>
        <time>2023-04-28T11:36:58Z</time>
      </trkpt>
      <trkpt lat="49.23874" lon="-0.31642">
        <ele>22.2</ele>
        <time>2023-04-28T11:36:59Z</time>
      </trkpt>
      <trkpt lat="49.2388" lon="-0.3165">
        <ele>22.2</ele>
        <time>2023-04-28T11:37:00Z</time>
      </trkpt>
      <trkpt lat="49.23886" lon="-0.31658">
        <ele>22.2</ele>
        <time>2023-04-28T11:37:01Z</time>
      </trkpt>
      <trkpt lat="49.23891" lon="-0.31667">
        <ele>22.4</ele>
        <time>2023-04-28T11:37:02Z</time>
      </trkpt>
      <trkpt lat="49.23896" lon="-0.31675">
        <ele>22.6</ele>
        <time>2023-04-28T11:37:03Z</time>
      </trkpt>
      <trkpt lat="49.23902" lon="-0.31683">
        <ele>22.8</ele>
        <time>2023-04-28T11:37:04Z</time>
      </trkpt>
      <trkpt lat="49.23907" lon="-0.31691">
        <ele>23.2</ele>
        <time>2023-04-28T11:37:05Z</time>
      </trkpt>
      <trkpt lat="49.23912" lon="-0.31699">
        <ele>23.2</ele>
        <time>2023-04-28T11:37:06Z</time>
      </trkpt>
      <trkpt lat="49.23917" lon="-0.31707">
        <ele>23.6</ele>
        <time>2023-04-28T11:37:07Z</time>
      </trkpt>
      <trkpt lat="49.23921" lon="-0.31715">
        <ele>23.6</ele>
        <time>2023-04-28T11:37:08Z</time>
      </trkpt>
      <trkpt lat="49.23926" lon="-0.31723">
        <ele>23.8</ele>
        <time>2023-04-28T11:37:09Z</time>
      </trkpt>
      <trkpt lat="49.23931" lon="-0.3173">
        <ele>23.8</ele>
        <time>2023-04-28T11:37:10Z</time>
      </trkpt>
      <trkpt lat="49.23936" lon="-0.31737">
        <ele>23.8</ele>
        <time>2023-04-28T11:37:11Z</time>
      </trkpt>
      <trkpt lat="49.23941" lon="-0.31743">
        <ele>24</ele>
        <time>2023-04-28T11:37:12Z</time>
      </trkpt>
      <trkpt lat="49.23947" lon="-0.31749">
        <ele>24</ele>
        <time>2023-04-28T11:37:13Z</time>
      </trkpt>
      <trkpt lat="49.23951" lon="-0.31756">
        <ele>23.8</ele>
        <time>2023-04-28T11:37:14Z</time>
      </trkpt>
      <trkpt lat="49.23956" lon="-0.31763">
        <ele>23.8</ele>
        <time>2023-04-28T11:37:15Z</time>
      </trkpt>
      <trkpt lat="49.23961" lon="-0.3177">
        <ele>23.8</ele>
        <time>2023-04-28T11:37:16Z</time>
      </trkpt>
      <trkpt lat="49.23965" lon="-0.31777">
        <ele>23.8</ele>
        <time>2023-04-28T11:37:17Z</time>
      </trkpt>
      <trkpt lat="49.2397" lon="-0.31785">
        <ele>23.6</ele>
        <time>2023-04-28T11:37:18Z</time>
      </trkpt>
      <trkpt lat="49.23974" lon="-0.31792">
        <ele>23.6</ele>
        <time>2023-04-28T11:37:19Z</time>
      </trkpt>
      <trkpt lat="49.23979" lon="-0.31799">
        <ele>23.4</ele>
        <time>2023-04-28T11:37:20Z</time>
      </trkpt>
      <trkpt lat="49.23984" lon="-0.31806">
        <ele>23.2</ele>
        <time>2023-04-28T11:37:21Z</time>
      </trkpt>
      <trkpt lat="49.23988" lon="-0.31813">
        <ele>23.2</ele>
        <time>2023-04-28T11:37:22Z</time>
      </trkpt>
      <trkpt lat="49.23993" lon="-0.31821">
        <ele>23.2</ele>
        <time>2023-04-28T11:37:23Z</time>
      </trkpt>
      <trkpt lat="49.23998" lon="-0.31828">
        <ele>23.2</ele>
        <time>2023-04-28T11:37:24Z</time>
      </trkpt>
      <trkpt lat="49.24002" lon="-0.31835">
        <ele>23.2</ele>
        <time>2023-04-28T11:37:25Z</time>
      </trkpt>
      <trkpt lat="49.24007" lon="-0.31842">
        <ele>23.2</ele>
        <time>2023-04-28T11:37:26Z</time>
      </trkpt>
      <trkpt lat="49.24011" lon="-0.31849">
        <ele>23.4</ele>
        <time>2023-04-28T11:37:27Z</time>
      </trkpt>
      <trkpt lat="49.24016" lon="-0.31856">
        <ele>23.6</ele>
        <time>2023-04-28T11:37:28Z</time>
      </trkpt>
      <trkpt lat="49.24021" lon="-0.31863">
        <ele>23.8</ele>
        <time>2023-04-28T11:37:29Z</time>
      </trkpt>
      <trkpt lat="49.24025" lon="-0.3187">
        <ele>23.8</ele>
        <time>2023-04-28T11:37:30Z</time>
      </trkpt>
      <trkpt lat="49.2403" lon="-0.31877">
        <ele>24.2</ele>
        <time>2023-04-28T11:37:31Z</time>
      </trkpt>
      <trkpt lat="49.24034" lon="-0.31884">
        <ele>24.2</ele>
        <time>2023-04-28T11:37:32Z</time>
      </trkpt>
      <trkpt lat="49.24038" lon="-0.31891">
        <ele>24.4</ele>
        <time>2023-04-28T11:37:33Z</time>
      </trkpt>
      <trkpt lat="49.24042" lon="-0.31897">
        <ele>24.6</ele>
        <time>2023-04-28T11:37:34Z</time>
      </trkpt>
      <trkpt lat="49.24046" lon="-0.31904">
        <ele>24.8</ele>
        <time>2023-04-28T11:37:35Z</time>
      </trkpt>
      <trkpt lat="49.2405" lon="-0.3191">
        <ele>24.8</ele>
        <time>2023-04-28T11:37:36Z</time>
      </trkpt>
      <trkpt lat="49.24054" lon="-0.31916">
        <ele>24.8</ele>
        <time>2023-04-28T11:37:37Z</time>
      </trkpt>
      <trkpt lat="49.24057" lon="-0.31921">
        <ele>25</ele>
        <time>2023-04-28T11:37:38Z</time>
      </trkpt>
      <trkpt lat="49.24061" lon="-0.31927">
        <ele>25</ele>
        <time>2023-04-28T11:37:39Z</time>
      </trkpt>
      <trkpt lat="49.24065" lon="-0.31932">
        <ele>25</ele>
        <time>2023-04-28T11:37:40Z</time>
      </trkpt>
      <trkpt lat="49.24069" lon="-0.31936">
        <ele>25.2</ele>
        <time>2023-04-28T11:37:41Z</time>
      </trkpt>
      <trkpt lat="49.24073" lon="-0.31939">
        <ele>25.2</ele>
        <time>2023-04-28T11:37:42Z</time>
      </trkpt>
      <trkpt lat="49.24078" lon="-0.31942">
        <ele>25.2</ele>
        <time>2023-04-28T11:37:43Z</time>
      </trkpt>
      <trkpt lat="49.24083" lon="-0.31946">
        <ele>25.2</ele>
        <time>2023-04-28T11:37:44Z</time>
      </trkpt>
      <trkpt lat="49.24087" lon="-0.3195">
        <ele>25.2</ele>
        <time>2023-04-28T11:37:45Z</time>
      </trkpt>
      <trkpt lat="49.24092" lon="-0.31957">
        <ele>25</ele>
        <time>2023-04-28T11:37:46Z</time>
      </trkpt>
      <trkpt lat="49.24095" lon="-0.31963">
        <ele>24.8</ele>
        <time>2023-04-28T11:37:47Z</time>
      </trkpt>
      <trkpt lat="49.24099" lon="-0.3197">
        <ele>24.8</ele>
        <time>2023-04-28T11:37:48Z</time>
      </trkpt>
      <trkpt lat="49.24103" lon="-0.31976">
        <ele>24.6</ele>
        <time>2023-04-28T11:37:49Z</time>
      </trkpt>
      <trkpt lat="49.24107" lon="-0.31982">
        <ele>24.4</ele>
        <time>2023-04-28T11:37:50Z</time>
      </trkpt>
      <trkpt lat="49.24111" lon="-0.31989">
        <ele>24.2</ele>
        <time>2023-04-28T11:37:51Z</time>
      </trkpt>
      <trkpt lat="49.24115" lon="-0.31995">
        <ele>24.2</ele>
        <time>2023-04-28T11:37:52Z</time>
      </trkpt>
      <trkpt lat="49.24119" lon="-0.32001">
        <ele>24</ele>
        <time>2023-04-28T11:37:53Z</time>
      </trkpt>
      <trkpt lat="49.24123" lon="-0.32008">
        <ele>24</ele>
        <time>2023-04-28T11:37:54Z</time>
      </trkpt>
      <trkpt lat="49.24127" lon="-0.32015">
        <ele>24</ele>
        <time>2023-04-28T11:37:55Z</time>
      </trkpt>
      <trkpt lat="49.24131" lon="-0.32022">
        <ele>24</ele>
        <time>2023-04-28T11:37:56Z</time>
      </trkpt>
      <trkpt lat="49.24135" lon="-0.32029">
        <ele>23.8</ele>
        <time>2023-04-28T11:37:57Z</time>
      </trkpt>
      <trkpt lat="49.2414" lon="-0.32036">
        <ele>23.8</ele>
        <time>2023-04-28T11:37:58Z</time>
      </trkpt>
      <trkpt lat="49.24144" lon="-0.32043">
        <ele>23.8</ele>
        <time>2023-04-28T11:37:59Z</time>
      </trkpt>
      <trkpt lat="49.24149" lon="-0.3205">
        <ele>23.8</ele>
        <time>2023-04-28T11:38:00Z</time>
      </trkpt>
      <trkpt lat="49.24154" lon="-0.32057">
        <ele>23.6</ele>
        <time>2023-04-28T11:38:01Z</time>
      </trkpt>
      <trkpt lat="49.24158" lon="-0.32064">
        <ele>23.4</ele>
        <time>2023-04-28T11:38:02Z</time>
      </trkpt>
      <trkpt lat="49.24163" lon="-0.32071">
        <ele>23.2</ele>
        <time>2023-04-28T11:38:03Z</time>
      </trkpt>
      <trkpt lat="49.24168" lon="-0.32078">
        <ele>23.2</ele>
        <time>2023-04-28T11:38:04Z</time>
      </trkpt>
      <trkpt lat="49.24173" lon="-0.32085">
        <ele>23.2</ele>
        <time>2023-04-28T11:38:05Z</time>
      </trkpt>
      <trkpt lat="49.24178" lon="-0.32091">
        <ele>23.2</ele>
        <time>2023-04-28T11:38:06Z</time>
      </trkpt>
      <trkpt lat="49.24183" lon="-0.32098">
        <ele>23.2</ele>
        <time>2023-04-28T11:38:07Z</time>
      </trkpt>
      <trkpt lat="49.24188" lon="-0.32105">
        <ele>23.2</ele>
        <time>2023-04-28T11:38:08Z</time>
      </trkpt>
      <trkpt lat="49.24193" lon="-0.32111">
        <ele>23</ele>
        <time>2023-04-28T11:38:09Z</time>
      </trkpt>
      <trkpt lat="49.24198" lon="-0.32118">
        <ele>23</ele>
        <time>2023-04-28T11:38:10Z</time>
      </trkpt>
      <trkpt lat="49.24202" lon="-0.32125">
        <ele>23</ele>
        <time>2023-04-28T11:38:11Z</time>
      </trkpt>
      <trkpt lat="49.24206" lon="-0.32133">
        <ele>22.8</ele>
        <time>2023-04-28T11:38:12Z</time>
      </trkpt>
      <trkpt lat="49.2421" lon="-0.32142">
        <ele>22.8</ele>
        <time>2023-04-28T11:38:13Z</time>
      </trkpt>
      <trkpt lat="49.24212" lon="-0.32151">
        <ele>22.8</ele>
        <time>2023-04-28T11:38:14Z</time>
      </trkpt>
      <trkpt lat="49.24214" lon="-0.3216">
        <ele>22.6</ele>
        <time>2023-04-28T11:38:15Z</time>
      </trkpt>
      <trkpt lat="49.24216" lon="-0.3217">
        <ele>22.2</ele>
        <time>2023-04-28T11:38:16Z</time>
      </trkpt>
      <trkpt lat="49.24217" lon="-0.3218">
        <ele>21.8</ele>
        <time>2023-04-28T11:38:17Z</time>
      </trkpt>
      <trkpt lat="49.24217" lon="-0.32191">
        <ele>21.6</ele>
        <time>2023-04-28T11:38:18Z</time>
      </trkpt>
      <trkpt lat="49.24219" lon="-0.32203">
        <ele>21.2</ele>
        <time>2023-04-28T11:38:19Z</time>
      </trkpt>
      <trkpt lat="49.2422" lon="-0.32214">
        <ele>21.2</ele>
        <time>2023-04-28T11:38:20Z</time>
      </trkpt>
      <trkpt lat="49.24222" lon="-0.32225">
        <ele>20.8</ele>
        <time>2023-04-28T11:38:21Z</time>
      </trkpt>
      <trkpt lat="49.24224" lon="-0.32237">
        <ele>20.6</ele>
        <time>2023-04-28T11:38:22Z</time>
      </trkpt>
      <trkpt lat="49.24226" lon="-0.32249">
        <ele>20.2</ele>
        <time>2023-04-28T11:38:23Z</time>
      </trkpt>
      <trkpt lat="49.24228" lon="-0.32261">
        <ele>20.2</ele>
        <time>2023-04-28T11:38:24Z</time>
      </trkpt>
      <trkpt lat="49.2423" lon="-0.32273">
        <ele>20.2</ele>
        <time>2023-04-28T11:38:25Z</time>
      </trkpt>
      <trkpt lat="49.24232" lon="-0.32285">
        <ele>19.8</ele>
        <time>2023-04-28T11:38:26Z</time>
      </trkpt>
      <trkpt lat="49.24234" lon="-0.32298">
        <ele>19.8</ele>
        <time>2023-04-28T11:38:27Z</time>
      </trkpt>
      <trkpt lat="49.24235" lon="-0.3231">
        <ele>19.4</ele>
        <time>2023-04-28T11:38:28Z</time>
      </trkpt>
      <trkpt lat="49.24236" lon="-0.32323">
        <ele>19.2</ele>
        <time>2023-04-28T11:38:29Z</time>
      </trkpt>
      <trkpt lat="49.24237" lon="-0.32336">
        <ele>18.8</ele>
        <time>2023-04-28T11:38:30Z</time>
      </trkpt>
      <trkpt lat="49.24237" lon="-0.32349">
        <ele>18.6</ele>
        <time>2023-04-28T11:38:31Z</time>
      </trkpt>
      <trkpt lat="49.24239" lon="-0.32362">
        <ele>18.2</ele>
        <time>2023-04-28T11:38:32Z</time>
      </trkpt>
      <trkpt lat="49.2424" lon="-0.32375">
        <ele>17.8</ele>
        <time>2023-04-28T11:38:33Z</time>
      </trkpt>
      <trkpt lat="49.24243" lon="-0.32387">
        <ele>17.2</ele>
        <time>2023-04-28T11:38:34Z</time>
      </trkpt>
      <trkpt lat="49.24247" lon="-0.32398">
        <ele>16.8</ele>
        <time>2023-04-28T11:38:35Z</time>
      </trkpt>
      <trkpt lat="49.24252" lon="-0.32407">
        <ele>16.4</ele>
        <time>2023-04-28T11:38:36Z</time>
      </trkpt>
      <trkpt lat="49.24258" lon="-0.32416">
        <ele>16.6</ele>
        <time>2023-04-28T11:38:37Z</time>
      </trkpt>
      <trkpt lat="49.24264" lon="-0.32424">
        <ele>16.6</ele>
        <time>2023-04-28T11:38:38Z</time>
      </trkpt>
      <trkpt lat="49.24271" lon="-0.32431">
        <ele>16.8</ele>
        <time>2023-04-28T11:38:39Z</time>
      </trkpt>
      <trkpt lat="49.24277" lon="-0.32437">
        <ele>16.8</ele>
        <time>2023-04-28T11:38:40Z</time>
      </trkpt>
      <trkpt lat="49.24285" lon="-0.32443">
        <ele>17.2</ele>
        <time>2023-04-28T11:38:41Z</time>
      </trkpt>
      <trkpt lat="49.24292" lon="-0.32448">
        <ele>17.2</ele>
        <time>2023-04-28T11:38:42Z</time>
      </trkpt>
      <trkpt lat="49.243" lon="-0.32452">
        <ele>17.4</ele>
        <time>2023-04-28T11:38:43Z</time>
      </trkpt>
      <trkpt lat="49.24308" lon="-0.32457">
        <ele>17.6</ele>
        <time>2023-04-28T11:38:44Z</time>
      </trkpt>
      <trkpt lat="49.24315" lon="-0.32463">
        <ele>17.6</ele>
        <time>2023-04-28T11:38:45Z</time>
      </trkpt>
      <trkpt lat="49.24322" lon="-0.3247">
        <ele>17.4</ele>
        <time>2023-04-28T11:38:46Z</time>
      </trkpt>
      <trkpt lat="49.24328" lon="-0.32478">
        <ele>17.2</ele>
        <time>2023-04-28T11:38:47Z</time>
      </trkpt>
      <trkpt lat="49.24333" lon="-0.32488">
        <ele>16.8</ele>
        <time>2023-04-28T11:38:48Z</time>
      </trkpt>
      <trkpt lat="49.24336" lon="-0.325">
        <ele>16</ele>
        <time>2023-04-28T11:38:49Z</time>
      </trkpt>
      <trkpt lat="49.24336" lon="-0.32513">
        <ele>16.2</ele>
        <time>2023-04-28T11:38:50Z</time>
      </trkpt>
      <trkpt lat="49.24334" lon="-0.32526">
        <ele>16.2</ele>
        <time>2023-04-28T11:38:51Z</time>
      </trkpt>
      <trkpt lat="49.24331" lon="-0.32539">
        <ele>16.4</ele>
        <time>2023-04-28T11:38:52Z</time>
      </trkpt>
      <trkpt lat="49.24327" lon="-0.32551">
        <ele>16.6</ele>
        <time>2023-04-28T11:38:53Z</time>
      </trkpt>
      <trkpt lat="49.24323" lon="-0.32562">
        <ele>16.8</ele>
        <time>2023-04-28T11:38:54Z</time>
      </trkpt>
      <trkpt lat="49.24319" lon="-0.32573">
        <ele>16.8</ele>
        <time>2023-04-28T11:38:55Z</time>
      </trkpt>
      <trkpt lat="49.24315" lon="-0.32583">
        <ele>17</ele>
        <time>2023-04-28T11:38:56Z</time>
      </trkpt>
      <trkpt lat="49.2431" lon="-0.32593">
        <ele>17.6</ele>
        <time>2023-04-28T11:38:57Z</time>
      </trkpt>
      <trkpt lat="49.24306" lon="-0.32603">
        <ele>18</ele>
        <time>2023-04-28T11:38:58Z</time>
      </trkpt>
      <trkpt lat="49.24303" lon="-0.32613">
        <ele>18.4</ele>
        <time>2023-04-28T11:38:59Z</time>
      </trkpt>
      <trkpt lat="49.24301" lon="-0.32623">
        <ele>18.8</ele>
        <time>2023-04-28T11:39:00Z</time>
      </trkpt>
      <trkpt lat="49.24299" lon="-0.32632">
        <ele>19.4</ele>
        <time>2023-04-28T11:39:01Z</time>
      </trkpt>
      <trkpt lat="49.24297" lon="-0.32642">
        <ele>19.8</ele>
        <time>2023-04-28T11:39:02Z</time>
      </trkpt>
      <trkpt lat="49.24295" lon="-0.3265">
        <ele>20.2</ele>
        <time>2023-04-28T11:39:03Z</time>
      </trkpt>
      <trkpt lat="49.24293" lon="-0.32658">
        <ele>20.6</ele>
        <time>2023-04-28T11:39:04Z</time>
      </trkpt>
      <trkpt lat="49.2429" lon="-0.32666">
        <ele>21</ele>
        <time>2023-04-28T11:39:05Z</time>
      </trkpt>
      <trkpt lat="49.24288" lon="-0.32673">
        <ele>21.2</ele>
        <time>2023-04-28T11:39:06Z</time>
      </trkpt>
      <trkpt lat="49.24285" lon="-0.3268">
        <ele>21.6</ele>
        <time>2023-04-28T11:39:07Z</time>
      </trkpt>
      <trkpt lat="49.24282" lon="-0.32687">
        <ele>21.8</ele>
        <time>2023-04-28T11:39:08Z</time>
      </trkpt>
      <trkpt lat="49.24278" lon="-0.32693">
        <ele>22.2</ele>
        <time>2023-04-28T11:39:09Z</time>
      </trkpt>
      <trkpt lat="49.24275" lon="-0.32699">
        <ele>22.2</ele>
        <time>2023-04-28T11:39:10Z</time>
      </trkpt>
      <trkpt lat="49.24272" lon="-0.32705">
        <ele>22.6</ele>
        <time>2023-04-28T11:39:11Z</time>
      </trkpt>
      <trkpt lat="49.24269" lon="-0.3271">
        <ele>22.8</ele>
        <time>2023-04-28T11:39:12Z</time>
      </trkpt>
      <trkpt lat="49.24266" lon="-0.32715">
        <ele>22.8</ele>
        <time>2023-04-28T11:39:13Z</time>
      </trkpt>
      <trkpt lat="49.24263" lon="-0.32719">
        <ele>23</ele>
        <time>2023-04-28T11:39:14Z</time>
      </trkpt>
      <trkpt lat="49.2426" lon="-0.32723">
        <ele>23.2</ele>
        <time>2023-04-28T11:39:15Z</time>
      </trkpt>
      <trkpt lat="49.24256" lon="-0.32727">
        <ele>23.2</ele>
        <time>2023-04-28T11:39:16Z</time>
      </trkpt>
      <trkpt lat="49.24252" lon="-0.32731">
        <ele>23.2</ele>
        <time>2023-04-28T11:39:17Z</time>
      </trkpt>
      <trkpt lat="49.2425" lon="-0.32736">
        <ele>23.6</ele>
        <time>2023-04-28T11:39:18Z</time>
      </trkpt>
      <trkpt lat="49.24248" lon="-0.32742">
        <ele>23.8</ele>
        <time>2023-04-28T11:39:19Z</time>
      </trkpt>
      <trkpt lat="49.24249" lon="-0.32748">
        <ele>24</ele>
        <time>2023-04-28T11:39:20Z</time>
      </trkpt>
      <trkpt lat="49.24251" lon="-0.32754">
        <ele>24.2</ele>
        <time>2023-04-28T11:39:21Z</time>
      </trkpt>
      <trkpt lat="49.24255" lon="-0.32759">
        <ele>24.2</ele>
        <time>2023-04-28T11:39:22Z</time>
      </trkpt>
      <trkpt lat="49.24259" lon="-0.32763">
        <ele>24.4</ele>
        <time>2023-04-28T11:39:23Z</time>
      </trkpt>
      <trkpt lat="49.24263" lon="-0.32767">
        <ele>24.6</ele>
        <time>2023-04-28T11:39:24Z</time>
      </trkpt>
      <trkpt lat="49.24267" lon="-0.32771">
        <ele>24.6</ele>
        <time>2023-04-28T11:39:25Z</time>
      </trkpt>
      <trkpt lat="49.24271" lon="-0.32775">
        <ele>24.6</ele>
        <time>2023-04-28T11:39:26Z</time>
      </trkpt>
      <trkpt lat="49.24275" lon="-0.32779">
        <ele>24.8</ele>
        <time>2023-04-28T11:39:27Z</time>
      </trkpt>
      <trkpt lat="49.24279" lon="-0.32783">
        <ele>24.8</ele>
        <time>2023-04-28T11:39:28Z</time>
      </trkpt>
      <trkpt lat="49.24283" lon="-0.32788">
        <ele>24.8</ele>
        <time>2023-04-28T11:39:29Z</time>
      </trkpt>
      <trkpt lat="49.24287" lon="-0.32792">
        <ele>24.8</ele>
        <time>2023-04-28T11:39:30Z</time>
      </trkpt>
      <trkpt lat="49.24291" lon="-0.32796">
        <ele>24.8</ele>
        <time>2023-04-28T11:39:31Z</time>
      </trkpt>
      <trkpt lat="49.24295" lon="-0.328">
        <ele>24.8</ele>
        <time>2023-04-28T11:39:32Z</time>
      </trkpt>
      <trkpt lat="49.24299" lon="-0.32805">
        <ele>24.8</ele>
        <time>2023-04-28T11:39:33Z</time>
      </trkpt>
      <trkpt lat="49.24303" lon="-0.32809">
        <ele>24.8</ele>
        <time>2023-04-28T11:39:34Z</time>
      </trkpt>
      <trkpt lat="49.24307" lon="-0.32813">
        <ele>24.6</ele>
        <time>2023-04-28T11:39:35Z</time>
      </trkpt>
      <trkpt lat="49.24311" lon="-0.32818">
        <ele>24.6</ele>
        <time>2023-04-28T11:39:36Z</time>
      </trkpt>
      <trkpt lat="49.24315" lon="-0.32822">
        <ele>24.6</ele>
        <time>2023-04-28T11:39:37Z</time>
      </trkpt>
      <trkpt lat="49.24319" lon="-0.32827">
        <ele>24.4</ele>
        <time>2023-04-28T11:39:38Z</time>
      </trkpt>
      <trkpt lat="49.24323" lon="-0.32832">
        <ele>24.2</ele>
        <time>2023-04-28T11:39:39Z</time>
      </trkpt>
      <trkpt lat="49.24327" lon="-0.32837">
        <ele>24.2</ele>
        <time>2023-04-28T11:39:40Z</time>
      </trkpt>
      <trkpt lat="49.24331" lon="-0.32842">
        <ele>24.2</ele>
        <time>2023-04-28T11:39:41Z</time>
      </trkpt>
      <trkpt lat="49.24334" lon="-0.32848">
        <ele>24.2</ele>
        <time>2023-04-28T11:39:42Z</time>
      </trkpt>
      <trkpt lat="49.24338" lon="-0.32853">
        <ele>24.2</ele>
        <time>2023-04-28T11:39:43Z</time>
      </trkpt>
      <trkpt lat="49.24342" lon="-0.32858">
        <ele>24.2</ele>
        <time>2023-04-28T11:39:44Z</time>
      </trkpt>
      <trkpt lat="49.24346" lon="-0.32862">
        <ele>24.2</ele>
        <time>2023-04-28T11:39:45Z</time>
      </trkpt>
      <trkpt lat="49.24351" lon="-0.32867">
        <ele>24.2</ele>
        <time>2023-04-28T11:39:46Z</time>
      </trkpt>
      <trkpt lat="49.24355" lon="-0.32871">
        <ele>24.2</ele>
        <time>2023-04-28T11:39:47Z</time>
      </trkpt>
      <trkpt lat="49.2436" lon="-0.32876">
        <ele>24.2</ele>
        <time>2023-04-28T11:39:48Z</time>
      </trkpt>
      <trkpt lat="49.24364" lon="-0.3288">
        <ele>24.2</ele>
        <time>2023-04-28T11:39:49Z</time>
      </trkpt>
      <trkpt lat="49.24368" lon="-0.32885">
        <ele>24.2</ele>
        <time>2023-04-28T11:39:50Z</time>
      </trkpt>
      <trkpt lat="49.24373" lon="-0.32889">
        <ele>24</ele>
        <time>2023-04-28T11:39:51Z</time>
      </trkpt>
      <trkpt lat="49.24378" lon="-0.32894">
        <ele>24</ele>
        <time>2023-04-28T11:39:52Z</time>
      </trkpt>
      <trkpt lat="49.24381" lon="-0.32899">
        <ele>23.8</ele>
        <time>2023-04-28T11:39:53Z</time>
      </trkpt>
      <trkpt lat="49.24384" lon="-0.32906">
        <ele>23.8</ele>
        <time>2023-04-28T11:39:54Z</time>
      </trkpt>
      <trkpt lat="49.24384" lon="-0.32913">
        <ele>23.8</ele>
        <time>2023-04-28T11:39:55Z</time>
      </trkpt>
      <trkpt lat="49.24384" lon="-0.3292">
        <ele>23.8</ele>
        <time>2023-04-28T11:39:56Z</time>
      </trkpt>
      <trkpt lat="49.24384" lon="-0.32927">
        <ele>23.8</ele>
        <time>2023-04-28T11:39:57Z</time>
      </trkpt>
      <trkpt lat="49.24384" lon="-0.32934">
        <ele>23.8</ele>
        <time>2023-04-28T11:39:58Z</time>
      </trkpt>
      <trkpt lat="49.24384" lon="-0.32941">
        <ele>23.8</ele>
        <time>2023-04-28T11:39:59Z</time>
      </trkpt>
      <trkpt lat="49.24384" lon="-0.32948">
        <ele>23.8</ele>
        <time>2023-04-28T11:40:00Z</time>
      </trkpt>
      <trkpt lat="49.24384" lon="-0.32955">
        <ele>24</ele>
        <time>2023-04-28T11:40:01Z</time>
      </trkpt>
      <trkpt lat="49.24383" lon="-0.32963">
        <ele>24</ele>
        <time>2023-04-28T11:40:02Z</time>
      </trkpt>
      <trkpt lat="49.24382" lon="-0.3297">
        <ele>24.2</ele>
        <time>2023-04-28T11:40:03Z</time>
      </trkpt>
      <trkpt lat="49.2438" lon="-0.32977">
        <ele>24.2</ele>
        <time>2023-04-28T11:40:04Z</time>
      </trkpt>
      <trkpt lat="49.24379" lon="-0.32985">
        <ele>24.2</ele>
        <time>2023-04-28T11:40:05Z</time>
      </trkpt>
      <trkpt lat="49.24377" lon="-0.32992">
        <ele>24.4</ele>
        <time>2023-04-28T11:40:06Z</time>
      </trkpt>
      <trkpt lat="49.24376" lon="-0.32999">
        <ele>24.6</ele>
        <time>2023-04-28T11:40:07Z</time>
      </trkpt>
      <trkpt lat="49.24374" lon="-0.33007">
        <ele>24.6</ele>
        <time>2023-04-28T11:40:08Z</time>
      </trkpt>
      <trkpt lat="49.24372" lon="-0.33014">
        <ele>24.6</ele>
        <time>2023-04-28T11:40:09Z</time>
      </trkpt>
      <trkpt lat="49.2437" lon="-0.33022">
        <ele>24.6</ele>
        <time>2023-04-28T11:40:10Z</time>
      </trkpt>
      <trkpt lat="49.24369" lon="-0.3303">
        <ele>24.8</ele>
        <time>2023-04-28T11:40:11Z</time>
      </trkpt>
      <trkpt lat="49.24367" lon="-0.33038">
        <ele>24.8</ele>
        <time>2023-04-28T11:40:12Z</time>
      </trkpt>
      <trkpt lat="49.24365" lon="-0.33046">
        <ele>24.8</ele>
        <time>2023-04-28T11:40:13Z</time>
      </trkpt>
      <trkpt lat="49.24364" lon="-0.33054">
        <ele>24.8</ele>
        <time>2023-04-28T11:40:14Z</time>
      </trkpt>
      <trkpt lat="49.24362" lon="-0.33062">
        <ele>24.8</ele>
        <time>2023-04-28T11:40:15Z</time>
      </trkpt>
      <trkpt lat="49.2436" lon="-0.3307">
        <ele>24.8</ele>
        <time>2023-04-28T11:40:16Z</time>
      </trkpt>
      <trkpt lat="49.24358" lon="-0.33078">
        <ele>24.8</ele>
        <time>2023-04-28T11:40:17Z</time>
      </trkpt>
      <trkpt lat="49.24357" lon="-0.33086">
        <ele>24.8</ele>
        <time>2023-04-28T11:40:18Z</time>
      </trkpt>
      <trkpt lat="49.24355" lon="-0.33094">
        <ele>24.8</ele>
        <time>2023-04-28T11:40:19Z</time>
      </trkpt>
      <trkpt lat="49.24354" lon="-0.33102">
        <ele>24.6</ele>
        <time>2023-04-28T11:40:20Z</time>
      </trkpt>
      <trkpt lat="49.24354" lon="-0.3311">
        <ele>24.6</ele>
        <time>2023-04-28T11:40:21Z</time>
      </trkpt>
      <trkpt lat="49.24353" lon="-0.33119">
        <ele>24.6</ele>
        <time>2023-04-28T11:40:22Z</time>
      </trkpt>
      <trkpt lat="49.24353" lon="-0.33127">
        <ele>24.6</ele>
        <time>2023-04-28T11:40:23Z</time>
      </trkpt>
      <trkpt lat="49.24352" lon="-0.33135">
        <ele>24.4</ele>
        <time>2023-04-28T11:40:24Z</time>
      </trkpt>
      <trkpt lat="49.24352" lon="-0.33144">
        <ele>24.4</ele>
        <time>2023-04-28T11:40:25Z</time>
      </trkpt>
      <trkpt lat="49.24352" lon="-0.33152">
        <ele>24.2</ele>
        <time>2023-04-28T11:40:26Z</time>
      </trkpt>
      <trkpt lat="49.24353" lon="-0.33161">
        <ele>24.2</ele>
        <time>2023-04-28T11:40:27Z</time>
      </trkpt>
      <trkpt lat="49.24353" lon="-0.33169">
        <ele>24.2</ele>
        <time>2023-04-28T11:40:28Z</time>
      </trkpt>
      <trkpt lat="49.24354" lon="-0.33178">
        <ele>24.2</ele>
        <time>2023-04-28T11:40:29Z</time>
      </trkpt>
      <trkpt lat="49.24354" lon="-0.33186">
        <ele>24.4</ele>
        <time>2023-04-28T11:40:30Z</time>
      </trkpt>
      <trkpt lat="49.24355" lon="-0.33195">
        <ele>24.6</ele>
        <time>2023-04-28T11:40:31Z</time>
      </trkpt>
      <trkpt lat="49.24355" lon="-0.33203">
        <ele>24.6</ele>
        <time>2023-04-28T11:40:32Z</time>
      </trkpt>
      <trkpt lat="49.24356" lon="-0.33212">
        <ele>24.8</ele>
        <time>2023-04-28T11:40:33Z</time>
      </trkpt>
      <trkpt lat="49.24356" lon="-0.3322">
        <ele>24.8</ele>
        <time>2023-04-28T11:40:34Z</time>
      </trkpt>
      <trkpt lat="49.24357" lon="-0.33228">
        <ele>24.8</ele>
        <time>2023-04-28T11:40:35Z</time>
      </trkpt>
      <trkpt lat="49.24358" lon="-0.33236">
        <ele>24.8</ele>
        <time>2023-04-28T11:40:36Z</time>
      </trkpt>
      <trkpt lat="49.24358" lon="-0.33245">
        <ele>25</ele>
        <time>2023-04-28T11:40:37Z</time>
      </trkpt>
      <trkpt lat="49.24359" lon="-0.33253">
        <ele>25</ele>
        <time>2023-04-28T11:40:38Z</time>
      </trkpt>
      <trkpt lat="49.24359" lon="-0.33261">
        <ele>25</ele>
        <time>2023-04-28T11:40:39Z</time>
      </trkpt>
      <trkpt lat="49.2436" lon="-0.33269">
        <ele>25.2</ele>
        <time>2023-04-28T11:40:40Z</time>
      </trkpt>
      <trkpt lat="49.2436" lon="-0.33277">
        <ele>25.2</ele>
        <time>2023-04-28T11:40:41Z</time>
      </trkpt>
      <trkpt lat="49.24361" lon="-0.33285">
        <ele>25.2</ele>
        <time>2023-04-28T11:40:42Z</time>
      </trkpt>
      <trkpt lat="49.24361" lon="-0.33293">
        <ele>25.2</ele>
        <time>2023-04-28T11:40:43Z</time>
      </trkpt>
      <trkpt lat="49.24362" lon="-0.33301">
        <ele>25.2</ele>
        <time>2023-04-28T11:40:44Z</time>
      </trkpt>
      <trkpt lat="49.24362" lon="-0.33309">
        <ele>25.2</ele>
        <time>2023-04-28T11:40:45Z</time>
      </trkpt>
      <trkpt lat="49.24363" lon="-0.33317">
        <ele>25.2</ele>
        <time>2023-04-28T11:40:46Z</time>
      </trkpt>
      <trkpt lat="49.24363" lon="-0.33325">
        <ele>25.2</ele>
        <time>2023-04-28T11:40:47Z</time>
      </trkpt>
      <trkpt lat="49.24364" lon="-0.33333">
        <ele>25.4</ele>
        <time>2023-04-28T11:40:48Z</time>
      </trkpt>
      <trkpt lat="49.24365" lon="-0.33341">
        <ele>25.2</ele>
        <time>2023-04-28T11:40:49Z</time>
      </trkpt>
      <trkpt lat="49.24365" lon="-0.33348">
        <ele>25.2</ele>
        <time>2023-04-28T11:40:50Z</time>
      </trkpt>
      <trkpt lat="49.24366" lon="-0.33356">
        <ele>25.2</ele>
        <time>2023-04-28T11:40:51Z</time>
      </trkpt>
      <trkpt lat="49.24366" lon="-0.33364">
        <ele>25.2</ele>
        <time>2023-04-28T11:40:52Z</time>
      </trkpt>
      <trkpt lat="49.24367" lon="-0.33372">
        <ele>25.2</ele>
        <time>2023-04-28T11:40:53Z</time>
      </trkpt>
      <trkpt lat="49.24367" lon="-0.3338">
        <ele>25.2</ele>
        <time>2023-04-28T11:40:54Z</time>
      </trkpt>
      <trkpt lat="49.24368" lon="-0.33388">
        <ele>25</ele>
        <time>2023-04-28T11:40:55Z</time>
      </trkpt>
      <trkpt lat="49.24368" lon="-0.33396">
        <ele>25</ele>
        <time>2023-04-28T11:40:56Z</time>
      </trkpt>
      <trkpt lat="49.24369" lon="-0.33404">
        <ele>24.8</ele>
        <time>2023-04-28T11:40:57Z</time>
      </trkpt>
      <trkpt lat="49.24369" lon="-0.33412">
        <ele>24.8</ele>
        <time>2023-04-28T11:40:58Z</time>
      </trkpt>
      <trkpt lat="49.2437" lon="-0.3342">
        <ele>24.8</ele>
        <time>2023-04-28T11:40:59Z</time>
      </trkpt>
      <trkpt lat="49.24371" lon="-0.33428">
        <ele>24.8</ele>
        <time>2023-04-28T11:41:00Z</time>
      </trkpt>
      <trkpt lat="49.24371" lon="-0.33436">
        <ele>24.8</ele>
        <time>2023-04-28T11:41:01Z</time>
      </trkpt>
      <trkpt lat="49.24371" lon="-0.33444">
        <ele>24.6</ele>
        <time>2023-04-28T11:41:02Z</time>
      </trkpt>
      <trkpt lat="49.24372" lon="-0.33451">
        <ele>24.6</ele>
        <time>2023-04-28T11:41:03Z</time>
      </trkpt>
      <trkpt lat="49.24372" lon="-0.33459">
        <ele>24.6</ele>
        <time>2023-04-28T11:41:04Z</time>
      </trkpt>
      <trkpt lat="49.24372" lon="-0.33467">
        <ele>24.4</ele>
        <time>2023-04-28T11:41:05Z</time>
      </trkpt>
      <trkpt lat="49.24373" lon="-0.33475">
        <ele>24.2</ele>
        <time>2023-04-28T11:41:06Z</time>
      </trkpt>
      <trkpt lat="49.24373" lon="-0.33483">
        <ele>24.2</ele>
        <time>2023-04-28T11:41:07Z</time>
      </trkpt>
      <trkpt lat="49.24374" lon="-0.33491">
        <ele>24.2</ele>
        <time>2023-04-28T11:41:08Z</time>
      </trkpt>
      <trkpt lat="49.24374" lon="-0.33499">
        <ele>24</ele>
        <time>2023-04-28T11:41:09Z</time>
      </trkpt>
      <trkpt lat="49.24376" lon="-0.33507">
        <ele>24.2</ele>
        <time>2023-04-28T11:41:10Z</time>
      </trkpt>
      <trkpt lat="49.24378" lon="-0.33515">
        <ele>24.2</ele>
        <time>2023-04-28T11:41:11Z</time>
      </trkpt>
      <trkpt lat="49.2438" lon="-0.33522">
        <ele>24.2</ele>
        <time>2023-04-28T11:41:12Z</time>
      </trkpt>
      <trkpt lat="49.24384" lon="-0.33528">
        <ele>24.2</ele>
        <time>2023-04-28T11:41:13Z</time>
      </trkpt>
      <trkpt lat="49.24388" lon="-0.33533">
        <ele>24.4</ele>
        <time>2023-04-28T11:41:14Z</time>
      </trkpt>
      <trkpt lat="49.24391" lon="-0.33538">
        <ele>24.6</ele>
        <time>2023-04-28T11:41:15Z</time>
      </trkpt>
      <trkpt lat="49.24394" lon="-0.33544">
        <ele>24.6</ele>
        <time>2023-04-28T11:41:16Z</time>
      </trkpt>
      <trkpt lat="49.24396" lon="-0.33551">
        <ele>24.6</ele>
        <time>2023-04-28T11:41:17Z</time>
      </trkpt>
      <trkpt lat="49.24397" lon="-0.33558">
        <ele>24.8</ele>
        <time>2023-04-28T11:41:18Z</time>
      </trkpt>
      <trkpt lat="49.24396" lon="-0.33566">
        <ele>24.8</ele>
        <time>2023-04-28T11:41:19Z</time>
      </trkpt>
      <trkpt lat="49.24394" lon="-0.33573">
        <ele>24.8</ele>
        <time>2023-04-28T11:41:20Z</time>
      </trkpt>
      <trkpt lat="49.24391" lon="-0.33579">
        <ele>25</ele>
        <time>2023-04-28T11:41:21Z</time>
      </trkpt>
      <trkpt lat="49.24387" lon="-0.33586">
        <ele>25</ele>
        <time>2023-04-28T11:41:22Z</time>
      </trkpt>
      <trkpt lat="49.24384" lon="-0.33593">
        <ele>25</ele>
        <time>2023-04-28T11:41:23Z</time>
      </trkpt>
      <trkpt lat="49.24381" lon="-0.33601">
        <ele>25</ele>
        <time>2023-04-28T11:41:24Z</time>
      </trkpt>
      <trkpt lat="49.2438" lon="-0.33609">
        <ele>25</ele>
        <time>2023-04-28T11:41:25Z</time>
      </trkpt>
      <trkpt lat="49.24379" lon="-0.33618">
        <ele>25</ele>
        <time>2023-04-28T11:41:26Z</time>
      </trkpt>
      <trkpt lat="49.24378" lon="-0.33626">
        <ele>25</ele>
        <time>2023-04-28T11:41:27Z</time>
      </trkpt>
      <trkpt lat="49.24377" lon="-0.33635">
        <ele>25</ele>
        <time>2023-04-28T11:41:28Z</time>
      </trkpt>
      <trkpt lat="49.24377" lon="-0.33643">
        <ele>25</ele>
        <time>2023-04-28T11:41:29Z</time>
      </trkpt>
      <trkpt lat="49.24376" lon="-0.33651">
        <ele>25</ele>
        <time>2023-04-28T11:41:30Z</time>
      </trkpt>
      <trkpt lat="49.24376" lon="-0.3366">
        <ele>25</ele>
        <time>2023-04-28T11:41:31Z</time>
      </trkpt>
      <trkpt lat="49.24375" lon="-0.33668">
        <ele>25</ele>
        <time>2023-04-28T11:41:32Z</time>
      </trkpt>
      <trkpt lat="49.24375" lon="-0.33676">
        <ele>25</ele>
        <time>2023-04-28T11:41:33Z</time>
      </trkpt>
      <trkpt lat="49.24375" lon="-0.33684">
        <ele>25</ele>
        <time>2023-04-28T11:41:34Z</time>
      </trkpt>
      <trkpt lat="49.24374" lon="-0.33692">
        <ele>25</ele>
        <time>2023-04-28T11:41:35Z</time>
      </trkpt>
      <trkpt lat="49.24374" lon="-0.337">
        <ele>25</ele>
        <time>2023-04-28T11:41:36Z</time>
      </trkpt>
      <trkpt lat="49.24374" lon="-0.33709">
        <ele>25</ele>
        <time>2023-04-28T11:41:37Z</time>
      </trkpt>
      <trkpt lat="49.24374" lon="-0.33717">
        <ele>25</ele>
        <time>2023-04-28T11:41:38Z</time>
      </trkpt>
      <trkpt lat="49.24373" lon="-0.33725">
        <ele>25</ele>
        <time>2023-04-28T11:41:39Z</time>
      </trkpt>
      <trkpt lat="49.24373" lon="-0.33733">
        <ele>25</ele>
        <time>2023-04-28T11:41:40Z</time>
      </trkpt>
      <trkpt lat="49.24373" lon="-0.33741">
        <ele>24.8</ele>
        <time>2023-04-28T11:41:41Z</time>
      </trkpt>
      <trkpt lat="49.24372" lon="-0.33749">
        <ele>24.8</ele>
        <time>2023-04-28T11:41:42Z</time>
      </trkpt>
      <trkpt lat="49.24372" lon="-0.33757">
        <ele>25</ele>
        <time>2023-04-28T11:41:43Z</time>
      </trkpt>
      <trkpt lat="49.24372" lon="-0.33765">
        <ele>25</ele>
        <time>2023-04-28T11:41:44Z</time>
      </trkpt>
      <trkpt lat="49.24372" lon="-0.33773">
        <ele>25.2</ele>
        <time>2023-04-28T11:41:45Z</time>
      </trkpt>
      <trkpt lat="49.24371" lon="-0.33781">
        <ele>25.2</ele>
        <time>2023-04-28T11:41:46Z</time>
      </trkpt>
      <trkpt lat="49.24371" lon="-0.33789">
        <ele>25.2</ele>
        <time>2023-04-28T11:41:47Z</time>
      </trkpt>
      <trkpt lat="49.24371" lon="-0.33798">
        <ele>25.2</ele>
        <time>2023-04-28T11:41:48Z</time>
      </trkpt>
      <trkpt lat="49.2437" lon="-0.33806">
        <ele>25.2</ele>
        <time>2023-04-28T11:41:49Z</time>
      </trkpt>
      <trkpt lat="49.2437" lon="-0.33814">
        <ele>25.2</ele>
        <time>2023-04-28T11:41:50Z</time>
      </trkpt>
      <trkpt lat="49.2437" lon="-0.33822">
        <ele>25.4</ele>
        <time>2023-04-28T11:41:51Z</time>
      </trkpt>
      <trkpt lat="49.24369" lon="-0.3383">
        <ele>25.4</ele>
        <time>2023-04-28T11:41:52Z</time>
      </trkpt>
      <trkpt lat="49.24369" lon="-0.33839">
        <ele>25.6</ele>
        <time>2023-04-28T11:41:53Z</time>
      </trkpt>
      <trkpt lat="49.24369" lon="-0.33847">
        <ele>25.6</ele>
        <time>2023-04-28T11:41:54Z</time>
      </trkpt>
      <trkpt lat="49.24368" lon="-0.33855">
        <ele>25.6</ele>
        <time>2023-04-28T11:41:55Z</time>
      </trkpt>
      <trkpt lat="49.24368" lon="-0.33864">
        <ele>25.6</ele>
        <time>2023-04-28T11:41:56Z</time>
      </trkpt>
      <trkpt lat="49.24367" lon="-0.33872">
        <ele>25.6</ele>
        <time>2023-04-28T11:41:57Z</time>
      </trkpt>
      <trkpt lat="49.24367" lon="-0.3388">
        <ele>25.6</ele>
        <time>2023-04-28T11:41:58Z</time>
      </trkpt>
      <trkpt lat="49.24366" lon="-0.33889">
        <ele>25.8</ele>
        <time>2023-04-28T11:41:59Z</time>
      </trkpt>
      <trkpt lat="49.24365" lon="-0.33897">
        <ele>25.8</ele>
        <time>2023-04-28T11:42:00Z</time>
      </trkpt>
      <trkpt lat="49.24364" lon="-0.33906">
        <ele>25.8</ele>
        <time>2023-04-28T11:42:01Z</time>
      </trkpt>
      <trkpt lat="49.24364" lon="-0.33914">
        <ele>25.8</ele>
        <time>2023-04-28T11:42:02Z</time>
      </trkpt>
      <trkpt lat="49.24363" lon="-0.33923">
        <ele>25.8</ele>
        <time>2023-04-28T11:42:03Z</time>
      </trkpt>
      <trkpt lat="49.24362" lon="-0.33931">
        <ele>25.8</ele>
        <time>2023-04-28T11:42:04Z</time>
      </trkpt>
      <trkpt lat="49.24361" lon="-0.3394">
        <ele>25.8</ele>
        <time>2023-04-28T11:42:05Z</time>
      </trkpt>
      <trkpt lat="49.24359" lon="-0.33948">
        <ele>25.8</ele>
        <time>2023-04-28T11:42:06Z</time>
      </trkpt>
      <trkpt lat="49.24358" lon="-0.33956">
        <ele>25.8</ele>
        <time>2023-04-28T11:42:07Z</time>
      </trkpt>
      <trkpt lat="49.24357" lon="-0.33965">
        <ele>26</ele>
        <time>2023-04-28T11:42:08Z</time>
      </trkpt>
      <trkpt lat="49.24356" lon="-0.33973">
        <ele>26</ele>
        <time>2023-04-28T11:42:09Z</time>
      </trkpt>
      <trkpt lat="49.24355" lon="-0.33982">
        <ele>26.2</ele>
        <time>2023-04-28T11:42:10Z</time>
      </trkpt>
      <trkpt lat="49.24354" lon="-0.3399">
        <ele>26.2</ele>
        <time>2023-04-28T11:42:11Z</time>
      </trkpt>
      <trkpt lat="49.24353" lon="-0.33998">
        <ele>26.2</ele>
        <time>2023-04-28T11:42:12Z</time>
      </trkpt>
      <trkpt lat="49.24352" lon="-0.34006">
        <ele>26.2</ele>
        <time>2023-04-28T11:42:13Z</time>
      </trkpt>
      <trkpt lat="49.24351" lon="-0.34015">
        <ele>26.2</ele>
        <time>2023-04-28T11:42:14Z</time>
      </trkpt>
      <trkpt lat="49.24349" lon="-0.34023">
        <ele>26.2</ele>
        <time>2023-04-28T11:42:15Z</time>
      </trkpt>
      <trkpt lat="49.24348" lon="-0.34032">
        <ele>26.2</ele>
        <time>2023-04-28T11:42:16Z</time>
      </trkpt>
      <trkpt lat="49.24347" lon="-0.3404">
        <ele>26.2</ele>
        <time>2023-04-28T11:42:17Z</time>
      </trkpt>
      <trkpt lat="49.24346" lon="-0.34049">
        <ele>26.2</ele>
        <time>2023-04-28T11:42:18Z</time>
      </trkpt>
      <trkpt lat="49.24345" lon="-0.34057">
        <ele>26.2</ele>
        <time>2023-04-28T11:42:19Z</time>
      </trkpt>
      <trkpt lat="49.24344" lon="-0.34066">
        <ele>26.2</ele>
        <time>2023-04-28T11:42:20Z</time>
      </trkpt>
      <trkpt lat="49.24343" lon="-0.34074">
        <ele>26.2</ele>
        <time>2023-04-28T11:42:21Z</time>
      </trkpt>
      <trkpt lat="49.24342" lon="-0.34082">
        <ele>26.2</ele>
        <time>2023-04-28T11:42:22Z</time>
      </trkpt>
      <trkpt lat="49.24341" lon="-0.3409">
        <ele>26.2</ele>
        <time>2023-04-28T11:42:23Z</time>
      </trkpt>
      <trkpt lat="49.24339" lon="-0.34099">
        <ele>26.2</ele>
        <time>2023-04-28T11:42:24Z</time>
      </trkpt>
      <trkpt lat="49.24338" lon="-0.34107">
        <ele>26.2</ele>
        <time>2023-04-28T11:42:25Z</time>
      </trkpt>
      <trkpt lat="49.24337" lon="-0.34115">
        <ele>26.4</ele>
        <time>2023-04-28T11:42:26Z</time>
      </trkpt>
      <trkpt lat="49.24336" lon="-0.34123">
        <ele>26.6</ele>
        <time>2023-04-28T11:42:27Z</time>
      </trkpt>
      <trkpt lat="49.24335" lon="-0.34131">
        <ele>26.6</ele>
        <time>2023-04-28T11:42:28Z</time>
      </trkpt>
      <trkpt lat="49.24334" lon="-0.34138">
        <ele>26.8</ele>
        <time>2023-04-28T11:42:29Z</time>
      </trkpt>
      <trkpt lat="49.24333" lon="-0.34146">
        <ele>26.8</ele>
        <time>2023-04-28T11:42:30Z</time>
      </trkpt>
      <trkpt lat="49.24332" lon="-0.34154">
        <ele>26.8</ele>
        <time>2023-04-28T11:42:31Z</time>
      </trkpt>
      <trkpt lat="49.24331" lon="-0.34162">
        <ele>27</ele>
        <time>2023-04-28T11:42:32Z</time>
      </trkpt>
      <trkpt lat="49.2433" lon="-0.34169">
        <ele>27.2</ele>
        <time>2023-04-28T11:42:33Z</time>
      </trkpt>
      <trkpt lat="49.24329" lon="-0.34177">
        <ele>27.2</ele>
        <time>2023-04-28T11:42:34Z</time>
      </trkpt>
      <trkpt lat="49.24328" lon="-0.34185">
        <ele>27.2</ele>
        <time>2023-04-28T11:42:35Z</time>
      </trkpt>
      <trkpt lat="49.24327" lon="-0.34192">
        <ele>27.4</ele>
        <time>2023-04-28T11:42:36Z</time>
      </trkpt>
      <trkpt lat="49.24326" lon="-0.342">
        <ele>27.6</ele>
        <time>2023-04-28T11:42:37Z</time>
      </trkpt>
      <trkpt lat="49.24325" lon="-0.34208">
        <ele>27.6</ele>
        <time>2023-04-28T11:42:38Z</time>
      </trkpt>
      <trkpt lat="49.24324" lon="-0.34215">
        <ele>27.6</ele>
        <time>2023-04-28T11:42:39Z</time>
      </trkpt>
      <trkpt lat="49.24323" lon="-0.34223">
        <ele>27.8</ele>
        <time>2023-04-28T11:42:40Z</time>
      </trkpt>
      <trkpt lat="49.24323" lon="-0.34231">
        <ele>27.8</ele>
        <time>2023-04-28T11:42:41Z</time>
      </trkpt>
      <trkpt lat="49.24322" lon="-0.34239">
        <ele>27.8</ele>
        <time>2023-04-28T11:42:42Z</time>
      </trkpt>
      <trkpt lat="49.24321" lon="-0.34246">
        <ele>28</ele>
        <time>2023-04-28T11:42:43Z</time>
      </trkpt>
      <trkpt lat="49.24321" lon="-0.34254">
        <ele>28.2</ele>
        <time>2023-04-28T11:42:44Z</time>
      </trkpt>
      <trkpt lat="49.24321" lon="-0.34262">
        <ele>28.2</ele>
        <time>2023-04-28T11:42:45Z</time>
      </trkpt>
      <trkpt lat="49.2432" lon="-0.34269">
        <ele>28.4</ele>
        <time>2023-04-28T11:42:46Z</time>
      </trkpt>
      <trkpt lat="49.2432" lon="-0.34277">
        <ele>28.6</ele>
        <time>2023-04-28T11:42:47Z</time>
      </trkpt>
      <trkpt lat="49.2432" lon="-0.34285">
        <ele>28.8</ele>
        <time>2023-04-28T11:42:48Z</time>
      </trkpt>
      <trkpt lat="49.2432" lon="-0.34292">
        <ele>28.8</ele>
        <time>2023-04-28T11:42:49Z</time>
      </trkpt>
      <trkpt lat="49.24321" lon="-0.343">
        <ele>29.2</ele>
        <time>2023-04-28T11:42:50Z</time>
      </trkpt>
      <trkpt lat="49.24321" lon="-0.34307">
        <ele>29.2</ele>
        <time>2023-04-28T11:42:51Z</time>
      </trkpt>
      <trkpt lat="49.24322" lon="-0.34315">
        <ele>29.4</ele>
        <time>2023-04-28T11:42:52Z</time>
      </trkpt>
      <trkpt lat="49.24322" lon="-0.34322">
        <ele>29.6</ele>
        <time>2023-04-28T11:42:53Z</time>
      </trkpt>
      <trkpt lat="49.24323" lon="-0.34329">
        <ele>29.8</ele>
        <time>2023-04-28T11:42:54Z</time>
      </trkpt>
      <trkpt lat="49.24324" lon="-0.34336">
        <ele>29.8</ele>
        <time>2023-04-28T11:42:55Z</time>
      </trkpt>
      <trkpt lat="49.24325" lon="-0.34343">
        <ele>29.8</ele>
        <time>2023-04-28T11:42:56Z</time>
      </trkpt>
      <trkpt lat="49.24326" lon="-0.3435">
        <ele>29.8</ele>
        <time>2023-04-28T11:42:57Z</time>
      </trkpt>
      <trkpt lat="49.24327" lon="-0.34357">
        <ele>29.8</ele>
        <time>2023-04-28T11:42:58Z</time>
      </trkpt>
      <trkpt lat="49.24329" lon="-0.34364">
        <ele>29.8</ele>
        <time>2023-04-28T11:42:59Z</time>
      </trkpt>
      <trkpt lat="49.2433" lon="-0.34371">
        <ele>30</ele>
        <time>2023-04-28T11:43:00Z</time>
      </trkpt>
      <trkpt lat="49.24331" lon="-0.34377">
        <ele>30</ele>
        <time>2023-04-28T11:43:01Z</time>
      </trkpt>
      <trkpt lat="49.24333" lon="-0.34384">
        <ele>30</ele>
        <time>2023-04-28T11:43:02Z</time>
      </trkpt>
      <trkpt lat="49.24334" lon="-0.3439">
        <ele>30</ele>
        <time>2023-04-28T11:43:03Z</time>
      </trkpt>
      <trkpt lat="49.24336" lon="-0.34397">
        <ele>30.2</ele>
        <time>2023-04-28T11:43:04Z</time>
      </trkpt>
      <trkpt lat="49.24337" lon="-0.34403">
        <ele>30.2</ele>
        <time>2023-04-28T11:43:05Z</time>
      </trkpt>
      <trkpt lat="49.24339" lon="-0.34409">
        <ele>30.2</ele>
        <time>2023-04-28T11:43:06Z</time>
      </trkpt>
      <trkpt lat="49.24341" lon="-0.34415">
        <ele>30.2</ele>
        <time>2023-04-28T11:43:07Z</time>
      </trkpt>
      <trkpt lat="49.24342" lon="-0.34422">
        <ele>30.2</ele>
        <time>2023-04-28T11:43:08Z</time>
      </trkpt>
      <trkpt lat="49.24344" lon="-0.34428">
        <ele>30.4</ele>
        <time>2023-04-28T11:43:09Z</time>
      </trkpt>
      <trkpt lat="49.24345" lon="-0.34434">
        <ele>30.6</ele>
        <time>2023-04-28T11:43:10Z</time>
      </trkpt>
      <trkpt lat="49.24347" lon="-0.3444">
        <ele>30.6</ele>
        <time>2023-04-28T11:43:11Z</time>
      </trkpt>
      <trkpt lat="49.24348" lon="-0.34446">
        <ele>30.8</ele>
        <time>2023-04-28T11:43:12Z</time>
      </trkpt>
      <trkpt lat="49.2435" lon="-0.34452">
        <ele>30.8</ele>
        <time>2023-04-28T11:43:13Z</time>
      </trkpt>
      <trkpt lat="49.24351" lon="-0.34458">
        <ele>30.8</ele>
        <time>2023-04-28T11:43:14Z</time>
      </trkpt>
      <trkpt lat="49.24353" lon="-0.34464">
        <ele>31</ele>
        <time>2023-04-28T11:43:15Z</time>
      </trkpt>
      <trkpt lat="49.24354" lon="-0.3447">
        <ele>31.2</ele>
        <time>2023-04-28T11:43:16Z</time>
      </trkpt>
      <trkpt lat="49.24356" lon="-0.34476">
        <ele>31.2</ele>
        <time>2023-04-28T11:43:17Z</time>
      </trkpt>
      <trkpt lat="49.24358" lon="-0.34482">
        <ele>31.4</ele>
        <time>2023-04-28T11:43:18Z</time>
      </trkpt>
      <trkpt lat="49.24359" lon="-0.34488">
        <ele>31.6</ele>
        <time>2023-04-28T11:43:19Z</time>
      </trkpt>
      <trkpt lat="49.24361" lon="-0.34494">
        <ele>31.6</ele>
        <time>2023-04-28T11:43:20Z</time>
      </trkpt>
      <trkpt lat="49.24362" lon="-0.345">
        <ele>31.8</ele>
        <time>2023-04-28T11:43:21Z</time>
      </trkpt>
      <trkpt lat="49.24364" lon="-0.34506">
        <ele>31.8</ele>
        <time>2023-04-28T11:43:22Z</time>
      </trkpt>
      <trkpt lat="49.24365" lon="-0.34512">
        <ele>32</ele>
        <time>2023-04-28T11:43:23Z</time>
      </trkpt>
      <trkpt lat="49.24367" lon="-0.34518">
        <ele>32.2</ele>
        <time>2023-04-28T11:43:24Z</time>
      </trkpt>
      <trkpt lat="49.24368" lon="-0.34524">
        <ele>32.2</ele>
        <time>2023-04-28T11:43:25Z</time>
      </trkpt>
      <trkpt lat="49.2437" lon="-0.3453">
        <ele>32.6</ele>
        <time>2023-04-28T11:43:26Z</time>
      </trkpt>
      <trkpt lat="49.24371" lon="-0.34537">
        <ele>32.6</ele>
        <time>2023-04-28T11:43:27Z</time>
      </trkpt>
      <trkpt lat="49.24373" lon="-0.34543">
        <ele>32.8</ele>
        <time>2023-04-28T11:43:28Z</time>
      </trkpt>
      <trkpt lat="49.24374" lon="-0.34549">
        <ele>33</ele>
        <time>2023-04-28T11:43:29Z</time>
      </trkpt>
      <trkpt lat="49.24376" lon="-0.34555">
        <ele>33</ele>
        <time>2023-04-28T11:43:30Z</time>
      </trkpt>
      <trkpt lat="49.24377" lon="-0.34561">
        <ele>33</ele>
        <time>2023-04-28T11:43:31Z</time>
      </trkpt>
      <trkpt lat="49.24379" lon="-0.34567">
        <ele>33.2</ele>
        <time>2023-04-28T11:43:32Z</time>
      </trkpt>
      <trkpt lat="49.2438" lon="-0.34574">
        <ele>33.2</ele>
        <time>2023-04-28T11:43:33Z</time>
      </trkpt>
      <trkpt lat="49.24382" lon="-0.3458">
        <ele>33.4</ele>
        <time>2023-04-28T11:43:34Z</time>
      </trkpt>
      <trkpt lat="49.24384" lon="-0.34586">
        <ele>33.4</ele>
        <time>2023-04-28T11:43:35Z</time>
      </trkpt>
      <trkpt lat="49.24385" lon="-0.34593">
        <ele>33.6</ele>
        <time>2023-04-28T11:43:36Z</time>
      </trkpt>
      <trkpt lat="49.24387" lon="-0.34599">
        <ele>33.6</ele>
        <time>2023-04-28T11:43:37Z</time>
      </trkpt>
      <trkpt lat="49.24388" lon="-0.34605">
        <ele>33.6</ele>
        <time>2023-04-28T11:43:38Z</time>
      </trkpt>
      <trkpt lat="49.2439" lon="-0.34612">
        <ele>33.6</ele>
        <time>2023-04-28T11:43:39Z</time>
      </trkpt>
      <trkpt lat="49.24391" lon="-0.34618">
        <ele>33.8</ele>
        <time>2023-04-28T11:43:40Z</time>
      </trkpt>
      <trkpt lat="49.24393" lon="-0.34625">
        <ele>33.8</ele>
        <time>2023-04-28T11:43:41Z</time>
      </trkpt>
      <trkpt lat="49.24395" lon="-0.34631">
        <ele>33.8</ele>
        <time>2023-04-28T11:43:42Z</time>
      </trkpt>
      <trkpt lat="49.24396" lon="-0.34638">
        <ele>33.8</ele>
        <time>2023-04-28T11:43:43Z</time>
      </trkpt>
      <trkpt lat="49.24398" lon="-0.34644">
        <ele>33.8</ele>
        <time>2023-04-28T11:43:44Z</time>
      </trkpt>
      <trkpt lat="49.244" lon="-0.34651">
        <ele>33.8</ele>
        <time>2023-04-28T11:43:45Z</time>
      </trkpt>
      <trkpt lat="49.24401" lon="-0.34657">
        <ele>33.8</ele>
        <time>2023-04-28T11:43:46Z</time>
      </trkpt>
      <trkpt lat="49.24403" lon="-0.34664">
        <ele>33.6</ele>
        <time>2023-04-28T11:43:47Z</time>
      </trkpt>
      <trkpt lat="49.24404" lon="-0.34671">
        <ele>33.8</ele>
        <time>2023-04-28T11:43:48Z</time>
      </trkpt>
      <trkpt lat="49.24406" lon="-0.34677">
        <ele>33.8</ele>
        <time>2023-04-28T11:43:49Z</time>
      </trkpt>
      <trkpt lat="49.24408" lon="-0.34684">
        <ele>33.8</ele>
        <time>2023-04-28T11:43:50Z</time>
      </trkpt>
      <trkpt lat="49.24409" lon="-0.34691">
        <ele>34</ele>
        <time>2023-04-28T11:43:51Z</time>
      </trkpt>
      <trkpt lat="49.24411" lon="-0.34698">
        <ele>34</ele>
        <time>2023-04-28T11:43:52Z</time>
      </trkpt>
      <trkpt lat="49.24413" lon="-0.34704">
        <ele>34</ele>
        <time>2023-04-28T11:43:53Z</time>
      </trkpt>
      <trkpt lat="49.24414" lon="-0.34711">
        <ele>34.2</ele>
        <time>2023-04-28T11:43:54Z</time>
      </trkpt>
      <trkpt lat="49.24416" lon="-0.34718">
        <ele>34.2</ele>
        <time>2023-04-28T11:43:55Z</time>
      </trkpt>
      <trkpt lat="49.24417" lon="-0.34725">
        <ele>34.4</ele>
        <time>2023-04-28T11:43:56Z</time>
      </trkpt>
      <trkpt lat="49.24419" lon="-0.34732">
        <ele>34.6</ele>
        <time>2023-04-28T11:43:57Z</time>
      </trkpt>
      <trkpt lat="49.24421" lon="-0.3474">
        <ele>34.8</ele>
        <time>2023-04-28T11:43:58Z</time>
      </trkpt>
      <trkpt lat="49.24422" lon="-0.34747">
        <ele>34.8</ele>
        <time>2023-04-28T11:43:59Z</time>
      </trkpt>
      <trkpt lat="49.24424" lon="-0.34754">
        <ele>35</ele>
        <time>2023-04-28T11:44:00Z</time>
      </trkpt>
      <trkpt lat="49.24426" lon="-0.34761">
        <ele>35</ele>
        <time>2023-04-28T11:44:01Z</time>
      </trkpt>
      <trkpt lat="49.24427" lon="-0.34768">
        <ele>35.2</ele>
        <time>2023-04-28T11:44:02Z</time>
      </trkpt>
      <trkpt lat="49.24429" lon="-0.34775">
        <ele>35.4</ele>
        <time>2023-04-28T11:44:03Z</time>
      </trkpt>
      <trkpt lat="49.2443" lon="-0.34782">
        <ele>35.6</ele>
        <time>2023-04-28T11:44:04Z</time>
      </trkpt>
      <trkpt lat="49.24432" lon="-0.34789">
        <ele>35.6</ele>
        <time>2023-04-28T11:44:05Z</time>
      </trkpt>
      <trkpt lat="49.24433" lon="-0.34797">
        <ele>35.8</ele>
        <time>2023-04-28T11:44:06Z</time>
      </trkpt>
      <trkpt lat="49.24435" lon="-0.34804">
        <ele>35.8</ele>
        <time>2023-04-28T11:44:07Z</time>
      </trkpt>
      <trkpt lat="49.24437" lon="-0.34811">
        <ele>36</ele>
        <time>2023-04-28T11:44:08Z</time>
      </trkpt>
      <trkpt lat="49.24438" lon="-0.34818">
        <ele>36</ele>
        <time>2023-04-28T11:44:09Z</time>
      </trkpt>
      <trkpt lat="49.2444" lon="-0.34825">
        <ele>36</ele>
        <time>2023-04-28T11:44:10Z</time>
      </trkpt>
      <trkpt lat="49.24441" lon="-0.34833">
        <ele>36</ele>
        <time>2023-04-28T11:44:11Z</time>
      </trkpt>
      <trkpt lat="49.24443" lon="-0.3484">
        <ele>36</ele>
        <time>2023-04-28T11:44:12Z</time>
      </trkpt>
      <trkpt lat="49.24444" lon="-0.34847">
        <ele>36</ele>
        <time>2023-04-28T11:44:13Z</time>
      </trkpt>
      <trkpt lat="49.24446" lon="-0.34854">
        <ele>35.8</ele>
        <time>2023-04-28T11:44:14Z</time>
      </trkpt>
      <trkpt lat="49.24447" lon="-0.34861">
        <ele>35.8</ele>
        <time>2023-04-28T11:44:15Z</time>
      </trkpt>
      <trkpt lat="49.24449" lon="-0.34868">
        <ele>35.6</ele>
        <time>2023-04-28T11:44:16Z</time>
      </trkpt>
      <trkpt lat="49.2445" lon="-0.34876">
        <ele>35.6</ele>
        <time>2023-04-28T11:44:17Z</time>
      </trkpt>
      <trkpt lat="49.24451" lon="-0.34883">
        <ele>35.4</ele>
        <time>2023-04-28T11:44:18Z</time>
      </trkpt>
      <trkpt lat="49.24453" lon="-0.3489">
        <ele>35.2</ele>
        <time>2023-04-28T11:44:19Z</time>
      </trkpt>
      <trkpt lat="49.24454" lon="-0.34897">
        <ele>35.2</ele>
        <time>2023-04-28T11:44:20Z</time>
      </trkpt>
      <trkpt lat="49.24456" lon="-0.34904">
        <ele>35</ele>
        <time>2023-04-28T11:44:21Z</time>
      </trkpt>
      <trkpt lat="49.24457" lon="-0.34911">
        <ele>35</ele>
        <time>2023-04-28T11:44:22Z</time>
      </trkpt>
      <trkpt lat="49.24459" lon="-0.34918">
        <ele>35</ele>
        <time>2023-04-28T11:44:23Z</time>
      </trkpt>
      <trkpt lat="49.2446" lon="-0.34925">
        <ele>35</ele>
        <time>2023-04-28T11:44:24Z</time>
      </trkpt>
      <trkpt lat="49.24461" lon="-0.34932">
        <ele>35</ele>
        <time>2023-04-28T11:44:25Z</time>
      </trkpt>
      <trkpt lat="49.24463" lon="-0.34939">
        <ele>35</ele>
        <time>2023-04-28T11:44:26Z</time>
      </trkpt>
      <trkpt lat="49.24464" lon="-0.34946">
        <ele>35</ele>
        <time>2023-04-28T11:44:27Z</time>
      </trkpt>
      <trkpt lat="49.24466" lon="-0.34953">
        <ele>35</ele>
        <time>2023-04-28T11:44:28Z</time>
      </trkpt>
      <trkpt lat="49.24468" lon="-0.34961">
        <ele>35</ele>
        <time>2023-04-28T11:44:29Z</time>
      </trkpt>
      <trkpt lat="49.24469" lon="-0.34968">
        <ele>35</ele>
        <time>2023-04-28T11:44:30Z</time>
      </trkpt>
      <trkpt lat="49.24471" lon="-0.34976">
        <ele>35.2</ele>
        <time>2023-04-28T11:44:31Z</time>
      </trkpt>
      <trkpt lat="49.24472" lon="-0.34983">
        <ele>35.2</ele>
        <time>2023-04-28T11:44:32Z</time>
      </trkpt>
      <trkpt lat="49.24474" lon="-0.34991">
        <ele>35.2</ele>
        <time>2023-04-28T11:44:33Z</time>
      </trkpt>
      <trkpt lat="49.24475" lon="-0.34998">
        <ele>35.2</ele>
        <time>2023-04-28T11:44:34Z</time>
      </trkpt>
      <trkpt lat="49.24477" lon="-0.35005">
        <ele>35.4</ele>
        <time>2023-04-28T11:44:35Z</time>
      </trkpt>
      <trkpt lat="49.24478" lon="-0.35012">
        <ele>35.6</ele>
        <time>2023-04-28T11:44:36Z</time>
      </trkpt>
      <trkpt lat="49.2448" lon="-0.35019">
        <ele>35.6</ele>
        <time>2023-04-28T11:44:37Z</time>
      </trkpt>
      <trkpt lat="49.24481" lon="-0.35026">
        <ele>35.8</ele>
        <time>2023-04-28T11:44:38Z</time>
      </trkpt>
      <trkpt lat="49.24483" lon="-0.35033">
        <ele>35.8</ele>
        <time>2023-04-28T11:44:39Z</time>
      </trkpt>
      <trkpt lat="49.24485" lon="-0.3504">
        <ele>36</ele>
        <time>2023-04-28T11:44:40Z</time>
      </trkpt>
      <trkpt lat="49.24487" lon="-0.35048">
        <ele>36</ele>
        <time>2023-04-28T11:44:41Z</time>
      </trkpt>
      <trkpt lat="49.24489" lon="-0.35054">
        <ele>36.2</ele>
        <time>2023-04-28T11:44:42Z</time>
      </trkpt>
      <trkpt lat="49.2449" lon="-0.35061">
        <ele>36.4</ele>
        <time>2023-04-28T11:44:43Z</time>
      </trkpt>
      <trkpt lat="49.24492" lon="-0.35068">
        <ele>36.6</ele>
        <time>2023-04-28T11:44:44Z</time>
      </trkpt>
      <trkpt lat="49.24494" lon="-0.35075">
        <ele>36.8</ele>
        <time>2023-04-28T11:44:45Z</time>
      </trkpt>
      <trkpt lat="49.24496" lon="-0.35082">
        <ele>37</ele>
        <time>2023-04-28T11:44:46Z</time>
      </trkpt>
      <trkpt lat="49.24498" lon="-0.35088">
        <ele>37</ele>
        <time>2023-04-28T11:44:47Z</time>
      </trkpt>
      <trkpt lat="49.245" lon="-0.35095">
        <ele>36.8</ele>
        <time>2023-04-28T11:44:48Z</time>
      </trkpt>
      <trkpt lat="49.24502" lon="-0.35101">
        <ele>36.6</ele>
        <time>2023-04-28T11:44:49Z</time>
      </trkpt>
      <trkpt lat="49.24504" lon="-0.35108">
        <ele>36.4</ele>
        <time>2023-04-28T11:44:50Z</time>
      </trkpt>
      <trkpt lat="49.24506" lon="-0.35114">
        <ele>36.2</ele>
        <time>2023-04-28T11:44:51Z</time>
      </trkpt>
      <trkpt lat="49.24508" lon="-0.35121">
        <ele>36</ele>
        <time>2023-04-28T11:44:52Z</time>
      </trkpt>
      <trkpt lat="49.2451" lon="-0.35127">
        <ele>36</ele>
        <time>2023-04-28T11:44:53Z</time>
      </trkpt>
      <trkpt lat="49.24512" lon="-0.35134">
        <ele>35.8</ele>
        <time>2023-04-28T11:44:54Z</time>
      </trkpt>
      <trkpt lat="49.24514" lon="-0.3514">
        <ele>35.8</ele>
        <time>2023-04-28T11:44:55Z</time>
      </trkpt>
      <trkpt lat="49.24516" lon="-0.35147">
        <ele>35.6</ele>
        <time>2023-04-28T11:44:56Z</time>
      </trkpt>
      <trkpt lat="49.24518" lon="-0.35154">
        <ele>35.6</ele>
        <time>2023-04-28T11:44:57Z</time>
      </trkpt>
      <trkpt lat="49.2452" lon="-0.35161">
        <ele>35.4</ele>
        <time>2023-04-28T11:44:58Z</time>
      </trkpt>
      <trkpt lat="49.24523" lon="-0.35168">
        <ele>35.2</ele>
        <time>2023-04-28T11:44:59Z</time>
      </trkpt>
      <trkpt lat="49.24525" lon="-0.35175">
        <ele>35.4</ele>
        <time>2023-04-28T11:45:00Z</time>
      </trkpt>
      <trkpt lat="49.24527" lon="-0.35182">
        <ele>35.4</ele>
        <time>2023-04-28T11:45:01Z</time>
      </trkpt>
      <trkpt lat="49.24529" lon="-0.35189">
        <ele>35.6</ele>
        <time>2023-04-28T11:45:02Z</time>
      </trkpt>
      <trkpt lat="49.24532" lon="-0.35196">
        <ele>35.6</ele>
        <time>2023-04-28T11:45:03Z</time>
      </trkpt>
      <trkpt lat="49.24534" lon="-0.35204">
        <ele>35.8</ele>
        <time>2023-04-28T11:45:04Z</time>
      </trkpt>
      <trkpt lat="49.24536" lon="-0.35211">
        <ele>35.8</ele>
        <time>2023-04-28T11:45:05Z</time>
      </trkpt>
      <trkpt lat="49.24538" lon="-0.35218">
        <ele>35.8</ele>
        <time>2023-04-28T11:45:06Z</time>
      </trkpt>
      <trkpt lat="49.24541" lon="-0.35226">
        <ele>36</ele>
        <time>2023-04-28T11:45:07Z</time>
      </trkpt>
      <trkpt lat="49.24543" lon="-0.35233">
        <ele>36</ele>
        <time>2023-04-28T11:45:08Z</time>
      </trkpt>
      <trkpt lat="49.24545" lon="-0.35241">
        <ele>36</ele>
        <time>2023-04-28T11:45:09Z</time>
      </trkpt>
      <trkpt lat="49.24548" lon="-0.35249">
        <ele>36</ele>
        <time>2023-04-28T11:45:10Z</time>
      </trkpt>
      <trkpt lat="49.2455" lon="-0.35257">
        <ele>36</ele>
        <time>2023-04-28T11:45:11Z</time>
      </trkpt>
      <trkpt lat="49.24553" lon="-0.35265">
        <ele>36</ele>
        <time>2023-04-28T11:45:12Z</time>
      </trkpt>
      <trkpt lat="49.24555" lon="-0.35273">
        <ele>35.8</ele>
        <time>2023-04-28T11:45:13Z</time>
      </trkpt>
      <trkpt lat="49.24558" lon="-0.35281">
        <ele>35.8</ele>
        <time>2023-04-28T11:45:14Z</time>
      </trkpt>
      <trkpt lat="49.2456" lon="-0.35289">
        <ele>35.8</ele>
        <time>2023-04-28T11:45:15Z</time>
      </trkpt>
      <trkpt lat="49.24563" lon="-0.35297">
        <ele>35.6</ele>
        <time>2023-04-28T11:45:16Z</time>
      </trkpt>
      <trkpt lat="49.24566" lon="-0.35306">
        <ele>35.6</ele>
        <time>2023-04-28T11:45:17Z</time>
      </trkpt>
      <trkpt lat="49.24568" lon="-0.35315">
        <ele>35.4</ele>
        <time>2023-04-28T11:45:18Z</time>
      </trkpt>
      <trkpt lat="49.24571" lon="-0.35323">
        <ele>35.2</ele>
        <time>2023-04-28T11:45:19Z</time>
      </trkpt>
      <trkpt lat="49.24574" lon="-0.35332">
        <ele>35</ele>
        <time>2023-04-28T11:45:20Z</time>
      </trkpt>
      <trkpt lat="49.24577" lon="-0.35341">
        <ele>34.8</ele>
        <time>2023-04-28T11:45:21Z</time>
      </trkpt>
      <trkpt lat="49.24579" lon="-0.35351">
        <ele>34.6</ele>
        <time>2023-04-28T11:45:22Z</time>
      </trkpt>
      <trkpt lat="49.24582" lon="-0.3536">
        <ele>34</ele>
        <time>2023-04-28T11:45:23Z</time>
      </trkpt>
      <trkpt lat="49.24586" lon="-0.35369">
        <ele>33.8</ele>
        <time>2023-04-28T11:45:24Z</time>
      </trkpt>
      <trkpt lat="49.24589" lon="-0.35379">
        <ele>33.2</ele>
        <time>2023-04-28T11:45:25Z</time>
      </trkpt>
      <trkpt lat="49.24592" lon="-0.35388">
        <ele>33</ele>
        <time>2023-04-28T11:45:26Z</time>
      </trkpt>
      <trkpt lat="49.24596" lon="-0.35398">
        <ele>32.6</ele>
        <time>2023-04-28T11:45:27Z</time>
      </trkpt>
      <trkpt lat="49.246" lon="-0.35408">
        <ele>32.2</ele>
        <time>2023-04-28T11:45:28Z</time>
      </trkpt>
      <trkpt lat="49.24603" lon="-0.35417">
        <ele>32</ele>
        <time>2023-04-28T11:45:29Z</time>
      </trkpt>
      <trkpt lat="49.24607" lon="-0.35426">
        <ele>32</ele>
        <time>2023-04-28T11:45:30Z</time>
      </trkpt>
      <trkpt lat="49.24611" lon="-0.35436">
        <ele>32</ele>
        <time>2023-04-28T11:45:31Z</time>
      </trkpt>
      <trkpt lat="49.24615" lon="-0.35445">
        <ele>32</ele>
        <time>2023-04-28T11:45:32Z</time>
      </trkpt>
      <trkpt lat="49.24618" lon="-0.35454">
        <ele>32.2</ele>
        <time>2023-04-28T11:45:33Z</time>
      </trkpt>
      <trkpt lat="49.24622" lon="-0.35462">
        <ele>32.2</ele>
        <time>2023-04-28T11:45:34Z</time>
      </trkpt>
      <trkpt lat="49.24625" lon="-0.35471">
        <ele>32.2</ele>
        <time>2023-04-28T11:45:35Z</time>
      </trkpt>
      <trkpt lat="49.24629" lon="-0.35479">
        <ele>32.4</ele>
        <time>2023-04-28T11:45:36Z</time>
      </trkpt>
      <trkpt lat="49.24632" lon="-0.35488">
        <ele>32.6</ele>
        <time>2023-04-28T11:45:37Z</time>
      </trkpt>
      <trkpt lat="49.24635" lon="-0.35496">
        <ele>32.6</ele>
        <time>2023-04-28T11:45:38Z</time>
      </trkpt>
      <trkpt lat="49.24638" lon="-0.35503">
        <ele>32.8</ele>
        <time>2023-04-28T11:45:39Z</time>
      </trkpt>
      <trkpt lat="49.24641" lon="-0.35511">
        <ele>33</ele>
        <time>2023-04-28T11:45:40Z</time>
      </trkpt>
      <trkpt lat="49.24644" lon="-0.35518">
        <ele>33</ele>
        <time>2023-04-28T11:45:41Z</time>
      </trkpt>
      <trkpt lat="49.24647" lon="-0.35525">
        <ele>33.2</ele>
        <time>2023-04-28T11:45:42Z</time>
      </trkpt>
      <trkpt lat="49.2465" lon="-0.35532">
        <ele>33.6</ele>
        <time>2023-04-28T11:45:43Z</time>
      </trkpt>
      <trkpt lat="49.24653" lon="-0.35539">
        <ele>33.8</ele>
        <time>2023-04-28T11:45:44Z</time>
      </trkpt>
      <trkpt lat="49.24655" lon="-0.35546">
        <ele>34</ele>
        <time>2023-04-28T11:45:45Z</time>
      </trkpt>
      <trkpt lat="49.24658" lon="-0.35552">
        <ele>34</ele>
        <time>2023-04-28T11:45:46Z</time>
      </trkpt>
      <trkpt lat="49.2466" lon="-0.35559">
        <ele>34.2</ele>
        <time>2023-04-28T11:45:47Z</time>
      </trkpt>
      <trkpt lat="49.24663" lon="-0.35565">
        <ele>34.6</ele>
        <time>2023-04-28T11:45:48Z</time>
      </trkpt>
      <trkpt lat="49.24666" lon="-0.35572">
        <ele>34.8</ele>
        <time>2023-04-28T11:45:49Z</time>
      </trkpt>
      <trkpt lat="49.24668" lon="-0.35578">
        <ele>35</ele>
        <time>2023-04-28T11:45:50Z</time>
      </trkpt>
      <trkpt lat="49.24671" lon="-0.35584">
        <ele>35</ele>
        <time>2023-04-28T11:45:51Z</time>
      </trkpt>
      <trkpt lat="49.24673" lon="-0.35591">
        <ele>35.2</ele>
        <time>2023-04-28T11:45:52Z</time>
      </trkpt>
      <trkpt lat="49.24676" lon="-0.35597">
        <ele>35.4</ele>
        <time>2023-04-28T11:45:53Z</time>
      </trkpt>
      <trkpt lat="49.24679" lon="-0.35604">
        <ele>35.6</ele>
        <time>2023-04-28T11:45:54Z</time>
      </trkpt>
      <trkpt lat="49.24681" lon="-0.3561">
        <ele>35.8</ele>
        <time>2023-04-28T11:45:55Z</time>
      </trkpt>
      <trkpt lat="49.24684" lon="-0.35617">
        <ele>36</ele>
        <time>2023-04-28T11:45:56Z</time>
      </trkpt>
      <trkpt lat="49.24686" lon="-0.35623">
        <ele>36.2</ele>
        <time>2023-04-28T11:45:57Z</time>
      </trkpt>
      <trkpt lat="49.24689" lon="-0.3563">
        <ele>36.4</ele>
        <time>2023-04-28T11:45:58Z</time>
      </trkpt>
      <trkpt lat="49.24691" lon="-0.35636">
        <ele>36.6</ele>
        <time>2023-04-28T11:45:59Z</time>
      </trkpt>
      <trkpt lat="49.24694" lon="-0.35642">
        <ele>36.8</ele>
        <time>2023-04-28T11:46:00Z</time>
      </trkpt>
      <trkpt lat="49.24696" lon="-0.35648">
        <ele>37</ele>
        <time>2023-04-28T11:46:01Z</time>
      </trkpt>
      <trkpt lat="49.24698" lon="-0.35653">
        <ele>37</ele>
        <time>2023-04-28T11:46:02Z</time>
      </trkpt>
      <trkpt lat="49.247" lon="-0.35659">
        <ele>37.2</ele>
        <time>2023-04-28T11:46:03Z</time>
      </trkpt>
      <trkpt lat="49.24703" lon="-0.35665">
        <ele>37.4</ele>
        <time>2023-04-28T11:46:04Z</time>
      </trkpt>
      <trkpt lat="49.24705" lon="-0.3567">
        <ele>37.6</ele>
        <time>2023-04-28T11:46:05Z</time>
      </trkpt>
      <trkpt lat="49.24707" lon="-0.35676">
        <ele>37.6</ele>
        <time>2023-04-28T11:46:06Z</time>
      </trkpt>
      <trkpt lat="49.2471" lon="-0.35682">
        <ele>37.8</ele>
        <time>2023-04-28T11:46:07Z</time>
      </trkpt>
      <trkpt lat="49.24712" lon="-0.35688">
        <ele>37.8</ele>
        <time>2023-04-28T11:46:08Z</time>
      </trkpt>
      <trkpt lat="49.24715" lon="-0.35694">
        <ele>38</ele>
        <time>2023-04-28T11:46:09Z</time>
      </trkpt>
      <trkpt lat="49.24717" lon="-0.357">
        <ele>38</ele>
        <time>2023-04-28T11:46:10Z</time>
      </trkpt>
      <trkpt lat="49.24719" lon="-0.35705">
        <ele>38</ele>
        <time>2023-04-28T11:46:11Z</time>
      </trkpt>
      <trkpt lat="49.24722" lon="-0.35711">
        <ele>38.2</ele>
        <time>2023-04-28T11:46:12Z</time>
      </trkpt>
      <trkpt lat="49.24724" lon="-0.35717">
        <ele>38.2</ele>
        <time>2023-04-28T11:46:13Z</time>
      </trkpt>
      <trkpt lat="49.24726" lon="-0.35723">
        <ele>38.4</ele>
        <time>2023-04-28T11:46:14Z</time>
      </trkpt>
      <trkpt lat="49.24729" lon="-0.35728">
        <ele>38.6</ele>
        <time>2023-04-28T11:46:15Z</time>
      </trkpt>
      <trkpt lat="49.24731" lon="-0.35734">
        <ele>38.6</ele>
        <time>2023-04-28T11:46:16Z</time>
      </trkpt>
      <trkpt lat="49.24733" lon="-0.3574">
        <ele>38.8</ele>
        <time>2023-04-28T11:46:17Z</time>
      </trkpt>
      <trkpt lat="49.24735" lon="-0.35745">
        <ele>38.8</ele>
        <time>2023-04-28T11:46:18Z</time>
      </trkpt>
      <trkpt lat="49.24737" lon="-0.35751">
        <ele>39</ele>
        <time>2023-04-28T11:46:19Z</time>
      </trkpt>
      <trkpt lat="49.2474" lon="-0.35756">
        <ele>39</ele>
        <time>2023-04-28T11:46:20Z</time>
      </trkpt>
      <trkpt lat="49.24742" lon="-0.35762">
        <ele>39</ele>
        <time>2023-04-28T11:46:21Z</time>
      </trkpt>
      <trkpt lat="49.24744" lon="-0.35767">
        <ele>39</ele>
        <time>2023-04-28T11:46:22Z</time>
      </trkpt>
      <trkpt lat="49.24746" lon="-0.35773">
        <ele>39</ele>
        <time>2023-04-28T11:46:23Z</time>
      </trkpt>
      <trkpt lat="49.24748" lon="-0.35778">
        <ele>39</ele>
        <time>2023-04-28T11:46:24Z</time>
      </trkpt>
      <trkpt lat="49.24751" lon="-0.35784">
        <ele>39</ele>
        <time>2023-04-28T11:46:25Z</time>
      </trkpt>
      <trkpt lat="49.24753" lon="-0.3579">
        <ele>39</ele>
        <time>2023-04-28T11:46:26Z</time>
      </trkpt>
      <trkpt lat="49.24755" lon="-0.35796">
        <ele>39</ele>
        <time>2023-04-28T11:46:27Z</time>
      </trkpt>
      <trkpt lat="49.24757" lon="-0.35801">
        <ele>39</ele>
        <time>2023-04-28T11:46:28Z</time>
      </trkpt>
      <trkpt lat="49.2476" lon="-0.35807">
        <ele>39</ele>
        <time>2023-04-28T11:46:29Z</time>
      </trkpt>
      <trkpt lat="49.24762" lon="-0.35813">
        <ele>39.2</ele>
        <time>2023-04-28T11:46:30Z</time>
      </trkpt>
      <trkpt lat="49.24764" lon="-0.35819">
        <ele>39.2</ele>
        <time>2023-04-28T11:46:31Z</time>
      </trkpt>
      <trkpt lat="49.24766" lon="-0.35824">
        <ele>39.2</ele>
        <time>2023-04-28T11:46:32Z</time>
      </trkpt>
      <trkpt lat="49.24769" lon="-0.3583">
        <ele>39.4</ele>
        <time>2023-04-28T11:46:33Z</time>
      </trkpt>
      <trkpt lat="49.24771" lon="-0.35835">
        <ele>39.6</ele>
        <time>2023-04-28T11:46:34Z</time>
      </trkpt>
      <trkpt lat="49.24773" lon="-0.3584">
        <ele>39.8</ele>
        <time>2023-04-28T11:46:35Z</time>
      </trkpt>
      <trkpt lat="49.24775" lon="-0.35845">
        <ele>40</ele>
        <time>2023-04-28T11:46:36Z</time>
      </trkpt>
      <trkpt lat="49.24777" lon="-0.3585">
        <ele>40</ele>
        <time>2023-04-28T11:46:37Z</time>
      </trkpt>
      <trkpt lat="49.24779" lon="-0.35855">
        <ele>40.2</ele>
        <time>2023-04-28T11:46:38Z</time>
      </trkpt>
      <trkpt lat="49.24781" lon="-0.3586">
        <ele>40.4</ele>
        <time>2023-04-28T11:46:39Z</time>
      </trkpt>
      <trkpt lat="49.24783" lon="-0.35865">
        <ele>40.6</ele>
        <time>2023-04-28T11:46:40Z</time>
      </trkpt>
      <trkpt lat="49.24786" lon="-0.35871">
        <ele>40.8</ele>
        <time>2023-04-28T11:46:41Z</time>
      </trkpt>
      <trkpt lat="49.24788" lon="-0.35876">
        <ele>41</ele>
        <time>2023-04-28T11:46:42Z</time>
      </trkpt>
      <trkpt lat="49.2479" lon="-0.35882">
        <ele>41</ele>
        <time>2023-04-28T11:46:43Z</time>
      </trkpt>
      <trkpt lat="49.24792" lon="-0.35888">
        <ele>41.2</ele>
        <time>2023-04-28T11:46:44Z</time>
      </trkpt>
      <trkpt lat="49.24795" lon="-0.35893">
        <ele>41.6</ele>
        <time>2023-04-28T11:46:45Z</time>
      </trkpt>
      <trkpt lat="49.24797" lon="-0.35899">
        <ele>41.8</ele>
        <time>2023-04-28T11:46:46Z</time>
      </trkpt>
      <trkpt lat="49.24799" lon="-0.35905">
        <ele>42</ele>
        <time>2023-04-28T11:46:47Z</time>
      </trkpt>
      <trkpt lat="49.24802" lon="-0.35911">
        <ele>42</ele>
        <time>2023-04-28T11:46:48Z</time>
      </trkpt>
      <trkpt lat="49.24804" lon="-0.35917">
        <ele>42.2</ele>
        <time>2023-04-28T11:46:49Z</time>
      </trkpt>
      <trkpt lat="49.24806" lon="-0.35923">
        <ele>42.4</ele>
        <time>2023-04-28T11:46:50Z</time>
      </trkpt>
      <trkpt lat="49.24809" lon="-0.35929">
        <ele>42.6</ele>
        <time>2023-04-28T11:46:51Z</time>
      </trkpt>
      <trkpt lat="49.24811" lon="-0.35935">
        <ele>42.6</ele>
        <time>2023-04-28T11:46:52Z</time>
      </trkpt>
      <trkpt lat="49.24813" lon="-0.35941">
        <ele>42.6</ele>
        <time>2023-04-28T11:46:53Z</time>
      </trkpt>
      <trkpt lat="49.24816" lon="-0.35946">
        <ele>42.8</ele>
        <time>2023-04-28T11:46:54Z</time>
      </trkpt>
      <trkpt lat="49.24818" lon="-0.35952">
        <ele>42.8</ele>
        <time>2023-04-28T11:46:55Z</time>
      </trkpt>
      <trkpt lat="49.2482" lon="-0.35958">
        <ele>42.8</ele>
        <time>2023-04-28T11:46:56Z</time>
      </trkpt>
      <trkpt lat="49.24823" lon="-0.35964">
        <ele>42.8</ele>
        <time>2023-04-28T11:46:57Z</time>
      </trkpt>
      <trkpt lat="49.24825" lon="-0.3597">
        <ele>43</ele>
        <time>2023-04-28T11:46:58Z</time>
      </trkpt>
      <trkpt lat="49.24827" lon="-0.35975">
        <ele>43</ele>
        <time>2023-04-28T11:46:59Z</time>
      </trkpt>
      <trkpt lat="49.24829" lon="-0.35981">
        <ele>43</ele>
        <time>2023-04-28T11:47:00Z</time>
      </trkpt>
      <trkpt lat="49.24832" lon="-0.35987">
        <ele>43</ele>
        <time>2023-04-28T11:47:01Z</time>
      </trkpt>
      <trkpt lat="49.24834" lon="-0.35993">
        <ele>43</ele>
        <time>2023-04-28T11:47:02Z</time>
      </trkpt>
      <trkpt lat="49.24836" lon="-0.35998">
        <ele>43</ele>
        <time>2023-04-28T11:47:03Z</time>
      </trkpt>
      <trkpt lat="49.24839" lon="-0.36004">
        <ele>43</ele>
        <time>2023-04-28T11:47:04Z</time>
      </trkpt>
      <trkpt lat="49.24841" lon="-0.3601">
        <ele>43.2</ele>
        <time>2023-04-28T11:47:05Z</time>
      </trkpt>
      <trkpt lat="49.24843" lon="-0.36016">
        <ele>43.2</ele>
        <time>2023-04-28T11:47:06Z</time>
      </trkpt>
      <trkpt lat="49.24845" lon="-0.36021">
        <ele>43.4</ele>
        <time>2023-04-28T11:47:07Z</time>
      </trkpt>
      <trkpt lat="49.24848" lon="-0.36027">
        <ele>43.6</ele>
        <time>2023-04-28T11:47:08Z</time>
      </trkpt>
      <trkpt lat="49.2485" lon="-0.36033">
        <ele>43.6</ele>
        <time>2023-04-28T11:47:09Z</time>
      </trkpt>
      <trkpt lat="49.24852" lon="-0.36039">
        <ele>43.8</ele>
        <time>2023-04-28T11:47:10Z</time>
      </trkpt>
      <trkpt lat="49.24854" lon="-0.36044">
        <ele>43.8</ele>
        <time>2023-04-28T11:47:11Z</time>
      </trkpt>
      <trkpt lat="49.24857" lon="-0.3605">
        <ele>44</ele>
        <time>2023-04-28T11:47:12Z</time>
      </trkpt>
      <trkpt lat="49.24859" lon="-0.36056">
        <ele>44</ele>
        <time>2023-04-28T11:47:13Z</time>
      </trkpt>
      <trkpt lat="49.24861" lon="-0.36061">
        <ele>44</ele>
        <time>2023-04-28T11:47:14Z</time>
      </trkpt>
      <trkpt lat="49.24863" lon="-0.36067">
        <ele>44.2</ele>
        <time>2023-04-28T11:47:15Z</time>
      </trkpt>
      <trkpt lat="49.24866" lon="-0.36072">
        <ele>44.2</ele>
        <time>2023-04-28T11:47:16Z</time>
      </trkpt>
      <trkpt lat="49.24868" lon="-0.36078">
        <ele>44.2</ele>
        <time>2023-04-28T11:47:17Z</time>
      </trkpt>
      <trkpt lat="49.2487" lon="-0.36083">
        <ele>44.4</ele>
        <time>2023-04-28T11:47:18Z</time>
      </trkpt>
      <trkpt lat="49.24872" lon="-0.36089">
        <ele>44.6</ele>
        <time>2023-04-28T11:47:19Z</time>
      </trkpt>
      <trkpt lat="49.24874" lon="-0.36095">
        <ele>44.6</ele>
        <time>2023-04-28T11:47:20Z</time>
      </trkpt>
      <trkpt lat="49.24877" lon="-0.36101">
        <ele>44.8</ele>
        <time>2023-04-28T11:47:21Z</time>
      </trkpt>
      <trkpt lat="49.24879" lon="-0.36107">
        <ele>44.8</ele>
        <time>2023-04-28T11:47:22Z</time>
      </trkpt>
      <trkpt lat="49.24882" lon="-0.36113">
        <ele>45</ele>
        <time>2023-04-28T11:47:23Z</time>
      </trkpt>
      <trkpt lat="49.24884" lon="-0.36119">
        <ele>45</ele>
        <time>2023-04-28T11:47:24Z</time>
      </trkpt>
      <trkpt lat="49.24887" lon="-0.36125">
        <ele>45</ele>
        <time>2023-04-28T11:47:25Z</time>
      </trkpt>
      <trkpt lat="49.24889" lon="-0.36131">
        <ele>45.2</ele>
        <time>2023-04-28T11:47:26Z</time>
      </trkpt>
      <trkpt lat="49.24891" lon="-0.36137">
        <ele>45.2</ele>
        <time>2023-04-28T11:47:27Z</time>
      </trkpt>
      <trkpt lat="49.24894" lon="-0.36143">
        <ele>45.4</ele>
        <time>2023-04-28T11:47:28Z</time>
      </trkpt>
      <trkpt lat="49.24897" lon="-0.36149">
        <ele>45.6</ele>
        <time>2023-04-28T11:47:29Z</time>
      </trkpt>
      <trkpt lat="49.249" lon="-0.36155">
        <ele>45.8</ele>
        <time>2023-04-28T11:47:30Z</time>
      </trkpt>
      <trkpt lat="49.24902" lon="-0.36161">
        <ele>45.8</ele>
        <time>2023-04-28T11:47:31Z</time>
      </trkpt>
      <trkpt lat="49.24905" lon="-0.36167">
        <ele>46</ele>
        <time>2023-04-28T11:47:32Z</time>
      </trkpt>
      <trkpt lat="49.24908" lon="-0.36173">
        <ele>46</ele>
        <time>2023-04-28T11:47:33Z</time>
      </trkpt>
      <trkpt lat="49.2491" lon="-0.36179">
        <ele>46</ele>
        <time>2023-04-28T11:47:34Z</time>
      </trkpt>
      <trkpt lat="49.24913" lon="-0.36185">
        <ele>46</ele>
        <time>2023-04-28T11:47:35Z</time>
      </trkpt>
      <trkpt lat="49.24916" lon="-0.36191">
        <ele>46</ele>
        <time>2023-04-28T11:47:36Z</time>
      </trkpt>
      <trkpt lat="49.24919" lon="-0.36197">
        <ele>46</ele>
        <time>2023-04-28T11:47:37Z</time>
      </trkpt>
      <trkpt lat="49.24922" lon="-0.36203">
        <ele>46</ele>
        <time>2023-04-28T11:47:38Z</time>
      </trkpt>
      <trkpt lat="49.24925" lon="-0.36208">
        <ele>46</ele>
        <time>2023-04-28T11:47:39Z</time>
      </trkpt>
      <trkpt lat="49.24928" lon="-0.36214">
        <ele>45.8</ele>
        <time>2023-04-28T11:47:40Z</time>
      </trkpt>
      <trkpt lat="49.24931" lon="-0.3622">
        <ele>45.8</ele>
        <time>2023-04-28T11:47:41Z</time>
      </trkpt>
      <trkpt lat="49.24934" lon="-0.36226">
        <ele>45.8</ele>
        <time>2023-04-28T11:47:42Z</time>
      </trkpt>
      <trkpt lat="49.24937" lon="-0.36232">
        <ele>45.8</ele>
        <time>2023-04-28T11:47:43Z</time>
      </trkpt>
      <trkpt lat="49.24941" lon="-0.36238">
        <ele>45.8</ele>
        <time>2023-04-28T11:47:44Z</time>
      </trkpt>
      <trkpt lat="49.24944" lon="-0.36244">
        <ele>45.6</ele>
        <time>2023-04-28T11:47:45Z</time>
      </trkpt>
      <trkpt lat="49.24948" lon="-0.3625">
        <ele>45.6</ele>
        <time>2023-04-28T11:47:46Z</time>
      </trkpt>
      <trkpt lat="49.24951" lon="-0.36256">
        <ele>45.8</ele>
        <time>2023-04-28T11:47:47Z</time>
      </trkpt>
      <trkpt lat="49.24955" lon="-0.36262">
        <ele>45.8</ele>
        <time>2023-04-28T11:47:48Z</time>
      </trkpt>
      <trkpt lat="49.24958" lon="-0.36269">
        <ele>45.8</ele>
        <time>2023-04-28T11:47:49Z</time>
      </trkpt>
      <trkpt lat="49.24962" lon="-0.36275">
        <ele>45.8</ele>
        <time>2023-04-28T11:47:50Z</time>
      </trkpt>
      <trkpt lat="49.24966" lon="-0.36281">
        <ele>45.8</ele>
        <time>2023-04-28T11:47:51Z</time>
      </trkpt>
      <trkpt lat="49.24969" lon="-0.36287">
        <ele>45.8</ele>
        <time>2023-04-28T11:47:52Z</time>
      </trkpt>
      <trkpt lat="49.24973" lon="-0.36293">
        <ele>45.8</ele>
        <time>2023-04-28T11:47:53Z</time>
      </trkpt>
      <trkpt lat="49.24977" lon="-0.363">
        <ele>46</ele>
        <time>2023-04-28T11:47:54Z</time>
      </trkpt>
      <trkpt lat="49.24981" lon="-0.36306">
        <ele>46</ele>
        <time>2023-04-28T11:47:55Z</time>
      </trkpt>
      <trkpt lat="49.24985" lon="-0.36312">
        <ele>46</ele>
        <time>2023-04-28T11:47:56Z</time>
      </trkpt>
      <trkpt lat="49.24988" lon="-0.36319">
        <ele>46</ele>
        <time>2023-04-28T11:47:57Z</time>
      </trkpt>
      <trkpt lat="49.24992" lon="-0.36325">
        <ele>46</ele>
        <time>2023-04-28T11:47:58Z</time>
      </trkpt>
      <trkpt lat="49.24996" lon="-0.36332">
        <ele>46</ele>
        <time>2023-04-28T11:47:59Z</time>
      </trkpt>
      <trkpt lat="49.25" lon="-0.36338">
        <ele>46</ele>
        <time>2023-04-28T11:48:00Z</time>
      </trkpt>
      <trkpt lat="49.25005" lon="-0.36345">
        <ele>46</ele>
        <time>2023-04-28T11:48:01Z</time>
      </trkpt>
      <trkpt lat="49.25009" lon="-0.36352">
        <ele>46</ele>
        <time>2023-04-28T11:48:02Z</time>
      </trkpt>
      <trkpt lat="49.25013" lon="-0.36358">
        <ele>46</ele>
        <time>2023-04-28T11:48:03Z</time>
      </trkpt>
      <trkpt lat="49.25017" lon="-0.36365">
        <ele>46</ele>
        <time>2023-04-28T11:48:04Z</time>
      </trkpt>
      <trkpt lat="49.25021" lon="-0.36372">
        <ele>46</ele>
        <time>2023-04-28T11:48:05Z</time>
      </trkpt>
      <trkpt lat="49.25025" lon="-0.36379">
        <ele>46</ele>
        <time>2023-04-28T11:48:06Z</time>
      </trkpt>
      <trkpt lat="49.25029" lon="-0.36386">
        <ele>46</ele>
        <time>2023-04-28T11:48:07Z</time>
      </trkpt>
      <trkpt lat="49.25033" lon="-0.36393">
        <ele>46</ele>
        <time>2023-04-28T11:48:08Z</time>
      </trkpt>
      <trkpt lat="49.25038" lon="-0.364">
        <ele>46</ele>
        <time>2023-04-28T11:48:09Z</time>
      </trkpt>
      <trkpt lat="49.25041" lon="-0.36407">
        <ele>46</ele>
        <time>2023-04-28T11:48:10Z</time>
      </trkpt>
      <trkpt lat="49.25045" lon="-0.36414">
        <ele>46</ele>
        <time>2023-04-28T11:48:11Z</time>
      </trkpt>
      <trkpt lat="49.2505" lon="-0.3642">
        <ele>46</ele>
        <time>2023-04-28T11:48:12Z</time>
      </trkpt>
      <trkpt lat="49.25053" lon="-0.36427">
        <ele>46</ele>
        <time>2023-04-28T11:48:13Z</time>
      </trkpt>
      <trkpt lat="49.25057" lon="-0.36434">
        <ele>46</ele>
        <time>2023-04-28T11:48:14Z</time>
      </trkpt>
      <trkpt lat="49.25061" lon="-0.36441">
        <ele>46</ele>
        <time>2023-04-28T11:48:15Z</time>
      </trkpt>
      <trkpt lat="49.25065" lon="-0.36448">
        <ele>46</ele>
        <time>2023-04-28T11:48:16Z</time>
      </trkpt>
      <trkpt lat="49.25069" lon="-0.36454">
        <ele>46</ele>
        <time>2023-04-28T11:48:17Z</time>
      </trkpt>
      <trkpt lat="49.25074" lon="-0.3646">
        <ele>46</ele>
        <time>2023-04-28T11:48:18Z</time>
      </trkpt>
      <trkpt lat="49.25078" lon="-0.36467">
        <ele>46</ele>
        <time>2023-04-28T11:48:19Z</time>
      </trkpt>
      <trkpt lat="49.25082" lon="-0.36474">
        <ele>46</ele>
        <time>2023-04-28T11:48:20Z</time>
      </trkpt>
      <trkpt lat="49.25086" lon="-0.3648">
        <ele>46</ele>
        <time>2023-04-28T11:48:21Z</time>
      </trkpt>
      <trkpt lat="49.2509" lon="-0.36487">
        <ele>46</ele>
        <time>2023-04-28T11:48:22Z</time>
      </trkpt>
      <trkpt lat="49.25093" lon="-0.36493">
        <ele>46</ele>
        <time>2023-04-28T11:48:23Z</time>
      </trkpt>
      <trkpt lat="49.25097" lon="-0.365">
        <ele>46</ele>
        <time>2023-04-28T11:48:24Z</time>
      </trkpt>
      <trkpt lat="49.251" lon="-0.36506">
        <ele>46</ele>
        <time>2023-04-28T11:48:25Z</time>
      </trkpt>
      <trkpt lat="49.25102" lon="-0.36512">
        <ele>46</ele>
        <time>2023-04-28T11:48:26Z</time>
      </trkpt>
      <trkpt lat="49.25105" lon="-0.36519">
        <ele>46</ele>
        <time>2023-04-28T11:48:27Z</time>
      </trkpt>
      <trkpt lat="49.25107" lon="-0.36526">
        <ele>46.2</ele>
        <time>2023-04-28T11:48:28Z</time>
      </trkpt>
      <trkpt lat="49.25108" lon="-0.36533">
        <ele>46.2</ele>
        <time>2023-04-28T11:48:29Z</time>
      </trkpt>
      <trkpt lat="49.25109" lon="-0.36541">
        <ele>46.2</ele>
        <time>2023-04-28T11:48:30Z</time>
      </trkpt>
      <trkpt lat="49.25109" lon="-0.36549">
        <ele>46.4</ele>
        <time>2023-04-28T11:48:31Z</time>
      </trkpt>
      <trkpt lat="49.25107" lon="-0.36557">
        <ele>46.4</ele>
        <time>2023-04-28T11:48:32Z</time>
      </trkpt>
      <trkpt lat="49.25104" lon="-0.36565">
        <ele>46.4</ele>
        <time>2023-04-28T11:48:33Z</time>
      </trkpt>
      <trkpt lat="49.25101" lon="-0.36574">
        <ele>46.4</ele>
        <time>2023-04-28T11:48:34Z</time>
      </trkpt>
      <trkpt lat="49.25098" lon="-0.36583">
        <ele>46.4</ele>
        <time>2023-04-28T11:48:35Z</time>
      </trkpt>
      <trkpt lat="49.25096" lon="-0.36592">
        <ele>46.4</ele>
        <time>2023-04-28T11:48:36Z</time>
      </trkpt>
      <trkpt lat="49.25093" lon="-0.36601">
        <ele>46.4</ele>
        <time>2023-04-28T11:48:37Z</time>
      </trkpt>
      <trkpt lat="49.25091" lon="-0.3661">
        <ele>46.4</ele>
        <time>2023-04-28T11:48:38Z</time>
      </trkpt>
      <trkpt lat="49.25089" lon="-0.36619">
        <ele>46.6</ele>
        <time>2023-04-28T11:48:39Z</time>
      </trkpt>
      <trkpt lat="49.25086" lon="-0.36627">
        <ele>46.6</ele>
        <time>2023-04-28T11:48:40Z</time>
      </trkpt>
      <trkpt lat="49.25084" lon="-0.36636">
        <ele>46.6</ele>
        <time>2023-04-28T11:48:41Z</time>
      </trkpt>
      <trkpt lat="49.25082" lon="-0.36645">
        <ele>46.8</ele>
        <time>2023-04-28T11:48:42Z</time>
      </trkpt>
      <trkpt lat="49.25081" lon="-0.36654">
        <ele>46.8</ele>
        <time>2023-04-28T11:48:43Z</time>
      </trkpt>
      <trkpt lat="49.2508" lon="-0.36662">
        <ele>47</ele>
        <time>2023-04-28T11:48:44Z</time>
      </trkpt>
      <trkpt lat="49.25081" lon="-0.3667">
        <ele>47</ele>
        <time>2023-04-28T11:48:45Z</time>
      </trkpt>
      <trkpt lat="49.25083" lon="-0.36678">
        <ele>47</ele>
        <time>2023-04-28T11:48:46Z</time>
      </trkpt>
      <trkpt lat="49.25086" lon="-0.36686">
        <ele>47.2</ele>
        <time>2023-04-28T11:48:47Z</time>
      </trkpt>
      <trkpt lat="49.25088" lon="-0.36693">
        <ele>47.2</ele>
        <time>2023-04-28T11:48:48Z</time>
      </trkpt>
      <trkpt lat="49.25091" lon="-0.367">
        <ele>47.4</ele>
        <time>2023-04-28T11:48:49Z</time>
      </trkpt>
      <trkpt lat="49.25094" lon="-0.36707">
        <ele>47.6</ele>
        <time>2023-04-28T11:48:50Z</time>
      </trkpt>
      <trkpt lat="49.25097" lon="-0.36715">
        <ele>47.8</ele>
        <time>2023-04-28T11:48:51Z</time>
      </trkpt>
      <trkpt lat="49.25099" lon="-0.36722">
        <ele>47.8</ele>
        <time>2023-04-28T11:48:52Z</time>
      </trkpt>
      <trkpt lat="49.25101" lon="-0.3673">
        <ele>48</ele>
        <time>2023-04-28T11:48:53Z</time>
      </trkpt>
      <trkpt lat="49.25103" lon="-0.36737">
        <ele>48</ele>
        <time>2023-04-28T11:48:54Z</time>
      </trkpt>
      <trkpt lat="49.25105" lon="-0.36745">
        <ele>48.2</ele>
        <time>2023-04-28T11:48:55Z</time>
      </trkpt>
      <trkpt lat="49.25107" lon="-0.36752">
        <ele>48.2</ele>
        <time>2023-04-28T11:48:56Z</time>
      </trkpt>
      <trkpt lat="49.2511" lon="-0.36759">
        <ele>48.2</ele>
        <time>2023-04-28T11:48:57Z</time>
      </trkpt>
      <trkpt lat="49.25112" lon="-0.36766">
        <ele>48.4</ele>
        <time>2023-04-28T11:48:58Z</time>
      </trkpt>
      <trkpt lat="49.25114" lon="-0.36773">
        <ele>48.6</ele>
        <time>2023-04-28T11:48:59Z</time>
      </trkpt>
      <trkpt lat="49.25116" lon="-0.3678">
        <ele>48.6</ele>
        <time>2023-04-28T11:49:00Z</time>
      </trkpt>
      <trkpt lat="49.25118" lon="-0.36786">
        <ele>48.6</ele>
        <time>2023-04-28T11:49:01Z</time>
      </trkpt>
      <trkpt lat="49.2512" lon="-0.36793">
        <ele>48.8</ele>
        <time>2023-04-28T11:49:02Z</time>
      </trkpt>
      <trkpt lat="49.25122" lon="-0.368">
        <ele>48.8</ele>
        <time>2023-04-28T11:49:03Z</time>
      </trkpt>
      <trkpt lat="49.25124" lon="-0.36807">
        <ele>48.8</ele>
        <time>2023-04-28T11:49:04Z</time>
      </trkpt>
      <trkpt lat="49.25126" lon="-0.36813">
        <ele>49</ele>
        <time>2023-04-28T11:49:05Z</time>
      </trkpt>
      <trkpt lat="49.25128" lon="-0.3682">
        <ele>49</ele>
        <time>2023-04-28T11:49:06Z</time>
      </trkpt>
      <trkpt lat="49.2513" lon="-0.36827">
        <ele>49</ele>
        <time>2023-04-28T11:49:07Z</time>
      </trkpt>
      <trkpt lat="49.25133" lon="-0.36834">
        <ele>49.2</ele>
        <time>2023-04-28T11:49:08Z</time>
      </trkpt>
      <trkpt lat="49.25135" lon="-0.36841">
        <ele>49.2</ele>
        <time>2023-04-28T11:49:09Z</time>
      </trkpt>
      <trkpt lat="49.25137" lon="-0.36848">
        <ele>49.6</ele>
        <time>2023-04-28T11:49:10Z</time>
      </trkpt>
      <trkpt lat="49.25139" lon="-0.36855">
        <ele>49.6</ele>
        <time>2023-04-28T11:49:11Z</time>
      </trkpt>
      <trkpt lat="49.25142" lon="-0.36862">
        <ele>49.8</ele>
        <time>2023-04-28T11:49:12Z</time>
      </trkpt>
      <trkpt lat="49.25144" lon="-0.36869">
        <ele>50</ele>
        <time>2023-04-28T11:49:13Z</time>
      </trkpt>
      <trkpt lat="49.25146" lon="-0.36876">
        <ele>50</ele>
        <time>2023-04-28T11:49:14Z</time>
      </trkpt>
      <trkpt lat="49.25148" lon="-0.36883">
        <ele>50</ele>
        <time>2023-04-28T11:49:15Z</time>
      </trkpt>
      <trkpt lat="49.2515" lon="-0.3689">
        <ele>50.2</ele>
        <time>2023-04-28T11:49:16Z</time>
      </trkpt>
      <trkpt lat="49.25152" lon="-0.36897">
        <ele>50.4</ele>
        <time>2023-04-28T11:49:17Z</time>
      </trkpt>
      <trkpt lat="49.25154" lon="-0.36903">
        <ele>50.6</ele>
        <time>2023-04-28T11:49:18Z</time>
      </trkpt>
      <trkpt lat="49.25156" lon="-0.3691">
        <ele>50.8</ele>
        <time>2023-04-28T11:49:19Z</time>
      </trkpt>
      <trkpt lat="49.25159" lon="-0.36916">
        <ele>50.8</ele>
        <time>2023-04-28T11:49:20Z</time>
      </trkpt>
      <trkpt lat="49.25161" lon="-0.36923">
        <ele>50.8</ele>
        <time>2023-04-28T11:49:21Z</time>
      </trkpt>
      <trkpt lat="49.25163" lon="-0.3693">
        <ele>50.8</ele>
        <time>2023-04-28T11:49:22Z</time>
      </trkpt>
      <trkpt lat="49.25166" lon="-0.36937">
        <ele>50.8</ele>
        <time>2023-04-28T11:49:23Z</time>
      </trkpt>
      <trkpt lat="49.25168" lon="-0.36943">
        <ele>50.6</ele>
        <time>2023-04-28T11:49:24Z</time>
      </trkpt>
      <trkpt lat="49.2517" lon="-0.3695">
        <ele>50.6</ele>
        <time>2023-04-28T11:49:25Z</time>
      </trkpt>
      <trkpt lat="49.25173" lon="-0.36957">
        <ele>50.2</ele>
        <time>2023-04-28T11:49:26Z</time>
      </trkpt>
      <trkpt lat="49.25175" lon="-0.36963">
        <ele>50.2</ele>
        <time>2023-04-28T11:49:27Z</time>
      </trkpt>
      <trkpt lat="49.25177" lon="-0.3697">
        <ele>50</ele>
        <time>2023-04-28T11:49:28Z</time>
      </trkpt>
      <trkpt lat="49.2518" lon="-0.36977">
        <ele>50</ele>
        <time>2023-04-28T11:49:29Z</time>
      </trkpt>
      <trkpt lat="49.25182" lon="-0.36984">
        <ele>49.8</ele>
        <time>2023-04-28T11:49:30Z</time>
      </trkpt>
      <trkpt lat="49.25184" lon="-0.36991">
        <ele>49.6</ele>
        <time>2023-04-28T11:49:31Z</time>
      </trkpt>
      <trkpt lat="49.25187" lon="-0.36999">
        <ele>49.6</ele>
        <time>2023-04-28T11:49:32Z</time>
      </trkpt>
      <trkpt lat="49.25189" lon="-0.37006">
        <ele>49.2</ele>
        <time>2023-04-28T11:49:33Z</time>
      </trkpt>
      <trkpt lat="49.25192" lon="-0.37014">
        <ele>49</ele>
        <time>2023-04-28T11:49:34Z</time>
      </trkpt>
      <trkpt lat="49.25194" lon="-0.37022">
        <ele>48.6</ele>
        <time>2023-04-28T11:49:35Z</time>
      </trkpt>
      <trkpt lat="49.25196" lon="-0.3703">
        <ele>48.4</ele>
        <time>2023-04-28T11:49:36Z</time>
      </trkpt>
      <trkpt lat="49.25199" lon="-0.37037">
        <ele>48</ele>
        <time>2023-04-28T11:49:37Z</time>
      </trkpt>
      <trkpt lat="49.25201" lon="-0.37045">
        <ele>48</ele>
        <time>2023-04-28T11:49:38Z</time>
      </trkpt>
      <trkpt lat="49.25204" lon="-0.37052">
        <ele>47.8</ele>
        <time>2023-04-28T11:49:39Z</time>
      </trkpt>
      <trkpt lat="49.25206" lon="-0.37059">
        <ele>47.6</ele>
        <time>2023-04-28T11:49:40Z</time>
      </trkpt>
      <trkpt lat="49.25208" lon="-0.37066">
        <ele>47.4</ele>
        <time>2023-04-28T11:49:41Z</time>
      </trkpt>
      <trkpt lat="49.25211" lon="-0.37073">
        <ele>47.2</ele>
        <time>2023-04-28T11:49:42Z</time>
      </trkpt>
      <trkpt lat="49.25213" lon="-0.3708">
        <ele>47.2</ele>
        <time>2023-04-28T11:49:43Z</time>
      </trkpt>
      <trkpt lat="49.25215" lon="-0.37087">
        <ele>47.2</ele>
        <time>2023-04-28T11:49:44Z</time>
      </trkpt>
      <trkpt lat="49.25217" lon="-0.37094">
        <ele>47.2</ele>
        <time>2023-04-28T11:49:45Z</time>
      </trkpt>
      <trkpt lat="49.25219" lon="-0.37101">
        <ele>47.4</ele>
        <time>2023-04-28T11:49:46Z</time>
      </trkpt>
      <trkpt lat="49.25222" lon="-0.37109">
        <ele>47.4</ele>
        <time>2023-04-28T11:49:47Z</time>
      </trkpt>
      <trkpt lat="49.25224" lon="-0.37116">
        <ele>47.6</ele>
        <time>2023-04-28T11:49:48Z</time>
      </trkpt>
      <trkpt lat="49.25226" lon="-0.37124">
        <ele>47.6</ele>
        <time>2023-04-28T11:49:49Z</time>
      </trkpt>
      <trkpt lat="49.25228" lon="-0.37131">
        <ele>47.6</ele>
        <time>2023-04-28T11:49:50Z</time>
      </trkpt>
      <trkpt lat="49.2523" lon="-0.37138">
        <ele>47.6</ele>
        <time>2023-04-28T11:49:51Z</time>
      </trkpt>
      <trkpt lat="49.25231" lon="-0.37144">
        <ele>47.6</ele>
        <time>2023-04-28T11:49:52Z</time>
      </trkpt>
      <trkpt lat="49.25233" lon="-0.3715">
        <ele>47.4</ele>
        <time>2023-04-28T11:49:53Z</time>
      </trkpt>
      <trkpt lat="49.25234" lon="-0.37156">
        <ele>47.4</ele>
        <time>2023-04-28T11:49:54Z</time>
      </trkpt>
      <trkpt lat="49.25235" lon="-0.37162">
        <ele>47.4</ele>
        <time>2023-04-28T11:49:55Z</time>
      </trkpt>
      <trkpt lat="49.25236" lon="-0.37168">
        <ele>47.4</ele>
        <time>2023-04-28T11:49:56Z</time>
      </trkpt>
      <trkpt lat="49.25236" lon="-0.37174">
        <ele>47.4</ele>
        <time>2023-04-28T11:49:57Z</time>
      </trkpt>
      <trkpt lat="49.25237" lon="-0.3718">
        <ele>47.6</ele>
        <time>2023-04-28T11:49:58Z</time>
      </trkpt>
      <trkpt lat="49.25238" lon="-0.37186">
        <ele>47.6</ele>
        <time>2023-04-28T11:49:59Z</time>
      </trkpt>
      <trkpt lat="49.25239" lon="-0.37192">
        <ele>47.6</ele>
        <time>2023-04-28T11:50:00Z</time>
      </trkpt>
      <trkpt lat="49.2524" lon="-0.37199">
        <ele>47.8</ele>
        <time>2023-04-28T11:50:01Z</time>
      </trkpt>
      <trkpt lat="49.25242" lon="-0.37205">
        <ele>47.8</ele>
        <time>2023-04-28T11:50:02Z</time>
      </trkpt>
      <trkpt lat="49.25243" lon="-0.37212">
        <ele>47.8</ele>
        <time>2023-04-28T11:50:03Z</time>
      </trkpt>
      <trkpt lat="49.25244" lon="-0.37219">
        <ele>47.8</ele>
        <time>2023-04-28T11:50:04Z</time>
      </trkpt>
      <trkpt lat="49.25244" lon="-0.37226">
        <ele>48</ele>
        <time>2023-04-28T11:50:05Z</time>
      </trkpt>
      <trkpt lat="49.25245" lon="-0.37233">
        <ele>48</ele>
        <time>2023-04-28T11:50:06Z</time>
      </trkpt>
      <trkpt lat="49.25246" lon="-0.37239">
        <ele>48</ele>
        <time>2023-04-28T11:50:07Z</time>
      </trkpt>
      <trkpt lat="49.25249" lon="-0.37245">
        <ele>48</ele>
        <time>2023-04-28T11:50:08Z</time>
      </trkpt>
      <trkpt lat="49.25252" lon="-0.37251">
        <ele>48</ele>
        <time>2023-04-28T11:50:09Z</time>
      </trkpt>
      <trkpt lat="49.25254" lon="-0.37257">
        <ele>48</ele>
        <time>2023-04-28T11:50:10Z</time>
      </trkpt>
      <trkpt lat="49.25253" lon="-0.37264">
        <ele>48</ele>
        <time>2023-04-28T11:50:11Z</time>
      </trkpt>
      <trkpt lat="49.25253" lon="-0.37271">
        <ele>48.2</ele>
        <time>2023-04-28T11:50:12Z</time>
      </trkpt>
      <trkpt lat="49.25253" lon="-0.37279">
        <ele>48.2</ele>
        <time>2023-04-28T11:50:13Z</time>
      </trkpt>
      <trkpt lat="49.25254" lon="-0.37286">
        <ele>48.2</ele>
        <time>2023-04-28T11:50:14Z</time>
      </trkpt>
      <trkpt lat="49.25255" lon="-0.37293">
        <ele>48.4</ele>
        <time>2023-04-28T11:50:15Z</time>
      </trkpt>
      <trkpt lat="49.25256" lon="-0.37301">
        <ele>48.4</ele>
        <time>2023-04-28T11:50:16Z</time>
      </trkpt>
      <trkpt lat="49.25257" lon="-0.37308">
        <ele>48.6</ele>
        <time>2023-04-28T11:50:17Z</time>
      </trkpt>
      <trkpt lat="49.25258" lon="-0.37315">
        <ele>48.6</ele>
        <time>2023-04-28T11:50:18Z</time>
      </trkpt>
      <trkpt lat="49.25259" lon="-0.37323">
        <ele>48.6</ele>
        <time>2023-04-28T11:50:19Z</time>
      </trkpt>
      <trkpt lat="49.2526" lon="-0.3733">
        <ele>48.6</ele>
        <time>2023-04-28T11:50:20Z</time>
      </trkpt>
      <trkpt lat="49.25261" lon="-0.37338">
        <ele>48.6</ele>
        <time>2023-04-28T11:50:21Z</time>
      </trkpt>
      <trkpt lat="49.25261" lon="-0.37346">
        <ele>48.6</ele>
        <time>2023-04-28T11:50:22Z</time>
      </trkpt>
      <trkpt lat="49.25262" lon="-0.37354">
        <ele>48.2</ele>
        <time>2023-04-28T11:50:23Z</time>
      </trkpt>
      <trkpt lat="49.25263" lon="-0.37362">
        <ele>48.2</ele>
        <time>2023-04-28T11:50:24Z</time>
      </trkpt>
      <trkpt lat="49.25264" lon="-0.3737">
        <ele>48</ele>
        <time>2023-04-28T11:50:25Z</time>
      </trkpt>
      <trkpt lat="49.25265" lon="-0.37378">
        <ele>48</ele>
        <time>2023-04-28T11:50:26Z</time>
      </trkpt>
      <trkpt lat="49.25265" lon="-0.37386">
        <ele>48</ele>
        <time>2023-04-28T11:50:27Z</time>
      </trkpt>
      <trkpt lat="49.25266" lon="-0.37394">
        <ele>47.8</ele>
        <time>2023-04-28T11:50:28Z</time>
      </trkpt>
      <trkpt lat="49.25267" lon="-0.37402">
        <ele>47.8</ele>
        <time>2023-04-28T11:50:29Z</time>
      </trkpt>
      <trkpt lat="49.25267" lon="-0.3741">
        <ele>47.6</ele>
        <time>2023-04-28T11:50:30Z</time>
      </trkpt>
      <trkpt lat="49.25268" lon="-0.37419">
        <ele>47.6</ele>
        <time>2023-04-28T11:50:31Z</time>
      </trkpt>
      <trkpt lat="49.25268" lon="-0.37427">
        <ele>47.4</ele>
        <time>2023-04-28T11:50:32Z</time>
      </trkpt>
      <trkpt lat="49.25268" lon="-0.37436">
        <ele>47.2</ele>
        <time>2023-04-28T11:50:33Z</time>
      </trkpt>
      <trkpt lat="49.25269" lon="-0.37444">
        <ele>47</ele>
        <time>2023-04-28T11:50:34Z</time>
      </trkpt>
      <trkpt lat="49.25269" lon="-0.37453">
        <ele>47</ele>
        <time>2023-04-28T11:50:35Z</time>
      </trkpt>
      <trkpt lat="49.25269" lon="-0.37462">
        <ele>46.8</ele>
        <time>2023-04-28T11:50:36Z</time>
      </trkpt>
      <trkpt lat="49.25269" lon="-0.3747">
        <ele>46.6</ele>
        <time>2023-04-28T11:50:37Z</time>
      </trkpt>
      <trkpt lat="49.25269" lon="-0.37479">
        <ele>46.4</ele>
        <time>2023-04-28T11:50:38Z</time>
      </trkpt>
      <trkpt lat="49.25269" lon="-0.37488">
        <ele>46.2</ele>
        <time>2023-04-28T11:50:39Z</time>
      </trkpt>
      <trkpt lat="49.25269" lon="-0.37496">
        <ele>46</ele>
        <time>2023-04-28T11:50:40Z</time>
      </trkpt>
      <trkpt lat="49.25269" lon="-0.37505">
        <ele>46</ele>
        <time>2023-04-28T11:50:41Z</time>
      </trkpt>
      <trkpt lat="49.25268" lon="-0.37514">
        <ele>45.8</ele>
        <time>2023-04-28T11:50:42Z</time>
      </trkpt>
      <trkpt lat="49.25268" lon="-0.37522">
        <ele>45.8</ele>
        <time>2023-04-28T11:50:43Z</time>
      </trkpt>
      <trkpt lat="49.25267" lon="-0.37531">
        <ele>45.6</ele>
        <time>2023-04-28T11:50:44Z</time>
      </trkpt>
      <trkpt lat="49.25267" lon="-0.3754">
        <ele>45.6</ele>
        <time>2023-04-28T11:50:45Z</time>
      </trkpt>
      <trkpt lat="49.25266" lon="-0.37548">
        <ele>45.4</ele>
        <time>2023-04-28T11:50:46Z</time>
      </trkpt>
      <trkpt lat="49.25266" lon="-0.37557">
        <ele>45.2</ele>
        <time>2023-04-28T11:50:47Z</time>
      </trkpt>
      <trkpt lat="49.25265" lon="-0.37566">
        <ele>45.2</ele>
        <time>2023-04-28T11:50:48Z</time>
      </trkpt>
      <trkpt lat="49.25264" lon="-0.37574">
        <ele>45</ele>
        <time>2023-04-28T11:50:49Z</time>
      </trkpt>
      <trkpt lat="49.25263" lon="-0.37583">
        <ele>45</ele>
        <time>2023-04-28T11:50:50Z</time>
      </trkpt>
      <trkpt lat="49.25262" lon="-0.37592">
        <ele>45</ele>
        <time>2023-04-28T11:50:51Z</time>
      </trkpt>
      <trkpt lat="49.25262" lon="-0.37601">
        <ele>45</ele>
        <time>2023-04-28T11:50:52Z</time>
      </trkpt>
      <trkpt lat="49.25261" lon="-0.3761">
        <ele>45</ele>
        <time>2023-04-28T11:50:53Z</time>
      </trkpt>
      <trkpt lat="49.2526" lon="-0.37618">
        <ele>45</ele>
        <time>2023-04-28T11:50:54Z</time>
      </trkpt>
      <trkpt lat="49.25259" lon="-0.37627">
        <ele>45</ele>
        <time>2023-04-28T11:50:55Z</time>
      </trkpt>
      <trkpt lat="49.25258" lon="-0.37636">
        <ele>45</ele>
        <time>2023-04-28T11:50:56Z</time>
      </trkpt>
      <trkpt lat="49.25257" lon="-0.37645">
        <ele>45</ele>
        <time>2023-04-28T11:50:57Z</time>
      </trkpt>
      <trkpt lat="49.25256" lon="-0.37653">
        <ele>45</ele>
        <time>2023-04-28T11:50:58Z</time>
      </trkpt>
      <trkpt lat="49.25255" lon="-0.37662">
        <ele>45</ele>
        <time>2023-04-28T11:50:59Z</time>
      </trkpt>
      <trkpt lat="49.25254" lon="-0.37671">
        <ele>45</ele>
        <time>2023-04-28T11:51:00Z</time>
      </trkpt>
      <trkpt lat="49.25253" lon="-0.3768">
        <ele>45</ele>
        <time>2023-04-28T11:51:01Z</time>
      </trkpt>
      <trkpt lat="49.25253" lon="-0.37688">
        <ele>45</ele>
        <time>2023-04-28T11:51:02Z</time>
      </trkpt>
      <trkpt lat="49.25252" lon="-0.37697">
        <ele>45</ele>
        <time>2023-04-28T11:51:03Z</time>
      </trkpt>
      <trkpt lat="49.25251" lon="-0.37706">
        <ele>45</ele>
        <time>2023-04-28T11:51:04Z</time>
      </trkpt>
      <trkpt lat="49.2525" lon="-0.37714">
        <ele>45</ele>
        <time>2023-04-28T11:51:05Z</time>
      </trkpt>
      <trkpt lat="49.25249" lon="-0.37723">
        <ele>45</ele>
        <time>2023-04-28T11:51:06Z</time>
      </trkpt>
      <trkpt lat="49.25249" lon="-0.37732">
        <ele>45</ele>
        <time>2023-04-28T11:51:07Z</time>
      </trkpt>
      <trkpt lat="49.25248" lon="-0.3774">
        <ele>45</ele>
        <time>2023-04-28T11:51:08Z</time>
      </trkpt>
      <trkpt lat="49.25247" lon="-0.37749">
        <ele>45</ele>
        <time>2023-04-28T11:51:09Z</time>
      </trkpt>
      <trkpt lat="49.25246" lon="-0.37757">
        <ele>45.2</ele>
        <time>2023-04-28T11:51:10Z</time>
      </trkpt>
      <trkpt lat="49.25245" lon="-0.37766">
        <ele>45.2</ele>
        <time>2023-04-28T11:51:11Z</time>
      </trkpt>
      <trkpt lat="49.25244" lon="-0.37774">
        <ele>45.2</ele>
        <time>2023-04-28T11:51:12Z</time>
      </trkpt>
      <trkpt lat="49.25243" lon="-0.37783">
        <ele>45.2</ele>
        <time>2023-04-28T11:51:13Z</time>
      </trkpt>
      <trkpt lat="49.25242" lon="-0.37791">
        <ele>45.2</ele>
        <time>2023-04-28T11:51:14Z</time>
      </trkpt>
      <trkpt lat="49.25241" lon="-0.378">
        <ele>45.2</ele>
        <time>2023-04-28T11:51:15Z</time>
      </trkpt>
      <trkpt lat="49.25241" lon="-0.37808">
        <ele>45.2</ele>
        <time>2023-04-28T11:51:16Z</time>
      </trkpt>
      <trkpt lat="49.2524" lon="-0.37817">
        <ele>45.2</ele>
        <time>2023-04-28T11:51:17Z</time>
      </trkpt>
      <trkpt lat="49.2524" lon="-0.37825">
        <ele>45.2</ele>
        <time>2023-04-28T11:51:18Z</time>
      </trkpt>
      <trkpt lat="49.2524" lon="-0.37833">
        <ele>45.2</ele>
        <time>2023-04-28T11:51:19Z</time>
      </trkpt>
      <trkpt lat="49.2524" lon="-0.37842">
        <ele>45.2</ele>
        <time>2023-04-28T11:51:20Z</time>
      </trkpt>
      <trkpt lat="49.2524" lon="-0.3785">
        <ele>45</ele>
        <time>2023-04-28T11:51:21Z</time>
      </trkpt>
      <trkpt lat="49.25241" lon="-0.37859">
        <ele>45</ele>
        <time>2023-04-28T11:51:22Z</time>
      </trkpt>
      <trkpt lat="49.25242" lon="-0.37867">
        <ele>44.8</ele>
        <time>2023-04-28T11:51:23Z</time>
      </trkpt>
      <trkpt lat="49.25243" lon="-0.37875">
        <ele>44.8</ele>
        <time>2023-04-28T11:51:24Z</time>
      </trkpt>
      <trkpt lat="49.25244" lon="-0.37883">
        <ele>44.6</ele>
        <time>2023-04-28T11:51:25Z</time>
      </trkpt>
      <trkpt lat="49.25245" lon="-0.37891">
        <ele>44.6</ele>
        <time>2023-04-28T11:51:26Z</time>
      </trkpt>
      <trkpt lat="49.25247" lon="-0.37898">
        <ele>44.2</ele>
        <time>2023-04-28T11:51:27Z</time>
      </trkpt>
      <trkpt lat="49.25248" lon="-0.37905">
        <ele>44.2</ele>
        <time>2023-04-28T11:51:28Z</time>
      </trkpt>
      <trkpt lat="49.25249" lon="-0.37912">
        <ele>44</ele>
        <time>2023-04-28T11:51:29Z</time>
      </trkpt>
      <trkpt lat="49.25251" lon="-0.37919">
        <ele>44</ele>
        <time>2023-04-28T11:51:30Z</time>
      </trkpt>
      <trkpt lat="49.25252" lon="-0.37925">
        <ele>44.2</ele>
        <time>2023-04-28T11:51:31Z</time>
      </trkpt>
      <trkpt lat="49.25253" lon="-0.37932">
        <ele>44.4</ele>
        <time>2023-04-28T11:51:32Z</time>
      </trkpt>
      <trkpt lat="49.25254" lon="-0.37939">
        <ele>44.6</ele>
        <time>2023-04-28T11:51:33Z</time>
      </trkpt>
      <trkpt lat="49.25256" lon="-0.37946">
        <ele>44.8</ele>
        <time>2023-04-28T11:51:34Z</time>
      </trkpt>
      <trkpt lat="49.25257" lon="-0.37953">
        <ele>45</ele>
        <time>2023-04-28T11:51:35Z</time>
      </trkpt>
      <trkpt lat="49.25258" lon="-0.37959">
        <ele>45</ele>
        <time>2023-04-28T11:51:36Z</time>
      </trkpt>
      <trkpt lat="49.25259" lon="-0.37966">
        <ele>45.2</ele>
        <time>2023-04-28T11:51:37Z</time>
      </trkpt>
      <trkpt lat="49.2526" lon="-0.37973">
        <ele>45.4</ele>
        <time>2023-04-28T11:51:38Z</time>
      </trkpt>
      <trkpt lat="49.25261" lon="-0.37979">
        <ele>45.6</ele>
        <time>2023-04-28T11:51:39Z</time>
      </trkpt>
      <trkpt lat="49.25261" lon="-0.37986">
        <ele>45.8</ele>
        <time>2023-04-28T11:51:40Z</time>
      </trkpt>
      <trkpt lat="49.25262" lon="-0.37993">
        <ele>45.8</ele>
        <time>2023-04-28T11:51:41Z</time>
      </trkpt>
      <trkpt lat="49.25262" lon="-0.37999">
        <ele>46</ele>
        <time>2023-04-28T11:51:42Z</time>
      </trkpt>
      <trkpt lat="49.25263" lon="-0.38006">
        <ele>46</ele>
        <time>2023-04-28T11:51:43Z</time>
      </trkpt>
      <trkpt lat="49.25263" lon="-0.38013">
        <ele>46.2</ele>
        <time>2023-04-28T11:51:44Z</time>
      </trkpt>
      <trkpt lat="49.25262" lon="-0.3802">
        <ele>46.4</ele>
        <time>2023-04-28T11:51:45Z</time>
      </trkpt>
      <trkpt lat="49.25262" lon="-0.38027">
        <ele>46.6</ele>
        <time>2023-04-28T11:51:46Z</time>
      </trkpt>
      <trkpt lat="49.25262" lon="-0.38034">
        <ele>46.8</ele>
        <time>2023-04-28T11:51:47Z</time>
      </trkpt>
      <trkpt lat="49.25261" lon="-0.3804">
        <ele>46.8</ele>
        <time>2023-04-28T11:51:48Z</time>
      </trkpt>
      <trkpt lat="49.2526" lon="-0.38047">
        <ele>47</ele>
        <time>2023-04-28T11:51:49Z</time>
      </trkpt>
      <trkpt lat="49.2526" lon="-0.38053">
        <ele>47</ele>
        <time>2023-04-28T11:51:50Z</time>
      </trkpt>
      <trkpt lat="49.25258" lon="-0.3806">
        <ele>47.2</ele>
        <time>2023-04-28T11:51:51Z</time>
      </trkpt>
      <trkpt lat="49.25257" lon="-0.38066">
        <ele>47.4</ele>
        <time>2023-04-28T11:51:52Z</time>
      </trkpt>
      <trkpt lat="49.25256" lon="-0.38072">
        <ele>47.6</ele>
        <time>2023-04-28T11:51:53Z</time>
      </trkpt>
      <trkpt lat="49.25255" lon="-0.38078">
        <ele>47.8</ele>
        <time>2023-04-28T11:51:54Z</time>
      </trkpt>
      <trkpt lat="49.25253" lon="-0.38084">
        <ele>48</ele>
        <time>2023-04-28T11:51:55Z</time>
      </trkpt>
      <trkpt lat="49.25252" lon="-0.3809">
        <ele>47.8</ele>
        <time>2023-04-28T11:51:56Z</time>
      </trkpt>
      <trkpt lat="49.2525" lon="-0.38096">
        <ele>47.8</ele>
        <time>2023-04-28T11:51:57Z</time>
      </trkpt>
      <trkpt lat="49.25248" lon="-0.38101">
        <ele>47.6</ele>
        <time>2023-04-28T11:51:58Z</time>
      </trkpt>
      <trkpt lat="49.25247" lon="-0.38107">
        <ele>47.6</ele>
        <time>2023-04-28T11:51:59Z</time>
      </trkpt>
      <trkpt lat="49.25245" lon="-0.38112">
        <ele>47.4</ele>
        <time>2023-04-28T11:52:00Z</time>
      </trkpt>
      <trkpt lat="49.25243" lon="-0.38118">
        <ele>47.2</ele>
        <time>2023-04-28T11:52:01Z</time>
      </trkpt>
      <trkpt lat="49.25241" lon="-0.38123">
        <ele>47.2</ele>
        <time>2023-04-28T11:52:02Z</time>
      </trkpt>
      <trkpt lat="49.25238" lon="-0.38128">
        <ele>47</ele>
        <time>2023-04-28T11:52:03Z</time>
      </trkpt>
      <trkpt lat="49.25236" lon="-0.38134">
        <ele>47</ele>
        <time>2023-04-28T11:52:04Z</time>
      </trkpt>
      <trkpt lat="49.25234" lon="-0.38139">
        <ele>47</ele>
        <time>2023-04-28T11:52:05Z</time>
      </trkpt>
      <trkpt lat="49.25231" lon="-0.38145">
        <ele>46.8</ele>
        <time>2023-04-28T11:52:06Z</time>
      </trkpt>
      <trkpt lat="49.25229" lon="-0.3815">
        <ele>46.6</ele>
        <time>2023-04-28T11:52:07Z</time>
      </trkpt>
      <trkpt lat="49.25226" lon="-0.38156">
        <ele>46.6</ele>
        <time>2023-04-28T11:52:08Z</time>
      </trkpt>
      <trkpt lat="49.25224" lon="-0.38162">
        <ele>46.4</ele>
        <time>2023-04-28T11:52:09Z</time>
      </trkpt>
      <trkpt lat="49.25221" lon="-0.38168">
        <ele>46.2</ele>
        <time>2023-04-28T11:52:10Z</time>
      </trkpt>
      <trkpt lat="49.25218" lon="-0.38175">
        <ele>46.4</ele>
        <time>2023-04-28T11:52:11Z</time>
      </trkpt>
      <trkpt lat="49.25215" lon="-0.38181">
        <ele>46.4</ele>
        <time>2023-04-28T11:52:12Z</time>
      </trkpt>
      <trkpt lat="49.25212" lon="-0.38188">
        <ele>46.4</ele>
        <time>2023-04-28T11:52:13Z</time>
      </trkpt>
      <trkpt lat="49.25209" lon="-0.38195">
        <ele>46.6</ele>
        <time>2023-04-28T11:52:14Z</time>
      </trkpt>
      <trkpt lat="49.25206" lon="-0.38203">
        <ele>46.6</ele>
        <time>2023-04-28T11:52:15Z</time>
      </trkpt>
      <trkpt lat="49.25203" lon="-0.3821">
        <ele>46.6</ele>
        <time>2023-04-28T11:52:16Z</time>
      </trkpt>
      <trkpt lat="49.252" lon="-0.38218">
        <ele>46.6</ele>
        <time>2023-04-28T11:52:17Z</time>
      </trkpt>
      <trkpt lat="49.25196" lon="-0.38226">
        <ele>46.6</ele>
        <time>2023-04-28T11:52:18Z</time>
      </trkpt>
      <trkpt lat="49.25192" lon="-0.38234">
        <ele>46.8</ele>
        <time>2023-04-28T11:52:19Z</time>
      </trkpt>
      <trkpt lat="49.25189" lon="-0.38242">
        <ele>46.8</ele>
        <time>2023-04-28T11:52:20Z</time>
      </trkpt>
      <trkpt lat="49.25184" lon="-0.3825">
        <ele>46.8</ele>
        <time>2023-04-28T11:52:21Z</time>
      </trkpt>
      <trkpt lat="49.2518" lon="-0.38258">
        <ele>47</ele>
        <time>2023-04-28T11:52:22Z</time>
      </trkpt>
      <trkpt lat="49.25177" lon="-0.38267">
        <ele>47</ele>
        <time>2023-04-28T11:52:23Z</time>
      </trkpt>
      <trkpt lat="49.25173" lon="-0.38277">
        <ele>47</ele>
        <time>2023-04-28T11:52:24Z</time>
      </trkpt>
      <trkpt lat="49.25171" lon="-0.38287">
        <ele>47</ele>
        <time>2023-04-28T11:52:25Z</time>
      </trkpt>
      <trkpt lat="49.25169" lon="-0.38298">
        <ele>47</ele>
        <time>2023-04-28T11:52:26Z</time>
      </trkpt>
      <trkpt lat="49.25168" lon="-0.38308">
        <ele>47</ele>
        <time>2023-04-28T11:52:27Z</time>
      </trkpt>
      <trkpt lat="49.25169" lon="-0.38318">
        <ele>47</ele>
        <time>2023-04-28T11:52:28Z</time>
      </trkpt>
      <trkpt lat="49.25171" lon="-0.38328">
        <ele>47</ele>
        <time>2023-04-28T11:52:29Z</time>
      </trkpt>
      <trkpt lat="49.25175" lon="-0.38336">
        <ele>47</ele>
        <time>2023-04-28T11:52:30Z</time>
      </trkpt>
      <trkpt lat="49.2518" lon="-0.38342">
        <ele>47</ele>
        <time>2023-04-28T11:52:31Z</time>
      </trkpt>
      <trkpt lat="49.25185" lon="-0.38347">
        <ele>47</ele>
        <time>2023-04-28T11:52:32Z</time>
      </trkpt>
      <trkpt lat="49.25192" lon="-0.38349">
        <ele>47</ele>
        <time>2023-04-28T11:52:33Z</time>
      </trkpt>
      <trkpt lat="49.25199" lon="-0.38348">
        <ele>47</ele>
        <time>2023-04-28T11:52:34Z</time>
      </trkpt>
      <trkpt lat="49.25205" lon="-0.38346">
        <ele>47</ele>
        <time>2023-04-28T11:52:35Z</time>
      </trkpt>
      <trkpt lat="49.25212" lon="-0.38342">
        <ele>47</ele>
        <time>2023-04-28T11:52:36Z</time>
      </trkpt>
      <trkpt lat="49.25218" lon="-0.38337">
        <ele>47</ele>
        <time>2023-04-28T11:52:37Z</time>
      </trkpt>
      <trkpt lat="49.25224" lon="-0.38331">
        <ele>47</ele>
        <time>2023-04-28T11:52:38Z</time>
      </trkpt>
      <trkpt lat="49.2523" lon="-0.38324">
        <ele>47</ele>
        <time>2023-04-28T11:52:39Z</time>
      </trkpt>
      <trkpt lat="49.25236" lon="-0.38317">
        <ele>46.8</ele>
        <time>2023-04-28T11:52:40Z</time>
      </trkpt>
      <trkpt lat="49.25242" lon="-0.38309">
        <ele>46.8</ele>
        <time>2023-04-28T11:52:41Z</time>
      </trkpt>
      <trkpt lat="49.25247" lon="-0.38302">
        <ele>46.6</ele>
        <time>2023-04-28T11:52:42Z</time>
      </trkpt>
      <trkpt lat="49.25253" lon="-0.38295">
        <ele>46.6</ele>
        <time>2023-04-28T11:52:43Z</time>
      </trkpt>
      <trkpt lat="49.25259" lon="-0.38289">
        <ele>46.6</ele>
        <time>2023-04-28T11:52:44Z</time>
      </trkpt>
      <trkpt lat="49.25265" lon="-0.38285">
        <ele>46.8</ele>
        <time>2023-04-28T11:52:45Z</time>
      </trkpt>
      <trkpt lat="49.25272" lon="-0.38281">
        <ele>46.8</ele>
        <time>2023-04-28T11:52:46Z</time>
      </trkpt>
      <trkpt lat="49.25278" lon="-0.38278">
        <ele>47</ele>
        <time>2023-04-28T11:52:47Z</time>
      </trkpt>
      <trkpt lat="49.25285" lon="-0.38275">
        <ele>47</ele>
        <time>2023-04-28T11:52:48Z</time>
      </trkpt>
      <trkpt lat="49.25291" lon="-0.38274">
        <ele>47</ele>
        <time>2023-04-28T11:52:49Z</time>
      </trkpt>
      <trkpt lat="49.25298" lon="-0.38274">
        <ele>47.2</ele>
        <time>2023-04-28T11:52:50Z</time>
      </trkpt>
      <trkpt lat="49.25304" lon="-0.38274">
        <ele>47.4</ele>
        <time>2023-04-28T11:52:51Z</time>
      </trkpt>
      <trkpt lat="49.25311" lon="-0.38275">
        <ele>47.6</ele>
        <time>2023-04-28T11:52:52Z</time>
      </trkpt>
      <trkpt lat="49.25317" lon="-0.38277">
        <ele>47.8</ele>
        <time>2023-04-28T11:52:53Z</time>
      </trkpt>
      <trkpt lat="49.25323" lon="-0.38279">
        <ele>47.8</ele>
        <time>2023-04-28T11:52:54Z</time>
      </trkpt>
      <trkpt lat="49.2533" lon="-0.38282">
        <ele>48</ele>
        <time>2023-04-28T11:52:55Z</time>
      </trkpt>
      <trkpt lat="49.25336" lon="-0.38286">
        <ele>48</ele>
        <time>2023-04-28T11:52:56Z</time>
      </trkpt>
      <trkpt lat="49.25342" lon="-0.3829">
        <ele>48.2</ele>
        <time>2023-04-28T11:52:57Z</time>
      </trkpt>
      <trkpt lat="49.25348" lon="-0.38294">
        <ele>48.4</ele>
        <time>2023-04-28T11:52:58Z</time>
      </trkpt>
      <trkpt lat="49.25354" lon="-0.38298">
        <ele>48.6</ele>
        <time>2023-04-28T11:52:59Z</time>
      </trkpt>
      <trkpt lat="49.25359" lon="-0.38302">
        <ele>48.8</ele>
        <time>2023-04-28T11:53:00Z</time>
      </trkpt>
      <trkpt lat="49.25365" lon="-0.38305">
        <ele>49</ele>
        <time>2023-04-28T11:53:01Z</time>
      </trkpt>
      <trkpt lat="49.2537" lon="-0.38309">
        <ele>49</ele>
        <time>2023-04-28T11:53:02Z</time>
      </trkpt>
      <trkpt lat="49.25376" lon="-0.38312">
        <ele>49</ele>
        <time>2023-04-28T11:53:03Z</time>
      </trkpt>
      <trkpt lat="49.25381" lon="-0.38316">
        <ele>49.2</ele>
        <time>2023-04-28T11:53:04Z</time>
      </trkpt>
      <trkpt lat="49.25386" lon="-0.38319">
        <ele>49.4</ele>
        <time>2023-04-28T11:53:05Z</time>
      </trkpt>
      <trkpt lat="49.25391" lon="-0.38322">
        <ele>49.6</ele>
        <time>2023-04-28T11:53:06Z</time>
      </trkpt>
      <trkpt lat="49.25396" lon="-0.38325">
        <ele>49.6</ele>
        <time>2023-04-28T11:53:07Z</time>
      </trkpt>
      <trkpt lat="49.25401" lon="-0.38329">
        <ele>49.8</ele>
        <time>2023-04-28T11:53:08Z</time>
      </trkpt>
      <trkpt lat="49.25406" lon="-0.38332">
        <ele>49.8</ele>
        <time>2023-04-28T11:53:09Z</time>
      </trkpt>
      <trkpt lat="49.25411" lon="-0.38335">
        <ele>50</ele>
        <time>2023-04-28T11:53:10Z</time>
      </trkpt>
      <trkpt lat="49.25416" lon="-0.38338">
        <ele>50</ele>
        <time>2023-04-28T11:53:11Z</time>
      </trkpt>
      <trkpt lat="49.25421" lon="-0.38341">
        <ele>50</ele>
        <time>2023-04-28T11:53:12Z</time>
      </trkpt>
      <trkpt lat="49.25426" lon="-0.38344">
        <ele>49.8</ele>
        <time>2023-04-28T11:53:13Z</time>
      </trkpt>
      <trkpt lat="49.25431" lon="-0.38346">
        <ele>49.8</ele>
        <time>2023-04-28T11:53:14Z</time>
      </trkpt>
      <trkpt lat="49.25436" lon="-0.38349">
        <ele>49.6</ele>
        <time>2023-04-28T11:53:15Z</time>
      </trkpt>
      <trkpt lat="49.25441" lon="-0.38351">
        <ele>49.6</ele>
        <time>2023-04-28T11:53:16Z</time>
      </trkpt>
      <trkpt lat="49.25446" lon="-0.38354">
        <ele>49.6</ele>
        <time>2023-04-28T11:53:17Z</time>
      </trkpt>
      <trkpt lat="49.25451" lon="-0.38356">
        <ele>49.4</ele>
        <time>2023-04-28T11:53:18Z</time>
      </trkpt>
      <trkpt lat="49.25455" lon="-0.38358">
        <ele>49.2</ele>
        <time>2023-04-28T11:53:19Z</time>
      </trkpt>
      <trkpt lat="49.2546" lon="-0.38361">
        <ele>49.2</ele>
        <time>2023-04-28T11:53:20Z</time>
      </trkpt>
      <trkpt lat="49.25465" lon="-0.38363">
        <ele>49.2</ele>
        <time>2023-04-28T11:53:21Z</time>
      </trkpt>
      <trkpt lat="49.2547" lon="-0.38365">
        <ele>49.2</ele>
        <time>2023-04-28T11:53:22Z</time>
      </trkpt>
      <trkpt lat="49.25474" lon="-0.38367">
        <ele>49.2</ele>
        <time>2023-04-28T11:53:23Z</time>
      </trkpt>
      <trkpt lat="49.25479" lon="-0.38368">
        <ele>49</ele>
        <time>2023-04-28T11:53:24Z</time>
      </trkpt>
      <trkpt lat="49.25484" lon="-0.3837">
        <ele>49</ele>
        <time>2023-04-28T11:53:25Z</time>
      </trkpt>
      <trkpt lat="49.25488" lon="-0.38372">
        <ele>49</ele>
        <time>2023-04-28T11:53:26Z</time>
      </trkpt>
      <trkpt lat="49.25493" lon="-0.38374">
        <ele>49</ele>
        <time>2023-04-28T11:53:27Z</time>
      </trkpt>
      <trkpt lat="49.25498" lon="-0.38375">
        <ele>49</ele>
        <time>2023-04-28T11:53:28Z</time>
      </trkpt>
      <trkpt lat="49.25502" lon="-0.38377">
        <ele>49</ele>
        <time>2023-04-28T11:53:29Z</time>
      </trkpt>
      <trkpt lat="49.25507" lon="-0.38378">
        <ele>49.2</ele>
        <time>2023-04-28T11:53:30Z</time>
      </trkpt>
      <trkpt lat="49.25512" lon="-0.3838">
        <ele>49.2</ele>
        <time>2023-04-28T11:53:31Z</time>
      </trkpt>
      <trkpt lat="49.25516" lon="-0.38382">
        <ele>49.4</ele>
        <time>2023-04-28T11:53:32Z</time>
      </trkpt>
      <trkpt lat="49.25521" lon="-0.38383">
        <ele>49.6</ele>
        <time>2023-04-28T11:53:33Z</time>
      </trkpt>
      <trkpt lat="49.25526" lon="-0.38384">
        <ele>49.8</ele>
        <time>2023-04-28T11:53:34Z</time>
      </trkpt>
      <trkpt lat="49.2553" lon="-0.38386">
        <ele>49.8</ele>
        <time>2023-04-28T11:53:35Z</time>
      </trkpt>
      <trkpt lat="49.25535" lon="-0.38387">
        <ele>50</ele>
        <time>2023-04-28T11:53:36Z</time>
      </trkpt>
      <trkpt lat="49.2554" lon="-0.38389">
        <ele>50</ele>
        <time>2023-04-28T11:53:37Z</time>
      </trkpt>
      <trkpt lat="49.25544" lon="-0.3839">
        <ele>50</ele>
        <time>2023-04-28T11:53:38Z</time>
      </trkpt>
      <trkpt lat="49.25549" lon="-0.38391">
        <ele>50.2</ele>
        <time>2023-04-28T11:53:39Z</time>
      </trkpt>
      <trkpt lat="49.25553" lon="-0.38392">
        <ele>50.2</ele>
        <time>2023-04-28T11:53:40Z</time>
      </trkpt>
      <trkpt lat="49.25558" lon="-0.38394">
        <ele>50.2</ele>
        <time>2023-04-28T11:53:41Z</time>
      </trkpt>
      <trkpt lat="49.25563" lon="-0.38395">
        <ele>50.4</ele>
        <time>2023-04-28T11:53:42Z</time>
      </trkpt>
      <trkpt lat="49.25567" lon="-0.38396">
        <ele>50.6</ele>
        <time>2023-04-28T11:53:43Z</time>
      </trkpt>
      <trkpt lat="49.25572" lon="-0.38397">
        <ele>50.6</ele>
        <time>2023-04-28T11:53:44Z</time>
      </trkpt>
      <trkpt lat="49.25576" lon="-0.38398">
        <ele>50.8</ele>
        <time>2023-04-28T11:53:45Z</time>
      </trkpt>
      <trkpt lat="49.25581" lon="-0.38399">
        <ele>50.8</ele>
        <time>2023-04-28T11:53:46Z</time>
      </trkpt>
      <trkpt lat="49.25585" lon="-0.384">
        <ele>50.8</ele>
        <time>2023-04-28T11:53:47Z</time>
      </trkpt>
      <trkpt lat="49.2559" lon="-0.384">
        <ele>51</ele>
        <time>2023-04-28T11:53:48Z</time>
      </trkpt>
      <trkpt lat="49.25595" lon="-0.38401">
        <ele>51</ele>
        <time>2023-04-28T11:53:49Z</time>
      </trkpt>
      <trkpt lat="49.25599" lon="-0.38402">
        <ele>51</ele>
        <time>2023-04-28T11:53:50Z</time>
      </trkpt>
      <trkpt lat="49.25604" lon="-0.38403">
        <ele>51</ele>
        <time>2023-04-28T11:53:51Z</time>
      </trkpt>
      <trkpt lat="49.25609" lon="-0.38403">
        <ele>51</ele>
        <time>2023-04-28T11:53:52Z</time>
      </trkpt>
      <trkpt lat="49.25614" lon="-0.38404">
        <ele>51.2</ele>
        <time>2023-04-28T11:53:53Z</time>
      </trkpt>
      <trkpt lat="49.25619" lon="-0.38404">
        <ele>51.2</ele>
        <time>2023-04-28T11:53:54Z</time>
      </trkpt>
      <trkpt lat="49.25623" lon="-0.38405">
        <ele>51.2</ele>
        <time>2023-04-28T11:53:55Z</time>
      </trkpt>
      <trkpt lat="49.25628" lon="-0.38405">
        <ele>51.4</ele>
        <time>2023-04-28T11:53:56Z</time>
      </trkpt>
      <trkpt lat="49.25633" lon="-0.38406">
        <ele>51.6</ele>
        <time>2023-04-28T11:53:57Z</time>
      </trkpt>
      <trkpt lat="49.25638" lon="-0.38406">
        <ele>51.6</ele>
        <time>2023-04-28T11:53:58Z</time>
      </trkpt>
      <trkpt lat="49.25643" lon="-0.38406">
        <ele>51.6</ele>
        <time>2023-04-28T11:53:59Z</time>
      </trkpt>
      <trkpt lat="49.25649" lon="-0.38406">
        <ele>51.8</ele>
        <time>2023-04-28T11:54:00Z</time>
      </trkpt>
      <trkpt lat="49.25654" lon="-0.38407">
        <ele>51.8</ele>
        <time>2023-04-28T11:54:01Z</time>
      </trkpt>
      <trkpt lat="49.25659" lon="-0.38407">
        <ele>51.8</ele>
        <time>2023-04-28T11:54:02Z</time>
      </trkpt>
      <trkpt lat="49.25664" lon="-0.38407">
        <ele>52</ele>
        <time>2023-04-28T11:54:03Z</time>
      </trkpt>
      <trkpt lat="49.25669" lon="-0.38407">
        <ele>52</ele>
        <time>2023-04-28T11:54:04Z</time>
      </trkpt>
      <trkpt lat="49.25675" lon="-0.38407">
        <ele>52</ele>
        <time>2023-04-28T11:54:05Z</time>
      </trkpt>
      <trkpt lat="49.2568" lon="-0.38406">
        <ele>52.2</ele>
        <time>2023-04-28T11:54:06Z</time>
      </trkpt>
      <trkpt lat="49.25686" lon="-0.38406">
        <ele>52.2</ele>
        <time>2023-04-28T11:54:07Z</time>
      </trkpt>
      <trkpt lat="49.25691" lon="-0.38406">
        <ele>52.6</ele>
        <time>2023-04-28T11:54:08Z</time>
      </trkpt>
      <trkpt lat="49.25696" lon="-0.38406">
        <ele>52.6</ele>
        <time>2023-04-28T11:54:09Z</time>
      </trkpt>
      <trkpt lat="49.25702" lon="-0.38405">
        <ele>52.8</ele>
        <time>2023-04-28T11:54:10Z</time>
      </trkpt>
      <trkpt lat="49.25707" lon="-0.38405">
        <ele>52.8</ele>
        <time>2023-04-28T11:54:11Z</time>
      </trkpt>
      <trkpt lat="49.25712" lon="-0.38404">
        <ele>53</ele>
        <time>2023-04-28T11:54:12Z</time>
      </trkpt>
      <trkpt lat="49.25718" lon="-0.38404">
        <ele>53</ele>
        <time>2023-04-28T11:54:13Z</time>
      </trkpt>
      <trkpt lat="49.25723" lon="-0.38403">
        <ele>53.2</ele>
        <time>2023-04-28T11:54:14Z</time>
      </trkpt>
      <trkpt lat="49.25728" lon="-0.38403">
        <ele>53.2</ele>
        <time>2023-04-28T11:54:15Z</time>
      </trkpt>
      <trkpt lat="49.25734" lon="-0.38402">
        <ele>53.4</ele>
        <time>2023-04-28T11:54:16Z</time>
      </trkpt>
      <trkpt lat="49.25739" lon="-0.38402">
        <ele>53.6</ele>
        <time>2023-04-28T11:54:17Z</time>
      </trkpt>
      <trkpt lat="49.25744" lon="-0.38401">
        <ele>53.8</ele>
        <time>2023-04-28T11:54:18Z</time>
      </trkpt>
      <trkpt lat="49.2575" lon="-0.384">
        <ele>53.8</ele>
        <time>2023-04-28T11:54:19Z</time>
      </trkpt>
      <trkpt lat="49.25755" lon="-0.38399">
        <ele>53.8</ele>
        <time>2023-04-28T11:54:20Z</time>
      </trkpt>
      <trkpt lat="49.25761" lon="-0.38398">
        <ele>53.6</ele>
        <time>2023-04-28T11:54:21Z</time>
      </trkpt>
      <trkpt lat="49.25767" lon="-0.38397">
        <ele>53.4</ele>
        <time>2023-04-28T11:54:22Z</time>
      </trkpt>
      <trkpt lat="49.25773" lon="-0.38396">
        <ele>53.2</ele>
        <time>2023-04-28T11:54:23Z</time>
      </trkpt>
      <trkpt lat="49.25778" lon="-0.38394">
        <ele>53</ele>
        <time>2023-04-28T11:54:24Z</time>
      </trkpt>
      <trkpt lat="49.25784" lon="-0.38393">
        <ele>53</ele>
        <time>2023-04-28T11:54:25Z</time>
      </trkpt>
      <trkpt lat="49.2579" lon="-0.38391">
        <ele>53</ele>
        <time>2023-04-28T11:54:26Z</time>
      </trkpt>
      <trkpt lat="49.25796" lon="-0.3839">
        <ele>52.8</ele>
        <time>2023-04-28T11:54:27Z</time>
      </trkpt>
      <trkpt lat="49.25802" lon="-0.38388">
        <ele>52.6</ele>
        <time>2023-04-28T11:54:28Z</time>
      </trkpt>
      <trkpt lat="49.25808" lon="-0.38386">
        <ele>52.6</ele>
        <time>2023-04-28T11:54:29Z</time>
      </trkpt>
      <trkpt lat="49.25814" lon="-0.38384">
        <ele>52.4</ele>
        <time>2023-04-28T11:54:30Z</time>
      </trkpt>
      <trkpt lat="49.2582" lon="-0.38383">
        <ele>52.2</ele>
        <time>2023-04-28T11:54:31Z</time>
      </trkpt>
      <trkpt lat="49.25826" lon="-0.3838">
        <ele>52</ele>
        <time>2023-04-28T11:54:32Z</time>
      </trkpt>
      <trkpt lat="49.25832" lon="-0.38378">
        <ele>52</ele>
        <time>2023-04-28T11:54:33Z</time>
      </trkpt>
      <trkpt lat="49.25838" lon="-0.38376">
        <ele>52</ele>
        <time>2023-04-28T11:54:34Z</time>
      </trkpt>
      <trkpt lat="49.25844" lon="-0.38373">
        <ele>51.8</ele>
        <time>2023-04-28T11:54:35Z</time>
      </trkpt>
      <trkpt lat="49.2585" lon="-0.38371">
        <ele>51.8</ele>
        <time>2023-04-28T11:54:36Z</time>
      </trkpt>
      <trkpt lat="49.25857" lon="-0.38368">
        <ele>51.6</ele>
        <time>2023-04-28T11:54:37Z</time>
      </trkpt>
      <trkpt lat="49.25863" lon="-0.38365">
        <ele>51.6</ele>
        <time>2023-04-28T11:54:38Z</time>
      </trkpt>
      <trkpt lat="49.25869" lon="-0.38362">
        <ele>51.4</ele>
        <time>2023-04-28T11:54:39Z</time>
      </trkpt>
      <trkpt lat="49.25875" lon="-0.38359">
        <ele>51.2</ele>
        <time>2023-04-28T11:54:40Z</time>
      </trkpt>
      <trkpt lat="49.25882" lon="-0.38356">
        <ele>51.2</ele>
        <time>2023-04-28T11:54:41Z</time>
      </trkpt>
      <trkpt lat="49.25888" lon="-0.38352">
        <ele>51.2</ele>
        <time>2023-04-28T11:54:42Z</time>
      </trkpt>
      <trkpt lat="49.25894" lon="-0.38349">
        <ele>51</ele>
        <time>2023-04-28T11:54:43Z</time>
      </trkpt>
      <trkpt lat="49.25901" lon="-0.38346">
        <ele>51</ele>
        <time>2023-04-28T11:54:44Z</time>
      </trkpt>
      <trkpt lat="49.25907" lon="-0.38344">
        <ele>51</ele>
        <time>2023-04-28T11:54:45Z</time>
      </trkpt>
      <trkpt lat="49.25913" lon="-0.38341">
        <ele>51</ele>
        <time>2023-04-28T11:54:46Z</time>
      </trkpt>
      <trkpt lat="49.2592" lon="-0.38339">
        <ele>51</ele>
        <time>2023-04-28T11:54:47Z</time>
      </trkpt>
      <trkpt lat="49.25926" lon="-0.38337">
        <ele>51</ele>
        <time>2023-04-28T11:54:48Z</time>
      </trkpt>
      <trkpt lat="49.25932" lon="-0.38336">
        <ele>51.2</ele>
        <time>2023-04-28T11:54:49Z</time>
      </trkpt>
      <trkpt lat="49.25938" lon="-0.38335">
        <ele>51.2</ele>
        <time>2023-04-28T11:54:50Z</time>
      </trkpt>
      <trkpt lat="49.25944" lon="-0.38334">
        <ele>51.2</ele>
        <time>2023-04-28T11:54:51Z</time>
      </trkpt>
      <trkpt lat="49.2595" lon="-0.38332">
        <ele>51.4</ele>
        <time>2023-04-28T11:54:52Z</time>
      </trkpt>
      <trkpt lat="49.25955" lon="-0.3833">
        <ele>51.6</ele>
        <time>2023-04-28T11:54:53Z</time>
      </trkpt>
      <trkpt lat="49.25961" lon="-0.38327">
        <ele>51.6</ele>
        <time>2023-04-28T11:54:54Z</time>
      </trkpt>
      <trkpt lat="49.25966" lon="-0.38323">
        <ele>51.6</ele>
        <time>2023-04-28T11:54:55Z</time>
      </trkpt>
      <trkpt lat="49.25971" lon="-0.38318">
        <ele>51.6</ele>
        <time>2023-04-28T11:54:56Z</time>
      </trkpt>
      <trkpt lat="49.25976" lon="-0.38312">
        <ele>51.8</ele>
        <time>2023-04-28T11:54:57Z</time>
      </trkpt>
      <trkpt lat="49.2598" lon="-0.38307">
        <ele>51.8</ele>
        <time>2023-04-28T11:54:58Z</time>
      </trkpt>
      <trkpt lat="49.25986" lon="-0.38303">
        <ele>51.8</ele>
        <time>2023-04-28T11:54:59Z</time>
      </trkpt>
      <trkpt lat="49.25992" lon="-0.38302">
        <ele>52</ele>
        <time>2023-04-28T11:55:00Z</time>
      </trkpt>
      <trkpt lat="49.25997" lon="-0.38304">
        <ele>52</ele>
        <time>2023-04-28T11:55:01Z</time>
      </trkpt>
      <trkpt lat="49.26003" lon="-0.38308">
        <ele>52</ele>
        <time>2023-04-28T11:55:02Z</time>
      </trkpt>
      <trkpt lat="49.26007" lon="-0.38313">
        <ele>52</ele>
        <time>2023-04-28T11:55:03Z</time>
      </trkpt>
      <trkpt lat="49.26013" lon="-0.38318">
        <ele>52</ele>
        <time>2023-04-28T11:55:04Z</time>
      </trkpt>
      <trkpt lat="49.26018" lon="-0.38322">
        <ele>52</ele>
        <time>2023-04-28T11:55:05Z</time>
      </trkpt>
      <trkpt lat="49.26023" lon="-0.38325">
        <ele>52</ele>
        <time>2023-04-28T11:55:06Z</time>
      </trkpt>
      <trkpt lat="49.26028" lon="-0.38328">
        <ele>52</ele>
        <time>2023-04-28T11:55:07Z</time>
      </trkpt>
      <trkpt lat="49.26033" lon="-0.38331">
        <ele>52</ele>
        <time>2023-04-28T11:55:08Z</time>
      </trkpt>
      <trkpt lat="49.26039" lon="-0.38335">
        <ele>52</ele>
        <time>2023-04-28T11:55:09Z</time>
      </trkpt>
      <trkpt lat="49.26043" lon="-0.38338">
        <ele>52</ele>
        <time>2023-04-28T11:55:10Z</time>
      </trkpt>
      <trkpt lat="49.26048" lon="-0.38342">
        <ele>52</ele>
        <time>2023-04-28T11:55:11Z</time>
      </trkpt>
      <trkpt lat="49.26053" lon="-0.38346">
        <ele>52</ele>
        <time>2023-04-28T11:55:12Z</time>
      </trkpt>
      <trkpt lat="49.26058" lon="-0.38351">
        <ele>52</ele>
        <time>2023-04-28T11:55:13Z</time>
      </trkpt>
      <trkpt lat="49.26062" lon="-0.38356">
        <ele>52.2</ele>
        <time>2023-04-28T11:55:14Z</time>
      </trkpt>
      <trkpt lat="49.26067" lon="-0.38361">
        <ele>52.2</ele>
        <time>2023-04-28T11:55:15Z</time>
      </trkpt>
      <trkpt lat="49.26071" lon="-0.38366">
        <ele>52.2</ele>
        <time>2023-04-28T11:55:16Z</time>
      </trkpt>
      <trkpt lat="49.26075" lon="-0.38372">
        <ele>52.4</ele>
        <time>2023-04-28T11:55:17Z</time>
      </trkpt>
      <trkpt lat="49.26079" lon="-0.38378">
        <ele>52.6</ele>
        <time>2023-04-28T11:55:18Z</time>
      </trkpt>
      <trkpt lat="49.26083" lon="-0.38384">
        <ele>52.6</ele>
        <time>2023-04-28T11:55:19Z</time>
      </trkpt>
      <trkpt lat="49.26087" lon="-0.3839">
        <ele>52.8</ele>
        <time>2023-04-28T11:55:20Z</time>
      </trkpt>
      <trkpt lat="49.2609" lon="-0.38397">
        <ele>52.8</ele>
        <time>2023-04-28T11:55:21Z</time>
      </trkpt>
      <trkpt lat="49.26094" lon="-0.38403">
        <ele>52.8</ele>
        <time>2023-04-28T11:55:22Z</time>
      </trkpt>
      <trkpt lat="49.26097" lon="-0.3841">
        <ele>52.8</ele>
        <time>2023-04-28T11:55:23Z</time>
      </trkpt>
      <trkpt lat="49.26099" lon="-0.38417">
        <ele>52.8</ele>
        <time>2023-04-28T11:55:24Z</time>
      </trkpt>
      <trkpt lat="49.26102" lon="-0.38424">
        <ele>52.8</ele>
        <time>2023-04-28T11:55:25Z</time>
      </trkpt>
      <trkpt lat="49.26104" lon="-0.3843">
        <ele>52.8</ele>
        <time>2023-04-28T11:55:26Z</time>
      </trkpt>
      <trkpt lat="49.26106" lon="-0.38437">
        <ele>52.8</ele>
        <time>2023-04-28T11:55:27Z</time>
      </trkpt>
      <trkpt lat="49.26108" lon="-0.38444">
        <ele>52.8</ele>
        <time>2023-04-28T11:55:28Z</time>
      </trkpt>
      <trkpt lat="49.2611" lon="-0.38451">
        <ele>52.8</ele>
        <time>2023-04-28T11:55:29Z</time>
      </trkpt>
      <trkpt lat="49.26111" lon="-0.38458">
        <ele>52.8</ele>
        <time>2023-04-28T11:55:30Z</time>
      </trkpt>
      <trkpt lat="49.26113" lon="-0.38466">
        <ele>52.8</ele>
        <time>2023-04-28T11:55:31Z</time>
      </trkpt>
      <trkpt lat="49.26115" lon="-0.38472">
        <ele>52.8</ele>
        <time>2023-04-28T11:55:32Z</time>
      </trkpt>
      <trkpt lat="49.26117" lon="-0.3848">
        <ele>52.8</ele>
        <time>2023-04-28T11:55:33Z</time>
      </trkpt>
      <trkpt lat="49.26118" lon="-0.38487">
        <ele>52.8</ele>
        <time>2023-04-28T11:55:34Z</time>
      </trkpt>
      <trkpt lat="49.2612" lon="-0.38494">
        <ele>52.8</ele>
        <time>2023-04-28T11:55:35Z</time>
      </trkpt>
      <trkpt lat="49.26122" lon="-0.38501">
        <ele>52.6</ele>
        <time>2023-04-28T11:55:36Z</time>
      </trkpt>
      <trkpt lat="49.26123" lon="-0.38508">
        <ele>52.8</ele>
        <time>2023-04-28T11:55:37Z</time>
      </trkpt>
      <trkpt lat="49.26125" lon="-0.38515">
        <ele>52.8</ele>
        <time>2023-04-28T11:55:38Z</time>
      </trkpt>
      <trkpt lat="49.26127" lon="-0.38522">
        <ele>52.8</ele>
        <time>2023-04-28T11:55:39Z</time>
      </trkpt>
      <trkpt lat="49.26128" lon="-0.38529">
        <ele>53</ele>
        <time>2023-04-28T11:55:40Z</time>
      </trkpt>
      <trkpt lat="49.26129" lon="-0.38536">
        <ele>53</ele>
        <time>2023-04-28T11:55:41Z</time>
      </trkpt>
      <trkpt lat="49.2613" lon="-0.38543">
        <ele>53</ele>
        <time>2023-04-28T11:55:42Z</time>
      </trkpt>
      <trkpt lat="49.26131" lon="-0.3855">
        <ele>53.2</ele>
        <time>2023-04-28T11:55:43Z</time>
      </trkpt>
      <trkpt lat="49.26132" lon="-0.38558">
        <ele>53.2</ele>
        <time>2023-04-28T11:55:44Z</time>
      </trkpt>
      <trkpt lat="49.26133" lon="-0.38565">
        <ele>53.6</ele>
        <time>2023-04-28T11:55:45Z</time>
      </trkpt>
      <trkpt lat="49.26134" lon="-0.38572">
        <ele>53.6</ele>
        <time>2023-04-28T11:55:46Z</time>
      </trkpt>
      <trkpt lat="49.26134" lon="-0.3858">
        <ele>53.8</ele>
        <time>2023-04-28T11:55:47Z</time>
      </trkpt>
      <trkpt lat="49.26135" lon="-0.38587">
        <ele>53.8</ele>
        <time>2023-04-28T11:55:48Z</time>
      </trkpt>
      <trkpt lat="49.26135" lon="-0.38594">
        <ele>53.8</ele>
        <time>2023-04-28T11:55:49Z</time>
      </trkpt>
      <trkpt lat="49.26135" lon="-0.38602">
        <ele>53.8</ele>
        <time>2023-04-28T11:55:50Z</time>
      </trkpt>
      <trkpt lat="49.26136" lon="-0.38609">
        <ele>53.8</ele>
        <time>2023-04-28T11:55:51Z</time>
      </trkpt>
      <trkpt lat="49.26136" lon="-0.38616">
        <ele>53.8</ele>
        <time>2023-04-28T11:55:52Z</time>
      </trkpt>
      <trkpt lat="49.26137" lon="-0.38623">
        <ele>54</ele>
        <time>2023-04-28T11:55:53Z</time>
      </trkpt>
      <trkpt lat="49.26137" lon="-0.38631">
        <ele>54</ele>
        <time>2023-04-28T11:55:54Z</time>
      </trkpt>
      <trkpt lat="49.26137" lon="-0.38638">
        <ele>54</ele>
        <time>2023-04-28T11:55:55Z</time>
      </trkpt>
      <trkpt lat="49.26137" lon="-0.38646">
        <ele>54</ele>
        <time>2023-04-28T11:55:56Z</time>
      </trkpt>
      <trkpt lat="49.26137" lon="-0.38653">
        <ele>54</ele>
        <time>2023-04-28T11:55:57Z</time>
      </trkpt>
      <trkpt lat="49.26137" lon="-0.38661">
        <ele>54</ele>
        <time>2023-04-28T11:55:58Z</time>
      </trkpt>
      <trkpt lat="49.26137" lon="-0.38668">
        <ele>54</ele>
        <time>2023-04-28T11:55:59Z</time>
      </trkpt>
      <trkpt lat="49.26138" lon="-0.38676">
        <ele>54</ele>
        <time>2023-04-28T11:56:00Z</time>
      </trkpt>
      <trkpt lat="49.26138" lon="-0.38683">
        <ele>54</ele>
        <time>2023-04-28T11:56:01Z</time>
      </trkpt>
      <trkpt lat="49.26138" lon="-0.38691">
        <ele>54</ele>
        <time>2023-04-28T11:56:02Z</time>
      </trkpt>
      <trkpt lat="49.26138" lon="-0.38699">
        <ele>54</ele>
        <time>2023-04-28T11:56:03Z</time>
      </trkpt>
      <trkpt lat="49.26138" lon="-0.38707">
        <ele>53.8</ele>
        <time>2023-04-28T11:56:04Z</time>
      </trkpt>
      <trkpt lat="49.26138" lon="-0.38715">
        <ele>53.8</ele>
        <time>2023-04-28T11:56:05Z</time>
      </trkpt>
      <trkpt lat="49.26138" lon="-0.38722">
        <ele>53.8</ele>
        <time>2023-04-28T11:56:06Z</time>
      </trkpt>
      <trkpt lat="49.26138" lon="-0.3873">
        <ele>53.8</ele>
        <time>2023-04-28T11:56:07Z</time>
      </trkpt>
      <trkpt lat="49.26138" lon="-0.38738">
        <ele>53.8</ele>
        <time>2023-04-28T11:56:08Z</time>
      </trkpt>
      <trkpt lat="49.26138" lon="-0.38746">
        <ele>53.8</ele>
        <time>2023-04-28T11:56:09Z</time>
      </trkpt>
      <trkpt lat="49.26138" lon="-0.38754">
        <ele>53.8</ele>
        <time>2023-04-28T11:56:10Z</time>
      </trkpt>
      <trkpt lat="49.26138" lon="-0.38762">
        <ele>54</ele>
        <time>2023-04-28T11:56:11Z</time>
      </trkpt>
      <trkpt lat="49.26138" lon="-0.3877">
        <ele>54</ele>
        <time>2023-04-28T11:56:12Z</time>
      </trkpt>
      <trkpt lat="49.26139" lon="-0.38778">
        <ele>54</ele>
        <time>2023-04-28T11:56:13Z</time>
      </trkpt>
      <trkpt lat="49.2614" lon="-0.38786">
        <ele>54.2</ele>
        <time>2023-04-28T11:56:14Z</time>
      </trkpt>
      <trkpt lat="49.26141" lon="-0.38794">
        <ele>54.2</ele>
        <time>2023-04-28T11:56:15Z</time>
      </trkpt>
      <trkpt lat="49.26143" lon="-0.38801">
        <ele>54.4</ele>
        <time>2023-04-28T11:56:16Z</time>
      </trkpt>
      <trkpt lat="49.26145" lon="-0.38808">
        <ele>54.6</ele>
        <time>2023-04-28T11:56:17Z</time>
      </trkpt>
      <trkpt lat="49.26148" lon="-0.38815">
        <ele>54.8</ele>
        <time>2023-04-28T11:56:18Z</time>
      </trkpt>
      <trkpt lat="49.2615" lon="-0.38822">
        <ele>54.8</ele>
        <time>2023-04-28T11:56:19Z</time>
      </trkpt>
      <trkpt lat="49.26153" lon="-0.38828">
        <ele>55</ele>
        <time>2023-04-28T11:56:20Z</time>
      </trkpt>
      <trkpt lat="49.26156" lon="-0.38835">
        <ele>55</ele>
        <time>2023-04-28T11:56:21Z</time>
      </trkpt>
      <trkpt lat="49.26159" lon="-0.38841">
        <ele>55</ele>
        <time>2023-04-28T11:56:22Z</time>
      </trkpt>
      <trkpt lat="49.26162" lon="-0.38848">
        <ele>55</ele>
        <time>2023-04-28T11:56:23Z</time>
      </trkpt>
      <trkpt lat="49.26166" lon="-0.38854">
        <ele>55</ele>
        <time>2023-04-28T11:56:24Z</time>
      </trkpt>
      <trkpt lat="49.26169" lon="-0.38861">
        <ele>55</ele>
        <time>2023-04-28T11:56:25Z</time>
      </trkpt>
      <trkpt lat="49.26172" lon="-0.38867">
        <ele>54.8</ele>
        <time>2023-04-28T11:56:26Z</time>
      </trkpt>
      <trkpt lat="49.26175" lon="-0.38874">
        <ele>54.8</ele>
        <time>2023-04-28T11:56:27Z</time>
      </trkpt>
      <trkpt lat="49.26178" lon="-0.38881">
        <ele>54.8</ele>
        <time>2023-04-28T11:56:28Z</time>
      </trkpt>
      <trkpt lat="49.26182" lon="-0.38887">
        <ele>54.6</ele>
        <time>2023-04-28T11:56:29Z</time>
      </trkpt>
      <trkpt lat="49.26185" lon="-0.38894">
        <ele>54.6</ele>
        <time>2023-04-28T11:56:30Z</time>
      </trkpt>
      <trkpt lat="49.26188" lon="-0.38901">
        <ele>54.4</ele>
        <time>2023-04-28T11:56:31Z</time>
      </trkpt>
      <trkpt lat="49.26191" lon="-0.38907">
        <ele>54.4</ele>
        <time>2023-04-28T11:56:32Z</time>
      </trkpt>
      <trkpt lat="49.26195" lon="-0.38914">
        <ele>54.2</ele>
        <time>2023-04-28T11:56:33Z</time>
      </trkpt>
      <trkpt lat="49.26198" lon="-0.38921">
        <ele>54.2</ele>
        <time>2023-04-28T11:56:34Z</time>
      </trkpt>
      <trkpt lat="49.26201" lon="-0.38928">
        <ele>54</ele>
        <time>2023-04-28T11:56:35Z</time>
      </trkpt>
      <trkpt lat="49.26205" lon="-0.38935">
        <ele>54</ele>
        <time>2023-04-28T11:56:36Z</time>
      </trkpt>
      <trkpt lat="49.26208" lon="-0.38942">
        <ele>54</ele>
        <time>2023-04-28T11:56:37Z</time>
      </trkpt>
      <trkpt lat="49.26211" lon="-0.38948">
        <ele>53.8</ele>
        <time>2023-04-28T11:56:38Z</time>
      </trkpt>
      <trkpt lat="49.26215" lon="-0.38955">
        <ele>53.6</ele>
        <time>2023-04-28T11:56:39Z</time>
      </trkpt>
      <trkpt lat="49.26218" lon="-0.38962">
        <ele>53.6</ele>
        <time>2023-04-28T11:56:40Z</time>
      </trkpt>
      <trkpt lat="49.26222" lon="-0.38969">
        <ele>53.6</ele>
        <time>2023-04-28T11:56:41Z</time>
      </trkpt>
      <trkpt lat="49.26225" lon="-0.38977">
        <ele>53.4</ele>
        <time>2023-04-28T11:56:42Z</time>
      </trkpt>
      <trkpt lat="49.26229" lon="-0.38984">
        <ele>53.2</ele>
        <time>2023-04-28T11:56:43Z</time>
      </trkpt>
      <trkpt lat="49.26232" lon="-0.38991">
        <ele>53.2</ele>
        <time>2023-04-28T11:56:44Z</time>
      </trkpt>
      <trkpt lat="49.26236" lon="-0.38998">
        <ele>53.2</ele>
        <time>2023-04-28T11:56:45Z</time>
      </trkpt>
      <trkpt lat="49.26239" lon="-0.39006">
        <ele>53</ele>
        <time>2023-04-28T11:56:46Z</time>
      </trkpt>
      <trkpt lat="49.26242" lon="-0.39013">
        <ele>53</ele>
        <time>2023-04-28T11:56:47Z</time>
      </trkpt>
      <trkpt lat="49.26246" lon="-0.39021">
        <ele>53</ele>
        <time>2023-04-28T11:56:48Z</time>
      </trkpt>
      <trkpt lat="49.26249" lon="-0.39028">
        <ele>53</ele>
        <time>2023-04-28T11:56:49Z</time>
      </trkpt>
      <trkpt lat="49.26252" lon="-0.39036">
        <ele>53</ele>
        <time>2023-04-28T11:56:50Z</time>
      </trkpt>
      <trkpt lat="49.26256" lon="-0.39044">
        <ele>53</ele>
        <time>2023-04-28T11:56:51Z</time>
      </trkpt>
      <trkpt lat="49.26258" lon="-0.39052">
        <ele>52.8</ele>
        <time>2023-04-28T11:56:52Z</time>
      </trkpt>
      <trkpt lat="49.26261" lon="-0.3906">
        <ele>52.8</ele>
        <time>2023-04-28T11:56:53Z</time>
      </trkpt>
      <trkpt lat="49.26263" lon="-0.39068">
        <ele>52.8</ele>
        <time>2023-04-28T11:56:54Z</time>
      </trkpt>
      <trkpt lat="49.26265" lon="-0.39077">
        <ele>52.8</ele>
        <time>2023-04-28T11:56:55Z</time>
      </trkpt>
      <trkpt lat="49.26267" lon="-0.39085">
        <ele>52.8</ele>
        <time>2023-04-28T11:56:56Z</time>
      </trkpt>
      <trkpt lat="49.26269" lon="-0.39094">
        <ele>53</ele>
        <time>2023-04-28T11:56:57Z</time>
      </trkpt>
      <trkpt lat="49.26272" lon="-0.39103">
        <ele>53</ele>
        <time>2023-04-28T11:56:58Z</time>
      </trkpt>
      <trkpt lat="49.26275" lon="-0.39112">
        <ele>53</ele>
        <time>2023-04-28T11:56:59Z</time>
      </trkpt>
      <trkpt lat="49.26278" lon="-0.3912">
        <ele>53</ele>
        <time>2023-04-28T11:57:00Z</time>
      </trkpt>
      <trkpt lat="49.26282" lon="-0.39129">
        <ele>53</ele>
        <time>2023-04-28T11:57:01Z</time>
      </trkpt>
      <trkpt lat="49.26286" lon="-0.39137">
        <ele>53</ele>
        <time>2023-04-28T11:57:02Z</time>
      </trkpt>
      <trkpt lat="49.26291" lon="-0.39145">
        <ele>53</ele>
        <time>2023-04-28T11:57:03Z</time>
      </trkpt>
      <trkpt lat="49.26295" lon="-0.39154">
        <ele>52.8</ele>
        <time>2023-04-28T11:57:04Z</time>
      </trkpt>
      <trkpt lat="49.263" lon="-0.39162">
        <ele>52.8</ele>
        <time>2023-04-28T11:57:05Z</time>
      </trkpt>
      <trkpt lat="49.26304" lon="-0.3917">
        <ele>52.8</ele>
        <time>2023-04-28T11:57:06Z</time>
      </trkpt>
      <trkpt lat="49.26309" lon="-0.39179">
        <ele>52.6</ele>
        <time>2023-04-28T11:57:07Z</time>
      </trkpt>
      <trkpt lat="49.26314" lon="-0.39187">
        <ele>52.6</ele>
        <time>2023-04-28T11:57:08Z</time>
      </trkpt>
      <trkpt lat="49.26319" lon="-0.39195">
        <ele>52.4</ele>
        <time>2023-04-28T11:57:09Z</time>
      </trkpt>
      <trkpt lat="49.26324" lon="-0.39204">
        <ele>52.2</ele>
        <time>2023-04-28T11:57:10Z</time>
      </trkpt>
      <trkpt lat="49.26328" lon="-0.39213">
        <ele>52</ele>
        <time>2023-04-28T11:57:11Z</time>
      </trkpt>
      <trkpt lat="49.26333" lon="-0.39221">
        <ele>52</ele>
        <time>2023-04-28T11:57:12Z</time>
      </trkpt>
      <trkpt lat="49.26338" lon="-0.3923">
        <ele>51.8</ele>
        <time>2023-04-28T11:57:13Z</time>
      </trkpt>
      <trkpt lat="49.26344" lon="-0.39239">
        <ele>51.6</ele>
        <time>2023-04-28T11:57:14Z</time>
      </trkpt>
      <trkpt lat="49.26349" lon="-0.39248">
        <ele>51.6</ele>
        <time>2023-04-28T11:57:15Z</time>
      </trkpt>
      <trkpt lat="49.26354" lon="-0.39257">
        <ele>51.2</ele>
        <time>2023-04-28T11:57:16Z</time>
      </trkpt>
      <trkpt lat="49.26359" lon="-0.39266">
        <ele>51</ele>
        <time>2023-04-28T11:57:17Z</time>
      </trkpt>
      <trkpt lat="49.26364" lon="-0.39275">
        <ele>51</ele>
        <time>2023-04-28T11:57:18Z</time>
      </trkpt>
      <trkpt lat="49.2637" lon="-0.39284">
        <ele>51</ele>
        <time>2023-04-28T11:57:19Z</time>
      </trkpt>
      <trkpt lat="49.26375" lon="-0.39293">
        <ele>50.8</ele>
        <time>2023-04-28T11:57:20Z</time>
      </trkpt>
      <trkpt lat="49.2638" lon="-0.39302">
        <ele>50.8</ele>
        <time>2023-04-28T11:57:21Z</time>
      </trkpt>
      <trkpt lat="49.26386" lon="-0.39311">
        <ele>50.6</ele>
        <time>2023-04-28T11:57:22Z</time>
      </trkpt>
      <trkpt lat="49.26391" lon="-0.3932">
        <ele>50.6</ele>
        <time>2023-04-28T11:57:23Z</time>
      </trkpt>
      <trkpt lat="49.26397" lon="-0.39329">
        <ele>50.4</ele>
        <time>2023-04-28T11:57:24Z</time>
      </trkpt>
      <trkpt lat="49.26402" lon="-0.39338">
        <ele>50.4</ele>
        <time>2023-04-28T11:57:25Z</time>
      </trkpt>
      <trkpt lat="49.26407" lon="-0.39347">
        <ele>50.2</ele>
        <time>2023-04-28T11:57:26Z</time>
      </trkpt>
      <trkpt lat="49.26412" lon="-0.39355">
        <ele>50</ele>
        <time>2023-04-28T11:57:27Z</time>
      </trkpt>
      <trkpt lat="49.26417" lon="-0.39364">
        <ele>50</ele>
        <time>2023-04-28T11:57:28Z</time>
      </trkpt>
      <trkpt lat="49.26422" lon="-0.39372">
        <ele>50</ele>
        <time>2023-04-28T11:57:29Z</time>
      </trkpt>
      <trkpt lat="49.26427" lon="-0.3938">
        <ele>50</ele>
        <time>2023-04-28T11:57:30Z</time>
      </trkpt>
      <trkpt lat="49.26432" lon="-0.39388">
        <ele>49.8</ele>
        <time>2023-04-28T11:57:31Z</time>
      </trkpt>
      <trkpt lat="49.26437" lon="-0.39396">
        <ele>49.8</ele>
        <time>2023-04-28T11:57:32Z</time>
      </trkpt>
      <trkpt lat="49.26442" lon="-0.39404">
        <ele>49.8</ele>
        <time>2023-04-28T11:57:33Z</time>
      </trkpt>
      <trkpt lat="49.26445" lon="-0.39413">
        <ele>49.8</ele>
        <time>2023-04-28T11:57:34Z</time>
      </trkpt>
      <trkpt lat="49.26448" lon="-0.39423">
        <ele>49.8</ele>
        <time>2023-04-28T11:57:35Z</time>
      </trkpt>
      <trkpt lat="49.26449" lon="-0.39433">
        <ele>49.8</ele>
        <time>2023-04-28T11:57:36Z</time>
      </trkpt>
      <trkpt lat="49.26449" lon="-0.39444">
        <ele>50</ele>
        <time>2023-04-28T11:57:37Z</time>
      </trkpt>
      <trkpt lat="49.26448" lon="-0.39454">
        <ele>50</ele>
        <time>2023-04-28T11:57:38Z</time>
      </trkpt>
      <trkpt lat="49.2645" lon="-0.39464">
        <ele>50.2</ele>
        <time>2023-04-28T11:57:39Z</time>
      </trkpt>
      <trkpt lat="49.26452" lon="-0.39473">
        <ele>50.2</ele>
        <time>2023-04-28T11:57:40Z</time>
      </trkpt>
      <trkpt lat="49.26455" lon="-0.39481">
        <ele>50.2</ele>
        <time>2023-04-28T11:57:41Z</time>
      </trkpt>
      <trkpt lat="49.26459" lon="-0.39489">
        <ele>50.4</ele>
        <time>2023-04-28T11:57:42Z</time>
      </trkpt>
      <trkpt lat="49.26462" lon="-0.39496">
        <ele>50.4</ele>
        <time>2023-04-28T11:57:43Z</time>
      </trkpt>
      <trkpt lat="49.26465" lon="-0.39503">
        <ele>50.6</ele>
        <time>2023-04-28T11:57:44Z</time>
      </trkpt>
      <trkpt lat="49.26469" lon="-0.3951">
        <ele>50.6</ele>
        <time>2023-04-28T11:57:45Z</time>
      </trkpt>
      <trkpt lat="49.26472" lon="-0.39517">
        <ele>50.6</ele>
        <time>2023-04-28T11:57:46Z</time>
      </trkpt>
      <trkpt lat="49.26475" lon="-0.39523">
        <ele>50.8</ele>
        <time>2023-04-28T11:57:47Z</time>
      </trkpt>
      <trkpt lat="49.26478" lon="-0.3953">
        <ele>50.8</ele>
        <time>2023-04-28T11:57:48Z</time>
      </trkpt>
      <trkpt lat="49.26481" lon="-0.39537">
        <ele>51</ele>
        <time>2023-04-28T11:57:49Z</time>
      </trkpt>
      <trkpt lat="49.26484" lon="-0.39544">
        <ele>51</ele>
        <time>2023-04-28T11:57:50Z</time>
      </trkpt>
      <trkpt lat="49.26487" lon="-0.39551">
        <ele>51.2</ele>
        <time>2023-04-28T11:57:51Z</time>
      </trkpt>
      <trkpt lat="49.2649" lon="-0.39558">
        <ele>51.2</ele>
        <time>2023-04-28T11:57:52Z</time>
      </trkpt>
      <trkpt lat="49.26493" lon="-0.39565">
        <ele>51.6</ele>
        <time>2023-04-28T11:57:53Z</time>
      </trkpt>
      <trkpt lat="49.26496" lon="-0.39572">
        <ele>51.8</ele>
        <time>2023-04-28T11:57:54Z</time>
      </trkpt>
      <trkpt lat="49.26499" lon="-0.39579">
        <ele>52</ele>
        <time>2023-04-28T11:57:55Z</time>
      </trkpt>
      <trkpt lat="49.26502" lon="-0.39586">
        <ele>52</ele>
        <time>2023-04-28T11:57:56Z</time>
      </trkpt>
      <trkpt lat="49.26505" lon="-0.39592">
        <ele>52.4</ele>
        <time>2023-04-28T11:57:57Z</time>
      </trkpt>
      <trkpt lat="49.26507" lon="-0.39599">
        <ele>52.8</ele>
        <time>2023-04-28T11:57:58Z</time>
      </trkpt>
      <trkpt lat="49.26509" lon="-0.39607">
        <ele>53</ele>
        <time>2023-04-28T11:57:59Z</time>
      </trkpt>
      <trkpt lat="49.26512" lon="-0.39614">
        <ele>53.2</ele>
        <time>2023-04-28T11:58:00Z</time>
      </trkpt>
      <trkpt lat="49.26514" lon="-0.39621">
        <ele>53.4</ele>
        <time>2023-04-28T11:58:01Z</time>
      </trkpt>
      <trkpt lat="49.26516" lon="-0.39628">
        <ele>53.6</ele>
        <time>2023-04-28T11:58:02Z</time>
      </trkpt>
      <trkpt lat="49.26518" lon="-0.39636">
        <ele>53.8</ele>
        <time>2023-04-28T11:58:03Z</time>
      </trkpt>
      <trkpt lat="49.26521" lon="-0.39643">
        <ele>54</ele>
        <time>2023-04-28T11:58:04Z</time>
      </trkpt>
      <trkpt lat="49.26523" lon="-0.3965">
        <ele>54</ele>
        <time>2023-04-28T11:58:05Z</time>
      </trkpt>
      <trkpt lat="49.26526" lon="-0.39657">
        <ele>54.2</ele>
        <time>2023-04-28T11:58:06Z</time>
      </trkpt>
      <trkpt lat="49.26528" lon="-0.39664">
        <ele>54.2</ele>
        <time>2023-04-28T11:58:07Z</time>
      </trkpt>
      <trkpt lat="49.26531" lon="-0.3967">
        <ele>54.2</ele>
        <time>2023-04-28T11:58:08Z</time>
      </trkpt>
      <trkpt lat="49.26534" lon="-0.39677">
        <ele>54.2</ele>
        <time>2023-04-28T11:58:09Z</time>
      </trkpt>
      <trkpt lat="49.26537" lon="-0.39683">
        <ele>54.2</ele>
        <time>2023-04-28T11:58:10Z</time>
      </trkpt>
      <trkpt lat="49.2654" lon="-0.3969">
        <ele>54.2</ele>
        <time>2023-04-28T11:58:11Z</time>
      </trkpt>
      <trkpt lat="49.26543" lon="-0.39696">
        <ele>54.2</ele>
        <time>2023-04-28T11:58:12Z</time>
      </trkpt>
      <trkpt lat="49.26546" lon="-0.39702">
        <ele>54.2</ele>
        <time>2023-04-28T11:58:13Z</time>
      </trkpt>
      <trkpt lat="49.26549" lon="-0.39709">
        <ele>54.2</ele>
        <time>2023-04-28T11:58:14Z</time>
      </trkpt>
      <trkpt lat="49.26552" lon="-0.39715">
        <ele>54.2</ele>
        <time>2023-04-28T11:58:15Z</time>
      </trkpt>
      <trkpt lat="49.26555" lon="-0.39722">
        <ele>54.2</ele>
        <time>2023-04-28T11:58:16Z</time>
      </trkpt>
      <trkpt lat="49.26557" lon="-0.39728">
        <ele>54.4</ele>
        <time>2023-04-28T11:58:17Z</time>
      </trkpt>
      <trkpt lat="49.2656" lon="-0.39734">
        <ele>54.4</ele>
        <time>2023-04-28T11:58:18Z</time>
      </trkpt>
      <trkpt lat="49.26563" lon="-0.39741">
        <ele>54.4</ele>
        <time>2023-04-28T11:58:19Z</time>
      </trkpt>
      <trkpt lat="49.26566" lon="-0.39747">
        <ele>54.4</ele>
        <time>2023-04-28T11:58:20Z</time>
      </trkpt>
      <trkpt lat="49.26568" lon="-0.39753">
        <ele>54.6</ele>
        <time>2023-04-28T11:58:21Z</time>
      </trkpt>
      <trkpt lat="49.26571" lon="-0.3976">
        <ele>54.6</ele>
        <time>2023-04-28T11:58:22Z</time>
      </trkpt>
      <trkpt lat="49.26574" lon="-0.39766">
        <ele>54.8</ele>
        <time>2023-04-28T11:58:23Z</time>
      </trkpt>
      <trkpt lat="49.26577" lon="-0.39772">
        <ele>55</ele>
        <time>2023-04-28T11:58:24Z</time>
      </trkpt>
      <trkpt lat="49.26579" lon="-0.39779">
        <ele>55</ele>
        <time>2023-04-28T11:58:25Z</time>
      </trkpt>
      <trkpt lat="49.26582" lon="-0.39785">
        <ele>55.2</ele>
        <time>2023-04-28T11:58:26Z</time>
      </trkpt>
      <trkpt lat="49.26585" lon="-0.39791">
        <ele>55.6</ele>
        <time>2023-04-28T11:58:27Z</time>
      </trkpt>
      <trkpt lat="49.26588" lon="-0.39797">
        <ele>55.6</ele>
        <time>2023-04-28T11:58:28Z</time>
      </trkpt>
      <trkpt lat="49.2659" lon="-0.39804">
        <ele>55.8</ele>
        <time>2023-04-28T11:58:29Z</time>
      </trkpt>
      <trkpt lat="49.26593" lon="-0.39809">
        <ele>56</ele>
        <time>2023-04-28T11:58:30Z</time>
      </trkpt>
      <trkpt lat="49.26596" lon="-0.39815">
        <ele>56</ele>
        <time>2023-04-28T11:58:31Z</time>
      </trkpt>
      <trkpt lat="49.26599" lon="-0.39821">
        <ele>56.2</ele>
        <time>2023-04-28T11:58:32Z</time>
      </trkpt>
      <trkpt lat="49.26603" lon="-0.39827">
        <ele>56.4</ele>
        <time>2023-04-28T11:58:33Z</time>
      </trkpt>
      <trkpt lat="49.26606" lon="-0.39833">
        <ele>56.6</ele>
        <time>2023-04-28T11:58:34Z</time>
      </trkpt>
      <trkpt lat="49.26609" lon="-0.39838">
        <ele>56.6</ele>
        <time>2023-04-28T11:58:35Z</time>
      </trkpt>
      <trkpt lat="49.26612" lon="-0.39844">
        <ele>56.6</ele>
        <time>2023-04-28T11:58:36Z</time>
      </trkpt>
      <trkpt lat="49.26615" lon="-0.3985">
        <ele>56.6</ele>
        <time>2023-04-28T11:58:37Z</time>
      </trkpt>
      <trkpt lat="49.26618" lon="-0.39855">
        <ele>56.8</ele>
        <time>2023-04-28T11:58:38Z</time>
      </trkpt>
      <trkpt lat="49.26621" lon="-0.39861">
        <ele>56.8</ele>
        <time>2023-04-28T11:58:39Z</time>
      </trkpt>
      <trkpt lat="49.26624" lon="-0.39866">
        <ele>56.8</ele>
        <time>2023-04-28T11:58:40Z</time>
      </trkpt>
      <trkpt lat="49.26627" lon="-0.39872">
        <ele>57</ele>
        <time>2023-04-28T11:58:41Z</time>
      </trkpt>
      <trkpt lat="49.2663" lon="-0.39878">
        <ele>57</ele>
        <time>2023-04-28T11:58:42Z</time>
      </trkpt>
      <trkpt lat="49.26633" lon="-0.39884">
        <ele>57</ele>
        <time>2023-04-28T11:58:43Z</time>
      </trkpt>
      <trkpt lat="49.26636" lon="-0.3989">
        <ele>57</ele>
        <time>2023-04-28T11:58:44Z</time>
      </trkpt>
      <trkpt lat="49.26638" lon="-0.39897">
        <ele>57.2</ele>
        <time>2023-04-28T11:58:45Z</time>
      </trkpt>
      <trkpt lat="49.26641" lon="-0.39903">
        <ele>57.2</ele>
        <time>2023-04-28T11:58:46Z</time>
      </trkpt>
      <trkpt lat="49.26643" lon="-0.3991">
        <ele>57.4</ele>
        <time>2023-04-28T11:58:47Z</time>
      </trkpt>
      <trkpt lat="49.26646" lon="-0.39916">
        <ele>57.6</ele>
        <time>2023-04-28T11:58:48Z</time>
      </trkpt>
      <trkpt lat="49.26648" lon="-0.39923">
        <ele>57.6</ele>
        <time>2023-04-28T11:58:49Z</time>
      </trkpt>
      <trkpt lat="49.2665" lon="-0.39929">
        <ele>57.6</ele>
        <time>2023-04-28T11:58:50Z</time>
      </trkpt>
      <trkpt lat="49.26652" lon="-0.39935">
        <ele>57.6</ele>
        <time>2023-04-28T11:58:51Z</time>
      </trkpt>
      <trkpt lat="49.26654" lon="-0.39941">
        <ele>57.6</ele>
        <time>2023-04-28T11:58:52Z</time>
      </trkpt>
      <trkpt lat="49.26656" lon="-0.39947">
        <ele>57.6</ele>
        <time>2023-04-28T11:58:53Z</time>
      </trkpt>
      <trkpt lat="49.26659" lon="-0.39954">
        <ele>57.6</ele>
        <time>2023-04-28T11:58:54Z</time>
      </trkpt>
      <trkpt lat="49.2666" lon="-0.3996">
        <ele>57.6</ele>
        <time>2023-04-28T11:58:55Z</time>
      </trkpt>
      <trkpt lat="49.26663" lon="-0.39966">
        <ele>57.8</ele>
        <time>2023-04-28T11:58:56Z</time>
      </trkpt>
      <trkpt lat="49.26665" lon="-0.39972">
        <ele>57.8</ele>
        <time>2023-04-28T11:58:57Z</time>
      </trkpt>
      <trkpt lat="49.26667" lon="-0.39979">
        <ele>57.8</ele>
        <time>2023-04-28T11:58:58Z</time>
      </trkpt>
      <trkpt lat="49.26669" lon="-0.39985">
        <ele>57.8</ele>
        <time>2023-04-28T11:58:59Z</time>
      </trkpt>
      <trkpt lat="49.26671" lon="-0.39992">
        <ele>58</ele>
        <time>2023-04-28T11:59:00Z</time>
      </trkpt>
      <trkpt lat="49.26673" lon="-0.39999">
        <ele>58</ele>
        <time>2023-04-28T11:59:01Z</time>
      </trkpt>
      <trkpt lat="49.26674" lon="-0.40006">
        <ele>58</ele>
        <time>2023-04-28T11:59:02Z</time>
      </trkpt>
      <trkpt lat="49.26676" lon="-0.40013">
        <ele>58</ele>
        <time>2023-04-28T11:59:03Z</time>
      </trkpt>
      <trkpt lat="49.26678" lon="-0.4002">
        <ele>58</ele>
        <time>2023-04-28T11:59:04Z</time>
      </trkpt>
      <trkpt lat="49.2668" lon="-0.40027">
        <ele>58</ele>
        <time>2023-04-28T11:59:05Z</time>
      </trkpt>
      <trkpt lat="49.26682" lon="-0.40035">
        <ele>58.2</ele>
        <time>2023-04-28T11:59:06Z</time>
      </trkpt>
      <trkpt lat="49.26683" lon="-0.40042">
        <ele>58.2</ele>
        <time>2023-04-28T11:59:07Z</time>
      </trkpt>
      <trkpt lat="49.26685" lon="-0.40049">
        <ele>58.2</ele>
        <time>2023-04-28T11:59:08Z</time>
      </trkpt>
      <trkpt lat="49.26687" lon="-0.40056">
        <ele>58.2</ele>
        <time>2023-04-28T11:59:09Z</time>
      </trkpt>
      <trkpt lat="49.26689" lon="-0.40063">
        <ele>58.2</ele>
        <time>2023-04-28T11:59:10Z</time>
      </trkpt>
      <trkpt lat="49.2669" lon="-0.4007">
        <ele>58.2</ele>
        <time>2023-04-28T11:59:11Z</time>
      </trkpt>
      <trkpt lat="49.26692" lon="-0.40078">
        <ele>58.2</ele>
        <time>2023-04-28T11:59:12Z</time>
      </trkpt>
      <trkpt lat="49.26693" lon="-0.40085">
        <ele>58.4</ele>
        <time>2023-04-28T11:59:13Z</time>
      </trkpt>
      <trkpt lat="49.26695" lon="-0.40092">
        <ele>58.2</ele>
        <time>2023-04-28T11:59:14Z</time>
      </trkpt>
      <trkpt lat="49.26697" lon="-0.401">
        <ele>58.2</ele>
        <time>2023-04-28T11:59:15Z</time>
      </trkpt>
      <trkpt lat="49.26698" lon="-0.40107">
        <ele>58.2</ele>
        <time>2023-04-28T11:59:16Z</time>
      </trkpt>
      <trkpt lat="49.267" lon="-0.40114">
        <ele>58.2</ele>
        <time>2023-04-28T11:59:17Z</time>
      </trkpt>
      <trkpt lat="49.26703" lon="-0.4012">
        <ele>58</ele>
        <time>2023-04-28T11:59:18Z</time>
      </trkpt>
      <trkpt lat="49.26704" lon="-0.40127">
        <ele>58</ele>
        <time>2023-04-28T11:59:19Z</time>
      </trkpt>
      <trkpt lat="49.26705" lon="-0.40134">
        <ele>58</ele>
        <time>2023-04-28T11:59:20Z</time>
      </trkpt>
      <trkpt lat="49.26705" lon="-0.4014">
        <ele>58</ele>
        <time>2023-04-28T11:59:21Z</time>
      </trkpt>
      <trkpt lat="49.26703" lon="-0.40146">
        <ele>58</ele>
        <time>2023-04-28T11:59:22Z</time>
      </trkpt>
      <trkpt lat="49.267" lon="-0.40151">
        <ele>58.2</ele>
        <time>2023-04-28T11:59:23Z</time>
      </trkpt>
      <trkpt lat="49.26696" lon="-0.40156">
        <ele>58.2</ele>
        <time>2023-04-28T11:59:24Z</time>
      </trkpt>
      <trkpt lat="49.26692" lon="-0.40161">
        <ele>58.4</ele>
        <time>2023-04-28T11:59:25Z</time>
      </trkpt>
      <trkpt lat="49.26689" lon="-0.40166">
        <ele>58.6</ele>
        <time>2023-04-28T11:59:26Z</time>
      </trkpt>
      <trkpt lat="49.26685" lon="-0.40172">
        <ele>58.6</ele>
        <time>2023-04-28T11:59:27Z</time>
      </trkpt>
      <trkpt lat="49.26682" lon="-0.40177">
        <ele>58.6</ele>
        <time>2023-04-28T11:59:28Z</time>
      </trkpt>
      <trkpt lat="49.26678" lon="-0.40183">
        <ele>58.8</ele>
        <time>2023-04-28T11:59:29Z</time>
      </trkpt>
      <trkpt lat="49.26675" lon="-0.40188">
        <ele>58.8</ele>
        <time>2023-04-28T11:59:30Z</time>
      </trkpt>
      <trkpt lat="49.26671" lon="-0.40193">
        <ele>59</ele>
        <time>2023-04-28T11:59:31Z</time>
      </trkpt>
      <trkpt lat="49.26667" lon="-0.40197">
        <ele>59</ele>
        <time>2023-04-28T11:59:32Z</time>
      </trkpt>
      <trkpt lat="49.26663" lon="-0.40201">
        <ele>59</ele>
        <time>2023-04-28T11:59:33Z</time>
      </trkpt>
      <trkpt lat="49.26659" lon="-0.40205">
        <ele>59</ele>
        <time>2023-04-28T11:59:34Z</time>
      </trkpt>
      <trkpt lat="49.26655" lon="-0.40209">
        <ele>59.2</ele>
        <time>2023-04-28T11:59:35Z</time>
      </trkpt>
      <trkpt lat="49.26651" lon="-0.40213">
        <ele>59.2</ele>
        <time>2023-04-28T11:59:36Z</time>
      </trkpt>
      <trkpt lat="49.26647" lon="-0.40219">
        <ele>59.2</ele>
        <time>2023-04-28T11:59:37Z</time>
      </trkpt>
      <trkpt lat="49.26644" lon="-0.40224">
        <ele>59.4</ele>
        <time>2023-04-28T11:59:38Z</time>
      </trkpt>
      <trkpt lat="49.26641" lon="-0.40231">
        <ele>59.4</ele>
        <time>2023-04-28T11:59:39Z</time>
      </trkpt>
      <trkpt lat="49.26639" lon="-0.40238">
        <ele>59.4</ele>
        <time>2023-04-28T11:59:40Z</time>
      </trkpt>
      <trkpt lat="49.26638" lon="-0.40246">
        <ele>59.4</ele>
        <time>2023-04-28T11:59:41Z</time>
      </trkpt>
      <trkpt lat="49.26637" lon="-0.40254">
        <ele>59.4</ele>
        <time>2023-04-28T11:59:42Z</time>
      </trkpt>
      <trkpt lat="49.26637" lon="-0.40263">
        <ele>59.4</ele>
        <time>2023-04-28T11:59:43Z</time>
      </trkpt>
      <trkpt lat="49.26637" lon="-0.40271">
        <ele>59.4</ele>
        <time>2023-04-28T11:59:44Z</time>
      </trkpt>
      <trkpt lat="49.26638" lon="-0.4028">
        <ele>59.2</ele>
        <time>2023-04-28T11:59:45Z</time>
      </trkpt>
      <trkpt lat="49.26638" lon="-0.40288">
        <ele>59.2</ele>
        <time>2023-04-28T11:59:46Z</time>
      </trkpt>
      <trkpt lat="49.26638" lon="-0.40297">
        <ele>59.2</ele>
        <time>2023-04-28T11:59:47Z</time>
      </trkpt>
      <trkpt lat="49.26637" lon="-0.40306">
        <ele>59.4</ele>
        <time>2023-04-28T11:59:48Z</time>
      </trkpt>
      <trkpt lat="49.26637" lon="-0.40315">
        <ele>59.4</ele>
        <time>2023-04-28T11:59:49Z</time>
      </trkpt>
      <trkpt lat="49.26636" lon="-0.40324">
        <ele>59.4</ele>
        <time>2023-04-28T11:59:50Z</time>
      </trkpt>
      <trkpt lat="49.26634" lon="-0.40333">
        <ele>59.4</ele>
        <time>2023-04-28T11:59:51Z</time>
      </trkpt>
      <trkpt lat="49.26632" lon="-0.40342">
        <ele>59.2</ele>
        <time>2023-04-28T11:59:52Z</time>
      </trkpt>
      <trkpt lat="49.2663" lon="-0.4035">
        <ele>59</ele>
        <time>2023-04-28T11:59:53Z</time>
      </trkpt>
      <trkpt lat="49.26628" lon="-0.40359">
        <ele>59</ele>
        <time>2023-04-28T11:59:54Z</time>
      </trkpt>
      <trkpt lat="49.26626" lon="-0.40368">
        <ele>59</ele>
        <time>2023-04-28T11:59:55Z</time>
      </trkpt>
      <trkpt lat="49.26624" lon="-0.40377">
        <ele>58.8</ele>
        <time>2023-04-28T11:59:56Z</time>
      </trkpt>
      <trkpt lat="49.26623" lon="-0.40387">
        <ele>58.6</ele>
        <time>2023-04-28T11:59:57Z</time>
      </trkpt>
      <trkpt lat="49.26621" lon="-0.40396">
        <ele>58.4</ele>
        <time>2023-04-28T11:59:58Z</time>
      </trkpt>
      <trkpt lat="49.2662" lon="-0.40405">
        <ele>58.2</ele>
        <time>2023-04-28T11:59:59Z</time>
      </trkpt>
      <trkpt lat="49.26617" lon="-0.40412">
        <ele>58.2</ele>
        <time>2023-04-28T12:00:00Z</time>
      </trkpt>
      <trkpt lat="49.26614" lon="-0.40419">
        <ele>58.2</ele>
        <time>2023-04-28T12:00:01Z</time>
      </trkpt>
      <trkpt lat="49.26611" lon="-0.40426">
        <ele>58.2</ele>
        <time>2023-04-28T12:00:02Z</time>
      </trkpt>
      <trkpt lat="49.26607" lon="-0.40432">
        <ele>58.2</ele>
        <time>2023-04-28T12:00:03Z</time>
      </trkpt>
      <trkpt lat="49.26602" lon="-0.40437">
        <ele>58.2</ele>
        <time>2023-04-28T12:00:04Z</time>
      </trkpt>
      <trkpt lat="49.26597" lon="-0.40442">
        <ele>58.4</ele>
        <time>2023-04-28T12:00:05Z</time>
      </trkpt>
      <trkpt lat="49.26593" lon="-0.40447">
        <ele>58.4</ele>
        <time>2023-04-28T12:00:06Z</time>
      </trkpt>
      <trkpt lat="49.26588" lon="-0.40452">
        <ele>58.6</ele>
        <time>2023-04-28T12:00:07Z</time>
      </trkpt>
      <trkpt lat="49.26584" lon="-0.40457">
        <ele>58.6</ele>
        <time>2023-04-28T12:00:08Z</time>
      </trkpt>
      <trkpt lat="49.26579" lon="-0.40462">
        <ele>58.6</ele>
        <time>2023-04-28T12:00:09Z</time>
      </trkpt>
      <trkpt lat="49.26575" lon="-0.40468">
        <ele>58.6</ele>
        <time>2023-04-28T12:00:10Z</time>
      </trkpt>
      <trkpt lat="49.2657" lon="-0.40472">
        <ele>58.6</ele>
        <time>2023-04-28T12:00:11Z</time>
      </trkpt>
      <trkpt lat="49.26565" lon="-0.40477">
        <ele>58.6</ele>
        <time>2023-04-28T12:00:12Z</time>
      </trkpt>
      <trkpt lat="49.26561" lon="-0.40482">
        <ele>58.8</ele>
        <time>2023-04-28T12:00:13Z</time>
      </trkpt>
      <trkpt lat="49.26557" lon="-0.40488">
        <ele>58.8</ele>
        <time>2023-04-28T12:00:14Z</time>
      </trkpt>
      <trkpt lat="49.26554" lon="-0.40494">
        <ele>58.8</ele>
        <time>2023-04-28T12:00:15Z</time>
      </trkpt>
      <trkpt lat="49.26551" lon="-0.40501">
        <ele>58.8</ele>
        <time>2023-04-28T12:00:16Z</time>
      </trkpt>
      <trkpt lat="49.26549" lon="-0.40508">
        <ele>59</ele>
        <time>2023-04-28T12:00:17Z</time>
      </trkpt>
      <trkpt lat="49.26547" lon="-0.40516">
        <ele>59</ele>
        <time>2023-04-28T12:00:18Z</time>
      </trkpt>
      <trkpt lat="49.26547" lon="-0.40524">
        <ele>59</ele>
        <time>2023-04-28T12:00:19Z</time>
      </trkpt>
      <trkpt lat="49.26547" lon="-0.40533">
        <ele>59</ele>
        <time>2023-04-28T12:00:20Z</time>
      </trkpt>
      <trkpt lat="49.26547" lon="-0.40541">
        <ele>59</ele>
        <time>2023-04-28T12:00:21Z</time>
      </trkpt>
      <trkpt lat="49.26547" lon="-0.40549">
        <ele>59</ele>
        <time>2023-04-28T12:00:22Z</time>
      </trkpt>
      <trkpt lat="49.26548" lon="-0.40558">
        <ele>59.2</ele>
        <time>2023-04-28T12:00:23Z</time>
      </trkpt>
      <trkpt lat="49.26548" lon="-0.40566">
        <ele>59.2</ele>
        <time>2023-04-28T12:00:24Z</time>
      </trkpt>
      <trkpt lat="49.26548" lon="-0.40575">
        <ele>59.2</ele>
        <time>2023-04-28T12:00:25Z</time>
      </trkpt>
      <trkpt lat="49.26549" lon="-0.40583">
        <ele>59.2</ele>
        <time>2023-04-28T12:00:26Z</time>
      </trkpt>
      <trkpt lat="49.26549" lon="-0.40592">
        <ele>59</ele>
        <time>2023-04-28T12:00:27Z</time>
      </trkpt>
      <trkpt lat="49.26549" lon="-0.40601">
        <ele>59</ele>
        <time>2023-04-28T12:00:28Z</time>
      </trkpt>
      <trkpt lat="49.26549" lon="-0.4061">
        <ele>59</ele>
        <time>2023-04-28T12:00:29Z</time>
      </trkpt>
      <trkpt lat="49.26549" lon="-0.40619">
        <ele>58.8</ele>
        <time>2023-04-28T12:00:30Z</time>
      </trkpt>
      <trkpt lat="49.26549" lon="-0.40627">
        <ele>58.8</ele>
        <time>2023-04-28T12:00:31Z</time>
      </trkpt>
      <trkpt lat="49.26549" lon="-0.40636">
        <ele>58.6</ele>
        <time>2023-04-28T12:00:32Z</time>
      </trkpt>
      <trkpt lat="49.2655" lon="-0.40645">
        <ele>58.6</ele>
        <time>2023-04-28T12:00:33Z</time>
      </trkpt>
      <trkpt lat="49.2655" lon="-0.40654">
        <ele>58.4</ele>
        <time>2023-04-28T12:00:34Z</time>
      </trkpt>
      <trkpt lat="49.2655" lon="-0.40663">
        <ele>58.2</ele>
        <time>2023-04-28T12:00:35Z</time>
      </trkpt>
      <trkpt lat="49.2655" lon="-0.40672">
        <ele>58.2</ele>
        <time>2023-04-28T12:00:36Z</time>
      </trkpt>
      <trkpt lat="49.2655" lon="-0.40681">
        <ele>58</ele>
        <time>2023-04-28T12:00:37Z</time>
      </trkpt>
      <trkpt lat="49.2655" lon="-0.4069">
        <ele>58</ele>
        <time>2023-04-28T12:00:38Z</time>
      </trkpt>
      <trkpt lat="49.2655" lon="-0.40699">
        <ele>58</ele>
        <time>2023-04-28T12:00:39Z</time>
      </trkpt>
      <trkpt lat="49.2655" lon="-0.40708">
        <ele>58</ele>
        <time>2023-04-28T12:00:40Z</time>
      </trkpt>
      <trkpt lat="49.2655" lon="-0.40717">
        <ele>57.8</ele>
        <time>2023-04-28T12:00:41Z</time>
      </trkpt>
      <trkpt lat="49.2655" lon="-0.40726">
        <ele>57.8</ele>
        <time>2023-04-28T12:00:42Z</time>
      </trkpt>
      <trkpt lat="49.2655" lon="-0.40735">
        <ele>57.8</ele>
        <time>2023-04-28T12:00:43Z</time>
      </trkpt>
      <trkpt lat="49.2655" lon="-0.40744">
        <ele>57.6</ele>
        <time>2023-04-28T12:00:44Z</time>
      </trkpt>
      <trkpt lat="49.2655" lon="-0.40754">
        <ele>57.6</ele>
        <time>2023-04-28T12:00:45Z</time>
      </trkpt>
      <trkpt lat="49.2655" lon="-0.40763">
        <ele>57.6</ele>
        <time>2023-04-28T12:00:46Z</time>
      </trkpt>
      <trkpt lat="49.2655" lon="-0.40772">
        <ele>57.6</ele>
        <time>2023-04-28T12:00:47Z</time>
      </trkpt>
      <trkpt lat="49.2655" lon="-0.40782">
        <ele>57.6</ele>
        <time>2023-04-28T12:00:48Z</time>
      </trkpt>
      <trkpt lat="49.2655" lon="-0.40791">
        <ele>57.6</ele>
        <time>2023-04-28T12:00:49Z</time>
      </trkpt>
      <trkpt lat="49.26551" lon="-0.40801">
        <ele>57.6</ele>
        <time>2023-04-28T12:00:50Z</time>
      </trkpt>
      <trkpt lat="49.26551" lon="-0.40811">
        <ele>57.6</ele>
        <time>2023-04-28T12:00:51Z</time>
      </trkpt>
      <trkpt lat="49.26552" lon="-0.40821">
        <ele>57.6</ele>
        <time>2023-04-28T12:00:52Z</time>
      </trkpt>
      <trkpt lat="49.26552" lon="-0.40831">
        <ele>57.6</ele>
        <time>2023-04-28T12:00:53Z</time>
      </trkpt>
      <trkpt lat="49.26553" lon="-0.40841">
        <ele>57.6</ele>
        <time>2023-04-28T12:00:54Z</time>
      </trkpt>
      <trkpt lat="49.26554" lon="-0.40851">
        <ele>57.4</ele>
        <time>2023-04-28T12:00:55Z</time>
      </trkpt>
      <trkpt lat="49.26555" lon="-0.40862">
        <ele>57.4</ele>
        <time>2023-04-28T12:00:56Z</time>
      </trkpt>
      <trkpt lat="49.26556" lon="-0.40872">
        <ele>57.2</ele>
        <time>2023-04-28T12:00:57Z</time>
      </trkpt>
      <trkpt lat="49.26559" lon="-0.40882">
        <ele>57.2</ele>
        <time>2023-04-28T12:00:58Z</time>
      </trkpt>
      <trkpt lat="49.26561" lon="-0.40892">
        <ele>57</ele>
        <time>2023-04-28T12:00:59Z</time>
      </trkpt>
      <trkpt lat="49.2656" lon="-0.40901">
        <ele>57</ele>
        <time>2023-04-28T12:01:00Z</time>
      </trkpt>
      <trkpt lat="49.26556" lon="-0.40907">
        <ele>57.2</ele>
        <time>2023-04-28T12:01:01Z</time>
      </trkpt>
      <trkpt lat="49.26551" lon="-0.40914">
        <ele>57.6</ele>
        <time>2023-04-28T12:01:02Z</time>
      </trkpt>
      <trkpt lat="49.26548" lon="-0.40922">
        <ele>57.6</ele>
        <time>2023-04-28T12:01:03Z</time>
      </trkpt>
      <trkpt lat="49.26547" lon="-0.40931">
        <ele>57.6</ele>
        <time>2023-04-28T12:01:04Z</time>
      </trkpt>
      <trkpt lat="49.26546" lon="-0.4094">
        <ele>57.4</ele>
        <time>2023-04-28T12:01:05Z</time>
      </trkpt>
      <trkpt lat="49.26545" lon="-0.4095">
        <ele>57.2</ele>
        <time>2023-04-28T12:01:06Z</time>
      </trkpt>
      <trkpt lat="49.26545" lon="-0.4096">
        <ele>57</ele>
        <time>2023-04-28T12:01:07Z</time>
      </trkpt>
      <trkpt lat="49.26545" lon="-0.4097">
        <ele>57</ele>
        <time>2023-04-28T12:01:08Z</time>
      </trkpt>
      <trkpt lat="49.26546" lon="-0.4098">
        <ele>56.8</ele>
        <time>2023-04-28T12:01:09Z</time>
      </trkpt>
      <trkpt lat="49.26546" lon="-0.4099">
        <ele>56.6</ele>
        <time>2023-04-28T12:01:10Z</time>
      </trkpt>
      <trkpt lat="49.26546" lon="-0.41001">
        <ele>56.2</ele>
        <time>2023-04-28T12:01:11Z</time>
      </trkpt>
      <trkpt lat="49.26547" lon="-0.41012">
        <ele>56.2</ele>
        <time>2023-04-28T12:01:12Z</time>
      </trkpt>
      <trkpt lat="49.26547" lon="-0.41022">
        <ele>56</ele>
        <time>2023-04-28T12:01:13Z</time>
      </trkpt>
      <trkpt lat="49.26547" lon="-0.41033">
        <ele>56</ele>
        <time>2023-04-28T12:01:14Z</time>
      </trkpt>
      <trkpt lat="49.26548" lon="-0.41044">
        <ele>55.8</ele>
        <time>2023-04-28T12:01:15Z</time>
      </trkpt>
      <trkpt lat="49.26548" lon="-0.41054">
        <ele>55.8</ele>
        <time>2023-04-28T12:01:16Z</time>
      </trkpt>
      <trkpt lat="49.26548" lon="-0.41065">
        <ele>55.6</ele>
        <time>2023-04-28T12:01:17Z</time>
      </trkpt>
      <trkpt lat="49.26549" lon="-0.41076">
        <ele>55.6</ele>
        <time>2023-04-28T12:01:18Z</time>
      </trkpt>
      <trkpt lat="49.26549" lon="-0.41086">
        <ele>55.2</ele>
        <time>2023-04-28T12:01:19Z</time>
      </trkpt>
      <trkpt lat="49.2655" lon="-0.41097">
        <ele>55</ele>
        <time>2023-04-28T12:01:20Z</time>
      </trkpt>
      <trkpt lat="49.2655" lon="-0.41108">
        <ele>54.8</ele>
        <time>2023-04-28T12:01:21Z</time>
      </trkpt>
      <trkpt lat="49.2655" lon="-0.41119">
        <ele>54.6</ele>
        <time>2023-04-28T12:01:22Z</time>
      </trkpt>
      <trkpt lat="49.2655" lon="-0.4113">
        <ele>54.2</ele>
        <time>2023-04-28T12:01:23Z</time>
      </trkpt>
      <trkpt lat="49.2655" lon="-0.41142">
        <ele>54</ele>
        <time>2023-04-28T12:01:24Z</time>
      </trkpt>
      <trkpt lat="49.2655" lon="-0.41153">
        <ele>53.6</ele>
        <time>2023-04-28T12:01:25Z</time>
      </trkpt>
      <trkpt lat="49.2655" lon="-0.41164">
        <ele>53.2</ele>
        <time>2023-04-28T12:01:26Z</time>
      </trkpt>
      <trkpt lat="49.26549" lon="-0.41175">
        <ele>53.2</ele>
        <time>2023-04-28T12:01:27Z</time>
      </trkpt>
      <trkpt lat="49.26548" lon="-0.41186">
        <ele>53.4</ele>
        <time>2023-04-28T12:01:28Z</time>
      </trkpt>
      <trkpt lat="49.26547" lon="-0.41197">
        <ele>53.6</ele>
        <time>2023-04-28T12:01:29Z</time>
      </trkpt>
      <trkpt lat="49.26546" lon="-0.41207">
        <ele>53.6</ele>
        <time>2023-04-28T12:01:30Z</time>
      </trkpt>
      <trkpt lat="49.26544" lon="-0.41216">
        <ele>53.8</ele>
        <time>2023-04-28T12:01:31Z</time>
      </trkpt>
      <trkpt lat="49.26544" lon="-0.41226">
        <ele>53.8</ele>
        <time>2023-04-28T12:01:32Z</time>
      </trkpt>
      <trkpt lat="49.26543" lon="-0.41236">
        <ele>54</ele>
        <time>2023-04-28T12:01:33Z</time>
      </trkpt>
      <trkpt lat="49.26542" lon="-0.41245">
        <ele>54</ele>
        <time>2023-04-28T12:01:34Z</time>
      </trkpt>
      <trkpt lat="49.26541" lon="-0.41254">
        <ele>54</ele>
        <time>2023-04-28T12:01:35Z</time>
      </trkpt>
      <trkpt lat="49.26541" lon="-0.41263">
        <ele>54.4</ele>
        <time>2023-04-28T12:01:36Z</time>
      </trkpt>
      <trkpt lat="49.2654" lon="-0.41273">
        <ele>54.8</ele>
        <time>2023-04-28T12:01:37Z</time>
      </trkpt>
      <trkpt lat="49.26539" lon="-0.41282">
        <ele>55</ele>
        <time>2023-04-28T12:01:38Z</time>
      </trkpt>
      <trkpt lat="49.26538" lon="-0.41291">
        <ele>55.2</ele>
        <time>2023-04-28T12:01:39Z</time>
      </trkpt>
      <trkpt lat="49.26537" lon="-0.413">
        <ele>55.6</ele>
        <time>2023-04-28T12:01:40Z</time>
      </trkpt>
      <trkpt lat="49.26535" lon="-0.4131">
        <ele>55.8</ele>
        <time>2023-04-28T12:01:41Z</time>
      </trkpt>
      <trkpt lat="49.26534" lon="-0.41319">
        <ele>56</ele>
        <time>2023-04-28T12:01:42Z</time>
      </trkpt>
      <trkpt lat="49.26532" lon="-0.41328">
        <ele>56.2</ele>
        <time>2023-04-28T12:01:43Z</time>
      </trkpt>
      <trkpt lat="49.2653" lon="-0.41338">
        <ele>56.6</ele>
        <time>2023-04-28T12:01:44Z</time>
      </trkpt>
      <trkpt lat="49.26528" lon="-0.41347">
        <ele>56.8</ele>
        <time>2023-04-28T12:01:45Z</time>
      </trkpt>
      <trkpt lat="49.26526" lon="-0.41357">
        <ele>57.2</ele>
        <time>2023-04-28T12:01:46Z</time>
      </trkpt>
      <trkpt lat="49.26524" lon="-0.41366">
        <ele>57.6</ele>
        <time>2023-04-28T12:01:47Z</time>
      </trkpt>
      <trkpt lat="49.26522" lon="-0.41376">
        <ele>57.8</ele>
        <time>2023-04-28T12:01:48Z</time>
      </trkpt>
      <trkpt lat="49.26521" lon="-0.41385">
        <ele>58</ele>
        <time>2023-04-28T12:01:49Z</time>
      </trkpt>
      <trkpt lat="49.26519" lon="-0.41394">
        <ele>58.4</ele>
        <time>2023-04-28T12:01:50Z</time>
      </trkpt>
      <trkpt lat="49.26516" lon="-0.41403">
        <ele>58.8</ele>
        <time>2023-04-28T12:01:51Z</time>
      </trkpt>
      <trkpt lat="49.26514" lon="-0.41412">
        <ele>59</ele>
        <time>2023-04-28T12:01:52Z</time>
      </trkpt>
      <trkpt lat="49.26512" lon="-0.41421">
        <ele>59.2</ele>
        <time>2023-04-28T12:01:53Z</time>
      </trkpt>
      <trkpt lat="49.26509" lon="-0.4143">
        <ele>59.6</ele>
        <time>2023-04-28T12:01:54Z</time>
      </trkpt>
      <trkpt lat="49.26507" lon="-0.41439">
        <ele>60</ele>
        <time>2023-04-28T12:01:55Z</time>
      </trkpt>
      <trkpt lat="49.26505" lon="-0.41448">
        <ele>60.2</ele>
        <time>2023-04-28T12:01:56Z</time>
      </trkpt>
      <trkpt lat="49.26503" lon="-0.41457">
        <ele>60.6</ele>
        <time>2023-04-28T12:01:57Z</time>
      </trkpt>
      <trkpt lat="49.26501" lon="-0.41467">
        <ele>60.8</ele>
        <time>2023-04-28T12:01:58Z</time>
      </trkpt>
      <trkpt lat="49.26499" lon="-0.41476">
        <ele>61</ele>
        <time>2023-04-28T12:01:59Z</time>
      </trkpt>
      <trkpt lat="49.26497" lon="-0.41485">
        <ele>61.2</ele>
        <time>2023-04-28T12:02:00Z</time>
      </trkpt>
      <trkpt lat="49.26495" lon="-0.41494">
        <ele>61.6</ele>
        <time>2023-04-28T12:02:01Z</time>
      </trkpt>
      <trkpt lat="49.26493" lon="-0.41503">
        <ele>61.8</ele>
        <time>2023-04-28T12:02:02Z</time>
      </trkpt>
      <trkpt lat="49.26491" lon="-0.41512">
        <ele>61.8</ele>
        <time>2023-04-28T12:02:03Z</time>
      </trkpt>
      <trkpt lat="49.26489" lon="-0.4152">
        <ele>61.8</ele>
        <time>2023-04-28T12:02:04Z</time>
      </trkpt>
      <trkpt lat="49.26486" lon="-0.41529">
        <ele>61.8</ele>
        <time>2023-04-28T12:02:05Z</time>
      </trkpt>
      <trkpt lat="49.26484" lon="-0.41537">
        <ele>61.8</ele>
        <time>2023-04-28T12:02:06Z</time>
      </trkpt>
      <trkpt lat="49.26482" lon="-0.41546">
        <ele>61.8</ele>
        <time>2023-04-28T12:02:07Z</time>
      </trkpt>
      <trkpt lat="49.2648" lon="-0.41554">
        <ele>62</ele>
        <time>2023-04-28T12:02:08Z</time>
      </trkpt>
      <trkpt lat="49.26478" lon="-0.41563">
        <ele>62</ele>
        <time>2023-04-28T12:02:09Z</time>
      </trkpt>
      <trkpt lat="49.26476" lon="-0.41571">
        <ele>62</ele>
        <time>2023-04-28T12:02:10Z</time>
      </trkpt>
      <trkpt lat="49.26474" lon="-0.4158">
        <ele>62</ele>
        <time>2023-04-28T12:02:11Z</time>
      </trkpt>
      <trkpt lat="49.26473" lon="-0.41588">
        <ele>62</ele>
        <time>2023-04-28T12:02:12Z</time>
      </trkpt>
      <trkpt lat="49.26471" lon="-0.41597">
        <ele>61.6</ele>
        <time>2023-04-28T12:02:13Z</time>
      </trkpt>
      <trkpt lat="49.26469" lon="-0.41605">
        <ele>61.2</ele>
        <time>2023-04-28T12:02:14Z</time>
      </trkpt>
      <trkpt lat="49.26468" lon="-0.41614">
        <ele>61</ele>
        <time>2023-04-28T12:02:15Z</time>
      </trkpt>
      <trkpt lat="49.26466" lon="-0.41623">
        <ele>60.8</ele>
        <time>2023-04-28T12:02:16Z</time>
      </trkpt>
      <trkpt lat="49.26465" lon="-0.41631">
        <ele>60.6</ele>
        <time>2023-04-28T12:02:17Z</time>
      </trkpt>
      <trkpt lat="49.26463" lon="-0.4164">
        <ele>60.2</ele>
        <time>2023-04-28T12:02:18Z</time>
      </trkpt>
      <trkpt lat="49.26462" lon="-0.41648">
        <ele>60</ele>
        <time>2023-04-28T12:02:19Z</time>
      </trkpt>
      <trkpt lat="49.26461" lon="-0.41656">
        <ele>59.8</ele>
        <time>2023-04-28T12:02:20Z</time>
      </trkpt>
      <trkpt lat="49.2646" lon="-0.41665">
        <ele>59.6</ele>
        <time>2023-04-28T12:02:21Z</time>
      </trkpt>
      <trkpt lat="49.26459" lon="-0.41673">
        <ele>59.6</ele>
        <time>2023-04-28T12:02:22Z</time>
      </trkpt>
      <trkpt lat="49.26459" lon="-0.41682">
        <ele>59.4</ele>
        <time>2023-04-28T12:02:23Z</time>
      </trkpt>
      <trkpt lat="49.26459" lon="-0.4169">
        <ele>59.4</ele>
        <time>2023-04-28T12:02:24Z</time>
      </trkpt>
      <trkpt lat="49.26458" lon="-0.41699">
        <ele>59.2</ele>
        <time>2023-04-28T12:02:25Z</time>
      </trkpt>
      <trkpt lat="49.26458" lon="-0.41707">
        <ele>59.2</ele>
        <time>2023-04-28T12:02:26Z</time>
      </trkpt>
      <trkpt lat="49.26458" lon="-0.41716">
        <ele>59.2</ele>
        <time>2023-04-28T12:02:27Z</time>
      </trkpt>
      <trkpt lat="49.26458" lon="-0.41724">
        <ele>59.2</ele>
        <time>2023-04-28T12:02:28Z</time>
      </trkpt>
      <trkpt lat="49.26458" lon="-0.41732">
        <ele>59</ele>
        <time>2023-04-28T12:02:29Z</time>
      </trkpt>
      <trkpt lat="49.26459" lon="-0.41741">
        <ele>59</ele>
        <time>2023-04-28T12:02:30Z</time>
      </trkpt>
      <trkpt lat="49.26459" lon="-0.41749">
        <ele>59</ele>
        <time>2023-04-28T12:02:31Z</time>
      </trkpt>
      <trkpt lat="49.26459" lon="-0.41758">
        <ele>59</ele>
        <time>2023-04-28T12:02:32Z</time>
      </trkpt>
      <trkpt lat="49.2646" lon="-0.41766">
        <ele>59</ele>
        <time>2023-04-28T12:02:33Z</time>
      </trkpt>
      <trkpt lat="49.2646" lon="-0.41775">
        <ele>59</ele>
        <time>2023-04-28T12:02:34Z</time>
      </trkpt>
      <trkpt lat="49.26461" lon="-0.41783">
        <ele>59</ele>
        <time>2023-04-28T12:02:35Z</time>
      </trkpt>
      <trkpt lat="49.26461" lon="-0.41792">
        <ele>59</ele>
        <time>2023-04-28T12:02:36Z</time>
      </trkpt>
      <trkpt lat="49.26462" lon="-0.418">
        <ele>59</ele>
        <time>2023-04-28T12:02:37Z</time>
      </trkpt>
      <trkpt lat="49.26462" lon="-0.41809">
        <ele>59</ele>
        <time>2023-04-28T12:02:38Z</time>
      </trkpt>
      <trkpt lat="49.26463" lon="-0.41818">
        <ele>59</ele>
        <time>2023-04-28T12:02:39Z</time>
      </trkpt>
      <trkpt lat="49.26463" lon="-0.41827">
        <ele>59</ele>
        <time>2023-04-28T12:02:40Z</time>
      </trkpt>
      <trkpt lat="49.26464" lon="-0.41836">
        <ele>59</ele>
        <time>2023-04-28T12:02:41Z</time>
      </trkpt>
      <trkpt lat="49.26464" lon="-0.41845">
        <ele>59</ele>
        <time>2023-04-28T12:02:42Z</time>
      </trkpt>
      <trkpt lat="49.26465" lon="-0.41854">
        <ele>59</ele>
        <time>2023-04-28T12:02:43Z</time>
      </trkpt>
      <trkpt lat="49.26465" lon="-0.41863">
        <ele>58.8</ele>
        <time>2023-04-28T12:02:44Z</time>
      </trkpt>
      <trkpt lat="49.26466" lon="-0.41872">
        <ele>58.8</ele>
        <time>2023-04-28T12:02:45Z</time>
      </trkpt>
      <trkpt lat="49.26466" lon="-0.41882">
        <ele>58.8</ele>
        <time>2023-04-28T12:02:46Z</time>
      </trkpt>
      <trkpt lat="49.26467" lon="-0.41891">
        <ele>58.6</ele>
        <time>2023-04-28T12:02:47Z</time>
      </trkpt>
      <trkpt lat="49.26467" lon="-0.419">
        <ele>58.6</ele>
        <time>2023-04-28T12:02:48Z</time>
      </trkpt>
      <trkpt lat="49.26468" lon="-0.41909">
        <ele>58.4</ele>
        <time>2023-04-28T12:02:49Z</time>
      </trkpt>
      <trkpt lat="49.26468" lon="-0.41918">
        <ele>58.4</ele>
        <time>2023-04-28T12:02:50Z</time>
      </trkpt>
      <trkpt lat="49.26469" lon="-0.41927">
        <ele>58.2</ele>
        <time>2023-04-28T12:02:51Z</time>
      </trkpt>
      <trkpt lat="49.26469" lon="-0.41936">
        <ele>58.2</ele>
        <time>2023-04-28T12:02:52Z</time>
      </trkpt>
      <trkpt lat="49.2647" lon="-0.41945">
        <ele>58.2</ele>
        <time>2023-04-28T12:02:53Z</time>
      </trkpt>
      <trkpt lat="49.2647" lon="-0.41954">
        <ele>58.2</ele>
        <time>2023-04-28T12:02:54Z</time>
      </trkpt>
      <trkpt lat="49.26471" lon="-0.41963">
        <ele>58.2</ele>
        <time>2023-04-28T12:02:55Z</time>
      </trkpt>
      <trkpt lat="49.26471" lon="-0.41972">
        <ele>58</ele>
        <time>2023-04-28T12:02:56Z</time>
      </trkpt>
      <trkpt lat="49.26472" lon="-0.41981">
        <ele>58</ele>
        <time>2023-04-28T12:02:57Z</time>
      </trkpt>
      <trkpt lat="49.26472" lon="-0.4199">
        <ele>58</ele>
        <time>2023-04-28T12:02:58Z</time>
      </trkpt>
      <trkpt lat="49.26473" lon="-0.41999">
        <ele>58</ele>
        <time>2023-04-28T12:02:59Z</time>
      </trkpt>
      <trkpt lat="49.26473" lon="-0.42008">
        <ele>58</ele>
        <time>2023-04-28T12:03:00Z</time>
      </trkpt>
      <trkpt lat="49.26474" lon="-0.42017">
        <ele>58</ele>
        <time>2023-04-28T12:03:01Z</time>
      </trkpt>
      <trkpt lat="49.26474" lon="-0.42025">
        <ele>57.8</ele>
        <time>2023-04-28T12:03:02Z</time>
      </trkpt>
      <trkpt lat="49.26474" lon="-0.42034">
        <ele>57.8</ele>
        <time>2023-04-28T12:03:03Z</time>
      </trkpt>
      <trkpt lat="49.26475" lon="-0.42043">
        <ele>57.6</ele>
        <time>2023-04-28T12:03:04Z</time>
      </trkpt>
      <trkpt lat="49.26475" lon="-0.42052">
        <ele>57.6</ele>
        <time>2023-04-28T12:03:05Z</time>
      </trkpt>
      <trkpt lat="49.26475" lon="-0.42061">
        <ele>57.6</ele>
        <time>2023-04-28T12:03:06Z</time>
      </trkpt>
      <trkpt lat="49.26475" lon="-0.4207">
        <ele>57.4</ele>
        <time>2023-04-28T12:03:07Z</time>
      </trkpt>
      <trkpt lat="49.26475" lon="-0.42079">
        <ele>57.2</ele>
        <time>2023-04-28T12:03:08Z</time>
      </trkpt>
      <trkpt lat="49.26475" lon="-0.42087">
        <ele>57.2</ele>
        <time>2023-04-28T12:03:09Z</time>
      </trkpt>
      <trkpt lat="49.26475" lon="-0.42096">
        <ele>57.4</ele>
        <time>2023-04-28T12:03:10Z</time>
      </trkpt>
      <trkpt lat="49.26475" lon="-0.42104">
        <ele>57.6</ele>
        <time>2023-04-28T12:03:11Z</time>
      </trkpt>
      <trkpt lat="49.26475" lon="-0.42113">
        <ele>57.6</ele>
        <time>2023-04-28T12:03:12Z</time>
      </trkpt>
      <trkpt lat="49.26475" lon="-0.42121">
        <ele>57.6</ele>
        <time>2023-04-28T12:03:13Z</time>
      </trkpt>
      <trkpt lat="49.26475" lon="-0.42129">
        <ele>57.8</ele>
        <time>2023-04-28T12:03:14Z</time>
      </trkpt>
      <trkpt lat="49.26475" lon="-0.42137">
        <ele>57.8</ele>
        <time>2023-04-28T12:03:15Z</time>
      </trkpt>
      <trkpt lat="49.26475" lon="-0.42145">
        <ele>57.8</ele>
        <time>2023-04-28T12:03:16Z</time>
      </trkpt>
      <trkpt lat="49.26475" lon="-0.42153">
        <ele>58</ele>
        <time>2023-04-28T12:03:17Z</time>
      </trkpt>
      <trkpt lat="49.26476" lon="-0.42161">
        <ele>58</ele>
        <time>2023-04-28T12:03:18Z</time>
      </trkpt>
      <trkpt lat="49.26476" lon="-0.42169">
        <ele>58</ele>
        <time>2023-04-28T12:03:19Z</time>
      </trkpt>
      <trkpt lat="49.26476" lon="-0.42177">
        <ele>57.8</ele>
        <time>2023-04-28T12:03:20Z</time>
      </trkpt>
      <trkpt lat="49.26476" lon="-0.42185">
        <ele>57.6</ele>
        <time>2023-04-28T12:03:21Z</time>
      </trkpt>
      <trkpt lat="49.26476" lon="-0.42193">
        <ele>57.6</ele>
        <time>2023-04-28T12:03:22Z</time>
      </trkpt>
      <trkpt lat="49.26477" lon="-0.42201">
        <ele>57.2</ele>
        <time>2023-04-28T12:03:23Z</time>
      </trkpt>
      <trkpt lat="49.26477" lon="-0.42209">
        <ele>57</ele>
        <time>2023-04-28T12:03:24Z</time>
      </trkpt>
      <trkpt lat="49.26477" lon="-0.42217">
        <ele>57</ele>
        <time>2023-04-28T12:03:25Z</time>
      </trkpt>
      <trkpt lat="49.26477" lon="-0.42225">
        <ele>56.8</ele>
        <time>2023-04-28T12:03:26Z</time>
      </trkpt>
      <trkpt lat="49.26477" lon="-0.42233">
        <ele>56.6</ele>
        <time>2023-04-28T12:03:27Z</time>
      </trkpt>
      <trkpt lat="49.26477" lon="-0.42241">
        <ele>56.6</ele>
        <time>2023-04-28T12:03:28Z</time>
      </trkpt>
      <trkpt lat="49.26477" lon="-0.42249">
        <ele>56.2</ele>
        <time>2023-04-28T12:03:29Z</time>
      </trkpt>
      <trkpt lat="49.26476" lon="-0.42257">
        <ele>56.2</ele>
        <time>2023-04-28T12:03:30Z</time>
      </trkpt>
      <trkpt lat="49.26476" lon="-0.42265">
        <ele>56.2</ele>
        <time>2023-04-28T12:03:31Z</time>
      </trkpt>
      <trkpt lat="49.26476" lon="-0.42273">
        <ele>56</ele>
        <time>2023-04-28T12:03:32Z</time>
      </trkpt>
      <trkpt lat="49.26476" lon="-0.42281">
        <ele>56</ele>
        <time>2023-04-28T12:03:33Z</time>
      </trkpt>
      <trkpt lat="49.26476" lon="-0.42289">
        <ele>56</ele>
        <time>2023-04-28T12:03:34Z</time>
      </trkpt>
      <trkpt lat="49.26476" lon="-0.42298">
        <ele>56</ele>
        <time>2023-04-28T12:03:35Z</time>
      </trkpt>
      <trkpt lat="49.26476" lon="-0.42306">
        <ele>56</ele>
        <time>2023-04-28T12:03:36Z</time>
      </trkpt>
      <trkpt lat="49.26476" lon="-0.42314">
        <ele>55.8</ele>
        <time>2023-04-28T12:03:37Z</time>
      </trkpt>
      <trkpt lat="49.26476" lon="-0.42323">
        <ele>55.8</ele>
        <time>2023-04-28T12:03:38Z</time>
      </trkpt>
      <trkpt lat="49.26476" lon="-0.42331">
        <ele>55.8</ele>
        <time>2023-04-28T12:03:39Z</time>
      </trkpt>
      <trkpt lat="49.26477" lon="-0.4234">
        <ele>55.8</ele>
        <time>2023-04-28T12:03:40Z</time>
      </trkpt>
      <trkpt lat="49.26477" lon="-0.42348">
        <ele>55.6</ele>
        <time>2023-04-28T12:03:41Z</time>
      </trkpt>
      <trkpt lat="49.26478" lon="-0.42357">
        <ele>55.6</ele>
        <time>2023-04-28T12:03:42Z</time>
      </trkpt>
      <trkpt lat="49.26479" lon="-0.42365">
        <ele>55.6</ele>
        <time>2023-04-28T12:03:43Z</time>
      </trkpt>
      <trkpt lat="49.2648" lon="-0.42374">
        <ele>55.4</ele>
        <time>2023-04-28T12:03:44Z</time>
      </trkpt>
      <trkpt lat="49.26481" lon="-0.42383">
        <ele>55.2</ele>
        <time>2023-04-28T12:03:45Z</time>
      </trkpt>
      <trkpt lat="49.26482" lon="-0.42392">
        <ele>55.2</ele>
        <time>2023-04-28T12:03:46Z</time>
      </trkpt>
      <trkpt lat="49.26484" lon="-0.42401">
        <ele>55.2</ele>
        <time>2023-04-28T12:03:47Z</time>
      </trkpt>
      <trkpt lat="49.26485" lon="-0.4241">
        <ele>55</ele>
        <time>2023-04-28T12:03:48Z</time>
      </trkpt>
      <trkpt lat="49.26487" lon="-0.42419">
        <ele>55</ele>
        <time>2023-04-28T12:03:49Z</time>
      </trkpt>
      <trkpt lat="49.26489" lon="-0.42429">
        <ele>55</ele>
        <time>2023-04-28T12:03:50Z</time>
      </trkpt>
      <trkpt lat="49.2649" lon="-0.42438">
        <ele>55.2</ele>
        <time>2023-04-28T12:03:51Z</time>
      </trkpt>
      <trkpt lat="49.26492" lon="-0.42447">
        <ele>55.2</ele>
        <time>2023-04-28T12:03:52Z</time>
      </trkpt>
      <trkpt lat="49.26493" lon="-0.42457">
        <ele>55.4</ele>
        <time>2023-04-28T12:03:53Z</time>
      </trkpt>
      <trkpt lat="49.26495" lon="-0.42467">
        <ele>55.6</ele>
        <time>2023-04-28T12:03:54Z</time>
      </trkpt>
      <trkpt lat="49.26497" lon="-0.42477">
        <ele>55.8</ele>
        <time>2023-04-28T12:03:55Z</time>
      </trkpt>
      <trkpt lat="49.26498" lon="-0.42486">
        <ele>55.8</ele>
        <time>2023-04-28T12:03:56Z</time>
      </trkpt>
      <trkpt lat="49.265" lon="-0.42496">
        <ele>56</ele>
        <time>2023-04-28T12:03:57Z</time>
      </trkpt>
      <trkpt lat="49.26502" lon="-0.42506">
        <ele>56</ele>
        <time>2023-04-28T12:03:58Z</time>
      </trkpt>
      <trkpt lat="49.26503" lon="-0.42516">
        <ele>55.8</ele>
        <time>2023-04-28T12:03:59Z</time>
      </trkpt>
      <trkpt lat="49.26505" lon="-0.42526">
        <ele>55.8</ele>
        <time>2023-04-28T12:04:00Z</time>
      </trkpt>
      <trkpt lat="49.26506" lon="-0.42535">
        <ele>55.6</ele>
        <time>2023-04-28T12:04:01Z</time>
      </trkpt>
      <trkpt lat="49.26508" lon="-0.42545">
        <ele>55.6</ele>
        <time>2023-04-28T12:04:02Z</time>
      </trkpt>
      <trkpt lat="49.26509" lon="-0.42555">
        <ele>55.4</ele>
        <time>2023-04-28T12:04:03Z</time>
      </trkpt>
      <trkpt lat="49.26511" lon="-0.42565">
        <ele>55.2</ele>
        <time>2023-04-28T12:04:04Z</time>
      </trkpt>
      <trkpt lat="49.26512" lon="-0.42575">
        <ele>55.2</ele>
        <time>2023-04-28T12:04:05Z</time>
      </trkpt>
      <trkpt lat="49.26513" lon="-0.42585">
        <ele>55</ele>
        <time>2023-04-28T12:04:06Z</time>
      </trkpt>
      <trkpt lat="49.26514" lon="-0.42595">
        <ele>55</ele>
        <time>2023-04-28T12:04:07Z</time>
      </trkpt>
      <trkpt lat="49.26515" lon="-0.42605">
        <ele>55</ele>
        <time>2023-04-28T12:04:08Z</time>
      </trkpt>
      <trkpt lat="49.26516" lon="-0.42615">
        <ele>54.8</ele>
        <time>2023-04-28T12:04:09Z</time>
      </trkpt>
      <trkpt lat="49.26517" lon="-0.42625">
        <ele>54.6</ele>
        <time>2023-04-28T12:04:10Z</time>
      </trkpt>
      <trkpt lat="49.26518" lon="-0.42636">
        <ele>54.6</ele>
        <time>2023-04-28T12:04:11Z</time>
      </trkpt>
      <trkpt lat="49.26519" lon="-0.42646">
        <ele>54.2</ele>
        <time>2023-04-28T12:04:12Z</time>
      </trkpt>
      <trkpt lat="49.2652" lon="-0.42657">
        <ele>54</ele>
        <time>2023-04-28T12:04:13Z</time>
      </trkpt>
      <trkpt lat="49.26521" lon="-0.42668">
        <ele>54</ele>
        <time>2023-04-28T12:04:14Z</time>
      </trkpt>
      <trkpt lat="49.26521" lon="-0.42679">
        <ele>54</ele>
        <time>2023-04-28T12:04:15Z</time>
      </trkpt>
      <trkpt lat="49.26522" lon="-0.4269">
        <ele>53.8</ele>
        <time>2023-04-28T12:04:16Z</time>
      </trkpt>
      <trkpt lat="49.26523" lon="-0.427">
        <ele>53.6</ele>
        <time>2023-04-28T12:04:17Z</time>
      </trkpt>
      <trkpt lat="49.26524" lon="-0.42711">
        <ele>53.6</ele>
        <time>2023-04-28T12:04:18Z</time>
      </trkpt>
      <trkpt lat="49.26525" lon="-0.42722">
        <ele>53.2</ele>
        <time>2023-04-28T12:04:19Z</time>
      </trkpt>
      <trkpt lat="49.26526" lon="-0.42733">
        <ele>53.2</ele>
        <time>2023-04-28T12:04:20Z</time>
      </trkpt>
      <trkpt lat="49.26526" lon="-0.42744">
        <ele>53</ele>
        <time>2023-04-28T12:04:21Z</time>
      </trkpt>
      <trkpt lat="49.26527" lon="-0.42755">
        <ele>53</ele>
        <time>2023-04-28T12:04:22Z</time>
      </trkpt>
      <trkpt lat="49.26528" lon="-0.42766">
        <ele>53</ele>
        <time>2023-04-28T12:04:23Z</time>
      </trkpt>
      <trkpt lat="49.26528" lon="-0.42778">
        <ele>53</ele>
        <time>2023-04-28T12:04:24Z</time>
      </trkpt>
      <trkpt lat="49.26529" lon="-0.42789">
        <ele>53.2</ele>
        <time>2023-04-28T12:04:25Z</time>
      </trkpt>
      <trkpt lat="49.26529" lon="-0.428">
        <ele>53.2</ele>
        <time>2023-04-28T12:04:26Z</time>
      </trkpt>
      <trkpt lat="49.2653" lon="-0.42812">
        <ele>53.2</ele>
        <time>2023-04-28T12:04:27Z</time>
      </trkpt>
      <trkpt lat="49.2653" lon="-0.42823">
        <ele>53.2</ele>
        <time>2023-04-28T12:04:28Z</time>
      </trkpt>
      <trkpt lat="49.26531" lon="-0.42834">
        <ele>53.4</ele>
        <time>2023-04-28T12:04:29Z</time>
      </trkpt>
      <trkpt lat="49.26531" lon="-0.42845">
        <ele>53</ele>
        <time>2023-04-28T12:04:30Z</time>
      </trkpt>
      <trkpt lat="49.26532" lon="-0.42856">
        <ele>53</ele>
        <time>2023-04-28T12:04:31Z</time>
      </trkpt>
      <trkpt lat="49.26532" lon="-0.42867">
        <ele>52.8</ele>
        <time>2023-04-28T12:04:32Z</time>
      </trkpt>
      <trkpt lat="49.26532" lon="-0.42879">
        <ele>52.6</ele>
        <time>2023-04-28T12:04:33Z</time>
      </trkpt>
      <trkpt lat="49.26533" lon="-0.4289">
        <ele>52.2</ele>
        <time>2023-04-28T12:04:34Z</time>
      </trkpt>
      <trkpt lat="49.26533" lon="-0.42901">
        <ele>52</ele>
        <time>2023-04-28T12:04:35Z</time>
      </trkpt>
      <trkpt lat="49.26534" lon="-0.42913">
        <ele>52</ele>
        <time>2023-04-28T12:04:36Z</time>
      </trkpt>
      <trkpt lat="49.26534" lon="-0.42924">
        <ele>51.8</ele>
        <time>2023-04-28T12:04:37Z</time>
      </trkpt>
      <trkpt lat="49.26534" lon="-0.42936">
        <ele>51.6</ele>
        <time>2023-04-28T12:04:38Z</time>
      </trkpt>
      <trkpt lat="49.26535" lon="-0.42947">
        <ele>51.4</ele>
        <time>2023-04-28T12:04:39Z</time>
      </trkpt>
      <trkpt lat="49.26535" lon="-0.42959">
        <ele>51.2</ele>
        <time>2023-04-28T12:04:40Z</time>
      </trkpt>
      <trkpt lat="49.26535" lon="-0.4297">
        <ele>51</ele>
        <time>2023-04-28T12:04:41Z</time>
      </trkpt>
      <trkpt lat="49.26536" lon="-0.42982">
        <ele>51</ele>
        <time>2023-04-28T12:04:42Z</time>
      </trkpt>
      <trkpt lat="49.26536" lon="-0.42993">
        <ele>50.8</ele>
        <time>2023-04-28T12:04:43Z</time>
      </trkpt>
      <trkpt lat="49.26536" lon="-0.43005">
        <ele>50.6</ele>
        <time>2023-04-28T12:04:44Z</time>
      </trkpt>
      <trkpt lat="49.26536" lon="-0.43016">
        <ele>50.2</ele>
        <time>2023-04-28T12:04:45Z</time>
      </trkpt>
      <trkpt lat="49.26536" lon="-0.43028">
        <ele>50</ele>
        <time>2023-04-28T12:04:46Z</time>
      </trkpt>
      <trkpt lat="49.26536" lon="-0.43039">
        <ele>49.8</ele>
        <time>2023-04-28T12:04:47Z</time>
      </trkpt>
      <trkpt lat="49.26536" lon="-0.43051">
        <ele>49.6</ele>
        <time>2023-04-28T12:04:48Z</time>
      </trkpt>
      <trkpt lat="49.26536" lon="-0.43062">
        <ele>49.4</ele>
        <time>2023-04-28T12:04:49Z</time>
      </trkpt>
      <trkpt lat="49.26536" lon="-0.43073">
        <ele>49.2</ele>
        <time>2023-04-28T12:04:50Z</time>
      </trkpt>
      <trkpt lat="49.26536" lon="-0.43085">
        <ele>49</ele>
        <time>2023-04-28T12:04:51Z</time>
      </trkpt>
      <trkpt lat="49.26536" lon="-0.43096">
        <ele>49</ele>
        <time>2023-04-28T12:04:52Z</time>
      </trkpt>
      <trkpt lat="49.26536" lon="-0.43107">
        <ele>49</ele>
        <time>2023-04-28T12:04:53Z</time>
      </trkpt>
      <trkpt lat="49.26535" lon="-0.43118">
        <ele>49.2</ele>
        <time>2023-04-28T12:04:54Z</time>
      </trkpt>
      <trkpt lat="49.26535" lon="-0.4313">
        <ele>49.2</ele>
        <time>2023-04-28T12:04:55Z</time>
      </trkpt>
      <trkpt lat="49.26535" lon="-0.43141">
        <ele>49.2</ele>
        <time>2023-04-28T12:04:56Z</time>
      </trkpt>
      <trkpt lat="49.26534" lon="-0.43152">
        <ele>49.2</ele>
        <time>2023-04-28T12:04:57Z</time>
      </trkpt>
      <trkpt lat="49.26534" lon="-0.43164">
        <ele>49.4</ele>
        <time>2023-04-28T12:04:58Z</time>
      </trkpt>
      <trkpt lat="49.26534" lon="-0.43175">
        <ele>49.2</ele>
        <time>2023-04-28T12:04:59Z</time>
      </trkpt>
      <trkpt lat="49.26533" lon="-0.43187">
        <ele>49</ele>
        <time>2023-04-28T12:05:00Z</time>
      </trkpt>
      <trkpt lat="49.26533" lon="-0.43198">
        <ele>49</ele>
        <time>2023-04-28T12:05:01Z</time>
      </trkpt>
      <trkpt lat="49.26533" lon="-0.4321">
        <ele>48.8</ele>
        <time>2023-04-28T12:05:02Z</time>
      </trkpt>
      <trkpt lat="49.26533" lon="-0.43221">
        <ele>48.6</ele>
        <time>2023-04-28T12:05:03Z</time>
      </trkpt>
      <trkpt lat="49.26532" lon="-0.43233">
        <ele>48.2</ele>
        <time>2023-04-28T12:05:04Z</time>
      </trkpt>
      <trkpt lat="49.26532" lon="-0.43245">
        <ele>48</ele>
        <time>2023-04-28T12:05:05Z</time>
      </trkpt>
      <trkpt lat="49.26533" lon="-0.43256">
        <ele>48</ele>
        <time>2023-04-28T12:05:06Z</time>
      </trkpt>
      <trkpt lat="49.26533" lon="-0.43268">
        <ele>47.8</ele>
        <time>2023-04-28T12:05:07Z</time>
      </trkpt>
      <trkpt lat="49.26534" lon="-0.4328">
        <ele>47.6</ele>
        <time>2023-04-28T12:05:08Z</time>
      </trkpt>
      <trkpt lat="49.26534" lon="-0.43291">
        <ele>47.6</ele>
        <time>2023-04-28T12:05:09Z</time>
      </trkpt>
      <trkpt lat="49.26536" lon="-0.43303">
        <ele>47.4</ele>
        <time>2023-04-28T12:05:10Z</time>
      </trkpt>
      <trkpt lat="49.26537" lon="-0.43314">
        <ele>47.2</ele>
        <time>2023-04-28T12:05:11Z</time>
      </trkpt>
      <trkpt lat="49.2654" lon="-0.43326">
        <ele>47</ele>
        <time>2023-04-28T12:05:12Z</time>
      </trkpt>
      <trkpt lat="49.26542" lon="-0.43337">
        <ele>47</ele>
        <time>2023-04-28T12:05:13Z</time>
      </trkpt>
      <trkpt lat="49.26546" lon="-0.43347">
        <ele>46.8</ele>
        <time>2023-04-28T12:05:14Z</time>
      </trkpt>
      <trkpt lat="49.2655" lon="-0.43358">
        <ele>46.8</ele>
        <time>2023-04-28T12:05:15Z</time>
      </trkpt>
      <trkpt lat="49.26554" lon="-0.43367">
        <ele>46.6</ele>
        <time>2023-04-28T12:05:16Z</time>
      </trkpt>
      <trkpt lat="49.26559" lon="-0.43377">
        <ele>46.6</ele>
        <time>2023-04-28T12:05:17Z</time>
      </trkpt>
      <trkpt lat="49.26564" lon="-0.43386">
        <ele>46.4</ele>
        <time>2023-04-28T12:05:18Z</time>
      </trkpt>
      <trkpt lat="49.2657" lon="-0.43393">
        <ele>46.2</ele>
        <time>2023-04-28T12:05:19Z</time>
      </trkpt>
      <trkpt lat="49.26576" lon="-0.43401">
        <ele>46.2</ele>
        <time>2023-04-28T12:05:20Z</time>
      </trkpt>
      <trkpt lat="49.26583" lon="-0.43408">
        <ele>46</ele>
        <time>2023-04-28T12:05:21Z</time>
      </trkpt>
      <trkpt lat="49.26589" lon="-0.43415">
        <ele>46</ele>
        <time>2023-04-28T12:05:22Z</time>
      </trkpt>
      <trkpt lat="49.26596" lon="-0.43421">
        <ele>46</ele>
        <time>2023-04-28T12:05:23Z</time>
      </trkpt>
      <trkpt lat="49.26602" lon="-0.43428">
        <ele>46</ele>
        <time>2023-04-28T12:05:24Z</time>
      </trkpt>
      <trkpt lat="49.26609" lon="-0.43434">
        <ele>45.8</ele>
        <time>2023-04-28T12:05:25Z</time>
      </trkpt>
      <trkpt lat="49.26615" lon="-0.4344">
        <ele>45.8</ele>
        <time>2023-04-28T12:05:26Z</time>
      </trkpt>
      <trkpt lat="49.26621" lon="-0.43446">
        <ele>45.6</ele>
        <time>2023-04-28T12:05:27Z</time>
      </trkpt>
      <trkpt lat="49.26627" lon="-0.43452">
        <ele>45.6</ele>
        <time>2023-04-28T12:05:28Z</time>
      </trkpt>
      <trkpt lat="49.26634" lon="-0.43458">
        <ele>45.6</ele>
        <time>2023-04-28T12:05:29Z</time>
      </trkpt>
      <trkpt lat="49.2664" lon="-0.43464">
        <ele>45.4</ele>
        <time>2023-04-28T12:05:30Z</time>
      </trkpt>
      <trkpt lat="49.26646" lon="-0.4347">
        <ele>45.4</ele>
        <time>2023-04-28T12:05:31Z</time>
      </trkpt>
      <trkpt lat="49.26653" lon="-0.43476">
        <ele>45.2</ele>
        <time>2023-04-28T12:05:32Z</time>
      </trkpt>
      <trkpt lat="49.26659" lon="-0.43483">
        <ele>45.2</ele>
        <time>2023-04-28T12:05:33Z</time>
      </trkpt>
      <trkpt lat="49.26665" lon="-0.43489">
        <ele>45</ele>
        <time>2023-04-28T12:05:34Z</time>
      </trkpt>
      <trkpt lat="49.26672" lon="-0.43495">
        <ele>45</ele>
        <time>2023-04-28T12:05:35Z</time>
      </trkpt>
      <trkpt lat="49.26678" lon="-0.43501">
        <ele>44.8</ele>
        <time>2023-04-28T12:05:36Z</time>
      </trkpt>
      <trkpt lat="49.26684" lon="-0.43507">
        <ele>44.6</ele>
        <time>2023-04-28T12:05:37Z</time>
      </trkpt>
      <trkpt lat="49.26691" lon="-0.43514">
        <ele>44.4</ele>
        <time>2023-04-28T12:05:38Z</time>
      </trkpt>
      <trkpt lat="49.26697" lon="-0.43521">
        <ele>44.2</ele>
        <time>2023-04-28T12:05:39Z</time>
      </trkpt>
      <trkpt lat="49.26703" lon="-0.43527">
        <ele>44</ele>
        <time>2023-04-28T12:05:40Z</time>
      </trkpt>
      <trkpt lat="49.26709" lon="-0.43533">
        <ele>44</ele>
        <time>2023-04-28T12:05:41Z</time>
      </trkpt>
      <trkpt lat="49.26716" lon="-0.43539">
        <ele>43.8</ele>
        <time>2023-04-28T12:05:42Z</time>
      </trkpt>
      <trkpt lat="49.26722" lon="-0.43545">
        <ele>43.6</ele>
        <time>2023-04-28T12:05:43Z</time>
      </trkpt>
      <trkpt lat="49.26729" lon="-0.43551">
        <ele>43.6</ele>
        <time>2023-04-28T12:05:44Z</time>
      </trkpt>
      <trkpt lat="49.26736" lon="-0.43557">
        <ele>43.4</ele>
        <time>2023-04-28T12:05:45Z</time>
      </trkpt>
      <trkpt lat="49.26743" lon="-0.43564">
        <ele>43.2</ele>
        <time>2023-04-28T12:05:46Z</time>
      </trkpt>
      <trkpt lat="49.26749" lon="-0.4357">
        <ele>43.2</ele>
        <time>2023-04-28T12:05:47Z</time>
      </trkpt>
      <trkpt lat="49.26756" lon="-0.43576">
        <ele>43</ele>
        <time>2023-04-28T12:05:48Z</time>
      </trkpt>
      <trkpt lat="49.26763" lon="-0.43583">
        <ele>43</ele>
        <time>2023-04-28T12:05:49Z</time>
      </trkpt>
      <trkpt lat="49.26769" lon="-0.43589">
        <ele>42.8</ele>
        <time>2023-04-28T12:05:50Z</time>
      </trkpt>
      <trkpt lat="49.26776" lon="-0.43596">
        <ele>42.8</ele>
        <time>2023-04-28T12:05:51Z</time>
      </trkpt>
      <trkpt lat="49.26782" lon="-0.43602">
        <ele>42.6</ele>
        <time>2023-04-28T12:05:52Z</time>
      </trkpt>
      <trkpt lat="49.26788" lon="-0.43608">
        <ele>42.2</ele>
        <time>2023-04-28T12:05:53Z</time>
      </trkpt>
      <trkpt lat="49.26795" lon="-0.43615">
        <ele>42</ele>
        <time>2023-04-28T12:05:54Z</time>
      </trkpt>
      <trkpt lat="49.26801" lon="-0.43621">
        <ele>41.8</ele>
        <time>2023-04-28T12:05:55Z</time>
      </trkpt>
      <trkpt lat="49.26808" lon="-0.43627">
        <ele>41.6</ele>
        <time>2023-04-28T12:05:56Z</time>
      </trkpt>
      <trkpt lat="49.26815" lon="-0.43634">
        <ele>41.2</ele>
        <time>2023-04-28T12:05:57Z</time>
      </trkpt>
      <trkpt lat="49.26821" lon="-0.4364">
        <ele>41</ele>
        <time>2023-04-28T12:05:58Z</time>
      </trkpt>
      <trkpt lat="49.26828" lon="-0.43647">
        <ele>40.8</ele>
        <time>2023-04-28T12:05:59Z</time>
      </trkpt>
      <trkpt lat="49.26834" lon="-0.43653">
        <ele>40.6</ele>
        <time>2023-04-28T12:06:00Z</time>
      </trkpt>
      <trkpt lat="49.2684" lon="-0.43659">
        <ele>40.2</ele>
        <time>2023-04-28T12:06:01Z</time>
      </trkpt>
      <trkpt lat="49.26845" lon="-0.43664">
        <ele>40</ele>
        <time>2023-04-28T12:06:02Z</time>
      </trkpt>
      <trkpt lat="49.2685" lon="-0.43668">
        <ele>40</ele>
        <time>2023-04-28T12:06:03Z</time>
      </trkpt>
      <trkpt lat="49.26853" lon="-0.43672">
        <ele>40</ele>
        <time>2023-04-28T12:06:04Z</time>
      </trkpt>
      <trkpt lat="49.26856" lon="-0.43675">
        <ele>39.8</ele>
        <time>2023-04-28T12:06:05Z</time>
      </trkpt>
      <trkpt lat="49.26859" lon="-0.43678">
        <ele>39.8</ele>
        <time>2023-04-28T12:06:06Z</time>
      </trkpt>
      <trkpt lat="49.26863" lon="-0.43681">
        <ele>39.6</ele>
        <time>2023-04-28T12:06:07Z</time>
      </trkpt>
      <trkpt lat="49.26866" lon="-0.43685">
        <ele>39.6</ele>
        <time>2023-04-28T12:06:08Z</time>
      </trkpt>
      <trkpt lat="49.2687" lon="-0.43691">
        <ele>39.2</ele>
        <time>2023-04-28T12:06:09Z</time>
      </trkpt>
      <trkpt lat="49.26875" lon="-0.43697">
        <ele>39</ele>
        <time>2023-04-28T12:06:10Z</time>
      </trkpt>
      <trkpt lat="49.2688" lon="-0.43704">
        <ele>39</ele>
        <time>2023-04-28T12:06:11Z</time>
      </trkpt>
      <trkpt lat="49.26885" lon="-0.43711">
        <ele>38.6</ele>
        <time>2023-04-28T12:06:12Z</time>
      </trkpt>
      <trkpt lat="49.26891" lon="-0.43718">
        <ele>38.2</ele>
        <time>2023-04-28T12:06:13Z</time>
      </trkpt>
      <trkpt lat="49.26896" lon="-0.43726">
        <ele>38</ele>
        <time>2023-04-28T12:06:14Z</time>
      </trkpt>
      <trkpt lat="49.26902" lon="-0.43734">
        <ele>37.8</ele>
        <time>2023-04-28T12:06:15Z</time>
      </trkpt>
      <trkpt lat="49.26907" lon="-0.43743">
        <ele>37.2</ele>
        <time>2023-04-28T12:06:16Z</time>
      </trkpt>
      <trkpt lat="49.26912" lon="-0.43753">
        <ele>37</ele>
        <time>2023-04-28T12:06:17Z</time>
      </trkpt>
      <trkpt lat="49.26917" lon="-0.43764">
        <ele>37</ele>
        <time>2023-04-28T12:06:18Z</time>
      </trkpt>
      <trkpt lat="49.26922" lon="-0.43776">
        <ele>37</ele>
        <time>2023-04-28T12:06:19Z</time>
      </trkpt>
      <trkpt lat="49.26927" lon="-0.43788">
        <ele>37</ele>
        <time>2023-04-28T12:06:20Z</time>
      </trkpt>
      <trkpt lat="49.26932" lon="-0.438">
        <ele>37</ele>
        <time>2023-04-28T12:06:21Z</time>
      </trkpt>
      <trkpt lat="49.26938" lon="-0.43813">
        <ele>37</ele>
        <time>2023-04-28T12:06:22Z</time>
      </trkpt>
      <trkpt lat="49.26945" lon="-0.43824">
        <ele>36.8</ele>
        <time>2023-04-28T12:06:23Z</time>
      </trkpt>
      <trkpt lat="49.26953" lon="-0.43835">
        <ele>36.6</ele>
        <time>2023-04-28T12:06:24Z</time>
      </trkpt>
      <trkpt lat="49.26961" lon="-0.43845">
        <ele>36.6</ele>
        <time>2023-04-28T12:06:25Z</time>
      </trkpt>
      <trkpt lat="49.2697" lon="-0.43856">
        <ele>36.2</ele>
        <time>2023-04-28T12:06:26Z</time>
      </trkpt>
      <trkpt lat="49.26979" lon="-0.43866">
        <ele>36</ele>
        <time>2023-04-28T12:06:27Z</time>
      </trkpt>
      <trkpt lat="49.26988" lon="-0.43876">
        <ele>35.8</ele>
        <time>2023-04-28T12:06:28Z</time>
      </trkpt>
      <trkpt lat="49.26997" lon="-0.43887">
        <ele>35.4</ele>
        <time>2023-04-28T12:06:29Z</time>
      </trkpt>
      <trkpt lat="49.27006" lon="-0.43897">
        <ele>35.2</ele>
        <time>2023-04-28T12:06:30Z</time>
      </trkpt>
      <trkpt lat="49.27016" lon="-0.43907">
        <ele>35.2</ele>
        <time>2023-04-28T12:06:31Z</time>
      </trkpt>
      <trkpt lat="49.27025" lon="-0.43918">
        <ele>35.2</ele>
        <time>2023-04-28T12:06:32Z</time>
      </trkpt>
      <trkpt lat="49.27034" lon="-0.43928">
        <ele>35.4</ele>
        <time>2023-04-28T12:06:33Z</time>
      </trkpt>
      <trkpt lat="49.27044" lon="-0.43938">
        <ele>35.4</ele>
        <time>2023-04-28T12:06:34Z</time>
      </trkpt>
      <trkpt lat="49.27053" lon="-0.43948">
        <ele>35.2</ele>
        <time>2023-04-28T12:06:35Z</time>
      </trkpt>
      <trkpt lat="49.27062" lon="-0.43958">
        <ele>35</ele>
        <time>2023-04-28T12:06:36Z</time>
      </trkpt>
      <trkpt lat="49.27071" lon="-0.43967">
        <ele>34.6</ele>
        <time>2023-04-28T12:06:37Z</time>
      </trkpt>
      <trkpt lat="49.2708" lon="-0.43977">
        <ele>34</ele>
        <time>2023-04-28T12:06:38Z</time>
      </trkpt>
      <trkpt lat="49.27089" lon="-0.43986">
        <ele>33</ele>
        <time>2023-04-28T12:06:39Z</time>
      </trkpt>
      <trkpt lat="49.27097" lon="-0.43995">
        <ele>32</ele>
        <time>2023-04-28T12:06:40Z</time>
      </trkpt>
      <trkpt lat="49.27105" lon="-0.44003">
        <ele>31.2</ele>
        <time>2023-04-28T12:06:41Z</time>
      </trkpt>
      <trkpt lat="49.27113" lon="-0.44012">
        <ele>30.6</ele>
        <time>2023-04-28T12:06:42Z</time>
      </trkpt>
      <trkpt lat="49.2712" lon="-0.44022">
        <ele>30</ele>
        <time>2023-04-28T12:06:43Z</time>
      </trkpt>
      <trkpt lat="49.27128" lon="-0.44032">
        <ele>29.6</ele>
        <time>2023-04-28T12:06:44Z</time>
      </trkpt>
      <trkpt lat="49.27136" lon="-0.44042">
        <ele>28.8</ele>
        <time>2023-04-28T12:06:45Z</time>
      </trkpt>
      <trkpt lat="49.27144" lon="-0.44053">
        <ele>28.4</ele>
        <time>2023-04-28T12:06:46Z</time>
      </trkpt>
      <trkpt lat="49.27151" lon="-0.44066">
        <ele>28</ele>
        <time>2023-04-28T12:06:47Z</time>
      </trkpt>
      <trkpt lat="49.27157" lon="-0.44079">
        <ele>27.8</ele>
        <time>2023-04-28T12:06:48Z</time>
      </trkpt>
      <trkpt lat="49.27161" lon="-0.44093">
        <ele>27.4</ele>
        <time>2023-04-28T12:06:49Z</time>
      </trkpt>
      <trkpt lat="49.27165" lon="-0.44107">
        <ele>27.2</ele>
        <time>2023-04-28T12:06:50Z</time>
      </trkpt>
      <trkpt lat="49.27168" lon="-0.44121">
        <ele>27.2</ele>
        <time>2023-04-28T12:06:51Z</time>
      </trkpt>
      <trkpt lat="49.2717" lon="-0.44135">
        <ele>27.6</ele>
        <time>2023-04-28T12:06:52Z</time>
      </trkpt>
      <trkpt lat="49.27172" lon="-0.44149">
        <ele>27.8</ele>
        <time>2023-04-28T12:06:53Z</time>
      </trkpt>
      <trkpt lat="49.27173" lon="-0.44162">
        <ele>28</ele>
        <time>2023-04-28T12:06:54Z</time>
      </trkpt>
      <trkpt lat="49.27175" lon="-0.44176">
        <ele>28</ele>
        <time>2023-04-28T12:06:55Z</time>
      </trkpt>
      <trkpt lat="49.27176" lon="-0.44189">
        <ele>27.8</ele>
        <time>2023-04-28T12:06:56Z</time>
      </trkpt>
      <trkpt lat="49.27178" lon="-0.44202">
        <ele>27.8</ele>
        <time>2023-04-28T12:06:57Z</time>
      </trkpt>
      <trkpt lat="49.27179" lon="-0.44215">
        <ele>27.6</ele>
        <time>2023-04-28T12:06:58Z</time>
      </trkpt>
      <trkpt lat="49.27181" lon="-0.44228">
        <ele>27.6</ele>
        <time>2023-04-28T12:06:59Z</time>
      </trkpt>
      <trkpt lat="49.27182" lon="-0.44241">
        <ele>27.4</ele>
        <time>2023-04-28T12:07:00Z</time>
      </trkpt>
      <trkpt lat="49.27183" lon="-0.44255">
        <ele>27.2</ele>
        <time>2023-04-28T12:07:01Z</time>
      </trkpt>
      <trkpt lat="49.27185" lon="-0.44268">
        <ele>26.8</ele>
        <time>2023-04-28T12:07:02Z</time>
      </trkpt>
      <trkpt lat="49.27187" lon="-0.44282">
        <ele>26.6</ele>
        <time>2023-04-28T12:07:03Z</time>
      </trkpt>
      <trkpt lat="49.2719" lon="-0.44295">
        <ele>26.4</ele>
        <time>2023-04-28T12:07:04Z</time>
      </trkpt>
      <trkpt lat="49.27193" lon="-0.44307">
        <ele>26.2</ele>
        <time>2023-04-28T12:07:05Z</time>
      </trkpt>
      <trkpt lat="49.27198" lon="-0.44319">
        <ele>26.4</ele>
        <time>2023-04-28T12:07:06Z</time>
      </trkpt>
      <trkpt lat="49.27203" lon="-0.4433">
        <ele>26.6</ele>
        <time>2023-04-28T12:07:07Z</time>
      </trkpt>
      <trkpt lat="49.27209" lon="-0.4434">
        <ele>26.8</ele>
        <time>2023-04-28T12:07:08Z</time>
      </trkpt>
      <trkpt lat="49.27215" lon="-0.44349">
        <ele>27</ele>
        <time>2023-04-28T12:07:09Z</time>
      </trkpt>
      <trkpt lat="49.27222" lon="-0.44358">
        <ele>27.2</ele>
        <time>2023-04-28T12:07:10Z</time>
      </trkpt>
      <trkpt lat="49.27228" lon="-0.44367">
        <ele>27.4</ele>
        <time>2023-04-28T12:07:11Z</time>
      </trkpt>
      <trkpt lat="49.27234" lon="-0.44375">
        <ele>27.8</ele>
        <time>2023-04-28T12:07:12Z</time>
      </trkpt>
      <trkpt lat="49.2724" lon="-0.44384">
        <ele>27.8</ele>
        <time>2023-04-28T12:07:13Z</time>
      </trkpt>
      <trkpt lat="49.27246" lon="-0.44392">
        <ele>28.2</ele>
        <time>2023-04-28T12:07:14Z</time>
      </trkpt>
      <trkpt lat="49.27252" lon="-0.44401">
        <ele>28.2</ele>
        <time>2023-04-28T12:07:15Z</time>
      </trkpt>
      <trkpt lat="49.27257" lon="-0.4441">
        <ele>28.6</ele>
        <time>2023-04-28T12:07:16Z</time>
      </trkpt>
      <trkpt lat="49.27262" lon="-0.44419">
        <ele>28.8</ele>
        <time>2023-04-28T12:07:17Z</time>
      </trkpt>
      <trkpt lat="49.27267" lon="-0.44429">
        <ele>28.8</ele>
        <time>2023-04-28T12:07:18Z</time>
      </trkpt>
      <trkpt lat="49.27271" lon="-0.44439">
        <ele>29</ele>
        <time>2023-04-28T12:07:19Z</time>
      </trkpt>
      <trkpt lat="49.27275" lon="-0.44449">
        <ele>29.2</ele>
        <time>2023-04-28T12:07:20Z</time>
      </trkpt>
      <trkpt lat="49.27278" lon="-0.4446">
        <ele>29.2</ele>
        <time>2023-04-28T12:07:21Z</time>
      </trkpt>
      <trkpt lat="49.27281" lon="-0.44471">
        <ele>29.2</ele>
        <time>2023-04-28T12:07:22Z</time>
      </trkpt>
      <trkpt lat="49.27283" lon="-0.44482">
        <ele>29</ele>
        <time>2023-04-28T12:07:23Z</time>
      </trkpt>
      <trkpt lat="49.27285" lon="-0.44494">
        <ele>28.8</ele>
        <time>2023-04-28T12:07:24Z</time>
      </trkpt>
      <trkpt lat="49.27286" lon="-0.44506">
        <ele>28.8</ele>
        <time>2023-04-28T12:07:25Z</time>
      </trkpt>
      <trkpt lat="49.27287" lon="-0.44517">
        <ele>28.8</ele>
        <time>2023-04-28T12:07:26Z</time>
      </trkpt>
      <trkpt lat="49.27287" lon="-0.44529">
        <ele>28.8</ele>
        <time>2023-04-28T12:07:27Z</time>
      </trkpt>
      <trkpt lat="49.27287" lon="-0.44541">
        <ele>28.8</ele>
        <time>2023-04-28T12:07:28Z</time>
      </trkpt>
      <trkpt lat="49.27287" lon="-0.44554">
        <ele>28.8</ele>
        <time>2023-04-28T12:07:29Z</time>
      </trkpt>
      <trkpt lat="49.27288" lon="-0.44566">
        <ele>28.8</ele>
        <time>2023-04-28T12:07:30Z</time>
      </trkpt>
      <trkpt lat="49.27288" lon="-0.44578">
        <ele>28.8</ele>
        <time>2023-04-28T12:07:31Z</time>
      </trkpt>
      <trkpt lat="49.27288" lon="-0.4459">
        <ele>28.6</ele>
        <time>2023-04-28T12:07:32Z</time>
      </trkpt>
      <trkpt lat="49.27289" lon="-0.44601">
        <ele>28.2</ele>
        <time>2023-04-28T12:07:33Z</time>
      </trkpt>
      <trkpt lat="49.27289" lon="-0.44612">
        <ele>27.8</ele>
        <time>2023-04-28T12:07:34Z</time>
      </trkpt>
      <trkpt lat="49.27291" lon="-0.44623">
        <ele>27.6</ele>
        <time>2023-04-28T12:07:35Z</time>
      </trkpt>
      <trkpt lat="49.27294" lon="-0.44631">
        <ele>27.6</ele>
        <time>2023-04-28T12:07:36Z</time>
      </trkpt>
      <trkpt lat="49.27298" lon="-0.44639">
        <ele>27.8</ele>
        <time>2023-04-28T12:07:37Z</time>
      </trkpt>
      <trkpt lat="49.27303" lon="-0.44645">
        <ele>28.2</ele>
        <time>2023-04-28T12:07:38Z</time>
      </trkpt>
      <trkpt lat="49.27307" lon="-0.4465">
        <ele>28.6</ele>
        <time>2023-04-28T12:07:39Z</time>
      </trkpt>
      <trkpt lat="49.27312" lon="-0.44653">
        <ele>29</ele>
        <time>2023-04-28T12:07:40Z</time>
      </trkpt>
      <trkpt lat="49.27316" lon="-0.44657">
        <ele>29.2</ele>
        <time>2023-04-28T12:07:41Z</time>
      </trkpt>
      <trkpt lat="49.2732" lon="-0.4466">
        <ele>29.6</ele>
        <time>2023-04-28T12:07:42Z</time>
      </trkpt>
      <trkpt lat="49.27323" lon="-0.44664">
        <ele>29.8</ele>
        <time>2023-04-28T12:07:43Z</time>
      </trkpt>
      <trkpt lat="49.27327" lon="-0.44667">
        <ele>30.2</ele>
        <time>2023-04-28T12:07:44Z</time>
      </trkpt>
      <trkpt lat="49.27331" lon="-0.4467">
        <ele>30.2</ele>
        <time>2023-04-28T12:07:45Z</time>
      </trkpt>
      <trkpt lat="49.27334" lon="-0.44673">
        <ele>30.2</ele>
        <time>2023-04-28T12:07:46Z</time>
      </trkpt>
      <trkpt lat="49.27338" lon="-0.44676">
        <ele>30.4</ele>
        <time>2023-04-28T12:07:47Z</time>
      </trkpt>
      <trkpt lat="49.27342" lon="-0.44678">
        <ele>30.6</ele>
        <time>2023-04-28T12:07:48Z</time>
      </trkpt>
      <trkpt lat="49.27345" lon="-0.4468">
        <ele>30.8</ele>
        <time>2023-04-28T12:07:49Z</time>
      </trkpt>
      <trkpt lat="49.27349" lon="-0.44683">
        <ele>30.8</ele>
        <time>2023-04-28T12:07:50Z</time>
      </trkpt>
      <trkpt lat="49.27353" lon="-0.44684">
        <ele>31</ele>
        <time>2023-04-28T12:07:51Z</time>
      </trkpt>
      <trkpt lat="49.27356" lon="-0.44686">
        <ele>31.2</ele>
        <time>2023-04-28T12:07:52Z</time>
      </trkpt>
      <trkpt lat="49.2736" lon="-0.44688">
        <ele>31.2</ele>
        <time>2023-04-28T12:07:53Z</time>
      </trkpt>
      <trkpt lat="49.27364" lon="-0.44691">
        <ele>31.4</ele>
        <time>2023-04-28T12:07:54Z</time>
      </trkpt>
      <trkpt lat="49.27368" lon="-0.44693">
        <ele>31.6</ele>
        <time>2023-04-28T12:07:55Z</time>
      </trkpt>
      <trkpt lat="49.27372" lon="-0.44696">
        <ele>31.6</ele>
        <time>2023-04-28T12:07:56Z</time>
      </trkpt>
      <trkpt lat="49.27376" lon="-0.44699">
        <ele>31.6</ele>
        <time>2023-04-28T12:07:57Z</time>
      </trkpt>
      <trkpt lat="49.2738" lon="-0.44702">
        <ele>31.6</ele>
        <time>2023-04-28T12:07:58Z</time>
      </trkpt>
      <trkpt lat="49.27384" lon="-0.44705">
        <ele>31.6</ele>
        <time>2023-04-28T12:07:59Z</time>
      </trkpt>
      <trkpt lat="49.27389" lon="-0.44708">
        <ele>31.6</ele>
        <time>2023-04-28T12:08:00Z</time>
      </trkpt>
      <trkpt lat="49.27394" lon="-0.44712">
        <ele>31.6</ele>
        <time>2023-04-28T12:08:01Z</time>
      </trkpt>
      <trkpt lat="49.27399" lon="-0.44715">
        <ele>31.4</ele>
        <time>2023-04-28T12:08:02Z</time>
      </trkpt>
      <trkpt lat="49.27404" lon="-0.44718">
        <ele>31.4</ele>
        <time>2023-04-28T12:08:03Z</time>
      </trkpt>
      <trkpt lat="49.27409" lon="-0.44721">
        <ele>31.6</ele>
        <time>2023-04-28T12:08:04Z</time>
      </trkpt>
      <trkpt lat="49.27415" lon="-0.44724">
        <ele>31.6</ele>
        <time>2023-04-28T12:08:05Z</time>
      </trkpt>
      <trkpt lat="49.27421" lon="-0.44726">
        <ele>31.2</ele>
        <time>2023-04-28T12:08:06Z</time>
      </trkpt>
      <trkpt lat="49.27428" lon="-0.44729">
        <ele>30.6</ele>
        <time>2023-04-28T12:08:07Z</time>
      </trkpt>
      <trkpt lat="49.27434" lon="-0.4473">
        <ele>30</ele>
        <time>2023-04-28T12:08:08Z</time>
      </trkpt>
      <trkpt lat="49.27442" lon="-0.44732">
        <ele>29.6</ele>
        <time>2023-04-28T12:08:09Z</time>
      </trkpt>
      <trkpt lat="49.27449" lon="-0.44732">
        <ele>29.2</ele>
        <time>2023-04-28T12:08:10Z</time>
      </trkpt>
      <trkpt lat="49.27458" lon="-0.44732">
        <ele>28.8</ele>
        <time>2023-04-28T12:08:11Z</time>
      </trkpt>
      <trkpt lat="49.27466" lon="-0.44732">
        <ele>28.6</ele>
        <time>2023-04-28T12:08:12Z</time>
      </trkpt>
      <trkpt lat="49.27475" lon="-0.44732">
        <ele>28.6</ele>
        <time>2023-04-28T12:08:13Z</time>
      </trkpt>
      <trkpt lat="49.27484" lon="-0.44731">
        <ele>28.2</ele>
        <time>2023-04-28T12:08:14Z</time>
      </trkpt>
      <trkpt lat="49.27494" lon="-0.4473">
        <ele>28.2</ele>
        <time>2023-04-28T12:08:15Z</time>
      </trkpt>
      <trkpt lat="49.27506" lon="-0.4473">
        <ele>27.8</ele>
        <time>2023-04-28T12:08:16Z</time>
      </trkpt>
      <trkpt lat="49.2752" lon="-0.44733">
        <ele>26.8</ele>
        <time>2023-04-28T12:08:17Z</time>
      </trkpt>
      <trkpt lat="49.27532" lon="-0.44741">
        <ele>25.6</ele>
        <time>2023-04-28T12:08:18Z</time>
      </trkpt>
      <trkpt lat="49.27538" lon="-0.44753">
        <ele>23.8</ele>
        <time>2023-04-28T12:08:19Z</time>
      </trkpt>
      <trkpt lat="49.27541" lon="-0.44768">
        <ele>23</ele>
        <time>2023-04-28T12:08:20Z</time>
      </trkpt>
      <trkpt lat="49.27543" lon="-0.44783">
        <ele>22.2</ele>
        <time>2023-04-28T12:08:21Z</time>
      </trkpt>
      <trkpt lat="49.27545" lon="-0.44798">
        <ele>21.4</ele>
        <time>2023-04-28T12:08:22Z</time>
      </trkpt>
      <trkpt lat="49.27547" lon="-0.44812">
        <ele>20.6</ele>
        <time>2023-04-28T12:08:23Z</time>
      </trkpt>
      <trkpt lat="49.27549" lon="-0.44826">
        <ele>19.8</ele>
        <time>2023-04-28T12:08:24Z</time>
      </trkpt>
      <trkpt lat="49.27551" lon="-0.44839">
        <ele>19.8</ele>
        <time>2023-04-28T12:08:25Z</time>
      </trkpt>
      <trkpt lat="49.27552" lon="-0.44852">
        <ele>20.2</ele>
        <time>2023-04-28T12:08:26Z</time>
      </trkpt>
      <trkpt lat="49.27554" lon="-0.44865">
        <ele>20.8</ele>
        <time>2023-04-28T12:08:27Z</time>
      </trkpt>
      <trkpt lat="49.27556" lon="-0.44877">
        <ele>21.2</ele>
        <time>2023-04-28T12:08:28Z</time>
      </trkpt>
      <trkpt lat="49.27558" lon="-0.44888">
        <ele>21.8</ele>
        <time>2023-04-28T12:08:29Z</time>
      </trkpt>
      <trkpt lat="49.27559" lon="-0.44899">
        <ele>22</ele>
        <time>2023-04-28T12:08:30Z</time>
      </trkpt>
      <trkpt lat="49.27561" lon="-0.4491">
        <ele>22.4</ele>
        <time>2023-04-28T12:08:31Z</time>
      </trkpt>
      <trkpt lat="49.27562" lon="-0.4492">
        <ele>22.8</ele>
        <time>2023-04-28T12:08:32Z</time>
      </trkpt>
      <trkpt lat="49.27563" lon="-0.4493">
        <ele>23</ele>
        <time>2023-04-28T12:08:33Z</time>
      </trkpt>
      <trkpt lat="49.27565" lon="-0.44939">
        <ele>23.2</ele>
        <time>2023-04-28T12:08:34Z</time>
      </trkpt>
      <trkpt lat="49.27566" lon="-0.44948">
        <ele>23.6</ele>
        <time>2023-04-28T12:08:35Z</time>
      </trkpt>
      <trkpt lat="49.27567" lon="-0.44956">
        <ele>23.8</ele>
        <time>2023-04-28T12:08:36Z</time>
      </trkpt>
      <trkpt lat="49.27568" lon="-0.44965">
        <ele>24.2</ele>
        <time>2023-04-28T12:08:37Z</time>
      </trkpt>
      <trkpt lat="49.27569" lon="-0.44973">
        <ele>24.4</ele>
        <time>2023-04-28T12:08:38Z</time>
      </trkpt>
      <trkpt lat="49.2757" lon="-0.44981">
        <ele>24.8</ele>
        <time>2023-04-28T12:08:39Z</time>
      </trkpt>
      <trkpt lat="49.27571" lon="-0.44989">
        <ele>24.8</ele>
        <time>2023-04-28T12:08:40Z</time>
      </trkpt>
      <trkpt lat="49.27572" lon="-0.44997">
        <ele>25.2</ele>
        <time>2023-04-28T12:08:41Z</time>
      </trkpt>
      <trkpt lat="49.27573" lon="-0.45005">
        <ele>25.2</ele>
        <time>2023-04-28T12:08:42Z</time>
      </trkpt>
      <trkpt lat="49.27574" lon="-0.45013">
        <ele>25.2</ele>
        <time>2023-04-28T12:08:43Z</time>
      </trkpt>
      <trkpt lat="49.27576" lon="-0.45021">
        <ele>25.2</ele>
        <time>2023-04-28T12:08:44Z</time>
      </trkpt>
      <trkpt lat="49.27578" lon="-0.45029">
        <ele>25</ele>
        <time>2023-04-28T12:08:45Z</time>
      </trkpt>
      <trkpt lat="49.2758" lon="-0.45036">
        <ele>24.8</ele>
        <time>2023-04-28T12:08:46Z</time>
      </trkpt>
      <trkpt lat="49.27582" lon="-0.45044">
        <ele>24.6</ele>
        <time>2023-04-28T12:08:47Z</time>
      </trkpt>
      <trkpt lat="49.27585" lon="-0.45051">
        <ele>24.6</ele>
        <time>2023-04-28T12:08:48Z</time>
      </trkpt>
      <trkpt lat="49.27588" lon="-0.45058">
        <ele>24.2</ele>
        <time>2023-04-28T12:08:49Z</time>
      </trkpt>
      <trkpt lat="49.27591" lon="-0.45066">
        <ele>24.2</ele>
        <time>2023-04-28T12:08:50Z</time>
      </trkpt>
      <trkpt lat="49.27594" lon="-0.45074">
        <ele>24</ele>
        <time>2023-04-28T12:08:51Z</time>
      </trkpt>
      <trkpt lat="49.27598" lon="-0.45081">
        <ele>23.8</ele>
        <time>2023-04-28T12:08:52Z</time>
      </trkpt>
      <trkpt lat="49.27601" lon="-0.45089">
        <ele>23.6</ele>
        <time>2023-04-28T12:08:53Z</time>
      </trkpt>
      <trkpt lat="49.27604" lon="-0.45097">
        <ele>23.2</ele>
        <time>2023-04-28T12:08:54Z</time>
      </trkpt>
      <trkpt lat="49.27608" lon="-0.45106">
        <ele>22.8</ele>
        <time>2023-04-28T12:08:55Z</time>
      </trkpt>
      <trkpt lat="49.27612" lon="-0.45114">
        <ele>22.6</ele>
        <time>2023-04-28T12:08:56Z</time>
      </trkpt>
      <trkpt lat="49.27616" lon="-0.45123">
        <ele>22.2</ele>
        <time>2023-04-28T12:08:57Z</time>
      </trkpt>
      <trkpt lat="49.27619" lon="-0.45132">
        <ele>22</ele>
        <time>2023-04-28T12:08:58Z</time>
      </trkpt>
      <trkpt lat="49.27623" lon="-0.45141">
        <ele>21.8</ele>
        <time>2023-04-28T12:08:59Z</time>
      </trkpt>
      <trkpt lat="49.27626" lon="-0.45151">
        <ele>21.4</ele>
        <time>2023-04-28T12:09:00Z</time>
      </trkpt>
      <trkpt lat="49.27628" lon="-0.4516">
        <ele>21.2</ele>
        <time>2023-04-28T12:09:01Z</time>
      </trkpt>
      <trkpt lat="49.27631" lon="-0.4517">
        <ele>21</ele>
        <time>2023-04-28T12:09:02Z</time>
      </trkpt>
      <trkpt lat="49.27632" lon="-0.4518">
        <ele>20.8</ele>
        <time>2023-04-28T12:09:03Z</time>
      </trkpt>
      <trkpt lat="49.27633" lon="-0.4519">
        <ele>20.8</ele>
        <time>2023-04-28T12:09:04Z</time>
      </trkpt>
      <trkpt lat="49.27634" lon="-0.45199">
        <ele>20.8</ele>
        <time>2023-04-28T12:09:05Z</time>
      </trkpt>
      <trkpt lat="49.27635" lon="-0.45209">
        <ele>20.8</ele>
        <time>2023-04-28T12:09:06Z</time>
      </trkpt>
      <trkpt lat="49.27635" lon="-0.45218">
        <ele>20.8</ele>
        <time>2023-04-28T12:09:07Z</time>
      </trkpt>
      <trkpt lat="49.27635" lon="-0.45227">
        <ele>20.8</ele>
        <time>2023-04-28T12:09:08Z</time>
      </trkpt>
      <trkpt lat="49.27635" lon="-0.45237">
        <ele>20.8</ele>
        <time>2023-04-28T12:09:09Z</time>
      </trkpt>
      <trkpt lat="49.27635" lon="-0.45245">
        <ele>20.8</ele>
        <time>2023-04-28T12:09:10Z</time>
      </trkpt>
      <trkpt lat="49.27635" lon="-0.45254">
        <ele>20.8</ele>
        <time>2023-04-28T12:09:11Z</time>
      </trkpt>
      <trkpt lat="49.27635" lon="-0.45264">
        <ele>20.8</ele>
        <time>2023-04-28T12:09:12Z</time>
      </trkpt>
      <trkpt lat="49.27634" lon="-0.45273">
        <ele>21</ele>
        <time>2023-04-28T12:09:13Z</time>
      </trkpt>
      <trkpt lat="49.27634" lon="-0.45282">
        <ele>21</ele>
        <time>2023-04-28T12:09:14Z</time>
      </trkpt>
      <trkpt lat="49.27634" lon="-0.45291">
        <ele>21.2</ele>
        <time>2023-04-28T12:09:15Z</time>
      </trkpt>
      <trkpt lat="49.27634" lon="-0.453">
        <ele>21.2</ele>
        <time>2023-04-28T12:09:16Z</time>
      </trkpt>
      <trkpt lat="49.27634" lon="-0.4531">
        <ele>21.2</ele>
        <time>2023-04-28T12:09:17Z</time>
      </trkpt>
      <trkpt lat="49.27634" lon="-0.4532">
        <ele>21.2</ele>
        <time>2023-04-28T12:09:18Z</time>
      </trkpt>
      <trkpt lat="49.27634" lon="-0.4533">
        <ele>21.2</ele>
        <time>2023-04-28T12:09:19Z</time>
      </trkpt>
      <trkpt lat="49.27635" lon="-0.4534">
        <ele>21.2</ele>
        <time>2023-04-28T12:09:20Z</time>
      </trkpt>
      <trkpt lat="49.27636" lon="-0.45349">
        <ele>21.2</ele>
        <time>2023-04-28T12:09:21Z</time>
      </trkpt>
      <trkpt lat="49.27637" lon="-0.45359">
        <ele>21.2</ele>
        <time>2023-04-28T12:09:22Z</time>
      </trkpt>
      <trkpt lat="49.27638" lon="-0.45369">
        <ele>21.2</ele>
        <time>2023-04-28T12:09:23Z</time>
      </trkpt>
      <trkpt lat="49.27638" lon="-0.45378">
        <ele>21.2</ele>
        <time>2023-04-28T12:09:24Z</time>
      </trkpt>
      <trkpt lat="49.27639" lon="-0.45388">
        <ele>21.2</ele>
        <time>2023-04-28T12:09:25Z</time>
      </trkpt>
      <trkpt lat="49.27639" lon="-0.45397">
        <ele>21.2</ele>
        <time>2023-04-28T12:09:26Z</time>
      </trkpt>
      <trkpt lat="49.27638" lon="-0.45406">
        <ele>21.2</ele>
        <time>2023-04-28T12:09:27Z</time>
      </trkpt>
      <trkpt lat="49.27637" lon="-0.45416">
        <ele>21.6</ele>
        <time>2023-04-28T12:09:28Z</time>
      </trkpt>
      <trkpt lat="49.27636" lon="-0.45425">
        <ele>21.8</ele>
        <time>2023-04-28T12:09:29Z</time>
      </trkpt>
      <trkpt lat="49.27635" lon="-0.45434">
        <ele>21.8</ele>
        <time>2023-04-28T12:09:30Z</time>
      </trkpt>
      <trkpt lat="49.27634" lon="-0.45443">
        <ele>21.8</ele>
        <time>2023-04-28T12:09:31Z</time>
      </trkpt>
      <trkpt lat="49.27633" lon="-0.45452">
        <ele>21.8</ele>
        <time>2023-04-28T12:09:32Z</time>
      </trkpt>
      <trkpt lat="49.27634" lon="-0.4546">
        <ele>21.8</ele>
        <time>2023-04-28T12:09:33Z</time>
      </trkpt>
      <trkpt lat="49.27635" lon="-0.45468">
        <ele>21.8</ele>
        <time>2023-04-28T12:09:34Z</time>
      </trkpt>
      <trkpt lat="49.27637" lon="-0.45475">
        <ele>21.6</ele>
        <time>2023-04-28T12:09:35Z</time>
      </trkpt>
      <trkpt lat="49.2764" lon="-0.45482">
        <ele>21.2</ele>
        <time>2023-04-28T12:09:36Z</time>
      </trkpt>
      <trkpt lat="49.27644" lon="-0.45488">
        <ele>20.8</ele>
        <time>2023-04-28T12:09:37Z</time>
      </trkpt>
      <trkpt lat="49.27649" lon="-0.45493">
        <ele>20.6</ele>
        <time>2023-04-28T12:09:38Z</time>
      </trkpt>
      <trkpt lat="49.27654" lon="-0.45496">
        <ele>20.2</ele>
        <time>2023-04-28T12:09:39Z</time>
      </trkpt>
      <trkpt lat="49.27659" lon="-0.45499">
        <ele>19.6</ele>
        <time>2023-04-28T12:09:40Z</time>
      </trkpt>
      <trkpt lat="49.27665" lon="-0.455">
        <ele>19.2</ele>
        <time>2023-04-28T12:09:41Z</time>
      </trkpt>
      <trkpt lat="49.2767" lon="-0.45501">
        <ele>19.2</ele>
        <time>2023-04-28T12:09:42Z</time>
      </trkpt>
      <trkpt lat="49.27676" lon="-0.45502">
        <ele>19.2</ele>
        <time>2023-04-28T12:09:43Z</time>
      </trkpt>
      <trkpt lat="49.27681" lon="-0.45502">
        <ele>19.6</ele>
        <time>2023-04-28T12:09:44Z</time>
      </trkpt>
      <trkpt lat="49.27687" lon="-0.45503">
        <ele>19.8</ele>
        <time>2023-04-28T12:09:45Z</time>
      </trkpt>
      <trkpt lat="49.27692" lon="-0.45506">
        <ele>20</ele>
        <time>2023-04-28T12:09:46Z</time>
      </trkpt>
      <trkpt lat="49.27697" lon="-0.4551">
        <ele>20.2</ele>
        <time>2023-04-28T12:09:47Z</time>
      </trkpt>
      <trkpt lat="49.27701" lon="-0.45515">
        <ele>20.8</ele>
        <time>2023-04-28T12:09:48Z</time>
      </trkpt>
      <trkpt lat="49.27705" lon="-0.45522">
        <ele>21.2</ele>
        <time>2023-04-28T12:09:49Z</time>
      </trkpt>
      <trkpt lat="49.27707" lon="-0.45529">
        <ele>21.8</ele>
        <time>2023-04-28T12:09:50Z</time>
      </trkpt>
      <trkpt lat="49.27709" lon="-0.45537">
        <ele>22.2</ele>
        <time>2023-04-28T12:09:51Z</time>
      </trkpt>
      <trkpt lat="49.2771" lon="-0.45546">
        <ele>22.8</ele>
        <time>2023-04-28T12:09:52Z</time>
      </trkpt>
      <trkpt lat="49.27711" lon="-0.45554">
        <ele>23.2</ele>
        <time>2023-04-28T12:09:53Z</time>
      </trkpt>
      <trkpt lat="49.27712" lon="-0.45562">
        <ele>23.8</ele>
        <time>2023-04-28T12:09:54Z</time>
      </trkpt>
      <trkpt lat="49.27713" lon="-0.45569">
        <ele>24.2</ele>
        <time>2023-04-28T12:09:55Z</time>
      </trkpt>
      <trkpt lat="49.27714" lon="-0.45576">
        <ele>24.8</ele>
        <time>2023-04-28T12:09:56Z</time>
      </trkpt>
      <trkpt lat="49.27714" lon="-0.45583">
        <ele>25.2</ele>
        <time>2023-04-28T12:09:57Z</time>
      </trkpt>
      <trkpt lat="49.27713" lon="-0.45589">
        <ele>25.6</ele>
        <time>2023-04-28T12:09:58Z</time>
      </trkpt>
      <trkpt lat="49.27712" lon="-0.45596">
        <ele>25.8</ele>
        <time>2023-04-28T12:09:59Z</time>
      </trkpt>
      <trkpt lat="49.27712" lon="-0.45604">
        <ele>26.4</ele>
        <time>2023-04-28T12:10:00Z</time>
      </trkpt>
      <trkpt lat="49.27712" lon="-0.45611">
        <ele>26.8</ele>
        <time>2023-04-28T12:10:01Z</time>
      </trkpt>
      <trkpt lat="49.27713" lon="-0.45619">
        <ele>27.4</ele>
        <time>2023-04-28T12:10:02Z</time>
      </trkpt>
      <trkpt lat="49.27715" lon="-0.45626">
        <ele>27.8</ele>
        <time>2023-04-28T12:10:03Z</time>
      </trkpt>
      <trkpt lat="49.27716" lon="-0.45634">
        <ele>28.2</ele>
        <time>2023-04-28T12:10:04Z</time>
      </trkpt>
      <trkpt lat="49.27717" lon="-0.45641">
        <ele>28.8</ele>
        <time>2023-04-28T12:10:05Z</time>
      </trkpt>
      <trkpt lat="49.27717" lon="-0.45649">
        <ele>29.2</ele>
        <time>2023-04-28T12:10:06Z</time>
      </trkpt>
      <trkpt lat="49.27716" lon="-0.45656">
        <ele>29.8</ele>
        <time>2023-04-28T12:10:07Z</time>
      </trkpt>
      <trkpt lat="49.27715" lon="-0.45664">
        <ele>30.2</ele>
        <time>2023-04-28T12:10:08Z</time>
      </trkpt>
      <trkpt lat="49.27713" lon="-0.45671">
        <ele>30.6</ele>
        <time>2023-04-28T12:10:09Z</time>
      </trkpt>
      <trkpt lat="49.27712" lon="-0.45678">
        <ele>30.8</ele>
        <time>2023-04-28T12:10:10Z</time>
      </trkpt>
      <trkpt lat="49.27711" lon="-0.45685">
        <ele>31.2</ele>
        <time>2023-04-28T12:10:11Z</time>
      </trkpt>
      <trkpt lat="49.2771" lon="-0.45692">
        <ele>31.6</ele>
        <time>2023-04-28T12:10:12Z</time>
      </trkpt>
      <trkpt lat="49.27709" lon="-0.45699">
        <ele>31.8</ele>
        <time>2023-04-28T12:10:13Z</time>
      </trkpt>
      <trkpt lat="49.27708" lon="-0.45706">
        <ele>32</ele>
        <time>2023-04-28T12:10:14Z</time>
      </trkpt>
      <trkpt lat="49.27707" lon="-0.45712">
        <ele>32.4</ele>
        <time>2023-04-28T12:10:15Z</time>
      </trkpt>
      <trkpt lat="49.27706" lon="-0.45718">
        <ele>32.8</ele>
        <time>2023-04-28T12:10:16Z</time>
      </trkpt>
      <trkpt lat="49.27706" lon="-0.45724">
        <ele>33</ele>
        <time>2023-04-28T12:10:17Z</time>
      </trkpt>
      <trkpt lat="49.27706" lon="-0.4573">
        <ele>33.2</ele>
        <time>2023-04-28T12:10:18Z</time>
      </trkpt>
      <trkpt lat="49.27705" lon="-0.45736">
        <ele>33.4</ele>
        <time>2023-04-28T12:10:19Z</time>
      </trkpt>
      <trkpt lat="49.27705" lon="-0.45741">
        <ele>33.6</ele>
        <time>2023-04-28T12:10:20Z</time>
      </trkpt>
      <trkpt lat="49.27705" lon="-0.45746">
        <ele>34</ele>
        <time>2023-04-28T12:10:21Z</time>
      </trkpt>
      <trkpt lat="49.27705" lon="-0.45752">
        <ele>34</ele>
        <time>2023-04-28T12:10:22Z</time>
      </trkpt>
      <trkpt lat="49.27705" lon="-0.45757">
        <ele>34.2</ele>
        <time>2023-04-28T12:10:23Z</time>
      </trkpt>
      <trkpt lat="49.27704" lon="-0.45762">
        <ele>34.4</ele>
        <time>2023-04-28T12:10:24Z</time>
      </trkpt>
      <trkpt lat="49.27704" lon="-0.45766">
        <ele>34.6</ele>
        <time>2023-04-28T12:10:25Z</time>
      </trkpt>
      <trkpt lat="49.27704" lon="-0.45771">
        <ele>34.8</ele>
        <time>2023-04-28T12:10:26Z</time>
      </trkpt>
      <trkpt lat="49.27703" lon="-0.45776">
        <ele>35</ele>
        <time>2023-04-28T12:10:27Z</time>
      </trkpt>
      <trkpt lat="49.27703" lon="-0.45781">
        <ele>35</ele>
        <time>2023-04-28T12:10:28Z</time>
      </trkpt>
      <trkpt lat="49.27702" lon="-0.45786">
        <ele>35.2</ele>
        <time>2023-04-28T12:10:29Z</time>
      </trkpt>
      <trkpt lat="49.27701" lon="-0.4579">
        <ele>35.6</ele>
        <time>2023-04-28T12:10:30Z</time>
      </trkpt>
      <trkpt lat="49.277" lon="-0.45795">
        <ele>35.6</ele>
        <time>2023-04-28T12:10:31Z</time>
      </trkpt>
      <trkpt lat="49.27699" lon="-0.458">
        <ele>35.8</ele>
        <time>2023-04-28T12:10:32Z</time>
      </trkpt>
      <trkpt lat="49.27698" lon="-0.45805">
        <ele>36</ele>
        <time>2023-04-28T12:10:33Z</time>
      </trkpt>
      <trkpt lat="49.27697" lon="-0.45809">
        <ele>36</ele>
        <time>2023-04-28T12:10:34Z</time>
      </trkpt>
      <trkpt lat="49.27696" lon="-0.45814">
        <ele>36.2</ele>
        <time>2023-04-28T12:10:35Z</time>
      </trkpt>
      <trkpt lat="49.27694" lon="-0.45819">
        <ele>36.6</ele>
        <time>2023-04-28T12:10:36Z</time>
      </trkpt>
      <trkpt lat="49.27693" lon="-0.45823">
        <ele>36.6</ele>
        <time>2023-04-28T12:10:37Z</time>
      </trkpt>
      <trkpt lat="49.27692" lon="-0.45828">
        <ele>36.8</ele>
        <time>2023-04-28T12:10:38Z</time>
      </trkpt>
      <trkpt lat="49.27691" lon="-0.45833">
        <ele>37</ele>
        <time>2023-04-28T12:10:39Z</time>
      </trkpt>
      <trkpt lat="49.2769" lon="-0.45838">
        <ele>37.2</ele>
        <time>2023-04-28T12:10:40Z</time>
      </trkpt>
      <trkpt lat="49.27689" lon="-0.45842">
        <ele>37.2</ele>
        <time>2023-04-28T12:10:41Z</time>
      </trkpt>
      <trkpt lat="49.27688" lon="-0.45847">
        <ele>37.6</ele>
        <time>2023-04-28T12:10:42Z</time>
      </trkpt>
      <trkpt lat="49.27687" lon="-0.45852">
        <ele>37.8</ele>
        <time>2023-04-28T12:10:43Z</time>
      </trkpt>
      <trkpt lat="49.27686" lon="-0.45857">
        <ele>37.8</ele>
        <time>2023-04-28T12:10:44Z</time>
      </trkpt>
      <trkpt lat="49.27685" lon="-0.45862">
        <ele>38</ele>
        <time>2023-04-28T12:10:45Z</time>
      </trkpt>
      <trkpt lat="49.27684" lon="-0.45866">
        <ele>38.2</ele>
        <time>2023-04-28T12:10:46Z</time>
      </trkpt>
      <trkpt lat="49.27683" lon="-0.45871">
        <ele>38.4</ele>
        <time>2023-04-28T12:10:47Z</time>
      </trkpt>
      <trkpt lat="49.27682" lon="-0.45876">
        <ele>38.6</ele>
        <time>2023-04-28T12:10:48Z</time>
      </trkpt>
      <trkpt lat="49.27681" lon="-0.4588">
        <ele>38.8</ele>
        <time>2023-04-28T12:10:49Z</time>
      </trkpt>
      <trkpt lat="49.2768" lon="-0.45885">
        <ele>39</ele>
        <time>2023-04-28T12:10:50Z</time>
      </trkpt>
      <trkpt lat="49.2768" lon="-0.4589">
        <ele>39</ele>
        <time>2023-04-28T12:10:51Z</time>
      </trkpt>
      <trkpt lat="49.27679" lon="-0.45894">
        <ele>39.2</ele>
        <time>2023-04-28T12:10:52Z</time>
      </trkpt>
      <trkpt lat="49.27678" lon="-0.45899">
        <ele>39.4</ele>
        <time>2023-04-28T12:10:53Z</time>
      </trkpt>
      <trkpt lat="49.27678" lon="-0.45904">
        <ele>39.6</ele>
        <time>2023-04-28T12:10:54Z</time>
      </trkpt>
      <trkpt lat="49.27677" lon="-0.45909">
        <ele>39.8</ele>
        <time>2023-04-28T12:10:55Z</time>
      </trkpt>
      <trkpt lat="49.27677" lon="-0.45914">
        <ele>40</ele>
        <time>2023-04-28T12:10:56Z</time>
      </trkpt>
      <trkpt lat="49.27677" lon="-0.45918">
        <ele>40</ele>
        <time>2023-04-28T12:10:57Z</time>
      </trkpt>
      <trkpt lat="49.27676" lon="-0.45923">
        <ele>40.2</ele>
        <time>2023-04-28T12:10:58Z</time>
      </trkpt>
      <trkpt lat="49.27676" lon="-0.45927">
        <ele>40.2</ele>
        <time>2023-04-28T12:10:59Z</time>
      </trkpt>
      <trkpt lat="49.27676" lon="-0.45932">
        <ele>40.4</ele>
        <time>2023-04-28T12:11:00Z</time>
      </trkpt>
      <trkpt lat="49.27675" lon="-0.45937">
        <ele>40.6</ele>
        <time>2023-04-28T12:11:01Z</time>
      </trkpt>
      <trkpt lat="49.27675" lon="-0.45942">
        <ele>40.6</ele>
        <time>2023-04-28T12:11:02Z</time>
      </trkpt>
      <trkpt lat="49.27675" lon="-0.45947">
        <ele>40.8</ele>
        <time>2023-04-28T12:11:03Z</time>
      </trkpt>
      <trkpt lat="49.27674" lon="-0.45951">
        <ele>41</ele>
        <time>2023-04-28T12:11:04Z</time>
      </trkpt>
      <trkpt lat="49.27674" lon="-0.45956">
        <ele>41</ele>
        <time>2023-04-28T12:11:05Z</time>
      </trkpt>
      <trkpt lat="49.27674" lon="-0.45961">
        <ele>41</ele>
        <time>2023-04-28T12:11:06Z</time>
      </trkpt>
      <trkpt lat="49.27673" lon="-0.45966">
        <ele>41.2</ele>
        <time>2023-04-28T12:11:07Z</time>
      </trkpt>
      <trkpt lat="49.27673" lon="-0.45971">
        <ele>41.4</ele>
        <time>2023-04-28T12:11:08Z</time>
      </trkpt>
      <trkpt lat="49.27673" lon="-0.45976">
        <ele>41.6</ele>
        <time>2023-04-28T12:11:09Z</time>
      </trkpt>
      <trkpt lat="49.27672" lon="-0.45981">
        <ele>41.6</ele>
        <time>2023-04-28T12:11:10Z</time>
      </trkpt>
      <trkpt lat="49.27672" lon="-0.45986">
        <ele>41.8</ele>
        <time>2023-04-28T12:11:11Z</time>
      </trkpt>
      <trkpt lat="49.27672" lon="-0.45991">
        <ele>41.8</ele>
        <time>2023-04-28T12:11:12Z</time>
      </trkpt>
      <trkpt lat="49.27672" lon="-0.45996">
        <ele>42</ele>
        <time>2023-04-28T12:11:13Z</time>
      </trkpt>
      <trkpt lat="49.27672" lon="-0.46">
        <ele>42</ele>
        <time>2023-04-28T12:11:14Z</time>
      </trkpt>
      <trkpt lat="49.27672" lon="-0.46006">
        <ele>42.2</ele>
        <time>2023-04-28T12:11:15Z</time>
      </trkpt>
      <trkpt lat="49.27672" lon="-0.4601">
        <ele>42.2</ele>
        <time>2023-04-28T12:11:16Z</time>
      </trkpt>
      <trkpt lat="49.27672" lon="-0.46015">
        <ele>42.4</ele>
        <time>2023-04-28T12:11:17Z</time>
      </trkpt>
      <trkpt lat="49.27672" lon="-0.4602">
        <ele>42.6</ele>
        <time>2023-04-28T12:11:18Z</time>
      </trkpt>
      <trkpt lat="49.27672" lon="-0.46025">
        <ele>42.8</ele>
        <time>2023-04-28T12:11:19Z</time>
      </trkpt>
      <trkpt lat="49.27672" lon="-0.4603">
        <ele>42.8</ele>
        <time>2023-04-28T12:11:20Z</time>
      </trkpt>
      <trkpt lat="49.27673" lon="-0.46035">
        <ele>43</ele>
        <time>2023-04-28T12:11:21Z</time>
      </trkpt>
      <trkpt lat="49.27673" lon="-0.46041">
        <ele>43</ele>
        <time>2023-04-28T12:11:22Z</time>
      </trkpt>
      <trkpt lat="49.27673" lon="-0.46046">
        <ele>43</ele>
        <time>2023-04-28T12:11:23Z</time>
      </trkpt>
      <trkpt lat="49.27673" lon="-0.46051">
        <ele>43.2</ele>
        <time>2023-04-28T12:11:24Z</time>
      </trkpt>
      <trkpt lat="49.27674" lon="-0.46056">
        <ele>43.4</ele>
        <time>2023-04-28T12:11:25Z</time>
      </trkpt>
      <trkpt lat="49.27674" lon="-0.46061">
        <ele>43.6</ele>
        <time>2023-04-28T12:11:26Z</time>
      </trkpt>
      <trkpt lat="49.27674" lon="-0.46066">
        <ele>43.6</ele>
        <time>2023-04-28T12:11:27Z</time>
      </trkpt>
      <trkpt lat="49.27675" lon="-0.46071">
        <ele>43.8</ele>
        <time>2023-04-28T12:11:28Z</time>
      </trkpt>
      <trkpt lat="49.27675" lon="-0.46077">
        <ele>43.8</ele>
        <time>2023-04-28T12:11:29Z</time>
      </trkpt>
      <trkpt lat="49.27676" lon="-0.46082">
        <ele>44</ele>
        <time>2023-04-28T12:11:30Z</time>
      </trkpt>
      <trkpt lat="49.27676" lon="-0.46087">
        <ele>44</ele>
        <time>2023-04-28T12:11:31Z</time>
      </trkpt>
      <trkpt lat="49.27676" lon="-0.46092">
        <ele>44</ele>
        <time>2023-04-28T12:11:32Z</time>
      </trkpt>
      <trkpt lat="49.27677" lon="-0.46097">
        <ele>44.2</ele>
        <time>2023-04-28T12:11:33Z</time>
      </trkpt>
      <trkpt lat="49.27677" lon="-0.46102">
        <ele>44.2</ele>
        <time>2023-04-28T12:11:34Z</time>
      </trkpt>
      <trkpt lat="49.27677" lon="-0.46107">
        <ele>44.2</ele>
        <time>2023-04-28T12:11:35Z</time>
      </trkpt>
      <trkpt lat="49.27678" lon="-0.46112">
        <ele>44.2</ele>
        <time>2023-04-28T12:11:36Z</time>
      </trkpt>
      <trkpt lat="49.27678" lon="-0.46117">
        <ele>44.4</ele>
        <time>2023-04-28T12:11:37Z</time>
      </trkpt>
      <trkpt lat="49.27679" lon="-0.46122">
        <ele>44.6</ele>
        <time>2023-04-28T12:11:38Z</time>
      </trkpt>
      <trkpt lat="49.27679" lon="-0.46127">
        <ele>44.6</ele>
        <time>2023-04-28T12:11:39Z</time>
      </trkpt>
      <trkpt lat="49.27679" lon="-0.46132">
        <ele>44.6</ele>
        <time>2023-04-28T12:11:40Z</time>
      </trkpt>
      <trkpt lat="49.2768" lon="-0.46137">
        <ele>44.6</ele>
        <time>2023-04-28T12:11:41Z</time>
      </trkpt>
      <trkpt lat="49.2768" lon="-0.46142">
        <ele>44.8</ele>
        <time>2023-04-28T12:11:42Z</time>
      </trkpt>
      <trkpt lat="49.2768" lon="-0.46147">
        <ele>44.8</ele>
        <time>2023-04-28T12:11:43Z</time>
      </trkpt>
      <trkpt lat="49.27681" lon="-0.46153">
        <ele>44.8</ele>
        <time>2023-04-28T12:11:44Z</time>
      </trkpt>
      <trkpt lat="49.27681" lon="-0.46158">
        <ele>45</ele>
        <time>2023-04-28T12:11:45Z</time>
      </trkpt>
      <trkpt lat="49.27681" lon="-0.46163">
        <ele>45</ele>
        <time>2023-04-28T12:11:46Z</time>
      </trkpt>
      <trkpt lat="49.27682" lon="-0.46168">
        <ele>45</ele>
        <time>2023-04-28T12:11:47Z</time>
      </trkpt>
      <trkpt lat="49.27682" lon="-0.46173">
        <ele>45.2</ele>
        <time>2023-04-28T12:11:48Z</time>
      </trkpt>
      <trkpt lat="49.27683" lon="-0.46178">
        <ele>45.2</ele>
        <time>2023-04-28T12:11:49Z</time>
      </trkpt>
      <trkpt lat="49.27683" lon="-0.46184">
        <ele>45.4</ele>
        <time>2023-04-28T12:11:50Z</time>
      </trkpt>
      <trkpt lat="49.27683" lon="-0.46189">
        <ele>45.6</ele>
        <time>2023-04-28T12:11:51Z</time>
      </trkpt>
      <trkpt lat="49.27684" lon="-0.46194">
        <ele>45.8</ele>
        <time>2023-04-28T12:11:52Z</time>
      </trkpt>
      <trkpt lat="49.27684" lon="-0.46199">
        <ele>45.8</ele>
        <time>2023-04-28T12:11:53Z</time>
      </trkpt>
      <trkpt lat="49.27684" lon="-0.46205">
        <ele>46</ele>
        <time>2023-04-28T12:11:54Z</time>
      </trkpt>
      <trkpt lat="49.27685" lon="-0.4621">
        <ele>46</ele>
        <time>2023-04-28T12:11:55Z</time>
      </trkpt>
      <trkpt lat="49.27685" lon="-0.46215">
        <ele>46.2</ele>
        <time>2023-04-28T12:11:56Z</time>
      </trkpt>
      <trkpt lat="49.27686" lon="-0.4622">
        <ele>46.2</ele>
        <time>2023-04-28T12:11:57Z</time>
      </trkpt>
      <trkpt lat="49.27686" lon="-0.46226">
        <ele>46.4</ele>
        <time>2023-04-28T12:11:58Z</time>
      </trkpt>
      <trkpt lat="49.27686" lon="-0.46231">
        <ele>46.6</ele>
        <time>2023-04-28T12:11:59Z</time>
      </trkpt>
      <trkpt lat="49.27686" lon="-0.46237">
        <ele>46.8</ele>
        <time>2023-04-28T12:12:00Z</time>
      </trkpt>
      <trkpt lat="49.27687" lon="-0.46242">
        <ele>46.8</ele>
        <time>2023-04-28T12:12:01Z</time>
      </trkpt>
      <trkpt lat="49.27687" lon="-0.46248">
        <ele>47</ele>
        <time>2023-04-28T12:12:02Z</time>
      </trkpt>
      <trkpt lat="49.27687" lon="-0.46253">
        <ele>47</ele>
        <time>2023-04-28T12:12:03Z</time>
      </trkpt>
      <trkpt lat="49.27688" lon="-0.46259">
        <ele>47.2</ele>
        <time>2023-04-28T12:12:04Z</time>
      </trkpt>
      <trkpt lat="49.27688" lon="-0.46264">
        <ele>47.4</ele>
        <time>2023-04-28T12:12:05Z</time>
      </trkpt>
      <trkpt lat="49.27689" lon="-0.4627">
        <ele>47.6</ele>
        <time>2023-04-28T12:12:06Z</time>
      </trkpt>
      <trkpt lat="49.27689" lon="-0.46276">
        <ele>47.8</ele>
        <time>2023-04-28T12:12:07Z</time>
      </trkpt>
      <trkpt lat="49.27689" lon="-0.46281">
        <ele>48</ele>
        <time>2023-04-28T12:12:08Z</time>
      </trkpt>
      <trkpt lat="49.2769" lon="-0.46287">
        <ele>48</ele>
        <time>2023-04-28T12:12:09Z</time>
      </trkpt>
      <trkpt lat="49.2769" lon="-0.46292">
        <ele>48.2</ele>
        <time>2023-04-28T12:12:10Z</time>
      </trkpt>
      <trkpt lat="49.2769" lon="-0.46298">
        <ele>48.2</ele>
        <time>2023-04-28T12:12:11Z</time>
      </trkpt>
      <trkpt lat="49.27691" lon="-0.46304">
        <ele>48.6</ele>
        <time>2023-04-28T12:12:12Z</time>
      </trkpt>
      <trkpt lat="49.27691" lon="-0.46309">
        <ele>48.6</ele>
        <time>2023-04-28T12:12:13Z</time>
      </trkpt>
      <trkpt lat="49.27691" lon="-0.46315">
        <ele>48.8</ele>
        <time>2023-04-28T12:12:14Z</time>
      </trkpt>
      <trkpt lat="49.27692" lon="-0.4632">
        <ele>49</ele>
        <time>2023-04-28T12:12:15Z</time>
      </trkpt>
      <trkpt lat="49.27692" lon="-0.46326">
        <ele>49</ele>
        <time>2023-04-28T12:12:16Z</time>
      </trkpt>
      <trkpt lat="49.27693" lon="-0.46332">
        <ele>49.2</ele>
        <time>2023-04-28T12:12:17Z</time>
      </trkpt>
      <trkpt lat="49.27693" lon="-0.46337">
        <ele>49.2</ele>
        <time>2023-04-28T12:12:18Z</time>
      </trkpt>
      <trkpt lat="49.27693" lon="-0.46343">
        <ele>49.4</ele>
        <time>2023-04-28T12:12:19Z</time>
      </trkpt>
      <trkpt lat="49.27693" lon="-0.46349">
        <ele>49.4</ele>
        <time>2023-04-28T12:12:20Z</time>
      </trkpt>
      <trkpt lat="49.27694" lon="-0.46354">
        <ele>49.6</ele>
        <time>2023-04-28T12:12:21Z</time>
      </trkpt>
      <trkpt lat="49.27694" lon="-0.4636">
        <ele>49.6</ele>
        <time>2023-04-28T12:12:22Z</time>
      </trkpt>
      <trkpt lat="49.27694" lon="-0.46366">
        <ele>49.6</ele>
        <time>2023-04-28T12:12:23Z</time>
      </trkpt>
      <trkpt lat="49.27695" lon="-0.46372">
        <ele>49.6</ele>
        <time>2023-04-28T12:12:24Z</time>
      </trkpt>
      <trkpt lat="49.27695" lon="-0.46377">
        <ele>49.8</ele>
        <time>2023-04-28T12:12:25Z</time>
      </trkpt>
      <trkpt lat="49.27696" lon="-0.46383">
        <ele>49.8</ele>
        <time>2023-04-28T12:12:26Z</time>
      </trkpt>
      <trkpt lat="49.27696" lon="-0.46389">
        <ele>49.8</ele>
        <time>2023-04-28T12:12:27Z</time>
      </trkpt>
      <trkpt lat="49.27696" lon="-0.46395">
        <ele>49.8</ele>
        <time>2023-04-28T12:12:28Z</time>
      </trkpt>
      <trkpt lat="49.27697" lon="-0.464">
        <ele>50</ele>
        <time>2023-04-28T12:12:29Z</time>
      </trkpt>
      <trkpt lat="49.27697" lon="-0.46406">
        <ele>50</ele>
        <time>2023-04-28T12:12:30Z</time>
      </trkpt>
      <trkpt lat="49.27697" lon="-0.46412">
        <ele>50</ele>
        <time>2023-04-28T12:12:31Z</time>
      </trkpt>
      <trkpt lat="49.27697" lon="-0.46417">
        <ele>50</ele>
        <time>2023-04-28T12:12:32Z</time>
      </trkpt>
      <trkpt lat="49.27698" lon="-0.46423">
        <ele>50</ele>
        <time>2023-04-28T12:12:33Z</time>
      </trkpt>
      <trkpt lat="49.27698" lon="-0.46429">
        <ele>50</ele>
        <time>2023-04-28T12:12:34Z</time>
      </trkpt>
      <trkpt lat="49.27698" lon="-0.46434">
        <ele>50</ele>
        <time>2023-04-28T12:12:35Z</time>
      </trkpt>
      <trkpt lat="49.27698" lon="-0.4644">
        <ele>50</ele>
        <time>2023-04-28T12:12:36Z</time>
      </trkpt>
      <trkpt lat="49.27699" lon="-0.46446">
        <ele>50</ele>
        <time>2023-04-28T12:12:37Z</time>
      </trkpt>
      <trkpt lat="49.27699" lon="-0.46452">
        <ele>50</ele>
        <time>2023-04-28T12:12:38Z</time>
      </trkpt>
      <trkpt lat="49.27699" lon="-0.46459">
        <ele>50</ele>
        <time>2023-04-28T12:12:39Z</time>
      </trkpt>
      <trkpt lat="49.277" lon="-0.46465">
        <ele>50</ele>
        <time>2023-04-28T12:12:40Z</time>
      </trkpt>
      <trkpt lat="49.277" lon="-0.46471">
        <ele>50</ele>
        <time>2023-04-28T12:12:41Z</time>
      </trkpt>
      <trkpt lat="49.277" lon="-0.46478">
        <ele>50</ele>
        <time>2023-04-28T12:12:42Z</time>
      </trkpt>
      <trkpt lat="49.27701" lon="-0.46484">
        <ele>50</ele>
        <time>2023-04-28T12:12:43Z</time>
      </trkpt>
      <trkpt lat="49.27701" lon="-0.4649">
        <ele>50</ele>
        <time>2023-04-28T12:12:44Z</time>
      </trkpt>
      <trkpt lat="49.27701" lon="-0.46497">
        <ele>50</ele>
        <time>2023-04-28T12:12:45Z</time>
      </trkpt>
      <trkpt lat="49.27701" lon="-0.46503">
        <ele>50</ele>
        <time>2023-04-28T12:12:46Z</time>
      </trkpt>
      <trkpt lat="49.27702" lon="-0.46509">
        <ele>50</ele>
        <time>2023-04-28T12:12:47Z</time>
      </trkpt>
      <trkpt lat="49.27702" lon="-0.46516">
        <ele>50</ele>
        <time>2023-04-28T12:12:48Z</time>
      </trkpt>
      <trkpt lat="49.27702" lon="-0.46522">
        <ele>50</ele>
        <time>2023-04-28T12:12:49Z</time>
      </trkpt>
      <trkpt lat="49.27703" lon="-0.46529">
        <ele>50</ele>
        <time>2023-04-28T12:12:50Z</time>
      </trkpt>
      <trkpt lat="49.27703" lon="-0.46535">
        <ele>50</ele>
        <time>2023-04-28T12:12:51Z</time>
      </trkpt>
      <trkpt lat="49.27703" lon="-0.46542">
        <ele>50</ele>
        <time>2023-04-28T12:12:52Z</time>
      </trkpt>
      <trkpt lat="49.27704" lon="-0.46548">
        <ele>50</ele>
        <time>2023-04-28T12:12:53Z</time>
      </trkpt>
      <trkpt lat="49.27704" lon="-0.46555">
        <ele>50</ele>
        <time>2023-04-28T12:12:54Z</time>
      </trkpt>
      <trkpt lat="49.27704" lon="-0.46562">
        <ele>50</ele>
        <time>2023-04-28T12:12:55Z</time>
      </trkpt>
      <trkpt lat="49.27705" lon="-0.46569">
        <ele>50</ele>
        <time>2023-04-28T12:12:56Z</time>
      </trkpt>
      <trkpt lat="49.27705" lon="-0.46576">
        <ele>50</ele>
        <time>2023-04-28T12:12:57Z</time>
      </trkpt>
      <trkpt lat="49.27706" lon="-0.46583">
        <ele>50</ele>
        <time>2023-04-28T12:12:58Z</time>
      </trkpt>
      <trkpt lat="49.27706" lon="-0.46591">
        <ele>50</ele>
        <time>2023-04-28T12:12:59Z</time>
      </trkpt>
      <trkpt lat="49.27707" lon="-0.46598">
        <ele>50</ele>
        <time>2023-04-28T12:13:00Z</time>
      </trkpt>
      <trkpt lat="49.27707" lon="-0.46605">
        <ele>50</ele>
        <time>2023-04-28T12:13:01Z</time>
      </trkpt>
      <trkpt lat="49.27708" lon="-0.46612">
        <ele>50.2</ele>
        <time>2023-04-28T12:13:02Z</time>
      </trkpt>
      <trkpt lat="49.27708" lon="-0.46619">
        <ele>50.2</ele>
        <time>2023-04-28T12:13:03Z</time>
      </trkpt>
      <trkpt lat="49.27709" lon="-0.46626">
        <ele>50.2</ele>
        <time>2023-04-28T12:13:04Z</time>
      </trkpt>
      <trkpt lat="49.27709" lon="-0.46633">
        <ele>50.2</ele>
        <time>2023-04-28T12:13:05Z</time>
      </trkpt>
      <trkpt lat="49.2771" lon="-0.4664">
        <ele>50.2</ele>
        <time>2023-04-28T12:13:06Z</time>
      </trkpt>
      <trkpt lat="49.2771" lon="-0.46647">
        <ele>50.4</ele>
        <time>2023-04-28T12:13:07Z</time>
      </trkpt>
      <trkpt lat="49.27711" lon="-0.46654">
        <ele>50.4</ele>
        <time>2023-04-28T12:13:08Z</time>
      </trkpt>
      <trkpt lat="49.27712" lon="-0.46661">
        <ele>50.4</ele>
        <time>2023-04-28T12:13:09Z</time>
      </trkpt>
      <trkpt lat="49.27712" lon="-0.46668">
        <ele>50.6</ele>
        <time>2023-04-28T12:13:10Z</time>
      </trkpt>
      <trkpt lat="49.27713" lon="-0.46674">
        <ele>50.4</ele>
        <time>2023-04-28T12:13:11Z</time>
      </trkpt>
      <trkpt lat="49.27713" lon="-0.46681">
        <ele>50.4</ele>
        <time>2023-04-28T12:13:12Z</time>
      </trkpt>
      <trkpt lat="49.27714" lon="-0.46688">
        <ele>50.4</ele>
        <time>2023-04-28T12:13:13Z</time>
      </trkpt>
      <trkpt lat="49.27715" lon="-0.46695">
        <ele>50.4</ele>
        <time>2023-04-28T12:13:14Z</time>
      </trkpt>
      <trkpt lat="49.27716" lon="-0.46702">
        <ele>50.4</ele>
        <time>2023-04-28T12:13:15Z</time>
      </trkpt>
      <trkpt lat="49.27716" lon="-0.46708">
        <ele>50.4</ele>
        <time>2023-04-28T12:13:16Z</time>
      </trkpt>
      <trkpt lat="49.27717" lon="-0.46715">
        <ele>50.4</ele>
        <time>2023-04-28T12:13:17Z</time>
      </trkpt>
      <trkpt lat="49.27718" lon="-0.46722">
        <ele>50.4</ele>
        <time>2023-04-28T12:13:18Z</time>
      </trkpt>
      <trkpt lat="49.27718" lon="-0.46729">
        <ele>50.4</ele>
        <time>2023-04-28T12:13:19Z</time>
      </trkpt>
      <trkpt lat="49.27719" lon="-0.46736">
        <ele>50.4</ele>
        <time>2023-04-28T12:13:20Z</time>
      </trkpt>
      <trkpt lat="49.2772" lon="-0.46742">
        <ele>50.4</ele>
        <time>2023-04-28T12:13:21Z</time>
      </trkpt>
      <trkpt lat="49.27721" lon="-0.46749">
        <ele>50.4</ele>
        <time>2023-04-28T12:13:22Z</time>
      </trkpt>
      <trkpt lat="49.27722" lon="-0.46756">
        <ele>50.4</ele>
        <time>2023-04-28T12:13:23Z</time>
      </trkpt>
      <trkpt lat="49.27722" lon="-0.46763">
        <ele>50.4</ele>
        <time>2023-04-28T12:13:24Z</time>
      </trkpt>
      <trkpt lat="49.27723" lon="-0.4677">
        <ele>50.4</ele>
        <time>2023-04-28T12:13:25Z</time>
      </trkpt>
      <trkpt lat="49.27724" lon="-0.46776">
        <ele>50.4</ele>
        <time>2023-04-28T12:13:26Z</time>
      </trkpt>
      <trkpt lat="49.27725" lon="-0.46783">
        <ele>50.6</ele>
        <time>2023-04-28T12:13:27Z</time>
      </trkpt>
      <trkpt lat="49.27726" lon="-0.4679">
        <ele>50.6</ele>
        <time>2023-04-28T12:13:28Z</time>
      </trkpt>
      <trkpt lat="49.27727" lon="-0.46797">
        <ele>50.6</ele>
        <time>2023-04-28T12:13:29Z</time>
      </trkpt>
      <trkpt lat="49.27729" lon="-0.46804">
        <ele>50.6</ele>
        <time>2023-04-28T12:13:30Z</time>
      </trkpt>
      <trkpt lat="49.2773" lon="-0.46811">
        <ele>50.6</ele>
        <time>2023-04-28T12:13:31Z</time>
      </trkpt>
      <trkpt lat="49.27731" lon="-0.46818">
        <ele>50.8</ele>
        <time>2023-04-28T12:13:32Z</time>
      </trkpt>
      <trkpt lat="49.27732" lon="-0.46824">
        <ele>50.8</ele>
        <time>2023-04-28T12:13:33Z</time>
      </trkpt>
      <trkpt lat="49.27733" lon="-0.46831">
        <ele>50.8</ele>
        <time>2023-04-28T12:13:34Z</time>
      </trkpt>
      <trkpt lat="49.27735" lon="-0.46838">
        <ele>50.8</ele>
        <time>2023-04-28T12:13:35Z</time>
      </trkpt>
      <trkpt lat="49.27736" lon="-0.46845">
        <ele>50.8</ele>
        <time>2023-04-28T12:13:36Z</time>
      </trkpt>
      <trkpt lat="49.27738" lon="-0.46852">
        <ele>50.8</ele>
        <time>2023-04-28T12:13:37Z</time>
      </trkpt>
      <trkpt lat="49.27739" lon="-0.46859">
        <ele>50.6</ele>
        <time>2023-04-28T12:13:38Z</time>
      </trkpt>
      <trkpt lat="49.2774" lon="-0.46867">
        <ele>50.6</ele>
        <time>2023-04-28T12:13:39Z</time>
      </trkpt>
      <trkpt lat="49.27742" lon="-0.46874">
        <ele>50.6</ele>
        <time>2023-04-28T12:13:40Z</time>
      </trkpt>
      <trkpt lat="49.27743" lon="-0.46882">
        <ele>50.4</ele>
        <time>2023-04-28T12:13:41Z</time>
      </trkpt>
      <trkpt lat="49.27745" lon="-0.46889">
        <ele>50.4</ele>
        <time>2023-04-28T12:13:42Z</time>
      </trkpt>
      <trkpt lat="49.27746" lon="-0.46897">
        <ele>50.2</ele>
        <time>2023-04-28T12:13:43Z</time>
      </trkpt>
      <trkpt lat="49.27748" lon="-0.46904">
        <ele>50.2</ele>
        <time>2023-04-28T12:13:44Z</time>
      </trkpt>
      <trkpt lat="49.27749" lon="-0.46911">
        <ele>50</ele>
        <time>2023-04-28T12:13:45Z</time>
      </trkpt>
      <trkpt lat="49.27751" lon="-0.46919">
        <ele>50</ele>
        <time>2023-04-28T12:13:46Z</time>
      </trkpt>
      <trkpt lat="49.27752" lon="-0.46926">
        <ele>50</ele>
        <time>2023-04-28T12:13:47Z</time>
      </trkpt>
      <trkpt lat="49.27753" lon="-0.46933">
        <ele>50.2</ele>
        <time>2023-04-28T12:13:48Z</time>
      </trkpt>
      <trkpt lat="49.27755" lon="-0.4694">
        <ele>50.2</ele>
        <time>2023-04-28T12:13:49Z</time>
      </trkpt>
      <trkpt lat="49.27756" lon="-0.46947">
        <ele>50.2</ele>
        <time>2023-04-28T12:13:50Z</time>
      </trkpt>
      <trkpt lat="49.27757" lon="-0.46954">
        <ele>50.4</ele>
        <time>2023-04-28T12:13:51Z</time>
      </trkpt>
      <trkpt lat="49.27759" lon="-0.46961">
        <ele>50.6</ele>
        <time>2023-04-28T12:13:52Z</time>
      </trkpt>
      <trkpt lat="49.2776" lon="-0.46968">
        <ele>50.6</ele>
        <time>2023-04-28T12:13:53Z</time>
      </trkpt>
      <trkpt lat="49.27761" lon="-0.46975">
        <ele>50.6</ele>
        <time>2023-04-28T12:13:54Z</time>
      </trkpt>
      <trkpt lat="49.27762" lon="-0.46982">
        <ele>50.8</ele>
        <time>2023-04-28T12:13:55Z</time>
      </trkpt>
      <trkpt lat="49.27764" lon="-0.46989">
        <ele>50.8</ele>
        <time>2023-04-28T12:13:56Z</time>
      </trkpt>
      <trkpt lat="49.27765" lon="-0.46996">
        <ele>50.8</ele>
        <time>2023-04-28T12:13:57Z</time>
      </trkpt>
      <trkpt lat="49.27766" lon="-0.47003">
        <ele>50.8</ele>
        <time>2023-04-28T12:13:58Z</time>
      </trkpt>
      <trkpt lat="49.27768" lon="-0.4701">
        <ele>51</ele>
        <time>2023-04-28T12:13:59Z</time>
      </trkpt>
      <trkpt lat="49.27769" lon="-0.47017">
        <ele>51</ele>
        <time>2023-04-28T12:14:00Z</time>
      </trkpt>
      <trkpt lat="49.2777" lon="-0.47024">
        <ele>51</ele>
        <time>2023-04-28T12:14:01Z</time>
      </trkpt>
      <trkpt lat="49.27771" lon="-0.47031">
        <ele>51</ele>
        <time>2023-04-28T12:14:02Z</time>
      </trkpt>
      <trkpt lat="49.27773" lon="-0.47038">
        <ele>51.2</ele>
        <time>2023-04-28T12:14:03Z</time>
      </trkpt>
      <trkpt lat="49.27774" lon="-0.47044">
        <ele>51.2</ele>
        <time>2023-04-28T12:14:04Z</time>
      </trkpt>
      <trkpt lat="49.27775" lon="-0.47051">
        <ele>51.2</ele>
        <time>2023-04-28T12:14:05Z</time>
      </trkpt>
      <trkpt lat="49.27776" lon="-0.47058">
        <ele>51.4</ele>
        <time>2023-04-28T12:14:06Z</time>
      </trkpt>
      <trkpt lat="49.27777" lon="-0.47065">
        <ele>51.6</ele>
        <time>2023-04-28T12:14:07Z</time>
      </trkpt>
      <trkpt lat="49.27778" lon="-0.47072">
        <ele>51.6</ele>
        <time>2023-04-28T12:14:08Z</time>
      </trkpt>
      <trkpt lat="49.27779" lon="-0.47079">
        <ele>51.6</ele>
        <time>2023-04-28T12:14:09Z</time>
      </trkpt>
      <trkpt lat="49.2778" lon="-0.47086">
        <ele>51.6</ele>
        <time>2023-04-28T12:14:10Z</time>
      </trkpt>
      <trkpt lat="49.27781" lon="-0.47093">
        <ele>51.6</ele>
        <time>2023-04-28T12:14:11Z</time>
      </trkpt>
      <trkpt lat="49.27782" lon="-0.471">
        <ele>51.4</ele>
        <time>2023-04-28T12:14:12Z</time>
      </trkpt>
      <trkpt lat="49.27783" lon="-0.47108">
        <ele>51.2</ele>
        <time>2023-04-28T12:14:13Z</time>
      </trkpt>
      <trkpt lat="49.27783" lon="-0.47115">
        <ele>51.2</ele>
        <time>2023-04-28T12:14:14Z</time>
      </trkpt>
      <trkpt lat="49.27784" lon="-0.47122">
        <ele>51</ele>
        <time>2023-04-28T12:14:15Z</time>
      </trkpt>
      <trkpt lat="49.27785" lon="-0.47129">
        <ele>51</ele>
        <time>2023-04-28T12:14:16Z</time>
      </trkpt>
      <trkpt lat="49.27785" lon="-0.47136">
        <ele>51</ele>
        <time>2023-04-28T12:14:17Z</time>
      </trkpt>
      <trkpt lat="49.27785" lon="-0.47144">
        <ele>51</ele>
        <time>2023-04-28T12:14:18Z</time>
      </trkpt>
      <trkpt lat="49.27785" lon="-0.47151">
        <ele>50.8</ele>
        <time>2023-04-28T12:14:19Z</time>
      </trkpt>
      <trkpt lat="49.27785" lon="-0.47159">
        <ele>50.8</ele>
        <time>2023-04-28T12:14:20Z</time>
      </trkpt>
      <trkpt lat="49.27785" lon="-0.47166">
        <ele>50.6</ele>
        <time>2023-04-28T12:14:21Z</time>
      </trkpt>
      <trkpt lat="49.27785" lon="-0.47174">
        <ele>50.8</ele>
        <time>2023-04-28T12:14:22Z</time>
      </trkpt>
      <trkpt lat="49.27784" lon="-0.47181">
        <ele>50.8</ele>
        <time>2023-04-28T12:14:23Z</time>
      </trkpt>
      <trkpt lat="49.27784" lon="-0.47188">
        <ele>51</ele>
        <time>2023-04-28T12:14:24Z</time>
      </trkpt>
      <trkpt lat="49.27783" lon="-0.47196">
        <ele>51</ele>
        <time>2023-04-28T12:14:25Z</time>
      </trkpt>
      <trkpt lat="49.27782" lon="-0.47203">
        <ele>51</ele>
        <time>2023-04-28T12:14:26Z</time>
      </trkpt>
      <trkpt lat="49.27781" lon="-0.47211">
        <ele>51.2</ele>
        <time>2023-04-28T12:14:27Z</time>
      </trkpt>
      <trkpt lat="49.2778" lon="-0.47218">
        <ele>51.2</ele>
        <time>2023-04-28T12:14:28Z</time>
      </trkpt>
      <trkpt lat="49.27778" lon="-0.47225">
        <ele>51.4</ele>
        <time>2023-04-28T12:14:29Z</time>
      </trkpt>
      <trkpt lat="49.27777" lon="-0.47233">
        <ele>51.6</ele>
        <time>2023-04-28T12:14:30Z</time>
      </trkpt>
      <trkpt lat="49.27775" lon="-0.4724">
        <ele>51.6</ele>
        <time>2023-04-28T12:14:31Z</time>
      </trkpt>
      <trkpt lat="49.27774" lon="-0.47247">
        <ele>51.8</ele>
        <time>2023-04-28T12:14:32Z</time>
      </trkpt>
      <trkpt lat="49.27772" lon="-0.47254">
        <ele>51.8</ele>
        <time>2023-04-28T12:14:33Z</time>
      </trkpt>
      <trkpt lat="49.27771" lon="-0.47262">
        <ele>51.6</ele>
        <time>2023-04-28T12:14:34Z</time>
      </trkpt>
      <trkpt lat="49.27769" lon="-0.47269">
        <ele>51.6</ele>
        <time>2023-04-28T12:14:35Z</time>
      </trkpt>
      <trkpt lat="49.27767" lon="-0.47276">
        <ele>51.6</ele>
        <time>2023-04-28T12:14:36Z</time>
      </trkpt>
      <trkpt lat="49.27765" lon="-0.47284">
        <ele>51.6</ele>
        <time>2023-04-28T12:14:37Z</time>
      </trkpt>
      <trkpt lat="49.27763" lon="-0.47291">
        <ele>51.4</ele>
        <time>2023-04-28T12:14:38Z</time>
      </trkpt>
      <trkpt lat="49.27761" lon="-0.47298">
        <ele>51.4</ele>
        <time>2023-04-28T12:14:39Z</time>
      </trkpt>
      <trkpt lat="49.27759" lon="-0.47305">
        <ele>51.2</ele>
        <time>2023-04-28T12:14:40Z</time>
      </trkpt>
      <trkpt lat="49.27757" lon="-0.47312">
        <ele>51.2</ele>
        <time>2023-04-28T12:14:41Z</time>
      </trkpt>
      <trkpt lat="49.27755" lon="-0.47319">
        <ele>51.2</ele>
        <time>2023-04-28T12:14:42Z</time>
      </trkpt>
      <trkpt lat="49.27753" lon="-0.47326">
        <ele>51</ele>
        <time>2023-04-28T12:14:43Z</time>
      </trkpt>
      <trkpt lat="49.27752" lon="-0.47333">
        <ele>51</ele>
        <time>2023-04-28T12:14:44Z</time>
      </trkpt>
      <trkpt lat="49.2775" lon="-0.4734">
        <ele>51.2</ele>
        <time>2023-04-28T12:14:45Z</time>
      </trkpt>
      <trkpt lat="49.27748" lon="-0.47347">
        <ele>51.4</ele>
        <time>2023-04-28T12:14:46Z</time>
      </trkpt>
      <trkpt lat="49.27746" lon="-0.47354">
        <ele>51.6</ele>
        <time>2023-04-28T12:14:47Z</time>
      </trkpt>
      <trkpt lat="49.27745" lon="-0.47361">
        <ele>51.8</ele>
        <time>2023-04-28T12:14:48Z</time>
      </trkpt>
      <trkpt lat="49.27744" lon="-0.47368">
        <ele>52</ele>
        <time>2023-04-28T12:14:49Z</time>
      </trkpt>
      <trkpt lat="49.27743" lon="-0.47375">
        <ele>52.2</ele>
        <time>2023-04-28T12:14:50Z</time>
      </trkpt>
      <trkpt lat="49.27742" lon="-0.47382">
        <ele>52.4</ele>
        <time>2023-04-28T12:14:51Z</time>
      </trkpt>
      <trkpt lat="49.27741" lon="-0.4739">
        <ele>52.6</ele>
        <time>2023-04-28T12:14:52Z</time>
      </trkpt>
      <trkpt lat="49.2774" lon="-0.47397">
        <ele>52.8</ele>
        <time>2023-04-28T12:14:53Z</time>
      </trkpt>
      <trkpt lat="49.2774" lon="-0.47404">
        <ele>53</ele>
        <time>2023-04-28T12:14:54Z</time>
      </trkpt>
      <trkpt lat="49.27739" lon="-0.47412">
        <ele>53.2</ele>
        <time>2023-04-28T12:14:55Z</time>
      </trkpt>
      <trkpt lat="49.27739" lon="-0.4742">
        <ele>53.2</ele>
        <time>2023-04-28T12:14:56Z</time>
      </trkpt>
      <trkpt lat="49.27739" lon="-0.47428">
        <ele>53</ele>
        <time>2023-04-28T12:14:57Z</time>
      </trkpt>
      <trkpt lat="49.27739" lon="-0.47436">
        <ele>53</ele>
        <time>2023-04-28T12:14:58Z</time>
      </trkpt>
      <trkpt lat="49.27739" lon="-0.47443">
        <ele>53</ele>
        <time>2023-04-28T12:14:59Z</time>
      </trkpt>
      <trkpt lat="49.27738" lon="-0.47451">
        <ele>53</ele>
        <time>2023-04-28T12:15:00Z</time>
      </trkpt>
      <trkpt lat="49.27738" lon="-0.4746">
        <ele>52.8</ele>
        <time>2023-04-28T12:15:01Z</time>
      </trkpt>
      <trkpt lat="49.27738" lon="-0.47468">
        <ele>52.8</ele>
        <time>2023-04-28T12:15:02Z</time>
      </trkpt>
      <trkpt lat="49.27738" lon="-0.47476">
        <ele>52.6</ele>
        <time>2023-04-28T12:15:03Z</time>
      </trkpt>
      <trkpt lat="49.27738" lon="-0.47484">
        <ele>52.6</ele>
        <time>2023-04-28T12:15:04Z</time>
      </trkpt>
      <trkpt lat="49.27738" lon="-0.47492">
        <ele>52.4</ele>
        <time>2023-04-28T12:15:05Z</time>
      </trkpt>
      <trkpt lat="49.27738" lon="-0.475">
        <ele>52.2</ele>
        <time>2023-04-28T12:15:06Z</time>
      </trkpt>
      <trkpt lat="49.27738" lon="-0.47508">
        <ele>52.2</ele>
        <time>2023-04-28T12:15:07Z</time>
      </trkpt>
      <trkpt lat="49.27737" lon="-0.47516">
        <ele>52</ele>
        <time>2023-04-28T12:15:08Z</time>
      </trkpt>
      <trkpt lat="49.27737" lon="-0.47525">
        <ele>52</ele>
        <time>2023-04-28T12:15:09Z</time>
      </trkpt>
      <trkpt lat="49.27737" lon="-0.47533">
        <ele>52</ele>
        <time>2023-04-28T12:15:10Z</time>
      </trkpt>
      <trkpt lat="49.27737" lon="-0.47541">
        <ele>51.8</ele>
        <time>2023-04-28T12:15:11Z</time>
      </trkpt>
      <trkpt lat="49.27736" lon="-0.47549">
        <ele>51.8</ele>
        <time>2023-04-28T12:15:12Z</time>
      </trkpt>
      <trkpt lat="49.27736" lon="-0.47557">
        <ele>51.8</ele>
        <time>2023-04-28T12:15:13Z</time>
      </trkpt>
      <trkpt lat="49.27735" lon="-0.47565">
        <ele>51.6</ele>
        <time>2023-04-28T12:15:14Z</time>
      </trkpt>
      <trkpt lat="49.27735" lon="-0.47573">
        <ele>51.6</ele>
        <time>2023-04-28T12:15:15Z</time>
      </trkpt>
      <trkpt lat="49.27734" lon="-0.47581">
        <ele>51.4</ele>
        <time>2023-04-28T12:15:16Z</time>
      </trkpt>
      <trkpt lat="49.27734" lon="-0.47588">
        <ele>51.4</ele>
        <time>2023-04-28T12:15:17Z</time>
      </trkpt>
      <trkpt lat="49.27733" lon="-0.47596">
        <ele>51.6</ele>
        <time>2023-04-28T12:15:18Z</time>
      </trkpt>
      <trkpt lat="49.27732" lon="-0.47604">
        <ele>51.6</ele>
        <time>2023-04-28T12:15:19Z</time>
      </trkpt>
      <trkpt lat="49.27732" lon="-0.47612">
        <ele>51.8</ele>
        <time>2023-04-28T12:15:20Z</time>
      </trkpt>
      <trkpt lat="49.27731" lon="-0.47619">
        <ele>51.8</ele>
        <time>2023-04-28T12:15:21Z</time>
      </trkpt>
      <trkpt lat="49.2773" lon="-0.47627">
        <ele>52</ele>
        <time>2023-04-28T12:15:22Z</time>
      </trkpt>
      <trkpt lat="49.27729" lon="-0.47634">
        <ele>52</ele>
        <time>2023-04-28T12:15:23Z</time>
      </trkpt>
      <trkpt lat="49.27728" lon="-0.47642">
        <ele>52</ele>
        <time>2023-04-28T12:15:24Z</time>
      </trkpt>
      <trkpt lat="49.27727" lon="-0.47649">
        <ele>52</ele>
        <time>2023-04-28T12:15:25Z</time>
      </trkpt>
      <trkpt lat="49.27726" lon="-0.47656">
        <ele>52.2</ele>
        <time>2023-04-28T12:15:26Z</time>
      </trkpt>
      <trkpt lat="49.27725" lon="-0.47664">
        <ele>52.2</ele>
        <time>2023-04-28T12:15:27Z</time>
      </trkpt>
      <trkpt lat="49.27724" lon="-0.47671">
        <ele>52.4</ele>
        <time>2023-04-28T12:15:28Z</time>
      </trkpt>
      <trkpt lat="49.27723" lon="-0.47678">
        <ele>52.6</ele>
        <time>2023-04-28T12:15:29Z</time>
      </trkpt>
      <trkpt lat="49.27722" lon="-0.47686">
        <ele>52.6</ele>
        <time>2023-04-28T12:15:30Z</time>
      </trkpt>
      <trkpt lat="49.27721" lon="-0.47693">
        <ele>52.8</ele>
        <time>2023-04-28T12:15:31Z</time>
      </trkpt>
      <trkpt lat="49.2772" lon="-0.477">
        <ele>53</ele>
        <time>2023-04-28T12:15:32Z</time>
      </trkpt>
      <trkpt lat="49.27719" lon="-0.47707">
        <ele>53</ele>
        <time>2023-04-28T12:15:33Z</time>
      </trkpt>
      <trkpt lat="49.27718" lon="-0.47715">
        <ele>53.2</ele>
        <time>2023-04-28T12:15:34Z</time>
      </trkpt>
      <trkpt lat="49.27717" lon="-0.47722">
        <ele>53.2</ele>
        <time>2023-04-28T12:15:35Z</time>
      </trkpt>
      <trkpt lat="49.27716" lon="-0.47729">
        <ele>53.6</ele>
        <time>2023-04-28T12:15:36Z</time>
      </trkpt>
      <trkpt lat="49.27715" lon="-0.47736">
        <ele>53.6</ele>
        <time>2023-04-28T12:15:37Z</time>
      </trkpt>
      <trkpt lat="49.27714" lon="-0.47743">
        <ele>53.8</ele>
        <time>2023-04-28T12:15:38Z</time>
      </trkpt>
      <trkpt lat="49.27713" lon="-0.47751">
        <ele>54</ele>
        <time>2023-04-28T12:15:39Z</time>
      </trkpt>
      <trkpt lat="49.27712" lon="-0.47758">
        <ele>54</ele>
        <time>2023-04-28T12:15:40Z</time>
      </trkpt>
      <trkpt lat="49.2771" lon="-0.47765">
        <ele>54</ele>
        <time>2023-04-28T12:15:41Z</time>
      </trkpt>
      <trkpt lat="49.27709" lon="-0.47772">
        <ele>54</ele>
        <time>2023-04-28T12:15:42Z</time>
      </trkpt>
      <trkpt lat="49.27708" lon="-0.4778">
        <ele>54.2</ele>
        <time>2023-04-28T12:15:43Z</time>
      </trkpt>
      <trkpt lat="49.27707" lon="-0.47787">
        <ele>54.2</ele>
        <time>2023-04-28T12:15:44Z</time>
      </trkpt>
      <trkpt lat="49.27706" lon="-0.47794">
        <ele>54.2</ele>
        <time>2023-04-28T12:15:45Z</time>
      </trkpt>
      <trkpt lat="49.27705" lon="-0.47801">
        <ele>54.4</ele>
        <time>2023-04-28T12:15:46Z</time>
      </trkpt>
      <trkpt lat="49.27704" lon="-0.47809">
        <ele>54.4</ele>
        <time>2023-04-28T12:15:47Z</time>
      </trkpt>
      <trkpt lat="49.27703" lon="-0.47816">
        <ele>54.6</ele>
        <time>2023-04-28T12:15:48Z</time>
      </trkpt>
      <trkpt lat="49.27701" lon="-0.47823">
        <ele>54.6</ele>
        <time>2023-04-28T12:15:49Z</time>
      </trkpt>
      <trkpt lat="49.277" lon="-0.47831">
        <ele>54.6</ele>
        <time>2023-04-28T12:15:50Z</time>
      </trkpt>
      <trkpt lat="49.27699" lon="-0.47838">
        <ele>54.6</ele>
        <time>2023-04-28T12:15:51Z</time>
      </trkpt>
      <trkpt lat="49.27698" lon="-0.47845">
        <ele>54.6</ele>
        <time>2023-04-28T12:15:52Z</time>
      </trkpt>
      <trkpt lat="49.27697" lon="-0.47853">
        <ele>54.6</ele>
        <time>2023-04-28T12:15:53Z</time>
      </trkpt>
      <trkpt lat="49.27696" lon="-0.4786">
        <ele>54.4</ele>
        <time>2023-04-28T12:15:54Z</time>
      </trkpt>
      <trkpt lat="49.27694" lon="-0.47867">
        <ele>54.4</ele>
        <time>2023-04-28T12:15:55Z</time>
      </trkpt>
      <trkpt lat="49.27693" lon="-0.47874">
        <ele>54.4</ele>
        <time>2023-04-28T12:15:56Z</time>
      </trkpt>
      <trkpt lat="49.27691" lon="-0.47881">
        <ele>54.2</ele>
        <time>2023-04-28T12:15:57Z</time>
      </trkpt>
      <trkpt lat="49.2769" lon="-0.47888">
        <ele>54.2</ele>
        <time>2023-04-28T12:15:58Z</time>
      </trkpt>
      <trkpt lat="49.27689" lon="-0.47895">
        <ele>54.2</ele>
        <time>2023-04-28T12:15:59Z</time>
      </trkpt>
      <trkpt lat="49.27687" lon="-0.47902">
        <ele>54</ele>
        <time>2023-04-28T12:16:00Z</time>
      </trkpt>
      <trkpt lat="49.27686" lon="-0.47909">
        <ele>54</ele>
        <time>2023-04-28T12:16:01Z</time>
      </trkpt>
      <trkpt lat="49.27684" lon="-0.47915">
        <ele>54</ele>
        <time>2023-04-28T12:16:02Z</time>
      </trkpt>
      <trkpt lat="49.27682" lon="-0.47923">
        <ele>54</ele>
        <time>2023-04-28T12:16:03Z</time>
      </trkpt>
      <trkpt lat="49.27681" lon="-0.47929">
        <ele>54</ele>
        <time>2023-04-28T12:16:04Z</time>
      </trkpt>
      <trkpt lat="49.27679" lon="-0.47937">
        <ele>54</ele>
        <time>2023-04-28T12:16:05Z</time>
      </trkpt>
      <trkpt lat="49.27677" lon="-0.47944">
        <ele>54</ele>
        <time>2023-04-28T12:16:06Z</time>
      </trkpt>
      <trkpt lat="49.27676" lon="-0.47951">
        <ele>54</ele>
        <time>2023-04-28T12:16:07Z</time>
      </trkpt>
      <trkpt lat="49.27674" lon="-0.47958">
        <ele>54</ele>
        <time>2023-04-28T12:16:08Z</time>
      </trkpt>
      <trkpt lat="49.27672" lon="-0.47964">
        <ele>54</ele>
        <time>2023-04-28T12:16:09Z</time>
      </trkpt>
      <trkpt lat="49.2767" lon="-0.47971">
        <ele>54</ele>
        <time>2023-04-28T12:16:10Z</time>
      </trkpt>
      <trkpt lat="49.27668" lon="-0.47978">
        <ele>54</ele>
        <time>2023-04-28T12:16:11Z</time>
      </trkpt>
      <trkpt lat="49.27667" lon="-0.47985">
        <ele>54</ele>
        <time>2023-04-28T12:16:12Z</time>
      </trkpt>
      <trkpt lat="49.27665" lon="-0.47992">
        <ele>54</ele>
        <time>2023-04-28T12:16:13Z</time>
      </trkpt>
      <trkpt lat="49.27663" lon="-0.47998">
        <ele>54</ele>
        <time>2023-04-28T12:16:14Z</time>
      </trkpt>
      <trkpt lat="49.27661" lon="-0.48005">
        <ele>54</ele>
        <time>2023-04-28T12:16:15Z</time>
      </trkpt>
      <trkpt lat="49.27659" lon="-0.48012">
        <ele>54</ele>
        <time>2023-04-28T12:16:16Z</time>
      </trkpt>
      <trkpt lat="49.27657" lon="-0.48018">
        <ele>54.2</ele>
        <time>2023-04-28T12:16:17Z</time>
      </trkpt>
      <trkpt lat="49.27655" lon="-0.48025">
        <ele>54.2</ele>
        <time>2023-04-28T12:16:18Z</time>
      </trkpt>
      <trkpt lat="49.27653" lon="-0.48031">
        <ele>54.2</ele>
        <time>2023-04-28T12:16:19Z</time>
      </trkpt>
      <trkpt lat="49.27651" lon="-0.48038">
        <ele>54.4</ele>
        <time>2023-04-28T12:16:20Z</time>
      </trkpt>
      <trkpt lat="49.27649" lon="-0.48044">
        <ele>54.4</ele>
        <time>2023-04-28T12:16:21Z</time>
      </trkpt>
      <trkpt lat="49.27647" lon="-0.4805">
        <ele>54.6</ele>
        <time>2023-04-28T12:16:22Z</time>
      </trkpt>
      <trkpt lat="49.27644" lon="-0.48056">
        <ele>54.6</ele>
        <time>2023-04-28T12:16:23Z</time>
      </trkpt>
      <trkpt lat="49.27642" lon="-0.48062">
        <ele>54.6</ele>
        <time>2023-04-28T12:16:24Z</time>
      </trkpt>
      <trkpt lat="49.27639" lon="-0.48068">
        <ele>54.6</ele>
        <time>2023-04-28T12:16:25Z</time>
      </trkpt>
      <trkpt lat="49.27637" lon="-0.48074">
        <ele>54.6</ele>
        <time>2023-04-28T12:16:26Z</time>
      </trkpt>
      <trkpt lat="49.27634" lon="-0.4808">
        <ele>54.6</ele>
        <time>2023-04-28T12:16:27Z</time>
      </trkpt>
      <trkpt lat="49.27631" lon="-0.48085">
        <ele>54.6</ele>
        <time>2023-04-28T12:16:28Z</time>
      </trkpt>
      <trkpt lat="49.27628" lon="-0.4809">
        <ele>54.6</ele>
        <time>2023-04-28T12:16:29Z</time>
      </trkpt>
      <trkpt lat="49.27625" lon="-0.48096">
        <ele>54.6</ele>
        <time>2023-04-28T12:16:30Z</time>
      </trkpt>
      <trkpt lat="49.27622" lon="-0.48101">
        <ele>54.6</ele>
        <time>2023-04-28T12:16:31Z</time>
      </trkpt>
      <trkpt lat="49.27619" lon="-0.48106">
        <ele>54.4</ele>
        <time>2023-04-28T12:16:32Z</time>
      </trkpt>
      <trkpt lat="49.27616" lon="-0.48111">
        <ele>54.4</ele>
        <time>2023-04-28T12:16:33Z</time>
      </trkpt>
      <trkpt lat="49.27613" lon="-0.48116">
        <ele>54.4</ele>
        <time>2023-04-28T12:16:34Z</time>
      </trkpt>
      <trkpt lat="49.2761" lon="-0.48121">
        <ele>54.2</ele>
        <time>2023-04-28T12:16:35Z</time>
      </trkpt>
      <trkpt lat="49.27607" lon="-0.48127">
        <ele>54.2</ele>
        <time>2023-04-28T12:16:36Z</time>
      </trkpt>
      <trkpt lat="49.27604" lon="-0.48132">
        <ele>54.2</ele>
        <time>2023-04-28T12:16:37Z</time>
      </trkpt>
      <trkpt lat="49.27601" lon="-0.48137">
        <ele>54.2</ele>
        <time>2023-04-28T12:16:38Z</time>
      </trkpt>
      <trkpt lat="49.27598" lon="-0.48142">
        <ele>54.2</ele>
        <time>2023-04-28T12:16:39Z</time>
      </trkpt>
      <trkpt lat="49.27595" lon="-0.48147">
        <ele>54</ele>
        <time>2023-04-28T12:16:40Z</time>
      </trkpt>
      <trkpt lat="49.27592" lon="-0.48152">
        <ele>54</ele>
        <time>2023-04-28T12:16:41Z</time>
      </trkpt>
      <trkpt lat="49.27589" lon="-0.48157">
        <ele>54</ele>
        <time>2023-04-28T12:16:42Z</time>
      </trkpt>
      <trkpt lat="49.27586" lon="-0.48162">
        <ele>54</ele>
        <time>2023-04-28T12:16:43Z</time>
      </trkpt>
      <trkpt lat="49.27583" lon="-0.48167">
        <ele>54</ele>
        <time>2023-04-28T12:16:44Z</time>
      </trkpt>
      <trkpt lat="49.27581" lon="-0.48172">
        <ele>54</ele>
        <time>2023-04-28T12:16:45Z</time>
      </trkpt>
      <trkpt lat="49.27578" lon="-0.48177">
        <ele>54</ele>
        <time>2023-04-28T12:16:46Z</time>
      </trkpt>
      <trkpt lat="49.27575" lon="-0.48182">
        <ele>54</ele>
        <time>2023-04-28T12:16:47Z</time>
      </trkpt>
      <trkpt lat="49.27572" lon="-0.48187">
        <ele>54</ele>
        <time>2023-04-28T12:16:48Z</time>
      </trkpt>
      <trkpt lat="49.27569" lon="-0.48192">
        <ele>54</ele>
        <time>2023-04-28T12:16:49Z</time>
      </trkpt>
      <trkpt lat="49.27566" lon="-0.48198">
        <ele>54</ele>
        <time>2023-04-28T12:16:50Z</time>
      </trkpt>
      <trkpt lat="49.27563" lon="-0.48204">
        <ele>54</ele>
        <time>2023-04-28T12:16:51Z</time>
      </trkpt>
      <trkpt lat="49.2756" lon="-0.48209">
        <ele>54</ele>
        <time>2023-04-28T12:16:52Z</time>
      </trkpt>
      <trkpt lat="49.27558" lon="-0.48216">
        <ele>54</ele>
        <time>2023-04-28T12:16:53Z</time>
      </trkpt>
      <trkpt lat="49.27555" lon="-0.48222">
        <ele>54</ele>
        <time>2023-04-28T12:16:54Z</time>
      </trkpt>
      <trkpt lat="49.27553" lon="-0.48228">
        <ele>54</ele>
        <time>2023-04-28T12:16:55Z</time>
      </trkpt>
      <trkpt lat="49.2755" lon="-0.48235">
        <ele>54</ele>
        <time>2023-04-28T12:16:56Z</time>
      </trkpt>
      <trkpt lat="49.27548" lon="-0.48242">
        <ele>54</ele>
        <time>2023-04-28T12:16:57Z</time>
      </trkpt>
      <trkpt lat="49.27546" lon="-0.48249">
        <ele>54</ele>
        <time>2023-04-28T12:16:58Z</time>
      </trkpt>
      <trkpt lat="49.27545" lon="-0.48256">
        <ele>53.8</ele>
        <time>2023-04-28T12:16:59Z</time>
      </trkpt>
      <trkpt lat="49.27543" lon="-0.48264">
        <ele>53.8</ele>
        <time>2023-04-28T12:17:00Z</time>
      </trkpt>
      <trkpt lat="49.27542" lon="-0.48271">
        <ele>53.6</ele>
        <time>2023-04-28T12:17:01Z</time>
      </trkpt>
      <trkpt lat="49.2754" lon="-0.48279">
        <ele>53.2</ele>
        <time>2023-04-28T12:17:02Z</time>
      </trkpt>
      <trkpt lat="49.27539" lon="-0.48287">
        <ele>53</ele>
        <time>2023-04-28T12:17:03Z</time>
      </trkpt>
      <trkpt lat="49.27537" lon="-0.48295">
        <ele>53</ele>
        <time>2023-04-28T12:17:04Z</time>
      </trkpt>
      <trkpt lat="49.27536" lon="-0.48303">
        <ele>52.8</ele>
        <time>2023-04-28T12:17:05Z</time>
      </trkpt>
      <trkpt lat="49.27535" lon="-0.48311">
        <ele>52.6</ele>
        <time>2023-04-28T12:17:06Z</time>
      </trkpt>
      <trkpt lat="49.27533" lon="-0.48319">
        <ele>52.2</ele>
        <time>2023-04-28T12:17:07Z</time>
      </trkpt>
      <trkpt lat="49.27532" lon="-0.48328">
        <ele>52</ele>
        <time>2023-04-28T12:17:08Z</time>
      </trkpt>
      <trkpt lat="49.27531" lon="-0.48336">
        <ele>52</ele>
        <time>2023-04-28T12:17:09Z</time>
      </trkpt>
      <trkpt lat="49.27529" lon="-0.48344">
        <ele>52</ele>
        <time>2023-04-28T12:17:10Z</time>
      </trkpt>
      <trkpt lat="49.27528" lon="-0.48353">
        <ele>51.8</ele>
        <time>2023-04-28T12:17:11Z</time>
      </trkpt>
      <trkpt lat="49.27527" lon="-0.48361">
        <ele>51.8</ele>
        <time>2023-04-28T12:17:12Z</time>
      </trkpt>
      <trkpt lat="49.27525" lon="-0.4837">
        <ele>51.8</ele>
        <time>2023-04-28T12:17:13Z</time>
      </trkpt>
      <trkpt lat="49.27524" lon="-0.48378">
        <ele>51.6</ele>
        <time>2023-04-28T12:17:14Z</time>
      </trkpt>
      <trkpt lat="49.27522" lon="-0.48387">
        <ele>51.6</ele>
        <time>2023-04-28T12:17:15Z</time>
      </trkpt>
      <trkpt lat="49.27521" lon="-0.48395">
        <ele>51.4</ele>
        <time>2023-04-28T12:17:16Z</time>
      </trkpt>
      <trkpt lat="49.27519" lon="-0.48404">
        <ele>51.4</ele>
        <time>2023-04-28T12:17:17Z</time>
      </trkpt>
      <trkpt lat="49.27518" lon="-0.48412">
        <ele>51.2</ele>
        <time>2023-04-28T12:17:18Z</time>
      </trkpt>
      <trkpt lat="49.27516" lon="-0.48421">
        <ele>51</ele>
        <time>2023-04-28T12:17:19Z</time>
      </trkpt>
      <trkpt lat="49.27515" lon="-0.4843">
        <ele>51</ele>
        <time>2023-04-28T12:17:20Z</time>
      </trkpt>
      <trkpt lat="49.27513" lon="-0.48438">
        <ele>51</ele>
        <time>2023-04-28T12:17:21Z</time>
      </trkpt>
      <trkpt lat="49.27512" lon="-0.48447">
        <ele>50.8</ele>
        <time>2023-04-28T12:17:22Z</time>
      </trkpt>
      <trkpt lat="49.2751" lon="-0.48456">
        <ele>50.8</ele>
        <time>2023-04-28T12:17:23Z</time>
      </trkpt>
      <trkpt lat="49.27509" lon="-0.48464">
        <ele>50.6</ele>
        <time>2023-04-28T12:17:24Z</time>
      </trkpt>
      <trkpt lat="49.27507" lon="-0.48473">
        <ele>50.4</ele>
        <time>2023-04-28T12:17:25Z</time>
      </trkpt>
      <trkpt lat="49.27506" lon="-0.48482">
        <ele>50.2</ele>
        <time>2023-04-28T12:17:26Z</time>
      </trkpt>
      <trkpt lat="49.27505" lon="-0.48491">
        <ele>50.2</ele>
        <time>2023-04-28T12:17:27Z</time>
      </trkpt>
      <trkpt lat="49.27503" lon="-0.48499">
        <ele>50</ele>
        <time>2023-04-28T12:17:28Z</time>
      </trkpt>
      <trkpt lat="49.27502" lon="-0.48508">
        <ele>50</ele>
        <time>2023-04-28T12:17:29Z</time>
      </trkpt>
      <trkpt lat="49.27501" lon="-0.48517">
        <ele>50</ele>
        <time>2023-04-28T12:17:30Z</time>
      </trkpt>
      <trkpt lat="49.275" lon="-0.48525">
        <ele>50</ele>
        <time>2023-04-28T12:17:31Z</time>
      </trkpt>
      <trkpt lat="49.27499" lon="-0.48534">
        <ele>50</ele>
        <time>2023-04-28T12:17:32Z</time>
      </trkpt>
      <trkpt lat="49.27498" lon="-0.48543">
        <ele>50</ele>
        <time>2023-04-28T12:17:33Z</time>
      </trkpt>
      <trkpt lat="49.27497" lon="-0.48552">
        <ele>50</ele>
        <time>2023-04-28T12:17:34Z</time>
      </trkpt>
      <trkpt lat="49.27497" lon="-0.4856">
        <ele>50</ele>
        <time>2023-04-28T12:17:35Z</time>
      </trkpt>
      <trkpt lat="49.27496" lon="-0.48569">
        <ele>50</ele>
        <time>2023-04-28T12:17:36Z</time>
      </trkpt>
      <trkpt lat="49.27496" lon="-0.48577">
        <ele>50</ele>
        <time>2023-04-28T12:17:37Z</time>
      </trkpt>
      <trkpt lat="49.27496" lon="-0.48586">
        <ele>50</ele>
        <time>2023-04-28T12:17:38Z</time>
      </trkpt>
      <trkpt lat="49.27495" lon="-0.48595">
        <ele>49.8</ele>
        <time>2023-04-28T12:17:39Z</time>
      </trkpt>
      <trkpt lat="49.27495" lon="-0.48603">
        <ele>49.8</ele>
        <time>2023-04-28T12:17:40Z</time>
      </trkpt>
      <trkpt lat="49.27495" lon="-0.48612">
        <ele>49.6</ele>
        <time>2023-04-28T12:17:41Z</time>
      </trkpt>
      <trkpt lat="49.27496" lon="-0.4862">
        <ele>49.6</ele>
        <time>2023-04-28T12:17:42Z</time>
      </trkpt>
      <trkpt lat="49.27496" lon="-0.48629">
        <ele>49.4</ele>
        <time>2023-04-28T12:17:43Z</time>
      </trkpt>
      <trkpt lat="49.27496" lon="-0.48637">
        <ele>49.2</ele>
        <time>2023-04-28T12:17:44Z</time>
      </trkpt>
      <trkpt lat="49.27497" lon="-0.48646">
        <ele>49.2</ele>
        <time>2023-04-28T12:17:45Z</time>
      </trkpt>
      <trkpt lat="49.27498" lon="-0.48654">
        <ele>49</ele>
        <time>2023-04-28T12:17:46Z</time>
      </trkpt>
      <trkpt lat="49.27498" lon="-0.48663">
        <ele>49</ele>
        <time>2023-04-28T12:17:47Z</time>
      </trkpt>
      <trkpt lat="49.27499" lon="-0.48672">
        <ele>49</ele>
        <time>2023-04-28T12:17:48Z</time>
      </trkpt>
      <trkpt lat="49.275" lon="-0.4868">
        <ele>48.8</ele>
        <time>2023-04-28T12:17:49Z</time>
      </trkpt>
      <trkpt lat="49.27501" lon="-0.48688">
        <ele>48.6</ele>
        <time>2023-04-28T12:17:50Z</time>
      </trkpt>
      <trkpt lat="49.27502" lon="-0.48697">
        <ele>48.2</ele>
        <time>2023-04-28T12:17:51Z</time>
      </trkpt>
      <trkpt lat="49.27503" lon="-0.48705">
        <ele>48</ele>
        <time>2023-04-28T12:17:52Z</time>
      </trkpt>
      <trkpt lat="49.27504" lon="-0.48713">
        <ele>48</ele>
        <time>2023-04-28T12:17:53Z</time>
      </trkpt>
      <trkpt lat="49.27505" lon="-0.48721">
        <ele>47.8</ele>
        <time>2023-04-28T12:17:54Z</time>
      </trkpt>
      <trkpt lat="49.27506" lon="-0.48729">
        <ele>47.6</ele>
        <time>2023-04-28T12:17:55Z</time>
      </trkpt>
      <trkpt lat="49.27507" lon="-0.48737">
        <ele>47.2</ele>
        <time>2023-04-28T12:17:56Z</time>
      </trkpt>
      <trkpt lat="49.27508" lon="-0.48745">
        <ele>47</ele>
        <time>2023-04-28T12:17:57Z</time>
      </trkpt>
      <trkpt lat="49.27509" lon="-0.48753">
        <ele>47</ele>
        <time>2023-04-28T12:17:58Z</time>
      </trkpt>
      <trkpt lat="49.27509" lon="-0.48762">
        <ele>47</ele>
        <time>2023-04-28T12:17:59Z</time>
      </trkpt>
      <trkpt lat="49.2751" lon="-0.4877">
        <ele>47</ele>
        <time>2023-04-28T12:18:00Z</time>
      </trkpt>
      <trkpt lat="49.27511" lon="-0.48779">
        <ele>47</ele>
        <time>2023-04-28T12:18:01Z</time>
      </trkpt>
      <trkpt lat="49.27512" lon="-0.48788">
        <ele>47</ele>
        <time>2023-04-28T12:18:02Z</time>
      </trkpt>
      <trkpt lat="49.27513" lon="-0.48797">
        <ele>47</ele>
        <time>2023-04-28T12:18:03Z</time>
      </trkpt>
      <trkpt lat="49.27514" lon="-0.48806">
        <ele>47</ele>
        <time>2023-04-28T12:18:04Z</time>
      </trkpt>
      <trkpt lat="49.27515" lon="-0.48815">
        <ele>47</ele>
        <time>2023-04-28T12:18:05Z</time>
      </trkpt>
      <trkpt lat="49.27516" lon="-0.48825">
        <ele>47</ele>
        <time>2023-04-28T12:18:06Z</time>
      </trkpt>
      <trkpt lat="49.27517" lon="-0.48834">
        <ele>47</ele>
        <time>2023-04-28T12:18:07Z</time>
      </trkpt>
      <trkpt lat="49.27517" lon="-0.48843">
        <ele>47</ele>
        <time>2023-04-28T12:18:08Z</time>
      </trkpt>
      <trkpt lat="49.27518" lon="-0.48852">
        <ele>47</ele>
        <time>2023-04-28T12:18:09Z</time>
      </trkpt>
      <trkpt lat="49.27519" lon="-0.48862">
        <ele>47</ele>
        <time>2023-04-28T12:18:10Z</time>
      </trkpt>
      <trkpt lat="49.2752" lon="-0.48871">
        <ele>47</ele>
        <time>2023-04-28T12:18:11Z</time>
      </trkpt>
      <trkpt lat="49.27521" lon="-0.48881">
        <ele>47</ele>
        <time>2023-04-28T12:18:12Z</time>
      </trkpt>
      <trkpt lat="49.27522" lon="-0.4889">
        <ele>47.2</ele>
        <time>2023-04-28T12:18:13Z</time>
      </trkpt>
      <trkpt lat="49.27522" lon="-0.48899">
        <ele>47.2</ele>
        <time>2023-04-28T12:18:14Z</time>
      </trkpt>
      <trkpt lat="49.27523" lon="-0.48909">
        <ele>47.2</ele>
        <time>2023-04-28T12:18:15Z</time>
      </trkpt>
      <trkpt lat="49.27524" lon="-0.48918">
        <ele>47.2</ele>
        <time>2023-04-28T12:18:16Z</time>
      </trkpt>
      <trkpt lat="49.27525" lon="-0.48927">
        <ele>47</ele>
        <time>2023-04-28T12:18:17Z</time>
      </trkpt>
      <trkpt lat="49.27526" lon="-0.48937">
        <ele>47</ele>
        <time>2023-04-28T12:18:18Z</time>
      </trkpt>
      <trkpt lat="49.27527" lon="-0.48946">
        <ele>46.8</ele>
        <time>2023-04-28T12:18:19Z</time>
      </trkpt>
      <trkpt lat="49.27528" lon="-0.48955">
        <ele>46.6</ele>
        <time>2023-04-28T12:18:20Z</time>
      </trkpt>
      <trkpt lat="49.27528" lon="-0.48965">
        <ele>46.4</ele>
        <time>2023-04-28T12:18:21Z</time>
      </trkpt>
      <trkpt lat="49.27529" lon="-0.48974">
        <ele>46.2</ele>
        <time>2023-04-28T12:18:22Z</time>
      </trkpt>
      <trkpt lat="49.2753" lon="-0.48983">
        <ele>46</ele>
        <time>2023-04-28T12:18:23Z</time>
      </trkpt>
      <trkpt lat="49.27531" lon="-0.48992">
        <ele>45.8</ele>
        <time>2023-04-28T12:18:24Z</time>
      </trkpt>
      <trkpt lat="49.27532" lon="-0.49">
        <ele>45.6</ele>
        <time>2023-04-28T12:18:25Z</time>
      </trkpt>
      <trkpt lat="49.27533" lon="-0.49009">
        <ele>45.6</ele>
        <time>2023-04-28T12:18:26Z</time>
      </trkpt>
      <trkpt lat="49.27534" lon="-0.49018">
        <ele>45.6</ele>
        <time>2023-04-28T12:18:27Z</time>
      </trkpt>
      <trkpt lat="49.27535" lon="-0.49027">
        <ele>45.4</ele>
        <time>2023-04-28T12:18:28Z</time>
      </trkpt>
      <trkpt lat="49.27535" lon="-0.49035">
        <ele>45.2</ele>
        <time>2023-04-28T12:18:29Z</time>
      </trkpt>
      <trkpt lat="49.27536" lon="-0.49044">
        <ele>45.2</ele>
        <time>2023-04-28T12:18:30Z</time>
      </trkpt>
      <trkpt lat="49.27537" lon="-0.49052">
        <ele>45.2</ele>
        <time>2023-04-28T12:18:31Z</time>
      </trkpt>
      <trkpt lat="49.27538" lon="-0.49061">
        <ele>45</ele>
        <time>2023-04-28T12:18:32Z</time>
      </trkpt>
      <trkpt lat="49.27539" lon="-0.49069">
        <ele>45</ele>
        <time>2023-04-28T12:18:33Z</time>
      </trkpt>
      <trkpt lat="49.2754" lon="-0.49078">
        <ele>45</ele>
        <time>2023-04-28T12:18:34Z</time>
      </trkpt>
      <trkpt lat="49.27541" lon="-0.49086">
        <ele>45</ele>
        <time>2023-04-28T12:18:35Z</time>
      </trkpt>
      <trkpt lat="49.27542" lon="-0.49094">
        <ele>45</ele>
        <time>2023-04-28T12:18:36Z</time>
      </trkpt>
      <trkpt lat="49.27543" lon="-0.49103">
        <ele>44.8</ele>
        <time>2023-04-28T12:18:37Z</time>
      </trkpt>
      <trkpt lat="49.27545" lon="-0.49111">
        <ele>44.8</ele>
        <time>2023-04-28T12:18:38Z</time>
      </trkpt>
      <trkpt lat="49.27546" lon="-0.4912">
        <ele>44.6</ele>
        <time>2023-04-28T12:18:39Z</time>
      </trkpt>
      <trkpt lat="49.27547" lon="-0.49128">
        <ele>44.6</ele>
        <time>2023-04-28T12:18:40Z</time>
      </trkpt>
      <trkpt lat="49.27548" lon="-0.49137">
        <ele>44.6</ele>
        <time>2023-04-28T12:18:41Z</time>
      </trkpt>
      <trkpt lat="49.27549" lon="-0.49146">
        <ele>44.4</ele>
        <time>2023-04-28T12:18:42Z</time>
      </trkpt>
      <trkpt lat="49.2755" lon="-0.49154">
        <ele>44.2</ele>
        <time>2023-04-28T12:18:43Z</time>
      </trkpt>
      <trkpt lat="49.27551" lon="-0.49163">
        <ele>44.2</ele>
        <time>2023-04-28T12:18:44Z</time>
      </trkpt>
      <trkpt lat="49.27552" lon="-0.49172">
        <ele>44</ele>
        <time>2023-04-28T12:18:45Z</time>
      </trkpt>
      <trkpt lat="49.27553" lon="-0.49181">
        <ele>44</ele>
        <time>2023-04-28T12:18:46Z</time>
      </trkpt>
      <trkpt lat="49.27555" lon="-0.49189">
        <ele>43.8</ele>
        <time>2023-04-28T12:18:47Z</time>
      </trkpt>
      <trkpt lat="49.27556" lon="-0.49198">
        <ele>43.6</ele>
        <time>2023-04-28T12:18:48Z</time>
      </trkpt>
      <trkpt lat="49.27557" lon="-0.49207">
        <ele>43.4</ele>
        <time>2023-04-28T12:18:49Z</time>
      </trkpt>
      <trkpt lat="49.27558" lon="-0.49215">
        <ele>43.2</ele>
        <time>2023-04-28T12:18:50Z</time>
      </trkpt>
      <trkpt lat="49.27559" lon="-0.49224">
        <ele>43</ele>
        <time>2023-04-28T12:18:51Z</time>
      </trkpt>
      <trkpt lat="49.2756" lon="-0.49232">
        <ele>43</ele>
        <time>2023-04-28T12:18:52Z</time>
      </trkpt>
      <trkpt lat="49.27561" lon="-0.49241">
        <ele>42.8</ele>
        <time>2023-04-28T12:18:53Z</time>
      </trkpt>
      <trkpt lat="49.27562" lon="-0.49249">
        <ele>42.6</ele>
        <time>2023-04-28T12:18:54Z</time>
      </trkpt>
      <trkpt lat="49.27562" lon="-0.49258">
        <ele>42.6</ele>
        <time>2023-04-28T12:18:55Z</time>
      </trkpt>
      <trkpt lat="49.27563" lon="-0.49266">
        <ele>42.6</ele>
        <time>2023-04-28T12:18:56Z</time>
      </trkpt>
      <trkpt lat="49.27564" lon="-0.49275">
        <ele>42.6</ele>
        <time>2023-04-28T12:18:57Z</time>
      </trkpt>
      <trkpt lat="49.27565" lon="-0.49283">
        <ele>42.6</ele>
        <time>2023-04-28T12:18:58Z</time>
      </trkpt>
      <trkpt lat="49.27566" lon="-0.49291">
        <ele>42.6</ele>
        <time>2023-04-28T12:18:59Z</time>
      </trkpt>
      <trkpt lat="49.27566" lon="-0.49299">
        <ele>42.6</ele>
        <time>2023-04-28T12:19:00Z</time>
      </trkpt>
      <trkpt lat="49.27567" lon="-0.49308">
        <ele>42.6</ele>
        <time>2023-04-28T12:19:01Z</time>
      </trkpt>
      <trkpt lat="49.27568" lon="-0.49316">
        <ele>42.6</ele>
        <time>2023-04-28T12:19:02Z</time>
      </trkpt>
      <trkpt lat="49.27569" lon="-0.49324">
        <ele>42.6</ele>
        <time>2023-04-28T12:19:03Z</time>
      </trkpt>
      <trkpt lat="49.27569" lon="-0.49332">
        <ele>42.8</ele>
        <time>2023-04-28T12:19:04Z</time>
      </trkpt>
      <trkpt lat="49.27569" lon="-0.4934">
        <ele>42.8</ele>
        <time>2023-04-28T12:19:05Z</time>
      </trkpt>
      <trkpt lat="49.2757" lon="-0.49346">
        <ele>42.8</ele>
        <time>2023-04-28T12:19:06Z</time>
      </trkpt>
      <trkpt lat="49.27571" lon="-0.49353">
        <ele>42.8</ele>
        <time>2023-04-28T12:19:07Z</time>
      </trkpt>
      <trkpt lat="49.27571" lon="-0.4936">
        <ele>42.8</ele>
        <time>2023-04-28T12:19:08Z</time>
      </trkpt>
      <trkpt lat="49.27572" lon="-0.49367">
        <ele>42.8</ele>
        <time>2023-04-28T12:19:09Z</time>
      </trkpt>
      <trkpt lat="49.27573" lon="-0.49372">
        <ele>42.8</ele>
        <time>2023-04-28T12:19:10Z</time>
      </trkpt>
      <trkpt lat="49.27573" lon="-0.49377">
        <ele>42.8</ele>
        <time>2023-04-28T12:19:11Z</time>
      </trkpt>
      <trkpt lat="49.27572" lon="-0.49379">
        <ele>42.8</ele>
        <time>2023-04-28T12:19:12Z</time>
      </trkpt>
      <trkpt lat="49.27571" lon="-0.49379">
        <ele>42.8</ele>
        <time>2023-04-28T12:19:13Z</time>
      </trkpt>
      <trkpt lat="49.2757" lon="-0.49376">
        <ele>42.8</ele>
        <time>2023-04-28T12:19:14Z</time>
      </trkpt>
      <trkpt lat="49.2757" lon="-0.49372">
        <ele>42.8</ele>
        <time>2023-04-28T12:19:15Z</time>
      </trkpt>
      <trkpt lat="49.2757" lon="-0.49367">
        <ele>42.8</ele>
        <time>2023-04-28T12:19:16Z</time>
      </trkpt>
      <trkpt lat="49.2757" lon="-0.49362">
        <ele>42.8</ele>
        <time>2023-04-28T12:19:17Z</time>
      </trkpt>
      <trkpt lat="49.27569" lon="-0.49355">
        <ele>42.8</ele>
        <time>2023-04-28T12:19:18Z</time>
      </trkpt>
      <trkpt lat="49.27569" lon="-0.49348">
        <ele>42.6</ele>
        <time>2023-04-28T12:19:19Z</time>
      </trkpt>
      <trkpt lat="49.27568" lon="-0.49341">
        <ele>42.6</ele>
        <time>2023-04-28T12:19:20Z</time>
      </trkpt>
      <trkpt lat="49.27567" lon="-0.49334">
        <ele>42.6</ele>
        <time>2023-04-28T12:19:21Z</time>
      </trkpt>
      <trkpt lat="49.27566" lon="-0.49327">
        <ele>42.6</ele>
        <time>2023-04-28T12:19:22Z</time>
      </trkpt>
      <trkpt lat="49.27563" lon="-0.49321">
        <ele>42.6</ele>
        <time>2023-04-28T12:19:23Z</time>
      </trkpt>
      <trkpt lat="49.27558" lon="-0.49318">
        <ele>42.4</ele>
        <time>2023-04-28T12:19:24Z</time>
      </trkpt>
      <trkpt lat="49.27553" lon="-0.49319">
        <ele>42.2</ele>
        <time>2023-04-28T12:19:25Z</time>
      </trkpt>
      <trkpt lat="49.27547" lon="-0.4932">
        <ele>42</ele>
        <time>2023-04-28T12:19:26Z</time>
      </trkpt>
      <trkpt lat="49.27541" lon="-0.49321">
        <ele>42</ele>
        <time>2023-04-28T12:19:27Z</time>
      </trkpt>
      <trkpt lat="49.27535" lon="-0.49322">
        <ele>41.8</ele>
        <time>2023-04-28T12:19:28Z</time>
      </trkpt>
      <trkpt lat="49.27529" lon="-0.49324">
        <ele>41.8</ele>
        <time>2023-04-28T12:19:29Z</time>
      </trkpt>
      <trkpt lat="49.27523" lon="-0.49325">
        <ele>41.6</ele>
        <time>2023-04-28T12:19:30Z</time>
      </trkpt>
      <trkpt lat="49.27516" lon="-0.49326">
        <ele>41.4</ele>
        <time>2023-04-28T12:19:31Z</time>
      </trkpt>
      <trkpt lat="49.2751" lon="-0.49327">
        <ele>41.2</ele>
        <time>2023-04-28T12:19:32Z</time>
      </trkpt>
      <trkpt lat="49.27504" lon="-0.49328">
        <ele>41</ele>
        <time>2023-04-28T12:19:33Z</time>
      </trkpt>
      <trkpt lat="49.27497" lon="-0.49328">
        <ele>41</ele>
        <time>2023-04-28T12:19:34Z</time>
      </trkpt>
      <trkpt lat="49.27491" lon="-0.49328">
        <ele>41</ele>
        <time>2023-04-28T12:19:35Z</time>
      </trkpt>
      <trkpt lat="49.27485" lon="-0.49329">
        <ele>40.8</ele>
        <time>2023-04-28T12:19:36Z</time>
      </trkpt>
      <trkpt lat="49.27478" lon="-0.49329">
        <ele>40.8</ele>
        <time>2023-04-28T12:19:37Z</time>
      </trkpt>
      <trkpt lat="49.27472" lon="-0.49329">
        <ele>40.8</ele>
        <time>2023-04-28T12:19:38Z</time>
      </trkpt>
      <trkpt lat="49.27466" lon="-0.49328">
        <ele>40.6</ele>
        <time>2023-04-28T12:19:39Z</time>
      </trkpt>
      <trkpt lat="49.27459" lon="-0.49328">
        <ele>40.6</ele>
        <time>2023-04-28T12:19:40Z</time>
      </trkpt>
      <trkpt lat="49.27453" lon="-0.49327">
        <ele>40.6</ele>
        <time>2023-04-28T12:19:41Z</time>
      </trkpt>
      <trkpt lat="49.27447" lon="-0.49326">
        <ele>40.6</ele>
        <time>2023-04-28T12:19:42Z</time>
      </trkpt>
      <trkpt lat="49.2744" lon="-0.49325">
        <ele>40.4</ele>
        <time>2023-04-28T12:19:43Z</time>
      </trkpt>
      <trkpt lat="49.27434" lon="-0.49324">
        <ele>40.4</ele>
        <time>2023-04-28T12:19:44Z</time>
      </trkpt>
      <trkpt lat="49.27428" lon="-0.49323">
        <ele>40.4</ele>
        <time>2023-04-28T12:19:45Z</time>
      </trkpt>
      <trkpt lat="49.27421" lon="-0.49321">
        <ele>40.2</ele>
        <time>2023-04-28T12:19:46Z</time>
      </trkpt>
      <trkpt lat="49.27415" lon="-0.4932">
        <ele>40.2</ele>
        <time>2023-04-28T12:19:47Z</time>
      </trkpt>
      <trkpt lat="49.27409" lon="-0.49319">
        <ele>40.4</ele>
        <time>2023-04-28T12:19:48Z</time>
      </trkpt>
      <trkpt lat="49.27402" lon="-0.49318">
        <ele>40.6</ele>
        <time>2023-04-28T12:19:49Z</time>
      </trkpt>
      <trkpt lat="49.27396" lon="-0.49316">
        <ele>40.8</ele>
        <time>2023-04-28T12:19:50Z</time>
      </trkpt>
      <trkpt lat="49.2739" lon="-0.49314">
        <ele>40.8</ele>
        <time>2023-04-28T12:19:51Z</time>
      </trkpt>
      <trkpt lat="49.27384" lon="-0.49312">
        <ele>41</ele>
        <time>2023-04-28T12:19:52Z</time>
      </trkpt>
      <trkpt lat="49.27377" lon="-0.4931">
        <ele>41</ele>
        <time>2023-04-28T12:19:53Z</time>
      </trkpt>
      <trkpt lat="49.27371" lon="-0.49309">
        <ele>41</ele>
        <time>2023-04-28T12:19:54Z</time>
      </trkpt>
      <trkpt lat="49.27364" lon="-0.49308">
        <ele>41.2</ele>
        <time>2023-04-28T12:19:55Z</time>
      </trkpt>
      <trkpt lat="49.27358" lon="-0.49307">
        <ele>41.2</ele>
        <time>2023-04-28T12:19:56Z</time>
      </trkpt>
      <trkpt lat="49.27351" lon="-0.49307">
        <ele>41.4</ele>
        <time>2023-04-28T12:19:57Z</time>
      </trkpt>
      <trkpt lat="49.27345" lon="-0.49307">
        <ele>41.6</ele>
        <time>2023-04-28T12:19:58Z</time>
      </trkpt>
      <trkpt lat="49.27338" lon="-0.49307">
        <ele>41.6</ele>
        <time>2023-04-28T12:19:59Z</time>
      </trkpt>
      <trkpt lat="49.27332" lon="-0.49308">
        <ele>41.6</ele>
        <time>2023-04-28T12:20:00Z</time>
      </trkpt>
      <trkpt lat="49.27326" lon="-0.49309">
        <ele>41.6</ele>
        <time>2023-04-28T12:20:01Z</time>
      </trkpt>
      <trkpt lat="49.2732" lon="-0.49311">
        <ele>41.6</ele>
        <time>2023-04-28T12:20:02Z</time>
      </trkpt>
      <trkpt lat="49.27314" lon="-0.49313">
        <ele>41.4</ele>
        <time>2023-04-28T12:20:03Z</time>
      </trkpt>
      <trkpt lat="49.27308" lon="-0.49315">
        <ele>41.4</ele>
        <time>2023-04-28T12:20:04Z</time>
      </trkpt>
      <trkpt lat="49.27303" lon="-0.49317">
        <ele>41.2</ele>
        <time>2023-04-28T12:20:05Z</time>
      </trkpt>
      <trkpt lat="49.27298" lon="-0.49319">
        <ele>41.2</ele>
        <time>2023-04-28T12:20:06Z</time>
      </trkpt>
      <trkpt lat="49.27293" lon="-0.49322">
        <ele>41.2</ele>
        <time>2023-04-28T12:20:07Z</time>
      </trkpt>
      <trkpt lat="49.27288" lon="-0.49324">
        <ele>41.2</ele>
        <time>2023-04-28T12:20:08Z</time>
      </trkpt>
      <trkpt lat="49.27283" lon="-0.49326">
        <ele>41</ele>
        <time>2023-04-28T12:20:09Z</time>
      </trkpt>
      <trkpt lat="49.27279" lon="-0.49328">
        <ele>41</ele>
        <time>2023-04-28T12:20:10Z</time>
      </trkpt>
      <trkpt lat="49.27276" lon="-0.49331">
        <ele>41</ele>
        <time>2023-04-28T12:20:11Z</time>
      </trkpt>
      <trkpt lat="49.27273" lon="-0.49334">
        <ele>41</ele>
        <time>2023-04-28T12:20:12Z</time>
      </trkpt>
      <trkpt lat="49.27271" lon="-0.49336">
        <ele>41</ele>
        <time>2023-04-28T12:20:13Z</time>
      </trkpt>
      <trkpt lat="49.27269" lon="-0.49338">
        <ele>41</ele>
        <time>2023-04-28T12:20:14Z</time>
      </trkpt>
      <trkpt lat="49.27266" lon="-0.49339">
        <ele>41</ele>
        <time>2023-04-28T12:20:15Z</time>
      </trkpt>
      <trkpt lat="49.27263" lon="-0.49338">
        <ele>41</ele>
        <time>2023-04-28T12:20:16Z</time>
      </trkpt>
      <trkpt lat="49.2726" lon="-0.49336">
        <ele>41</ele>
        <time>2023-04-28T12:20:17Z</time>
      </trkpt>
      <trkpt lat="49.27257" lon="-0.49332">
        <ele>41</ele>
        <time>2023-04-28T12:20:18Z</time>
      </trkpt>
      <trkpt lat="49.27253" lon="-0.49327">
        <ele>41</ele>
        <time>2023-04-28T12:20:19Z</time>
      </trkpt>
      <trkpt lat="49.2725" lon="-0.49323">
        <ele>41</ele>
        <time>2023-04-28T12:20:20Z</time>
      </trkpt>
      <trkpt lat="49.27246" lon="-0.49318">
        <ele>41.2</ele>
        <time>2023-04-28T12:20:21Z</time>
      </trkpt>
      <trkpt lat="49.27242" lon="-0.49313">
        <ele>41.2</ele>
        <time>2023-04-28T12:20:22Z</time>
      </trkpt>
      <trkpt lat="49.27238" lon="-0.49308">
        <ele>41.2</ele>
        <time>2023-04-28T12:20:23Z</time>
      </trkpt>
      <trkpt lat="49.27234" lon="-0.49303">
        <ele>41.4</ele>
        <time>2023-04-28T12:20:24Z</time>
      </trkpt>
      <trkpt lat="49.2723" lon="-0.49298">
        <ele>41.4</ele>
        <time>2023-04-28T12:20:25Z</time>
      </trkpt>
      <trkpt lat="49.27226" lon="-0.49293">
        <ele>41.6</ele>
        <time>2023-04-28T12:20:26Z</time>
      </trkpt>
      <trkpt lat="49.27222" lon="-0.49288">
        <ele>41.6</ele>
        <time>2023-04-28T12:20:27Z</time>
      </trkpt>
      <trkpt lat="49.27218" lon="-0.49283">
        <ele>41.6</ele>
        <time>2023-04-28T12:20:28Z</time>
      </trkpt>
      <trkpt lat="49.27213" lon="-0.49278">
        <ele>41.8</ele>
        <time>2023-04-28T12:20:29Z</time>
      </trkpt>
      <trkpt lat="49.27209" lon="-0.49272">
        <ele>41.8</ele>
        <time>2023-04-28T12:20:30Z</time>
      </trkpt>
      <trkpt lat="49.27205" lon="-0.49267">
        <ele>41.8</ele>
        <time>2023-04-28T12:20:31Z</time>
      </trkpt>
      <trkpt lat="49.272" lon="-0.49262">
        <ele>42</ele>
        <time>2023-04-28T12:20:32Z</time>
      </trkpt>
      <trkpt lat="49.27196" lon="-0.49257">
        <ele>42</ele>
        <time>2023-04-28T12:20:33Z</time>
      </trkpt>
      <trkpt lat="49.27191" lon="-0.49252">
        <ele>42</ele>
        <time>2023-04-28T12:20:34Z</time>
      </trkpt>
      <trkpt lat="49.27187" lon="-0.49246">
        <ele>42</ele>
        <time>2023-04-28T12:20:35Z</time>
      </trkpt>
      <trkpt lat="49.27182" lon="-0.49241">
        <ele>42</ele>
        <time>2023-04-28T12:20:36Z</time>
      </trkpt>
      <trkpt lat="49.27178" lon="-0.49236">
        <ele>42.2</ele>
        <time>2023-04-28T12:20:37Z</time>
      </trkpt>
      <trkpt lat="49.27173" lon="-0.49231">
        <ele>42.2</ele>
        <time>2023-04-28T12:20:38Z</time>
      </trkpt>
      <trkpt lat="49.27169" lon="-0.49226">
        <ele>42.2</ele>
        <time>2023-04-28T12:20:39Z</time>
      </trkpt>
      <trkpt lat="49.27165" lon="-0.49222">
        <ele>42.2</ele>
        <time>2023-04-28T12:20:40Z</time>
      </trkpt>
      <trkpt lat="49.2716" lon="-0.49217">
        <ele>42.2</ele>
        <time>2023-04-28T12:20:41Z</time>
      </trkpt>
      <trkpt lat="49.27156" lon="-0.49212">
        <ele>42.2</ele>
        <time>2023-04-28T12:20:42Z</time>
      </trkpt>
      <trkpt lat="49.27151" lon="-0.49207">
        <ele>42.2</ele>
        <time>2023-04-28T12:20:43Z</time>
      </trkpt>
      <trkpt lat="49.27147" lon="-0.49202">
        <ele>42.2</ele>
        <time>2023-04-28T12:20:44Z</time>
      </trkpt>
      <trkpt lat="49.27142" lon="-0.49197">
        <ele>42.2</ele>
        <time>2023-04-28T12:20:45Z</time>
      </trkpt>
      <trkpt lat="49.27138" lon="-0.49192">
        <ele>42.2</ele>
        <time>2023-04-28T12:20:46Z</time>
      </trkpt>
      <trkpt lat="49.27133" lon="-0.49187">
        <ele>42.4</ele>
        <time>2023-04-28T12:20:47Z</time>
      </trkpt>
      <trkpt lat="49.27129" lon="-0.49182">
        <ele>42.4</ele>
        <time>2023-04-28T12:20:48Z</time>
      </trkpt>
      <trkpt lat="49.27124" lon="-0.49177">
        <ele>42.4</ele>
        <time>2023-04-28T12:20:49Z</time>
      </trkpt>
      <trkpt lat="49.2712" lon="-0.49172">
        <ele>42.4</ele>
        <time>2023-04-28T12:20:50Z</time>
      </trkpt>
      <trkpt lat="49.27115" lon="-0.49167">
        <ele>42.4</ele>
        <time>2023-04-28T12:20:51Z</time>
      </trkpt>
      <trkpt lat="49.27111" lon="-0.49163">
        <ele>42.4</ele>
        <time>2023-04-28T12:20:52Z</time>
      </trkpt>
      <trkpt lat="49.27106" lon="-0.49157">
        <ele>42.6</ele>
        <time>2023-04-28T12:20:53Z</time>
      </trkpt>
      <trkpt lat="49.27102" lon="-0.49153">
        <ele>42.8</ele>
        <time>2023-04-28T12:20:54Z</time>
      </trkpt>
      <trkpt lat="49.27097" lon="-0.49148">
        <ele>42.8</ele>
        <time>2023-04-28T12:20:55Z</time>
      </trkpt>
      <trkpt lat="49.27093" lon="-0.49143">
        <ele>43</ele>
        <time>2023-04-28T12:20:56Z</time>
      </trkpt>
      <trkpt lat="49.27088" lon="-0.49138">
        <ele>43</ele>
        <time>2023-04-28T12:20:57Z</time>
      </trkpt>
      <trkpt lat="49.27084" lon="-0.49133">
        <ele>43.2</ele>
        <time>2023-04-28T12:20:58Z</time>
      </trkpt>
      <trkpt lat="49.27079" lon="-0.49128">
        <ele>43.6</ele>
        <time>2023-04-28T12:20:59Z</time>
      </trkpt>
      <trkpt lat="49.27075" lon="-0.49123">
        <ele>43.8</ele>
        <time>2023-04-28T12:21:00Z</time>
      </trkpt>
      <trkpt lat="49.2707" lon="-0.49118">
        <ele>44</ele>
        <time>2023-04-28T12:21:01Z</time>
      </trkpt>
      <trkpt lat="49.27066" lon="-0.49113">
        <ele>44.2</ele>
        <time>2023-04-28T12:21:02Z</time>
      </trkpt>
      <trkpt lat="49.27061" lon="-0.49108">
        <ele>44.6</ele>
        <time>2023-04-28T12:21:03Z</time>
      </trkpt>
      <trkpt lat="49.27057" lon="-0.49103">
        <ele>44.8</ele>
        <time>2023-04-28T12:21:04Z</time>
      </trkpt>
      <trkpt lat="49.27052" lon="-0.49098">
        <ele>45</ele>
        <time>2023-04-28T12:21:05Z</time>
      </trkpt>
      <trkpt lat="49.27047" lon="-0.49093">
        <ele>45.2</ele>
        <time>2023-04-28T12:21:06Z</time>
      </trkpt>
      <trkpt lat="49.27043" lon="-0.49088">
        <ele>45.4</ele>
        <time>2023-04-28T12:21:07Z</time>
      </trkpt>
      <trkpt lat="49.27038" lon="-0.49083">
        <ele>45.6</ele>
        <time>2023-04-28T12:21:08Z</time>
      </trkpt>
      <trkpt lat="49.27034" lon="-0.49078">
        <ele>45.8</ele>
        <time>2023-04-28T12:21:09Z</time>
      </trkpt>
      <trkpt lat="49.27029" lon="-0.49072">
        <ele>45.8</ele>
        <time>2023-04-28T12:21:10Z</time>
      </trkpt>
      <trkpt lat="49.27024" lon="-0.49067">
        <ele>46</ele>
        <time>2023-04-28T12:21:11Z</time>
      </trkpt>
      <trkpt lat="49.2702" lon="-0.49062">
        <ele>46</ele>
        <time>2023-04-28T12:21:12Z</time>
      </trkpt>
      <trkpt lat="49.27016" lon="-0.49057">
        <ele>46</ele>
        <time>2023-04-28T12:21:13Z</time>
      </trkpt>
      <trkpt lat="49.27011" lon="-0.49052">
        <ele>46.2</ele>
        <time>2023-04-28T12:21:14Z</time>
      </trkpt>
      <trkpt lat="49.27007" lon="-0.49047">
        <ele>46.4</ele>
        <time>2023-04-28T12:21:15Z</time>
      </trkpt>
      <trkpt lat="49.27002" lon="-0.49042">
        <ele>46.6</ele>
        <time>2023-04-28T12:21:16Z</time>
      </trkpt>
      <trkpt lat="49.26998" lon="-0.49037">
        <ele>46.6</ele>
        <time>2023-04-28T12:21:17Z</time>
      </trkpt>
      <trkpt lat="49.26994" lon="-0.49032">
        <ele>46.6</ele>
        <time>2023-04-28T12:21:18Z</time>
      </trkpt>
      <trkpt lat="49.26989" lon="-0.49027">
        <ele>46.6</ele>
        <time>2023-04-28T12:21:19Z</time>
      </trkpt>
      <trkpt lat="49.26984" lon="-0.49022">
        <ele>46.6</ele>
        <time>2023-04-28T12:21:20Z</time>
      </trkpt>
      <trkpt lat="49.2698" lon="-0.49017">
        <ele>46.6</ele>
        <time>2023-04-28T12:21:21Z</time>
      </trkpt>
      <trkpt lat="49.26975" lon="-0.49012">
        <ele>46.6</ele>
        <time>2023-04-28T12:21:22Z</time>
      </trkpt>
      <trkpt lat="49.26971" lon="-0.49007">
        <ele>46.6</ele>
        <time>2023-04-28T12:21:23Z</time>
      </trkpt>
      <trkpt lat="49.26966" lon="-0.49002">
        <ele>46.6</ele>
        <time>2023-04-28T12:21:24Z</time>
      </trkpt>
      <trkpt lat="49.26961" lon="-0.48996">
        <ele>46.6</ele>
        <time>2023-04-28T12:21:25Z</time>
      </trkpt>
      <trkpt lat="49.26957" lon="-0.48991">
        <ele>46.6</ele>
        <time>2023-04-28T12:21:26Z</time>
      </trkpt>
      <trkpt lat="49.26952" lon="-0.48986">
        <ele>46.8</ele>
        <time>2023-04-28T12:21:27Z</time>
      </trkpt>
      <trkpt lat="49.26947" lon="-0.4898">
        <ele>46.8</ele>
        <time>2023-04-28T12:21:28Z</time>
      </trkpt>
      <trkpt lat="49.26943" lon="-0.48975">
        <ele>46.8</ele>
        <time>2023-04-28T12:21:29Z</time>
      </trkpt>
      <trkpt lat="49.26938" lon="-0.4897">
        <ele>47</ele>
        <time>2023-04-28T12:21:30Z</time>
      </trkpt>
      <trkpt lat="49.26934" lon="-0.48965">
        <ele>47</ele>
        <time>2023-04-28T12:21:31Z</time>
      </trkpt>
      <trkpt lat="49.26929" lon="-0.4896">
        <ele>47</ele>
        <time>2023-04-28T12:21:32Z</time>
      </trkpt>
      <trkpt lat="49.26925" lon="-0.48955">
        <ele>47</ele>
        <time>2023-04-28T12:21:33Z</time>
      </trkpt>
      <trkpt lat="49.2692" lon="-0.4895">
        <ele>47.2</ele>
        <time>2023-04-28T12:21:34Z</time>
      </trkpt>
      <trkpt lat="49.26915" lon="-0.48944">
        <ele>47.2</ele>
        <time>2023-04-28T12:21:35Z</time>
      </trkpt>
      <trkpt lat="49.26911" lon="-0.48939">
        <ele>47.6</ele>
        <time>2023-04-28T12:21:36Z</time>
      </trkpt>
      <trkpt lat="49.26906" lon="-0.48934">
        <ele>47.6</ele>
        <time>2023-04-28T12:21:37Z</time>
      </trkpt>
      <trkpt lat="49.26902" lon="-0.48929">
        <ele>47.8</ele>
        <time>2023-04-28T12:21:38Z</time>
      </trkpt>
      <trkpt lat="49.26898" lon="-0.48924">
        <ele>47.8</ele>
        <time>2023-04-28T12:21:39Z</time>
      </trkpt>
      <trkpt lat="49.26893" lon="-0.48919">
        <ele>48</ele>
        <time>2023-04-28T12:21:40Z</time>
      </trkpt>
      <trkpt lat="49.26889" lon="-0.48914">
        <ele>48</ele>
        <time>2023-04-28T12:21:41Z</time>
      </trkpt>
      <trkpt lat="49.26884" lon="-0.48909">
        <ele>48</ele>
        <time>2023-04-28T12:21:42Z</time>
      </trkpt>
      <trkpt lat="49.2688" lon="-0.48904">
        <ele>48</ele>
        <time>2023-04-28T12:21:43Z</time>
      </trkpt>
      <trkpt lat="49.26875" lon="-0.48898">
        <ele>48</ele>
        <time>2023-04-28T12:21:44Z</time>
      </trkpt>
      <trkpt lat="49.26871" lon="-0.48893">
        <ele>48</ele>
        <time>2023-04-28T12:21:45Z</time>
      </trkpt>
      <trkpt lat="49.26867" lon="-0.48888">
        <ele>48</ele>
        <time>2023-04-28T12:21:46Z</time>
      </trkpt>
      <trkpt lat="49.26862" lon="-0.48882">
        <ele>48</ele>
        <time>2023-04-28T12:21:47Z</time>
      </trkpt>
      <trkpt lat="49.26858" lon="-0.48877">
        <ele>48</ele>
        <time>2023-04-28T12:21:48Z</time>
      </trkpt>
      <trkpt lat="49.26854" lon="-0.48871">
        <ele>48</ele>
        <time>2023-04-28T12:21:49Z</time>
      </trkpt>
      <trkpt lat="49.2685" lon="-0.48865">
        <ele>48</ele>
        <time>2023-04-28T12:21:50Z</time>
      </trkpt>
      <trkpt lat="49.26846" lon="-0.48859">
        <ele>48</ele>
        <time>2023-04-28T12:21:51Z</time>
      </trkpt>
      <trkpt lat="49.26842" lon="-0.48853">
        <ele>48</ele>
        <time>2023-04-28T12:21:52Z</time>
      </trkpt>
      <trkpt lat="49.26838" lon="-0.48847">
        <ele>48</ele>
        <time>2023-04-28T12:21:53Z</time>
      </trkpt>
      <trkpt lat="49.26834" lon="-0.48841">
        <ele>48</ele>
        <time>2023-04-28T12:21:54Z</time>
      </trkpt>
      <trkpt lat="49.2683" lon="-0.48834">
        <ele>48</ele>
        <time>2023-04-28T12:21:55Z</time>
      </trkpt>
      <trkpt lat="49.26826" lon="-0.48828">
        <ele>48</ele>
        <time>2023-04-28T12:21:56Z</time>
      </trkpt>
      <trkpt lat="49.26822" lon="-0.48821">
        <ele>48</ele>
        <time>2023-04-28T12:21:57Z</time>
      </trkpt>
      <trkpt lat="49.26819" lon="-0.48815">
        <ele>48.2</ele>
        <time>2023-04-28T12:21:58Z</time>
      </trkpt>
      <trkpt lat="49.26815" lon="-0.48808">
        <ele>48.2</ele>
        <time>2023-04-28T12:21:59Z</time>
      </trkpt>
      <trkpt lat="49.26811" lon="-0.48802">
        <ele>48.4</ele>
        <time>2023-04-28T12:22:00Z</time>
      </trkpt>
      <trkpt lat="49.26807" lon="-0.48796">
        <ele>48.6</ele>
        <time>2023-04-28T12:22:01Z</time>
      </trkpt>
      <trkpt lat="49.26803" lon="-0.48789">
        <ele>48.6</ele>
        <time>2023-04-28T12:22:02Z</time>
      </trkpt>
      <trkpt lat="49.26798" lon="-0.48783">
        <ele>48.6</ele>
        <time>2023-04-28T12:22:03Z</time>
      </trkpt>
      <trkpt lat="49.26794" lon="-0.48776">
        <ele>48.8</ele>
        <time>2023-04-28T12:22:04Z</time>
      </trkpt>
      <trkpt lat="49.2679" lon="-0.4877">
        <ele>48.8</ele>
        <time>2023-04-28T12:22:05Z</time>
      </trkpt>
      <trkpt lat="49.26786" lon="-0.48763">
        <ele>48.8</ele>
        <time>2023-04-28T12:22:06Z</time>
      </trkpt>
      <trkpt lat="49.26781" lon="-0.48757">
        <ele>49</ele>
        <time>2023-04-28T12:22:07Z</time>
      </trkpt>
      <trkpt lat="49.26777" lon="-0.48751">
        <ele>49</ele>
        <time>2023-04-28T12:22:08Z</time>
      </trkpt>
      <trkpt lat="49.26773" lon="-0.48744">
        <ele>49</ele>
        <time>2023-04-28T12:22:09Z</time>
      </trkpt>
      <trkpt lat="49.26768" lon="-0.48738">
        <ele>49.2</ele>
        <time>2023-04-28T12:22:10Z</time>
      </trkpt>
      <trkpt lat="49.26764" lon="-0.48732">
        <ele>49.4</ele>
        <time>2023-04-28T12:22:11Z</time>
      </trkpt>
      <trkpt lat="49.26759" lon="-0.48725">
        <ele>49.6</ele>
        <time>2023-04-28T12:22:12Z</time>
      </trkpt>
      <trkpt lat="49.26754" lon="-0.48719">
        <ele>49.8</ele>
        <time>2023-04-28T12:22:13Z</time>
      </trkpt>
      <trkpt lat="49.2675" lon="-0.48712">
        <ele>50</ele>
        <time>2023-04-28T12:22:14Z</time>
      </trkpt>
      <trkpt lat="49.26745" lon="-0.48706">
        <ele>50</ele>
        <time>2023-04-28T12:22:15Z</time>
      </trkpt>
      <trkpt lat="49.2674" lon="-0.487">
        <ele>50.2</ele>
        <time>2023-04-28T12:22:16Z</time>
      </trkpt>
      <trkpt lat="49.26735" lon="-0.48693">
        <ele>50.2</ele>
        <time>2023-04-28T12:22:17Z</time>
      </trkpt>
      <trkpt lat="49.2673" lon="-0.48686">
        <ele>50.6</ele>
        <time>2023-04-28T12:22:18Z</time>
      </trkpt>
      <trkpt lat="49.26726" lon="-0.4868">
        <ele>50.6</ele>
        <time>2023-04-28T12:22:19Z</time>
      </trkpt>
      <trkpt lat="49.26721" lon="-0.48673">
        <ele>50.8</ele>
        <time>2023-04-28T12:22:20Z</time>
      </trkpt>
      <trkpt lat="49.26716" lon="-0.48667">
        <ele>51</ele>
        <time>2023-04-28T12:22:21Z</time>
      </trkpt>
      <trkpt lat="49.26711" lon="-0.4866">
        <ele>51</ele>
        <time>2023-04-28T12:22:22Z</time>
      </trkpt>
      <trkpt lat="49.26706" lon="-0.48653">
        <ele>51.2</ele>
        <time>2023-04-28T12:22:23Z</time>
      </trkpt>
      <trkpt lat="49.26701" lon="-0.48647">
        <ele>51.2</ele>
        <time>2023-04-28T12:22:24Z</time>
      </trkpt>
      <trkpt lat="49.26696" lon="-0.4864">
        <ele>51.4</ele>
        <time>2023-04-28T12:22:25Z</time>
      </trkpt>
      <trkpt lat="49.26691" lon="-0.48633">
        <ele>51.6</ele>
        <time>2023-04-28T12:22:26Z</time>
      </trkpt>
      <trkpt lat="49.26686" lon="-0.48626">
        <ele>51.8</ele>
        <time>2023-04-28T12:22:27Z</time>
      </trkpt>
      <trkpt lat="49.26681" lon="-0.4862">
        <ele>52</ele>
        <time>2023-04-28T12:22:28Z</time>
      </trkpt>
      <trkpt lat="49.26676" lon="-0.48613">
        <ele>52</ele>
        <time>2023-04-28T12:22:29Z</time>
      </trkpt>
      <trkpt lat="49.26672" lon="-0.48606">
        <ele>52.4</ele>
        <time>2023-04-28T12:22:30Z</time>
      </trkpt>
      <trkpt lat="49.26667" lon="-0.48599">
        <ele>52.6</ele>
        <time>2023-04-28T12:22:31Z</time>
      </trkpt>
      <trkpt lat="49.26662" lon="-0.48593">
        <ele>52.8</ele>
        <time>2023-04-28T12:22:32Z</time>
      </trkpt>
      <trkpt lat="49.26657" lon="-0.48586">
        <ele>52.8</ele>
        <time>2023-04-28T12:22:33Z</time>
      </trkpt>
      <trkpt lat="49.26652" lon="-0.4858">
        <ele>52.8</ele>
        <time>2023-04-28T12:22:34Z</time>
      </trkpt>
      <trkpt lat="49.26647" lon="-0.48573">
        <ele>52.8</ele>
        <time>2023-04-28T12:22:35Z</time>
      </trkpt>
      <trkpt lat="49.26643" lon="-0.48567">
        <ele>52.8</ele>
        <time>2023-04-28T12:22:36Z</time>
      </trkpt>
      <trkpt lat="49.26638" lon="-0.48561">
        <ele>52.6</ele>
        <time>2023-04-28T12:22:37Z</time>
      </trkpt>
      <trkpt lat="49.26633" lon="-0.48555">
        <ele>52.6</ele>
        <time>2023-04-28T12:22:38Z</time>
      </trkpt>
      <trkpt lat="49.26629" lon="-0.48548">
        <ele>52.4</ele>
        <time>2023-04-28T12:22:39Z</time>
      </trkpt>
      <trkpt lat="49.26624" lon="-0.48542">
        <ele>52.2</ele>
        <time>2023-04-28T12:22:40Z</time>
      </trkpt>
      <trkpt lat="49.26619" lon="-0.48536">
        <ele>52</ele>
        <time>2023-04-28T12:22:41Z</time>
      </trkpt>
      <trkpt lat="49.26614" lon="-0.48529">
        <ele>52</ele>
        <time>2023-04-28T12:22:42Z</time>
      </trkpt>
      <trkpt lat="49.2661" lon="-0.48523">
        <ele>51.8</ele>
        <time>2023-04-28T12:22:43Z</time>
      </trkpt>
      <trkpt lat="49.26605" lon="-0.48516">
        <ele>51.8</ele>
        <time>2023-04-28T12:22:44Z</time>
      </trkpt>
      <trkpt lat="49.266" lon="-0.4851">
        <ele>51.6</ele>
        <time>2023-04-28T12:22:45Z</time>
      </trkpt>
      <trkpt lat="49.26596" lon="-0.48504">
        <ele>51.2</ele>
        <time>2023-04-28T12:22:46Z</time>
      </trkpt>
      <trkpt lat="49.26591" lon="-0.48497">
        <ele>51.2</ele>
        <time>2023-04-28T12:22:47Z</time>
      </trkpt>
      <trkpt lat="49.26587" lon="-0.48491">
        <ele>51.2</ele>
        <time>2023-04-28T12:22:48Z</time>
      </trkpt>
      <trkpt lat="49.26582" lon="-0.48485">
        <ele>51.4</ele>
        <time>2023-04-28T12:22:49Z</time>
      </trkpt>
      <trkpt lat="49.26578" lon="-0.48479">
        <ele>51.6</ele>
        <time>2023-04-28T12:22:50Z</time>
      </trkpt>
      <trkpt lat="49.26573" lon="-0.48473">
        <ele>51.8</ele>
        <time>2023-04-28T12:22:51Z</time>
      </trkpt>
      <trkpt lat="49.26569" lon="-0.48467">
        <ele>51.8</ele>
        <time>2023-04-28T12:22:52Z</time>
      </trkpt>
      <trkpt lat="49.26564" lon="-0.4846">
        <ele>52</ele>
        <time>2023-04-28T12:22:53Z</time>
      </trkpt>
      <trkpt lat="49.2656" lon="-0.48454">
        <ele>52</ele>
        <time>2023-04-28T12:22:54Z</time>
      </trkpt>
      <trkpt lat="49.26555" lon="-0.48448">
        <ele>52.2</ele>
        <time>2023-04-28T12:22:55Z</time>
      </trkpt>
      <trkpt lat="49.26551" lon="-0.48442">
        <ele>52.4</ele>
        <time>2023-04-28T12:22:56Z</time>
      </trkpt>
      <trkpt lat="49.26546" lon="-0.48436">
        <ele>52.6</ele>
        <time>2023-04-28T12:22:57Z</time>
      </trkpt>
      <trkpt lat="49.26542" lon="-0.4843">
        <ele>52.8</ele>
        <time>2023-04-28T12:22:58Z</time>
      </trkpt>
      <trkpt lat="49.26537" lon="-0.48424">
        <ele>52.8</ele>
        <time>2023-04-28T12:22:59Z</time>
      </trkpt>
      <trkpt lat="49.26533" lon="-0.48418">
        <ele>53</ele>
        <time>2023-04-28T12:23:00Z</time>
      </trkpt>
      <trkpt lat="49.26528" lon="-0.48412">
        <ele>53</ele>
        <time>2023-04-28T12:23:01Z</time>
      </trkpt>
      <trkpt lat="49.26524" lon="-0.48405">
        <ele>53</ele>
        <time>2023-04-28T12:23:02Z</time>
      </trkpt>
      <trkpt lat="49.26519" lon="-0.48399">
        <ele>52.8</ele>
        <time>2023-04-28T12:23:03Z</time>
      </trkpt>
      <trkpt lat="49.26515" lon="-0.48393">
        <ele>52.8</ele>
        <time>2023-04-28T12:23:04Z</time>
      </trkpt>
      <trkpt lat="49.2651" lon="-0.48386">
        <ele>52.6</ele>
        <time>2023-04-28T12:23:05Z</time>
      </trkpt>
      <trkpt lat="49.26506" lon="-0.4838">
        <ele>52.6</ele>
        <time>2023-04-28T12:23:06Z</time>
      </trkpt>
      <trkpt lat="49.26501" lon="-0.48374">
        <ele>52.6</ele>
        <time>2023-04-28T12:23:07Z</time>
      </trkpt>
      <trkpt lat="49.26496" lon="-0.48367">
        <ele>52.6</ele>
        <time>2023-04-28T12:23:08Z</time>
      </trkpt>
      <trkpt lat="49.26492" lon="-0.48361">
        <ele>52.6</ele>
        <time>2023-04-28T12:23:09Z</time>
      </trkpt>
      <trkpt lat="49.26487" lon="-0.48355">
        <ele>52.6</ele>
        <time>2023-04-28T12:23:10Z</time>
      </trkpt>
      <trkpt lat="49.26482" lon="-0.48349">
        <ele>52.8</ele>
        <time>2023-04-28T12:23:11Z</time>
      </trkpt>
      <trkpt lat="49.26477" lon="-0.48343">
        <ele>53</ele>
        <time>2023-04-28T12:23:12Z</time>
      </trkpt>
      <trkpt lat="49.26472" lon="-0.48337">
        <ele>53</ele>
        <time>2023-04-28T12:23:13Z</time>
      </trkpt>
      <trkpt lat="49.26467" lon="-0.48331">
        <ele>53.2</ele>
        <time>2023-04-28T12:23:14Z</time>
      </trkpt>
      <trkpt lat="49.26462" lon="-0.48326">
        <ele>53.4</ele>
        <time>2023-04-28T12:23:15Z</time>
      </trkpt>
      <trkpt lat="49.26456" lon="-0.4832">
        <ele>53.6</ele>
        <time>2023-04-28T12:23:16Z</time>
      </trkpt>
      <trkpt lat="49.26451" lon="-0.48315">
        <ele>53.8</ele>
        <time>2023-04-28T12:23:17Z</time>
      </trkpt>
      <trkpt lat="49.26446" lon="-0.4831">
        <ele>54</ele>
        <time>2023-04-28T12:23:18Z</time>
      </trkpt>
      <trkpt lat="49.26441" lon="-0.48305">
        <ele>54.2</ele>
        <time>2023-04-28T12:23:19Z</time>
      </trkpt>
      <trkpt lat="49.26435" lon="-0.48301">
        <ele>54.4</ele>
        <time>2023-04-28T12:23:20Z</time>
      </trkpt>
      <trkpt lat="49.2643" lon="-0.48296">
        <ele>54.6</ele>
        <time>2023-04-28T12:23:21Z</time>
      </trkpt>
      <trkpt lat="49.26424" lon="-0.48292">
        <ele>54.8</ele>
        <time>2023-04-28T12:23:22Z</time>
      </trkpt>
      <trkpt lat="49.26419" lon="-0.48288">
        <ele>55</ele>
        <time>2023-04-28T12:23:23Z</time>
      </trkpt>
      <trkpt lat="49.26413" lon="-0.48284">
        <ele>55</ele>
        <time>2023-04-28T12:23:24Z</time>
      </trkpt>
      <trkpt lat="49.26408" lon="-0.4828">
        <ele>55</ele>
        <time>2023-04-28T12:23:25Z</time>
      </trkpt>
      <trkpt lat="49.26402" lon="-0.48276">
        <ele>55</ele>
        <time>2023-04-28T12:23:26Z</time>
      </trkpt>
      <trkpt lat="49.26397" lon="-0.48272">
        <ele>54.8</ele>
        <time>2023-04-28T12:23:27Z</time>
      </trkpt>
      <trkpt lat="49.26391" lon="-0.48269">
        <ele>54.8</ele>
        <time>2023-04-28T12:23:28Z</time>
      </trkpt>
      <trkpt lat="49.26386" lon="-0.48265">
        <ele>54.8</ele>
        <time>2023-04-28T12:23:29Z</time>
      </trkpt>
      <trkpt lat="49.2638" lon="-0.48262">
        <ele>54.6</ele>
        <time>2023-04-28T12:23:30Z</time>
      </trkpt>
      <trkpt lat="49.26375" lon="-0.48259">
        <ele>54.6</ele>
        <time>2023-04-28T12:23:31Z</time>
      </trkpt>
      <trkpt lat="49.26369" lon="-0.48257">
        <ele>54.6</ele>
        <time>2023-04-28T12:23:32Z</time>
      </trkpt>
      <trkpt lat="49.26363" lon="-0.48254">
        <ele>54.4</ele>
        <time>2023-04-28T12:23:33Z</time>
      </trkpt>
      <trkpt lat="49.26358" lon="-0.48251">
        <ele>54.2</ele>
        <time>2023-04-28T12:23:34Z</time>
      </trkpt>
      <trkpt lat="49.26352" lon="-0.48249">
        <ele>54.2</ele>
        <time>2023-04-28T12:23:35Z</time>
      </trkpt>
      <trkpt lat="49.26346" lon="-0.48247">
        <ele>54.2</ele>
        <time>2023-04-28T12:23:36Z</time>
      </trkpt>
      <trkpt lat="49.2634" lon="-0.48245">
        <ele>54</ele>
        <time>2023-04-28T12:23:37Z</time>
      </trkpt>
      <trkpt lat="49.26335" lon="-0.48243">
        <ele>54</ele>
        <time>2023-04-28T12:23:38Z</time>
      </trkpt>
      <trkpt lat="49.26329" lon="-0.48241">
        <ele>54.2</ele>
        <time>2023-04-28T12:23:39Z</time>
      </trkpt>
      <trkpt lat="49.26323" lon="-0.48239">
        <ele>54.4</ele>
        <time>2023-04-28T12:23:40Z</time>
      </trkpt>
      <trkpt lat="49.26317" lon="-0.48238">
        <ele>54.6</ele>
        <time>2023-04-28T12:23:41Z</time>
      </trkpt>
      <trkpt lat="49.26311" lon="-0.48236">
        <ele>54.6</ele>
        <time>2023-04-28T12:23:42Z</time>
      </trkpt>
      <trkpt lat="49.26306" lon="-0.48234">
        <ele>54.8</ele>
        <time>2023-04-28T12:23:43Z</time>
      </trkpt>
      <trkpt lat="49.263" lon="-0.48233">
        <ele>55</ele>
        <time>2023-04-28T12:23:44Z</time>
      </trkpt>
      <trkpt lat="49.26294" lon="-0.48231">
        <ele>55</ele>
        <time>2023-04-28T12:23:45Z</time>
      </trkpt>
      <trkpt lat="49.26288" lon="-0.48229">
        <ele>55.2</ele>
        <time>2023-04-28T12:23:46Z</time>
      </trkpt>
      <trkpt lat="49.26282" lon="-0.48228">
        <ele>55.2</ele>
        <time>2023-04-28T12:23:47Z</time>
      </trkpt>
      <trkpt lat="49.26276" lon="-0.48226">
        <ele>55.6</ele>
        <time>2023-04-28T12:23:48Z</time>
      </trkpt>
      <trkpt lat="49.26271" lon="-0.48225">
        <ele>55.6</ele>
        <time>2023-04-28T12:23:49Z</time>
      </trkpt>
      <trkpt lat="49.26265" lon="-0.48223">
        <ele>55.8</ele>
        <time>2023-04-28T12:23:50Z</time>
      </trkpt>
      <trkpt lat="49.26259" lon="-0.48221">
        <ele>55.8</ele>
        <time>2023-04-28T12:23:51Z</time>
      </trkpt>
      <trkpt lat="49.26253" lon="-0.48219">
        <ele>56</ele>
        <time>2023-04-28T12:23:52Z</time>
      </trkpt>
      <trkpt lat="49.26247" lon="-0.48218">
        <ele>56</ele>
        <time>2023-04-28T12:23:53Z</time>
      </trkpt>
      <trkpt lat="49.26241" lon="-0.48216">
        <ele>56</ele>
        <time>2023-04-28T12:23:54Z</time>
      </trkpt>
      <trkpt lat="49.26235" lon="-0.48214">
        <ele>56</ele>
        <time>2023-04-28T12:23:55Z</time>
      </trkpt>
      <trkpt lat="49.26229" lon="-0.48212">
        <ele>56</ele>
        <time>2023-04-28T12:23:56Z</time>
      </trkpt>
      <trkpt lat="49.26223" lon="-0.48211">
        <ele>56.2</ele>
        <time>2023-04-28T12:23:57Z</time>
      </trkpt>
      <trkpt lat="49.26218" lon="-0.48209">
        <ele>56.2</ele>
        <time>2023-04-28T12:23:58Z</time>
      </trkpt>
      <trkpt lat="49.26212" lon="-0.48207">
        <ele>56.2</ele>
        <time>2023-04-28T12:23:59Z</time>
      </trkpt>
      <trkpt lat="49.26206" lon="-0.48205">
        <ele>56.2</ele>
        <time>2023-04-28T12:24:00Z</time>
      </trkpt>
      <trkpt lat="49.262" lon="-0.48203">
        <ele>56.2</ele>
        <time>2023-04-28T12:24:01Z</time>
      </trkpt>
      <trkpt lat="49.26194" lon="-0.48201">
        <ele>56.2</ele>
        <time>2023-04-28T12:24:02Z</time>
      </trkpt>
      <trkpt lat="49.26189" lon="-0.48199">
        <ele>56.2</ele>
        <time>2023-04-28T12:24:03Z</time>
      </trkpt>
      <trkpt lat="49.26183" lon="-0.48197">
        <ele>56.2</ele>
        <time>2023-04-28T12:24:04Z</time>
      </trkpt>
      <trkpt lat="49.26177" lon="-0.48195">
        <ele>56.2</ele>
        <time>2023-04-28T12:24:05Z</time>
      </trkpt>
      <trkpt lat="49.26172" lon="-0.48193">
        <ele>56.2</ele>
        <time>2023-04-28T12:24:06Z</time>
      </trkpt>
      <trkpt lat="49.26166" lon="-0.4819">
        <ele>56.2</ele>
        <time>2023-04-28T12:24:07Z</time>
      </trkpt>
      <trkpt lat="49.2616" lon="-0.48188">
        <ele>56.4</ele>
        <time>2023-04-28T12:24:08Z</time>
      </trkpt>
      <trkpt lat="49.26155" lon="-0.48185">
        <ele>56.6</ele>
        <time>2023-04-28T12:24:09Z</time>
      </trkpt>
      <trkpt lat="49.26149" lon="-0.48183">
        <ele>56.6</ele>
        <time>2023-04-28T12:24:10Z</time>
      </trkpt>
      <trkpt lat="49.26143" lon="-0.4818">
        <ele>56.8</ele>
        <time>2023-04-28T12:24:11Z</time>
      </trkpt>
      <trkpt lat="49.26138" lon="-0.48178">
        <ele>56.8</ele>
        <time>2023-04-28T12:24:12Z</time>
      </trkpt>
      <trkpt lat="49.26132" lon="-0.48175">
        <ele>57</ele>
        <time>2023-04-28T12:24:13Z</time>
      </trkpt>
      <trkpt lat="49.26126" lon="-0.48173">
        <ele>57</ele>
        <time>2023-04-28T12:24:14Z</time>
      </trkpt>
      <trkpt lat="49.26121" lon="-0.48171">
        <ele>57</ele>
        <time>2023-04-28T12:24:15Z</time>
      </trkpt>
      <trkpt lat="49.26115" lon="-0.48168">
        <ele>57.2</ele>
        <time>2023-04-28T12:24:16Z</time>
      </trkpt>
      <trkpt lat="49.2611" lon="-0.48166">
        <ele>57.4</ele>
        <time>2023-04-28T12:24:17Z</time>
      </trkpt>
      <trkpt lat="49.26104" lon="-0.48163">
        <ele>57.6</ele>
        <time>2023-04-28T12:24:18Z</time>
      </trkpt>
      <trkpt lat="49.26098" lon="-0.48161">
        <ele>57.6</ele>
        <time>2023-04-28T12:24:19Z</time>
      </trkpt>
      <trkpt lat="49.26092" lon="-0.48158">
        <ele>57.8</ele>
        <time>2023-04-28T12:24:20Z</time>
      </trkpt>
      <trkpt lat="49.26087" lon="-0.48156">
        <ele>57.8</ele>
        <time>2023-04-28T12:24:21Z</time>
      </trkpt>
      <trkpt lat="49.26081" lon="-0.48153">
        <ele>57.8</ele>
        <time>2023-04-28T12:24:22Z</time>
      </trkpt>
      <trkpt lat="49.26075" lon="-0.4815">
        <ele>57.8</ele>
        <time>2023-04-28T12:24:23Z</time>
      </trkpt>
      <trkpt lat="49.26069" lon="-0.48148">
        <ele>57.8</ele>
        <time>2023-04-28T12:24:24Z</time>
      </trkpt>
      <trkpt lat="49.26063" lon="-0.48145">
        <ele>57.8</ele>
        <time>2023-04-28T12:24:25Z</time>
      </trkpt>
      <trkpt lat="49.26057" lon="-0.48142">
        <ele>57.8</ele>
        <time>2023-04-28T12:24:26Z</time>
      </trkpt>
      <trkpt lat="49.2605" lon="-0.48139">
        <ele>57.8</ele>
        <time>2023-04-28T12:24:27Z</time>
      </trkpt>
      <trkpt lat="49.26044" lon="-0.48137">
        <ele>57.6</ele>
        <time>2023-04-28T12:24:28Z</time>
      </trkpt>
      <trkpt lat="49.26038" lon="-0.48134">
        <ele>57.6</ele>
        <time>2023-04-28T12:24:29Z</time>
      </trkpt>
      <trkpt lat="49.26032" lon="-0.48131">
        <ele>57.6</ele>
        <time>2023-04-28T12:24:30Z</time>
      </trkpt>
      <trkpt lat="49.26025" lon="-0.48128">
        <ele>57.6</ele>
        <time>2023-04-28T12:24:31Z</time>
      </trkpt>
      <trkpt lat="49.26019" lon="-0.48125">
        <ele>57.6</ele>
        <time>2023-04-28T12:24:32Z</time>
      </trkpt>
      <trkpt lat="49.26012" lon="-0.48123">
        <ele>57.6</ele>
        <time>2023-04-28T12:24:33Z</time>
      </trkpt>
      <trkpt lat="49.26006" lon="-0.4812">
        <ele>57.4</ele>
        <time>2023-04-28T12:24:34Z</time>
      </trkpt>
      <trkpt lat="49.25999" lon="-0.48117">
        <ele>57.4</ele>
        <time>2023-04-28T12:24:35Z</time>
      </trkpt>
      <trkpt lat="49.25993" lon="-0.48114">
        <ele>57.2</ele>
        <time>2023-04-28T12:24:36Z</time>
      </trkpt>
      <trkpt lat="49.25986" lon="-0.48111">
        <ele>57</ele>
        <time>2023-04-28T12:24:37Z</time>
      </trkpt>
      <trkpt lat="49.2598" lon="-0.48108">
        <ele>57</ele>
        <time>2023-04-28T12:24:38Z</time>
      </trkpt>
      <trkpt lat="49.25973" lon="-0.48106">
        <ele>56.8</ele>
        <time>2023-04-28T12:24:39Z</time>
      </trkpt>
      <trkpt lat="49.25967" lon="-0.48103">
        <ele>56.6</ele>
        <time>2023-04-28T12:24:40Z</time>
      </trkpt>
      <trkpt lat="49.2596" lon="-0.481">
        <ele>56.6</ele>
        <time>2023-04-28T12:24:41Z</time>
      </trkpt>
      <trkpt lat="49.25954" lon="-0.48097">
        <ele>56.4</ele>
        <time>2023-04-28T12:24:42Z</time>
      </trkpt>
      <trkpt lat="49.25947" lon="-0.48094">
        <ele>56.2</ele>
        <time>2023-04-28T12:24:43Z</time>
      </trkpt>
      <trkpt lat="49.2594" lon="-0.48091">
        <ele>56.2</ele>
        <time>2023-04-28T12:24:44Z</time>
      </trkpt>
      <trkpt lat="49.25934" lon="-0.48088">
        <ele>56.2</ele>
        <time>2023-04-28T12:24:45Z</time>
      </trkpt>
      <trkpt lat="49.25927" lon="-0.48085">
        <ele>56</ele>
        <time>2023-04-28T12:24:46Z</time>
      </trkpt>
      <trkpt lat="49.25921" lon="-0.48083">
        <ele>56</ele>
        <time>2023-04-28T12:24:47Z</time>
      </trkpt>
      <trkpt lat="49.25914" lon="-0.4808">
        <ele>56</ele>
        <time>2023-04-28T12:24:48Z</time>
      </trkpt>
      <trkpt lat="49.25907" lon="-0.48077">
        <ele>56</ele>
        <time>2023-04-28T12:24:49Z</time>
      </trkpt>
      <trkpt lat="49.25901" lon="-0.48074">
        <ele>56</ele>
        <time>2023-04-28T12:24:50Z</time>
      </trkpt>
      <trkpt lat="49.25894" lon="-0.48071">
        <ele>56</ele>
        <time>2023-04-28T12:24:51Z</time>
      </trkpt>
      <trkpt lat="49.25887" lon="-0.48068">
        <ele>55.8</ele>
        <time>2023-04-28T12:24:52Z</time>
      </trkpt>
      <trkpt lat="49.2588" lon="-0.48065">
        <ele>55.8</ele>
        <time>2023-04-28T12:24:53Z</time>
      </trkpt>
      <trkpt lat="49.25873" lon="-0.48062">
        <ele>55.8</ele>
        <time>2023-04-28T12:24:54Z</time>
      </trkpt>
      <trkpt lat="49.25866" lon="-0.48059">
        <ele>55.8</ele>
        <time>2023-04-28T12:24:55Z</time>
      </trkpt>
      <trkpt lat="49.25859" lon="-0.48056">
        <ele>55.8</ele>
        <time>2023-04-28T12:24:56Z</time>
      </trkpt>
      <trkpt lat="49.25852" lon="-0.48053">
        <ele>55.6</ele>
        <time>2023-04-28T12:24:57Z</time>
      </trkpt>
      <trkpt lat="49.25846" lon="-0.48049">
        <ele>55.6</ele>
        <time>2023-04-28T12:24:58Z</time>
      </trkpt>
      <trkpt lat="49.25839" lon="-0.48046">
        <ele>55.6</ele>
        <time>2023-04-28T12:24:59Z</time>
      </trkpt>
      <trkpt lat="49.25832" lon="-0.48043">
        <ele>55.6</ele>
        <time>2023-04-28T12:25:00Z</time>
      </trkpt>
      <trkpt lat="49.25825" lon="-0.4804">
        <ele>55.2</ele>
        <time>2023-04-28T12:25:01Z</time>
      </trkpt>
      <trkpt lat="49.25818" lon="-0.48037">
        <ele>55</ele>
        <time>2023-04-28T12:25:02Z</time>
      </trkpt>
      <trkpt lat="49.25811" lon="-0.48034">
        <ele>55</ele>
        <time>2023-04-28T12:25:03Z</time>
      </trkpt>
      <trkpt lat="49.25804" lon="-0.48031">
        <ele>54.8</ele>
        <time>2023-04-28T12:25:04Z</time>
      </trkpt>
      <trkpt lat="49.25798" lon="-0.48027">
        <ele>54.6</ele>
        <time>2023-04-28T12:25:05Z</time>
      </trkpt>
      <trkpt lat="49.25791" lon="-0.48024">
        <ele>54.6</ele>
        <time>2023-04-28T12:25:06Z</time>
      </trkpt>
      <trkpt lat="49.25784" lon="-0.48021">
        <ele>54.4</ele>
        <time>2023-04-28T12:25:07Z</time>
      </trkpt>
      <trkpt lat="49.25777" lon="-0.48018">
        <ele>54.2</ele>
        <time>2023-04-28T12:25:08Z</time>
      </trkpt>
      <trkpt lat="49.25771" lon="-0.48015">
        <ele>54.2</ele>
        <time>2023-04-28T12:25:09Z</time>
      </trkpt>
      <trkpt lat="49.25764" lon="-0.48012">
        <ele>54</ele>
        <time>2023-04-28T12:25:10Z</time>
      </trkpt>
      <trkpt lat="49.25758" lon="-0.48009">
        <ele>54</ele>
        <time>2023-04-28T12:25:11Z</time>
      </trkpt>
      <trkpt lat="49.25751" lon="-0.48007">
        <ele>54</ele>
        <time>2023-04-28T12:25:12Z</time>
      </trkpt>
      <trkpt lat="49.25744" lon="-0.48004">
        <ele>54</ele>
        <time>2023-04-28T12:25:13Z</time>
      </trkpt>
      <trkpt lat="49.25738" lon="-0.48001">
        <ele>53.8</ele>
        <time>2023-04-28T12:25:14Z</time>
      </trkpt>
      <trkpt lat="49.25731" lon="-0.47998">
        <ele>53.8</ele>
        <time>2023-04-28T12:25:15Z</time>
      </trkpt>
      <trkpt lat="49.25724" lon="-0.47995">
        <ele>53.8</ele>
        <time>2023-04-28T12:25:16Z</time>
      </trkpt>
      <trkpt lat="49.25718" lon="-0.47992">
        <ele>53.8</ele>
        <time>2023-04-28T12:25:17Z</time>
      </trkpt>
      <trkpt lat="49.25711" lon="-0.47989">
        <ele>53.8</ele>
        <time>2023-04-28T12:25:18Z</time>
      </trkpt>
      <trkpt lat="49.25704" lon="-0.47986">
        <ele>53.8</ele>
        <time>2023-04-28T12:25:19Z</time>
      </trkpt>
      <trkpt lat="49.25697" lon="-0.47983">
        <ele>53.8</ele>
        <time>2023-04-28T12:25:20Z</time>
      </trkpt>
      <trkpt lat="49.2569" lon="-0.4798">
        <ele>53.8</ele>
        <time>2023-04-28T12:25:21Z</time>
      </trkpt>
      <trkpt lat="49.25684" lon="-0.47977">
        <ele>53.8</ele>
        <time>2023-04-28T12:25:22Z</time>
      </trkpt>
      <trkpt lat="49.25677" lon="-0.47973">
        <ele>53.8</ele>
        <time>2023-04-28T12:25:23Z</time>
      </trkpt>
      <trkpt lat="49.2567" lon="-0.47971">
        <ele>53.8</ele>
        <time>2023-04-28T12:25:24Z</time>
      </trkpt>
      <trkpt lat="49.25663" lon="-0.47967">
        <ele>53.8</ele>
        <time>2023-04-28T12:25:25Z</time>
      </trkpt>
      <trkpt lat="49.25656" lon="-0.47964">
        <ele>54</ele>
        <time>2023-04-28T12:25:26Z</time>
      </trkpt>
      <trkpt lat="49.25649" lon="-0.47961">
        <ele>54</ele>
        <time>2023-04-28T12:25:27Z</time>
      </trkpt>
      <trkpt lat="49.25641" lon="-0.47958">
        <ele>54</ele>
        <time>2023-04-28T12:25:28Z</time>
      </trkpt>
      <trkpt lat="49.25634" lon="-0.47955">
        <ele>54</ele>
        <time>2023-04-28T12:25:29Z</time>
      </trkpt>
      <trkpt lat="49.25627" lon="-0.47952">
        <ele>54</ele>
        <time>2023-04-28T12:25:30Z</time>
      </trkpt>
      <trkpt lat="49.2562" lon="-0.47949">
        <ele>54</ele>
        <time>2023-04-28T12:25:31Z</time>
      </trkpt>
      <trkpt lat="49.25612" lon="-0.47946">
        <ele>54</ele>
        <time>2023-04-28T12:25:32Z</time>
      </trkpt>
      <trkpt lat="49.25605" lon="-0.47943">
        <ele>54</ele>
        <time>2023-04-28T12:25:33Z</time>
      </trkpt>
      <trkpt lat="49.25598" lon="-0.4794">
        <ele>54</ele>
        <time>2023-04-28T12:25:34Z</time>
      </trkpt>
      <trkpt lat="49.2559" lon="-0.47937">
        <ele>54</ele>
        <time>2023-04-28T12:25:35Z</time>
      </trkpt>
      <trkpt lat="49.25583" lon="-0.47934">
        <ele>54</ele>
        <time>2023-04-28T12:25:36Z</time>
      </trkpt>
      <trkpt lat="49.25575" lon="-0.47931">
        <ele>53.6</ele>
        <time>2023-04-28T12:25:37Z</time>
      </trkpt>
      <trkpt lat="49.25568" lon="-0.47929">
        <ele>53.2</ele>
        <time>2023-04-28T12:25:38Z</time>
      </trkpt>
      <trkpt lat="49.2556" lon="-0.47926">
        <ele>53</ele>
        <time>2023-04-28T12:25:39Z</time>
      </trkpt>
      <trkpt lat="49.25553" lon="-0.47923">
        <ele>52.6</ele>
        <time>2023-04-28T12:25:40Z</time>
      </trkpt>
      <trkpt lat="49.25546" lon="-0.4792">
        <ele>52.2</ele>
        <time>2023-04-28T12:25:41Z</time>
      </trkpt>
      <trkpt lat="49.25538" lon="-0.47918">
        <ele>51.8</ele>
        <time>2023-04-28T12:25:42Z</time>
      </trkpt>
      <trkpt lat="49.25531" lon="-0.47915">
        <ele>51.6</ele>
        <time>2023-04-28T12:25:43Z</time>
      </trkpt>
      <trkpt lat="49.25523" lon="-0.47913">
        <ele>51</ele>
        <time>2023-04-28T12:25:44Z</time>
      </trkpt>
      <trkpt lat="49.25516" lon="-0.4791">
        <ele>50.8</ele>
        <time>2023-04-28T12:25:45Z</time>
      </trkpt>
      <trkpt lat="49.25509" lon="-0.47907">
        <ele>50.6</ele>
        <time>2023-04-28T12:25:46Z</time>
      </trkpt>
      <trkpt lat="49.25501" lon="-0.47904">
        <ele>50.2</ele>
        <time>2023-04-28T12:25:47Z</time>
      </trkpt>
      <trkpt lat="49.25494" lon="-0.479">
        <ele>50</ele>
        <time>2023-04-28T12:25:48Z</time>
      </trkpt>
      <trkpt lat="49.25487" lon="-0.47896">
        <ele>50</ele>
        <time>2023-04-28T12:25:49Z</time>
      </trkpt>
      <trkpt lat="49.25479" lon="-0.47892">
        <ele>49.8</ele>
        <time>2023-04-28T12:25:50Z</time>
      </trkpt>
      <trkpt lat="49.25472" lon="-0.47887">
        <ele>49.6</ele>
        <time>2023-04-28T12:25:51Z</time>
      </trkpt>
      <trkpt lat="49.25465" lon="-0.47882">
        <ele>49.4</ele>
        <time>2023-04-28T12:25:52Z</time>
      </trkpt>
      <trkpt lat="49.25457" lon="-0.47876">
        <ele>49.2</ele>
        <time>2023-04-28T12:25:53Z</time>
      </trkpt>
      <trkpt lat="49.2545" lon="-0.4787">
        <ele>49</ele>
        <time>2023-04-28T12:25:54Z</time>
      </trkpt>
      <trkpt lat="49.25443" lon="-0.47864">
        <ele>48.8</ele>
        <time>2023-04-28T12:25:55Z</time>
      </trkpt>
      <trkpt lat="49.25436" lon="-0.47858">
        <ele>48.6</ele>
        <time>2023-04-28T12:25:56Z</time>
      </trkpt>
      <trkpt lat="49.25429" lon="-0.47851">
        <ele>48.4</ele>
        <time>2023-04-28T12:25:57Z</time>
      </trkpt>
      <trkpt lat="49.25421" lon="-0.47845">
        <ele>48.2</ele>
        <time>2023-04-28T12:25:58Z</time>
      </trkpt>
      <trkpt lat="49.25414" lon="-0.47838">
        <ele>48</ele>
        <time>2023-04-28T12:25:59Z</time>
      </trkpt>
      <trkpt lat="49.25406" lon="-0.47831">
        <ele>48</ele>
        <time>2023-04-28T12:26:00Z</time>
      </trkpt>
      <trkpt lat="49.25399" lon="-0.47824">
        <ele>48</ele>
        <time>2023-04-28T12:26:01Z</time>
      </trkpt>
      <trkpt lat="49.25391" lon="-0.47817">
        <ele>47.8</ele>
        <time>2023-04-28T12:26:02Z</time>
      </trkpt>
      <trkpt lat="49.25384" lon="-0.4781">
        <ele>47.8</ele>
        <time>2023-04-28T12:26:03Z</time>
      </trkpt>
      <trkpt lat="49.25376" lon="-0.47803">
        <ele>47.8</ele>
        <time>2023-04-28T12:26:04Z</time>
      </trkpt>
      <trkpt lat="49.25369" lon="-0.47795">
        <ele>47.6</ele>
        <time>2023-04-28T12:26:05Z</time>
      </trkpt>
      <trkpt lat="49.25361" lon="-0.47788">
        <ele>47.6</ele>
        <time>2023-04-28T12:26:06Z</time>
      </trkpt>
      <trkpt lat="49.25353" lon="-0.4778">
        <ele>47.4</ele>
        <time>2023-04-28T12:26:07Z</time>
      </trkpt>
      <trkpt lat="49.25346" lon="-0.47772">
        <ele>47.2</ele>
        <time>2023-04-28T12:26:08Z</time>
      </trkpt>
      <trkpt lat="49.25338" lon="-0.47763">
        <ele>47</ele>
        <time>2023-04-28T12:26:09Z</time>
      </trkpt>
      <trkpt lat="49.25331" lon="-0.47754">
        <ele>47</ele>
        <time>2023-04-28T12:26:10Z</time>
      </trkpt>
      <trkpt lat="49.25324" lon="-0.47745">
        <ele>46.6</ele>
        <time>2023-04-28T12:26:11Z</time>
      </trkpt>
      <trkpt lat="49.25317" lon="-0.47736">
        <ele>46</ele>
        <time>2023-04-28T12:26:12Z</time>
      </trkpt>
      <trkpt lat="49.25309" lon="-0.47727">
        <ele>45.6</ele>
        <time>2023-04-28T12:26:13Z</time>
      </trkpt>
      <trkpt lat="49.25302" lon="-0.47718">
        <ele>45</ele>
        <time>2023-04-28T12:26:14Z</time>
      </trkpt>
      <trkpt lat="49.25295" lon="-0.47709">
        <ele>44.8</ele>
        <time>2023-04-28T12:26:15Z</time>
      </trkpt>
      <trkpt lat="49.25288" lon="-0.477">
        <ele>44.2</ele>
        <time>2023-04-28T12:26:16Z</time>
      </trkpt>
      <trkpt lat="49.2528" lon="-0.47691">
        <ele>43.8</ele>
        <time>2023-04-28T12:26:17Z</time>
      </trkpt>
      <trkpt lat="49.25273" lon="-0.47682">
        <ele>43.2</ele>
        <time>2023-04-28T12:26:18Z</time>
      </trkpt>
      <trkpt lat="49.25266" lon="-0.47673">
        <ele>42.8</ele>
        <time>2023-04-28T12:26:19Z</time>
      </trkpt>
      <trkpt lat="49.25258" lon="-0.47664">
        <ele>42.4</ele>
        <time>2023-04-28T12:26:20Z</time>
      </trkpt>
      <trkpt lat="49.25251" lon="-0.47654">
        <ele>42</ele>
        <time>2023-04-28T12:26:21Z</time>
      </trkpt>
      <trkpt lat="49.25243" lon="-0.47645">
        <ele>41.6</ele>
        <time>2023-04-28T12:26:22Z</time>
      </trkpt>
      <trkpt lat="49.25236" lon="-0.47635">
        <ele>41.4</ele>
        <time>2023-04-28T12:26:23Z</time>
      </trkpt>
      <trkpt lat="49.25228" lon="-0.47626">
        <ele>41</ele>
        <time>2023-04-28T12:26:24Z</time>
      </trkpt>
      <trkpt lat="49.25221" lon="-0.47616">
        <ele>40.8</ele>
        <time>2023-04-28T12:26:25Z</time>
      </trkpt>
      <trkpt lat="49.25213" lon="-0.47607">
        <ele>40.6</ele>
        <time>2023-04-28T12:26:26Z</time>
      </trkpt>
      <trkpt lat="49.25205" lon="-0.47597">
        <ele>40.2</ele>
        <time>2023-04-28T12:26:27Z</time>
      </trkpt>
      <trkpt lat="49.25198" lon="-0.47588">
        <ele>39.8</ele>
        <time>2023-04-28T12:26:28Z</time>
      </trkpt>
      <trkpt lat="49.2519" lon="-0.47578">
        <ele>39.6</ele>
        <time>2023-04-28T12:26:29Z</time>
      </trkpt>
      <trkpt lat="49.25183" lon="-0.47569">
        <ele>39.4</ele>
        <time>2023-04-28T12:26:30Z</time>
      </trkpt>
      <trkpt lat="49.25176" lon="-0.47559">
        <ele>39.2</ele>
        <time>2023-04-28T12:26:31Z</time>
      </trkpt>
      <trkpt lat="49.25168" lon="-0.4755">
        <ele>39</ele>
        <time>2023-04-28T12:26:32Z</time>
      </trkpt>
      <trkpt lat="49.25161" lon="-0.4754">
        <ele>39.2</ele>
        <time>2023-04-28T12:26:33Z</time>
      </trkpt>
      <trkpt lat="49.25154" lon="-0.4753">
        <ele>39.2</ele>
        <time>2023-04-28T12:26:34Z</time>
      </trkpt>
      <trkpt lat="49.25148" lon="-0.4752">
        <ele>39.6</ele>
        <time>2023-04-28T12:26:35Z</time>
      </trkpt>
      <trkpt lat="49.25141" lon="-0.4751">
        <ele>39.8</ele>
        <time>2023-04-28T12:26:36Z</time>
      </trkpt>
      <trkpt lat="49.25134" lon="-0.475">
        <ele>39.8</ele>
        <time>2023-04-28T12:26:37Z</time>
      </trkpt>
      <trkpt lat="49.25128" lon="-0.4749">
        <ele>39.6</ele>
        <time>2023-04-28T12:26:38Z</time>
      </trkpt>
      <trkpt lat="49.25121" lon="-0.4748">
        <ele>39.6</ele>
        <time>2023-04-28T12:26:39Z</time>
      </trkpt>
      <trkpt lat="49.25115" lon="-0.4747">
        <ele>39.2</ele>
        <time>2023-04-28T12:26:40Z</time>
      </trkpt>
      <trkpt lat="49.25109" lon="-0.4746">
        <ele>39</ele>
        <time>2023-04-28T12:26:41Z</time>
      </trkpt>
      <trkpt lat="49.25103" lon="-0.4745">
        <ele>39</ele>
        <time>2023-04-28T12:26:42Z</time>
      </trkpt>
      <trkpt lat="49.25096" lon="-0.4744">
        <ele>38.6</ele>
        <time>2023-04-28T12:26:43Z</time>
      </trkpt>
      <trkpt lat="49.2509" lon="-0.4743">
        <ele>38.4</ele>
        <time>2023-04-28T12:26:44Z</time>
      </trkpt>
      <trkpt lat="49.25084" lon="-0.47421">
        <ele>38</ele>
        <time>2023-04-28T12:26:45Z</time>
      </trkpt>
      <trkpt lat="49.25077" lon="-0.47411">
        <ele>38</ele>
        <time>2023-04-28T12:26:46Z</time>
      </trkpt>
      <trkpt lat="49.25071" lon="-0.47402">
        <ele>37.8</ele>
        <time>2023-04-28T12:26:47Z</time>
      </trkpt>
      <trkpt lat="49.25065" lon="-0.47392">
        <ele>37.6</ele>
        <time>2023-04-28T12:26:48Z</time>
      </trkpt>
      <trkpt lat="49.25058" lon="-0.47383">
        <ele>37.6</ele>
        <time>2023-04-28T12:26:49Z</time>
      </trkpt>
      <trkpt lat="49.25052" lon="-0.47374">
        <ele>37.4</ele>
        <time>2023-04-28T12:26:50Z</time>
      </trkpt>
      <trkpt lat="49.25045" lon="-0.47365">
        <ele>37.2</ele>
        <time>2023-04-28T12:26:51Z</time>
      </trkpt>
      <trkpt lat="49.25038" lon="-0.47356">
        <ele>37</ele>
        <time>2023-04-28T12:26:52Z</time>
      </trkpt>
      <trkpt lat="49.25032" lon="-0.47347">
        <ele>37</ele>
        <time>2023-04-28T12:26:53Z</time>
      </trkpt>
      <trkpt lat="49.25025" lon="-0.47338">
        <ele>36.8</ele>
        <time>2023-04-28T12:26:54Z</time>
      </trkpt>
      <trkpt lat="49.25019" lon="-0.47328">
        <ele>36.6</ele>
        <time>2023-04-28T12:26:55Z</time>
      </trkpt>
      <trkpt lat="49.25013" lon="-0.47319">
        <ele>36.6</ele>
        <time>2023-04-28T12:26:56Z</time>
      </trkpt>
      <trkpt lat="49.25007" lon="-0.47309">
        <ele>36.2</ele>
        <time>2023-04-28T12:26:57Z</time>
      </trkpt>
      <trkpt lat="49.25001" lon="-0.47299">
        <ele>36.2</ele>
        <time>2023-04-28T12:26:58Z</time>
      </trkpt>
      <trkpt lat="49.24995" lon="-0.47289">
        <ele>36</ele>
        <time>2023-04-28T12:26:59Z</time>
      </trkpt>
      <trkpt lat="49.24989" lon="-0.47278">
        <ele>35.8</ele>
        <time>2023-04-28T12:27:00Z</time>
      </trkpt>
      <trkpt lat="49.24984" lon="-0.47268">
        <ele>35.6</ele>
        <time>2023-04-28T12:27:01Z</time>
      </trkpt>
      <trkpt lat="49.24978" lon="-0.47258">
        <ele>35.4</ele>
        <time>2023-04-28T12:27:02Z</time>
      </trkpt>
      <trkpt lat="49.24972" lon="-0.47247">
        <ele>35.2</ele>
        <time>2023-04-28T12:27:03Z</time>
      </trkpt>
      <trkpt lat="49.24967" lon="-0.47237">
        <ele>35.2</ele>
        <time>2023-04-28T12:27:04Z</time>
      </trkpt>
      <trkpt lat="49.24961" lon="-0.47227">
        <ele>35</ele>
        <time>2023-04-28T12:27:05Z</time>
      </trkpt>
      <trkpt lat="49.24956" lon="-0.47217">
        <ele>35</ele>
        <time>2023-04-28T12:27:06Z</time>
      </trkpt>
      <trkpt lat="49.2495" lon="-0.47207">
        <ele>35</ele>
        <time>2023-04-28T12:27:07Z</time>
      </trkpt>
      <trkpt lat="49.24944" lon="-0.47197">
        <ele>34.8</ele>
        <time>2023-04-28T12:27:08Z</time>
      </trkpt>
      <trkpt lat="49.24939" lon="-0.47187">
        <ele>34.8</ele>
        <time>2023-04-28T12:27:09Z</time>
      </trkpt>
      <trkpt lat="49.24933" lon="-0.47178">
        <ele>34.8</ele>
        <time>2023-04-28T12:27:10Z</time>
      </trkpt>
      <trkpt lat="49.24928" lon="-0.47168">
        <ele>34.8</ele>
        <time>2023-04-28T12:27:11Z</time>
      </trkpt>
      <trkpt lat="49.24923" lon="-0.47158">
        <ele>35</ele>
        <time>2023-04-28T12:27:12Z</time>
      </trkpt>
      <trkpt lat="49.24917" lon="-0.47149">
        <ele>35.2</ele>
        <time>2023-04-28T12:27:13Z</time>
      </trkpt>
      <trkpt lat="49.24912" lon="-0.4714">
        <ele>35.4</ele>
        <time>2023-04-28T12:27:14Z</time>
      </trkpt>
      <trkpt lat="49.24907" lon="-0.47131">
        <ele>35.6</ele>
        <time>2023-04-28T12:27:15Z</time>
      </trkpt>
      <trkpt lat="49.24902" lon="-0.47122">
        <ele>35.8</ele>
        <time>2023-04-28T12:27:16Z</time>
      </trkpt>
      <trkpt lat="49.24896" lon="-0.47113">
        <ele>36</ele>
        <time>2023-04-28T12:27:17Z</time>
      </trkpt>
      <trkpt lat="49.24891" lon="-0.47104">
        <ele>36</ele>
        <time>2023-04-28T12:27:18Z</time>
      </trkpt>
      <trkpt lat="49.24887" lon="-0.47096">
        <ele>36.2</ele>
        <time>2023-04-28T12:27:19Z</time>
      </trkpt>
      <trkpt lat="49.24882" lon="-0.47088">
        <ele>36.4</ele>
        <time>2023-04-28T12:27:20Z</time>
      </trkpt>
      <trkpt lat="49.24877" lon="-0.47079">
        <ele>36.6</ele>
        <time>2023-04-28T12:27:21Z</time>
      </trkpt>
      <trkpt lat="49.24872" lon="-0.47071">
        <ele>36.6</ele>
        <time>2023-04-28T12:27:22Z</time>
      </trkpt>
      <trkpt lat="49.24867" lon="-0.47063">
        <ele>36.8</ele>
        <time>2023-04-28T12:27:23Z</time>
      </trkpt>
      <trkpt lat="49.24863" lon="-0.47056">
        <ele>36.8</ele>
        <time>2023-04-28T12:27:24Z</time>
      </trkpt>
      <trkpt lat="49.24858" lon="-0.47048">
        <ele>36.8</ele>
        <time>2023-04-28T12:27:25Z</time>
      </trkpt>
      <trkpt lat="49.24854" lon="-0.4704">
        <ele>37</ele>
        <time>2023-04-28T12:27:26Z</time>
      </trkpt>
      <trkpt lat="49.2485" lon="-0.47032">
        <ele>37</ele>
        <time>2023-04-28T12:27:27Z</time>
      </trkpt>
      <trkpt lat="49.24845" lon="-0.47025">
        <ele>37</ele>
        <time>2023-04-28T12:27:28Z</time>
      </trkpt>
      <trkpt lat="49.24841" lon="-0.47017">
        <ele>37</ele>
        <time>2023-04-28T12:27:29Z</time>
      </trkpt>
      <trkpt lat="49.24836" lon="-0.4701">
        <ele>37</ele>
        <time>2023-04-28T12:27:30Z</time>
      </trkpt>
      <trkpt lat="49.24832" lon="-0.47002">
        <ele>37</ele>
        <time>2023-04-28T12:27:31Z</time>
      </trkpt>
      <trkpt lat="49.24828" lon="-0.46994">
        <ele>37</ele>
        <time>2023-04-28T12:27:32Z</time>
      </trkpt>
      <trkpt lat="49.24824" lon="-0.46987">
        <ele>37.2</ele>
        <time>2023-04-28T12:27:33Z</time>
      </trkpt>
      <trkpt lat="49.2482" lon="-0.46979">
        <ele>37.2</ele>
        <time>2023-04-28T12:27:34Z</time>
      </trkpt>
      <trkpt lat="49.24816" lon="-0.46971">
        <ele>37.4</ele>
        <time>2023-04-28T12:27:35Z</time>
      </trkpt>
      <trkpt lat="49.24812" lon="-0.46964">
        <ele>37.6</ele>
        <time>2023-04-28T12:27:36Z</time>
      </trkpt>
      <trkpt lat="49.24808" lon="-0.46956">
        <ele>37.6</ele>
        <time>2023-04-28T12:27:37Z</time>
      </trkpt>
      <trkpt lat="49.24805" lon="-0.46948">
        <ele>37.8</ele>
        <time>2023-04-28T12:27:38Z</time>
      </trkpt>
      <trkpt lat="49.24801" lon="-0.46939">
        <ele>37.8</ele>
        <time>2023-04-28T12:27:39Z</time>
      </trkpt>
      <trkpt lat="49.24797" lon="-0.46931">
        <ele>38</ele>
        <time>2023-04-28T12:27:40Z</time>
      </trkpt>
      <trkpt lat="49.24794" lon="-0.46923">
        <ele>38</ele>
        <time>2023-04-28T12:27:41Z</time>
      </trkpt>
      <trkpt lat="49.2479" lon="-0.46915">
        <ele>38</ele>
        <time>2023-04-28T12:27:42Z</time>
      </trkpt>
      <trkpt lat="49.24787" lon="-0.46906">
        <ele>38.2</ele>
        <time>2023-04-28T12:27:43Z</time>
      </trkpt>
      <trkpt lat="49.24784" lon="-0.46898">
        <ele>38.2</ele>
        <time>2023-04-28T12:27:44Z</time>
      </trkpt>
      <trkpt lat="49.2478" lon="-0.46889">
        <ele>38.4</ele>
        <time>2023-04-28T12:27:45Z</time>
      </trkpt>
      <trkpt lat="49.24777" lon="-0.46881">
        <ele>38.6</ele>
        <time>2023-04-28T12:27:46Z</time>
      </trkpt>
      <trkpt lat="49.24774" lon="-0.46872">
        <ele>38.6</ele>
        <time>2023-04-28T12:27:47Z</time>
      </trkpt>
      <trkpt lat="49.2477" lon="-0.46864">
        <ele>38.8</ele>
        <time>2023-04-28T12:27:48Z</time>
      </trkpt>
      <trkpt lat="49.24767" lon="-0.46855">
        <ele>38.8</ele>
        <time>2023-04-28T12:27:49Z</time>
      </trkpt>
      <trkpt lat="49.24764" lon="-0.46847">
        <ele>38.8</ele>
        <time>2023-04-28T12:27:50Z</time>
      </trkpt>
      <trkpt lat="49.24761" lon="-0.46838">
        <ele>39</ele>
        <time>2023-04-28T12:27:51Z</time>
      </trkpt>
      <trkpt lat="49.24757" lon="-0.4683">
        <ele>39</ele>
        <time>2023-04-28T12:27:52Z</time>
      </trkpt>
      <trkpt lat="49.24754" lon="-0.46821">
        <ele>39</ele>
        <time>2023-04-28T12:27:53Z</time>
      </trkpt>
      <trkpt lat="49.24751" lon="-0.46813">
        <ele>39.2</ele>
        <time>2023-04-28T12:27:54Z</time>
      </trkpt>
      <trkpt lat="49.24748" lon="-0.46804">
        <ele>39.4</ele>
        <time>2023-04-28T12:27:55Z</time>
      </trkpt>
      <trkpt lat="49.24745" lon="-0.46796">
        <ele>39.6</ele>
        <time>2023-04-28T12:27:56Z</time>
      </trkpt>
      <trkpt lat="49.24742" lon="-0.46787">
        <ele>39.8</ele>
        <time>2023-04-28T12:27:57Z</time>
      </trkpt>
      <trkpt lat="49.24738" lon="-0.46778">
        <ele>39.8</ele>
        <time>2023-04-28T12:27:58Z</time>
      </trkpt>
      <trkpt lat="49.24735" lon="-0.4677">
        <ele>40</ele>
        <time>2023-04-28T12:27:59Z</time>
      </trkpt>
      <trkpt lat="49.24732" lon="-0.46762">
        <ele>40</ele>
        <time>2023-04-28T12:28:00Z</time>
      </trkpt>
      <trkpt lat="49.24729" lon="-0.46753">
        <ele>40.2</ele>
        <time>2023-04-28T12:28:01Z</time>
      </trkpt>
      <trkpt lat="49.24726" lon="-0.46745">
        <ele>40.4</ele>
        <time>2023-04-28T12:28:02Z</time>
      </trkpt>
      <trkpt lat="49.24723" lon="-0.46736">
        <ele>40.8</ele>
        <time>2023-04-28T12:28:03Z</time>
      </trkpt>
      <trkpt lat="49.2472" lon="-0.46728">
        <ele>41</ele>
        <time>2023-04-28T12:28:04Z</time>
      </trkpt>
      <trkpt lat="49.24717" lon="-0.4672">
        <ele>41</ele>
        <time>2023-04-28T12:28:05Z</time>
      </trkpt>
      <trkpt lat="49.24714" lon="-0.46711">
        <ele>41.2</ele>
        <time>2023-04-28T12:28:06Z</time>
      </trkpt>
      <trkpt lat="49.24711" lon="-0.46703">
        <ele>41.4</ele>
        <time>2023-04-28T12:28:07Z</time>
      </trkpt>
      <trkpt lat="49.24708" lon="-0.46695">
        <ele>41.6</ele>
        <time>2023-04-28T12:28:08Z</time>
      </trkpt>
      <trkpt lat="49.24705" lon="-0.46687">
        <ele>41.6</ele>
        <time>2023-04-28T12:28:09Z</time>
      </trkpt>
      <trkpt lat="49.24703" lon="-0.46678">
        <ele>41.8</ele>
        <time>2023-04-28T12:28:10Z</time>
      </trkpt>
      <trkpt lat="49.247" lon="-0.4667">
        <ele>41.8</ele>
        <time>2023-04-28T12:28:11Z</time>
      </trkpt>
      <trkpt lat="49.24697" lon="-0.46662">
        <ele>41.8</ele>
        <time>2023-04-28T12:28:12Z</time>
      </trkpt>
      <trkpt lat="49.24694" lon="-0.46654">
        <ele>41.8</ele>
        <time>2023-04-28T12:28:13Z</time>
      </trkpt>
      <trkpt lat="49.24691" lon="-0.46646">
        <ele>41.8</ele>
        <time>2023-04-28T12:28:14Z</time>
      </trkpt>
      <trkpt lat="49.24687" lon="-0.46639">
        <ele>41.8</ele>
        <time>2023-04-28T12:28:15Z</time>
      </trkpt>
      <trkpt lat="49.24684" lon="-0.46631">
        <ele>41.8</ele>
        <time>2023-04-28T12:28:16Z</time>
      </trkpt>
      <trkpt lat="49.24681" lon="-0.46623">
        <ele>41.8</ele>
        <time>2023-04-28T12:28:17Z</time>
      </trkpt>
      <trkpt lat="49.24679" lon="-0.46616">
        <ele>41.8</ele>
        <time>2023-04-28T12:28:18Z</time>
      </trkpt>
      <trkpt lat="49.24676" lon="-0.46608">
        <ele>41.8</ele>
        <time>2023-04-28T12:28:19Z</time>
      </trkpt>
      <trkpt lat="49.24673" lon="-0.46601">
        <ele>41.8</ele>
        <time>2023-04-28T12:28:20Z</time>
      </trkpt>
      <trkpt lat="49.2467" lon="-0.46593">
        <ele>42</ele>
        <time>2023-04-28T12:28:21Z</time>
      </trkpt>
      <trkpt lat="49.24666" lon="-0.46586">
        <ele>42</ele>
        <time>2023-04-28T12:28:22Z</time>
      </trkpt>
      <trkpt lat="49.24663" lon="-0.46578">
        <ele>42</ele>
        <time>2023-04-28T12:28:23Z</time>
      </trkpt>
      <trkpt lat="49.2466" lon="-0.46571">
        <ele>42.2</ele>
        <time>2023-04-28T12:28:24Z</time>
      </trkpt>
      <trkpt lat="49.24657" lon="-0.46563">
        <ele>42.4</ele>
        <time>2023-04-28T12:28:25Z</time>
      </trkpt>
      <trkpt lat="49.24654" lon="-0.46555">
        <ele>42.6</ele>
        <time>2023-04-28T12:28:26Z</time>
      </trkpt>
      <trkpt lat="49.24651" lon="-0.46548">
        <ele>42.6</ele>
        <time>2023-04-28T12:28:27Z</time>
      </trkpt>
      <trkpt lat="49.24647" lon="-0.4654">
        <ele>42.8</ele>
        <time>2023-04-28T12:28:28Z</time>
      </trkpt>
      <trkpt lat="49.24644" lon="-0.46532">
        <ele>43</ele>
        <time>2023-04-28T12:28:29Z</time>
      </trkpt>
      <trkpt lat="49.24641" lon="-0.46524">
        <ele>43</ele>
        <time>2023-04-28T12:28:30Z</time>
      </trkpt>
      <trkpt lat="49.24638" lon="-0.46516">
        <ele>43.2</ele>
        <time>2023-04-28T12:28:31Z</time>
      </trkpt>
      <trkpt lat="49.24634" lon="-0.46508">
        <ele>43.2</ele>
        <time>2023-04-28T12:28:32Z</time>
      </trkpt>
      <trkpt lat="49.24631" lon="-0.46501">
        <ele>43.4</ele>
        <time>2023-04-28T12:28:33Z</time>
      </trkpt>
      <trkpt lat="49.24628" lon="-0.46493">
        <ele>43.6</ele>
        <time>2023-04-28T12:28:34Z</time>
      </trkpt>
      <trkpt lat="49.24624" lon="-0.46485">
        <ele>43.6</ele>
        <time>2023-04-28T12:28:35Z</time>
      </trkpt>
      <trkpt lat="49.24621" lon="-0.46477">
        <ele>43.8</ele>
        <time>2023-04-28T12:28:36Z</time>
      </trkpt>
      <trkpt lat="49.24618" lon="-0.46469">
        <ele>43.8</ele>
        <time>2023-04-28T12:28:37Z</time>
      </trkpt>
      <trkpt lat="49.24614" lon="-0.46461">
        <ele>43.8</ele>
        <time>2023-04-28T12:28:38Z</time>
      </trkpt>
      <trkpt lat="49.24611" lon="-0.46453">
        <ele>44</ele>
        <time>2023-04-28T12:28:39Z</time>
      </trkpt>
      <trkpt lat="49.24607" lon="-0.46445">
        <ele>44</ele>
        <time>2023-04-28T12:28:40Z</time>
      </trkpt>
      <trkpt lat="49.24604" lon="-0.46437">
        <ele>44</ele>
        <time>2023-04-28T12:28:41Z</time>
      </trkpt>
      <trkpt lat="49.24601" lon="-0.46429">
        <ele>44</ele>
        <time>2023-04-28T12:28:42Z</time>
      </trkpt>
      <trkpt lat="49.24597" lon="-0.46421">
        <ele>44</ele>
        <time>2023-04-28T12:28:43Z</time>
      </trkpt>
      <trkpt lat="49.24594" lon="-0.46413">
        <ele>44</ele>
        <time>2023-04-28T12:28:44Z</time>
      </trkpt>
      <trkpt lat="49.24591" lon="-0.46405">
        <ele>44</ele>
        <time>2023-04-28T12:28:45Z</time>
      </trkpt>
      <trkpt lat="49.24587" lon="-0.46397">
        <ele>44.2</ele>
        <time>2023-04-28T12:28:46Z</time>
      </trkpt>
      <trkpt lat="49.24584" lon="-0.46389">
        <ele>44.2</ele>
        <time>2023-04-28T12:28:47Z</time>
      </trkpt>
      <trkpt lat="49.24581" lon="-0.46381">
        <ele>44.6</ele>
        <time>2023-04-28T12:28:48Z</time>
      </trkpt>
      <trkpt lat="49.24578" lon="-0.46374">
        <ele>44.8</ele>
        <time>2023-04-28T12:28:49Z</time>
      </trkpt>
      <trkpt lat="49.24574" lon="-0.46366">
        <ele>45</ele>
        <time>2023-04-28T12:28:50Z</time>
      </trkpt>
      <trkpt lat="49.24571" lon="-0.46358">
        <ele>45</ele>
        <time>2023-04-28T12:28:51Z</time>
      </trkpt>
      <trkpt lat="49.24568" lon="-0.46351">
        <ele>45.2</ele>
        <time>2023-04-28T12:28:52Z</time>
      </trkpt>
      <trkpt lat="49.24565" lon="-0.46343">
        <ele>45.4</ele>
        <time>2023-04-28T12:28:53Z</time>
      </trkpt>
      <trkpt lat="49.24562" lon="-0.46335">
        <ele>45.6</ele>
        <time>2023-04-28T12:28:54Z</time>
      </trkpt>
      <trkpt lat="49.24559" lon="-0.46328">
        <ele>45.8</ele>
        <time>2023-04-28T12:28:55Z</time>
      </trkpt>
      <trkpt lat="49.24555" lon="-0.46321">
        <ele>46</ele>
        <time>2023-04-28T12:28:56Z</time>
      </trkpt>
      <trkpt lat="49.24552" lon="-0.46313">
        <ele>46</ele>
        <time>2023-04-28T12:28:57Z</time>
      </trkpt>
      <trkpt lat="49.24549" lon="-0.46306">
        <ele>46.2</ele>
        <time>2023-04-28T12:28:58Z</time>
      </trkpt>
      <trkpt lat="49.24546" lon="-0.46299">
        <ele>46.6</ele>
        <time>2023-04-28T12:28:59Z</time>
      </trkpt>
      <trkpt lat="49.24543" lon="-0.46292">
        <ele>46.8</ele>
        <time>2023-04-28T12:29:00Z</time>
      </trkpt>
      <trkpt lat="49.24541" lon="-0.46285">
        <ele>47</ele>
        <time>2023-04-28T12:29:01Z</time>
      </trkpt>
      <trkpt lat="49.24538" lon="-0.46278">
        <ele>47</ele>
        <time>2023-04-28T12:29:02Z</time>
      </trkpt>
      <trkpt lat="49.24535" lon="-0.46271">
        <ele>47.2</ele>
        <time>2023-04-28T12:29:03Z</time>
      </trkpt>
      <trkpt lat="49.24532" lon="-0.46264">
        <ele>47.4</ele>
        <time>2023-04-28T12:29:04Z</time>
      </trkpt>
      <trkpt lat="49.24529" lon="-0.46257">
        <ele>47.6</ele>
        <time>2023-04-28T12:29:05Z</time>
      </trkpt>
      <trkpt lat="49.24526" lon="-0.4625">
        <ele>47.8</ele>
        <time>2023-04-28T12:29:06Z</time>
      </trkpt>
      <trkpt lat="49.24523" lon="-0.46244">
        <ele>47.8</ele>
        <time>2023-04-28T12:29:07Z</time>
      </trkpt>
      <trkpt lat="49.2452" lon="-0.46237">
        <ele>48</ele>
        <time>2023-04-28T12:29:08Z</time>
      </trkpt>
      <trkpt lat="49.24518" lon="-0.4623">
        <ele>48</ele>
        <time>2023-04-28T12:29:09Z</time>
      </trkpt>
      <trkpt lat="49.24515" lon="-0.46224">
        <ele>48</ele>
        <time>2023-04-28T12:29:10Z</time>
      </trkpt>
      <trkpt lat="49.24512" lon="-0.46218">
        <ele>48.2</ele>
        <time>2023-04-28T12:29:11Z</time>
      </trkpt>
      <trkpt lat="49.2451" lon="-0.46211">
        <ele>48.4</ele>
        <time>2023-04-28T12:29:12Z</time>
      </trkpt>
      <trkpt lat="49.24507" lon="-0.46205">
        <ele>48.6</ele>
        <time>2023-04-28T12:29:13Z</time>
      </trkpt>
      <trkpt lat="49.24504" lon="-0.46198">
        <ele>48.6</ele>
        <time>2023-04-28T12:29:14Z</time>
      </trkpt>
      <trkpt lat="49.24502" lon="-0.46192">
        <ele>48.8</ele>
        <time>2023-04-28T12:29:15Z</time>
      </trkpt>
      <trkpt lat="49.24499" lon="-0.46185">
        <ele>48.8</ele>
        <time>2023-04-28T12:29:16Z</time>
      </trkpt>
      <trkpt lat="49.24496" lon="-0.46178">
        <ele>49</ele>
        <time>2023-04-28T12:29:17Z</time>
      </trkpt>
      <trkpt lat="49.24493" lon="-0.46172">
        <ele>49</ele>
        <time>2023-04-28T12:29:18Z</time>
      </trkpt>
      <trkpt lat="49.24491" lon="-0.46165">
        <ele>49</ele>
        <time>2023-04-28T12:29:19Z</time>
      </trkpt>
      <trkpt lat="49.24488" lon="-0.46159">
        <ele>49</ele>
        <time>2023-04-28T12:29:20Z</time>
      </trkpt>
      <trkpt lat="49.24485" lon="-0.46152">
        <ele>49.2</ele>
        <time>2023-04-28T12:29:21Z</time>
      </trkpt>
      <trkpt lat="49.24482" lon="-0.46145">
        <ele>49.2</ele>
        <time>2023-04-28T12:29:22Z</time>
      </trkpt>
      <trkpt lat="49.24479" lon="-0.46138">
        <ele>49.2</ele>
        <time>2023-04-28T12:29:23Z</time>
      </trkpt>
      <trkpt lat="49.24476" lon="-0.46131">
        <ele>49.2</ele>
        <time>2023-04-28T12:29:24Z</time>
      </trkpt>
      <trkpt lat="49.24473" lon="-0.46124">
        <ele>49.2</ele>
        <time>2023-04-28T12:29:25Z</time>
      </trkpt>
      <trkpt lat="49.2447" lon="-0.46117">
        <ele>49.4</ele>
        <time>2023-04-28T12:29:26Z</time>
      </trkpt>
      <trkpt lat="49.24467" lon="-0.46109">
        <ele>49.4</ele>
        <time>2023-04-28T12:29:27Z</time>
      </trkpt>
      <trkpt lat="49.24464" lon="-0.46102">
        <ele>49.4</ele>
        <time>2023-04-28T12:29:28Z</time>
      </trkpt>
      <trkpt lat="49.24461" lon="-0.46095">
        <ele>49.6</ele>
        <time>2023-04-28T12:29:29Z</time>
      </trkpt>
      <trkpt lat="49.24458" lon="-0.46087">
        <ele>49.6</ele>
        <time>2023-04-28T12:29:30Z</time>
      </trkpt>
      <trkpt lat="49.24455" lon="-0.4608">
        <ele>49.6</ele>
        <time>2023-04-28T12:29:31Z</time>
      </trkpt>
      <trkpt lat="49.24452" lon="-0.46072">
        <ele>49.6</ele>
        <time>2023-04-28T12:29:32Z</time>
      </trkpt>
      <trkpt lat="49.24449" lon="-0.46065">
        <ele>49.6</ele>
        <time>2023-04-28T12:29:33Z</time>
      </trkpt>
      <trkpt lat="49.24446" lon="-0.46057">
        <ele>49.6</ele>
        <time>2023-04-28T12:29:34Z</time>
      </trkpt>
      <trkpt lat="49.24443" lon="-0.4605">
        <ele>49.6</ele>
        <time>2023-04-28T12:29:35Z</time>
      </trkpt>
      <trkpt lat="49.2444" lon="-0.46042">
        <ele>49.6</ele>
        <time>2023-04-28T12:29:36Z</time>
      </trkpt>
      <trkpt lat="49.24437" lon="-0.46035">
        <ele>49.6</ele>
        <time>2023-04-28T12:29:37Z</time>
      </trkpt>
      <trkpt lat="49.24433" lon="-0.46028">
        <ele>49.8</ele>
        <time>2023-04-28T12:29:38Z</time>
      </trkpt>
      <trkpt lat="49.2443" lon="-0.4602">
        <ele>49.8</ele>
        <time>2023-04-28T12:29:39Z</time>
      </trkpt>
      <trkpt lat="49.24427" lon="-0.46013">
        <ele>49.8</ele>
        <time>2023-04-28T12:29:40Z</time>
      </trkpt>
      <trkpt lat="49.24424" lon="-0.46005">
        <ele>49.8</ele>
        <time>2023-04-28T12:29:41Z</time>
      </trkpt>
      <trkpt lat="49.24421" lon="-0.45997">
        <ele>50</ele>
        <time>2023-04-28T12:29:42Z</time>
      </trkpt>
      <trkpt lat="49.24418" lon="-0.45989">
        <ele>49.8</ele>
        <time>2023-04-28T12:29:43Z</time>
      </trkpt>
      <trkpt lat="49.24415" lon="-0.45982">
        <ele>49.8</ele>
        <time>2023-04-28T12:29:44Z</time>
      </trkpt>
      <trkpt lat="49.24412" lon="-0.45974">
        <ele>49.8</ele>
        <time>2023-04-28T12:29:45Z</time>
      </trkpt>
      <trkpt lat="49.24409" lon="-0.45966">
        <ele>49.8</ele>
        <time>2023-04-28T12:29:46Z</time>
      </trkpt>
      <trkpt lat="49.24406" lon="-0.45959">
        <ele>49.8</ele>
        <time>2023-04-28T12:29:47Z</time>
      </trkpt>
      <trkpt lat="49.24403" lon="-0.45951">
        <ele>49.8</ele>
        <time>2023-04-28T12:29:48Z</time>
      </trkpt>
      <trkpt lat="49.244" lon="-0.45944">
        <ele>49.8</ele>
        <time>2023-04-28T12:29:49Z</time>
      </trkpt>
      <trkpt lat="49.24398" lon="-0.45937">
        <ele>49.8</ele>
        <time>2023-04-28T12:29:50Z</time>
      </trkpt>
      <trkpt lat="49.24395" lon="-0.45929">
        <ele>50</ele>
        <time>2023-04-28T12:29:51Z</time>
      </trkpt>
      <trkpt lat="49.24392" lon="-0.45922">
        <ele>50</ele>
        <time>2023-04-28T12:29:52Z</time>
      </trkpt>
      <trkpt lat="49.24389" lon="-0.45914">
        <ele>50</ele>
        <time>2023-04-28T12:29:53Z</time>
      </trkpt>
      <trkpt lat="49.24386" lon="-0.45907">
        <ele>50.2</ele>
        <time>2023-04-28T12:29:54Z</time>
      </trkpt>
      <trkpt lat="49.24383" lon="-0.45899">
        <ele>50.2</ele>
        <time>2023-04-28T12:29:55Z</time>
      </trkpt>
      <trkpt lat="49.2438" lon="-0.45891">
        <ele>50.6</ele>
        <time>2023-04-28T12:29:56Z</time>
      </trkpt>
      <trkpt lat="49.24377" lon="-0.45883">
        <ele>50.6</ele>
        <time>2023-04-28T12:29:57Z</time>
      </trkpt>
      <trkpt lat="49.24374" lon="-0.45875">
        <ele>50.8</ele>
        <time>2023-04-28T12:29:58Z</time>
      </trkpt>
      <trkpt lat="49.24371" lon="-0.45868">
        <ele>51</ele>
        <time>2023-04-28T12:29:59Z</time>
      </trkpt>
      <trkpt lat="49.24368" lon="-0.4586">
        <ele>51</ele>
        <time>2023-04-28T12:30:00Z</time>
      </trkpt>
      <trkpt lat="49.24365" lon="-0.45852">
        <ele>51.2</ele>
        <time>2023-04-28T12:30:01Z</time>
      </trkpt>
      <trkpt lat="49.24362" lon="-0.45845">
        <ele>51.2</ele>
        <time>2023-04-28T12:30:02Z</time>
      </trkpt>
      <trkpt lat="49.24359" lon="-0.45837">
        <ele>51.4</ele>
        <time>2023-04-28T12:30:03Z</time>
      </trkpt>
      <trkpt lat="49.24356" lon="-0.4583">
        <ele>51.4</ele>
        <time>2023-04-28T12:30:04Z</time>
      </trkpt>
      <trkpt lat="49.24354" lon="-0.45823">
        <ele>51.4</ele>
        <time>2023-04-28T12:30:05Z</time>
      </trkpt>
      <trkpt lat="49.24351" lon="-0.45816">
        <ele>51.4</ele>
        <time>2023-04-28T12:30:06Z</time>
      </trkpt>
      <trkpt lat="49.24348" lon="-0.45809">
        <ele>51.4</ele>
        <time>2023-04-28T12:30:07Z</time>
      </trkpt>
      <trkpt lat="49.24346" lon="-0.45802">
        <ele>51.2</ele>
        <time>2023-04-28T12:30:08Z</time>
      </trkpt>
      <trkpt lat="49.24343" lon="-0.45796">
        <ele>51.2</ele>
        <time>2023-04-28T12:30:09Z</time>
      </trkpt>
      <trkpt lat="49.2434" lon="-0.45789">
        <ele>51.2</ele>
        <time>2023-04-28T12:30:10Z</time>
      </trkpt>
      <trkpt lat="49.24338" lon="-0.45782">
        <ele>51.2</ele>
        <time>2023-04-28T12:30:11Z</time>
      </trkpt>
      <trkpt lat="49.24335" lon="-0.45775">
        <ele>51.2</ele>
        <time>2023-04-28T12:30:12Z</time>
      </trkpt>
      <trkpt lat="49.24332" lon="-0.45768">
        <ele>51.2</ele>
        <time>2023-04-28T12:30:13Z</time>
      </trkpt>
      <trkpt lat="49.24329" lon="-0.4576">
        <ele>51</ele>
        <time>2023-04-28T12:30:14Z</time>
      </trkpt>
      <trkpt lat="49.24327" lon="-0.45753">
        <ele>51</ele>
        <time>2023-04-28T12:30:15Z</time>
      </trkpt>
      <trkpt lat="49.24324" lon="-0.45746">
        <ele>51</ele>
        <time>2023-04-28T12:30:16Z</time>
      </trkpt>
      <trkpt lat="49.24321" lon="-0.45739">
        <ele>51</ele>
        <time>2023-04-28T12:30:17Z</time>
      </trkpt>
      <trkpt lat="49.24318" lon="-0.45733">
        <ele>50.8</ele>
        <time>2023-04-28T12:30:18Z</time>
      </trkpt>
      <trkpt lat="49.24315" lon="-0.45726">
        <ele>50.6</ele>
        <time>2023-04-28T12:30:19Z</time>
      </trkpt>
      <trkpt lat="49.24312" lon="-0.4572">
        <ele>50.6</ele>
        <time>2023-04-28T12:30:20Z</time>
      </trkpt>
      <trkpt lat="49.24309" lon="-0.45713">
        <ele>50.4</ele>
        <time>2023-04-28T12:30:21Z</time>
      </trkpt>
      <trkpt lat="49.24306" lon="-0.45707">
        <ele>50.2</ele>
        <time>2023-04-28T12:30:22Z</time>
      </trkpt>
      <trkpt lat="49.24302" lon="-0.45701">
        <ele>50.2</ele>
        <time>2023-04-28T12:30:23Z</time>
      </trkpt>
      <trkpt lat="49.24299" lon="-0.45696">
        <ele>50</ele>
        <time>2023-04-28T12:30:24Z</time>
      </trkpt>
      <trkpt lat="49.24296" lon="-0.45691">
        <ele>50</ele>
        <time>2023-04-28T12:30:25Z</time>
      </trkpt>
      <trkpt lat="49.24293" lon="-0.45687">
        <ele>50</ele>
        <time>2023-04-28T12:30:26Z</time>
      </trkpt>
      <trkpt lat="49.2429" lon="-0.45683">
        <ele>49.8</ele>
        <time>2023-04-28T12:30:27Z</time>
      </trkpt>
      <trkpt lat="49.24287" lon="-0.45678">
        <ele>49.8</ele>
        <time>2023-04-28T12:30:28Z</time>
      </trkpt>
      <trkpt lat="49.24285" lon="-0.45674">
        <ele>49.6</ele>
        <time>2023-04-28T12:30:29Z</time>
      </trkpt>
      <trkpt lat="49.24281" lon="-0.45669">
        <ele>49.4</ele>
        <time>2023-04-28T12:30:30Z</time>
      </trkpt>
      <trkpt lat="49.24278" lon="-0.45664">
        <ele>49.2</ele>
        <time>2023-04-28T12:30:31Z</time>
      </trkpt>
      <trkpt lat="49.24274" lon="-0.4566">
        <ele>49.2</ele>
        <time>2023-04-28T12:30:32Z</time>
      </trkpt>
      <trkpt lat="49.2427" lon="-0.45654">
        <ele>49.2</ele>
        <time>2023-04-28T12:30:33Z</time>
      </trkpt>
      <trkpt lat="49.24266" lon="-0.45649">
        <ele>49.2</ele>
        <time>2023-04-28T12:30:34Z</time>
      </trkpt>
      <trkpt lat="49.24261" lon="-0.45643">
        <ele>49</ele>
        <time>2023-04-28T12:30:35Z</time>
      </trkpt>
      <trkpt lat="49.24257" lon="-0.45637">
        <ele>49</ele>
        <time>2023-04-28T12:30:36Z</time>
      </trkpt>
      <trkpt lat="49.24253" lon="-0.45632">
        <ele>49</ele>
        <time>2023-04-28T12:30:37Z</time>
      </trkpt>
      <trkpt lat="49.24249" lon="-0.45626">
        <ele>49</ele>
        <time>2023-04-28T12:30:38Z</time>
      </trkpt>
      <trkpt lat="49.24246" lon="-0.45621">
        <ele>49</ele>
        <time>2023-04-28T12:30:39Z</time>
      </trkpt>
      <trkpt lat="49.24243" lon="-0.45617">
        <ele>48.8</ele>
        <time>2023-04-28T12:30:40Z</time>
      </trkpt>
      <trkpt lat="49.24242" lon="-0.45613">
        <ele>48.8</ele>
        <time>2023-04-28T12:30:41Z</time>
      </trkpt>
      <trkpt lat="49.24243" lon="-0.4561">
        <ele>48.8</ele>
        <time>2023-04-28T12:30:42Z</time>
      </trkpt>
      <trkpt lat="49.24244" lon="-0.45609">
        <ele>48.8</ele>
        <time>2023-04-28T12:30:43Z</time>
      </trkpt>
      <trkpt lat="49.24246" lon="-0.4561">
        <ele>49</ele>
        <time>2023-04-28T12:30:44Z</time>
      </trkpt>
      <trkpt lat="49.24248" lon="-0.45613">
        <ele>49</ele>
        <time>2023-04-28T12:30:45Z</time>
      </trkpt>
      <trkpt lat="49.24249" lon="-0.45617">
        <ele>49</ele>
        <time>2023-04-28T12:30:46Z</time>
      </trkpt>
      <trkpt lat="49.24251" lon="-0.45621">
        <ele>49</ele>
        <time>2023-04-28T12:30:47Z</time>
      </trkpt>
      <trkpt lat="49.24253" lon="-0.45624">
        <ele>49</ele>
        <time>2023-04-28T12:30:48Z</time>
      </trkpt>
      <trkpt lat="49.24256" lon="-0.45628">
        <ele>49</ele>
        <time>2023-04-28T12:30:49Z</time>
      </trkpt>
      <trkpt lat="49.2426" lon="-0.45631">
        <ele>49</ele>
        <time>2023-04-28T12:30:50Z</time>
      </trkpt>
      <trkpt lat="49.24263" lon="-0.45636">
        <ele>49.2</ele>
        <time>2023-04-28T12:30:51Z</time>
      </trkpt>
      <trkpt lat="49.24267" lon="-0.45641">
        <ele>49.2</ele>
        <time>2023-04-28T12:30:52Z</time>
      </trkpt>
      <trkpt lat="49.24271" lon="-0.45646">
        <ele>49.2</ele>
        <time>2023-04-28T12:30:53Z</time>
      </trkpt>
      <trkpt lat="49.24275" lon="-0.45651">
        <ele>49.2</ele>
        <time>2023-04-28T12:30:54Z</time>
      </trkpt>
      <trkpt lat="49.24279" lon="-0.45656">
        <ele>49.2</ele>
        <time>2023-04-28T12:30:55Z</time>
      </trkpt>
      <trkpt lat="49.24283" lon="-0.45661">
        <ele>49.4</ele>
        <time>2023-04-28T12:30:56Z</time>
      </trkpt>
      <trkpt lat="49.24286" lon="-0.45666">
        <ele>49.4</ele>
        <time>2023-04-28T12:30:57Z</time>
      </trkpt>
      <trkpt lat="49.2429" lon="-0.45671">
        <ele>49.6</ele>
        <time>2023-04-28T12:30:58Z</time>
      </trkpt>
      <trkpt lat="49.24293" lon="-0.45676">
        <ele>49.8</ele>
        <time>2023-04-28T12:30:59Z</time>
      </trkpt>
      <trkpt lat="49.24296" lon="-0.45681">
        <ele>49.8</ele>
        <time>2023-04-28T12:31:00Z</time>
      </trkpt>
      <trkpt lat="49.243" lon="-0.45686">
        <ele>50</ele>
        <time>2023-04-28T12:31:01Z</time>
      </trkpt>
      <trkpt lat="49.24303" lon="-0.45691">
        <ele>50</ele>
        <time>2023-04-28T12:31:02Z</time>
      </trkpt>
      <trkpt lat="49.24306" lon="-0.45696">
        <ele>50</ele>
        <time>2023-04-28T12:31:03Z</time>
      </trkpt>
      <trkpt lat="49.2431" lon="-0.45702">
        <ele>50.2</ele>
        <time>2023-04-28T12:31:04Z</time>
      </trkpt>
      <trkpt lat="49.24313" lon="-0.45708">
        <ele>50.4</ele>
        <time>2023-04-28T12:31:05Z</time>
      </trkpt>
      <trkpt lat="49.24316" lon="-0.45714">
        <ele>50.6</ele>
        <time>2023-04-28T12:31:06Z</time>
      </trkpt>
      <trkpt lat="49.24319" lon="-0.4572">
        <ele>50.6</ele>
        <time>2023-04-28T12:31:07Z</time>
      </trkpt>
      <trkpt lat="49.24322" lon="-0.45726">
        <ele>50.8</ele>
        <time>2023-04-28T12:31:08Z</time>
      </trkpt>
      <trkpt lat="49.24325" lon="-0.45732">
        <ele>50.8</ele>
        <time>2023-04-28T12:31:09Z</time>
      </trkpt>
      <trkpt lat="49.24327" lon="-0.45739">
        <ele>51</ele>
        <time>2023-04-28T12:31:10Z</time>
      </trkpt>
      <trkpt lat="49.2433" lon="-0.45745">
        <ele>51</ele>
        <time>2023-04-28T12:31:11Z</time>
      </trkpt>
      <trkpt lat="49.24333" lon="-0.45752">
        <ele>51</ele>
        <time>2023-04-28T12:31:12Z</time>
      </trkpt>
      <trkpt lat="49.24336" lon="-0.45759">
        <ele>51</ele>
        <time>2023-04-28T12:31:13Z</time>
      </trkpt>
      <trkpt lat="49.24338" lon="-0.45766">
        <ele>51</ele>
        <time>2023-04-28T12:31:14Z</time>
      </trkpt>
      <trkpt lat="49.24341" lon="-0.45772">
        <ele>51</ele>
        <time>2023-04-28T12:31:15Z</time>
      </trkpt>
      <trkpt lat="49.24344" lon="-0.45779">
        <ele>51</ele>
        <time>2023-04-28T12:31:16Z</time>
      </trkpt>
      <trkpt lat="49.24346" lon="-0.45787">
        <ele>51</ele>
        <time>2023-04-28T12:31:17Z</time>
      </trkpt>
      <trkpt lat="49.24349" lon="-0.45794">
        <ele>51</ele>
        <time>2023-04-28T12:31:18Z</time>
      </trkpt>
      <trkpt lat="49.24352" lon="-0.45801">
        <ele>51.2</ele>
        <time>2023-04-28T12:31:19Z</time>
      </trkpt>
      <trkpt lat="49.24355" lon="-0.45808">
        <ele>51.2</ele>
        <time>2023-04-28T12:31:20Z</time>
      </trkpt>
      <trkpt lat="49.24357" lon="-0.45816">
        <ele>51.2</ele>
        <time>2023-04-28T12:31:21Z</time>
      </trkpt>
      <trkpt lat="49.2436" lon="-0.45823">
        <ele>51.2</ele>
        <time>2023-04-28T12:31:22Z</time>
      </trkpt>
      <trkpt lat="49.24363" lon="-0.4583">
        <ele>51.2</ele>
        <time>2023-04-28T12:31:23Z</time>
      </trkpt>
      <trkpt lat="49.24366" lon="-0.45838">
        <ele>51.2</ele>
        <time>2023-04-28T12:31:24Z</time>
      </trkpt>
      <trkpt lat="49.24368" lon="-0.45845">
        <ele>51</ele>
        <time>2023-04-28T12:31:25Z</time>
      </trkpt>
      <trkpt lat="49.24371" lon="-0.45852">
        <ele>51</ele>
        <time>2023-04-28T12:31:26Z</time>
      </trkpt>
      <trkpt lat="49.24374" lon="-0.45859">
        <ele>51</ele>
        <time>2023-04-28T12:31:27Z</time>
      </trkpt>
      <trkpt lat="49.24376" lon="-0.45865">
        <ele>50.8</ele>
        <time>2023-04-28T12:31:28Z</time>
      </trkpt>
      <trkpt lat="49.24378" lon="-0.45871">
        <ele>50.8</ele>
        <time>2023-04-28T12:31:29Z</time>
      </trkpt>
      <trkpt lat="49.2438" lon="-0.45877">
        <ele>50.6</ele>
        <time>2023-04-28T12:31:30Z</time>
      </trkpt>
      <trkpt lat="49.24382" lon="-0.45881">
        <ele>50.6</ele>
        <time>2023-04-28T12:31:31Z</time>
      </trkpt>
      <trkpt lat="49.24384" lon="-0.45885">
        <ele>50.4</ele>
        <time>2023-04-28T12:31:32Z</time>
      </trkpt>
      <trkpt lat="49.24385" lon="-0.45889">
        <ele>50.2</ele>
        <time>2023-04-28T12:31:33Z</time>
      </trkpt>
      <trkpt lat="49.24386" lon="-0.45891">
        <ele>50.2</ele>
        <time>2023-04-28T12:31:34Z</time>
      </trkpt>
      <trkpt lat="49.24387" lon="-0.45893">
        <ele>50.2</ele>
        <time>2023-04-28T12:31:35Z</time>
      </trkpt>
      <trkpt lat="49.24388" lon="-0.45895">
        <ele>50.2</ele>
        <time>2023-04-28T12:31:36Z</time>
      </trkpt>
      <trkpt lat="49.24388" lon="-0.45897">
        <ele>50.2</ele>
        <time>2023-04-28T12:31:37Z</time>
      </trkpt>
      <trkpt lat="49.24389" lon="-0.459">
        <ele>50</ele>
        <time>2023-04-28T12:31:38Z</time>
      </trkpt>
      <trkpt lat="49.24391" lon="-0.45903">
        <ele>50</ele>
        <time>2023-04-28T12:31:39Z</time>
      </trkpt>
      <trkpt lat="49.24392" lon="-0.45906">
        <ele>50</ele>
        <time>2023-04-28T12:31:40Z</time>
      </trkpt>
      <trkpt lat="49.24394" lon="-0.45911">
        <ele>50</ele>
        <time>2023-04-28T12:31:41Z</time>
      </trkpt>
      <trkpt lat="49.24396" lon="-0.45915">
        <ele>49.8</ele>
        <time>2023-04-28T12:31:42Z</time>
      </trkpt>
      <trkpt lat="49.24398" lon="-0.4592">
        <ele>49.8</ele>
        <time>2023-04-28T12:31:43Z</time>
      </trkpt>
      <trkpt lat="49.244" lon="-0.45926">
        <ele>49.8</ele>
        <time>2023-04-28T12:31:44Z</time>
      </trkpt>
      <trkpt lat="49.24402" lon="-0.45932">
        <ele>49.6</ele>
        <time>2023-04-28T12:31:45Z</time>
      </trkpt>
      <trkpt lat="49.24404" lon="-0.45937">
        <ele>49.6</ele>
        <time>2023-04-28T12:31:46Z</time>
      </trkpt>
      <trkpt lat="49.24407" lon="-0.45943">
        <ele>49.6</ele>
        <time>2023-04-28T12:31:47Z</time>
      </trkpt>
      <trkpt lat="49.24409" lon="-0.4595">
        <ele>49.6</ele>
        <time>2023-04-28T12:31:48Z</time>
      </trkpt>
      <trkpt lat="49.24411" lon="-0.45956">
        <ele>49.6</ele>
        <time>2023-04-28T12:31:49Z</time>
      </trkpt>
      <trkpt lat="49.24414" lon="-0.45962">
        <ele>49.6</ele>
        <time>2023-04-28T12:31:50Z</time>
      </trkpt>
      <trkpt lat="49.24416" lon="-0.45968">
        <ele>49.6</ele>
        <time>2023-04-28T12:31:51Z</time>
      </trkpt>
      <trkpt lat="49.24418" lon="-0.45974">
        <ele>49.8</ele>
        <time>2023-04-28T12:31:52Z</time>
      </trkpt>
      <trkpt lat="49.24421" lon="-0.4598">
        <ele>49.8</ele>
        <time>2023-04-28T12:31:53Z</time>
      </trkpt>
      <trkpt lat="49.24423" lon="-0.45986">
        <ele>49.8</ele>
        <time>2023-04-28T12:31:54Z</time>
      </trkpt>
      <trkpt lat="49.24425" lon="-0.45991">
        <ele>49.8</ele>
        <time>2023-04-28T12:31:55Z</time>
      </trkpt>
      <trkpt lat="49.24427" lon="-0.45996">
        <ele>49.8</ele>
        <time>2023-04-28T12:31:56Z</time>
      </trkpt>
      <trkpt lat="49.2443" lon="-0.46002">
        <ele>49.8</ele>
        <time>2023-04-28T12:31:57Z</time>
      </trkpt>
      <trkpt lat="49.24432" lon="-0.46008">
        <ele>49.8</ele>
        <time>2023-04-28T12:31:58Z</time>
      </trkpt>
      <trkpt lat="49.24434" lon="-0.46014">
        <ele>49.6</ele>
        <time>2023-04-28T12:31:59Z</time>
      </trkpt>
      <trkpt lat="49.24437" lon="-0.4602">
        <ele>49.6</ele>
        <time>2023-04-28T12:32:00Z</time>
      </trkpt>
      <trkpt lat="49.24439" lon="-0.46026">
        <ele>49.6</ele>
        <time>2023-04-28T12:32:01Z</time>
      </trkpt>
      <trkpt lat="49.24442" lon="-0.46032">
        <ele>49.6</ele>
        <time>2023-04-28T12:32:02Z</time>
      </trkpt>
      <trkpt lat="49.24444" lon="-0.46039">
        <ele>49.6</ele>
        <time>2023-04-28T12:32:03Z</time>
      </trkpt>
      <trkpt lat="49.24447" lon="-0.46045">
        <ele>49.6</ele>
        <time>2023-04-28T12:32:04Z</time>
      </trkpt>
      <trkpt lat="49.24449" lon="-0.46052">
        <ele>49.6</ele>
        <time>2023-04-28T12:32:05Z</time>
      </trkpt>
      <trkpt lat="49.24452" lon="-0.46058">
        <ele>49.4</ele>
        <time>2023-04-28T12:32:06Z</time>
      </trkpt>
      <trkpt lat="49.24455" lon="-0.46065">
        <ele>49.4</ele>
        <time>2023-04-28T12:32:07Z</time>
      </trkpt>
      <trkpt lat="49.24458" lon="-0.46072">
        <ele>49.4</ele>
        <time>2023-04-28T12:32:08Z</time>
      </trkpt>
      <trkpt lat="49.2446" lon="-0.46079">
        <ele>49.4</ele>
        <time>2023-04-28T12:32:09Z</time>
      </trkpt>
      <trkpt lat="49.24463" lon="-0.46085">
        <ele>49.4</ele>
        <time>2023-04-28T12:32:10Z</time>
      </trkpt>
      <trkpt lat="49.24466" lon="-0.46092">
        <ele>49.4</ele>
        <time>2023-04-28T12:32:11Z</time>
      </trkpt>
      <trkpt lat="49.24469" lon="-0.46099">
        <ele>49.4</ele>
        <time>2023-04-28T12:32:12Z</time>
      </trkpt>
      <trkpt lat="49.24472" lon="-0.46106">
        <ele>49.2</ele>
        <time>2023-04-28T12:32:13Z</time>
      </trkpt>
      <trkpt lat="49.24475" lon="-0.46113">
        <ele>49.2</ele>
        <time>2023-04-28T12:32:14Z</time>
      </trkpt>
      <trkpt lat="49.24477" lon="-0.4612">
        <ele>49.2</ele>
        <time>2023-04-28T12:32:15Z</time>
      </trkpt>
      <trkpt lat="49.2448" lon="-0.46127">
        <ele>49.2</ele>
        <time>2023-04-28T12:32:16Z</time>
      </trkpt>
      <trkpt lat="49.24483" lon="-0.46134">
        <ele>49.2</ele>
        <time>2023-04-28T12:32:17Z</time>
      </trkpt>
      <trkpt lat="49.24486" lon="-0.46141">
        <ele>49.2</ele>
        <time>2023-04-28T12:32:18Z</time>
      </trkpt>
      <trkpt lat="49.24489" lon="-0.46148">
        <ele>49</ele>
        <time>2023-04-28T12:32:19Z</time>
      </trkpt>
      <trkpt lat="49.24492" lon="-0.46155">
        <ele>49</ele>
        <time>2023-04-28T12:32:20Z</time>
      </trkpt>
      <trkpt lat="49.24494" lon="-0.46162">
        <ele>49</ele>
        <time>2023-04-28T12:32:21Z</time>
      </trkpt>
      <trkpt lat="49.24497" lon="-0.46169">
        <ele>49</ele>
        <time>2023-04-28T12:32:22Z</time>
      </trkpt>
      <trkpt lat="49.245" lon="-0.46175">
        <ele>49</ele>
        <time>2023-04-28T12:32:23Z</time>
      </trkpt>
      <trkpt lat="49.24503" lon="-0.46182">
        <ele>48.8</ele>
        <time>2023-04-28T12:32:24Z</time>
      </trkpt>
      <trkpt lat="49.24505" lon="-0.46188">
        <ele>48.8</ele>
        <time>2023-04-28T12:32:25Z</time>
      </trkpt>
      <trkpt lat="49.24507" lon="-0.46194">
        <ele>48.6</ele>
        <time>2023-04-28T12:32:26Z</time>
      </trkpt>
      <trkpt lat="49.2451" lon="-0.462">
        <ele>48.6</ele>
        <time>2023-04-28T12:32:27Z</time>
      </trkpt>
      <trkpt lat="49.24512" lon="-0.46205">
        <ele>48.4</ele>
        <time>2023-04-28T12:32:28Z</time>
      </trkpt>
      <trkpt lat="49.24514" lon="-0.46211">
        <ele>48.2</ele>
        <time>2023-04-28T12:32:29Z</time>
      </trkpt>
      <trkpt lat="49.24517" lon="-0.46216">
        <ele>48.2</ele>
        <time>2023-04-28T12:32:30Z</time>
      </trkpt>
      <trkpt lat="49.24519" lon="-0.46222">
        <ele>48</ele>
        <time>2023-04-28T12:32:31Z</time>
      </trkpt>
      <trkpt lat="49.24522" lon="-0.46228">
        <ele>48</ele>
        <time>2023-04-28T12:32:32Z</time>
      </trkpt>
      <trkpt lat="49.24524" lon="-0.46235">
        <ele>48</ele>
        <time>2023-04-28T12:32:33Z</time>
      </trkpt>
      <trkpt lat="49.24527" lon="-0.46242">
        <ele>47.8</ele>
        <time>2023-04-28T12:32:34Z</time>
      </trkpt>
      <trkpt lat="49.2453" lon="-0.46249">
        <ele>47.6</ele>
        <time>2023-04-28T12:32:35Z</time>
      </trkpt>
      <trkpt lat="49.24533" lon="-0.46257">
        <ele>47.6</ele>
        <time>2023-04-28T12:32:36Z</time>
      </trkpt>
      <trkpt lat="49.24537" lon="-0.46264">
        <ele>47.2</ele>
        <time>2023-04-28T12:32:37Z</time>
      </trkpt>
      <trkpt lat="49.2454" lon="-0.46272">
        <ele>47</ele>
        <time>2023-04-28T12:32:38Z</time>
      </trkpt>
      <trkpt lat="49.24543" lon="-0.4628">
        <ele>47</ele>
        <time>2023-04-28T12:32:39Z</time>
      </trkpt>
      <trkpt lat="49.24547" lon="-0.46289">
        <ele>46.8</ele>
        <time>2023-04-28T12:32:40Z</time>
      </trkpt>
      <trkpt lat="49.2455" lon="-0.46297">
        <ele>46.6</ele>
        <time>2023-04-28T12:32:41Z</time>
      </trkpt>
      <trkpt lat="49.24553" lon="-0.46305">
        <ele>46.2</ele>
        <time>2023-04-28T12:32:42Z</time>
      </trkpt>
      <trkpt lat="49.24557" lon="-0.46313">
        <ele>46</ele>
        <time>2023-04-28T12:32:43Z</time>
      </trkpt>
      <trkpt lat="49.2456" lon="-0.46322">
        <ele>45.8</ele>
        <time>2023-04-28T12:32:44Z</time>
      </trkpt>
      <trkpt lat="49.24564" lon="-0.4633">
        <ele>45.6</ele>
        <time>2023-04-28T12:32:45Z</time>
      </trkpt>
      <trkpt lat="49.24567" lon="-0.46339">
        <ele>45.2</ele>
        <time>2023-04-28T12:32:46Z</time>
      </trkpt>
      <trkpt lat="49.24571" lon="-0.46347">
        <ele>45.2</ele>
        <time>2023-04-28T12:32:47Z</time>
      </trkpt>
      <trkpt lat="49.24574" lon="-0.46355">
        <ele>45</ele>
        <time>2023-04-28T12:32:48Z</time>
      </trkpt>
      <trkpt lat="49.24578" lon="-0.46364">
        <ele>44.8</ele>
        <time>2023-04-28T12:32:49Z</time>
      </trkpt>
      <trkpt lat="49.24581" lon="-0.46372">
        <ele>44.6</ele>
        <time>2023-04-28T12:32:50Z</time>
      </trkpt>
      <trkpt lat="49.24585" lon="-0.46381">
        <ele>44.4</ele>
        <time>2023-04-28T12:32:51Z</time>
      </trkpt>
      <trkpt lat="49.24588" lon="-0.4639">
        <ele>44.2</ele>
        <time>2023-04-28T12:32:52Z</time>
      </trkpt>
      <trkpt lat="49.24592" lon="-0.46398">
        <ele>44.2</ele>
        <time>2023-04-28T12:32:53Z</time>
      </trkpt>
      <trkpt lat="49.24595" lon="-0.46407">
        <ele>44</ele>
        <time>2023-04-28T12:32:54Z</time>
      </trkpt>
      <trkpt lat="49.24599" lon="-0.46415">
        <ele>44</ele>
        <time>2023-04-28T12:32:55Z</time>
      </trkpt>
      <trkpt lat="49.24602" lon="-0.46424">
        <ele>44</ele>
        <time>2023-04-28T12:32:56Z</time>
      </trkpt>
      <trkpt lat="49.24606" lon="-0.46433">
        <ele>44</ele>
        <time>2023-04-28T12:32:57Z</time>
      </trkpt>
      <trkpt lat="49.2461" lon="-0.46442">
        <ele>44</ele>
        <time>2023-04-28T12:32:58Z</time>
      </trkpt>
      <trkpt lat="49.24613" lon="-0.4645">
        <ele>44</ele>
        <time>2023-04-28T12:32:59Z</time>
      </trkpt>
      <trkpt lat="49.24617" lon="-0.46459">
        <ele>43.8</ele>
        <time>2023-04-28T12:33:00Z</time>
      </trkpt>
      <trkpt lat="49.24621" lon="-0.46468">
        <ele>43.8</ele>
        <time>2023-04-28T12:33:01Z</time>
      </trkpt>
      <trkpt lat="49.24624" lon="-0.46477">
        <ele>43.6</ele>
        <time>2023-04-28T12:33:02Z</time>
      </trkpt>
      <trkpt lat="49.24628" lon="-0.46486">
        <ele>43.6</ele>
        <time>2023-04-28T12:33:03Z</time>
      </trkpt>
      <trkpt lat="49.24632" lon="-0.46494">
        <ele>43.6</ele>
        <time>2023-04-28T12:33:04Z</time>
      </trkpt>
      <trkpt lat="49.24636" lon="-0.46503">
        <ele>43.2</ele>
        <time>2023-04-28T12:33:05Z</time>
      </trkpt>
      <trkpt lat="49.24639" lon="-0.46512">
        <ele>43.2</ele>
        <time>2023-04-28T12:33:06Z</time>
      </trkpt>
      <trkpt lat="49.24643" lon="-0.46521">
        <ele>43</ele>
        <time>2023-04-28T12:33:07Z</time>
      </trkpt>
      <trkpt lat="49.24647" lon="-0.4653">
        <ele>43</ele>
        <time>2023-04-28T12:33:08Z</time>
      </trkpt>
      <trkpt lat="49.2465" lon="-0.46538">
        <ele>42.8</ele>
        <time>2023-04-28T12:33:09Z</time>
      </trkpt>
      <trkpt lat="49.24654" lon="-0.46547">
        <ele>42.6</ele>
        <time>2023-04-28T12:33:10Z</time>
      </trkpt>
      <trkpt lat="49.24657" lon="-0.46556">
        <ele>42.4</ele>
        <time>2023-04-28T12:33:11Z</time>
      </trkpt>
      <trkpt lat="49.24661" lon="-0.46564">
        <ele>42.2</ele>
        <time>2023-04-28T12:33:12Z</time>
      </trkpt>
      <trkpt lat="49.24665" lon="-0.46573">
        <ele>42</ele>
        <time>2023-04-28T12:33:13Z</time>
      </trkpt>
      <trkpt lat="49.24668" lon="-0.46582">
        <ele>42</ele>
        <time>2023-04-28T12:33:14Z</time>
      </trkpt>
      <trkpt lat="49.24672" lon="-0.46591">
        <ele>42</ele>
        <time>2023-04-28T12:33:15Z</time>
      </trkpt>
      <trkpt lat="49.24676" lon="-0.466">
        <ele>41.8</ele>
        <time>2023-04-28T12:33:16Z</time>
      </trkpt>
      <trkpt lat="49.24679" lon="-0.46609">
        <ele>41.8</ele>
        <time>2023-04-28T12:33:17Z</time>
      </trkpt>
      <trkpt lat="49.24683" lon="-0.46618">
        <ele>41.8</ele>
        <time>2023-04-28T12:33:18Z</time>
      </trkpt>
      <trkpt lat="49.24687" lon="-0.46627">
        <ele>41.8</ele>
        <time>2023-04-28T12:33:19Z</time>
      </trkpt>
      <trkpt lat="49.2469" lon="-0.46636">
        <ele>41.8</ele>
        <time>2023-04-28T12:33:20Z</time>
      </trkpt>
      <trkpt lat="49.24694" lon="-0.46645">
        <ele>41.8</ele>
        <time>2023-04-28T12:33:21Z</time>
      </trkpt>
      <trkpt lat="49.24697" lon="-0.46654">
        <ele>41.8</ele>
        <time>2023-04-28T12:33:22Z</time>
      </trkpt>
      <trkpt lat="49.24701" lon="-0.46664">
        <ele>41.8</ele>
        <time>2023-04-28T12:33:23Z</time>
      </trkpt>
      <trkpt lat="49.24704" lon="-0.46673">
        <ele>41.8</ele>
        <time>2023-04-28T12:33:24Z</time>
      </trkpt>
      <trkpt lat="49.24708" lon="-0.46682">
        <ele>41.8</ele>
        <time>2023-04-28T12:33:25Z</time>
      </trkpt>
      <trkpt lat="49.24711" lon="-0.46692">
        <ele>41.6</ele>
        <time>2023-04-28T12:33:26Z</time>
      </trkpt>
      <trkpt lat="49.24715" lon="-0.46701">
        <ele>41.4</ele>
        <time>2023-04-28T12:33:27Z</time>
      </trkpt>
      <trkpt lat="49.24718" lon="-0.4671">
        <ele>41.2</ele>
        <time>2023-04-28T12:33:28Z</time>
      </trkpt>
      <trkpt lat="49.24721" lon="-0.4672">
        <ele>41</ele>
        <time>2023-04-28T12:33:29Z</time>
      </trkpt>
      <trkpt lat="49.24724" lon="-0.46729">
        <ele>40.8</ele>
        <time>2023-04-28T12:33:30Z</time>
      </trkpt>
      <trkpt lat="49.24727" lon="-0.46738">
        <ele>40.6</ele>
        <time>2023-04-28T12:33:31Z</time>
      </trkpt>
      <trkpt lat="49.24731" lon="-0.46747">
        <ele>40.2</ele>
        <time>2023-04-28T12:33:32Z</time>
      </trkpt>
      <trkpt lat="49.24734" lon="-0.46756">
        <ele>40</ele>
        <time>2023-04-28T12:33:33Z</time>
      </trkpt>
      <trkpt lat="49.24737" lon="-0.46765">
        <ele>40</ele>
        <time>2023-04-28T12:33:34Z</time>
      </trkpt>
      <trkpt lat="49.2474" lon="-0.46774">
        <ele>40</ele>
        <time>2023-04-28T12:33:35Z</time>
      </trkpt>
      <trkpt lat="49.24744" lon="-0.46783">
        <ele>39.8</ele>
        <time>2023-04-28T12:33:36Z</time>
      </trkpt>
      <trkpt lat="49.24747" lon="-0.46792">
        <ele>39.6</ele>
        <time>2023-04-28T12:33:37Z</time>
      </trkpt>
      <trkpt lat="49.2475" lon="-0.468">
        <ele>39.4</ele>
        <time>2023-04-28T12:33:38Z</time>
      </trkpt>
      <trkpt lat="49.24754" lon="-0.46809">
        <ele>39.2</ele>
        <time>2023-04-28T12:33:39Z</time>
      </trkpt>
      <trkpt lat="49.24757" lon="-0.46817">
        <ele>39</ele>
        <time>2023-04-28T12:33:40Z</time>
      </trkpt>
      <trkpt lat="49.2476" lon="-0.46826">
        <ele>39</ele>
        <time>2023-04-28T12:33:41Z</time>
      </trkpt>
      <trkpt lat="49.24763" lon="-0.46835">
        <ele>38.8</ele>
        <time>2023-04-28T12:33:42Z</time>
      </trkpt>
      <trkpt lat="49.24767" lon="-0.46844">
        <ele>38.8</ele>
        <time>2023-04-28T12:33:43Z</time>
      </trkpt>
      <trkpt lat="49.2477" lon="-0.46852">
        <ele>38.8</ele>
        <time>2023-04-28T12:33:44Z</time>
      </trkpt>
      <trkpt lat="49.24773" lon="-0.46861">
        <ele>38.6</ele>
        <time>2023-04-28T12:33:45Z</time>
      </trkpt>
      <trkpt lat="49.24777" lon="-0.4687">
        <ele>38.6</ele>
        <time>2023-04-28T12:33:46Z</time>
      </trkpt>
      <trkpt lat="49.2478" lon="-0.46878">
        <ele>38.4</ele>
        <time>2023-04-28T12:33:47Z</time>
      </trkpt>
      <trkpt lat="49.24783" lon="-0.46887">
        <ele>38.2</ele>
        <time>2023-04-28T12:33:48Z</time>
      </trkpt>
      <trkpt lat="49.24787" lon="-0.46895">
        <ele>38.2</ele>
        <time>2023-04-28T12:33:49Z</time>
      </trkpt>
      <trkpt lat="49.2479" lon="-0.46904">
        <ele>38</ele>
        <time>2023-04-28T12:33:50Z</time>
      </trkpt>
      <trkpt lat="49.24794" lon="-0.46912">
        <ele>38</ele>
        <time>2023-04-28T12:33:51Z</time>
      </trkpt>
      <trkpt lat="49.24797" lon="-0.46921">
        <ele>38</ele>
        <time>2023-04-28T12:33:52Z</time>
      </trkpt>
      <trkpt lat="49.24801" lon="-0.46929">
        <ele>37.8</ele>
        <time>2023-04-28T12:33:53Z</time>
      </trkpt>
      <trkpt lat="49.24804" lon="-0.46937">
        <ele>37.8</ele>
        <time>2023-04-28T12:33:54Z</time>
      </trkpt>
      <trkpt lat="49.24808" lon="-0.46945">
        <ele>37.6</ele>
        <time>2023-04-28T12:33:55Z</time>
      </trkpt>
      <trkpt lat="49.24811" lon="-0.46953">
        <ele>37.6</ele>
        <time>2023-04-28T12:33:56Z</time>
      </trkpt>
      <trkpt lat="49.24815" lon="-0.46961">
        <ele>37.4</ele>
        <time>2023-04-28T12:33:57Z</time>
      </trkpt>
      <trkpt lat="49.24819" lon="-0.46969">
        <ele>37.2</ele>
        <time>2023-04-28T12:33:58Z</time>
      </trkpt>
      <trkpt lat="49.24823" lon="-0.46977">
        <ele>37.2</ele>
        <time>2023-04-28T12:33:59Z</time>
      </trkpt>
      <trkpt lat="49.24827" lon="-0.46985">
        <ele>37</ele>
        <time>2023-04-28T12:34:00Z</time>
      </trkpt>
      <trkpt lat="49.24831" lon="-0.46993">
        <ele>37</ele>
        <time>2023-04-28T12:34:01Z</time>
      </trkpt>
      <trkpt lat="49.24836" lon="-0.47">
        <ele>37</ele>
        <time>2023-04-28T12:34:02Z</time>
      </trkpt>
      <trkpt lat="49.2484" lon="-0.47008">
        <ele>37</ele>
        <time>2023-04-28T12:34:03Z</time>
      </trkpt>
      <trkpt lat="49.24844" lon="-0.47016">
        <ele>37</ele>
        <time>2023-04-28T12:34:04Z</time>
      </trkpt>
      <trkpt lat="49.24849" lon="-0.47023">
        <ele>37</ele>
        <time>2023-04-28T12:34:05Z</time>
      </trkpt>
      <trkpt lat="49.24853" lon="-0.47031">
        <ele>37</ele>
        <time>2023-04-28T12:34:06Z</time>
      </trkpt>
      <trkpt lat="49.24858" lon="-0.47038">
        <ele>37</ele>
        <time>2023-04-28T12:34:07Z</time>
      </trkpt>
      <trkpt lat="49.24862" lon="-0.47046">
        <ele>36.8</ele>
        <time>2023-04-28T12:34:08Z</time>
      </trkpt>
      <trkpt lat="49.24867" lon="-0.47053">
        <ele>36.8</ele>
        <time>2023-04-28T12:34:09Z</time>
      </trkpt>
      <trkpt lat="49.24871" lon="-0.47061">
        <ele>36.8</ele>
        <time>2023-04-28T12:34:10Z</time>
      </trkpt>
      <trkpt lat="49.24875" lon="-0.47068">
        <ele>36.6</ele>
        <time>2023-04-28T12:34:11Z</time>
      </trkpt>
      <trkpt lat="49.2488" lon="-0.47076">
        <ele>36.6</ele>
        <time>2023-04-28T12:34:12Z</time>
      </trkpt>
      <trkpt lat="49.24884" lon="-0.47084">
        <ele>36.4</ele>
        <time>2023-04-28T12:34:13Z</time>
      </trkpt>
      <trkpt lat="49.24888" lon="-0.47091">
        <ele>36.2</ele>
        <time>2023-04-28T12:34:14Z</time>
      </trkpt>
      <trkpt lat="49.24893" lon="-0.47099">
        <ele>36</ele>
        <time>2023-04-28T12:34:15Z</time>
      </trkpt>
      <trkpt lat="49.24897" lon="-0.47107">
        <ele>36</ele>
        <time>2023-04-28T12:34:16Z</time>
      </trkpt>
      <trkpt lat="49.24902" lon="-0.47114">
        <ele>35.8</ele>
        <time>2023-04-28T12:34:17Z</time>
      </trkpt>
      <trkpt lat="49.24906" lon="-0.47122">
        <ele>35.8</ele>
        <time>2023-04-28T12:34:18Z</time>
      </trkpt>
      <trkpt lat="49.2491" lon="-0.4713">
        <ele>35.6</ele>
        <time>2023-04-28T12:34:19Z</time>
      </trkpt>
      <trkpt lat="49.24915" lon="-0.47137">
        <ele>35.4</ele>
        <time>2023-04-28T12:34:20Z</time>
      </trkpt>
      <trkpt lat="49.24919" lon="-0.47145">
        <ele>35.2</ele>
        <time>2023-04-28T12:34:21Z</time>
      </trkpt>
      <trkpt lat="49.24923" lon="-0.47153">
        <ele>35</ele>
        <time>2023-04-28T12:34:22Z</time>
      </trkpt>
      <trkpt lat="49.24928" lon="-0.4716">
        <ele>34.8</ele>
        <time>2023-04-28T12:34:23Z</time>
      </trkpt>
      <trkpt lat="49.24932" lon="-0.47168">
        <ele>34.6</ele>
        <time>2023-04-28T12:34:24Z</time>
      </trkpt>
      <trkpt lat="49.24936" lon="-0.47175">
        <ele>34.8</ele>
        <time>2023-04-28T12:34:25Z</time>
      </trkpt>
      <trkpt lat="49.2494" lon="-0.47183">
        <ele>34.8</ele>
        <time>2023-04-28T12:34:26Z</time>
      </trkpt>
      <trkpt lat="49.24944" lon="-0.4719">
        <ele>34.8</ele>
        <time>2023-04-28T12:34:27Z</time>
      </trkpt>
      <trkpt lat="49.24948" lon="-0.47197">
        <ele>34.8</ele>
        <time>2023-04-28T12:34:28Z</time>
      </trkpt>
      <trkpt lat="49.24952" lon="-0.47204">
        <ele>34.8</ele>
        <time>2023-04-28T12:34:29Z</time>
      </trkpt>
      <trkpt lat="49.24956" lon="-0.47211">
        <ele>34.8</ele>
        <time>2023-04-28T12:34:30Z</time>
      </trkpt>
      <trkpt lat="49.2496" lon="-0.47219">
        <ele>35</ele>
        <time>2023-04-28T12:34:31Z</time>
      </trkpt>
      <trkpt lat="49.24964" lon="-0.47226">
        <ele>35</ele>
        <time>2023-04-28T12:34:32Z</time>
      </trkpt>
      <trkpt lat="49.24968" lon="-0.47233">
        <ele>35</ele>
        <time>2023-04-28T12:34:33Z</time>
      </trkpt>
      <trkpt lat="49.24971" lon="-0.4724">
        <ele>35</ele>
        <time>2023-04-28T12:34:34Z</time>
      </trkpt>
      <trkpt lat="49.24975" lon="-0.47247">
        <ele>35.2</ele>
        <time>2023-04-28T12:34:35Z</time>
      </trkpt>
      <trkpt lat="49.24979" lon="-0.47254">
        <ele>35.2</ele>
        <time>2023-04-28T12:34:36Z</time>
      </trkpt>
      <trkpt lat="49.24982" lon="-0.47261">
        <ele>35.4</ele>
        <time>2023-04-28T12:34:37Z</time>
      </trkpt>
      <trkpt lat="49.24986" lon="-0.47268">
        <ele>35.6</ele>
        <time>2023-04-28T12:34:38Z</time>
      </trkpt>
      <trkpt lat="49.2499" lon="-0.47275">
        <ele>35.8</ele>
        <time>2023-04-28T12:34:39Z</time>
      </trkpt>
      <trkpt lat="49.24994" lon="-0.47282">
        <ele>35.8</ele>
        <time>2023-04-28T12:34:40Z</time>
      </trkpt>
      <trkpt lat="49.24998" lon="-0.47288">
        <ele>36</ele>
        <time>2023-04-28T12:34:41Z</time>
      </trkpt>
      <trkpt lat="49.25001" lon="-0.47295">
        <ele>36</ele>
        <time>2023-04-28T12:34:42Z</time>
      </trkpt>
      <trkpt lat="49.25005" lon="-0.47302">
        <ele>36.2</ele>
        <time>2023-04-28T12:34:43Z</time>
      </trkpt>
      <trkpt lat="49.25009" lon="-0.47308">
        <ele>36.2</ele>
        <time>2023-04-28T12:34:44Z</time>
      </trkpt>
      <trkpt lat="49.25013" lon="-0.47314">
        <ele>36.4</ele>
        <time>2023-04-28T12:34:45Z</time>
      </trkpt>
      <trkpt lat="49.25017" lon="-0.4732">
        <ele>36.6</ele>
        <time>2023-04-28T12:34:46Z</time>
      </trkpt>
      <trkpt lat="49.25021" lon="-0.47326">
        <ele>36.6</ele>
        <time>2023-04-28T12:34:47Z</time>
      </trkpt>
      <trkpt lat="49.25024" lon="-0.47332">
        <ele>36.8</ele>
        <time>2023-04-28T12:34:48Z</time>
      </trkpt>
      <trkpt lat="49.25028" lon="-0.47337">
        <ele>36.8</ele>
        <time>2023-04-28T12:34:49Z</time>
      </trkpt>
      <trkpt lat="49.25032" lon="-0.47343">
        <ele>36.8</ele>
        <time>2023-04-28T12:34:50Z</time>
      </trkpt>
      <trkpt lat="49.25036" lon="-0.47348">
        <ele>37</ele>
        <time>2023-04-28T12:34:51Z</time>
      </trkpt>
      <trkpt lat="49.2504" lon="-0.47354">
        <ele>37</ele>
        <time>2023-04-28T12:34:52Z</time>
      </trkpt>
      <trkpt lat="49.25044" lon="-0.47359">
        <ele>37</ele>
        <time>2023-04-28T12:34:53Z</time>
      </trkpt>
      <trkpt lat="49.25048" lon="-0.47364">
        <ele>37.2</ele>
        <time>2023-04-28T12:34:54Z</time>
      </trkpt>
      <trkpt lat="49.25052" lon="-0.47369">
        <ele>37.2</ele>
        <time>2023-04-28T12:34:55Z</time>
      </trkpt>
      <trkpt lat="49.25056" lon="-0.47375">
        <ele>37.2</ele>
        <time>2023-04-28T12:34:56Z</time>
      </trkpt>
      <trkpt lat="49.25059" lon="-0.4738">
        <ele>37.4</ele>
        <time>2023-04-28T12:34:57Z</time>
      </trkpt>
      <trkpt lat="49.25063" lon="-0.47385">
        <ele>37.6</ele>
        <time>2023-04-28T12:34:58Z</time>
      </trkpt>
      <trkpt lat="49.25067" lon="-0.4739">
        <ele>37.6</ele>
        <time>2023-04-28T12:34:59Z</time>
      </trkpt>
      <trkpt lat="49.25071" lon="-0.47396">
        <ele>37.6</ele>
        <time>2023-04-28T12:35:00Z</time>
      </trkpt>
      <trkpt lat="49.25074" lon="-0.47401">
        <ele>37.8</ele>
        <time>2023-04-28T12:35:01Z</time>
      </trkpt>
      <trkpt lat="49.25078" lon="-0.47406">
        <ele>37.8</ele>
        <time>2023-04-28T12:35:02Z</time>
      </trkpt>
      <trkpt lat="49.25082" lon="-0.47412">
        <ele>38</ele>
        <time>2023-04-28T12:35:03Z</time>
      </trkpt>
      <trkpt lat="49.25085" lon="-0.47417">
        <ele>38</ele>
        <time>2023-04-28T12:35:04Z</time>
      </trkpt>
      <trkpt lat="49.25089" lon="-0.47423">
        <ele>38</ele>
        <time>2023-04-28T12:35:05Z</time>
      </trkpt>
      <trkpt lat="49.25092" lon="-0.47428">
        <ele>38.2</ele>
        <time>2023-04-28T12:35:06Z</time>
      </trkpt>
      <trkpt lat="49.25096" lon="-0.47434">
        <ele>38.4</ele>
        <time>2023-04-28T12:35:07Z</time>
      </trkpt>
      <trkpt lat="49.251" lon="-0.47439">
        <ele>38.6</ele>
        <time>2023-04-28T12:35:08Z</time>
      </trkpt>
      <trkpt lat="49.25103" lon="-0.47445">
        <ele>38.8</ele>
        <time>2023-04-28T12:35:09Z</time>
      </trkpt>
      <trkpt lat="49.25107" lon="-0.4745">
        <ele>38.8</ele>
        <time>2023-04-28T12:35:10Z</time>
      </trkpt>
      <trkpt lat="49.2511" lon="-0.47456">
        <ele>39</ele>
        <time>2023-04-28T12:35:11Z</time>
      </trkpt>
      <trkpt lat="49.25114" lon="-0.47462">
        <ele>39</ele>
        <time>2023-04-28T12:35:12Z</time>
      </trkpt>
      <trkpt lat="49.25117" lon="-0.47467">
        <ele>39.2</ele>
        <time>2023-04-28T12:35:13Z</time>
      </trkpt>
      <trkpt lat="49.25121" lon="-0.47473">
        <ele>39.2</ele>
        <time>2023-04-28T12:35:14Z</time>
      </trkpt>
      <trkpt lat="49.25125" lon="-0.47478">
        <ele>39.4</ele>
        <time>2023-04-28T12:35:15Z</time>
      </trkpt>
      <trkpt lat="49.25128" lon="-0.47484">
        <ele>39.4</ele>
        <time>2023-04-28T12:35:16Z</time>
      </trkpt>
      <trkpt lat="49.25132" lon="-0.47489">
        <ele>39.6</ele>
        <time>2023-04-28T12:35:17Z</time>
      </trkpt>
      <trkpt lat="49.25135" lon="-0.47495">
        <ele>39.6</ele>
        <time>2023-04-28T12:35:18Z</time>
      </trkpt>
      <trkpt lat="49.25139" lon="-0.475">
        <ele>39.8</ele>
        <time>2023-04-28T12:35:19Z</time>
      </trkpt>
      <trkpt lat="49.25142" lon="-0.47506">
        <ele>39.6</ele>
        <time>2023-04-28T12:35:20Z</time>
      </trkpt>
      <trkpt lat="49.25146" lon="-0.47511">
        <ele>39.6</ele>
        <time>2023-04-28T12:35:21Z</time>
      </trkpt>
      <trkpt lat="49.2515" lon="-0.47517">
        <ele>39.4</ele>
        <time>2023-04-28T12:35:22Z</time>
      </trkpt>
      <trkpt lat="49.25153" lon="-0.47522">
        <ele>39.4</ele>
        <time>2023-04-28T12:35:23Z</time>
      </trkpt>
      <trkpt lat="49.25157" lon="-0.47527">
        <ele>39.2</ele>
        <time>2023-04-28T12:35:24Z</time>
      </trkpt>
      <trkpt lat="49.25161" lon="-0.47533">
        <ele>39.2</ele>
        <time>2023-04-28T12:35:25Z</time>
      </trkpt>
      <trkpt lat="49.25165" lon="-0.47538">
        <ele>39</ele>
        <time>2023-04-28T12:35:26Z</time>
      </trkpt>
      <trkpt lat="49.25168" lon="-0.47543">
        <ele>39</ele>
        <time>2023-04-28T12:35:27Z</time>
      </trkpt>
      <trkpt lat="49.25172" lon="-0.47548">
        <ele>39</ele>
        <time>2023-04-28T12:35:28Z</time>
      </trkpt>
      <trkpt lat="49.25176" lon="-0.47553">
        <ele>39.2</ele>
        <time>2023-04-28T12:35:29Z</time>
      </trkpt>
      <trkpt lat="49.2518" lon="-0.47558">
        <ele>39.2</ele>
        <time>2023-04-28T12:35:30Z</time>
      </trkpt>
      <trkpt lat="49.25183" lon="-0.47563">
        <ele>39.4</ele>
        <time>2023-04-28T12:35:31Z</time>
      </trkpt>
      <trkpt lat="49.25187" lon="-0.47568">
        <ele>39.4</ele>
        <time>2023-04-28T12:35:32Z</time>
      </trkpt>
      <trkpt lat="49.25191" lon="-0.47572">
        <ele>39.6</ele>
        <time>2023-04-28T12:35:33Z</time>
      </trkpt>
      <trkpt lat="49.25195" lon="-0.47577">
        <ele>39.6</ele>
        <time>2023-04-28T12:35:34Z</time>
      </trkpt>
      <trkpt lat="49.25198" lon="-0.47582">
        <ele>39.8</ele>
        <time>2023-04-28T12:35:35Z</time>
      </trkpt>
      <trkpt lat="49.25202" lon="-0.47586">
        <ele>40</ele>
        <time>2023-04-28T12:35:36Z</time>
      </trkpt>
      <trkpt lat="49.25206" lon="-0.47591">
        <ele>40</ele>
        <time>2023-04-28T12:35:37Z</time>
      </trkpt>
      <trkpt lat="49.25209" lon="-0.47595">
        <ele>40.2</ele>
        <time>2023-04-28T12:35:38Z</time>
      </trkpt>
      <trkpt lat="49.25213" lon="-0.476">
        <ele>40.4</ele>
        <time>2023-04-28T12:35:39Z</time>
      </trkpt>
      <trkpt lat="49.25216" lon="-0.47605">
        <ele>40.6</ele>
        <time>2023-04-28T12:35:40Z</time>
      </trkpt>
      <trkpt lat="49.2522" lon="-0.47609">
        <ele>40.8</ele>
        <time>2023-04-28T12:35:41Z</time>
      </trkpt>
      <trkpt lat="49.25223" lon="-0.47614">
        <ele>40.8</ele>
        <time>2023-04-28T12:35:42Z</time>
      </trkpt>
      <trkpt lat="49.25227" lon="-0.47618">
        <ele>41</ele>
        <time>2023-04-28T12:35:43Z</time>
      </trkpt>
      <trkpt lat="49.2523" lon="-0.47622">
        <ele>41</ele>
        <time>2023-04-28T12:35:44Z</time>
      </trkpt>
      <trkpt lat="49.25234" lon="-0.47626">
        <ele>41.2</ele>
        <time>2023-04-28T12:35:45Z</time>
      </trkpt>
      <trkpt lat="49.25237" lon="-0.4763">
        <ele>41.2</ele>
        <time>2023-04-28T12:35:46Z</time>
      </trkpt>
      <trkpt lat="49.25241" lon="-0.47634">
        <ele>41.6</ele>
        <time>2023-04-28T12:35:47Z</time>
      </trkpt>
      <trkpt lat="49.25244" lon="-0.47639">
        <ele>41.6</ele>
        <time>2023-04-28T12:35:48Z</time>
      </trkpt>
      <trkpt lat="49.25248" lon="-0.47643">
        <ele>41.8</ele>
        <time>2023-04-28T12:35:49Z</time>
      </trkpt>
      <trkpt lat="49.25251" lon="-0.47647">
        <ele>41.8</ele>
        <time>2023-04-28T12:35:50Z</time>
      </trkpt>
      <trkpt lat="49.25254" lon="-0.47651">
        <ele>42</ele>
        <time>2023-04-28T12:35:51Z</time>
      </trkpt>
      <trkpt lat="49.25258" lon="-0.47656">
        <ele>42.2</ele>
        <time>2023-04-28T12:35:52Z</time>
      </trkpt>
      <trkpt lat="49.25261" lon="-0.4766">
        <ele>42.4</ele>
        <time>2023-04-28T12:35:53Z</time>
      </trkpt>
      <trkpt lat="49.25265" lon="-0.47664">
        <ele>42.8</ele>
        <time>2023-04-28T12:35:54Z</time>
      </trkpt>
      <trkpt lat="49.25268" lon="-0.47669">
        <ele>43</ele>
        <time>2023-04-28T12:35:55Z</time>
      </trkpt>
      <trkpt lat="49.25271" lon="-0.47673">
        <ele>43</ele>
        <time>2023-04-28T12:35:56Z</time>
      </trkpt>
      <trkpt lat="49.25275" lon="-0.47677">
        <ele>43.2</ele>
        <time>2023-04-28T12:35:57Z</time>
      </trkpt>
      <trkpt lat="49.25278" lon="-0.47681">
        <ele>43.6</ele>
        <time>2023-04-28T12:35:58Z</time>
      </trkpt>
      <trkpt lat="49.25282" lon="-0.47686">
        <ele>43.8</ele>
        <time>2023-04-28T12:35:59Z</time>
      </trkpt>
      <trkpt lat="49.25285" lon="-0.4769">
        <ele>44</ele>
        <time>2023-04-28T12:36:00Z</time>
      </trkpt>
      <trkpt lat="49.25288" lon="-0.47694">
        <ele>44.2</ele>
        <time>2023-04-28T12:36:01Z</time>
      </trkpt>
      <trkpt lat="49.25292" lon="-0.47698">
        <ele>44.4</ele>
        <time>2023-04-28T12:36:02Z</time>
      </trkpt>
      <trkpt lat="49.25295" lon="-0.47702">
        <ele>44.6</ele>
        <time>2023-04-28T12:36:03Z</time>
      </trkpt>
      <trkpt lat="49.25299" lon="-0.47707">
        <ele>44.8</ele>
        <time>2023-04-28T12:36:04Z</time>
      </trkpt>
      <trkpt lat="49.25302" lon="-0.47711">
        <ele>45</ele>
        <time>2023-04-28T12:36:05Z</time>
      </trkpt>
      <trkpt lat="49.25306" lon="-0.47715">
        <ele>45.2</ele>
        <time>2023-04-28T12:36:06Z</time>
      </trkpt>
      <trkpt lat="49.25309" lon="-0.4772">
        <ele>45.6</ele>
        <time>2023-04-28T12:36:07Z</time>
      </trkpt>
      <trkpt lat="49.25313" lon="-0.47724">
        <ele>45.8</ele>
        <time>2023-04-28T12:36:08Z</time>
      </trkpt>
      <trkpt lat="49.25316" lon="-0.47728">
        <ele>46</ele>
        <time>2023-04-28T12:36:09Z</time>
      </trkpt>
      <trkpt lat="49.2532" lon="-0.47732">
        <ele>46</ele>
        <time>2023-04-28T12:36:10Z</time>
      </trkpt>
      <trkpt lat="49.25323" lon="-0.47737">
        <ele>46.2</ele>
        <time>2023-04-28T12:36:11Z</time>
      </trkpt>
      <trkpt lat="49.25326" lon="-0.47741">
        <ele>46.6</ele>
        <time>2023-04-28T12:36:12Z</time>
      </trkpt>
      <trkpt lat="49.2533" lon="-0.47745">
        <ele>46.8</ele>
        <time>2023-04-28T12:36:13Z</time>
      </trkpt>
      <trkpt lat="49.25333" lon="-0.4775">
        <ele>47</ele>
        <time>2023-04-28T12:36:14Z</time>
      </trkpt>
      <trkpt lat="49.25337" lon="-0.47754">
        <ele>47</ele>
        <time>2023-04-28T12:36:15Z</time>
      </trkpt>
      <trkpt lat="49.2534" lon="-0.47758">
        <ele>47.2</ele>
        <time>2023-04-28T12:36:16Z</time>
      </trkpt>
      <trkpt lat="49.25343" lon="-0.47762">
        <ele>47.2</ele>
        <time>2023-04-28T12:36:17Z</time>
      </trkpt>
      <trkpt lat="49.25347" lon="-0.47766">
        <ele>47.2</ele>
        <time>2023-04-28T12:36:18Z</time>
      </trkpt>
      <trkpt lat="49.25351" lon="-0.4777">
        <ele>47.4</ele>
        <time>2023-04-28T12:36:19Z</time>
      </trkpt>
      <trkpt lat="49.25354" lon="-0.47774">
        <ele>47.4</ele>
        <time>2023-04-28T12:36:20Z</time>
      </trkpt>
      <trkpt lat="49.25358" lon="-0.47778">
        <ele>47.6</ele>
        <time>2023-04-28T12:36:21Z</time>
      </trkpt>
      <trkpt lat="49.25361" lon="-0.47782">
        <ele>47.6</ele>
        <time>2023-04-28T12:36:22Z</time>
      </trkpt>
      <trkpt lat="49.25365" lon="-0.47786">
        <ele>47.6</ele>
        <time>2023-04-28T12:36:23Z</time>
      </trkpt>
      <trkpt lat="49.25368" lon="-0.47789">
        <ele>47.6</ele>
        <time>2023-04-28T12:36:24Z</time>
      </trkpt>
      <trkpt lat="49.25372" lon="-0.47793">
        <ele>47.8</ele>
        <time>2023-04-28T12:36:25Z</time>
      </trkpt>
      <trkpt lat="49.25376" lon="-0.47796">
        <ele>47.8</ele>
        <time>2023-04-28T12:36:26Z</time>
      </trkpt>
      <trkpt lat="49.25379" lon="-0.478">
        <ele>47.8</ele>
        <time>2023-04-28T12:36:27Z</time>
      </trkpt>
      <trkpt lat="49.25383" lon="-0.47803">
        <ele>47.8</ele>
        <time>2023-04-28T12:36:28Z</time>
      </trkpt>
      <trkpt lat="49.25387" lon="-0.47806">
        <ele>47.8</ele>
        <time>2023-04-28T12:36:29Z</time>
      </trkpt>
      <trkpt lat="49.2539" lon="-0.4781">
        <ele>48</ele>
        <time>2023-04-28T12:36:30Z</time>
      </trkpt>
      <trkpt lat="49.25394" lon="-0.47813">
        <ele>48</ele>
        <time>2023-04-28T12:36:31Z</time>
      </trkpt>
      <trkpt lat="49.25398" lon="-0.47817">
        <ele>48</ele>
        <time>2023-04-28T12:36:32Z</time>
      </trkpt>
      <trkpt lat="49.25401" lon="-0.4782">
        <ele>48</ele>
        <time>2023-04-28T12:36:33Z</time>
      </trkpt>
      <trkpt lat="49.25405" lon="-0.47824">
        <ele>48</ele>
        <time>2023-04-28T12:36:34Z</time>
      </trkpt>
      <trkpt lat="49.25408" lon="-0.47827">
        <ele>48</ele>
        <time>2023-04-28T12:36:35Z</time>
      </trkpt>
      <trkpt lat="49.25412" lon="-0.4783">
        <ele>48</ele>
        <time>2023-04-28T12:36:36Z</time>
      </trkpt>
      <trkpt lat="49.25415" lon="-0.47834">
        <ele>48</ele>
        <time>2023-04-28T12:36:37Z</time>
      </trkpt>
      <trkpt lat="49.25418" lon="-0.47837">
        <ele>48</ele>
        <time>2023-04-28T12:36:38Z</time>
      </trkpt>
      <trkpt lat="49.25422" lon="-0.4784">
        <ele>48.2</ele>
        <time>2023-04-28T12:36:39Z</time>
      </trkpt>
      <trkpt lat="49.25425" lon="-0.47843">
        <ele>48.2</ele>
        <time>2023-04-28T12:36:40Z</time>
      </trkpt>
      <trkpt lat="49.25428" lon="-0.47846">
        <ele>48.4</ele>
        <time>2023-04-28T12:36:41Z</time>
      </trkpt>
      <trkpt lat="49.25431" lon="-0.4785">
        <ele>48.6</ele>
        <time>2023-04-28T12:36:42Z</time>
      </trkpt>
      <trkpt lat="49.25434" lon="-0.47853">
        <ele>48.6</ele>
        <time>2023-04-28T12:36:43Z</time>
      </trkpt>
      <trkpt lat="49.25436" lon="-0.47855">
        <ele>48.6</ele>
        <time>2023-04-28T12:36:44Z</time>
      </trkpt>
      <trkpt lat="49.25438" lon="-0.47857">
        <ele>48.8</ele>
        <time>2023-04-28T12:36:45Z</time>
      </trkpt>
      <trkpt lat="49.25439" lon="-0.47859">
        <ele>48.8</ele>
        <time>2023-04-28T12:36:46Z</time>
      </trkpt>
      <trkpt lat="49.2544" lon="-0.4786">
        <ele>48.8</ele>
        <time>2023-04-28T12:36:47Z</time>
      </trkpt>
      <trkpt lat="49.25442" lon="-0.47863">
        <ele>48.8</ele>
        <time>2023-04-28T12:36:48Z</time>
      </trkpt>
      <trkpt lat="49.25442" lon="-0.47867">
        <ele>48.8</ele>
        <time>2023-04-28T12:36:49Z</time>
      </trkpt>
      <trkpt lat="49.25441" lon="-0.47871">
        <ele>48.8</ele>
        <time>2023-04-28T12:36:50Z</time>
      </trkpt>
      <trkpt lat="49.25439" lon="-0.47876">
        <ele>48.8</ele>
        <time>2023-04-28T12:36:51Z</time>
      </trkpt>
      <trkpt lat="49.25436" lon="-0.47882">
        <ele>48.6</ele>
        <time>2023-04-28T12:36:52Z</time>
      </trkpt>
      <trkpt lat="49.25433" lon="-0.47888">
        <ele>48.6</ele>
        <time>2023-04-28T12:36:53Z</time>
      </trkpt>
      <trkpt lat="49.25431" lon="-0.47894">
        <ele>48.4</ele>
        <time>2023-04-28T12:36:54Z</time>
      </trkpt>
      <trkpt lat="49.25428" lon="-0.479">
        <ele>48.2</ele>
        <time>2023-04-28T12:36:55Z</time>
      </trkpt>
      <trkpt lat="49.25425" lon="-0.47906">
        <ele>48.2</ele>
        <time>2023-04-28T12:36:56Z</time>
      </trkpt>
      <trkpt lat="49.25421" lon="-0.47912">
        <ele>48</ele>
        <time>2023-04-28T12:36:57Z</time>
      </trkpt>
      <trkpt lat="49.25418" lon="-0.47918">
        <ele>48</ele>
        <time>2023-04-28T12:36:58Z</time>
      </trkpt>
      <trkpt lat="49.25415" lon="-0.47924">
        <ele>48</ele>
        <time>2023-04-28T12:36:59Z</time>
      </trkpt>
      <trkpt lat="49.25411" lon="-0.4793">
        <ele>48</ele>
        <time>2023-04-28T12:37:00Z</time>
      </trkpt>
      <trkpt lat="49.25408" lon="-0.47936">
        <ele>47.8</ele>
        <time>2023-04-28T12:37:01Z</time>
      </trkpt>
      <trkpt lat="49.25404" lon="-0.47943">
        <ele>47.8</ele>
        <time>2023-04-28T12:37:02Z</time>
      </trkpt>
      <trkpt lat="49.25401" lon="-0.47949">
        <ele>47.8</ele>
        <time>2023-04-28T12:37:03Z</time>
      </trkpt>
      <trkpt lat="49.25397" lon="-0.47955">
        <ele>47.8</ele>
        <time>2023-04-28T12:37:04Z</time>
      </trkpt>
      <trkpt lat="49.25393" lon="-0.47962">
        <ele>47.8</ele>
        <time>2023-04-28T12:37:05Z</time>
      </trkpt>
      <trkpt lat="49.25389" lon="-0.47968">
        <ele>47.8</ele>
        <time>2023-04-28T12:37:06Z</time>
      </trkpt>
      <trkpt lat="49.25386" lon="-0.47975">
        <ele>47.8</ele>
        <time>2023-04-28T12:37:07Z</time>
      </trkpt>
      <trkpt lat="49.25382" lon="-0.47982">
        <ele>47.8</ele>
        <time>2023-04-28T12:37:08Z</time>
      </trkpt>
      <trkpt lat="49.25378" lon="-0.47988">
        <ele>48</ele>
        <time>2023-04-28T12:37:09Z</time>
      </trkpt>
      <trkpt lat="49.25374" lon="-0.47995">
        <ele>48</ele>
        <time>2023-04-28T12:37:10Z</time>
      </trkpt>
      <trkpt lat="49.2537" lon="-0.48001">
        <ele>48</ele>
        <time>2023-04-28T12:37:11Z</time>
      </trkpt>
      <trkpt lat="49.25366" lon="-0.48008">
        <ele>48</ele>
        <time>2023-04-28T12:37:12Z</time>
      </trkpt>
      <trkpt lat="49.25362" lon="-0.48015">
        <ele>48</ele>
        <time>2023-04-28T12:37:13Z</time>
      </trkpt>
      <trkpt lat="49.25358" lon="-0.48022">
        <ele>48.2</ele>
        <time>2023-04-28T12:37:14Z</time>
      </trkpt>
      <trkpt lat="49.25354" lon="-0.48029">
        <ele>48.2</ele>
        <time>2023-04-28T12:37:15Z</time>
      </trkpt>
      <trkpt lat="49.2535" lon="-0.48035">
        <ele>48.2</ele>
        <time>2023-04-28T12:37:16Z</time>
      </trkpt>
      <trkpt lat="49.25346" lon="-0.48042">
        <ele>48.4</ele>
        <time>2023-04-28T12:37:17Z</time>
      </trkpt>
      <trkpt lat="49.25342" lon="-0.48049">
        <ele>48.6</ele>
        <time>2023-04-28T12:37:18Z</time>
      </trkpt>
      <trkpt lat="49.25338" lon="-0.48056">
        <ele>48.6</ele>
        <time>2023-04-28T12:37:19Z</time>
      </trkpt>
      <trkpt lat="49.25334" lon="-0.48063">
        <ele>48.8</ele>
        <time>2023-04-28T12:37:20Z</time>
      </trkpt>
      <trkpt lat="49.2533" lon="-0.48069">
        <ele>48.8</ele>
        <time>2023-04-28T12:37:21Z</time>
      </trkpt>
      <trkpt lat="49.25327" lon="-0.48076">
        <ele>48.6</ele>
        <time>2023-04-28T12:37:22Z</time>
      </trkpt>
      <trkpt lat="49.25323" lon="-0.48083">
        <ele>48.6</ele>
        <time>2023-04-28T12:37:23Z</time>
      </trkpt>
      <trkpt lat="49.25319" lon="-0.48089">
        <ele>48.2</ele>
        <time>2023-04-28T12:37:24Z</time>
      </trkpt>
      <trkpt lat="49.25315" lon="-0.48096">
        <ele>48</ele>
        <time>2023-04-28T12:37:25Z</time>
      </trkpt>
      <trkpt lat="49.25311" lon="-0.48103">
        <ele>48</ele>
        <time>2023-04-28T12:37:26Z</time>
      </trkpt>
      <trkpt lat="49.25307" lon="-0.48109">
        <ele>47.8</ele>
        <time>2023-04-28T12:37:27Z</time>
      </trkpt>
      <trkpt lat="49.25303" lon="-0.48116">
        <ele>47.8</ele>
        <time>2023-04-28T12:37:28Z</time>
      </trkpt>
      <trkpt lat="49.25299" lon="-0.48122">
        <ele>47.8</ele>
        <time>2023-04-28T12:37:29Z</time>
      </trkpt>
      <trkpt lat="49.25296" lon="-0.48129">
        <ele>47.6</ele>
        <time>2023-04-28T12:37:30Z</time>
      </trkpt>
      <trkpt lat="49.25292" lon="-0.48135">
        <ele>47.6</ele>
        <time>2023-04-28T12:37:31Z</time>
      </trkpt>
      <trkpt lat="49.25288" lon="-0.48142">
        <ele>47.6</ele>
        <time>2023-04-28T12:37:32Z</time>
      </trkpt>
      <trkpt lat="49.25284" lon="-0.48148">
        <ele>47.8</ele>
        <time>2023-04-28T12:37:33Z</time>
      </trkpt>
      <trkpt lat="49.25281" lon="-0.48154">
        <ele>47.8</ele>
        <time>2023-04-28T12:37:34Z</time>
      </trkpt>
      <trkpt lat="49.25277" lon="-0.48161">
        <ele>48</ele>
        <time>2023-04-28T12:37:35Z</time>
      </trkpt>
      <trkpt lat="49.25273" lon="-0.48167">
        <ele>48</ele>
        <time>2023-04-28T12:37:36Z</time>
      </trkpt>
      <trkpt lat="49.25269" lon="-0.48173">
        <ele>48</ele>
        <time>2023-04-28T12:37:37Z</time>
      </trkpt>
      <trkpt lat="49.25266" lon="-0.48179">
        <ele>48</ele>
        <time>2023-04-28T12:37:38Z</time>
      </trkpt>
      <trkpt lat="49.25262" lon="-0.48186">
        <ele>48</ele>
        <time>2023-04-28T12:37:39Z</time>
      </trkpt>
      <trkpt lat="49.25258" lon="-0.48192">
        <ele>48</ele>
        <time>2023-04-28T12:37:40Z</time>
      </trkpt>
      <trkpt lat="49.25255" lon="-0.48198">
        <ele>48</ele>
        <time>2023-04-28T12:37:41Z</time>
      </trkpt>
      <trkpt lat="49.25251" lon="-0.48204">
        <ele>48</ele>
        <time>2023-04-28T12:37:42Z</time>
      </trkpt>
      <trkpt lat="49.25248" lon="-0.48211">
        <ele>48</ele>
        <time>2023-04-28T12:37:43Z</time>
      </trkpt>
      <trkpt lat="49.25244" lon="-0.48217">
        <ele>48</ele>
        <time>2023-04-28T12:37:44Z</time>
      </trkpt>
      <trkpt lat="49.2524" lon="-0.48223">
        <ele>48</ele>
        <time>2023-04-28T12:37:45Z</time>
      </trkpt>
      <trkpt lat="49.25237" lon="-0.48229">
        <ele>48</ele>
        <time>2023-04-28T12:37:46Z</time>
      </trkpt>
      <trkpt lat="49.25233" lon="-0.48236">
        <ele>48</ele>
        <time>2023-04-28T12:37:47Z</time>
      </trkpt>
      <trkpt lat="49.25229" lon="-0.48242">
        <ele>48</ele>
        <time>2023-04-28T12:37:48Z</time>
      </trkpt>
      <trkpt lat="49.25225" lon="-0.48248">
        <ele>48</ele>
        <time>2023-04-28T12:37:49Z</time>
      </trkpt>
      <trkpt lat="49.25221" lon="-0.48255">
        <ele>48</ele>
        <time>2023-04-28T12:37:50Z</time>
      </trkpt>
      <trkpt lat="49.25218" lon="-0.48261">
        <ele>48</ele>
        <time>2023-04-28T12:37:51Z</time>
      </trkpt>
      <trkpt lat="49.25213" lon="-0.48268">
        <ele>48</ele>
        <time>2023-04-28T12:37:52Z</time>
      </trkpt>
      <trkpt lat="49.25209" lon="-0.48275">
        <ele>48</ele>
        <time>2023-04-28T12:37:53Z</time>
      </trkpt>
      <trkpt lat="49.25205" lon="-0.48282">
        <ele>48</ele>
        <time>2023-04-28T12:37:54Z</time>
      </trkpt>
      <trkpt lat="49.25201" lon="-0.48289">
        <ele>48</ele>
        <time>2023-04-28T12:37:55Z</time>
      </trkpt>
      <trkpt lat="49.25196" lon="-0.48296">
        <ele>48.2</ele>
        <time>2023-04-28T12:37:56Z</time>
      </trkpt>
      <trkpt lat="49.25192" lon="-0.48304">
        <ele>48.2</ele>
        <time>2023-04-28T12:37:57Z</time>
      </trkpt>
      <trkpt lat="49.25188" lon="-0.48311">
        <ele>48.4</ele>
        <time>2023-04-28T12:37:58Z</time>
      </trkpt>
      <trkpt lat="49.25183" lon="-0.48319">
        <ele>48.6</ele>
        <time>2023-04-28T12:37:59Z</time>
      </trkpt>
      <trkpt lat="49.25179" lon="-0.48326">
        <ele>48.8</ele>
        <time>2023-04-28T12:38:00Z</time>
      </trkpt>
      <trkpt lat="49.25174" lon="-0.48334">
        <ele>48.8</ele>
        <time>2023-04-28T12:38:01Z</time>
      </trkpt>
      <trkpt lat="49.2517" lon="-0.48342">
        <ele>49</ele>
        <time>2023-04-28T12:38:02Z</time>
      </trkpt>
      <trkpt lat="49.25165" lon="-0.48349">
        <ele>49.2</ele>
        <time>2023-04-28T12:38:03Z</time>
      </trkpt>
      <trkpt lat="49.25161" lon="-0.48357">
        <ele>49.8</ele>
        <time>2023-04-28T12:38:04Z</time>
      </trkpt>
      <trkpt lat="49.25156" lon="-0.48365">
        <ele>50</ele>
        <time>2023-04-28T12:38:05Z</time>
      </trkpt>
      <trkpt lat="49.25152" lon="-0.48372">
        <ele>50.4</ele>
        <time>2023-04-28T12:38:06Z</time>
      </trkpt>
      <trkpt lat="49.25148" lon="-0.48379">
        <ele>50.6</ele>
        <time>2023-04-28T12:38:07Z</time>
      </trkpt>
      <trkpt lat="49.25143" lon="-0.48386">
        <ele>51</ele>
        <time>2023-04-28T12:38:08Z</time>
      </trkpt>
      <trkpt lat="49.25139" lon="-0.48393">
        <ele>51</ele>
        <time>2023-04-28T12:38:09Z</time>
      </trkpt>
      <trkpt lat="49.25136" lon="-0.484">
        <ele>51.2</ele>
        <time>2023-04-28T12:38:10Z</time>
      </trkpt>
      <trkpt lat="49.25132" lon="-0.48406">
        <ele>51.2</ele>
        <time>2023-04-28T12:38:11Z</time>
      </trkpt>
      <trkpt lat="49.25128" lon="-0.48413">
        <ele>51.4</ele>
        <time>2023-04-28T12:38:12Z</time>
      </trkpt>
      <trkpt lat="49.25124" lon="-0.4842">
        <ele>51.6</ele>
        <time>2023-04-28T12:38:13Z</time>
      </trkpt>
      <trkpt lat="49.2512" lon="-0.48427">
        <ele>51.6</ele>
        <time>2023-04-28T12:38:14Z</time>
      </trkpt>
      <trkpt lat="49.25117" lon="-0.48434">
        <ele>51.6</ele>
        <time>2023-04-28T12:38:15Z</time>
      </trkpt>
      <trkpt lat="49.25113" lon="-0.48441">
        <ele>51.8</ele>
        <time>2023-04-28T12:38:16Z</time>
      </trkpt>
      <trkpt lat="49.2511" lon="-0.48448">
        <ele>51.8</ele>
        <time>2023-04-28T12:38:17Z</time>
      </trkpt>
      <trkpt lat="49.25106" lon="-0.48456">
        <ele>51.6</ele>
        <time>2023-04-28T12:38:18Z</time>
      </trkpt>
      <trkpt lat="49.25103" lon="-0.48464">
        <ele>51.6</ele>
        <time>2023-04-28T12:38:19Z</time>
      </trkpt>
      <trkpt lat="49.25101" lon="-0.48471">
        <ele>51.6</ele>
        <time>2023-04-28T12:38:20Z</time>
      </trkpt>
      <trkpt lat="49.25098" lon="-0.4848">
        <ele>51.4</ele>
        <time>2023-04-28T12:38:21Z</time>
      </trkpt>
      <trkpt lat="49.25096" lon="-0.48488">
        <ele>51.2</ele>
        <time>2023-04-28T12:38:22Z</time>
      </trkpt>
      <trkpt lat="49.25093" lon="-0.48496">
        <ele>51</ele>
        <time>2023-04-28T12:38:23Z</time>
      </trkpt>
      <trkpt lat="49.2509" lon="-0.48503">
        <ele>51</ele>
        <time>2023-04-28T12:38:24Z</time>
      </trkpt>
      <trkpt lat="49.25087" lon="-0.48511">
        <ele>51</ele>
        <time>2023-04-28T12:38:25Z</time>
      </trkpt>
      <trkpt lat="49.25084" lon="-0.48517">
        <ele>51</ele>
        <time>2023-04-28T12:38:26Z</time>
      </trkpt>
      <trkpt lat="49.25079" lon="-0.48523">
        <ele>51</ele>
        <time>2023-04-28T12:38:27Z</time>
      </trkpt>
      <trkpt lat="49.25075" lon="-0.48527">
        <ele>51</ele>
        <time>2023-04-28T12:38:28Z</time>
      </trkpt>
      <trkpt lat="49.2507" lon="-0.4853">
        <ele>50.8</ele>
        <time>2023-04-28T12:38:29Z</time>
      </trkpt>
      <trkpt lat="49.25064" lon="-0.48532">
        <ele>50.8</ele>
        <time>2023-04-28T12:38:30Z</time>
      </trkpt>
      <trkpt lat="49.25059" lon="-0.48532">
        <ele>50.8</ele>
        <time>2023-04-28T12:38:31Z</time>
      </trkpt>
      <trkpt lat="49.25054" lon="-0.48531">
        <ele>50.6</ele>
        <time>2023-04-28T12:38:32Z</time>
      </trkpt>
      <trkpt lat="49.25048" lon="-0.4853">
        <ele>50.6</ele>
        <time>2023-04-28T12:38:33Z</time>
      </trkpt>
      <trkpt lat="49.25043" lon="-0.48529">
        <ele>50.6</ele>
        <time>2023-04-28T12:38:34Z</time>
      </trkpt>
      <trkpt lat="49.25037" lon="-0.48527">
        <ele>50.4</ele>
        <time>2023-04-28T12:38:35Z</time>
      </trkpt>
      <trkpt lat="49.25032" lon="-0.48525">
        <ele>50.4</ele>
        <time>2023-04-28T12:38:36Z</time>
      </trkpt>
      <trkpt lat="49.25026" lon="-0.48523">
        <ele>50.2</ele>
        <time>2023-04-28T12:38:37Z</time>
      </trkpt>
      <trkpt lat="49.2502" lon="-0.48521">
        <ele>50.2</ele>
        <time>2023-04-28T12:38:38Z</time>
      </trkpt>
      <trkpt lat="49.25014" lon="-0.48519">
        <ele>50.2</ele>
        <time>2023-04-28T12:38:39Z</time>
      </trkpt>
      <trkpt lat="49.25008" lon="-0.48516">
        <ele>50</ele>
        <time>2023-04-28T12:38:40Z</time>
      </trkpt>
      <trkpt lat="49.25002" lon="-0.48513">
        <ele>50</ele>
        <time>2023-04-28T12:38:41Z</time>
      </trkpt>
      <trkpt lat="49.24997" lon="-0.48509">
        <ele>50.2</ele>
        <time>2023-04-28T12:38:42Z</time>
      </trkpt>
      <trkpt lat="49.24991" lon="-0.48504">
        <ele>50.6</ele>
        <time>2023-04-28T12:38:43Z</time>
      </trkpt>
      <trkpt lat="49.24986" lon="-0.48498">
        <ele>51</ele>
        <time>2023-04-28T12:38:44Z</time>
      </trkpt>
      <trkpt lat="49.24982" lon="-0.48492">
        <ele>51.2</ele>
        <time>2023-04-28T12:38:45Z</time>
      </trkpt>
      <trkpt lat="49.24977" lon="-0.48485">
        <ele>51.8</ele>
        <time>2023-04-28T12:38:46Z</time>
      </trkpt>
      <trkpt lat="49.24972" lon="-0.48479">
        <ele>52</ele>
        <time>2023-04-28T12:38:47Z</time>
      </trkpt>
      <trkpt lat="49.24967" lon="-0.48473">
        <ele>52.2</ele>
        <time>2023-04-28T12:38:48Z</time>
      </trkpt>
      <trkpt lat="49.24961" lon="-0.48467">
        <ele>52.6</ele>
        <time>2023-04-28T12:38:49Z</time>
      </trkpt>
      <trkpt lat="49.24955" lon="-0.48463">
        <ele>53</ele>
        <time>2023-04-28T12:38:50Z</time>
      </trkpt>
      <trkpt lat="49.24949" lon="-0.48459">
        <ele>53.2</ele>
        <time>2023-04-28T12:38:51Z</time>
      </trkpt>
      <trkpt lat="49.24943" lon="-0.48457">
        <ele>53.6</ele>
        <time>2023-04-28T12:38:52Z</time>
      </trkpt>
      <trkpt lat="49.24937" lon="-0.48456">
        <ele>54</ele>
        <time>2023-04-28T12:38:53Z</time>
      </trkpt>
      <trkpt lat="49.24931" lon="-0.48455">
        <ele>54.2</ele>
        <time>2023-04-28T12:38:54Z</time>
      </trkpt>
      <trkpt lat="49.24925" lon="-0.48455">
        <ele>54.6</ele>
        <time>2023-04-28T12:38:55Z</time>
      </trkpt>
      <trkpt lat="49.24919" lon="-0.48456">
        <ele>54.8</ele>
        <time>2023-04-28T12:38:56Z</time>
      </trkpt>
      <trkpt lat="49.24913" lon="-0.48457">
        <ele>55</ele>
        <time>2023-04-28T12:38:57Z</time>
      </trkpt>
      <trkpt lat="49.24907" lon="-0.48458">
        <ele>55</ele>
        <time>2023-04-28T12:38:58Z</time>
      </trkpt>
      <trkpt lat="49.24902" lon="-0.4846">
        <ele>55</ele>
        <time>2023-04-28T12:38:59Z</time>
      </trkpt>
      <trkpt lat="49.24896" lon="-0.48461">
        <ele>55</ele>
        <time>2023-04-28T12:39:00Z</time>
      </trkpt>
      <trkpt lat="49.2489" lon="-0.48462">
        <ele>55</ele>
        <time>2023-04-28T12:39:01Z</time>
      </trkpt>
      <trkpt lat="49.24884" lon="-0.48462">
        <ele>55</ele>
        <time>2023-04-28T12:39:02Z</time>
      </trkpt>
      <trkpt lat="49.24879" lon="-0.48463">
        <ele>55</ele>
        <time>2023-04-28T12:39:03Z</time>
      </trkpt>
      <trkpt lat="49.24873" lon="-0.48463">
        <ele>55</ele>
        <time>2023-04-28T12:39:04Z</time>
      </trkpt>
      <trkpt lat="49.24867" lon="-0.48463">
        <ele>55</ele>
        <time>2023-04-28T12:39:05Z</time>
      </trkpt>
      <trkpt lat="49.24862" lon="-0.48463">
        <ele>55</ele>
        <time>2023-04-28T12:39:06Z</time>
      </trkpt>
      <trkpt lat="49.24856" lon="-0.48464">
        <ele>55</ele>
        <time>2023-04-28T12:39:07Z</time>
      </trkpt>
      <trkpt lat="49.2485" lon="-0.48465">
        <ele>55.2</ele>
        <time>2023-04-28T12:39:08Z</time>
      </trkpt>
      <trkpt lat="49.24844" lon="-0.48466">
        <ele>55.2</ele>
        <time>2023-04-28T12:39:09Z</time>
      </trkpt>
      <trkpt lat="49.24839" lon="-0.48467">
        <ele>55.2</ele>
        <time>2023-04-28T12:39:10Z</time>
      </trkpt>
      <trkpt lat="49.24833" lon="-0.48468">
        <ele>55.2</ele>
        <time>2023-04-28T12:39:11Z</time>
      </trkpt>
      <trkpt lat="49.24828" lon="-0.48469">
        <ele>55.2</ele>
        <time>2023-04-28T12:39:12Z</time>
      </trkpt>
      <trkpt lat="49.24822" lon="-0.4847">
        <ele>55</ele>
        <time>2023-04-28T12:39:13Z</time>
      </trkpt>
      <trkpt lat="49.24818" lon="-0.48471">
        <ele>55</ele>
        <time>2023-04-28T12:39:14Z</time>
      </trkpt>
      <trkpt lat="49.24813" lon="-0.48473">
        <ele>55</ele>
        <time>2023-04-28T12:39:15Z</time>
      </trkpt>
      <trkpt lat="49.24808" lon="-0.48474">
        <ele>55</ele>
        <time>2023-04-28T12:39:16Z</time>
      </trkpt>
      <trkpt lat="49.24803" lon="-0.48475">
        <ele>54.8</ele>
        <time>2023-04-28T12:39:17Z</time>
      </trkpt>
      <trkpt lat="49.24798" lon="-0.48477">
        <ele>54.8</ele>
        <time>2023-04-28T12:39:18Z</time>
      </trkpt>
      <trkpt lat="49.24792" lon="-0.48478">
        <ele>54.6</ele>
        <time>2023-04-28T12:39:19Z</time>
      </trkpt>
      <trkpt lat="49.24786" lon="-0.4848">
        <ele>54.6</ele>
        <time>2023-04-28T12:39:20Z</time>
      </trkpt>
      <trkpt lat="49.2478" lon="-0.48481">
        <ele>54.4</ele>
        <time>2023-04-28T12:39:21Z</time>
      </trkpt>
      <trkpt lat="49.24775" lon="-0.48482">
        <ele>54.2</ele>
        <time>2023-04-28T12:39:22Z</time>
      </trkpt>
      <trkpt lat="49.24769" lon="-0.48483">
        <ele>54.2</ele>
        <time>2023-04-28T12:39:23Z</time>
      </trkpt>
      <trkpt lat="49.24763" lon="-0.48484">
        <ele>54</ele>
        <time>2023-04-28T12:39:24Z</time>
      </trkpt>
      <trkpt lat="49.24758" lon="-0.48485">
        <ele>54</ele>
        <time>2023-04-28T12:39:25Z</time>
      </trkpt>
      <trkpt lat="49.24752" lon="-0.48487">
        <ele>54</ele>
        <time>2023-04-28T12:39:26Z</time>
      </trkpt>
      <trkpt lat="49.24747" lon="-0.48488">
        <ele>53.8</ele>
        <time>2023-04-28T12:39:27Z</time>
      </trkpt>
      <trkpt lat="49.24741" lon="-0.48489">
        <ele>53.8</ele>
        <time>2023-04-28T12:39:28Z</time>
      </trkpt>
      <trkpt lat="49.24735" lon="-0.48491">
        <ele>53.8</ele>
        <time>2023-04-28T12:39:29Z</time>
      </trkpt>
      <trkpt lat="49.24729" lon="-0.48492">
        <ele>53.8</ele>
        <time>2023-04-28T12:39:30Z</time>
      </trkpt>
      <trkpt lat="49.24723" lon="-0.48494">
        <ele>53.6</ele>
        <time>2023-04-28T12:39:31Z</time>
      </trkpt>
      <trkpt lat="49.24717" lon="-0.48495">
        <ele>53.6</ele>
        <time>2023-04-28T12:39:32Z</time>
      </trkpt>
      <trkpt lat="49.24711" lon="-0.48496">
        <ele>53.6</ele>
        <time>2023-04-28T12:39:33Z</time>
      </trkpt>
      <trkpt lat="49.24705" lon="-0.48497">
        <ele>53.4</ele>
        <time>2023-04-28T12:39:34Z</time>
      </trkpt>
      <trkpt lat="49.24699" lon="-0.48498">
        <ele>53.4</ele>
        <time>2023-04-28T12:39:35Z</time>
      </trkpt>
      <trkpt lat="49.24694" lon="-0.48499">
        <ele>53.2</ele>
        <time>2023-04-28T12:39:36Z</time>
      </trkpt>
      <trkpt lat="49.24688" lon="-0.485">
        <ele>53.2</ele>
        <time>2023-04-28T12:39:37Z</time>
      </trkpt>
      <trkpt lat="49.24683" lon="-0.48501">
        <ele>53</ele>
        <time>2023-04-28T12:39:38Z</time>
      </trkpt>
      <trkpt lat="49.24676" lon="-0.48503">
        <ele>53</ele>
        <time>2023-04-28T12:39:39Z</time>
      </trkpt>
      <trkpt lat="49.2467" lon="-0.48504">
        <ele>53</ele>
        <time>2023-04-28T12:39:40Z</time>
      </trkpt>
      <trkpt lat="49.24663" lon="-0.48505">
        <ele>52.8</ele>
        <time>2023-04-28T12:39:41Z</time>
      </trkpt>
      <trkpt lat="49.24657" lon="-0.48506">
        <ele>52.8</ele>
        <time>2023-04-28T12:39:42Z</time>
      </trkpt>
      <trkpt lat="49.2465" lon="-0.48507">
        <ele>52.6</ele>
        <time>2023-04-28T12:39:43Z</time>
      </trkpt>
      <trkpt lat="49.24644" lon="-0.48507">
        <ele>52.6</ele>
        <time>2023-04-28T12:39:44Z</time>
      </trkpt>
      <trkpt lat="49.24638" lon="-0.48508">
        <ele>52.4</ele>
        <time>2023-04-28T12:39:45Z</time>
      </trkpt>
      <trkpt lat="49.24631" lon="-0.4851">
        <ele>52.2</ele>
        <time>2023-04-28T12:39:46Z</time>
      </trkpt>
      <trkpt lat="49.24625" lon="-0.48511">
        <ele>52.2</ele>
        <time>2023-04-28T12:39:47Z</time>
      </trkpt>
      <trkpt lat="49.24619" lon="-0.48512">
        <ele>52.2</ele>
        <time>2023-04-28T12:39:48Z</time>
      </trkpt>
      <trkpt lat="49.24612" lon="-0.48513">
        <ele>52</ele>
        <time>2023-04-28T12:39:49Z</time>
      </trkpt>
      <trkpt lat="49.24606" lon="-0.48514">
        <ele>52</ele>
        <time>2023-04-28T12:39:50Z</time>
      </trkpt>
      <trkpt lat="49.24599" lon="-0.48516">
        <ele>52</ele>
        <time>2023-04-28T12:39:51Z</time>
      </trkpt>
      <trkpt lat="49.24592" lon="-0.48517">
        <ele>52</ele>
        <time>2023-04-28T12:39:52Z</time>
      </trkpt>
      <trkpt lat="49.24585" lon="-0.48519">
        <ele>51.8</ele>
        <time>2023-04-28T12:39:53Z</time>
      </trkpt>
      <trkpt lat="49.24578" lon="-0.4852">
        <ele>51.6</ele>
        <time>2023-04-28T12:39:54Z</time>
      </trkpt>
      <trkpt lat="49.2457" lon="-0.48522">
        <ele>51.4</ele>
        <time>2023-04-28T12:39:55Z</time>
      </trkpt>
      <trkpt lat="49.24563" lon="-0.48523">
        <ele>51.2</ele>
        <time>2023-04-28T12:39:56Z</time>
      </trkpt>
      <trkpt lat="49.24555" lon="-0.48524">
        <ele>51</ele>
        <time>2023-04-28T12:39:57Z</time>
      </trkpt>
      <trkpt lat="49.24548" lon="-0.48525">
        <ele>50.8</ele>
        <time>2023-04-28T12:39:58Z</time>
      </trkpt>
      <trkpt lat="49.2454" lon="-0.48526">
        <ele>50.6</ele>
        <time>2023-04-28T12:39:59Z</time>
      </trkpt>
      <trkpt lat="49.24532" lon="-0.48527">
        <ele>50.4</ele>
        <time>2023-04-28T12:40:00Z</time>
      </trkpt>
      <trkpt lat="49.24524" lon="-0.48528">
        <ele>50.2</ele>
        <time>2023-04-28T12:40:01Z</time>
      </trkpt>
      <trkpt lat="49.24516" lon="-0.4853">
        <ele>50</ele>
        <time>2023-04-28T12:40:02Z</time>
      </trkpt>
      <trkpt lat="49.24507" lon="-0.48531">
        <ele>49.8</ele>
        <time>2023-04-28T12:40:03Z</time>
      </trkpt>
      <trkpt lat="49.24499" lon="-0.48533">
        <ele>49.6</ele>
        <time>2023-04-28T12:40:04Z</time>
      </trkpt>
      <trkpt lat="49.24491" lon="-0.48534">
        <ele>49.2</ele>
        <time>2023-04-28T12:40:05Z</time>
      </trkpt>
      <trkpt lat="49.24482" lon="-0.48536">
        <ele>49</ele>
        <time>2023-04-28T12:40:06Z</time>
      </trkpt>
      <trkpt lat="49.24474" lon="-0.48537">
        <ele>48.6</ele>
        <time>2023-04-28T12:40:07Z</time>
      </trkpt>
      <trkpt lat="49.24466" lon="-0.48538">
        <ele>48.2</ele>
        <time>2023-04-28T12:40:08Z</time>
      </trkpt>
      <trkpt lat="49.24457" lon="-0.48539">
        <ele>48</ele>
        <time>2023-04-28T12:40:09Z</time>
      </trkpt>
      <trkpt lat="49.24449" lon="-0.4854">
        <ele>47.8</ele>
        <time>2023-04-28T12:40:10Z</time>
      </trkpt>
      <trkpt lat="49.24441" lon="-0.48542">
        <ele>47.4</ele>
        <time>2023-04-28T12:40:11Z</time>
      </trkpt>
      <trkpt lat="49.24432" lon="-0.48543">
        <ele>47</ele>
        <time>2023-04-28T12:40:12Z</time>
      </trkpt>
      <trkpt lat="49.24424" lon="-0.48545">
        <ele>46.8</ele>
        <time>2023-04-28T12:40:13Z</time>
      </trkpt>
      <trkpt lat="49.24415" lon="-0.48548">
        <ele>46.6</ele>
        <time>2023-04-28T12:40:14Z</time>
      </trkpt>
      <trkpt lat="49.24407" lon="-0.48551">
        <ele>46.2</ele>
        <time>2023-04-28T12:40:15Z</time>
      </trkpt>
      <trkpt lat="49.24398" lon="-0.48554">
        <ele>46</ele>
        <time>2023-04-28T12:40:16Z</time>
      </trkpt>
      <trkpt lat="49.2439" lon="-0.48558">
        <ele>45.8</ele>
        <time>2023-04-28T12:40:17Z</time>
      </trkpt>
      <trkpt lat="49.24382" lon="-0.48562">
        <ele>45.6</ele>
        <time>2023-04-28T12:40:18Z</time>
      </trkpt>
      <trkpt lat="49.24374" lon="-0.48566">
        <ele>45.2</ele>
        <time>2023-04-28T12:40:19Z</time>
      </trkpt>
      <trkpt lat="49.24366" lon="-0.4857">
        <ele>45</ele>
        <time>2023-04-28T12:40:20Z</time>
      </trkpt>
      <trkpt lat="49.24358" lon="-0.48575">
        <ele>45</ele>
        <time>2023-04-28T12:40:21Z</time>
      </trkpt>
      <trkpt lat="49.2435" lon="-0.4858">
        <ele>44.6</ele>
        <time>2023-04-28T12:40:22Z</time>
      </trkpt>
      <trkpt lat="49.24343" lon="-0.48584">
        <ele>44.2</ele>
        <time>2023-04-28T12:40:23Z</time>
      </trkpt>
      <trkpt lat="49.24335" lon="-0.48589">
        <ele>44</ele>
        <time>2023-04-28T12:40:24Z</time>
      </trkpt>
      <trkpt lat="49.24328" lon="-0.48593">
        <ele>44.2</ele>
        <time>2023-04-28T12:40:25Z</time>
      </trkpt>
      <trkpt lat="49.24321" lon="-0.48597">
        <ele>44.2</ele>
        <time>2023-04-28T12:40:26Z</time>
      </trkpt>
      <trkpt lat="49.24314" lon="-0.48602">
        <ele>44.4</ele>
        <time>2023-04-28T12:40:27Z</time>
      </trkpt>
      <trkpt lat="49.24308" lon="-0.48606">
        <ele>44.6</ele>
        <time>2023-04-28T12:40:28Z</time>
      </trkpt>
      <trkpt lat="49.24301" lon="-0.4861">
        <ele>44.8</ele>
        <time>2023-04-28T12:40:29Z</time>
      </trkpt>
      <trkpt lat="49.24294" lon="-0.48614">
        <ele>44.8</ele>
        <time>2023-04-28T12:40:30Z</time>
      </trkpt>
      <trkpt lat="49.24287" lon="-0.48618">
        <ele>45</ele>
        <time>2023-04-28T12:40:31Z</time>
      </trkpt>
      <trkpt lat="49.24281" lon="-0.48622">
        <ele>45</ele>
        <time>2023-04-28T12:40:32Z</time>
      </trkpt>
      <trkpt lat="49.24274" lon="-0.48625">
        <ele>45.2</ele>
        <time>2023-04-28T12:40:33Z</time>
      </trkpt>
      <trkpt lat="49.24267" lon="-0.48629">
        <ele>45.2</ele>
        <time>2023-04-28T12:40:34Z</time>
      </trkpt>
      <trkpt lat="49.24261" lon="-0.48633">
        <ele>45.6</ele>
        <time>2023-04-28T12:40:35Z</time>
      </trkpt>
      <trkpt lat="49.24254" lon="-0.48637">
        <ele>45.6</ele>
        <time>2023-04-28T12:40:36Z</time>
      </trkpt>
      <trkpt lat="49.24247" lon="-0.48641">
        <ele>45.8</ele>
        <time>2023-04-28T12:40:37Z</time>
      </trkpt>
      <trkpt lat="49.24241" lon="-0.48645">
        <ele>46</ele>
        <time>2023-04-28T12:40:38Z</time>
      </trkpt>
      <trkpt lat="49.24234" lon="-0.48649">
        <ele>46</ele>
        <time>2023-04-28T12:40:39Z</time>
      </trkpt>
      <trkpt lat="49.24228" lon="-0.48652">
        <ele>46.2</ele>
        <time>2023-04-28T12:40:40Z</time>
      </trkpt>
      <trkpt lat="49.24222" lon="-0.48656">
        <ele>46.6</ele>
        <time>2023-04-28T12:40:41Z</time>
      </trkpt>
      <trkpt lat="49.24215" lon="-0.4866">
        <ele>46.8</ele>
        <time>2023-04-28T12:40:42Z</time>
      </trkpt>
      <trkpt lat="49.24209" lon="-0.48664">
        <ele>47</ele>
        <time>2023-04-28T12:40:43Z</time>
      </trkpt>
      <trkpt lat="49.24203" lon="-0.48667">
        <ele>47</ele>
        <time>2023-04-28T12:40:44Z</time>
      </trkpt>
      <trkpt lat="49.24197" lon="-0.48671">
        <ele>47.2</ele>
        <time>2023-04-28T12:40:45Z</time>
      </trkpt>
      <trkpt lat="49.24191" lon="-0.48674">
        <ele>47.4</ele>
        <time>2023-04-28T12:40:46Z</time>
      </trkpt>
      <trkpt lat="49.24185" lon="-0.48678">
        <ele>47.6</ele>
        <time>2023-04-28T12:40:47Z</time>
      </trkpt>
      <trkpt lat="49.24179" lon="-0.48681">
        <ele>47.8</ele>
        <time>2023-04-28T12:40:48Z</time>
      </trkpt>
      <trkpt lat="49.24173" lon="-0.48685">
        <ele>48</ele>
        <time>2023-04-28T12:40:49Z</time>
      </trkpt>
      <trkpt lat="49.24167" lon="-0.48688">
        <ele>48</ele>
        <time>2023-04-28T12:40:50Z</time>
      </trkpt>
      <trkpt lat="49.24161" lon="-0.48691">
        <ele>48</ele>
        <time>2023-04-28T12:40:51Z</time>
      </trkpt>
      <trkpt lat="49.24155" lon="-0.48695">
        <ele>48</ele>
        <time>2023-04-28T12:40:52Z</time>
      </trkpt>
      <trkpt lat="49.24149" lon="-0.48698">
        <ele>48</ele>
        <time>2023-04-28T12:40:53Z</time>
      </trkpt>
      <trkpt lat="49.24144" lon="-0.48702">
        <ele>48</ele>
        <time>2023-04-28T12:40:54Z</time>
      </trkpt>
      <trkpt lat="49.24138" lon="-0.48705">
        <ele>48</ele>
        <time>2023-04-28T12:40:55Z</time>
      </trkpt>
      <trkpt lat="49.24132" lon="-0.48708">
        <ele>48</ele>
        <time>2023-04-28T12:40:56Z</time>
      </trkpt>
      <trkpt lat="49.24127" lon="-0.48711">
        <ele>48</ele>
        <time>2023-04-28T12:40:57Z</time>
      </trkpt>
      <trkpt lat="49.24121" lon="-0.48715">
        <ele>48</ele>
        <time>2023-04-28T12:40:58Z</time>
      </trkpt>
      <trkpt lat="49.24116" lon="-0.48718">
        <ele>48</ele>
        <time>2023-04-28T12:40:59Z</time>
      </trkpt>
      <trkpt lat="49.2411" lon="-0.48721">
        <ele>48</ele>
        <time>2023-04-28T12:41:00Z</time>
      </trkpt>
      <trkpt lat="49.24105" lon="-0.48724">
        <ele>48</ele>
        <time>2023-04-28T12:41:01Z</time>
      </trkpt>
      <trkpt lat="49.24099" lon="-0.48727">
        <ele>48</ele>
        <time>2023-04-28T12:41:02Z</time>
      </trkpt>
      <trkpt lat="49.24094" lon="-0.4873">
        <ele>48</ele>
        <time>2023-04-28T12:41:03Z</time>
      </trkpt>
      <trkpt lat="49.24089" lon="-0.48734">
        <ele>48</ele>
        <time>2023-04-28T12:41:04Z</time>
      </trkpt>
      <trkpt lat="49.24083" lon="-0.48737">
        <ele>48</ele>
        <time>2023-04-28T12:41:05Z</time>
      </trkpt>
      <trkpt lat="49.24078" lon="-0.4874">
        <ele>48</ele>
        <time>2023-04-28T12:41:06Z</time>
      </trkpt>
      <trkpt lat="49.24073" lon="-0.48743">
        <ele>48</ele>
        <time>2023-04-28T12:41:07Z</time>
      </trkpt>
      <trkpt lat="49.24067" lon="-0.48746">
        <ele>48</ele>
        <time>2023-04-28T12:41:08Z</time>
      </trkpt>
      <trkpt lat="49.24062" lon="-0.48749">
        <ele>48</ele>
        <time>2023-04-28T12:41:09Z</time>
      </trkpt>
      <trkpt lat="49.24056" lon="-0.48752">
        <ele>48</ele>
        <time>2023-04-28T12:41:10Z</time>
      </trkpt>
      <trkpt lat="49.24051" lon="-0.48756">
        <ele>48</ele>
        <time>2023-04-28T12:41:11Z</time>
      </trkpt>
      <trkpt lat="49.24046" lon="-0.48759">
        <ele>48</ele>
        <time>2023-04-28T12:41:12Z</time>
      </trkpt>
      <trkpt lat="49.2404" lon="-0.48762">
        <ele>48</ele>
        <time>2023-04-28T12:41:13Z</time>
      </trkpt>
      <trkpt lat="49.24035" lon="-0.48765">
        <ele>48</ele>
        <time>2023-04-28T12:41:14Z</time>
      </trkpt>
      <trkpt lat="49.2403" lon="-0.48768">
        <ele>48</ele>
        <time>2023-04-28T12:41:15Z</time>
      </trkpt>
      <trkpt lat="49.24024" lon="-0.48771">
        <ele>48.2</ele>
        <time>2023-04-28T12:41:16Z</time>
      </trkpt>
      <trkpt lat="49.24019" lon="-0.48775">
        <ele>48.2</ele>
        <time>2023-04-28T12:41:17Z</time>
      </trkpt>
      <trkpt lat="49.24013" lon="-0.48778">
        <ele>48.2</ele>
        <time>2023-04-28T12:41:18Z</time>
      </trkpt>
      <trkpt lat="49.24008" lon="-0.48781">
        <ele>48.2</ele>
        <time>2023-04-28T12:41:19Z</time>
      </trkpt>
      <trkpt lat="49.24002" lon="-0.48784">
        <ele>48.4</ele>
        <time>2023-04-28T12:41:20Z</time>
      </trkpt>
      <trkpt lat="49.23997" lon="-0.48787">
        <ele>48.4</ele>
        <time>2023-04-28T12:41:21Z</time>
      </trkpt>
      <trkpt lat="49.23991" lon="-0.4879">
        <ele>48.6</ele>
        <time>2023-04-28T12:41:22Z</time>
      </trkpt>
      <trkpt lat="49.23986" lon="-0.48794">
        <ele>48.6</ele>
        <time>2023-04-28T12:41:23Z</time>
      </trkpt>
      <trkpt lat="49.2398" lon="-0.48797">
        <ele>48.6</ele>
        <time>2023-04-28T12:41:24Z</time>
      </trkpt>
      <trkpt lat="49.23975" lon="-0.488">
        <ele>48.6</ele>
        <time>2023-04-28T12:41:25Z</time>
      </trkpt>
      <trkpt lat="49.23969" lon="-0.48803">
        <ele>48.6</ele>
        <time>2023-04-28T12:41:26Z</time>
      </trkpt>
      <trkpt lat="49.23964" lon="-0.48807">
        <ele>48.8</ele>
        <time>2023-04-28T12:41:27Z</time>
      </trkpt>
      <trkpt lat="49.23958" lon="-0.4881">
        <ele>48.8</ele>
        <time>2023-04-28T12:41:28Z</time>
      </trkpt>
      <trkpt lat="49.23953" lon="-0.48813">
        <ele>48.8</ele>
        <time>2023-04-28T12:41:29Z</time>
      </trkpt>
      <trkpt lat="49.23947" lon="-0.48817">
        <ele>48.8</ele>
        <time>2023-04-28T12:41:30Z</time>
      </trkpt>
      <trkpt lat="49.23941" lon="-0.4882">
        <ele>48.8</ele>
        <time>2023-04-28T12:41:31Z</time>
      </trkpt>
      <trkpt lat="49.23936" lon="-0.48824">
        <ele>49</ele>
        <time>2023-04-28T12:41:32Z</time>
      </trkpt>
      <trkpt lat="49.2393" lon="-0.48827">
        <ele>49</ele>
        <time>2023-04-28T12:41:33Z</time>
      </trkpt>
      <trkpt lat="49.23925" lon="-0.4883">
        <ele>49</ele>
        <time>2023-04-28T12:41:34Z</time>
      </trkpt>
      <trkpt lat="49.23919" lon="-0.48834">
        <ele>49</ele>
        <time>2023-04-28T12:41:35Z</time>
      </trkpt>
      <trkpt lat="49.23913" lon="-0.48837">
        <ele>49</ele>
        <time>2023-04-28T12:41:36Z</time>
      </trkpt>
      <trkpt lat="49.23908" lon="-0.4884">
        <ele>49</ele>
        <time>2023-04-28T12:41:37Z</time>
      </trkpt>
      <trkpt lat="49.23902" lon="-0.48844">
        <ele>49</ele>
        <time>2023-04-28T12:41:38Z</time>
      </trkpt>
      <trkpt lat="49.23896" lon="-0.48847">
        <ele>49</ele>
        <time>2023-04-28T12:41:39Z</time>
      </trkpt>
      <trkpt lat="49.23891" lon="-0.4885">
        <ele>49</ele>
        <time>2023-04-28T12:41:40Z</time>
      </trkpt>
      <trkpt lat="49.23885" lon="-0.48854">
        <ele>49</ele>
        <time>2023-04-28T12:41:41Z</time>
      </trkpt>
      <trkpt lat="49.2388" lon="-0.48857">
        <ele>49</ele>
        <time>2023-04-28T12:41:42Z</time>
      </trkpt>
      <trkpt lat="49.23874" lon="-0.4886">
        <ele>49</ele>
        <time>2023-04-28T12:41:43Z</time>
      </trkpt>
      <trkpt lat="49.23869" lon="-0.48864">
        <ele>49</ele>
        <time>2023-04-28T12:41:44Z</time>
      </trkpt>
      <trkpt lat="49.23863" lon="-0.48867">
        <ele>49</ele>
        <time>2023-04-28T12:41:45Z</time>
      </trkpt>
      <trkpt lat="49.23857" lon="-0.4887">
        <ele>49</ele>
        <time>2023-04-28T12:41:46Z</time>
      </trkpt>
      <trkpt lat="49.23852" lon="-0.48874">
        <ele>49</ele>
        <time>2023-04-28T12:41:47Z</time>
      </trkpt>
      <trkpt lat="49.23846" lon="-0.48877">
        <ele>49</ele>
        <time>2023-04-28T12:41:48Z</time>
      </trkpt>
      <trkpt lat="49.2384" lon="-0.48881">
        <ele>49</ele>
        <time>2023-04-28T12:41:49Z</time>
      </trkpt>
      <trkpt lat="49.23835" lon="-0.48884">
        <ele>49</ele>
        <time>2023-04-28T12:41:50Z</time>
      </trkpt>
      <trkpt lat="49.23829" lon="-0.48888">
        <ele>49</ele>
        <time>2023-04-28T12:41:51Z</time>
      </trkpt>
      <trkpt lat="49.23823" lon="-0.48891">
        <ele>49</ele>
        <time>2023-04-28T12:41:52Z</time>
      </trkpt>
      <trkpt lat="49.23817" lon="-0.48894">
        <ele>48.8</ele>
        <time>2023-04-28T12:41:53Z</time>
      </trkpt>
      <trkpt lat="49.23811" lon="-0.48898">
        <ele>48.8</ele>
        <time>2023-04-28T12:41:54Z</time>
      </trkpt>
      <trkpt lat="49.23805" lon="-0.48902">
        <ele>48.8</ele>
        <time>2023-04-28T12:41:55Z</time>
      </trkpt>
      <trkpt lat="49.23799" lon="-0.48905">
        <ele>48.6</ele>
        <time>2023-04-28T12:41:56Z</time>
      </trkpt>
      <trkpt lat="49.23793" lon="-0.48909">
        <ele>48.6</ele>
        <time>2023-04-28T12:41:57Z</time>
      </trkpt>
      <trkpt lat="49.23786" lon="-0.48912">
        <ele>48.4</ele>
        <time>2023-04-28T12:41:58Z</time>
      </trkpt>
      <trkpt lat="49.2378" lon="-0.48916">
        <ele>48.4</ele>
        <time>2023-04-28T12:41:59Z</time>
      </trkpt>
      <trkpt lat="49.23774" lon="-0.4892">
        <ele>48.2</ele>
        <time>2023-04-28T12:42:00Z</time>
      </trkpt>
      <trkpt lat="49.23768" lon="-0.48923">
        <ele>48.2</ele>
        <time>2023-04-28T12:42:01Z</time>
      </trkpt>
      <trkpt lat="49.23762" lon="-0.48927">
        <ele>48.2</ele>
        <time>2023-04-28T12:42:02Z</time>
      </trkpt>
      <trkpt lat="49.23755" lon="-0.4893">
        <ele>48</ele>
        <time>2023-04-28T12:42:03Z</time>
      </trkpt>
      <trkpt lat="49.23749" lon="-0.48934">
        <ele>48</ele>
        <time>2023-04-28T12:42:04Z</time>
      </trkpt>
      <trkpt lat="49.23743" lon="-0.48938">
        <ele>48</ele>
        <time>2023-04-28T12:42:05Z</time>
      </trkpt>
      <trkpt lat="49.23737" lon="-0.48941">
        <ele>47.8</ele>
        <time>2023-04-28T12:42:06Z</time>
      </trkpt>
      <trkpt lat="49.23731" lon="-0.48945">
        <ele>47.8</ele>
        <time>2023-04-28T12:42:07Z</time>
      </trkpt>
      <trkpt lat="49.23724" lon="-0.48949">
        <ele>47.8</ele>
        <time>2023-04-28T12:42:08Z</time>
      </trkpt>
      <trkpt lat="49.23718" lon="-0.48952">
        <ele>47.6</ele>
        <time>2023-04-28T12:42:09Z</time>
      </trkpt>
      <trkpt lat="49.23711" lon="-0.48956">
        <ele>47.6</ele>
        <time>2023-04-28T12:42:10Z</time>
      </trkpt>
      <trkpt lat="49.23705" lon="-0.4896">
        <ele>47.6</ele>
        <time>2023-04-28T12:42:11Z</time>
      </trkpt>
      <trkpt lat="49.23698" lon="-0.48964">
        <ele>47.4</ele>
        <time>2023-04-28T12:42:12Z</time>
      </trkpt>
      <trkpt lat="49.23692" lon="-0.48967">
        <ele>47.2</ele>
        <time>2023-04-28T12:42:13Z</time>
      </trkpt>
      <trkpt lat="49.23685" lon="-0.48971">
        <ele>47.2</ele>
        <time>2023-04-28T12:42:14Z</time>
      </trkpt>
      <trkpt lat="49.23679" lon="-0.48975">
        <ele>47</ele>
        <time>2023-04-28T12:42:15Z</time>
      </trkpt>
      <trkpt lat="49.23672" lon="-0.48979">
        <ele>47</ele>
        <time>2023-04-28T12:42:16Z</time>
      </trkpt>
      <trkpt lat="49.23666" lon="-0.48983">
        <ele>47</ele>
        <time>2023-04-28T12:42:17Z</time>
      </trkpt>
      <trkpt lat="49.23659" lon="-0.48986">
        <ele>47</ele>
        <time>2023-04-28T12:42:18Z</time>
      </trkpt>
      <trkpt lat="49.23652" lon="-0.4899">
        <ele>47</ele>
        <time>2023-04-28T12:42:19Z</time>
      </trkpt>
      <trkpt lat="49.23646" lon="-0.48995">
        <ele>47.2</ele>
        <time>2023-04-28T12:42:20Z</time>
      </trkpt>
      <trkpt lat="49.23639" lon="-0.48998">
        <ele>47.2</ele>
        <time>2023-04-28T12:42:21Z</time>
      </trkpt>
      <trkpt lat="49.23633" lon="-0.49002">
        <ele>47.4</ele>
        <time>2023-04-28T12:42:22Z</time>
      </trkpt>
      <trkpt lat="49.23626" lon="-0.49006">
        <ele>47.6</ele>
        <time>2023-04-28T12:42:23Z</time>
      </trkpt>
      <trkpt lat="49.2362" lon="-0.4901">
        <ele>47.6</ele>
        <time>2023-04-28T12:42:24Z</time>
      </trkpt>
      <trkpt lat="49.23613" lon="-0.49014">
        <ele>47.6</ele>
        <time>2023-04-28T12:42:25Z</time>
      </trkpt>
      <trkpt lat="49.23607" lon="-0.49017">
        <ele>47.6</ele>
        <time>2023-04-28T12:42:26Z</time>
      </trkpt>
      <trkpt lat="49.236" lon="-0.49021">
        <ele>47.8</ele>
        <time>2023-04-28T12:42:27Z</time>
      </trkpt>
      <trkpt lat="49.23593" lon="-0.49024">
        <ele>47.8</ele>
        <time>2023-04-28T12:42:28Z</time>
      </trkpt>
      <trkpt lat="49.23587" lon="-0.49028">
        <ele>47.8</ele>
        <time>2023-04-28T12:42:29Z</time>
      </trkpt>
      <trkpt lat="49.2358" lon="-0.49031">
        <ele>47.6</ele>
        <time>2023-04-28T12:42:30Z</time>
      </trkpt>
      <trkpt lat="49.23573" lon="-0.49034">
        <ele>47.6</ele>
        <time>2023-04-28T12:42:31Z</time>
      </trkpt>
      <trkpt lat="49.23567" lon="-0.49037">
        <ele>47.4</ele>
        <time>2023-04-28T12:42:32Z</time>
      </trkpt>
      <trkpt lat="49.2356" lon="-0.49039">
        <ele>47.4</ele>
        <time>2023-04-28T12:42:33Z</time>
      </trkpt>
      <trkpt lat="49.23553" lon="-0.49042">
        <ele>47.2</ele>
        <time>2023-04-28T12:42:34Z</time>
      </trkpt>
      <trkpt lat="49.23547" lon="-0.49045">
        <ele>47.2</ele>
        <time>2023-04-28T12:42:35Z</time>
      </trkpt>
      <trkpt lat="49.2354" lon="-0.49047">
        <ele>47.2</ele>
        <time>2023-04-28T12:42:36Z</time>
      </trkpt>
      <trkpt lat="49.23534" lon="-0.4905">
        <ele>47.2</ele>
        <time>2023-04-28T12:42:37Z</time>
      </trkpt>
      <trkpt lat="49.23528" lon="-0.49052">
        <ele>47</ele>
        <time>2023-04-28T12:42:38Z</time>
      </trkpt>
      <trkpt lat="49.23521" lon="-0.49055">
        <ele>47</ele>
        <time>2023-04-28T12:42:39Z</time>
      </trkpt>
      <trkpt lat="49.23515" lon="-0.49057">
        <ele>47</ele>
        <time>2023-04-28T12:42:40Z</time>
      </trkpt>
      <trkpt lat="49.23509" lon="-0.4906">
        <ele>47</ele>
        <time>2023-04-28T12:42:41Z</time>
      </trkpt>
      <trkpt lat="49.23503" lon="-0.49062">
        <ele>47</ele>
        <time>2023-04-28T12:42:42Z</time>
      </trkpt>
      <trkpt lat="49.23497" lon="-0.49064">
        <ele>47</ele>
        <time>2023-04-28T12:42:43Z</time>
      </trkpt>
      <trkpt lat="49.23491" lon="-0.49067">
        <ele>47</ele>
        <time>2023-04-28T12:42:44Z</time>
      </trkpt>
      <trkpt lat="49.23485" lon="-0.49069">
        <ele>47</ele>
        <time>2023-04-28T12:42:45Z</time>
      </trkpt>
      <trkpt lat="49.23479" lon="-0.49072">
        <ele>47</ele>
        <time>2023-04-28T12:42:46Z</time>
      </trkpt>
      <trkpt lat="49.23473" lon="-0.49074">
        <ele>47</ele>
        <time>2023-04-28T12:42:47Z</time>
      </trkpt>
      <trkpt lat="49.23468" lon="-0.49076">
        <ele>47</ele>
        <time>2023-04-28T12:42:48Z</time>
      </trkpt>
      <trkpt lat="49.23462" lon="-0.49078">
        <ele>47</ele>
        <time>2023-04-28T12:42:49Z</time>
      </trkpt>
      <trkpt lat="49.23456" lon="-0.4908">
        <ele>47</ele>
        <time>2023-04-28T12:42:50Z</time>
      </trkpt>
      <trkpt lat="49.23451" lon="-0.49082">
        <ele>47</ele>
        <time>2023-04-28T12:42:51Z</time>
      </trkpt>
      <trkpt lat="49.23445" lon="-0.49085">
        <ele>47</ele>
        <time>2023-04-28T12:42:52Z</time>
      </trkpt>
      <trkpt lat="49.23439" lon="-0.49087">
        <ele>47</ele>
        <time>2023-04-28T12:42:53Z</time>
      </trkpt>
      <trkpt lat="49.23433" lon="-0.49089">
        <ele>47.2</ele>
        <time>2023-04-28T12:42:54Z</time>
      </trkpt>
      <trkpt lat="49.23427" lon="-0.49091">
        <ele>47.2</ele>
        <time>2023-04-28T12:42:55Z</time>
      </trkpt>
      <trkpt lat="49.23421" lon="-0.49094">
        <ele>47.4</ele>
        <time>2023-04-28T12:42:56Z</time>
      </trkpt>
      <trkpt lat="49.23415" lon="-0.49096">
        <ele>47.6</ele>
        <time>2023-04-28T12:42:57Z</time>
      </trkpt>
      <trkpt lat="49.23409" lon="-0.49098">
        <ele>47.6</ele>
        <time>2023-04-28T12:42:58Z</time>
      </trkpt>
      <trkpt lat="49.23403" lon="-0.49101">
        <ele>47.8</ele>
        <time>2023-04-28T12:42:59Z</time>
      </trkpt>
      <trkpt lat="49.23397" lon="-0.49103">
        <ele>47.8</ele>
        <time>2023-04-28T12:43:00Z</time>
      </trkpt>
      <trkpt lat="49.23391" lon="-0.49105">
        <ele>48</ele>
        <time>2023-04-28T12:43:01Z</time>
      </trkpt>
      <trkpt lat="49.23385" lon="-0.49108">
        <ele>48</ele>
        <time>2023-04-28T12:43:02Z</time>
      </trkpt>
      <trkpt lat="49.23379" lon="-0.4911">
        <ele>48</ele>
        <time>2023-04-28T12:43:03Z</time>
      </trkpt>
      <trkpt lat="49.23373" lon="-0.49113">
        <ele>48</ele>
        <time>2023-04-28T12:43:04Z</time>
      </trkpt>
      <trkpt lat="49.23367" lon="-0.49115">
        <ele>48</ele>
        <time>2023-04-28T12:43:05Z</time>
      </trkpt>
      <trkpt lat="49.23361" lon="-0.49117">
        <ele>48</ele>
        <time>2023-04-28T12:43:06Z</time>
      </trkpt>
      <trkpt lat="49.23355" lon="-0.4912">
        <ele>48</ele>
        <time>2023-04-28T12:43:07Z</time>
      </trkpt>
      <trkpt lat="49.2335" lon="-0.49122">
        <ele>48</ele>
        <time>2023-04-28T12:43:08Z</time>
      </trkpt>
      <trkpt lat="49.23344" lon="-0.49124">
        <ele>48</ele>
        <time>2023-04-28T12:43:09Z</time>
      </trkpt>
      <trkpt lat="49.23338" lon="-0.49127">
        <ele>48</ele>
        <time>2023-04-28T12:43:10Z</time>
      </trkpt>
      <trkpt lat="49.23332" lon="-0.49129">
        <ele>48</ele>
        <time>2023-04-28T12:43:11Z</time>
      </trkpt>
      <trkpt lat="49.23326" lon="-0.49132">
        <ele>48</ele>
        <time>2023-04-28T12:43:12Z</time>
      </trkpt>
      <trkpt lat="49.2332" lon="-0.49134">
        <ele>48.2</ele>
        <time>2023-04-28T12:43:13Z</time>
      </trkpt>
      <trkpt lat="49.23314" lon="-0.49137">
        <ele>48.2</ele>
        <time>2023-04-28T12:43:14Z</time>
      </trkpt>
      <trkpt lat="49.23308" lon="-0.49139">
        <ele>48.2</ele>
        <time>2023-04-28T12:43:15Z</time>
      </trkpt>
      <trkpt lat="49.23302" lon="-0.49141">
        <ele>48.4</ele>
        <time>2023-04-28T12:43:16Z</time>
      </trkpt>
      <trkpt lat="49.23296" lon="-0.49144">
        <ele>48.4</ele>
        <time>2023-04-28T12:43:17Z</time>
      </trkpt>
      <trkpt lat="49.23291" lon="-0.49146">
        <ele>48.6</ele>
        <time>2023-04-28T12:43:18Z</time>
      </trkpt>
      <trkpt lat="49.23285" lon="-0.49148">
        <ele>48.6</ele>
        <time>2023-04-28T12:43:19Z</time>
      </trkpt>
      <trkpt lat="49.23279" lon="-0.49151">
        <ele>48.8</ele>
        <time>2023-04-28T12:43:20Z</time>
      </trkpt>
      <trkpt lat="49.23273" lon="-0.49153">
        <ele>48.8</ele>
        <time>2023-04-28T12:43:21Z</time>
      </trkpt>
      <trkpt lat="49.23267" lon="-0.49156">
        <ele>48.8</ele>
        <time>2023-04-28T12:43:22Z</time>
      </trkpt>
      <trkpt lat="49.23262" lon="-0.49158">
        <ele>49</ele>
        <time>2023-04-28T12:43:23Z</time>
      </trkpt>
      <trkpt lat="49.23256" lon="-0.4916">
        <ele>49</ele>
        <time>2023-04-28T12:43:24Z</time>
      </trkpt>
      <trkpt lat="49.2325" lon="-0.49163">
        <ele>49</ele>
        <time>2023-04-28T12:43:25Z</time>
      </trkpt>
      <trkpt lat="49.23245" lon="-0.49165">
        <ele>49</ele>
        <time>2023-04-28T12:43:26Z</time>
      </trkpt>
      <trkpt lat="49.23239" lon="-0.49167">
        <ele>49.2</ele>
        <time>2023-04-28T12:43:27Z</time>
      </trkpt>
      <trkpt lat="49.23233" lon="-0.4917">
        <ele>49.4</ele>
        <time>2023-04-28T12:43:28Z</time>
      </trkpt>
      <trkpt lat="49.23228" lon="-0.49172">
        <ele>49.6</ele>
        <time>2023-04-28T12:43:29Z</time>
      </trkpt>
      <trkpt lat="49.23222" lon="-0.49174">
        <ele>49.8</ele>
        <time>2023-04-28T12:43:30Z</time>
      </trkpt>
      <trkpt lat="49.23216" lon="-0.49176">
        <ele>49.8</ele>
        <time>2023-04-28T12:43:31Z</time>
      </trkpt>
      <trkpt lat="49.23211" lon="-0.49179">
        <ele>50</ele>
        <time>2023-04-28T12:43:32Z</time>
      </trkpt>
      <trkpt lat="49.23205" lon="-0.49181">
        <ele>50</ele>
        <time>2023-04-28T12:43:33Z</time>
      </trkpt>
      <trkpt lat="49.232" lon="-0.49183">
        <ele>50.2</ele>
        <time>2023-04-28T12:43:34Z</time>
      </trkpt>
      <trkpt lat="49.23194" lon="-0.49186">
        <ele>50.2</ele>
        <time>2023-04-28T12:43:35Z</time>
      </trkpt>
      <trkpt lat="49.23188" lon="-0.49188">
        <ele>50.6</ele>
        <time>2023-04-28T12:43:36Z</time>
      </trkpt>
      <trkpt lat="49.23182" lon="-0.4919">
        <ele>50.6</ele>
        <time>2023-04-28T12:43:37Z</time>
      </trkpt>
      <trkpt lat="49.23177" lon="-0.49193">
        <ele>50.8</ele>
        <time>2023-04-28T12:43:38Z</time>
      </trkpt>
      <trkpt lat="49.2317" lon="-0.49196">
        <ele>51</ele>
        <time>2023-04-28T12:43:39Z</time>
      </trkpt>
      <trkpt lat="49.23164" lon="-0.49198">
        <ele>51</ele>
        <time>2023-04-28T12:43:40Z</time>
      </trkpt>
      <trkpt lat="49.23158" lon="-0.49201">
        <ele>51</ele>
        <time>2023-04-28T12:43:41Z</time>
      </trkpt>
      <trkpt lat="49.23151" lon="-0.49204">
        <ele>51</ele>
        <time>2023-04-28T12:43:42Z</time>
      </trkpt>
      <trkpt lat="49.23145" lon="-0.49206">
        <ele>51</ele>
        <time>2023-04-28T12:43:43Z</time>
      </trkpt>
      <trkpt lat="49.23139" lon="-0.49209">
        <ele>51.2</ele>
        <time>2023-04-28T12:43:44Z</time>
      </trkpt>
      <trkpt lat="49.23133" lon="-0.49211">
        <ele>51.2</ele>
        <time>2023-04-28T12:43:45Z</time>
      </trkpt>
      <trkpt lat="49.23127" lon="-0.49213">
        <ele>51.2</ele>
        <time>2023-04-28T12:43:46Z</time>
      </trkpt>
      <trkpt lat="49.23121" lon="-0.49216">
        <ele>51.2</ele>
        <time>2023-04-28T12:43:47Z</time>
      </trkpt>
      <trkpt lat="49.23115" lon="-0.49218">
        <ele>51.2</ele>
        <time>2023-04-28T12:43:48Z</time>
      </trkpt>
      <trkpt lat="49.2311" lon="-0.4922">
        <ele>51.2</ele>
        <time>2023-04-28T12:43:49Z</time>
      </trkpt>
      <trkpt lat="49.23104" lon="-0.49223">
        <ele>51.2</ele>
        <time>2023-04-28T12:43:50Z</time>
      </trkpt>
      <trkpt lat="49.23097" lon="-0.49226">
        <ele>51.2</ele>
        <time>2023-04-28T12:43:51Z</time>
      </trkpt>
      <trkpt lat="49.23091" lon="-0.49228">
        <ele>51.2</ele>
        <time>2023-04-28T12:43:52Z</time>
      </trkpt>
      <trkpt lat="49.23085" lon="-0.4923">
        <ele>51.2</ele>
        <time>2023-04-28T12:43:53Z</time>
      </trkpt>
      <trkpt lat="49.23079" lon="-0.49233">
        <ele>51</ele>
        <time>2023-04-28T12:43:54Z</time>
      </trkpt>
      <trkpt lat="49.23073" lon="-0.49236">
        <ele>51</ele>
        <time>2023-04-28T12:43:55Z</time>
      </trkpt>
      <trkpt lat="49.23067" lon="-0.49238">
        <ele>51</ele>
        <time>2023-04-28T12:43:56Z</time>
      </trkpt>
      <trkpt lat="49.23061" lon="-0.4924">
        <ele>50.8</ele>
        <time>2023-04-28T12:43:57Z</time>
      </trkpt>
      <trkpt lat="49.23055" lon="-0.49243">
        <ele>50.8</ele>
        <time>2023-04-28T12:43:58Z</time>
      </trkpt>
      <trkpt lat="49.23048" lon="-0.49246">
        <ele>50.6</ele>
        <time>2023-04-28T12:43:59Z</time>
      </trkpt>
      <trkpt lat="49.23042" lon="-0.49248">
        <ele>50.6</ele>
        <time>2023-04-28T12:44:00Z</time>
      </trkpt>
      <trkpt lat="49.23036" lon="-0.49251">
        <ele>50.4</ele>
        <time>2023-04-28T12:44:01Z</time>
      </trkpt>
      <trkpt lat="49.2303" lon="-0.49253">
        <ele>50.4</ele>
        <time>2023-04-28T12:44:02Z</time>
      </trkpt>
      <trkpt lat="49.23024" lon="-0.49255">
        <ele>50.2</ele>
        <time>2023-04-28T12:44:03Z</time>
      </trkpt>
      <trkpt lat="49.23018" lon="-0.49258">
        <ele>50.2</ele>
        <time>2023-04-28T12:44:04Z</time>
      </trkpt>
      <trkpt lat="49.23012" lon="-0.4926">
        <ele>50.2</ele>
        <time>2023-04-28T12:44:05Z</time>
      </trkpt>
      <trkpt lat="49.23006" lon="-0.49263">
        <ele>50</ele>
        <time>2023-04-28T12:44:06Z</time>
      </trkpt>
      <trkpt lat="49.23" lon="-0.49265">
        <ele>50</ele>
        <time>2023-04-28T12:44:07Z</time>
      </trkpt>
      <trkpt lat="49.22994" lon="-0.49268">
        <ele>50</ele>
        <time>2023-04-28T12:44:08Z</time>
      </trkpt>
      <trkpt lat="49.22988" lon="-0.4927">
        <ele>49.8</ele>
        <time>2023-04-28T12:44:09Z</time>
      </trkpt>
      <trkpt lat="49.22982" lon="-0.49273">
        <ele>49.8</ele>
        <time>2023-04-28T12:44:10Z</time>
      </trkpt>
      <trkpt lat="49.22976" lon="-0.49276">
        <ele>49.6</ele>
        <time>2023-04-28T12:44:11Z</time>
      </trkpt>
      <trkpt lat="49.2297" lon="-0.49278">
        <ele>49.6</ele>
        <time>2023-04-28T12:44:12Z</time>
      </trkpt>
      <trkpt lat="49.22964" lon="-0.49281">
        <ele>49.6</ele>
        <time>2023-04-28T12:44:13Z</time>
      </trkpt>
      <trkpt lat="49.22957" lon="-0.49284">
        <ele>49.4</ele>
        <time>2023-04-28T12:44:14Z</time>
      </trkpt>
      <trkpt lat="49.22951" lon="-0.49287">
        <ele>49.2</ele>
        <time>2023-04-28T12:44:15Z</time>
      </trkpt>
      <trkpt lat="49.22945" lon="-0.4929">
        <ele>49.2</ele>
        <time>2023-04-28T12:44:16Z</time>
      </trkpt>
      <trkpt lat="49.22938" lon="-0.49293">
        <ele>49.2</ele>
        <time>2023-04-28T12:44:17Z</time>
      </trkpt>
      <trkpt lat="49.22932" lon="-0.49297">
        <ele>49.2</ele>
        <time>2023-04-28T12:44:18Z</time>
      </trkpt>
      <trkpt lat="49.22925" lon="-0.493">
        <ele>49.2</ele>
        <time>2023-04-28T12:44:19Z</time>
      </trkpt>
      <trkpt lat="49.22919" lon="-0.49303">
        <ele>49.2</ele>
        <time>2023-04-28T12:44:20Z</time>
      </trkpt>
      <trkpt lat="49.22912" lon="-0.49307">
        <ele>49.2</ele>
        <time>2023-04-28T12:44:21Z</time>
      </trkpt>
      <trkpt lat="49.22906" lon="-0.4931">
        <ele>49</ele>
        <time>2023-04-28T12:44:22Z</time>
      </trkpt>
      <trkpt lat="49.229" lon="-0.49313">
        <ele>49</ele>
        <time>2023-04-28T12:44:23Z</time>
      </trkpt>
      <trkpt lat="49.22893" lon="-0.49317">
        <ele>48.8</ele>
        <time>2023-04-28T12:44:24Z</time>
      </trkpt>
      <trkpt lat="49.22887" lon="-0.49321">
        <ele>48.8</ele>
        <time>2023-04-28T12:44:25Z</time>
      </trkpt>
      <trkpt lat="49.22881" lon="-0.49325">
        <ele>48.6</ele>
        <time>2023-04-28T12:44:26Z</time>
      </trkpt>
      <trkpt lat="49.22874" lon="-0.49329">
        <ele>48.4</ele>
        <time>2023-04-28T12:44:27Z</time>
      </trkpt>
      <trkpt lat="49.22868" lon="-0.49333">
        <ele>48.2</ele>
        <time>2023-04-28T12:44:28Z</time>
      </trkpt>
      <trkpt lat="49.22862" lon="-0.49337">
        <ele>48</ele>
        <time>2023-04-28T12:44:29Z</time>
      </trkpt>
      <trkpt lat="49.22857" lon="-0.49341">
        <ele>48</ele>
        <time>2023-04-28T12:44:30Z</time>
      </trkpt>
      <trkpt lat="49.22851" lon="-0.49345">
        <ele>48</ele>
        <time>2023-04-28T12:44:31Z</time>
      </trkpt>
      <trkpt lat="49.22845" lon="-0.49349">
        <ele>47.8</ele>
        <time>2023-04-28T12:44:32Z</time>
      </trkpt>
      <trkpt lat="49.2284" lon="-0.49354">
        <ele>47.8</ele>
        <time>2023-04-28T12:44:33Z</time>
      </trkpt>
      <trkpt lat="49.22834" lon="-0.49358">
        <ele>47.6</ele>
        <time>2023-04-28T12:44:34Z</time>
      </trkpt>
      <trkpt lat="49.22829" lon="-0.49362">
        <ele>47.6</ele>
        <time>2023-04-28T12:44:35Z</time>
      </trkpt>
      <trkpt lat="49.22823" lon="-0.49367">
        <ele>47.8</ele>
        <time>2023-04-28T12:44:36Z</time>
      </trkpt>
      <trkpt lat="49.22818" lon="-0.49371">
        <ele>47.8</ele>
        <time>2023-04-28T12:44:37Z</time>
      </trkpt>
      <trkpt lat="49.22813" lon="-0.49374">
        <ele>47.8</ele>
        <time>2023-04-28T12:44:38Z</time>
      </trkpt>
      <trkpt lat="49.22807" lon="-0.49376">
        <ele>47.8</ele>
        <time>2023-04-28T12:44:39Z</time>
      </trkpt>
      <trkpt lat="49.22802" lon="-0.49375">
        <ele>47.6</ele>
        <time>2023-04-28T12:44:40Z</time>
      </trkpt>
      <trkpt lat="49.22796" lon="-0.49371">
        <ele>47.6</ele>
        <time>2023-04-28T12:44:41Z</time>
      </trkpt>
      <trkpt lat="49.22791" lon="-0.49364">
        <ele>47.2</ele>
        <time>2023-04-28T12:44:42Z</time>
      </trkpt>
      <trkpt lat="49.22787" lon="-0.49356">
        <ele>47</ele>
        <time>2023-04-28T12:44:43Z</time>
      </trkpt>
      <trkpt lat="49.22783" lon="-0.49347">
        <ele>46.8</ele>
        <time>2023-04-28T12:44:44Z</time>
      </trkpt>
      <trkpt lat="49.22779" lon="-0.49337">
        <ele>46.4</ele>
        <time>2023-04-28T12:44:45Z</time>
      </trkpt>
      <trkpt lat="49.22775" lon="-0.49327">
        <ele>46.2</ele>
        <time>2023-04-28T12:44:46Z</time>
      </trkpt>
      <trkpt lat="49.2277" lon="-0.49317">
        <ele>46.2</ele>
        <time>2023-04-28T12:44:47Z</time>
      </trkpt>
      <trkpt lat="49.22766" lon="-0.49308">
        <ele>46</ele>
        <time>2023-04-28T12:44:48Z</time>
      </trkpt>
      <trkpt lat="49.2276" lon="-0.49298">
        <ele>46</ele>
        <time>2023-04-28T12:44:49Z</time>
      </trkpt>
      <trkpt lat="49.22754" lon="-0.4929">
        <ele>46</ele>
        <time>2023-04-28T12:44:50Z</time>
      </trkpt>
      <trkpt lat="49.22749" lon="-0.49282">
        <ele>46</ele>
        <time>2023-04-28T12:44:51Z</time>
      </trkpt>
      <trkpt lat="49.22742" lon="-0.49275">
        <ele>46</ele>
        <time>2023-04-28T12:44:52Z</time>
      </trkpt>
      <trkpt lat="49.22736" lon="-0.49268">
        <ele>46</ele>
        <time>2023-04-28T12:44:53Z</time>
      </trkpt>
      <trkpt lat="49.22729" lon="-0.49261">
        <ele>46</ele>
        <time>2023-04-28T12:44:54Z</time>
      </trkpt>
      <trkpt lat="49.22723" lon="-0.49253">
        <ele>46</ele>
        <time>2023-04-28T12:44:55Z</time>
      </trkpt>
      <trkpt lat="49.22717" lon="-0.49245">
        <ele>46</ele>
        <time>2023-04-28T12:44:56Z</time>
      </trkpt>
      <trkpt lat="49.22712" lon="-0.49236">
        <ele>46</ele>
        <time>2023-04-28T12:44:57Z</time>
      </trkpt>
      <trkpt lat="49.22708" lon="-0.49227">
        <ele>46</ele>
        <time>2023-04-28T12:44:58Z</time>
      </trkpt>
      <trkpt lat="49.22704" lon="-0.49217">
        <ele>46.2</ele>
        <time>2023-04-28T12:44:59Z</time>
      </trkpt>
      <trkpt lat="49.22701" lon="-0.49208">
        <ele>46.2</ele>
        <time>2023-04-28T12:45:00Z</time>
      </trkpt>
      <trkpt lat="49.22698" lon="-0.49197">
        <ele>46.4</ele>
        <time>2023-04-28T12:45:01Z</time>
      </trkpt>
      <trkpt lat="49.22695" lon="-0.49187">
        <ele>46.6</ele>
        <time>2023-04-28T12:45:02Z</time>
      </trkpt>
      <trkpt lat="49.22692" lon="-0.49177">
        <ele>46.6</ele>
        <time>2023-04-28T12:45:03Z</time>
      </trkpt>
      <trkpt lat="49.22689" lon="-0.49167">
        <ele>46.8</ele>
        <time>2023-04-28T12:45:04Z</time>
      </trkpt>
      <trkpt lat="49.22686" lon="-0.49156">
        <ele>46.8</ele>
        <time>2023-04-28T12:45:05Z</time>
      </trkpt>
      <trkpt lat="49.22683" lon="-0.49147">
        <ele>46.8</ele>
        <time>2023-04-28T12:45:06Z</time>
      </trkpt>
      <trkpt lat="49.22679" lon="-0.49137">
        <ele>46.8</ele>
        <time>2023-04-28T12:45:07Z</time>
      </trkpt>
      <trkpt lat="49.22676" lon="-0.49127">
        <ele>47</ele>
        <time>2023-04-28T12:45:08Z</time>
      </trkpt>
      <trkpt lat="49.22672" lon="-0.49118">
        <ele>47</ele>
        <time>2023-04-28T12:45:09Z</time>
      </trkpt>
      <trkpt lat="49.22668" lon="-0.49108">
        <ele>47</ele>
        <time>2023-04-28T12:45:10Z</time>
      </trkpt>
      <trkpt lat="49.22664" lon="-0.49098">
        <ele>47</ele>
        <time>2023-04-28T12:45:11Z</time>
      </trkpt>
      <trkpt lat="49.22661" lon="-0.49089">
        <ele>47</ele>
        <time>2023-04-28T12:45:12Z</time>
      </trkpt>
      <trkpt lat="49.22658" lon="-0.49079">
        <ele>47</ele>
        <time>2023-04-28T12:45:13Z</time>
      </trkpt>
      <trkpt lat="49.22656" lon="-0.49069">
        <ele>47</ele>
        <time>2023-04-28T12:45:14Z</time>
      </trkpt>
      <trkpt lat="49.22655" lon="-0.49059">
        <ele>47</ele>
        <time>2023-04-28T12:45:15Z</time>
      </trkpt>
      <trkpt lat="49.22654" lon="-0.49049">
        <ele>47.2</ele>
        <time>2023-04-28T12:45:16Z</time>
      </trkpt>
      <trkpt lat="49.22653" lon="-0.49039">
        <ele>47.2</ele>
        <time>2023-04-28T12:45:17Z</time>
      </trkpt>
      <trkpt lat="49.22653" lon="-0.49029">
        <ele>47.2</ele>
        <time>2023-04-28T12:45:18Z</time>
      </trkpt>
      <trkpt lat="49.22652" lon="-0.4902">
        <ele>47.2</ele>
        <time>2023-04-28T12:45:19Z</time>
      </trkpt>
      <trkpt lat="49.22652" lon="-0.4901">
        <ele>47.2</ele>
        <time>2023-04-28T12:45:20Z</time>
      </trkpt>
      <trkpt lat="49.22651" lon="-0.49001">
        <ele>47.2</ele>
        <time>2023-04-28T12:45:21Z</time>
      </trkpt>
      <trkpt lat="49.22651" lon="-0.48992">
        <ele>47.4</ele>
        <time>2023-04-28T12:45:22Z</time>
      </trkpt>
      <trkpt lat="49.22651" lon="-0.48982">
        <ele>47.6</ele>
        <time>2023-04-28T12:45:23Z</time>
      </trkpt>
      <trkpt lat="49.22652" lon="-0.48973">
        <ele>47.8</ele>
        <time>2023-04-28T12:45:24Z</time>
      </trkpt>
      <trkpt lat="49.22654" lon="-0.48963">
        <ele>48</ele>
        <time>2023-04-28T12:45:25Z</time>
      </trkpt>
      <trkpt lat="49.22658" lon="-0.48953">
        <ele>48.2</ele>
        <time>2023-04-28T12:45:26Z</time>
      </trkpt>
      <trkpt lat="49.22662" lon="-0.48944">
        <ele>48.4</ele>
        <time>2023-04-28T12:45:27Z</time>
      </trkpt>
      <trkpt lat="49.22668" lon="-0.48936">
        <ele>48.6</ele>
        <time>2023-04-28T12:45:28Z</time>
      </trkpt>
      <trkpt lat="49.22673" lon="-0.48928">
        <ele>48.8</ele>
        <time>2023-04-28T12:45:29Z</time>
      </trkpt>
      <trkpt lat="49.22678" lon="-0.4892">
        <ele>48.8</ele>
        <time>2023-04-28T12:45:30Z</time>
      </trkpt>
      <trkpt lat="49.22684" lon="-0.48913">
        <ele>49</ele>
        <time>2023-04-28T12:45:31Z</time>
      </trkpt>
      <trkpt lat="49.22689" lon="-0.48905">
        <ele>49</ele>
        <time>2023-04-28T12:45:32Z</time>
      </trkpt>
      <trkpt lat="49.22694" lon="-0.48898">
        <ele>49</ele>
        <time>2023-04-28T12:45:33Z</time>
      </trkpt>
      <trkpt lat="49.22699" lon="-0.48891">
        <ele>49</ele>
        <time>2023-04-28T12:45:34Z</time>
      </trkpt>
      <trkpt lat="49.22704" lon="-0.48883">
        <ele>49</ele>
        <time>2023-04-28T12:45:35Z</time>
      </trkpt>
      <trkpt lat="49.22709" lon="-0.48876">
        <ele>49</ele>
        <time>2023-04-28T12:45:36Z</time>
      </trkpt>
      <trkpt lat="49.22714" lon="-0.48869">
        <ele>49</ele>
        <time>2023-04-28T12:45:37Z</time>
      </trkpt>
      <trkpt lat="49.22719" lon="-0.48862">
        <ele>49</ele>
        <time>2023-04-28T12:45:38Z</time>
      </trkpt>
      <trkpt lat="49.22724" lon="-0.48854">
        <ele>48.8</ele>
        <time>2023-04-28T12:45:39Z</time>
      </trkpt>
      <trkpt lat="49.2273" lon="-0.48847">
        <ele>48.8</ele>
        <time>2023-04-28T12:45:40Z</time>
      </trkpt>
      <trkpt lat="49.22735" lon="-0.48839">
        <ele>48.6</ele>
        <time>2023-04-28T12:45:41Z</time>
      </trkpt>
      <trkpt lat="49.22739" lon="-0.48831">
        <ele>48.4</ele>
        <time>2023-04-28T12:45:42Z</time>
      </trkpt>
      <trkpt lat="49.22744" lon="-0.48822">
        <ele>48.2</ele>
        <time>2023-04-28T12:45:43Z</time>
      </trkpt>
      <trkpt lat="49.22749" lon="-0.48814">
        <ele>48.2</ele>
        <time>2023-04-28T12:45:44Z</time>
      </trkpt>
      <trkpt lat="49.22753" lon="-0.48806">
        <ele>48.2</ele>
        <time>2023-04-28T12:45:45Z</time>
      </trkpt>
      <trkpt lat="49.22758" lon="-0.48797">
        <ele>48.2</ele>
        <time>2023-04-28T12:45:46Z</time>
      </trkpt>
      <trkpt lat="49.22763" lon="-0.48789">
        <ele>48.2</ele>
        <time>2023-04-28T12:45:47Z</time>
      </trkpt>
      <trkpt lat="49.22767" lon="-0.48781">
        <ele>48.2</ele>
        <time>2023-04-28T12:45:48Z</time>
      </trkpt>
      <trkpt lat="49.22772" lon="-0.48773">
        <ele>48.2</ele>
        <time>2023-04-28T12:45:49Z</time>
      </trkpt>
      <trkpt lat="49.22777" lon="-0.48765">
        <ele>48.2</ele>
        <time>2023-04-28T12:45:50Z</time>
      </trkpt>
      <trkpt lat="49.22782" lon="-0.48757">
        <ele>48</ele>
        <time>2023-04-28T12:45:51Z</time>
      </trkpt>
      <trkpt lat="49.22787" lon="-0.48749">
        <ele>48</ele>
        <time>2023-04-28T12:45:52Z</time>
      </trkpt>
      <trkpt lat="49.22792" lon="-0.48741">
        <ele>48</ele>
        <time>2023-04-28T12:45:53Z</time>
      </trkpt>
      <trkpt lat="49.22796" lon="-0.48733">
        <ele>47.8</ele>
        <time>2023-04-28T12:45:54Z</time>
      </trkpt>
      <trkpt lat="49.22801" lon="-0.48725">
        <ele>47.8</ele>
        <time>2023-04-28T12:45:55Z</time>
      </trkpt>
      <trkpt lat="49.22805" lon="-0.48716">
        <ele>47.6</ele>
        <time>2023-04-28T12:45:56Z</time>
      </trkpt>
      <trkpt lat="49.2281" lon="-0.48707">
        <ele>47.4</ele>
        <time>2023-04-28T12:45:57Z</time>
      </trkpt>
      <trkpt lat="49.22814" lon="-0.48698">
        <ele>47.2</ele>
        <time>2023-04-28T12:45:58Z</time>
      </trkpt>
      <trkpt lat="49.22818" lon="-0.48689">
        <ele>47.2</ele>
        <time>2023-04-28T12:45:59Z</time>
      </trkpt>
      <trkpt lat="49.22822" lon="-0.4868">
        <ele>47.2</ele>
        <time>2023-04-28T12:46:00Z</time>
      </trkpt>
      <trkpt lat="49.22826" lon="-0.4867">
        <ele>47</ele>
        <time>2023-04-28T12:46:01Z</time>
      </trkpt>
      <trkpt lat="49.2283" lon="-0.4866">
        <ele>47</ele>
        <time>2023-04-28T12:46:02Z</time>
      </trkpt>
      <trkpt lat="49.22833" lon="-0.4865">
        <ele>47</ele>
        <time>2023-04-28T12:46:03Z</time>
      </trkpt>
      <trkpt lat="49.22836" lon="-0.4864">
        <ele>47</ele>
        <time>2023-04-28T12:46:04Z</time>
      </trkpt>
      <trkpt lat="49.22839" lon="-0.48629">
        <ele>47</ele>
        <time>2023-04-28T12:46:05Z</time>
      </trkpt>
      <trkpt lat="49.22842" lon="-0.48619">
        <ele>47</ele>
        <time>2023-04-28T12:46:06Z</time>
      </trkpt>
      <trkpt lat="49.22845" lon="-0.48608">
        <ele>47</ele>
        <time>2023-04-28T12:46:07Z</time>
      </trkpt>
      <trkpt lat="49.22847" lon="-0.48597">
        <ele>47</ele>
        <time>2023-04-28T12:46:08Z</time>
      </trkpt>
      <trkpt lat="49.2285" lon="-0.48586">
        <ele>46.8</ele>
        <time>2023-04-28T12:46:09Z</time>
      </trkpt>
      <trkpt lat="49.22852" lon="-0.48575">
        <ele>46.8</ele>
        <time>2023-04-28T12:46:10Z</time>
      </trkpt>
      <trkpt lat="49.22854" lon="-0.48563">
        <ele>46.6</ele>
        <time>2023-04-28T12:46:11Z</time>
      </trkpt>
      <trkpt lat="49.22855" lon="-0.48552">
        <ele>46.6</ele>
        <time>2023-04-28T12:46:12Z</time>
      </trkpt>
      <trkpt lat="49.22857" lon="-0.48541">
        <ele>46.2</ele>
        <time>2023-04-28T12:46:13Z</time>
      </trkpt>
      <trkpt lat="49.22859" lon="-0.48529">
        <ele>46.2</ele>
        <time>2023-04-28T12:46:14Z</time>
      </trkpt>
      <trkpt lat="49.22861" lon="-0.48518">
        <ele>46</ele>
        <time>2023-04-28T12:46:15Z</time>
      </trkpt>
      <trkpt lat="49.22863" lon="-0.48507">
        <ele>46</ele>
        <time>2023-04-28T12:46:16Z</time>
      </trkpt>
      <trkpt lat="49.22864" lon="-0.48495">
        <ele>46</ele>
        <time>2023-04-28T12:46:17Z</time>
      </trkpt>
      <trkpt lat="49.22865" lon="-0.48484">
        <ele>46.2</ele>
        <time>2023-04-28T12:46:18Z</time>
      </trkpt>
      <trkpt lat="49.22867" lon="-0.48473">
        <ele>46.4</ele>
        <time>2023-04-28T12:46:19Z</time>
      </trkpt>
      <trkpt lat="49.22868" lon="-0.48461">
        <ele>46.6</ele>
        <time>2023-04-28T12:46:20Z</time>
      </trkpt>
      <trkpt lat="49.22869" lon="-0.4845">
        <ele>46.8</ele>
        <time>2023-04-28T12:46:21Z</time>
      </trkpt>
      <trkpt lat="49.2287" lon="-0.48439">
        <ele>46.8</ele>
        <time>2023-04-28T12:46:22Z</time>
      </trkpt>
      <trkpt lat="49.22872" lon="-0.48427">
        <ele>47</ele>
        <time>2023-04-28T12:46:23Z</time>
      </trkpt>
      <trkpt lat="49.22873" lon="-0.48416">
        <ele>47</ele>
        <time>2023-04-28T12:46:24Z</time>
      </trkpt>
      <trkpt lat="49.22874" lon="-0.48405">
        <ele>47.2</ele>
        <time>2023-04-28T12:46:25Z</time>
      </trkpt>
      <trkpt lat="49.22875" lon="-0.48393">
        <ele>47.2</ele>
        <time>2023-04-28T12:46:26Z</time>
      </trkpt>
      <trkpt lat="49.22877" lon="-0.48382">
        <ele>47.4</ele>
        <time>2023-04-28T12:46:27Z</time>
      </trkpt>
      <trkpt lat="49.22878" lon="-0.4837">
        <ele>47.6</ele>
        <time>2023-04-28T12:46:28Z</time>
      </trkpt>
      <trkpt lat="49.2288" lon="-0.48359">
        <ele>47.6</ele>
        <time>2023-04-28T12:46:29Z</time>
      </trkpt>
      <trkpt lat="49.22881" lon="-0.48348">
        <ele>47.8</ele>
        <time>2023-04-28T12:46:30Z</time>
      </trkpt>
      <trkpt lat="49.22883" lon="-0.48337">
        <ele>47.8</ele>
        <time>2023-04-28T12:46:31Z</time>
      </trkpt>
      <trkpt lat="49.22884" lon="-0.48326">
        <ele>48</ele>
        <time>2023-04-28T12:46:32Z</time>
      </trkpt>
      <trkpt lat="49.22887" lon="-0.48315">
        <ele>48</ele>
        <time>2023-04-28T12:46:33Z</time>
      </trkpt>
      <trkpt lat="49.22889" lon="-0.48305">
        <ele>48</ele>
        <time>2023-04-28T12:46:34Z</time>
      </trkpt>
      <trkpt lat="49.22892" lon="-0.48295">
        <ele>48</ele>
        <time>2023-04-28T12:46:35Z</time>
      </trkpt>
      <trkpt lat="49.22896" lon="-0.48287">
        <ele>48</ele>
        <time>2023-04-28T12:46:36Z</time>
      </trkpt>
      <trkpt lat="49.22901" lon="-0.48279">
        <ele>48</ele>
        <time>2023-04-28T12:46:37Z</time>
      </trkpt>
      <trkpt lat="49.22906" lon="-0.48272">
        <ele>48</ele>
        <time>2023-04-28T12:46:38Z</time>
      </trkpt>
      <trkpt lat="49.22912" lon="-0.48266">
        <ele>48</ele>
        <time>2023-04-28T12:46:39Z</time>
      </trkpt>
      <trkpt lat="49.22918" lon="-0.48262">
        <ele>47.8</ele>
        <time>2023-04-28T12:46:40Z</time>
      </trkpt>
      <trkpt lat="49.22924" lon="-0.48257">
        <ele>47.8</ele>
        <time>2023-04-28T12:46:41Z</time>
      </trkpt>
      <trkpt lat="49.2293" lon="-0.48254">
        <ele>47.6</ele>
        <time>2023-04-28T12:46:42Z</time>
      </trkpt>
      <trkpt lat="49.22936" lon="-0.48251">
        <ele>47.6</ele>
        <time>2023-04-28T12:46:43Z</time>
      </trkpt>
      <trkpt lat="49.22943" lon="-0.48248">
        <ele>47.4</ele>
        <time>2023-04-28T12:46:44Z</time>
      </trkpt>
      <trkpt lat="49.22949" lon="-0.48245">
        <ele>47.2</ele>
        <time>2023-04-28T12:46:45Z</time>
      </trkpt>
      <trkpt lat="49.22956" lon="-0.48242">
        <ele>47.2</ele>
        <time>2023-04-28T12:46:46Z</time>
      </trkpt>
      <trkpt lat="49.22962" lon="-0.48239">
        <ele>47</ele>
        <time>2023-04-28T12:46:47Z</time>
      </trkpt>
      <trkpt lat="49.22968" lon="-0.48236">
        <ele>47</ele>
        <time>2023-04-28T12:46:48Z</time>
      </trkpt>
      <trkpt lat="49.22974" lon="-0.48233">
        <ele>47</ele>
        <time>2023-04-28T12:46:49Z</time>
      </trkpt>
      <trkpt lat="49.22981" lon="-0.4823">
        <ele>47</ele>
        <time>2023-04-28T12:46:50Z</time>
      </trkpt>
      <trkpt lat="49.22987" lon="-0.48228">
        <ele>46.8</ele>
        <time>2023-04-28T12:46:51Z</time>
      </trkpt>
      <trkpt lat="49.22994" lon="-0.48226">
        <ele>46.8</ele>
        <time>2023-04-28T12:46:52Z</time>
      </trkpt>
      <trkpt lat="49.23001" lon="-0.48223">
        <ele>46.6</ele>
        <time>2023-04-28T12:46:53Z</time>
      </trkpt>
      <trkpt lat="49.23008" lon="-0.48219">
        <ele>46.6</ele>
        <time>2023-04-28T12:46:54Z</time>
      </trkpt>
      <trkpt lat="49.23015" lon="-0.48214">
        <ele>46.6</ele>
        <time>2023-04-28T12:46:55Z</time>
      </trkpt>
      <trkpt lat="49.23021" lon="-0.48207">
        <ele>46.6</ele>
        <time>2023-04-28T12:46:56Z</time>
      </trkpt>
      <trkpt lat="49.23027" lon="-0.48199">
        <ele>46.8</ele>
        <time>2023-04-28T12:46:57Z</time>
      </trkpt>
      <trkpt lat="49.23032" lon="-0.4819">
        <ele>46.8</ele>
        <time>2023-04-28T12:46:58Z</time>
      </trkpt>
      <trkpt lat="49.23035" lon="-0.48179">
        <ele>47</ele>
        <time>2023-04-28T12:46:59Z</time>
      </trkpt>
      <trkpt lat="49.23038" lon="-0.48167">
        <ele>47</ele>
        <time>2023-04-28T12:47:00Z</time>
      </trkpt>
      <trkpt lat="49.23039" lon="-0.48155">
        <ele>47.2</ele>
        <time>2023-04-28T12:47:01Z</time>
      </trkpt>
      <trkpt lat="49.23041" lon="-0.48143">
        <ele>47.2</ele>
        <time>2023-04-28T12:47:02Z</time>
      </trkpt>
      <trkpt lat="49.23043" lon="-0.48132">
        <ele>47.4</ele>
        <time>2023-04-28T12:47:03Z</time>
      </trkpt>
      <trkpt lat="49.23045" lon="-0.48121">
        <ele>47.6</ele>
        <time>2023-04-28T12:47:04Z</time>
      </trkpt>
      <trkpt lat="49.23046" lon="-0.4811">
        <ele>47.6</ele>
        <time>2023-04-28T12:47:05Z</time>
      </trkpt>
      <trkpt lat="49.23048" lon="-0.481">
        <ele>47.6</ele>
        <time>2023-04-28T12:47:06Z</time>
      </trkpt>
      <trkpt lat="49.2305" lon="-0.4809">
        <ele>47.8</ele>
        <time>2023-04-28T12:47:07Z</time>
      </trkpt>
      <trkpt lat="49.23052" lon="-0.4808">
        <ele>47.8</ele>
        <time>2023-04-28T12:47:08Z</time>
      </trkpt>
      <trkpt lat="49.23054" lon="-0.48071">
        <ele>48</ele>
        <time>2023-04-28T12:47:09Z</time>
      </trkpt>
      <trkpt lat="49.23056" lon="-0.48062">
        <ele>48</ele>
        <time>2023-04-28T12:47:10Z</time>
      </trkpt>
      <trkpt lat="49.23058" lon="-0.48053">
        <ele>48</ele>
        <time>2023-04-28T12:47:11Z</time>
      </trkpt>
      <trkpt lat="49.2306" lon="-0.48045">
        <ele>48</ele>
        <time>2023-04-28T12:47:12Z</time>
      </trkpt>
      <trkpt lat="49.23062" lon="-0.48036">
        <ele>48</ele>
        <time>2023-04-28T12:47:13Z</time>
      </trkpt>
      <trkpt lat="49.23065" lon="-0.48028">
        <ele>48</ele>
        <time>2023-04-28T12:47:14Z</time>
      </trkpt>
      <trkpt lat="49.23067" lon="-0.4802">
        <ele>48.2</ele>
        <time>2023-04-28T12:47:15Z</time>
      </trkpt>
      <trkpt lat="49.23069" lon="-0.48011">
        <ele>48.2</ele>
        <time>2023-04-28T12:47:16Z</time>
      </trkpt>
      <trkpt lat="49.23071" lon="-0.48003">
        <ele>48.2</ele>
        <time>2023-04-28T12:47:17Z</time>
      </trkpt>
      <trkpt lat="49.23074" lon="-0.47995">
        <ele>48.2</ele>
        <time>2023-04-28T12:47:18Z</time>
      </trkpt>
      <trkpt lat="49.23076" lon="-0.47986">
        <ele>48</ele>
        <time>2023-04-28T12:47:19Z</time>
      </trkpt>
      <trkpt lat="49.23078" lon="-0.47977">
        <ele>48</ele>
        <time>2023-04-28T12:47:20Z</time>
      </trkpt>
      <trkpt lat="49.2308" lon="-0.47969">
        <ele>47.8</ele>
        <time>2023-04-28T12:47:21Z</time>
      </trkpt>
      <trkpt lat="49.23082" lon="-0.4796">
        <ele>47.6</ele>
        <time>2023-04-28T12:47:22Z</time>
      </trkpt>
      <trkpt lat="49.23084" lon="-0.47952">
        <ele>47.4</ele>
        <time>2023-04-28T12:47:23Z</time>
      </trkpt>
      <trkpt lat="49.23086" lon="-0.47943">
        <ele>47.2</ele>
        <time>2023-04-28T12:47:24Z</time>
      </trkpt>
      <trkpt lat="49.23087" lon="-0.47935">
        <ele>47.2</ele>
        <time>2023-04-28T12:47:25Z</time>
      </trkpt>
      <trkpt lat="49.23089" lon="-0.47926">
        <ele>47</ele>
        <time>2023-04-28T12:47:26Z</time>
      </trkpt>
      <trkpt lat="49.23091" lon="-0.47917">
        <ele>47</ele>
        <time>2023-04-28T12:47:27Z</time>
      </trkpt>
      <trkpt lat="49.23092" lon="-0.47909">
        <ele>47</ele>
        <time>2023-04-28T12:47:28Z</time>
      </trkpt>
      <trkpt lat="49.23094" lon="-0.479">
        <ele>47</ele>
        <time>2023-04-28T12:47:29Z</time>
      </trkpt>
      <trkpt lat="49.23096" lon="-0.47891">
        <ele>47.2</ele>
        <time>2023-04-28T12:47:30Z</time>
      </trkpt>
      <trkpt lat="49.23097" lon="-0.47882">
        <ele>47.2</ele>
        <time>2023-04-28T12:47:31Z</time>
      </trkpt>
      <trkpt lat="49.23099" lon="-0.47873">
        <ele>47.2</ele>
        <time>2023-04-28T12:47:32Z</time>
      </trkpt>
      <trkpt lat="49.23101" lon="-0.47864">
        <ele>47.4</ele>
        <time>2023-04-28T12:47:33Z</time>
      </trkpt>
      <trkpt lat="49.23102" lon="-0.47855">
        <ele>47.6</ele>
        <time>2023-04-28T12:47:34Z</time>
      </trkpt>
      <trkpt lat="49.23104" lon="-0.47845">
        <ele>47.6</ele>
        <time>2023-04-28T12:47:35Z</time>
      </trkpt>
      <trkpt lat="49.23106" lon="-0.47836">
        <ele>47.8</ele>
        <time>2023-04-28T12:47:36Z</time>
      </trkpt>
      <trkpt lat="49.23108" lon="-0.47827">
        <ele>47.8</ele>
        <time>2023-04-28T12:47:37Z</time>
      </trkpt>
      <trkpt lat="49.2311" lon="-0.47818">
        <ele>47.8</ele>
        <time>2023-04-28T12:47:38Z</time>
      </trkpt>
      <trkpt lat="49.23111" lon="-0.47808">
        <ele>48</ele>
        <time>2023-04-28T12:47:39Z</time>
      </trkpt>
      <trkpt lat="49.23113" lon="-0.47799">
        <ele>48</ele>
        <time>2023-04-28T12:47:40Z</time>
      </trkpt>
      <trkpt lat="49.23114" lon="-0.47789">
        <ele>48</ele>
        <time>2023-04-28T12:47:41Z</time>
      </trkpt>
      <trkpt lat="49.23116" lon="-0.4778">
        <ele>48</ele>
        <time>2023-04-28T12:47:42Z</time>
      </trkpt>
      <trkpt lat="49.23117" lon="-0.47771">
        <ele>48</ele>
        <time>2023-04-28T12:47:43Z</time>
      </trkpt>
      <trkpt lat="49.23118" lon="-0.47761">
        <ele>48</ele>
        <time>2023-04-28T12:47:44Z</time>
      </trkpt>
      <trkpt lat="49.23119" lon="-0.47752">
        <ele>48</ele>
        <time>2023-04-28T12:47:45Z</time>
      </trkpt>
      <trkpt lat="49.2312" lon="-0.47743">
        <ele>48.2</ele>
        <time>2023-04-28T12:47:46Z</time>
      </trkpt>
      <trkpt lat="49.23121" lon="-0.47733">
        <ele>48.2</ele>
        <time>2023-04-28T12:47:47Z</time>
      </trkpt>
      <trkpt lat="49.23122" lon="-0.47724">
        <ele>48.2</ele>
        <time>2023-04-28T12:47:48Z</time>
      </trkpt>
      <trkpt lat="49.23123" lon="-0.47715">
        <ele>48.2</ele>
        <time>2023-04-28T12:47:49Z</time>
      </trkpt>
      <trkpt lat="49.23124" lon="-0.47705">
        <ele>48.2</ele>
        <time>2023-04-28T12:47:50Z</time>
      </trkpt>
      <trkpt lat="49.23124" lon="-0.47696">
        <ele>48.2</ele>
        <time>2023-04-28T12:47:51Z</time>
      </trkpt>
      <trkpt lat="49.23125" lon="-0.47686">
        <ele>48.4</ele>
        <time>2023-04-28T12:47:52Z</time>
      </trkpt>
      <trkpt lat="49.23126" lon="-0.47677">
        <ele>48.4</ele>
        <time>2023-04-28T12:47:53Z</time>
      </trkpt>
      <trkpt lat="49.23127" lon="-0.47667">
        <ele>48.4</ele>
        <time>2023-04-28T12:47:54Z</time>
      </trkpt>
      <trkpt lat="49.23127" lon="-0.47658">
        <ele>48.6</ele>
        <time>2023-04-28T12:47:55Z</time>
      </trkpt>
      <trkpt lat="49.23128" lon="-0.47648">
        <ele>48.6</ele>
        <time>2023-04-28T12:47:56Z</time>
      </trkpt>
      <trkpt lat="49.23128" lon="-0.47638">
        <ele>48.8</ele>
        <time>2023-04-28T12:47:57Z</time>
      </trkpt>
      <trkpt lat="49.23129" lon="-0.47628">
        <ele>48.8</ele>
        <time>2023-04-28T12:47:58Z</time>
      </trkpt>
      <trkpt lat="49.23129" lon="-0.47618">
        <ele>49</ele>
        <time>2023-04-28T12:47:59Z</time>
      </trkpt>
      <trkpt lat="49.2313" lon="-0.47608">
        <ele>49</ele>
        <time>2023-04-28T12:48:00Z</time>
      </trkpt>
      <trkpt lat="49.23131" lon="-0.47598">
        <ele>49</ele>
        <time>2023-04-28T12:48:01Z</time>
      </trkpt>
      <trkpt lat="49.23131" lon="-0.47588">
        <ele>49.2</ele>
        <time>2023-04-28T12:48:02Z</time>
      </trkpt>
      <trkpt lat="49.23132" lon="-0.47578">
        <ele>49.2</ele>
        <time>2023-04-28T12:48:03Z</time>
      </trkpt>
      <trkpt lat="49.23133" lon="-0.47568">
        <ele>49.2</ele>
        <time>2023-04-28T12:48:04Z</time>
      </trkpt>
      <trkpt lat="49.23133" lon="-0.47557">
        <ele>49.2</ele>
        <time>2023-04-28T12:48:05Z</time>
      </trkpt>
      <trkpt lat="49.23134" lon="-0.47547">
        <ele>49.2</ele>
        <time>2023-04-28T12:48:06Z</time>
      </trkpt>
      <trkpt lat="49.23135" lon="-0.47536">
        <ele>49.2</ele>
        <time>2023-04-28T12:48:07Z</time>
      </trkpt>
      <trkpt lat="49.23135" lon="-0.47526">
        <ele>49.2</ele>
        <time>2023-04-28T12:48:08Z</time>
      </trkpt>
      <trkpt lat="49.23136" lon="-0.47515">
        <ele>49.2</ele>
        <time>2023-04-28T12:48:09Z</time>
      </trkpt>
      <trkpt lat="49.23137" lon="-0.47505">
        <ele>49.2</ele>
        <time>2023-04-28T12:48:10Z</time>
      </trkpt>
      <trkpt lat="49.23138" lon="-0.47495">
        <ele>49.4</ele>
        <time>2023-04-28T12:48:11Z</time>
      </trkpt>
      <trkpt lat="49.23138" lon="-0.47485">
        <ele>49.6</ele>
        <time>2023-04-28T12:48:12Z</time>
      </trkpt>
      <trkpt lat="49.23139" lon="-0.47474">
        <ele>49.6</ele>
        <time>2023-04-28T12:48:13Z</time>
      </trkpt>
      <trkpt lat="49.2314" lon="-0.47464">
        <ele>49.8</ele>
        <time>2023-04-28T12:48:14Z</time>
      </trkpt>
      <trkpt lat="49.2314" lon="-0.47454">
        <ele>50</ele>
        <time>2023-04-28T12:48:15Z</time>
      </trkpt>
      <trkpt lat="49.23141" lon="-0.47444">
        <ele>50</ele>
        <time>2023-04-28T12:48:16Z</time>
      </trkpt>
      <trkpt lat="49.23142" lon="-0.47434">
        <ele>50</ele>
        <time>2023-04-28T12:48:17Z</time>
      </trkpt>
      <trkpt lat="49.23143" lon="-0.47424">
        <ele>50.2</ele>
        <time>2023-04-28T12:48:18Z</time>
      </trkpt>
      <trkpt lat="49.23144" lon="-0.47414">
        <ele>50.2</ele>
        <time>2023-04-28T12:48:19Z</time>
      </trkpt>
      <trkpt lat="49.23145" lon="-0.47403">
        <ele>50.2</ele>
        <time>2023-04-28T12:48:20Z</time>
      </trkpt>
      <trkpt lat="49.23146" lon="-0.47393">
        <ele>50.2</ele>
        <time>2023-04-28T12:48:21Z</time>
      </trkpt>
      <trkpt lat="49.23147" lon="-0.47382">
        <ele>50.2</ele>
        <time>2023-04-28T12:48:22Z</time>
      </trkpt>
      <trkpt lat="49.23149" lon="-0.47372">
        <ele>50.2</ele>
        <time>2023-04-28T12:48:23Z</time>
      </trkpt>
      <trkpt lat="49.23151" lon="-0.47362">
        <ele>50.2</ele>
        <time>2023-04-28T12:48:24Z</time>
      </trkpt>
      <trkpt lat="49.23153" lon="-0.47351">
        <ele>50.2</ele>
        <time>2023-04-28T12:48:25Z</time>
      </trkpt>
      <trkpt lat="49.23155" lon="-0.47341">
        <ele>50</ele>
        <time>2023-04-28T12:48:26Z</time>
      </trkpt>
      <trkpt lat="49.23157" lon="-0.47331">
        <ele>50</ele>
        <time>2023-04-28T12:48:27Z</time>
      </trkpt>
      <trkpt lat="49.23159" lon="-0.4732">
        <ele>50</ele>
        <time>2023-04-28T12:48:28Z</time>
      </trkpt>
      <trkpt lat="49.23162" lon="-0.4731">
        <ele>50</ele>
        <time>2023-04-28T12:48:29Z</time>
      </trkpt>
      <trkpt lat="49.23164" lon="-0.47299">
        <ele>50</ele>
        <time>2023-04-28T12:48:30Z</time>
      </trkpt>
      <trkpt lat="49.23167" lon="-0.47289">
        <ele>50</ele>
        <time>2023-04-28T12:48:31Z</time>
      </trkpt>
      <trkpt lat="49.23169" lon="-0.47279">
        <ele>50</ele>
        <time>2023-04-28T12:48:32Z</time>
      </trkpt>
      <trkpt lat="49.23172" lon="-0.47268">
        <ele>50</ele>
        <time>2023-04-28T12:48:33Z</time>
      </trkpt>
      <trkpt lat="49.23174" lon="-0.47257">
        <ele>49.8</ele>
        <time>2023-04-28T12:48:34Z</time>
      </trkpt>
      <trkpt lat="49.23177" lon="-0.47247">
        <ele>49.8</ele>
        <time>2023-04-28T12:48:35Z</time>
      </trkpt>
      <trkpt lat="49.2318" lon="-0.47236">
        <ele>49.4</ele>
        <time>2023-04-28T12:48:36Z</time>
      </trkpt>
      <trkpt lat="49.23182" lon="-0.47224">
        <ele>49</ele>
        <time>2023-04-28T12:48:37Z</time>
      </trkpt>
      <trkpt lat="49.23184" lon="-0.47213">
        <ele>49</ele>
        <time>2023-04-28T12:48:38Z</time>
      </trkpt>
      <trkpt lat="49.23186" lon="-0.47201">
        <ele>48.6</ele>
        <time>2023-04-28T12:48:39Z</time>
      </trkpt>
      <trkpt lat="49.23188" lon="-0.47189">
        <ele>48.4</ele>
        <time>2023-04-28T12:48:40Z</time>
      </trkpt>
      <trkpt lat="49.2319" lon="-0.47177">
        <ele>48.2</ele>
        <time>2023-04-28T12:48:41Z</time>
      </trkpt>
      <trkpt lat="49.23191" lon="-0.47165">
        <ele>48</ele>
        <time>2023-04-28T12:48:42Z</time>
      </trkpt>
      <trkpt lat="49.23192" lon="-0.47152">
        <ele>48</ele>
        <time>2023-04-28T12:48:43Z</time>
      </trkpt>
      <trkpt lat="49.23192" lon="-0.47139">
        <ele>48</ele>
        <time>2023-04-28T12:48:44Z</time>
      </trkpt>
      <trkpt lat="49.23192" lon="-0.47126">
        <ele>48</ele>
        <time>2023-04-28T12:48:45Z</time>
      </trkpt>
      <trkpt lat="49.23192" lon="-0.47113">
        <ele>47.8</ele>
        <time>2023-04-28T12:48:46Z</time>
      </trkpt>
      <trkpt lat="49.23192" lon="-0.47101">
        <ele>47.8</ele>
        <time>2023-04-28T12:48:47Z</time>
      </trkpt>
      <trkpt lat="49.23191" lon="-0.47088">
        <ele>47.8</ele>
        <time>2023-04-28T12:48:48Z</time>
      </trkpt>
      <trkpt lat="49.2319" lon="-0.47076">
        <ele>47.8</ele>
        <time>2023-04-28T12:48:49Z</time>
      </trkpt>
      <trkpt lat="49.23188" lon="-0.47063">
        <ele>47.8</ele>
        <time>2023-04-28T12:48:50Z</time>
      </trkpt>
      <trkpt lat="49.23186" lon="-0.47051">
        <ele>47.8</ele>
        <time>2023-04-28T12:48:51Z</time>
      </trkpt>
      <trkpt lat="49.23184" lon="-0.4704">
        <ele>47.8</ele>
        <time>2023-04-28T12:48:52Z</time>
      </trkpt>
      <trkpt lat="49.23182" lon="-0.47028">
        <ele>47.8</ele>
        <time>2023-04-28T12:48:53Z</time>
      </trkpt>
      <trkpt lat="49.23179" lon="-0.47018">
        <ele>48</ele>
        <time>2023-04-28T12:48:54Z</time>
      </trkpt>
      <trkpt lat="49.23175" lon="-0.47007">
        <ele>48</ele>
        <time>2023-04-28T12:48:55Z</time>
      </trkpt>
      <trkpt lat="49.23171" lon="-0.46997">
        <ele>48</ele>
        <time>2023-04-28T12:48:56Z</time>
      </trkpt>
      <trkpt lat="49.23167" lon="-0.46988">
        <ele>48</ele>
        <time>2023-04-28T12:48:57Z</time>
      </trkpt>
      <trkpt lat="49.23163" lon="-0.46978">
        <ele>48.2</ele>
        <time>2023-04-28T12:48:58Z</time>
      </trkpt>
      <trkpt lat="49.23158" lon="-0.46969">
        <ele>48.6</ele>
        <time>2023-04-28T12:48:59Z</time>
      </trkpt>
      <trkpt lat="49.23154" lon="-0.4696">
        <ele>48.6</ele>
        <time>2023-04-28T12:49:00Z</time>
      </trkpt>
      <trkpt lat="49.23149" lon="-0.46952">
        <ele>48.8</ele>
        <time>2023-04-28T12:49:01Z</time>
      </trkpt>
      <trkpt lat="49.23144" lon="-0.46944">
        <ele>48.8</ele>
        <time>2023-04-28T12:49:02Z</time>
      </trkpt>
      <trkpt lat="49.23138" lon="-0.46938">
        <ele>49</ele>
        <time>2023-04-28T12:49:03Z</time>
      </trkpt>
      <trkpt lat="49.23132" lon="-0.46931">
        <ele>49</ele>
        <time>2023-04-28T12:49:04Z</time>
      </trkpt>
      <trkpt lat="49.23126" lon="-0.46924">
        <ele>49</ele>
        <time>2023-04-28T12:49:05Z</time>
      </trkpt>
      <trkpt lat="49.23121" lon="-0.46917">
        <ele>49</ele>
        <time>2023-04-28T12:49:06Z</time>
      </trkpt>
      <trkpt lat="49.23115" lon="-0.46909">
        <ele>49</ele>
        <time>2023-04-28T12:49:07Z</time>
      </trkpt>
      <trkpt lat="49.2311" lon="-0.46901">
        <ele>48.8</ele>
        <time>2023-04-28T12:49:08Z</time>
      </trkpt>
      <trkpt lat="49.23104" lon="-0.46893">
        <ele>48.6</ele>
        <time>2023-04-28T12:49:09Z</time>
      </trkpt>
      <trkpt lat="49.231" lon="-0.46884">
        <ele>48.2</ele>
        <time>2023-04-28T12:49:10Z</time>
      </trkpt>
      <trkpt lat="49.23095" lon="-0.46875">
        <ele>48</ele>
        <time>2023-04-28T12:49:11Z</time>
      </trkpt>
      <trkpt lat="49.23091" lon="-0.46865">
        <ele>47.8</ele>
        <time>2023-04-28T12:49:12Z</time>
      </trkpt>
      <trkpt lat="49.23087" lon="-0.46856">
        <ele>47.6</ele>
        <time>2023-04-28T12:49:13Z</time>
      </trkpt>
      <trkpt lat="49.23083" lon="-0.46846">
        <ele>47.2</ele>
        <time>2023-04-28T12:49:14Z</time>
      </trkpt>
      <trkpt lat="49.23079" lon="-0.46836">
        <ele>47</ele>
        <time>2023-04-28T12:49:15Z</time>
      </trkpt>
      <trkpt lat="49.23074" lon="-0.46825">
        <ele>46.8</ele>
        <time>2023-04-28T12:49:16Z</time>
      </trkpt>
      <trkpt lat="49.2307" lon="-0.46815">
        <ele>46.6</ele>
        <time>2023-04-28T12:49:17Z</time>
      </trkpt>
      <trkpt lat="49.23066" lon="-0.46804">
        <ele>46.4</ele>
        <time>2023-04-28T12:49:18Z</time>
      </trkpt>
      <trkpt lat="49.23062" lon="-0.46793">
        <ele>46.2</ele>
        <time>2023-04-28T12:49:19Z</time>
      </trkpt>
      <trkpt lat="49.23057" lon="-0.46782">
        <ele>46.2</ele>
        <time>2023-04-28T12:49:20Z</time>
      </trkpt>
      <trkpt lat="49.23053" lon="-0.46771">
        <ele>46</ele>
        <time>2023-04-28T12:49:21Z</time>
      </trkpt>
      <trkpt lat="49.23048" lon="-0.4676">
        <ele>46</ele>
        <time>2023-04-28T12:49:22Z</time>
      </trkpt>
      <trkpt lat="49.23043" lon="-0.46748">
        <ele>46</ele>
        <time>2023-04-28T12:49:23Z</time>
      </trkpt>
      <trkpt lat="49.23039" lon="-0.46737">
        <ele>45.8</ele>
        <time>2023-04-28T12:49:24Z</time>
      </trkpt>
      <trkpt lat="49.23034" lon="-0.46726">
        <ele>45.6</ele>
        <time>2023-04-28T12:49:25Z</time>
      </trkpt>
      <trkpt lat="49.23029" lon="-0.46715">
        <ele>45.2</ele>
        <time>2023-04-28T12:49:26Z</time>
      </trkpt>
      <trkpt lat="49.23024" lon="-0.46703">
        <ele>45</ele>
        <time>2023-04-28T12:49:27Z</time>
      </trkpt>
      <trkpt lat="49.23019" lon="-0.46692">
        <ele>44.8</ele>
        <time>2023-04-28T12:49:28Z</time>
      </trkpt>
      <trkpt lat="49.23015" lon="-0.46679">
        <ele>44.4</ele>
        <time>2023-04-28T12:49:29Z</time>
      </trkpt>
      <trkpt lat="49.2301" lon="-0.46667">
        <ele>44</ele>
        <time>2023-04-28T12:49:30Z</time>
      </trkpt>
      <trkpt lat="49.23005" lon="-0.46655">
        <ele>44</ele>
        <time>2023-04-28T12:49:31Z</time>
      </trkpt>
      <trkpt lat="49.23" lon="-0.46643">
        <ele>43.8</ele>
        <time>2023-04-28T12:49:32Z</time>
      </trkpt>
      <trkpt lat="49.22995" lon="-0.4663">
        <ele>43.6</ele>
        <time>2023-04-28T12:49:33Z</time>
      </trkpt>
      <trkpt lat="49.2299" lon="-0.46618">
        <ele>43.6</ele>
        <time>2023-04-28T12:49:34Z</time>
      </trkpt>
      <trkpt lat="49.22985" lon="-0.46605">
        <ele>43.2</ele>
        <time>2023-04-28T12:49:35Z</time>
      </trkpt>
      <trkpt lat="49.2298" lon="-0.46593">
        <ele>43</ele>
        <time>2023-04-28T12:49:36Z</time>
      </trkpt>
      <trkpt lat="49.22974" lon="-0.46581">
        <ele>43</ele>
        <time>2023-04-28T12:49:37Z</time>
      </trkpt>
      <trkpt lat="49.22969" lon="-0.46568">
        <ele>42.8</ele>
        <time>2023-04-28T12:49:38Z</time>
      </trkpt>
      <trkpt lat="49.22963" lon="-0.46556">
        <ele>42.8</ele>
        <time>2023-04-28T12:49:39Z</time>
      </trkpt>
      <trkpt lat="49.22958" lon="-0.46544">
        <ele>42.6</ele>
        <time>2023-04-28T12:49:40Z</time>
      </trkpt>
      <trkpt lat="49.22953" lon="-0.46531">
        <ele>42.4</ele>
        <time>2023-04-28T12:49:41Z</time>
      </trkpt>
      <trkpt lat="49.22948" lon="-0.46518">
        <ele>42.2</ele>
        <time>2023-04-28T12:49:42Z</time>
      </trkpt>
      <trkpt lat="49.22943" lon="-0.46505">
        <ele>42</ele>
        <time>2023-04-28T12:49:43Z</time>
      </trkpt>
      <trkpt lat="49.22938" lon="-0.46492">
        <ele>42</ele>
        <time>2023-04-28T12:49:44Z</time>
      </trkpt>
      <trkpt lat="49.22933" lon="-0.46479">
        <ele>42</ele>
        <time>2023-04-28T12:49:45Z</time>
      </trkpt>
      <trkpt lat="49.22927" lon="-0.46466">
        <ele>42</ele>
        <time>2023-04-28T12:49:46Z</time>
      </trkpt>
      <trkpt lat="49.22923" lon="-0.46454">
        <ele>42</ele>
        <time>2023-04-28T12:49:47Z</time>
      </trkpt>
      <trkpt lat="49.22921" lon="-0.46441">
        <ele>42</ele>
        <time>2023-04-28T12:49:48Z</time>
      </trkpt>
      <trkpt lat="49.22921" lon="-0.46429">
        <ele>42</ele>
        <time>2023-04-28T12:49:49Z</time>
      </trkpt>
      <trkpt lat="49.22925" lon="-0.46419">
        <ele>42</ele>
        <time>2023-04-28T12:49:50Z</time>
      </trkpt>
      <trkpt lat="49.2293" lon="-0.46411">
        <ele>42</ele>
        <time>2023-04-28T12:49:51Z</time>
      </trkpt>
      <trkpt lat="49.22936" lon="-0.46405">
        <ele>42</ele>
        <time>2023-04-28T12:49:52Z</time>
      </trkpt>
      <trkpt lat="49.22943" lon="-0.464">
        <ele>42</ele>
        <time>2023-04-28T12:49:53Z</time>
      </trkpt>
      <trkpt lat="49.2295" lon="-0.46396">
        <ele>42</ele>
        <time>2023-04-28T12:49:54Z</time>
      </trkpt>
      <trkpt lat="49.22957" lon="-0.46391">
        <ele>42</ele>
        <time>2023-04-28T12:49:55Z</time>
      </trkpt>
      <trkpt lat="49.22963" lon="-0.46387">
        <ele>42</ele>
        <time>2023-04-28T12:49:56Z</time>
      </trkpt>
      <trkpt lat="49.2297" lon="-0.46383">
        <ele>42</ele>
        <time>2023-04-28T12:49:57Z</time>
      </trkpt>
      <trkpt lat="49.22977" lon="-0.46378">
        <ele>42</ele>
        <time>2023-04-28T12:49:58Z</time>
      </trkpt>
      <trkpt lat="49.22983" lon="-0.46373">
        <ele>41.8</ele>
        <time>2023-04-28T12:49:59Z</time>
      </trkpt>
      <trkpt lat="49.2299" lon="-0.46368">
        <ele>41.8</ele>
        <time>2023-04-28T12:50:00Z</time>
      </trkpt>
      <trkpt lat="49.22996" lon="-0.46363">
        <ele>41.8</ele>
        <time>2023-04-28T12:50:01Z</time>
      </trkpt>
      <trkpt lat="49.23003" lon="-0.46359">
        <ele>41.6</ele>
        <time>2023-04-28T12:50:02Z</time>
      </trkpt>
      <trkpt lat="49.23009" lon="-0.46355">
        <ele>41.6</ele>
        <time>2023-04-28T12:50:03Z</time>
      </trkpt>
      <trkpt lat="49.23016" lon="-0.46351">
        <ele>41.6</ele>
        <time>2023-04-28T12:50:04Z</time>
      </trkpt>
      <trkpt lat="49.23023" lon="-0.46347">
        <ele>41.4</ele>
        <time>2023-04-28T12:50:05Z</time>
      </trkpt>
      <trkpt lat="49.2303" lon="-0.46343">
        <ele>41.2</ele>
        <time>2023-04-28T12:50:06Z</time>
      </trkpt>
      <trkpt lat="49.23037" lon="-0.4634">
        <ele>41</ele>
        <time>2023-04-28T12:50:07Z</time>
      </trkpt>
      <trkpt lat="49.23043" lon="-0.46336">
        <ele>41</ele>
        <time>2023-04-28T12:50:08Z</time>
      </trkpt>
      <trkpt lat="49.23049" lon="-0.46333">
        <ele>40.8</ele>
        <time>2023-04-28T12:50:09Z</time>
      </trkpt>
      <trkpt lat="49.23055" lon="-0.46329">
        <ele>40.6</ele>
        <time>2023-04-28T12:50:10Z</time>
      </trkpt>
      <trkpt lat="49.23059" lon="-0.46325">
        <ele>40.6</ele>
        <time>2023-04-28T12:50:11Z</time>
      </trkpt>
      <trkpt lat="49.23063" lon="-0.46321">
        <ele>40.2</ele>
        <time>2023-04-28T12:50:12Z</time>
      </trkpt>
      <trkpt lat="49.23065" lon="-0.46317">
        <ele>40.2</ele>
        <time>2023-04-28T12:50:13Z</time>
      </trkpt>
      <trkpt lat="49.23065" lon="-0.46311">
        <ele>40</ele>
        <time>2023-04-28T12:50:14Z</time>
      </trkpt>
      <trkpt lat="49.23064" lon="-0.46304">
        <ele>40</ele>
        <time>2023-04-28T12:50:15Z</time>
      </trkpt>
      <trkpt lat="49.23062" lon="-0.46297">
        <ele>40</ele>
        <time>2023-04-28T12:50:16Z</time>
      </trkpt>
      <trkpt lat="49.23059" lon="-0.46289">
        <ele>40</ele>
        <time>2023-04-28T12:50:17Z</time>
      </trkpt>
      <trkpt lat="49.23056" lon="-0.46281">
        <ele>39.8</ele>
        <time>2023-04-28T12:50:18Z</time>
      </trkpt>
      <trkpt lat="49.23053" lon="-0.46273">
        <ele>39.8</ele>
        <time>2023-04-28T12:50:19Z</time>
      </trkpt>
      <trkpt lat="49.23049" lon="-0.46264">
        <ele>39.6</ele>
        <time>2023-04-28T12:50:20Z</time>
      </trkpt>
      <trkpt lat="49.23046" lon="-0.46255">
        <ele>39.6</ele>
        <time>2023-04-28T12:50:21Z</time>
      </trkpt>
      <trkpt lat="49.23042" lon="-0.46246">
        <ele>39.4</ele>
        <time>2023-04-28T12:50:22Z</time>
      </trkpt>
      <trkpt lat="49.23039" lon="-0.46237">
        <ele>39.2</ele>
        <time>2023-04-28T12:50:23Z</time>
      </trkpt>
      <trkpt lat="49.23035" lon="-0.46227">
        <ele>39.2</ele>
        <time>2023-04-28T12:50:24Z</time>
      </trkpt>
      <trkpt lat="49.23031" lon="-0.46218">
        <ele>39</ele>
        <time>2023-04-28T12:50:25Z</time>
      </trkpt>
      <trkpt lat="49.23026" lon="-0.46209">
        <ele>39</ele>
        <time>2023-04-28T12:50:26Z</time>
      </trkpt>
      <trkpt lat="49.23022" lon="-0.462">
        <ele>39</ele>
        <time>2023-04-28T12:50:27Z</time>
      </trkpt>
      <trkpt lat="49.23016" lon="-0.46192">
        <ele>39</ele>
        <time>2023-04-28T12:50:28Z</time>
      </trkpt>
      <trkpt lat="49.23011" lon="-0.46186">
        <ele>39</ele>
        <time>2023-04-28T12:50:29Z</time>
      </trkpt>
      <trkpt lat="49.23005" lon="-0.4618">
        <ele>39</ele>
        <time>2023-04-28T12:50:30Z</time>
      </trkpt>
      <trkpt lat="49.22999" lon="-0.46175">
        <ele>39.2</ele>
        <time>2023-04-28T12:50:31Z</time>
      </trkpt>
      <trkpt lat="49.22992" lon="-0.4617">
        <ele>39.2</ele>
        <time>2023-04-28T12:50:32Z</time>
      </trkpt>
      <trkpt lat="49.22985" lon="-0.46165">
        <ele>39.6</ele>
        <time>2023-04-28T12:50:33Z</time>
      </trkpt>
      <trkpt lat="49.22979" lon="-0.4616">
        <ele>39.8</ele>
        <time>2023-04-28T12:50:34Z</time>
      </trkpt>
      <trkpt lat="49.22972" lon="-0.46153">
        <ele>40</ele>
        <time>2023-04-28T12:50:35Z</time>
      </trkpt>
      <trkpt lat="49.22966" lon="-0.46147">
        <ele>40.2</ele>
        <time>2023-04-28T12:50:36Z</time>
      </trkpt>
      <trkpt lat="49.22961" lon="-0.46139">
        <ele>40.4</ele>
        <time>2023-04-28T12:50:37Z</time>
      </trkpt>
      <trkpt lat="49.22957" lon="-0.46131">
        <ele>40.6</ele>
        <time>2023-04-28T12:50:38Z</time>
      </trkpt>
      <trkpt lat="49.22953" lon="-0.46122">
        <ele>40.8</ele>
        <time>2023-04-28T12:50:39Z</time>
      </trkpt>
      <trkpt lat="49.22949" lon="-0.46114">
        <ele>40.8</ele>
        <time>2023-04-28T12:50:40Z</time>
      </trkpt>
      <trkpt lat="49.22946" lon="-0.46106">
        <ele>41</ele>
        <time>2023-04-28T12:50:41Z</time>
      </trkpt>
      <trkpt lat="49.22943" lon="-0.46099">
        <ele>41</ele>
        <time>2023-04-28T12:50:42Z</time>
      </trkpt>
      <trkpt lat="49.22941" lon="-0.46094">
        <ele>41</ele>
        <time>2023-04-28T12:50:43Z</time>
      </trkpt>
      <trkpt lat="49.22939" lon="-0.4609">
        <ele>41.2</ele>
        <time>2023-04-28T12:50:44Z</time>
      </trkpt>
      <trkpt lat="49.22937" lon="-0.46086">
        <ele>41.2</ele>
        <time>2023-04-28T12:50:45Z</time>
      </trkpt>
      <trkpt lat="49.22935" lon="-0.46082">
        <ele>41.2</ele>
        <time>2023-04-28T12:50:46Z</time>
      </trkpt>
      <trkpt lat="49.22932" lon="-0.46077">
        <ele>41.4</ele>
        <time>2023-04-28T12:50:47Z</time>
      </trkpt>
      <trkpt lat="49.2293" lon="-0.46072">
        <ele>41.6</ele>
        <time>2023-04-28T12:50:48Z</time>
      </trkpt>
      <trkpt lat="49.22927" lon="-0.46067">
        <ele>41.8</ele>
        <time>2023-04-28T12:50:49Z</time>
      </trkpt>
      <trkpt lat="49.22924" lon="-0.46061">
        <ele>41.8</ele>
        <time>2023-04-28T12:50:50Z</time>
      </trkpt>
      <trkpt lat="49.2292" lon="-0.46055">
        <ele>42</ele>
        <time>2023-04-28T12:50:51Z</time>
      </trkpt>
      <trkpt lat="49.22917" lon="-0.46049">
        <ele>42</ele>
        <time>2023-04-28T12:50:52Z</time>
      </trkpt>
      <trkpt lat="49.22914" lon="-0.46044">
        <ele>42</ele>
        <time>2023-04-28T12:50:53Z</time>
      </trkpt>
      <trkpt lat="49.2291" lon="-0.46039">
        <ele>42.2</ele>
        <time>2023-04-28T12:50:54Z</time>
      </trkpt>
      <trkpt lat="49.22907" lon="-0.46034">
        <ele>42.4</ele>
        <time>2023-04-28T12:50:55Z</time>
      </trkpt>
      <trkpt lat="49.22903" lon="-0.46029">
        <ele>42.6</ele>
        <time>2023-04-28T12:50:56Z</time>
      </trkpt>
      <trkpt lat="49.229" lon="-0.46024">
        <ele>42.8</ele>
        <time>2023-04-28T12:50:57Z</time>
      </trkpt>
      <trkpt lat="49.22896" lon="-0.4602">
        <ele>42.8</ele>
        <time>2023-04-28T12:50:58Z</time>
      </trkpt>
      <trkpt lat="49.22892" lon="-0.46015">
        <ele>43</ele>
        <time>2023-04-28T12:50:59Z</time>
      </trkpt>
      <trkpt lat="49.22889" lon="-0.4601">
        <ele>43</ele>
        <time>2023-04-28T12:51:00Z</time>
      </trkpt>
      <trkpt lat="49.22885" lon="-0.46005">
        <ele>43.2</ele>
        <time>2023-04-28T12:51:01Z</time>
      </trkpt>
      <trkpt lat="49.22882" lon="-0.46">
        <ele>43.2</ele>
        <time>2023-04-28T12:51:02Z</time>
      </trkpt>
      <trkpt lat="49.22878" lon="-0.45995">
        <ele>43.4</ele>
        <time>2023-04-28T12:51:03Z</time>
      </trkpt>
      <trkpt lat="49.22875" lon="-0.4599">
        <ele>43.6</ele>
        <time>2023-04-28T12:51:04Z</time>
      </trkpt>
      <trkpt lat="49.22872" lon="-0.45985">
        <ele>43.6</ele>
        <time>2023-04-28T12:51:05Z</time>
      </trkpt>
      <trkpt lat="49.22868" lon="-0.4598">
        <ele>43.8</ele>
        <time>2023-04-28T12:51:06Z</time>
      </trkpt>
      <trkpt lat="49.22865" lon="-0.45974">
        <ele>43.8</ele>
        <time>2023-04-28T12:51:07Z</time>
      </trkpt>
      <trkpt lat="49.22862" lon="-0.45969">
        <ele>44</ele>
        <time>2023-04-28T12:51:08Z</time>
      </trkpt>
      <trkpt lat="49.22858" lon="-0.45963">
        <ele>44</ele>
        <time>2023-04-28T12:51:09Z</time>
      </trkpt>
      <trkpt lat="49.22855" lon="-0.45958">
        <ele>44</ele>
        <time>2023-04-28T12:51:10Z</time>
      </trkpt>
      <trkpt lat="49.22852" lon="-0.45952">
        <ele>44</ele>
        <time>2023-04-28T12:51:11Z</time>
      </trkpt>
      <trkpt lat="49.22848" lon="-0.45947">
        <ele>44</ele>
        <time>2023-04-28T12:51:12Z</time>
      </trkpt>
      <trkpt lat="49.22845" lon="-0.45942">
        <ele>44</ele>
        <time>2023-04-28T12:51:13Z</time>
      </trkpt>
      <trkpt lat="49.22841" lon="-0.45936">
        <ele>44</ele>
        <time>2023-04-28T12:51:14Z</time>
      </trkpt>
      <trkpt lat="49.22837" lon="-0.45931">
        <ele>44</ele>
        <time>2023-04-28T12:51:15Z</time>
      </trkpt>
      <trkpt lat="49.22834" lon="-0.45926">
        <ele>44</ele>
        <time>2023-04-28T12:51:16Z</time>
      </trkpt>
      <trkpt lat="49.2283" lon="-0.45922">
        <ele>44</ele>
        <time>2023-04-28T12:51:17Z</time>
      </trkpt>
      <trkpt lat="49.22826" lon="-0.45917">
        <ele>44.2</ele>
        <time>2023-04-28T12:51:18Z</time>
      </trkpt>
      <trkpt lat="49.22823" lon="-0.45913">
        <ele>44.2</ele>
        <time>2023-04-28T12:51:19Z</time>
      </trkpt>
      <trkpt lat="49.22819" lon="-0.45908">
        <ele>44.4</ele>
        <time>2023-04-28T12:51:20Z</time>
      </trkpt>
      <trkpt lat="49.22815" lon="-0.45904">
        <ele>44.6</ele>
        <time>2023-04-28T12:51:21Z</time>
      </trkpt>
      <trkpt lat="49.22812" lon="-0.45899">
        <ele>44.8</ele>
        <time>2023-04-28T12:51:22Z</time>
      </trkpt>
      <trkpt lat="49.22808" lon="-0.45894">
        <ele>45</ele>
        <time>2023-04-28T12:51:23Z</time>
      </trkpt>
      <trkpt lat="49.22804" lon="-0.4589">
        <ele>45</ele>
        <time>2023-04-28T12:51:24Z</time>
      </trkpt>
      <trkpt lat="49.22801" lon="-0.45884">
        <ele>45.2</ele>
        <time>2023-04-28T12:51:25Z</time>
      </trkpt>
      <trkpt lat="49.22797" lon="-0.45879">
        <ele>45.2</ele>
        <time>2023-04-28T12:51:26Z</time>
      </trkpt>
      <trkpt lat="49.22794" lon="-0.45873">
        <ele>45.6</ele>
        <time>2023-04-28T12:51:27Z</time>
      </trkpt>
      <trkpt lat="49.22792" lon="-0.45867">
        <ele>45.6</ele>
        <time>2023-04-28T12:51:28Z</time>
      </trkpt>
      <trkpt lat="49.22789" lon="-0.45861">
        <ele>45.8</ele>
        <time>2023-04-28T12:51:29Z</time>
      </trkpt>
      <trkpt lat="49.22786" lon="-0.45854">
        <ele>46</ele>
        <time>2023-04-28T12:51:30Z</time>
      </trkpt>
      <trkpt lat="49.22784" lon="-0.45848">
        <ele>46</ele>
        <time>2023-04-28T12:51:31Z</time>
      </trkpt>
      <trkpt lat="49.22782" lon="-0.45841">
        <ele>46</ele>
        <time>2023-04-28T12:51:32Z</time>
      </trkpt>
      <trkpt lat="49.2278" lon="-0.45834">
        <ele>46.2</ele>
        <time>2023-04-28T12:51:33Z</time>
      </trkpt>
      <trkpt lat="49.22778" lon="-0.45827">
        <ele>46.2</ele>
        <time>2023-04-28T12:51:34Z</time>
      </trkpt>
      <trkpt lat="49.22776" lon="-0.45821">
        <ele>46.4</ele>
        <time>2023-04-28T12:51:35Z</time>
      </trkpt>
      <trkpt lat="49.22774" lon="-0.45814">
        <ele>46.4</ele>
        <time>2023-04-28T12:51:36Z</time>
      </trkpt>
      <trkpt lat="49.22772" lon="-0.45807">
        <ele>46.6</ele>
        <time>2023-04-28T12:51:37Z</time>
      </trkpt>
      <trkpt lat="49.2277" lon="-0.45799">
        <ele>46.6</ele>
        <time>2023-04-28T12:51:38Z</time>
      </trkpt>
      <trkpt lat="49.22768" lon="-0.45792">
        <ele>46.6</ele>
        <time>2023-04-28T12:51:39Z</time>
      </trkpt>
      <trkpt lat="49.22766" lon="-0.45785">
        <ele>46.6</ele>
        <time>2023-04-28T12:51:40Z</time>
      </trkpt>
      <trkpt lat="49.22765" lon="-0.45778">
        <ele>46.6</ele>
        <time>2023-04-28T12:51:41Z</time>
      </trkpt>
      <trkpt lat="49.22763" lon="-0.45771">
        <ele>46.8</ele>
        <time>2023-04-28T12:51:42Z</time>
      </trkpt>
      <trkpt lat="49.22762" lon="-0.45765">
        <ele>46.8</ele>
        <time>2023-04-28T12:51:43Z</time>
      </trkpt>
      <trkpt lat="49.2276" lon="-0.45758">
        <ele>46.8</ele>
        <time>2023-04-28T12:51:44Z</time>
      </trkpt>
      <trkpt lat="49.22759" lon="-0.45751">
        <ele>46.8</ele>
        <time>2023-04-28T12:51:45Z</time>
      </trkpt>
      <trkpt lat="49.22757" lon="-0.45744">
        <ele>46.8</ele>
        <time>2023-04-28T12:51:46Z</time>
      </trkpt>
      <trkpt lat="49.22756" lon="-0.45737">
        <ele>47</ele>
        <time>2023-04-28T12:51:47Z</time>
      </trkpt>
      <trkpt lat="49.22754" lon="-0.4573">
        <ele>47</ele>
        <time>2023-04-28T12:51:48Z</time>
      </trkpt>
      <trkpt lat="49.22752" lon="-0.45723">
        <ele>47</ele>
        <time>2023-04-28T12:51:49Z</time>
      </trkpt>
      <trkpt lat="49.2275" lon="-0.45716">
        <ele>47</ele>
        <time>2023-04-28T12:51:50Z</time>
      </trkpt>
      <trkpt lat="49.22748" lon="-0.45709">
        <ele>47</ele>
        <time>2023-04-28T12:51:51Z</time>
      </trkpt>
      <trkpt lat="49.22746" lon="-0.45702">
        <ele>47</ele>
        <time>2023-04-28T12:51:52Z</time>
      </trkpt>
      <trkpt lat="49.22744" lon="-0.45695">
        <ele>47.2</ele>
        <time>2023-04-28T12:51:53Z</time>
      </trkpt>
      <trkpt lat="49.22742" lon="-0.45688">
        <ele>47.2</ele>
        <time>2023-04-28T12:51:54Z</time>
      </trkpt>
      <trkpt lat="49.22739" lon="-0.45681">
        <ele>47.2</ele>
        <time>2023-04-28T12:51:55Z</time>
      </trkpt>
      <trkpt lat="49.22737" lon="-0.45674">
        <ele>47.2</ele>
        <time>2023-04-28T12:51:56Z</time>
      </trkpt>
      <trkpt lat="49.22735" lon="-0.45666">
        <ele>47.4</ele>
        <time>2023-04-28T12:51:57Z</time>
      </trkpt>
      <trkpt lat="49.22733" lon="-0.45659">
        <ele>47.4</ele>
        <time>2023-04-28T12:51:58Z</time>
      </trkpt>
      <trkpt lat="49.2273" lon="-0.45651">
        <ele>47.4</ele>
        <time>2023-04-28T12:51:59Z</time>
      </trkpt>
      <trkpt lat="49.22728" lon="-0.45644">
        <ele>47.6</ele>
        <time>2023-04-28T12:52:00Z</time>
      </trkpt>
      <trkpt lat="49.22725" lon="-0.45636">
        <ele>47.6</ele>
        <time>2023-04-28T12:52:01Z</time>
      </trkpt>
      <trkpt lat="49.22723" lon="-0.45629">
        <ele>47.6</ele>
        <time>2023-04-28T12:52:02Z</time>
      </trkpt>
      <trkpt lat="49.2272" lon="-0.45621">
        <ele>47.6</ele>
        <time>2023-04-28T12:52:03Z</time>
      </trkpt>
      <trkpt lat="49.22717" lon="-0.45614">
        <ele>47.6</ele>
        <time>2023-04-28T12:52:04Z</time>
      </trkpt>
      <trkpt lat="49.22714" lon="-0.45607">
        <ele>47.6</ele>
        <time>2023-04-28T12:52:05Z</time>
      </trkpt>
      <trkpt lat="49.22711" lon="-0.45601">
        <ele>47.6</ele>
        <time>2023-04-28T12:52:06Z</time>
      </trkpt>
      <trkpt lat="49.22707" lon="-0.45594">
        <ele>47.6</ele>
        <time>2023-04-28T12:52:07Z</time>
      </trkpt>
      <trkpt lat="49.22704" lon="-0.45588">
        <ele>47.6</ele>
        <time>2023-04-28T12:52:08Z</time>
      </trkpt>
      <trkpt lat="49.22701" lon="-0.45581">
        <ele>47.6</ele>
        <time>2023-04-28T12:52:09Z</time>
      </trkpt>
      <trkpt lat="49.22697" lon="-0.45575">
        <ele>47.6</ele>
        <time>2023-04-28T12:52:10Z</time>
      </trkpt>
      <trkpt lat="49.22694" lon="-0.45568">
        <ele>47.6</ele>
        <time>2023-04-28T12:52:11Z</time>
      </trkpt>
      <trkpt lat="49.2269" lon="-0.45562">
        <ele>47.6</ele>
        <time>2023-04-28T12:52:12Z</time>
      </trkpt>
      <trkpt lat="49.22687" lon="-0.45556">
        <ele>47.4</ele>
        <time>2023-04-28T12:52:13Z</time>
      </trkpt>
      <trkpt lat="49.22684" lon="-0.4555">
        <ele>47.4</ele>
        <time>2023-04-28T12:52:14Z</time>
      </trkpt>
      <trkpt lat="49.2268" lon="-0.45543">
        <ele>47.4</ele>
        <time>2023-04-28T12:52:15Z</time>
      </trkpt>
      <trkpt lat="49.22677" lon="-0.45537">
        <ele>47.2</ele>
        <time>2023-04-28T12:52:16Z</time>
      </trkpt>
      <trkpt lat="49.22673" lon="-0.45531">
        <ele>47.2</ele>
        <time>2023-04-28T12:52:17Z</time>
      </trkpt>
      <trkpt lat="49.2267" lon="-0.45524">
        <ele>47.2</ele>
        <time>2023-04-28T12:52:18Z</time>
      </trkpt>
      <trkpt lat="49.22666" lon="-0.45518">
        <ele>47.2</ele>
        <time>2023-04-28T12:52:19Z</time>
      </trkpt>
      <trkpt lat="49.22663" lon="-0.45511">
        <ele>47</ele>
        <time>2023-04-28T12:52:20Z</time>
      </trkpt>
      <trkpt lat="49.22659" lon="-0.45504">
        <ele>47</ele>
        <time>2023-04-28T12:52:21Z</time>
      </trkpt>
      <trkpt lat="49.22655" lon="-0.45497">
        <ele>47</ele>
        <time>2023-04-28T12:52:22Z</time>
      </trkpt>
      <trkpt lat="49.22651" lon="-0.4549">
        <ele>47</ele>
        <time>2023-04-28T12:52:23Z</time>
      </trkpt>
      <trkpt lat="49.22647" lon="-0.45482">
        <ele>46.8</ele>
        <time>2023-04-28T12:52:24Z</time>
      </trkpt>
      <trkpt lat="49.22643" lon="-0.45474">
        <ele>46.8</ele>
        <time>2023-04-28T12:52:25Z</time>
      </trkpt>
      <trkpt lat="49.22639" lon="-0.45466">
        <ele>46.6</ele>
        <time>2023-04-28T12:52:26Z</time>
      </trkpt>
      <trkpt lat="49.22634" lon="-0.45458">
        <ele>46.6</ele>
        <time>2023-04-28T12:52:27Z</time>
      </trkpt>
      <trkpt lat="49.2263" lon="-0.4545">
        <ele>46.4</ele>
        <time>2023-04-28T12:52:28Z</time>
      </trkpt>
      <trkpt lat="49.22625" lon="-0.45442">
        <ele>46.2</ele>
        <time>2023-04-28T12:52:29Z</time>
      </trkpt>
      <trkpt lat="49.2262" lon="-0.45434">
        <ele>46.2</ele>
        <time>2023-04-28T12:52:30Z</time>
      </trkpt>
      <trkpt lat="49.22616" lon="-0.45425">
        <ele>46</ele>
        <time>2023-04-28T12:52:31Z</time>
      </trkpt>
      <trkpt lat="49.22611" lon="-0.45415">
        <ele>46</ele>
        <time>2023-04-28T12:52:32Z</time>
      </trkpt>
      <trkpt lat="49.22606" lon="-0.45406">
        <ele>45.8</ele>
        <time>2023-04-28T12:52:33Z</time>
      </trkpt>
      <trkpt lat="49.22602" lon="-0.45396">
        <ele>45.6</ele>
        <time>2023-04-28T12:52:34Z</time>
      </trkpt>
      <trkpt lat="49.22598" lon="-0.45386">
        <ele>45.2</ele>
        <time>2023-04-28T12:52:35Z</time>
      </trkpt>
      <trkpt lat="49.22593" lon="-0.45375">
        <ele>45</ele>
        <time>2023-04-28T12:52:36Z</time>
      </trkpt>
      <trkpt lat="49.22589" lon="-0.45365">
        <ele>44.8</ele>
        <time>2023-04-28T12:52:37Z</time>
      </trkpt>
      <trkpt lat="49.22585" lon="-0.45354">
        <ele>44.6</ele>
        <time>2023-04-28T12:52:38Z</time>
      </trkpt>
      <trkpt lat="49.22581" lon="-0.45343">
        <ele>44.2</ele>
        <time>2023-04-28T12:52:39Z</time>
      </trkpt>
      <trkpt lat="49.22577" lon="-0.45332">
        <ele>44</ele>
        <time>2023-04-28T12:52:40Z</time>
      </trkpt>
      <trkpt lat="49.22574" lon="-0.4532">
        <ele>43.6</ele>
        <time>2023-04-28T12:52:41Z</time>
      </trkpt>
      <trkpt lat="49.2257" lon="-0.45309">
        <ele>43.2</ele>
        <time>2023-04-28T12:52:42Z</time>
      </trkpt>
      <trkpt lat="49.22567" lon="-0.45297">
        <ele>43</ele>
        <time>2023-04-28T12:52:43Z</time>
      </trkpt>
      <trkpt lat="49.22563" lon="-0.45285">
        <ele>42.6</ele>
        <time>2023-04-28T12:52:44Z</time>
      </trkpt>
      <trkpt lat="49.22559" lon="-0.45273">
        <ele>42.2</ele>
        <time>2023-04-28T12:52:45Z</time>
      </trkpt>
      <trkpt lat="49.22556" lon="-0.45261">
        <ele>42</ele>
        <time>2023-04-28T12:52:46Z</time>
      </trkpt>
      <trkpt lat="49.22552" lon="-0.45249">
        <ele>41.6</ele>
        <time>2023-04-28T12:52:47Z</time>
      </trkpt>
      <trkpt lat="49.22548" lon="-0.45237">
        <ele>41.6</ele>
        <time>2023-04-28T12:52:48Z</time>
      </trkpt>
      <trkpt lat="49.22545" lon="-0.45225">
        <ele>41.4</ele>
        <time>2023-04-28T12:52:49Z</time>
      </trkpt>
      <trkpt lat="49.22541" lon="-0.45213">
        <ele>41.2</ele>
        <time>2023-04-28T12:52:50Z</time>
      </trkpt>
      <trkpt lat="49.22537" lon="-0.45201">
        <ele>41</ele>
        <time>2023-04-28T12:52:51Z</time>
      </trkpt>
      <trkpt lat="49.22534" lon="-0.45189">
        <ele>41</ele>
        <time>2023-04-28T12:52:52Z</time>
      </trkpt>
      <trkpt lat="49.2253" lon="-0.45177">
        <ele>40.8</ele>
        <time>2023-04-28T12:52:53Z</time>
      </trkpt>
      <trkpt lat="49.22527" lon="-0.45165">
        <ele>40.6</ele>
        <time>2023-04-28T12:52:54Z</time>
      </trkpt>
      <trkpt lat="49.22523" lon="-0.45153">
        <ele>40.6</ele>
        <time>2023-04-28T12:52:55Z</time>
      </trkpt>
      <trkpt lat="49.2252" lon="-0.45141">
        <ele>40.6</ele>
        <time>2023-04-28T12:52:56Z</time>
      </trkpt>
      <trkpt lat="49.22516" lon="-0.4513">
        <ele>40.6</ele>
        <time>2023-04-28T12:52:57Z</time>
      </trkpt>
      <trkpt lat="49.22513" lon="-0.45118">
        <ele>40.6</ele>
        <time>2023-04-28T12:52:58Z</time>
      </trkpt>
      <trkpt lat="49.22509" lon="-0.45106">
        <ele>40.8</ele>
        <time>2023-04-28T12:52:59Z</time>
      </trkpt>
      <trkpt lat="49.22506" lon="-0.45095">
        <ele>40.8</ele>
        <time>2023-04-28T12:53:00Z</time>
      </trkpt>
      <trkpt lat="49.22502" lon="-0.45084">
        <ele>41</ele>
        <time>2023-04-28T12:53:01Z</time>
      </trkpt>
      <trkpt lat="49.22499" lon="-0.45072">
        <ele>41.2</ele>
        <time>2023-04-28T12:53:02Z</time>
      </trkpt>
      <trkpt lat="49.22495" lon="-0.45061">
        <ele>41.4</ele>
        <time>2023-04-28T12:53:03Z</time>
      </trkpt>
      <trkpt lat="49.22492" lon="-0.4505">
        <ele>41.8</ele>
        <time>2023-04-28T12:53:04Z</time>
      </trkpt>
      <trkpt lat="49.22489" lon="-0.45039">
        <ele>42</ele>
        <time>2023-04-28T12:53:05Z</time>
      </trkpt>
      <trkpt lat="49.22485" lon="-0.45029">
        <ele>42.2</ele>
        <time>2023-04-28T12:53:06Z</time>
      </trkpt>
      <trkpt lat="49.22482" lon="-0.45018">
        <ele>42.6</ele>
        <time>2023-04-28T12:53:07Z</time>
      </trkpt>
      <trkpt lat="49.22478" lon="-0.45008">
        <ele>43</ele>
        <time>2023-04-28T12:53:08Z</time>
      </trkpt>
      <trkpt lat="49.22475" lon="-0.44997">
        <ele>43.2</ele>
        <time>2023-04-28T12:53:09Z</time>
      </trkpt>
      <trkpt lat="49.22471" lon="-0.44987">
        <ele>43.6</ele>
        <time>2023-04-28T12:53:10Z</time>
      </trkpt>
      <trkpt lat="49.22467" lon="-0.44976">
        <ele>44</ele>
        <time>2023-04-28T12:53:11Z</time>
      </trkpt>
      <trkpt lat="49.22463" lon="-0.44967">
        <ele>44.2</ele>
        <time>2023-04-28T12:53:12Z</time>
      </trkpt>
      <trkpt lat="49.22459" lon="-0.44957">
        <ele>44.6</ele>
        <time>2023-04-28T12:53:13Z</time>
      </trkpt>
      <trkpt lat="49.22455" lon="-0.44948">
        <ele>44.8</ele>
        <time>2023-04-28T12:53:14Z</time>
      </trkpt>
      <trkpt lat="49.22451" lon="-0.44939">
        <ele>45</ele>
        <time>2023-04-28T12:53:15Z</time>
      </trkpt>
      <trkpt lat="49.22446" lon="-0.44931">
        <ele>45.4</ele>
        <time>2023-04-28T12:53:16Z</time>
      </trkpt>
      <trkpt lat="49.22442" lon="-0.44923">
        <ele>45.8</ele>
        <time>2023-04-28T12:53:17Z</time>
      </trkpt>
      <trkpt lat="49.22438" lon="-0.44915">
        <ele>46</ele>
        <time>2023-04-28T12:53:18Z</time>
      </trkpt>
      <trkpt lat="49.22434" lon="-0.44907">
        <ele>46.2</ele>
        <time>2023-04-28T12:53:19Z</time>
      </trkpt>
      <trkpt lat="49.2243" lon="-0.449">
        <ele>46.4</ele>
        <time>2023-04-28T12:53:20Z</time>
      </trkpt>
      <trkpt lat="49.22426" lon="-0.44893">
        <ele>46.6</ele>
        <time>2023-04-28T12:53:21Z</time>
      </trkpt>
      <trkpt lat="49.22422" lon="-0.44886">
        <ele>46.8</ele>
        <time>2023-04-28T12:53:22Z</time>
      </trkpt>
      <trkpt lat="49.22418" lon="-0.44879">
        <ele>47</ele>
        <time>2023-04-28T12:53:23Z</time>
      </trkpt>
      <trkpt lat="49.22415" lon="-0.44872">
        <ele>47</ele>
        <time>2023-04-28T12:53:24Z</time>
      </trkpt>
      <trkpt lat="49.22411" lon="-0.44865">
        <ele>47.4</ele>
        <time>2023-04-28T12:53:25Z</time>
      </trkpt>
      <trkpt lat="49.22407" lon="-0.44859">
        <ele>47.6</ele>
        <time>2023-04-28T12:53:26Z</time>
      </trkpt>
      <trkpt lat="49.22404" lon="-0.44852">
        <ele>48</ele>
        <time>2023-04-28T12:53:27Z</time>
      </trkpt>
      <trkpt lat="49.224" lon="-0.44845">
        <ele>48.2</ele>
        <time>2023-04-28T12:53:28Z</time>
      </trkpt>
      <trkpt lat="49.22397" lon="-0.44839">
        <ele>48.4</ele>
        <time>2023-04-28T12:53:29Z</time>
      </trkpt>
      <trkpt lat="49.22393" lon="-0.44832">
        <ele>48.8</ele>
        <time>2023-04-28T12:53:30Z</time>
      </trkpt>
      <trkpt lat="49.2239" lon="-0.44825">
        <ele>49.2</ele>
        <time>2023-04-28T12:53:31Z</time>
      </trkpt>
      <trkpt lat="49.22387" lon="-0.44818">
        <ele>50</ele>
        <time>2023-04-28T12:53:32Z</time>
      </trkpt>
      <trkpt lat="49.22383" lon="-0.4481">
        <ele>50.6</ele>
        <time>2023-04-28T12:53:33Z</time>
      </trkpt>
      <trkpt lat="49.2238" lon="-0.44803">
        <ele>51</ele>
        <time>2023-04-28T12:53:34Z</time>
      </trkpt>
      <trkpt lat="49.22377" lon="-0.44795">
        <ele>51.8</ele>
        <time>2023-04-28T12:53:35Z</time>
      </trkpt>
      <trkpt lat="49.22374" lon="-0.44788">
        <ele>52.2</ele>
        <time>2023-04-28T12:53:36Z</time>
      </trkpt>
      <trkpt lat="49.22371" lon="-0.44781">
        <ele>52.8</ele>
        <time>2023-04-28T12:53:37Z</time>
      </trkpt>
      <trkpt lat="49.22369" lon="-0.44774">
        <ele>53.2</ele>
        <time>2023-04-28T12:53:38Z</time>
      </trkpt>
      <trkpt lat="49.22366" lon="-0.44767">
        <ele>53.8</ele>
        <time>2023-04-28T12:53:39Z</time>
      </trkpt>
      <trkpt lat="49.22364" lon="-0.4476">
        <ele>54.2</ele>
        <time>2023-04-28T12:53:40Z</time>
      </trkpt>
      <trkpt lat="49.22361" lon="-0.44754">
        <ele>54.8</ele>
        <time>2023-04-28T12:53:41Z</time>
      </trkpt>
      <trkpt lat="49.22359" lon="-0.44748">
        <ele>55</ele>
        <time>2023-04-28T12:53:42Z</time>
      </trkpt>
      <trkpt lat="49.22357" lon="-0.44742">
        <ele>55.2</ele>
        <time>2023-04-28T12:53:43Z</time>
      </trkpt>
      <trkpt lat="49.22355" lon="-0.44736">
        <ele>55.4</ele>
        <time>2023-04-28T12:53:44Z</time>
      </trkpt>
      <trkpt lat="49.22353" lon="-0.4473">
        <ele>55.6</ele>
        <time>2023-04-28T12:53:45Z</time>
      </trkpt>
      <trkpt lat="49.22351" lon="-0.44725">
        <ele>55.6</ele>
        <time>2023-04-28T12:53:46Z</time>
      </trkpt>
      <trkpt lat="49.22349" lon="-0.44719">
        <ele>55.8</ele>
        <time>2023-04-28T12:53:47Z</time>
      </trkpt>
      <trkpt lat="49.22347" lon="-0.44714">
        <ele>55.8</ele>
        <time>2023-04-28T12:53:48Z</time>
      </trkpt>
      <trkpt lat="49.22345" lon="-0.44709">
        <ele>56</ele>
        <time>2023-04-28T12:53:49Z</time>
      </trkpt>
      <trkpt lat="49.22343" lon="-0.44703">
        <ele>56</ele>
        <time>2023-04-28T12:53:50Z</time>
      </trkpt>
      <trkpt lat="49.22341" lon="-0.44698">
        <ele>56</ele>
        <time>2023-04-28T12:53:51Z</time>
      </trkpt>
      <trkpt lat="49.22339" lon="-0.44693">
        <ele>56</ele>
        <time>2023-04-28T12:53:52Z</time>
      </trkpt>
      <trkpt lat="49.22338" lon="-0.44687">
        <ele>56</ele>
        <time>2023-04-28T12:53:53Z</time>
      </trkpt>
      <trkpt lat="49.22336" lon="-0.44682">
        <ele>56</ele>
        <time>2023-04-28T12:53:54Z</time>
      </trkpt>
      <trkpt lat="49.22334" lon="-0.44677">
        <ele>56</ele>
        <time>2023-04-28T12:53:55Z</time>
      </trkpt>
      <trkpt lat="49.22332" lon="-0.44672">
        <ele>56</ele>
        <time>2023-04-28T12:53:56Z</time>
      </trkpt>
      <trkpt lat="49.22331" lon="-0.44666">
        <ele>56</ele>
        <time>2023-04-28T12:53:57Z</time>
      </trkpt>
      <trkpt lat="49.22329" lon="-0.44661">
        <ele>56.2</ele>
        <time>2023-04-28T12:53:58Z</time>
      </trkpt>
      <trkpt lat="49.22327" lon="-0.44656">
        <ele>56.2</ele>
        <time>2023-04-28T12:53:59Z</time>
      </trkpt>
      <trkpt lat="49.22326" lon="-0.4465">
        <ele>56.4</ele>
        <time>2023-04-28T12:54:00Z</time>
      </trkpt>
      <trkpt lat="49.22324" lon="-0.44645">
        <ele>56.4</ele>
        <time>2023-04-28T12:54:01Z</time>
      </trkpt>
      <trkpt lat="49.22323" lon="-0.4464">
        <ele>56.6</ele>
        <time>2023-04-28T12:54:02Z</time>
      </trkpt>
      <trkpt lat="49.22321" lon="-0.44635">
        <ele>56.6</ele>
        <time>2023-04-28T12:54:03Z</time>
      </trkpt>
      <trkpt lat="49.22319" lon="-0.44629">
        <ele>56.8</ele>
        <time>2023-04-28T12:54:04Z</time>
      </trkpt>
      <trkpt lat="49.22317" lon="-0.44624">
        <ele>56.8</ele>
        <time>2023-04-28T12:54:05Z</time>
      </trkpt>
      <trkpt lat="49.22316" lon="-0.44619">
        <ele>57</ele>
        <time>2023-04-28T12:54:06Z</time>
      </trkpt>
      <trkpt lat="49.22314" lon="-0.44614">
        <ele>57</ele>
        <time>2023-04-28T12:54:07Z</time>
      </trkpt>
      <trkpt lat="49.22312" lon="-0.44608">
        <ele>57</ele>
        <time>2023-04-28T12:54:08Z</time>
      </trkpt>
      <trkpt lat="49.2231" lon="-0.44603">
        <ele>57</ele>
        <time>2023-04-28T12:54:09Z</time>
      </trkpt>
      <trkpt lat="49.22307" lon="-0.44597">
        <ele>57.2</ele>
        <time>2023-04-28T12:54:10Z</time>
      </trkpt>
      <trkpt lat="49.22305" lon="-0.44592">
        <ele>57.2</ele>
        <time>2023-04-28T12:54:11Z</time>
      </trkpt>
      <trkpt lat="49.22303" lon="-0.44587">
        <ele>57.2</ele>
        <time>2023-04-28T12:54:12Z</time>
      </trkpt>
      <trkpt lat="49.223" lon="-0.44581">
        <ele>57.4</ele>
        <time>2023-04-28T12:54:13Z</time>
      </trkpt>
      <trkpt lat="49.22298" lon="-0.44576">
        <ele>57.4</ele>
        <time>2023-04-28T12:54:14Z</time>
      </trkpt>
      <trkpt lat="49.22296" lon="-0.4457">
        <ele>57.6</ele>
        <time>2023-04-28T12:54:15Z</time>
      </trkpt>
      <trkpt lat="49.22293" lon="-0.44565">
        <ele>57.6</ele>
        <time>2023-04-28T12:54:16Z</time>
      </trkpt>
      <trkpt lat="49.2229" lon="-0.44559">
        <ele>57.6</ele>
        <time>2023-04-28T12:54:17Z</time>
      </trkpt>
      <trkpt lat="49.22288" lon="-0.44554">
        <ele>57.6</ele>
        <time>2023-04-28T12:54:18Z</time>
      </trkpt>
      <trkpt lat="49.22285" lon="-0.44548">
        <ele>57.6</ele>
        <time>2023-04-28T12:54:19Z</time>
      </trkpt>
      <trkpt lat="49.22282" lon="-0.44543">
        <ele>57.6</ele>
        <time>2023-04-28T12:54:20Z</time>
      </trkpt>
      <trkpt lat="49.22279" lon="-0.44538">
        <ele>57.6</ele>
        <time>2023-04-28T12:54:21Z</time>
      </trkpt>
      <trkpt lat="49.22277" lon="-0.44532">
        <ele>57.8</ele>
        <time>2023-04-28T12:54:22Z</time>
      </trkpt>
      <trkpt lat="49.22274" lon="-0.44527">
        <ele>57.8</ele>
        <time>2023-04-28T12:54:23Z</time>
      </trkpt>
      <trkpt lat="49.22271" lon="-0.44521">
        <ele>57.8</ele>
        <time>2023-04-28T12:54:24Z</time>
      </trkpt>
      <trkpt lat="49.22268" lon="-0.44516">
        <ele>57.8</ele>
        <time>2023-04-28T12:54:25Z</time>
      </trkpt>
      <trkpt lat="49.22265" lon="-0.4451">
        <ele>57.8</ele>
        <time>2023-04-28T12:54:26Z</time>
      </trkpt>
      <trkpt lat="49.22262" lon="-0.44505">
        <ele>58</ele>
        <time>2023-04-28T12:54:27Z</time>
      </trkpt>
      <trkpt lat="49.22259" lon="-0.445">
        <ele>58</ele>
        <time>2023-04-28T12:54:28Z</time>
      </trkpt>
      <trkpt lat="49.22256" lon="-0.44495">
        <ele>58</ele>
        <time>2023-04-28T12:54:29Z</time>
      </trkpt>
      <trkpt lat="49.22253" lon="-0.44489">
        <ele>58</ele>
        <time>2023-04-28T12:54:30Z</time>
      </trkpt>
      <trkpt lat="49.22251" lon="-0.44484">
        <ele>58</ele>
        <time>2023-04-28T12:54:31Z</time>
      </trkpt>
      <trkpt lat="49.22248" lon="-0.44479">
        <ele>58</ele>
        <time>2023-04-28T12:54:32Z</time>
      </trkpt>
      <trkpt lat="49.22245" lon="-0.44473">
        <ele>58</ele>
        <time>2023-04-28T12:54:33Z</time>
      </trkpt>
      <trkpt lat="49.22242" lon="-0.44467">
        <ele>58</ele>
        <time>2023-04-28T12:54:34Z</time>
      </trkpt>
      <trkpt lat="49.22239" lon="-0.44462">
        <ele>58</ele>
        <time>2023-04-28T12:54:35Z</time>
      </trkpt>
      <trkpt lat="49.22236" lon="-0.44456">
        <ele>58.2</ele>
        <time>2023-04-28T12:54:36Z</time>
      </trkpt>
      <trkpt lat="49.22233" lon="-0.4445">
        <ele>58.2</ele>
        <time>2023-04-28T12:54:37Z</time>
      </trkpt>
      <trkpt lat="49.2223" lon="-0.44444">
        <ele>58.2</ele>
        <time>2023-04-28T12:54:38Z</time>
      </trkpt>
      <trkpt lat="49.22227" lon="-0.44438">
        <ele>58.2</ele>
        <time>2023-04-28T12:54:39Z</time>
      </trkpt>
      <trkpt lat="49.22224" lon="-0.44432">
        <ele>58.2</ele>
        <time>2023-04-28T12:54:40Z</time>
      </trkpt>
      <trkpt lat="49.22222" lon="-0.44426">
        <ele>58.2</ele>
        <time>2023-04-28T12:54:41Z</time>
      </trkpt>
      <trkpt lat="49.22219" lon="-0.44419">
        <ele>58.4</ele>
        <time>2023-04-28T12:54:42Z</time>
      </trkpt>
      <trkpt lat="49.22216" lon="-0.44413">
        <ele>58.4</ele>
        <time>2023-04-28T12:54:43Z</time>
      </trkpt>
      <trkpt lat="49.22213" lon="-0.44406">
        <ele>58.6</ele>
        <time>2023-04-28T12:54:44Z</time>
      </trkpt>
      <trkpt lat="49.22211" lon="-0.444">
        <ele>58.6</ele>
        <time>2023-04-28T12:54:45Z</time>
      </trkpt>
      <trkpt lat="49.22208" lon="-0.44393">
        <ele>58.6</ele>
        <time>2023-04-28T12:54:46Z</time>
      </trkpt>
      <trkpt lat="49.22205" lon="-0.44387">
        <ele>58.8</ele>
        <time>2023-04-28T12:54:47Z</time>
      </trkpt>
      <trkpt lat="49.22203" lon="-0.4438">
        <ele>58.8</ele>
        <time>2023-04-28T12:54:48Z</time>
      </trkpt>
      <trkpt lat="49.222" lon="-0.44374">
        <ele>59</ele>
        <time>2023-04-28T12:54:49Z</time>
      </trkpt>
      <trkpt lat="49.22198" lon="-0.44367">
        <ele>59</ele>
        <time>2023-04-28T12:54:50Z</time>
      </trkpt>
      <trkpt lat="49.22195" lon="-0.44361">
        <ele>59</ele>
        <time>2023-04-28T12:54:51Z</time>
      </trkpt>
      <trkpt lat="49.22192" lon="-0.44355">
        <ele>59.2</ele>
        <time>2023-04-28T12:54:52Z</time>
      </trkpt>
      <trkpt lat="49.2219" lon="-0.44348">
        <ele>59.2</ele>
        <time>2023-04-28T12:54:53Z</time>
      </trkpt>
      <trkpt lat="49.22187" lon="-0.44342">
        <ele>59.4</ele>
        <time>2023-04-28T12:54:54Z</time>
      </trkpt>
      <trkpt lat="49.22185" lon="-0.44335">
        <ele>59.6</ele>
        <time>2023-04-28T12:54:55Z</time>
      </trkpt>
      <trkpt lat="49.22182" lon="-0.44329">
        <ele>59.6</ele>
        <time>2023-04-28T12:54:56Z</time>
      </trkpt>
      <trkpt lat="49.2218" lon="-0.44322">
        <ele>59.8</ele>
        <time>2023-04-28T12:54:57Z</time>
      </trkpt>
      <trkpt lat="49.22177" lon="-0.44316">
        <ele>59.8</ele>
        <time>2023-04-28T12:54:58Z</time>
      </trkpt>
      <trkpt lat="49.22175" lon="-0.44309">
        <ele>59.8</ele>
        <time>2023-04-28T12:54:59Z</time>
      </trkpt>
      <trkpt lat="49.22172" lon="-0.44302">
        <ele>60</ele>
        <time>2023-04-28T12:55:00Z</time>
      </trkpt>
      <trkpt lat="49.2217" lon="-0.44295">
        <ele>60</ele>
        <time>2023-04-28T12:55:01Z</time>
      </trkpt>
      <trkpt lat="49.22167" lon="-0.44288">
        <ele>60</ele>
        <time>2023-04-28T12:55:02Z</time>
      </trkpt>
      <trkpt lat="49.22165" lon="-0.44281">
        <ele>60</ele>
        <time>2023-04-28T12:55:03Z</time>
      </trkpt>
      <trkpt lat="49.22162" lon="-0.44274">
        <ele>60</ele>
        <time>2023-04-28T12:55:04Z</time>
      </trkpt>
      <trkpt lat="49.2216" lon="-0.44267">
        <ele>60</ele>
        <time>2023-04-28T12:55:05Z</time>
      </trkpt>
      <trkpt lat="49.22157" lon="-0.4426">
        <ele>60</ele>
        <time>2023-04-28T12:55:06Z</time>
      </trkpt>
      <trkpt lat="49.22154" lon="-0.44253">
        <ele>60</ele>
        <time>2023-04-28T12:55:07Z</time>
      </trkpt>
      <trkpt lat="49.22152" lon="-0.44246">
        <ele>60</ele>
        <time>2023-04-28T12:55:08Z</time>
      </trkpt>
      <trkpt lat="49.22149" lon="-0.44239">
        <ele>60</ele>
        <time>2023-04-28T12:55:09Z</time>
      </trkpt>
      <trkpt lat="49.22146" lon="-0.44232">
        <ele>60</ele>
        <time>2023-04-28T12:55:10Z</time>
      </trkpt>
      <trkpt lat="49.22144" lon="-0.44225">
        <ele>60</ele>
        <time>2023-04-28T12:55:11Z</time>
      </trkpt>
      <trkpt lat="49.22141" lon="-0.44218">
        <ele>60</ele>
        <time>2023-04-28T12:55:12Z</time>
      </trkpt>
      <trkpt lat="49.22138" lon="-0.44211">
        <ele>60</ele>
        <time>2023-04-28T12:55:13Z</time>
      </trkpt>
      <trkpt lat="49.22136" lon="-0.44204">
        <ele>60</ele>
        <time>2023-04-28T12:55:14Z</time>
      </trkpt>
      <trkpt lat="49.22133" lon="-0.44196">
        <ele>60</ele>
        <time>2023-04-28T12:55:15Z</time>
      </trkpt>
      <trkpt lat="49.2213" lon="-0.44189">
        <ele>60</ele>
        <time>2023-04-28T12:55:16Z</time>
      </trkpt>
      <trkpt lat="49.22127" lon="-0.44182">
        <ele>60</ele>
        <time>2023-04-28T12:55:17Z</time>
      </trkpt>
      <trkpt lat="49.22125" lon="-0.44174">
        <ele>60</ele>
        <time>2023-04-28T12:55:18Z</time>
      </trkpt>
      <trkpt lat="49.22122" lon="-0.44167">
        <ele>60</ele>
        <time>2023-04-28T12:55:19Z</time>
      </trkpt>
      <trkpt lat="49.22119" lon="-0.4416">
        <ele>60</ele>
        <time>2023-04-28T12:55:20Z</time>
      </trkpt>
      <trkpt lat="49.22116" lon="-0.44152">
        <ele>60</ele>
        <time>2023-04-28T12:55:21Z</time>
      </trkpt>
      <trkpt lat="49.22113" lon="-0.44145">
        <ele>60</ele>
        <time>2023-04-28T12:55:22Z</time>
      </trkpt>
      <trkpt lat="49.2211" lon="-0.44137">
        <ele>60</ele>
        <time>2023-04-28T12:55:23Z</time>
      </trkpt>
      <trkpt lat="49.22108" lon="-0.4413">
        <ele>59.8</ele>
        <time>2023-04-28T12:55:24Z</time>
      </trkpt>
      <trkpt lat="49.22104" lon="-0.44122">
        <ele>59.8</ele>
        <time>2023-04-28T12:55:25Z</time>
      </trkpt>
      <trkpt lat="49.22101" lon="-0.44115">
        <ele>59.6</ele>
        <time>2023-04-28T12:55:26Z</time>
      </trkpt>
      <trkpt lat="49.22098" lon="-0.44108">
        <ele>59.6</ele>
        <time>2023-04-28T12:55:27Z</time>
      </trkpt>
      <trkpt lat="49.22095" lon="-0.441">
        <ele>59.2</ele>
        <time>2023-04-28T12:55:28Z</time>
      </trkpt>
      <trkpt lat="49.22092" lon="-0.44093">
        <ele>59.2</ele>
        <time>2023-04-28T12:55:29Z</time>
      </trkpt>
      <trkpt lat="49.22088" lon="-0.44085">
        <ele>59</ele>
        <time>2023-04-28T12:55:30Z</time>
      </trkpt>
      <trkpt lat="49.22085" lon="-0.44078">
        <ele>59</ele>
        <time>2023-04-28T12:55:31Z</time>
      </trkpt>
      <trkpt lat="49.22082" lon="-0.44071">
        <ele>59.2</ele>
        <time>2023-04-28T12:55:32Z</time>
      </trkpt>
      <trkpt lat="49.22078" lon="-0.44063">
        <ele>59.2</ele>
        <time>2023-04-28T12:55:33Z</time>
      </trkpt>
      <trkpt lat="49.22075" lon="-0.44056">
        <ele>59.6</ele>
        <time>2023-04-28T12:55:34Z</time>
      </trkpt>
      <trkpt lat="49.22071" lon="-0.44049">
        <ele>59.6</ele>
        <time>2023-04-28T12:55:35Z</time>
      </trkpt>
      <trkpt lat="49.22068" lon="-0.44042">
        <ele>59.8</ele>
        <time>2023-04-28T12:55:36Z</time>
      </trkpt>
      <trkpt lat="49.22064" lon="-0.44034">
        <ele>60</ele>
        <time>2023-04-28T12:55:37Z</time>
      </trkpt>
      <trkpt lat="49.2206" lon="-0.44027">
        <ele>60</ele>
        <time>2023-04-28T12:55:38Z</time>
      </trkpt>
      <trkpt lat="49.22057" lon="-0.4402">
        <ele>60.2</ele>
        <time>2023-04-28T12:55:39Z</time>
      </trkpt>
      <trkpt lat="49.22053" lon="-0.44013">
        <ele>60.2</ele>
        <time>2023-04-28T12:55:40Z</time>
      </trkpt>
      <trkpt lat="49.22049" lon="-0.44005">
        <ele>60.4</ele>
        <time>2023-04-28T12:55:41Z</time>
      </trkpt>
      <trkpt lat="49.22045" lon="-0.43998">
        <ele>60.6</ele>
        <time>2023-04-28T12:55:42Z</time>
      </trkpt>
      <trkpt lat="49.22042" lon="-0.43991">
        <ele>60.6</ele>
        <time>2023-04-28T12:55:43Z</time>
      </trkpt>
      <trkpt lat="49.22038" lon="-0.43983">
        <ele>60.6</ele>
        <time>2023-04-28T12:55:44Z</time>
      </trkpt>
      <trkpt lat="49.22034" lon="-0.43976">
        <ele>60.6</ele>
        <time>2023-04-28T12:55:45Z</time>
      </trkpt>
      <trkpt lat="49.2203" lon="-0.43968">
        <ele>60.6</ele>
        <time>2023-04-28T12:55:46Z</time>
      </trkpt>
      <trkpt lat="49.22026" lon="-0.43961">
        <ele>60.8</ele>
        <time>2023-04-28T12:55:47Z</time>
      </trkpt>
      <trkpt lat="49.22022" lon="-0.43953">
        <ele>60.8</ele>
        <time>2023-04-28T12:55:48Z</time>
      </trkpt>
      <trkpt lat="49.22018" lon="-0.43945">
        <ele>60.8</ele>
        <time>2023-04-28T12:55:49Z</time>
      </trkpt>
      <trkpt lat="49.22014" lon="-0.43938">
        <ele>60.8</ele>
        <time>2023-04-28T12:55:50Z</time>
      </trkpt>
      <trkpt lat="49.2201" lon="-0.43931">
        <ele>61</ele>
        <time>2023-04-28T12:55:51Z</time>
      </trkpt>
      <trkpt lat="49.22007" lon="-0.43923">
        <ele>61</ele>
        <time>2023-04-28T12:55:52Z</time>
      </trkpt>
      <trkpt lat="49.22002" lon="-0.43916">
        <ele>61</ele>
        <time>2023-04-28T12:55:53Z</time>
      </trkpt>
      <trkpt lat="49.21998" lon="-0.43908">
        <ele>61</ele>
        <time>2023-04-28T12:55:54Z</time>
      </trkpt>
      <trkpt lat="49.21995" lon="-0.43901">
        <ele>60.8</ele>
        <time>2023-04-28T12:55:55Z</time>
      </trkpt>
      <trkpt lat="49.21991" lon="-0.43894">
        <ele>60.8</ele>
        <time>2023-04-28T12:55:56Z</time>
      </trkpt>
      <trkpt lat="49.21987" lon="-0.43886">
        <ele>60.8</ele>
        <time>2023-04-28T12:55:57Z</time>
      </trkpt>
      <trkpt lat="49.21983" lon="-0.43879">
        <ele>60.6</ele>
        <time>2023-04-28T12:55:58Z</time>
      </trkpt>
      <trkpt lat="49.21979" lon="-0.43872">
        <ele>60.6</ele>
        <time>2023-04-28T12:55:59Z</time>
      </trkpt>
      <trkpt lat="49.21975" lon="-0.43865">
        <ele>60.6</ele>
        <time>2023-04-28T12:56:00Z</time>
      </trkpt>
      <trkpt lat="49.21971" lon="-0.43858">
        <ele>60.6</ele>
        <time>2023-04-28T12:56:01Z</time>
      </trkpt>
      <trkpt lat="49.21967" lon="-0.43851">
        <ele>60.6</ele>
        <time>2023-04-28T12:56:02Z</time>
      </trkpt>
      <trkpt lat="49.21962" lon="-0.43845">
        <ele>60.6</ele>
        <time>2023-04-28T12:56:03Z</time>
      </trkpt>
      <trkpt lat="49.21958" lon="-0.43838">
        <ele>60.6</ele>
        <time>2023-04-28T12:56:04Z</time>
      </trkpt>
      <trkpt lat="49.21953" lon="-0.43832">
        <ele>60.6</ele>
        <time>2023-04-28T12:56:05Z</time>
      </trkpt>
      <trkpt lat="49.21948" lon="-0.43825">
        <ele>60.8</ele>
        <time>2023-04-28T12:56:06Z</time>
      </trkpt>
      <trkpt lat="49.21943" lon="-0.4382">
        <ele>60.8</ele>
        <time>2023-04-28T12:56:07Z</time>
      </trkpt>
      <trkpt lat="49.21938" lon="-0.43814">
        <ele>61</ele>
        <time>2023-04-28T12:56:08Z</time>
      </trkpt>
      <trkpt lat="49.21933" lon="-0.43808">
        <ele>61</ele>
        <time>2023-04-28T12:56:09Z</time>
      </trkpt>
      <trkpt lat="49.21928" lon="-0.43803">
        <ele>61.2</ele>
        <time>2023-04-28T12:56:10Z</time>
      </trkpt>
      <trkpt lat="49.21923" lon="-0.43798">
        <ele>61.2</ele>
        <time>2023-04-28T12:56:11Z</time>
      </trkpt>
      <trkpt lat="49.21917" lon="-0.43793">
        <ele>61.6</ele>
        <time>2023-04-28T12:56:12Z</time>
      </trkpt>
      <trkpt lat="49.21912" lon="-0.43789">
        <ele>61.6</ele>
        <time>2023-04-28T12:56:13Z</time>
      </trkpt>
      <trkpt lat="49.21906" lon="-0.43784">
        <ele>61.6</ele>
        <time>2023-04-28T12:56:14Z</time>
      </trkpt>
      <trkpt lat="49.219" lon="-0.4378">
        <ele>61.6</ele>
        <time>2023-04-28T12:56:15Z</time>
      </trkpt>
      <trkpt lat="49.21894" lon="-0.43775">
        <ele>61.8</ele>
        <time>2023-04-28T12:56:16Z</time>
      </trkpt>
      <trkpt lat="49.21889" lon="-0.43771">
        <ele>61.8</ele>
        <time>2023-04-28T12:56:17Z</time>
      </trkpt>
      <trkpt lat="49.21883" lon="-0.43767">
        <ele>61.8</ele>
        <time>2023-04-28T12:56:18Z</time>
      </trkpt>
      <trkpt lat="49.21877" lon="-0.43763">
        <ele>61.8</ele>
        <time>2023-04-28T12:56:19Z</time>
      </trkpt>
      <trkpt lat="49.21871" lon="-0.4376">
        <ele>62</ele>
        <time>2023-04-28T12:56:20Z</time>
      </trkpt>
      <trkpt lat="49.21865" lon="-0.43756">
        <ele>62</ele>
        <time>2023-04-28T12:56:21Z</time>
      </trkpt>
      <trkpt lat="49.21859" lon="-0.43752">
        <ele>62</ele>
        <time>2023-04-28T12:56:22Z</time>
      </trkpt>
      <trkpt lat="49.21853" lon="-0.43748">
        <ele>62</ele>
        <time>2023-04-28T12:56:23Z</time>
      </trkpt>
      <trkpt lat="49.21847" lon="-0.43745">
        <ele>62</ele>
        <time>2023-04-28T12:56:24Z</time>
      </trkpt>
      <trkpt lat="49.21842" lon="-0.4374">
        <ele>62</ele>
        <time>2023-04-28T12:56:25Z</time>
      </trkpt>
      <trkpt lat="49.21836" lon="-0.43735">
        <ele>61.8</ele>
        <time>2023-04-28T12:56:26Z</time>
      </trkpt>
      <trkpt lat="49.21831" lon="-0.4373">
        <ele>61.8</ele>
        <time>2023-04-28T12:56:27Z</time>
      </trkpt>
      <trkpt lat="49.21826" lon="-0.43724">
        <ele>61.6</ele>
        <time>2023-04-28T12:56:28Z</time>
      </trkpt>
      <trkpt lat="49.21821" lon="-0.43718">
        <ele>61.6</ele>
        <time>2023-04-28T12:56:29Z</time>
      </trkpt>
      <trkpt lat="49.21817" lon="-0.43711">
        <ele>61.4</ele>
        <time>2023-04-28T12:56:30Z</time>
      </trkpt>
      <trkpt lat="49.21813" lon="-0.43704">
        <ele>61.2</ele>
        <time>2023-04-28T12:56:31Z</time>
      </trkpt>
      <trkpt lat="49.21809" lon="-0.43696">
        <ele>61.2</ele>
        <time>2023-04-28T12:56:32Z</time>
      </trkpt>
      <trkpt lat="49.21806" lon="-0.43688">
        <ele>61.2</ele>
        <time>2023-04-28T12:56:33Z</time>
      </trkpt>
      <trkpt lat="49.21802" lon="-0.4368">
        <ele>61</ele>
        <time>2023-04-28T12:56:34Z</time>
      </trkpt>
      <trkpt lat="49.21799" lon="-0.43672">
        <ele>61</ele>
        <time>2023-04-28T12:56:35Z</time>
      </trkpt>
      <trkpt lat="49.21795" lon="-0.43664">
        <ele>61</ele>
        <time>2023-04-28T12:56:36Z</time>
      </trkpt>
      <trkpt lat="49.21792" lon="-0.43655">
        <ele>61</ele>
        <time>2023-04-28T12:56:37Z</time>
      </trkpt>
      <trkpt lat="49.21788" lon="-0.43647">
        <ele>61</ele>
        <time>2023-04-28T12:56:38Z</time>
      </trkpt>
      <trkpt lat="49.21784" lon="-0.43638">
        <ele>60.8</ele>
        <time>2023-04-28T12:56:39Z</time>
      </trkpt>
      <trkpt lat="49.21781" lon="-0.4363">
        <ele>60.8</ele>
        <time>2023-04-28T12:56:40Z</time>
      </trkpt>
      <trkpt lat="49.21777" lon="-0.43621">
        <ele>60.6</ele>
        <time>2023-04-28T12:56:41Z</time>
      </trkpt>
      <trkpt lat="49.21773" lon="-0.43613">
        <ele>60.6</ele>
        <time>2023-04-28T12:56:42Z</time>
      </trkpt>
      <trkpt lat="49.21769" lon="-0.43604">
        <ele>60.4</ele>
        <time>2023-04-28T12:56:43Z</time>
      </trkpt>
      <trkpt lat="49.21765" lon="-0.43595">
        <ele>60.2</ele>
        <time>2023-04-28T12:56:44Z</time>
      </trkpt>
      <trkpt lat="49.21762" lon="-0.43586">
        <ele>60.2</ele>
        <time>2023-04-28T12:56:45Z</time>
      </trkpt>
      <trkpt lat="49.21758" lon="-0.43577">
        <ele>60.2</ele>
        <time>2023-04-28T12:56:46Z</time>
      </trkpt>
      <trkpt lat="49.21754" lon="-0.43568">
        <ele>60.2</ele>
        <time>2023-04-28T12:56:47Z</time>
      </trkpt>
      <trkpt lat="49.21751" lon="-0.4356">
        <ele>60.2</ele>
        <time>2023-04-28T12:56:48Z</time>
      </trkpt>
      <trkpt lat="49.21747" lon="-0.43551">
        <ele>60.4</ele>
        <time>2023-04-28T12:56:49Z</time>
      </trkpt>
      <trkpt lat="49.21743" lon="-0.43542">
        <ele>60.6</ele>
        <time>2023-04-28T12:56:50Z</time>
      </trkpt>
      <trkpt lat="49.21739" lon="-0.43533">
        <ele>60.8</ele>
        <time>2023-04-28T12:56:51Z</time>
      </trkpt>
      <trkpt lat="49.21735" lon="-0.43524">
        <ele>60.8</ele>
        <time>2023-04-28T12:56:52Z</time>
      </trkpt>
      <trkpt lat="49.2173" lon="-0.43516">
        <ele>61</ele>
        <time>2023-04-28T12:56:53Z</time>
      </trkpt>
      <trkpt lat="49.21725" lon="-0.43508">
        <ele>61</ele>
        <time>2023-04-28T12:56:54Z</time>
      </trkpt>
      <trkpt lat="49.2172" lon="-0.435">
        <ele>61</ele>
        <time>2023-04-28T12:56:55Z</time>
      </trkpt>
      <trkpt lat="49.21715" lon="-0.43492">
        <ele>61</ele>
        <time>2023-04-28T12:56:56Z</time>
      </trkpt>
      <trkpt lat="49.21709" lon="-0.43485">
        <ele>61</ele>
        <time>2023-04-28T12:56:57Z</time>
      </trkpt>
      <trkpt lat="49.21703" lon="-0.43478">
        <ele>61</ele>
        <time>2023-04-28T12:56:58Z</time>
      </trkpt>
      <trkpt lat="49.21697" lon="-0.43472">
        <ele>61</ele>
        <time>2023-04-28T12:56:59Z</time>
      </trkpt>
      <trkpt lat="49.21692" lon="-0.43466">
        <ele>61.2</ele>
        <time>2023-04-28T12:57:00Z</time>
      </trkpt>
      <trkpt lat="49.21686" lon="-0.4346">
        <ele>61.2</ele>
        <time>2023-04-28T12:57:01Z</time>
      </trkpt>
      <trkpt lat="49.2168" lon="-0.43455">
        <ele>61.4</ele>
        <time>2023-04-28T12:57:02Z</time>
      </trkpt>
      <trkpt lat="49.21675" lon="-0.43449">
        <ele>61.6</ele>
        <time>2023-04-28T12:57:03Z</time>
      </trkpt>
      <trkpt lat="49.21669" lon="-0.43444">
        <ele>61.6</ele>
        <time>2023-04-28T12:57:04Z</time>
      </trkpt>
      <trkpt lat="49.21663" lon="-0.43438">
        <ele>61.8</ele>
        <time>2023-04-28T12:57:05Z</time>
      </trkpt>
      <trkpt lat="49.21658" lon="-0.43433">
        <ele>61.8</ele>
        <time>2023-04-28T12:57:06Z</time>
      </trkpt>
      <trkpt lat="49.21653" lon="-0.43427">
        <ele>61.8</ele>
        <time>2023-04-28T12:57:07Z</time>
      </trkpt>
      <trkpt lat="49.21648" lon="-0.43421">
        <ele>61.8</ele>
        <time>2023-04-28T12:57:08Z</time>
      </trkpt>
      <trkpt lat="49.21643" lon="-0.43415">
        <ele>61.8</ele>
        <time>2023-04-28T12:57:09Z</time>
      </trkpt>
      <trkpt lat="49.21638" lon="-0.43409">
        <ele>61.6</ele>
        <time>2023-04-28T12:57:10Z</time>
      </trkpt>
      <trkpt lat="49.21633" lon="-0.43402">
        <ele>61.6</ele>
        <time>2023-04-28T12:57:11Z</time>
      </trkpt>
      <trkpt lat="49.21628" lon="-0.43396">
        <ele>61.4</ele>
        <time>2023-04-28T12:57:12Z</time>
      </trkpt>
      <trkpt lat="49.21624" lon="-0.43389">
        <ele>61.2</ele>
        <time>2023-04-28T12:57:13Z</time>
      </trkpt>
      <trkpt lat="49.21619" lon="-0.43382">
        <ele>61.2</ele>
        <time>2023-04-28T12:57:14Z</time>
      </trkpt>
      <trkpt lat="49.21615" lon="-0.43375">
        <ele>61.2</ele>
        <time>2023-04-28T12:57:15Z</time>
      </trkpt>
      <trkpt lat="49.2161" lon="-0.43367">
        <ele>61</ele>
        <time>2023-04-28T12:57:16Z</time>
      </trkpt>
      <trkpt lat="49.21606" lon="-0.4336">
        <ele>61</ele>
        <time>2023-04-28T12:57:17Z</time>
      </trkpt>
      <trkpt lat="49.21601" lon="-0.43352">
        <ele>61</ele>
        <time>2023-04-28T12:57:18Z</time>
      </trkpt>
      <trkpt lat="49.21597" lon="-0.43344">
        <ele>61</ele>
        <time>2023-04-28T12:57:19Z</time>
      </trkpt>
      <trkpt lat="49.21592" lon="-0.43336">
        <ele>61</ele>
        <time>2023-04-28T12:57:20Z</time>
      </trkpt>
      <trkpt lat="49.21588" lon="-0.43328">
        <ele>61</ele>
        <time>2023-04-28T12:57:21Z</time>
      </trkpt>
      <trkpt lat="49.21583" lon="-0.43321">
        <ele>61</ele>
        <time>2023-04-28T12:57:22Z</time>
      </trkpt>
      <trkpt lat="49.21578" lon="-0.43313">
        <ele>60.8</ele>
        <time>2023-04-28T12:57:23Z</time>
      </trkpt>
      <trkpt lat="49.21573" lon="-0.43306">
        <ele>60.8</ele>
        <time>2023-04-28T12:57:24Z</time>
      </trkpt>
      <trkpt lat="49.21568" lon="-0.43299">
        <ele>60.8</ele>
        <time>2023-04-28T12:57:25Z</time>
      </trkpt>
      <trkpt lat="49.21562" lon="-0.43293">
        <ele>60.6</ele>
        <time>2023-04-28T12:57:26Z</time>
      </trkpt>
      <trkpt lat="49.21557" lon="-0.43286">
        <ele>60.6</ele>
        <time>2023-04-28T12:57:27Z</time>
      </trkpt>
      <trkpt lat="49.21551" lon="-0.4328">
        <ele>60.6</ele>
        <time>2023-04-28T12:57:28Z</time>
      </trkpt>
      <trkpt lat="49.21545" lon="-0.43275">
        <ele>60.4</ele>
        <time>2023-04-28T12:57:29Z</time>
      </trkpt>
      <trkpt lat="49.21539" lon="-0.43269">
        <ele>60.2</ele>
        <time>2023-04-28T12:57:30Z</time>
      </trkpt>
      <trkpt lat="49.21533" lon="-0.43264">
        <ele>60.2</ele>
        <time>2023-04-28T12:57:31Z</time>
      </trkpt>
      <trkpt lat="49.21527" lon="-0.43258">
        <ele>60.2</ele>
        <time>2023-04-28T12:57:32Z</time>
      </trkpt>
      <trkpt lat="49.2152" lon="-0.43254">
        <ele>60</ele>
        <time>2023-04-28T12:57:33Z</time>
      </trkpt>
      <trkpt lat="49.21514" lon="-0.43248">
        <ele>60</ele>
        <time>2023-04-28T12:57:34Z</time>
      </trkpt>
      <trkpt lat="49.21508" lon="-0.43244">
        <ele>60</ele>
        <time>2023-04-28T12:57:35Z</time>
      </trkpt>
      <trkpt lat="49.21501" lon="-0.43239">
        <ele>60</ele>
        <time>2023-04-28T12:57:36Z</time>
      </trkpt>
      <trkpt lat="49.21495" lon="-0.43233">
        <ele>60</ele>
        <time>2023-04-28T12:57:37Z</time>
      </trkpt>
      <trkpt lat="49.21489" lon="-0.43228">
        <ele>60</ele>
        <time>2023-04-28T12:57:38Z</time>
      </trkpt>
      <trkpt lat="49.21483" lon="-0.43223">
        <ele>59.8</ele>
        <time>2023-04-28T12:57:39Z</time>
      </trkpt>
      <trkpt lat="49.21477" lon="-0.43217">
        <ele>59.8</ele>
        <time>2023-04-28T12:57:40Z</time>
      </trkpt>
      <trkpt lat="49.21471" lon="-0.43211">
        <ele>59.8</ele>
        <time>2023-04-28T12:57:41Z</time>
      </trkpt>
      <trkpt lat="49.21465" lon="-0.43204">
        <ele>59.6</ele>
        <time>2023-04-28T12:57:42Z</time>
      </trkpt>
      <trkpt lat="49.2146" lon="-0.43197">
        <ele>59.6</ele>
        <time>2023-04-28T12:57:43Z</time>
      </trkpt>
      <trkpt lat="49.21455" lon="-0.43189">
        <ele>59.6</ele>
        <time>2023-04-28T12:57:44Z</time>
      </trkpt>
      <trkpt lat="49.21451" lon="-0.4318">
        <ele>59.4</ele>
        <time>2023-04-28T12:57:45Z</time>
      </trkpt>
      <trkpt lat="49.21447" lon="-0.43171">
        <ele>59.4</ele>
        <time>2023-04-28T12:57:46Z</time>
      </trkpt>
      <trkpt lat="49.21443" lon="-0.43162">
        <ele>59.2</ele>
        <time>2023-04-28T12:57:47Z</time>
      </trkpt>
      <trkpt lat="49.21439" lon="-0.43152">
        <ele>59</ele>
        <time>2023-04-28T12:57:48Z</time>
      </trkpt>
      <trkpt lat="49.21434" lon="-0.43142">
        <ele>59</ele>
        <time>2023-04-28T12:57:49Z</time>
      </trkpt>
      <trkpt lat="49.2143" lon="-0.43133">
        <ele>58.8</ele>
        <time>2023-04-28T12:57:50Z</time>
      </trkpt>
      <trkpt lat="49.21426" lon="-0.43123">
        <ele>58.6</ele>
        <time>2023-04-28T12:57:51Z</time>
      </trkpt>
      <trkpt lat="49.21422" lon="-0.43113">
        <ele>58.4</ele>
        <time>2023-04-28T12:57:52Z</time>
      </trkpt>
      <trkpt lat="49.21417" lon="-0.43103">
        <ele>58.2</ele>
        <time>2023-04-28T12:57:53Z</time>
      </trkpt>
      <trkpt lat="49.21413" lon="-0.43093">
        <ele>58.2</ele>
        <time>2023-04-28T12:57:54Z</time>
      </trkpt>
      <trkpt lat="49.21409" lon="-0.43082">
        <ele>58</ele>
        <time>2023-04-28T12:57:55Z</time>
      </trkpt>
      <trkpt lat="49.21404" lon="-0.43072">
        <ele>58</ele>
        <time>2023-04-28T12:57:56Z</time>
      </trkpt>
      <trkpt lat="49.214" lon="-0.43062">
        <ele>58</ele>
        <time>2023-04-28T12:57:57Z</time>
      </trkpt>
      <trkpt lat="49.21396" lon="-0.43051">
        <ele>58</ele>
        <time>2023-04-28T12:57:58Z</time>
      </trkpt>
      <trkpt lat="49.21391" lon="-0.43041">
        <ele>58</ele>
        <time>2023-04-28T12:57:59Z</time>
      </trkpt>
      <trkpt lat="49.21387" lon="-0.43031">
        <ele>58</ele>
        <time>2023-04-28T12:58:00Z</time>
      </trkpt>
      <trkpt lat="49.21383" lon="-0.43021">
        <ele>58</ele>
        <time>2023-04-28T12:58:01Z</time>
      </trkpt>
      <trkpt lat="49.21379" lon="-0.43011">
        <ele>58</ele>
        <time>2023-04-28T12:58:02Z</time>
      </trkpt>
      <trkpt lat="49.21374" lon="-0.43001">
        <ele>58</ele>
        <time>2023-04-28T12:58:03Z</time>
      </trkpt>
      <trkpt lat="49.2137" lon="-0.42991">
        <ele>58.2</ele>
        <time>2023-04-28T12:58:04Z</time>
      </trkpt>
      <trkpt lat="49.21366" lon="-0.42982">
        <ele>58.6</ele>
        <time>2023-04-28T12:58:05Z</time>
      </trkpt>
      <trkpt lat="49.21362" lon="-0.42972">
        <ele>58.8</ele>
        <time>2023-04-28T12:58:06Z</time>
      </trkpt>
      <trkpt lat="49.21358" lon="-0.42963">
        <ele>59</ele>
        <time>2023-04-28T12:58:07Z</time>
      </trkpt>
      <trkpt lat="49.21354" lon="-0.42953">
        <ele>59.2</ele>
        <time>2023-04-28T12:58:08Z</time>
      </trkpt>
      <trkpt lat="49.2135" lon="-0.42944">
        <ele>59.4</ele>
        <time>2023-04-28T12:58:09Z</time>
      </trkpt>
      <trkpt lat="49.21346" lon="-0.42934">
        <ele>59.6</ele>
        <time>2023-04-28T12:58:10Z</time>
      </trkpt>
      <trkpt lat="49.21342" lon="-0.42925">
        <ele>59.8</ele>
        <time>2023-04-28T12:58:11Z</time>
      </trkpt>
      <trkpt lat="49.21339" lon="-0.42916">
        <ele>60</ele>
        <time>2023-04-28T12:58:12Z</time>
      </trkpt>
      <trkpt lat="49.21335" lon="-0.42907">
        <ele>60</ele>
        <time>2023-04-28T12:58:13Z</time>
      </trkpt>
      <trkpt lat="49.21331" lon="-0.42897">
        <ele>60</ele>
        <time>2023-04-28T12:58:14Z</time>
      </trkpt>
      <trkpt lat="49.21328" lon="-0.42888">
        <ele>60</ele>
        <time>2023-04-28T12:58:15Z</time>
      </trkpt>
      <trkpt lat="49.21324" lon="-0.42879">
        <ele>60</ele>
        <time>2023-04-28T12:58:16Z</time>
      </trkpt>
      <trkpt lat="49.21321" lon="-0.4287">
        <ele>60</ele>
        <time>2023-04-28T12:58:17Z</time>
      </trkpt>
      <trkpt lat="49.21317" lon="-0.42861">
        <ele>60</ele>
        <time>2023-04-28T12:58:18Z</time>
      </trkpt>
      <trkpt lat="49.21314" lon="-0.42852">
        <ele>60</ele>
        <time>2023-04-28T12:58:19Z</time>
      </trkpt>
      <trkpt lat="49.2131" lon="-0.42843">
        <ele>60</ele>
        <time>2023-04-28T12:58:20Z</time>
      </trkpt>
      <trkpt lat="49.21307" lon="-0.42834">
        <ele>60</ele>
        <time>2023-04-28T12:58:21Z</time>
      </trkpt>
      <trkpt lat="49.21303" lon="-0.42825">
        <ele>60</ele>
        <time>2023-04-28T12:58:22Z</time>
      </trkpt>
      <trkpt lat="49.213" lon="-0.42816">
        <ele>60.2</ele>
        <time>2023-04-28T12:58:23Z</time>
      </trkpt>
      <trkpt lat="49.21296" lon="-0.42807">
        <ele>60.2</ele>
        <time>2023-04-28T12:58:24Z</time>
      </trkpt>
      <trkpt lat="49.21293" lon="-0.42798">
        <ele>60.4</ele>
        <time>2023-04-28T12:58:25Z</time>
      </trkpt>
      <trkpt lat="49.21289" lon="-0.42789">
        <ele>60.6</ele>
        <time>2023-04-28T12:58:26Z</time>
      </trkpt>
      <trkpt lat="49.21286" lon="-0.4278">
        <ele>60.6</ele>
        <time>2023-04-28T12:58:27Z</time>
      </trkpt>
      <trkpt lat="49.21282" lon="-0.42772">
        <ele>60.8</ele>
        <time>2023-04-28T12:58:28Z</time>
      </trkpt>
      <trkpt lat="49.21278" lon="-0.42763">
        <ele>60.8</ele>
        <time>2023-04-28T12:58:29Z</time>
      </trkpt>
      <trkpt lat="49.21275" lon="-0.42754">
        <ele>61</ele>
        <time>2023-04-28T12:58:30Z</time>
      </trkpt>
      <trkpt lat="49.21271" lon="-0.42746">
        <ele>61</ele>
        <time>2023-04-28T12:58:31Z</time>
      </trkpt>
      <trkpt lat="49.21267" lon="-0.42737">
        <ele>61</ele>
        <time>2023-04-28T12:58:32Z</time>
      </trkpt>
      <trkpt lat="49.21263" lon="-0.42729">
        <ele>61.2</ele>
        <time>2023-04-28T12:58:33Z</time>
      </trkpt>
      <trkpt lat="49.21258" lon="-0.4272">
        <ele>61.2</ele>
        <time>2023-04-28T12:58:34Z</time>
      </trkpt>
      <trkpt lat="49.21253" lon="-0.42714">
        <ele>61.4</ele>
        <time>2023-04-28T12:58:35Z</time>
      </trkpt>
      <trkpt lat="49.21247" lon="-0.42709">
        <ele>61.6</ele>
        <time>2023-04-28T12:58:36Z</time>
      </trkpt>
      <trkpt lat="49.21241" lon="-0.42704">
        <ele>61.4</ele>
        <time>2023-04-28T12:58:37Z</time>
      </trkpt>
      <trkpt lat="49.21237" lon="-0.42696">
        <ele>61.6</ele>
        <time>2023-04-28T12:58:38Z</time>
      </trkpt>
      <trkpt lat="49.21234" lon="-0.42687">
        <ele>61.6</ele>
        <time>2023-04-28T12:58:39Z</time>
      </trkpt>
      <trkpt lat="49.21233" lon="-0.42677">
        <ele>61.8</ele>
        <time>2023-04-28T12:58:40Z</time>
      </trkpt>
      <trkpt lat="49.21231" lon="-0.42667">
        <ele>61.8</ele>
        <time>2023-04-28T12:58:41Z</time>
      </trkpt>
      <trkpt lat="49.21229" lon="-0.42658">
        <ele>61.8</ele>
        <time>2023-04-28T12:58:42Z</time>
      </trkpt>
      <trkpt lat="49.21225" lon="-0.42649">
        <ele>61.8</ele>
        <time>2023-04-28T12:58:43Z</time>
      </trkpt>
      <trkpt lat="49.21221" lon="-0.4264">
        <ele>61.8</ele>
        <time>2023-04-28T12:58:44Z</time>
      </trkpt>
      <trkpt lat="49.21217" lon="-0.42632">
        <ele>61.6</ele>
        <time>2023-04-28T12:58:45Z</time>
      </trkpt>
      <trkpt lat="49.21213" lon="-0.42624">
        <ele>61.6</ele>
        <time>2023-04-28T12:58:46Z</time>
      </trkpt>
      <trkpt lat="49.21208" lon="-0.42615">
        <ele>61.6</ele>
        <time>2023-04-28T12:58:47Z</time>
      </trkpt>
      <trkpt lat="49.21204" lon="-0.42607">
        <ele>61.4</ele>
        <time>2023-04-28T12:58:48Z</time>
      </trkpt>
      <trkpt lat="49.21199" lon="-0.42599">
        <ele>61.4</ele>
        <time>2023-04-28T12:58:49Z</time>
      </trkpt>
      <trkpt lat="49.21195" lon="-0.4259">
        <ele>61.2</ele>
        <time>2023-04-28T12:58:50Z</time>
      </trkpt>
      <trkpt lat="49.2119" lon="-0.42582">
        <ele>61.2</ele>
        <time>2023-04-28T12:58:51Z</time>
      </trkpt>
      <trkpt lat="49.21186" lon="-0.42574">
        <ele>61.4</ele>
        <time>2023-04-28T12:58:52Z</time>
      </trkpt>
      <trkpt lat="49.21181" lon="-0.42566">
        <ele>61.6</ele>
        <time>2023-04-28T12:58:53Z</time>
      </trkpt>
      <trkpt lat="49.21177" lon="-0.42557">
        <ele>61.8</ele>
        <time>2023-04-28T12:58:54Z</time>
      </trkpt>
      <trkpt lat="49.21172" lon="-0.42549">
        <ele>62</ele>
        <time>2023-04-28T12:58:55Z</time>
      </trkpt>
      <trkpt lat="49.21168" lon="-0.42541">
        <ele>62</ele>
        <time>2023-04-28T12:58:56Z</time>
      </trkpt>
      <trkpt lat="49.21163" lon="-0.42533">
        <ele>62.2</ele>
        <time>2023-04-28T12:58:57Z</time>
      </trkpt>
      <trkpt lat="49.21158" lon="-0.42525">
        <ele>62.2</ele>
        <time>2023-04-28T12:58:58Z</time>
      </trkpt>
      <trkpt lat="49.21154" lon="-0.42517">
        <ele>62.4</ele>
        <time>2023-04-28T12:58:59Z</time>
      </trkpt>
      <trkpt lat="49.21149" lon="-0.42509">
        <ele>62.4</ele>
        <time>2023-04-28T12:59:00Z</time>
      </trkpt>
      <trkpt lat="49.21144" lon="-0.42501">
        <ele>62.6</ele>
        <time>2023-04-28T12:59:01Z</time>
      </trkpt>
      <trkpt lat="49.2114" lon="-0.42493">
        <ele>62.4</ele>
        <time>2023-04-28T12:59:02Z</time>
      </trkpt>
      <trkpt lat="49.21135" lon="-0.42485">
        <ele>62.2</ele>
        <time>2023-04-28T12:59:03Z</time>
      </trkpt>
      <trkpt lat="49.21131" lon="-0.42477">
        <ele>62.2</ele>
        <time>2023-04-28T12:59:04Z</time>
      </trkpt>
      <trkpt lat="49.21126" lon="-0.42469">
        <ele>62.2</ele>
        <time>2023-04-28T12:59:05Z</time>
      </trkpt>
      <trkpt lat="49.21122" lon="-0.42461">
        <ele>62.2</ele>
        <time>2023-04-28T12:59:06Z</time>
      </trkpt>
      <trkpt lat="49.21117" lon="-0.42453">
        <ele>62.2</ele>
        <time>2023-04-28T12:59:07Z</time>
      </trkpt>
      <trkpt lat="49.21112" lon="-0.42445">
        <ele>62.2</ele>
        <time>2023-04-28T12:59:08Z</time>
      </trkpt>
      <trkpt lat="49.21107" lon="-0.42438">
        <ele>62.4</ele>
        <time>2023-04-28T12:59:09Z</time>
      </trkpt>
      <trkpt lat="49.21102" lon="-0.42431">
        <ele>62.6</ele>
        <time>2023-04-28T12:59:10Z</time>
      </trkpt>
      <trkpt lat="49.21097" lon="-0.42423">
        <ele>62.8</ele>
        <time>2023-04-28T12:59:11Z</time>
      </trkpt>
      <trkpt lat="49.21092" lon="-0.42416">
        <ele>63</ele>
        <time>2023-04-28T12:59:12Z</time>
      </trkpt>
      <trkpt lat="49.21087" lon="-0.42409">
        <ele>63</ele>
        <time>2023-04-28T12:59:13Z</time>
      </trkpt>
      <trkpt lat="49.21081" lon="-0.42402">
        <ele>63.4</ele>
        <time>2023-04-28T12:59:14Z</time>
      </trkpt>
      <trkpt lat="49.21076" lon="-0.42395">
        <ele>63.6</ele>
        <time>2023-04-28T12:59:15Z</time>
      </trkpt>
      <trkpt lat="49.21071" lon="-0.42388">
        <ele>63.6</ele>
        <time>2023-04-28T12:59:16Z</time>
      </trkpt>
      <trkpt lat="49.21065" lon="-0.42382">
        <ele>63.8</ele>
        <time>2023-04-28T12:59:17Z</time>
      </trkpt>
      <trkpt lat="49.2106" lon="-0.42375">
        <ele>64</ele>
        <time>2023-04-28T12:59:18Z</time>
      </trkpt>
      <trkpt lat="49.21055" lon="-0.42368">
        <ele>64</ele>
        <time>2023-04-28T12:59:19Z</time>
      </trkpt>
      <trkpt lat="49.21049" lon="-0.42362">
        <ele>64</ele>
        <time>2023-04-28T12:59:20Z</time>
      </trkpt>
      <trkpt lat="49.21044" lon="-0.42356">
        <ele>64</ele>
        <time>2023-04-28T12:59:21Z</time>
      </trkpt>
      <trkpt lat="49.21039" lon="-0.42349">
        <ele>64.2</ele>
        <time>2023-04-28T12:59:22Z</time>
      </trkpt>
      <trkpt lat="49.21034" lon="-0.42343">
        <ele>64.2</ele>
        <time>2023-04-28T12:59:23Z</time>
      </trkpt>
      <trkpt lat="49.21028" lon="-0.42336">
        <ele>64.4</ele>
        <time>2023-04-28T12:59:24Z</time>
      </trkpt>
      <trkpt lat="49.21023" lon="-0.4233">
        <ele>64.2</ele>
        <time>2023-04-28T12:59:25Z</time>
      </trkpt>
      <trkpt lat="49.21018" lon="-0.42323">
        <ele>64</ele>
        <time>2023-04-28T12:59:26Z</time>
      </trkpt>
      <trkpt lat="49.21012" lon="-0.42317">
        <ele>64</ele>
        <time>2023-04-28T12:59:27Z</time>
      </trkpt>
      <trkpt lat="49.21007" lon="-0.4231">
        <ele>63.8</ele>
        <time>2023-04-28T12:59:28Z</time>
      </trkpt>
      <trkpt lat="49.21002" lon="-0.42304">
        <ele>63.8</ele>
        <time>2023-04-28T12:59:29Z</time>
      </trkpt>
      <trkpt lat="49.20996" lon="-0.42297">
        <ele>63.8</ele>
        <time>2023-04-28T12:59:30Z</time>
      </trkpt>
      <trkpt lat="49.20991" lon="-0.4229">
        <ele>63.8</ele>
        <time>2023-04-28T12:59:31Z</time>
      </trkpt>
      <trkpt lat="49.20985" lon="-0.42284">
        <ele>63.8</ele>
        <time>2023-04-28T12:59:32Z</time>
      </trkpt>
      <trkpt lat="49.2098" lon="-0.42277">
        <ele>64</ele>
        <time>2023-04-28T12:59:33Z</time>
      </trkpt>
      <trkpt lat="49.20974" lon="-0.4227">
        <ele>64</ele>
        <time>2023-04-28T12:59:34Z</time>
      </trkpt>
      <trkpt lat="49.20969" lon="-0.42263">
        <ele>64</ele>
        <time>2023-04-28T12:59:35Z</time>
      </trkpt>
      <trkpt lat="49.20963" lon="-0.42257">
        <ele>64</ele>
        <time>2023-04-28T12:59:36Z</time>
      </trkpt>
      <trkpt lat="49.20958" lon="-0.4225">
        <ele>64</ele>
        <time>2023-04-28T12:59:37Z</time>
      </trkpt>
      <trkpt lat="49.20952" lon="-0.42243">
        <ele>64</ele>
        <time>2023-04-28T12:59:38Z</time>
      </trkpt>
      <trkpt lat="49.20947" lon="-0.42237">
        <ele>64.2</ele>
        <time>2023-04-28T12:59:39Z</time>
      </trkpt>
      <trkpt lat="49.20941" lon="-0.4223">
        <ele>64.2</ele>
        <time>2023-04-28T12:59:40Z</time>
      </trkpt>
      <trkpt lat="49.20936" lon="-0.42223">
        <ele>64.4</ele>
        <time>2023-04-28T12:59:41Z</time>
      </trkpt>
      <trkpt lat="49.20931" lon="-0.42217">
        <ele>64.4</ele>
        <time>2023-04-28T12:59:42Z</time>
      </trkpt>
      <trkpt lat="49.20925" lon="-0.4221">
        <ele>64.4</ele>
        <time>2023-04-28T12:59:43Z</time>
      </trkpt>
      <trkpt lat="49.2092" lon="-0.42204">
        <ele>64.4</ele>
        <time>2023-04-28T12:59:44Z</time>
      </trkpt>
      <trkpt lat="49.20915" lon="-0.42197">
        <ele>64.4</ele>
        <time>2023-04-28T12:59:45Z</time>
      </trkpt>
      <trkpt lat="49.20909" lon="-0.42191">
        <ele>64.4</ele>
        <time>2023-04-28T12:59:46Z</time>
      </trkpt>
      <trkpt lat="49.20904" lon="-0.42184">
        <ele>64.4</ele>
        <time>2023-04-28T12:59:47Z</time>
      </trkpt>
      <trkpt lat="49.20899" lon="-0.42178">
        <ele>64.4</ele>
        <time>2023-04-28T12:59:48Z</time>
      </trkpt>
      <trkpt lat="49.20894" lon="-0.42171">
        <ele>64.4</ele>
        <time>2023-04-28T12:59:49Z</time>
      </trkpt>
      <trkpt lat="49.20888" lon="-0.42165">
        <ele>64.4</ele>
        <time>2023-04-28T12:59:50Z</time>
      </trkpt>
      <trkpt lat="49.20883" lon="-0.42158">
        <ele>64.4</ele>
        <time>2023-04-28T12:59:51Z</time>
      </trkpt>
      <trkpt lat="49.20878" lon="-0.42151">
        <ele>64.4</ele>
        <time>2023-04-28T12:59:52Z</time>
      </trkpt>
      <trkpt lat="49.20873" lon="-0.42144">
        <ele>64.4</ele>
        <time>2023-04-28T12:59:53Z</time>
      </trkpt>
      <trkpt lat="49.20868" lon="-0.42137">
        <ele>64.4</ele>
        <time>2023-04-28T12:59:54Z</time>
      </trkpt>
      <trkpt lat="49.20863" lon="-0.42129">
        <ele>64.4</ele>
        <time>2023-04-28T12:59:55Z</time>
      </trkpt>
      <trkpt lat="49.20858" lon="-0.42122">
        <ele>64.4</ele>
        <time>2023-04-28T12:59:56Z</time>
      </trkpt>
      <trkpt lat="49.20854" lon="-0.42115">
        <ele>64.4</ele>
        <time>2023-04-28T12:59:57Z</time>
      </trkpt>
      <trkpt lat="49.20849" lon="-0.42107">
        <ele>64.2</ele>
        <time>2023-04-28T12:59:58Z</time>
      </trkpt>
      <trkpt lat="49.20844" lon="-0.421">
        <ele>64.2</ele>
        <time>2023-04-28T12:59:59Z</time>
      </trkpt>
      <trkpt lat="49.2084" lon="-0.42092">
        <ele>64</ele>
        <time>2023-04-28T13:00:00Z</time>
      </trkpt>
      <trkpt lat="49.20835" lon="-0.42084">
        <ele>64</ele>
        <time>2023-04-28T13:00:01Z</time>
      </trkpt>
      <trkpt lat="49.20831" lon="-0.42076">
        <ele>64</ele>
        <time>2023-04-28T13:00:02Z</time>
      </trkpt>
      <trkpt lat="49.20827" lon="-0.42068">
        <ele>64.2</ele>
        <time>2023-04-28T13:00:03Z</time>
      </trkpt>
      <trkpt lat="49.20822" lon="-0.4206">
        <ele>64.2</ele>
        <time>2023-04-28T13:00:04Z</time>
      </trkpt>
      <trkpt lat="49.20818" lon="-0.42052">
        <ele>64.4</ele>
        <time>2023-04-28T13:00:05Z</time>
      </trkpt>
      <trkpt lat="49.20814" lon="-0.42044">
        <ele>64.4</ele>
        <time>2023-04-28T13:00:06Z</time>
      </trkpt>
      <trkpt lat="49.20809" lon="-0.42035">
        <ele>64.4</ele>
        <time>2023-04-28T13:00:07Z</time>
      </trkpt>
      <trkpt lat="49.20805" lon="-0.42027">
        <ele>64.4</ele>
        <time>2023-04-28T13:00:08Z</time>
      </trkpt>
      <trkpt lat="49.20801" lon="-0.42019">
        <ele>64.6</ele>
        <time>2023-04-28T13:00:09Z</time>
      </trkpt>
      <trkpt lat="49.20796" lon="-0.4201">
        <ele>64.6</ele>
        <time>2023-04-28T13:00:10Z</time>
      </trkpt>
      <trkpt lat="49.20792" lon="-0.42002">
        <ele>64.6</ele>
        <time>2023-04-28T13:00:11Z</time>
      </trkpt>
      <trkpt lat="49.20788" lon="-0.41993">
        <ele>64.6</ele>
        <time>2023-04-28T13:00:12Z</time>
      </trkpt>
      <trkpt lat="49.20783" lon="-0.41985">
        <ele>64.6</ele>
        <time>2023-04-28T13:00:13Z</time>
      </trkpt>
      <trkpt lat="49.20779" lon="-0.41976">
        <ele>64.6</ele>
        <time>2023-04-28T13:00:14Z</time>
      </trkpt>
      <trkpt lat="49.20774" lon="-0.41968">
        <ele>64.6</ele>
        <time>2023-04-28T13:00:15Z</time>
      </trkpt>
      <trkpt lat="49.2077" lon="-0.41959">
        <ele>64.6</ele>
        <time>2023-04-28T13:00:16Z</time>
      </trkpt>
      <trkpt lat="49.20765" lon="-0.41951">
        <ele>64.6</ele>
        <time>2023-04-28T13:00:17Z</time>
      </trkpt>
      <trkpt lat="49.20761" lon="-0.41942">
        <ele>64.6</ele>
        <time>2023-04-28T13:00:18Z</time>
      </trkpt>
      <trkpt lat="49.20756" lon="-0.41933">
        <ele>64.8</ele>
        <time>2023-04-28T13:00:19Z</time>
      </trkpt>
      <trkpt lat="49.20751" lon="-0.41925">
        <ele>65</ele>
        <time>2023-04-28T13:00:20Z</time>
      </trkpt>
      <trkpt lat="49.20747" lon="-0.41916">
        <ele>65</ele>
        <time>2023-04-28T13:00:21Z</time>
      </trkpt>
      <trkpt lat="49.20742" lon="-0.41907">
        <ele>65</ele>
        <time>2023-04-28T13:00:22Z</time>
      </trkpt>
      <trkpt lat="49.20737" lon="-0.41898">
        <ele>65.2</ele>
        <time>2023-04-28T13:00:23Z</time>
      </trkpt>
      <trkpt lat="49.20733" lon="-0.41889">
        <ele>65.2</ele>
        <time>2023-04-28T13:00:24Z</time>
      </trkpt>
      <trkpt lat="49.20728" lon="-0.4188">
        <ele>65.4</ele>
        <time>2023-04-28T13:00:25Z</time>
      </trkpt>
      <trkpt lat="49.20723" lon="-0.41872">
        <ele>65.4</ele>
        <time>2023-04-28T13:00:26Z</time>
      </trkpt>
      <trkpt lat="49.20719" lon="-0.41863">
        <ele>65.4</ele>
        <time>2023-04-28T13:00:27Z</time>
      </trkpt>
      <trkpt lat="49.20714" lon="-0.41853">
        <ele>65.4</ele>
        <time>2023-04-28T13:00:28Z</time>
      </trkpt>
      <trkpt lat="49.20709" lon="-0.41844">
        <ele>65.6</ele>
        <time>2023-04-28T13:00:29Z</time>
      </trkpt>
      <trkpt lat="49.20704" lon="-0.41835">
        <ele>65.6</ele>
        <time>2023-04-28T13:00:30Z</time>
      </trkpt>
      <trkpt lat="49.20699" lon="-0.41826">
        <ele>65.6</ele>
        <time>2023-04-28T13:00:31Z</time>
      </trkpt>
      <trkpt lat="49.20695" lon="-0.41817">
        <ele>65.6</ele>
        <time>2023-04-28T13:00:32Z</time>
      </trkpt>
      <trkpt lat="49.20689" lon="-0.41807">
        <ele>65.6</ele>
        <time>2023-04-28T13:00:33Z</time>
      </trkpt>
      <trkpt lat="49.20685" lon="-0.41798">
        <ele>65.6</ele>
        <time>2023-04-28T13:00:34Z</time>
      </trkpt>
      <trkpt lat="49.2068" lon="-0.41789">
        <ele>65.6</ele>
        <time>2023-04-28T13:00:35Z</time>
      </trkpt>
      <trkpt lat="49.20675" lon="-0.41779">
        <ele>65.4</ele>
        <time>2023-04-28T13:00:36Z</time>
      </trkpt>
      <trkpt lat="49.2067" lon="-0.4177">
        <ele>65.4</ele>
        <time>2023-04-28T13:00:37Z</time>
      </trkpt>
      <trkpt lat="49.20665" lon="-0.4176">
        <ele>65</ele>
        <time>2023-04-28T13:00:38Z</time>
      </trkpt>
      <trkpt lat="49.2066" lon="-0.41751">
        <ele>65</ele>
        <time>2023-04-28T13:00:39Z</time>
      </trkpt>
      <trkpt lat="49.20655" lon="-0.41741">
        <ele>65</ele>
        <time>2023-04-28T13:00:40Z</time>
      </trkpt>
      <trkpt lat="49.2065" lon="-0.41732">
        <ele>65</ele>
        <time>2023-04-28T13:00:41Z</time>
      </trkpt>
      <trkpt lat="49.20645" lon="-0.41722">
        <ele>65</ele>
        <time>2023-04-28T13:00:42Z</time>
      </trkpt>
      <trkpt lat="49.2064" lon="-0.41713">
        <ele>65</ele>
        <time>2023-04-28T13:00:43Z</time>
      </trkpt>
      <trkpt lat="49.20635" lon="-0.41703">
        <ele>65.2</ele>
        <time>2023-04-28T13:00:44Z</time>
      </trkpt>
      <trkpt lat="49.2063" lon="-0.41694">
        <ele>65.4</ele>
        <time>2023-04-28T13:00:45Z</time>
      </trkpt>
      <trkpt lat="49.20625" lon="-0.41684">
        <ele>65.4</ele>
        <time>2023-04-28T13:00:46Z</time>
      </trkpt>
      <trkpt lat="49.2062" lon="-0.41675">
        <ele>65.6</ele>
        <time>2023-04-28T13:00:47Z</time>
      </trkpt>
      <trkpt lat="49.20615" lon="-0.41665">
        <ele>65.6</ele>
        <time>2023-04-28T13:00:48Z</time>
      </trkpt>
      <trkpt lat="49.2061" lon="-0.41656">
        <ele>65.6</ele>
        <time>2023-04-28T13:00:49Z</time>
      </trkpt>
      <trkpt lat="49.20605" lon="-0.41646">
        <ele>65.8</ele>
        <time>2023-04-28T13:00:50Z</time>
      </trkpt>
      <trkpt lat="49.206" lon="-0.41637">
        <ele>66</ele>
        <time>2023-04-28T13:00:51Z</time>
      </trkpt>
      <trkpt lat="49.20595" lon="-0.41627">
        <ele>66</ele>
        <time>2023-04-28T13:00:52Z</time>
      </trkpt>
      <trkpt lat="49.2059" lon="-0.41618">
        <ele>66</ele>
        <time>2023-04-28T13:00:53Z</time>
      </trkpt>
      <trkpt lat="49.20585" lon="-0.41608">
        <ele>66</ele>
        <time>2023-04-28T13:00:54Z</time>
      </trkpt>
      <trkpt lat="49.2058" lon="-0.41599">
        <ele>66</ele>
        <time>2023-04-28T13:00:55Z</time>
      </trkpt>
      <trkpt lat="49.20575" lon="-0.4159">
        <ele>66</ele>
        <time>2023-04-28T13:00:56Z</time>
      </trkpt>
      <trkpt lat="49.2057" lon="-0.4158">
        <ele>66</ele>
        <time>2023-04-28T13:00:57Z</time>
      </trkpt>
      <trkpt lat="49.20565" lon="-0.41571">
        <ele>66</ele>
        <time>2023-04-28T13:00:58Z</time>
      </trkpt>
      <trkpt lat="49.2056" lon="-0.41561">
        <ele>66</ele>
        <time>2023-04-28T13:00:59Z</time>
      </trkpt>
      <trkpt lat="49.20555" lon="-0.41552">
        <ele>66</ele>
        <time>2023-04-28T13:01:00Z</time>
      </trkpt>
      <trkpt lat="49.2055" lon="-0.41542">
        <ele>66</ele>
        <time>2023-04-28T13:01:01Z</time>
      </trkpt>
      <trkpt lat="49.20545" lon="-0.41533">
        <ele>66</ele>
        <time>2023-04-28T13:01:02Z</time>
      </trkpt>
      <trkpt lat="49.2054" lon="-0.41524">
        <ele>66.2</ele>
        <time>2023-04-28T13:01:03Z</time>
      </trkpt>
      <trkpt lat="49.20535" lon="-0.41514">
        <ele>66.2</ele>
        <time>2023-04-28T13:01:04Z</time>
      </trkpt>
      <trkpt lat="49.2053" lon="-0.41505">
        <ele>66.4</ele>
        <time>2023-04-28T13:01:05Z</time>
      </trkpt>
      <trkpt lat="49.20525" lon="-0.41496">
        <ele>66.4</ele>
        <time>2023-04-28T13:01:06Z</time>
      </trkpt>
      <trkpt lat="49.2052" lon="-0.41486">
        <ele>66.4</ele>
        <time>2023-04-28T13:01:07Z</time>
      </trkpt>
      <trkpt lat="49.20515" lon="-0.41477">
        <ele>66.4</ele>
        <time>2023-04-28T13:01:08Z</time>
      </trkpt>
      <trkpt lat="49.2051" lon="-0.41468">
        <ele>66.4</ele>
        <time>2023-04-28T13:01:09Z</time>
      </trkpt>
      <trkpt lat="49.20505" lon="-0.41459">
        <ele>66.6</ele>
        <time>2023-04-28T13:01:10Z</time>
      </trkpt>
      <trkpt lat="49.205" lon="-0.4145">
        <ele>66.6</ele>
        <time>2023-04-28T13:01:11Z</time>
      </trkpt>
      <trkpt lat="49.20495" lon="-0.4144">
        <ele>66.6</ele>
        <time>2023-04-28T13:01:12Z</time>
      </trkpt>
      <trkpt lat="49.2049" lon="-0.41431">
        <ele>66.6</ele>
        <time>2023-04-28T13:01:13Z</time>
      </trkpt>
      <trkpt lat="49.20485" lon="-0.41422">
        <ele>66.8</ele>
        <time>2023-04-28T13:01:14Z</time>
      </trkpt>
      <trkpt lat="49.2048" lon="-0.41413">
        <ele>66.6</ele>
        <time>2023-04-28T13:01:15Z</time>
      </trkpt>
      <trkpt lat="49.20475" lon="-0.41403">
        <ele>66.6</ele>
        <time>2023-04-28T13:01:16Z</time>
      </trkpt>
      <trkpt lat="49.2047" lon="-0.41394">
        <ele>66.6</ele>
        <time>2023-04-28T13:01:17Z</time>
      </trkpt>
      <trkpt lat="49.20465" lon="-0.41384">
        <ele>66.6</ele>
        <time>2023-04-28T13:01:18Z</time>
      </trkpt>
      <trkpt lat="49.2046" lon="-0.41375">
        <ele>66.6</ele>
        <time>2023-04-28T13:01:19Z</time>
      </trkpt>
      <trkpt lat="49.20455" lon="-0.41366">
        <ele>66.6</ele>
        <time>2023-04-28T13:01:20Z</time>
      </trkpt>
      <trkpt lat="49.2045" lon="-0.41357">
        <ele>66.6</ele>
        <time>2023-04-28T13:01:21Z</time>
      </trkpt>
      <trkpt lat="49.20445" lon="-0.41347">
        <ele>66.6</ele>
        <time>2023-04-28T13:01:22Z</time>
      </trkpt>
      <trkpt lat="49.2044" lon="-0.41337">
        <ele>66.6</ele>
        <time>2023-04-28T13:01:23Z</time>
      </trkpt>
      <trkpt lat="49.20435" lon="-0.41329">
        <ele>67</ele>
        <time>2023-04-28T13:01:24Z</time>
      </trkpt>
      <trkpt lat="49.20429" lon="-0.41323">
        <ele>67</ele>
        <time>2023-04-28T13:01:25Z</time>
      </trkpt>
      <trkpt lat="49.20422" lon="-0.41322">
        <ele>67.2</ele>
        <time>2023-04-28T13:01:26Z</time>
      </trkpt>
      <trkpt lat="49.20416" lon="-0.41325">
        <ele>67.2</ele>
        <time>2023-04-28T13:01:27Z</time>
      </trkpt>
      <trkpt lat="49.2041" lon="-0.41332">
        <ele>67</ele>
        <time>2023-04-28T13:01:28Z</time>
      </trkpt>
      <trkpt lat="49.20405" lon="-0.41339">
        <ele>66.6</ele>
        <time>2023-04-28T13:01:29Z</time>
      </trkpt>
      <trkpt lat="49.20398" lon="-0.41345">
        <ele>66.4</ele>
        <time>2023-04-28T13:01:30Z</time>
      </trkpt>
      <trkpt lat="49.20392" lon="-0.41351">
        <ele>66.2</ele>
        <time>2023-04-28T13:01:31Z</time>
      </trkpt>
      <trkpt lat="49.20386" lon="-0.41358">
        <ele>66</ele>
        <time>2023-04-28T13:01:32Z</time>
      </trkpt>
      <trkpt lat="49.20379" lon="-0.41364">
        <ele>65.6</ele>
        <time>2023-04-28T13:01:33Z</time>
      </trkpt>
      <trkpt lat="49.20373" lon="-0.41371">
        <ele>65.6</ele>
        <time>2023-04-28T13:01:34Z</time>
      </trkpt>
      <trkpt lat="49.20367" lon="-0.41378">
        <ele>65.4</ele>
        <time>2023-04-28T13:01:35Z</time>
      </trkpt>
      <trkpt lat="49.2036" lon="-0.41384">
        <ele>65</ele>
        <time>2023-04-28T13:01:36Z</time>
      </trkpt>
      <trkpt lat="49.20354" lon="-0.41391">
        <ele>64.8</ele>
        <time>2023-04-28T13:01:37Z</time>
      </trkpt>
      <trkpt lat="49.20348" lon="-0.41398">
        <ele>64.6</ele>
        <time>2023-04-28T13:01:38Z</time>
      </trkpt>
      <trkpt lat="49.20341" lon="-0.41404">
        <ele>64.4</ele>
        <time>2023-04-28T13:01:39Z</time>
      </trkpt>
      <trkpt lat="49.20335" lon="-0.41411">
        <ele>64</ele>
        <time>2023-04-28T13:01:40Z</time>
      </trkpt>
      <trkpt lat="49.20329" lon="-0.41417">
        <ele>64</ele>
        <time>2023-04-28T13:01:41Z</time>
      </trkpt>
      <trkpt lat="49.20322" lon="-0.41424">
        <ele>64.4</ele>
        <time>2023-04-28T13:01:42Z</time>
      </trkpt>
      <trkpt lat="49.20316" lon="-0.4143">
        <ele>64.6</ele>
        <time>2023-04-28T13:01:43Z</time>
      </trkpt>
      <trkpt lat="49.2031" lon="-0.41436">
        <ele>64.6</ele>
        <time>2023-04-28T13:01:44Z</time>
      </trkpt>
      <trkpt lat="49.20304" lon="-0.41442">
        <ele>65</ele>
        <time>2023-04-28T13:01:45Z</time>
      </trkpt>
      <trkpt lat="49.20298" lon="-0.41447">
        <ele>65</ele>
        <time>2023-04-28T13:01:46Z</time>
      </trkpt>
      <trkpt lat="49.20292" lon="-0.41453">
        <ele>65.2</ele>
        <time>2023-04-28T13:01:47Z</time>
      </trkpt>
      <trkpt lat="49.20286" lon="-0.41459">
        <ele>65.4</ele>
        <time>2023-04-28T13:01:48Z</time>
      </trkpt>
      <trkpt lat="49.20281" lon="-0.41461">
        <ele>65.6</ele>
        <time>2023-04-28T13:01:49Z</time>
      </trkpt>
      <trkpt lat="49.20276" lon="-0.41459">
        <ele>65.6</ele>
        <time>2023-04-28T13:01:50Z</time>
      </trkpt>
      <trkpt lat="49.20271" lon="-0.41454">
        <ele>65.6</ele>
        <time>2023-04-28T13:01:51Z</time>
      </trkpt>
      <trkpt lat="49.20266" lon="-0.41449">
        <ele>65.6</ele>
        <time>2023-04-28T13:01:52Z</time>
      </trkpt>
      <trkpt lat="49.2026" lon="-0.41446">
        <ele>65.8</ele>
        <time>2023-04-28T13:01:53Z</time>
      </trkpt>
      <trkpt lat="49.20254" lon="-0.41443">
        <ele>66</ele>
        <time>2023-04-28T13:01:54Z</time>
      </trkpt>
      <trkpt lat="49.20247" lon="-0.41441">
        <ele>66</ele>
        <time>2023-04-28T13:01:55Z</time>
      </trkpt>
      <trkpt lat="49.2024" lon="-0.41441">
        <ele>66.2</ele>
        <time>2023-04-28T13:01:56Z</time>
      </trkpt>
      <trkpt lat="49.20233" lon="-0.4144">
        <ele>66.4</ele>
        <time>2023-04-28T13:01:57Z</time>
      </trkpt>
      <trkpt lat="49.20226" lon="-0.41438">
        <ele>66.6</ele>
        <time>2023-04-28T13:01:58Z</time>
      </trkpt>
      <trkpt lat="49.20219" lon="-0.41435">
        <ele>66.6</ele>
        <time>2023-04-28T13:01:59Z</time>
      </trkpt>
      <trkpt lat="49.20212" lon="-0.41432">
        <ele>67</ele>
        <time>2023-04-28T13:02:00Z</time>
      </trkpt>
      <trkpt lat="49.20206" lon="-0.41429">
        <ele>67</ele>
        <time>2023-04-28T13:02:01Z</time>
      </trkpt>
      <trkpt lat="49.20199" lon="-0.41425">
        <ele>67.2</ele>
        <time>2023-04-28T13:02:02Z</time>
      </trkpt>
      <trkpt lat="49.20193" lon="-0.41422">
        <ele>67.4</ele>
        <time>2023-04-28T13:02:03Z</time>
      </trkpt>
      <trkpt lat="49.20187" lon="-0.41418">
        <ele>67.6</ele>
        <time>2023-04-28T13:02:04Z</time>
      </trkpt>
      <trkpt lat="49.20181" lon="-0.41415">
        <ele>67.6</ele>
        <time>2023-04-28T13:02:05Z</time>
      </trkpt>
      <trkpt lat="49.20175" lon="-0.41411">
        <ele>68</ele>
        <time>2023-04-28T13:02:06Z</time>
      </trkpt>
      <trkpt lat="49.20169" lon="-0.41407">
        <ele>68</ele>
        <time>2023-04-28T13:02:07Z</time>
      </trkpt>
      <trkpt lat="49.20163" lon="-0.41404">
        <ele>68.2</ele>
        <time>2023-04-28T13:02:08Z</time>
      </trkpt>
      <trkpt lat="49.20157" lon="-0.414">
        <ele>68.2</ele>
        <time>2023-04-28T13:02:09Z</time>
      </trkpt>
      <trkpt lat="49.20151" lon="-0.41396">
        <ele>68.2</ele>
        <time>2023-04-28T13:02:10Z</time>
      </trkpt>
      <trkpt lat="49.20145" lon="-0.41393">
        <ele>68.4</ele>
        <time>2023-04-28T13:02:11Z</time>
      </trkpt>
      <trkpt lat="49.20139" lon="-0.41389">
        <ele>68.4</ele>
        <time>2023-04-28T13:02:12Z</time>
      </trkpt>
      <trkpt lat="49.20133" lon="-0.41385">
        <ele>68.4</ele>
        <time>2023-04-28T13:02:13Z</time>
      </trkpt>
      <trkpt lat="49.20127" lon="-0.41381">
        <ele>68.4</ele>
        <time>2023-04-28T13:02:14Z</time>
      </trkpt>
      <trkpt lat="49.20121" lon="-0.41378">
        <ele>68.6</ele>
        <time>2023-04-28T13:02:15Z</time>
      </trkpt>
      <trkpt lat="49.20115" lon="-0.41374">
        <ele>68.6</ele>
        <time>2023-04-28T13:02:16Z</time>
      </trkpt>
      <trkpt lat="49.20109" lon="-0.4137">
        <ele>68.6</ele>
        <time>2023-04-28T13:02:17Z</time>
      </trkpt>
      <trkpt lat="49.20104" lon="-0.41366">
        <ele>68.6</ele>
        <time>2023-04-28T13:02:18Z</time>
      </trkpt>
      <trkpt lat="49.20098" lon="-0.41363">
        <ele>68.6</ele>
        <time>2023-04-28T13:02:19Z</time>
      </trkpt>
      <trkpt lat="49.20092" lon="-0.41359">
        <ele>68.6</ele>
        <time>2023-04-28T13:02:20Z</time>
      </trkpt>
      <trkpt lat="49.20086" lon="-0.41356">
        <ele>68.6</ele>
        <time>2023-04-28T13:02:21Z</time>
      </trkpt>
      <trkpt lat="49.20081" lon="-0.41352">
        <ele>68.6</ele>
        <time>2023-04-28T13:02:22Z</time>
      </trkpt>
      <trkpt lat="49.20075" lon="-0.41349">
        <ele>68.6</ele>
        <time>2023-04-28T13:02:23Z</time>
      </trkpt>
      <trkpt lat="49.20069" lon="-0.41345">
        <ele>68.6</ele>
        <time>2023-04-28T13:02:24Z</time>
      </trkpt>
      <trkpt lat="49.20063" lon="-0.41341">
        <ele>68.6</ele>
        <time>2023-04-28T13:02:25Z</time>
      </trkpt>
      <trkpt lat="49.20058" lon="-0.41338">
        <ele>68.6</ele>
        <time>2023-04-28T13:02:26Z</time>
      </trkpt>
      <trkpt lat="49.20052" lon="-0.41335">
        <ele>68.6</ele>
        <time>2023-04-28T13:02:27Z</time>
      </trkpt>
      <trkpt lat="49.20046" lon="-0.41331">
        <ele>68.6</ele>
        <time>2023-04-28T13:02:28Z</time>
      </trkpt>
      <trkpt lat="49.20041" lon="-0.41328">
        <ele>68.6</ele>
        <time>2023-04-28T13:02:29Z</time>
      </trkpt>
      <trkpt lat="49.20035" lon="-0.41325">
        <ele>68.4</ele>
        <time>2023-04-28T13:02:30Z</time>
      </trkpt>
      <trkpt lat="49.20029" lon="-0.41322">
        <ele>68.4</ele>
        <time>2023-04-28T13:02:31Z</time>
      </trkpt>
      <trkpt lat="49.20024" lon="-0.41318">
        <ele>68.4</ele>
        <time>2023-04-28T13:02:32Z</time>
      </trkpt>
      <trkpt lat="49.20018" lon="-0.41314">
        <ele>68.4</ele>
        <time>2023-04-28T13:02:33Z</time>
      </trkpt>
      <trkpt lat="49.20013" lon="-0.4131">
        <ele>68.4</ele>
        <time>2023-04-28T13:02:34Z</time>
      </trkpt>
      <trkpt lat="49.20007" lon="-0.41307">
        <ele>68.4</ele>
        <time>2023-04-28T13:02:35Z</time>
      </trkpt>
      <trkpt lat="49.20001" lon="-0.41304">
        <ele>68.4</ele>
        <time>2023-04-28T13:02:36Z</time>
      </trkpt>
      <trkpt lat="49.19996" lon="-0.41302">
        <ele>68.4</ele>
        <time>2023-04-28T13:02:37Z</time>
      </trkpt>
      <trkpt lat="49.19989" lon="-0.41302">
        <ele>68.4</ele>
        <time>2023-04-28T13:02:38Z</time>
      </trkpt>
      <trkpt lat="49.19983" lon="-0.41305">
        <ele>68.4</ele>
        <time>2023-04-28T13:02:39Z</time>
      </trkpt>
      <trkpt lat="49.19977" lon="-0.41306">
        <ele>68.2</ele>
        <time>2023-04-28T13:02:40Z</time>
      </trkpt>
      <trkpt lat="49.19971" lon="-0.41305">
        <ele>68.2</ele>
        <time>2023-04-28T13:02:41Z</time>
      </trkpt>
      <trkpt lat="49.19965" lon="-0.413">
        <ele>68.2</ele>
        <time>2023-04-28T13:02:42Z</time>
      </trkpt>
      <trkpt lat="49.1996" lon="-0.41295">
        <ele>68.2</ele>
        <time>2023-04-28T13:02:43Z</time>
      </trkpt>
      <trkpt lat="49.19954" lon="-0.41289">
        <ele>68.2</ele>
        <time>2023-04-28T13:02:44Z</time>
      </trkpt>
      <trkpt lat="49.19948" lon="-0.41283">
        <ele>68.2</ele>
        <time>2023-04-28T13:02:45Z</time>
      </trkpt>
      <trkpt lat="49.19942" lon="-0.41279">
        <ele>68.2</ele>
        <time>2023-04-28T13:02:46Z</time>
      </trkpt>
      <trkpt lat="49.19936" lon="-0.41275">
        <ele>68.2</ele>
        <time>2023-04-28T13:02:47Z</time>
      </trkpt>
      <trkpt lat="49.19929" lon="-0.41271">
        <ele>68</ele>
        <time>2023-04-28T13:02:48Z</time>
      </trkpt>
      <trkpt lat="49.19923" lon="-0.41268">
        <ele>68</ele>
        <time>2023-04-28T13:02:49Z</time>
      </trkpt>
      <trkpt lat="49.19916" lon="-0.41264">
        <ele>68</ele>
        <time>2023-04-28T13:02:50Z</time>
      </trkpt>
      <trkpt lat="49.1991" lon="-0.41261">
        <ele>68</ele>
        <time>2023-04-28T13:02:51Z</time>
      </trkpt>
      <trkpt lat="49.19903" lon="-0.41259">
        <ele>68</ele>
        <time>2023-04-28T13:02:52Z</time>
      </trkpt>
      <trkpt lat="49.19896" lon="-0.41258">
        <ele>67.8</ele>
        <time>2023-04-28T13:02:53Z</time>
      </trkpt>
      <trkpt lat="49.19889" lon="-0.41259">
        <ele>67.6</ele>
        <time>2023-04-28T13:02:54Z</time>
      </trkpt>
      <trkpt lat="49.19883" lon="-0.41261">
        <ele>67.6</ele>
        <time>2023-04-28T13:02:55Z</time>
      </trkpt>
      <trkpt lat="49.19876" lon="-0.41264">
        <ele>67.6</ele>
        <time>2023-04-28T13:02:56Z</time>
      </trkpt>
      <trkpt lat="49.1987" lon="-0.41268">
        <ele>67.6</ele>
        <time>2023-04-28T13:02:57Z</time>
      </trkpt>
      <trkpt lat="49.19864" lon="-0.41273">
        <ele>67.6</ele>
        <time>2023-04-28T13:02:58Z</time>
      </trkpt>
      <trkpt lat="49.19859" lon="-0.41278">
        <ele>67.6</ele>
        <time>2023-04-28T13:02:59Z</time>
      </trkpt>
      <trkpt lat="49.19854" lon="-0.41284">
        <ele>67.6</ele>
        <time>2023-04-28T13:03:00Z</time>
      </trkpt>
      <trkpt lat="49.19848" lon="-0.4129">
        <ele>67.6</ele>
        <time>2023-04-28T13:03:01Z</time>
      </trkpt>
      <trkpt lat="49.19843" lon="-0.41296">
        <ele>67.6</ele>
        <time>2023-04-28T13:03:02Z</time>
      </trkpt>
      <trkpt lat="49.19838" lon="-0.41302">
        <ele>67.6</ele>
        <time>2023-04-28T13:03:03Z</time>
      </trkpt>
      <trkpt lat="49.19833" lon="-0.41308">
        <ele>67.6</ele>
        <time>2023-04-28T13:03:04Z</time>
      </trkpt>
      <trkpt lat="49.19828" lon="-0.41315">
        <ele>67.8</ele>
        <time>2023-04-28T13:03:05Z</time>
      </trkpt>
      <trkpt lat="49.19824" lon="-0.41321">
        <ele>68</ele>
        <time>2023-04-28T13:03:06Z</time>
      </trkpt>
      <trkpt lat="49.19819" lon="-0.41328">
        <ele>68</ele>
        <time>2023-04-28T13:03:07Z</time>
      </trkpt>
      <trkpt lat="49.19814" lon="-0.41334">
        <ele>68</ele>
        <time>2023-04-28T13:03:08Z</time>
      </trkpt>
      <trkpt lat="49.1981" lon="-0.41341">
        <ele>68</ele>
        <time>2023-04-28T13:03:09Z</time>
      </trkpt>
      <trkpt lat="49.19806" lon="-0.41347">
        <ele>68</ele>
        <time>2023-04-28T13:03:10Z</time>
      </trkpt>
      <trkpt lat="49.19801" lon="-0.41353">
        <ele>68</ele>
        <time>2023-04-28T13:03:11Z</time>
      </trkpt>
      <trkpt lat="49.19797" lon="-0.4136">
        <ele>68</ele>
        <time>2023-04-28T13:03:12Z</time>
      </trkpt>
      <trkpt lat="49.19793" lon="-0.41366">
        <ele>68</ele>
        <time>2023-04-28T13:03:13Z</time>
      </trkpt>
      <trkpt lat="49.19789" lon="-0.41373">
        <ele>68</ele>
        <time>2023-04-28T13:03:14Z</time>
      </trkpt>
      <trkpt lat="49.19785" lon="-0.41379">
        <ele>68</ele>
        <time>2023-04-28T13:03:15Z</time>
      </trkpt>
      <trkpt lat="49.19781" lon="-0.41385">
        <ele>68</ele>
        <time>2023-04-28T13:03:16Z</time>
      </trkpt>
      <trkpt lat="49.19777" lon="-0.41391">
        <ele>68</ele>
        <time>2023-04-28T13:03:17Z</time>
      </trkpt>
      <trkpt lat="49.19773" lon="-0.41397">
        <ele>68</ele>
        <time>2023-04-28T13:03:18Z</time>
      </trkpt>
      <trkpt lat="49.1977" lon="-0.41402">
        <ele>68</ele>
        <time>2023-04-28T13:03:19Z</time>
      </trkpt>
      <trkpt lat="49.19766" lon="-0.41406">
        <ele>68</ele>
        <time>2023-04-28T13:03:20Z</time>
      </trkpt>
      <trkpt lat="49.19762" lon="-0.41408">
        <ele>68</ele>
        <time>2023-04-28T13:03:21Z</time>
      </trkpt>
      <trkpt lat="49.19758" lon="-0.41405">
        <ele>68</ele>
        <time>2023-04-28T13:03:22Z</time>
      </trkpt>
      <trkpt lat="49.19754" lon="-0.414">
        <ele>68</ele>
        <time>2023-04-28T13:03:23Z</time>
      </trkpt>
      <trkpt lat="49.19751" lon="-0.41395">
        <ele>68</ele>
        <time>2023-04-28T13:03:24Z</time>
      </trkpt>
      <trkpt lat="49.19747" lon="-0.41389">
        <ele>68</ele>
        <time>2023-04-28T13:03:25Z</time>
      </trkpt>
      <trkpt lat="49.19743" lon="-0.41383">
        <ele>68.4</ele>
        <time>2023-04-28T13:03:26Z</time>
      </trkpt>
      <trkpt lat="49.19739" lon="-0.41377">
        <ele>68.6</ele>
        <time>2023-04-28T13:03:27Z</time>
      </trkpt>
      <trkpt lat="49.19735" lon="-0.41371">
        <ele>68.8</ele>
        <time>2023-04-28T13:03:28Z</time>
      </trkpt>
      <trkpt lat="49.19731" lon="-0.41364">
        <ele>69</ele>
        <time>2023-04-28T13:03:29Z</time>
      </trkpt>
      <trkpt lat="49.19727" lon="-0.41357">
        <ele>69.4</ele>
        <time>2023-04-28T13:03:30Z</time>
      </trkpt>
      <trkpt lat="49.19723" lon="-0.4135">
        <ele>69.6</ele>
        <time>2023-04-28T13:03:31Z</time>
      </trkpt>
      <trkpt lat="49.1972" lon="-0.41343">
        <ele>69.8</ele>
        <time>2023-04-28T13:03:32Z</time>
      </trkpt>
      <trkpt lat="49.19716" lon="-0.41336">
        <ele>70</ele>
        <time>2023-04-28T13:03:33Z</time>
      </trkpt>
      <trkpt lat="49.19712" lon="-0.41329">
        <ele>70.2</ele>
        <time>2023-04-28T13:03:34Z</time>
      </trkpt>
      <trkpt lat="49.19709" lon="-0.41323">
        <ele>70.4</ele>
        <time>2023-04-28T13:03:35Z</time>
      </trkpt>
      <trkpt lat="49.19705" lon="-0.41316">
        <ele>70.6</ele>
        <time>2023-04-28T13:03:36Z</time>
      </trkpt>
      <trkpt lat="49.19701" lon="-0.41309">
        <ele>70.6</ele>
        <time>2023-04-28T13:03:37Z</time>
      </trkpt>
      <trkpt lat="49.19698" lon="-0.41302">
        <ele>70.6</ele>
        <time>2023-04-28T13:03:38Z</time>
      </trkpt>
      <trkpt lat="49.19694" lon="-0.41295">
        <ele>70.6</ele>
        <time>2023-04-28T13:03:39Z</time>
      </trkpt>
      <trkpt lat="49.1969" lon="-0.41288">
        <ele>70.8</ele>
        <time>2023-04-28T13:03:40Z</time>
      </trkpt>
      <trkpt lat="49.19686" lon="-0.41281">
        <ele>71</ele>
        <time>2023-04-28T13:03:41Z</time>
      </trkpt>
      <trkpt lat="49.19682" lon="-0.41274">
        <ele>71</ele>
        <time>2023-04-28T13:03:42Z</time>
      </trkpt>
      <trkpt lat="49.19678" lon="-0.41266">
        <ele>71</ele>
        <time>2023-04-28T13:03:43Z</time>
      </trkpt>
      <trkpt lat="49.19675" lon="-0.41259">
        <ele>71</ele>
        <time>2023-04-28T13:03:44Z</time>
      </trkpt>
      <trkpt lat="49.19671" lon="-0.41252">
        <ele>71</ele>
        <time>2023-04-28T13:03:45Z</time>
      </trkpt>
      <trkpt lat="49.19667" lon="-0.41244">
        <ele>70.8</ele>
        <time>2023-04-28T13:03:46Z</time>
      </trkpt>
      <trkpt lat="49.19663" lon="-0.41236">
        <ele>70.8</ele>
        <time>2023-04-28T13:03:47Z</time>
      </trkpt>
      <trkpt lat="49.19659" lon="-0.41228">
        <ele>70.6</ele>
        <time>2023-04-28T13:03:48Z</time>
      </trkpt>
      <trkpt lat="49.19656" lon="-0.4122">
        <ele>70.6</ele>
        <time>2023-04-28T13:03:49Z</time>
      </trkpt>
      <trkpt lat="49.19652" lon="-0.41213">
        <ele>70.6</ele>
        <time>2023-04-28T13:03:50Z</time>
      </trkpt>
      <trkpt lat="49.19648" lon="-0.41205">
        <ele>70.4</ele>
        <time>2023-04-28T13:03:51Z</time>
      </trkpt>
      <trkpt lat="49.19645" lon="-0.41197">
        <ele>70.4</ele>
        <time>2023-04-28T13:03:52Z</time>
      </trkpt>
      <trkpt lat="49.19641" lon="-0.41189">
        <ele>70.2</ele>
        <time>2023-04-28T13:03:53Z</time>
      </trkpt>
      <trkpt lat="49.19638" lon="-0.41182">
        <ele>70</ele>
        <time>2023-04-28T13:03:54Z</time>
      </trkpt>
      <trkpt lat="49.19635" lon="-0.41174">
        <ele>70</ele>
        <time>2023-04-28T13:03:55Z</time>
      </trkpt>
      <trkpt lat="49.19631" lon="-0.41167">
        <ele>69.8</ele>
        <time>2023-04-28T13:03:56Z</time>
      </trkpt>
      <trkpt lat="49.19628" lon="-0.41158">
        <ele>69.8</ele>
        <time>2023-04-28T13:03:57Z</time>
      </trkpt>
      <trkpt lat="49.19625" lon="-0.4115">
        <ele>69.8</ele>
        <time>2023-04-28T13:03:58Z</time>
      </trkpt>
      <trkpt lat="49.19621" lon="-0.41141">
        <ele>69.8</ele>
        <time>2023-04-28T13:03:59Z</time>
      </trkpt>
      <trkpt lat="49.19618" lon="-0.41132">
        <ele>69.8</ele>
        <time>2023-04-28T13:04:00Z</time>
      </trkpt>
      <trkpt lat="49.19614" lon="-0.41123">
        <ele>69.6</ele>
        <time>2023-04-28T13:04:01Z</time>
      </trkpt>
      <trkpt lat="49.19611" lon="-0.41114">
        <ele>69.6</ele>
        <time>2023-04-28T13:04:02Z</time>
      </trkpt>
      <trkpt lat="49.19608" lon="-0.41104">
        <ele>69.6</ele>
        <time>2023-04-28T13:04:03Z</time>
      </trkpt>
      <trkpt lat="49.19604" lon="-0.41095">
        <ele>69.6</ele>
        <time>2023-04-28T13:04:04Z</time>
      </trkpt>
      <trkpt lat="49.19601" lon="-0.41086">
        <ele>69.6</ele>
        <time>2023-04-28T13:04:05Z</time>
      </trkpt>
      <trkpt lat="49.19596" lon="-0.41078">
        <ele>69.6</ele>
        <time>2023-04-28T13:04:06Z</time>
      </trkpt>
      <trkpt lat="49.19592" lon="-0.4107">
        <ele>69.8</ele>
        <time>2023-04-28T13:04:07Z</time>
      </trkpt>
      <trkpt lat="49.19587" lon="-0.41063">
        <ele>70</ele>
        <time>2023-04-28T13:04:08Z</time>
      </trkpt>
      <trkpt lat="49.19581" lon="-0.41057">
        <ele>70</ele>
        <time>2023-04-28T13:04:09Z</time>
      </trkpt>
      <trkpt lat="49.19574" lon="-0.41052">
        <ele>70</ele>
        <time>2023-04-28T13:04:10Z</time>
      </trkpt>
      <trkpt lat="49.19567" lon="-0.41049">
        <ele>70</ele>
        <time>2023-04-28T13:04:11Z</time>
      </trkpt>
      <trkpt lat="49.1956" lon="-0.41048">
        <ele>70.2</ele>
        <time>2023-04-28T13:04:12Z</time>
      </trkpt>
      <trkpt lat="49.19553" lon="-0.41046">
        <ele>70.2</ele>
        <time>2023-04-28T13:04:13Z</time>
      </trkpt>
      <trkpt lat="49.19545" lon="-0.41045">
        <ele>70.2</ele>
        <time>2023-04-28T13:04:14Z</time>
      </trkpt>
      <trkpt lat="49.19538" lon="-0.41043">
        <ele>70.4</ele>
        <time>2023-04-28T13:04:15Z</time>
      </trkpt>
      <trkpt lat="49.19531" lon="-0.41042">
        <ele>70.4</ele>
        <time>2023-04-28T13:04:16Z</time>
      </trkpt>
      <trkpt lat="49.19524" lon="-0.41041">
        <ele>70.4</ele>
        <time>2023-04-28T13:04:17Z</time>
      </trkpt>
      <trkpt lat="49.19516" lon="-0.4104">
        <ele>70.4</ele>
        <time>2023-04-28T13:04:18Z</time>
      </trkpt>
      <trkpt lat="49.19509" lon="-0.4104">
        <ele>70.4</ele>
        <time>2023-04-28T13:04:19Z</time>
      </trkpt>
      <trkpt lat="49.19502" lon="-0.41039">
        <ele>70.6</ele>
        <time>2023-04-28T13:04:20Z</time>
      </trkpt>
      <trkpt lat="49.19494" lon="-0.41038">
        <ele>70.6</ele>
        <time>2023-04-28T13:04:21Z</time>
      </trkpt>
      <trkpt lat="49.19487" lon="-0.41038">
        <ele>71</ele>
        <time>2023-04-28T13:04:22Z</time>
      </trkpt>
      <trkpt lat="49.1948" lon="-0.41037">
        <ele>71.4</ele>
        <time>2023-04-28T13:04:23Z</time>
      </trkpt>
      <trkpt lat="49.19473" lon="-0.41036">
        <ele>71.6</ele>
        <time>2023-04-28T13:04:24Z</time>
      </trkpt>
      <trkpt lat="49.19466" lon="-0.41035">
        <ele>72</ele>
        <time>2023-04-28T13:04:25Z</time>
      </trkpt>
      <trkpt lat="49.19459" lon="-0.41034">
        <ele>72.2</ele>
        <time>2023-04-28T13:04:26Z</time>
      </trkpt>
      <trkpt lat="49.19453" lon="-0.41032">
        <ele>72.6</ele>
        <time>2023-04-28T13:04:27Z</time>
      </trkpt>
      <trkpt lat="49.19446" lon="-0.4103">
        <ele>73</ele>
        <time>2023-04-28T13:04:28Z</time>
      </trkpt>
      <trkpt lat="49.1944" lon="-0.41029">
        <ele>73.2</ele>
        <time>2023-04-28T13:04:29Z</time>
      </trkpt>
      <trkpt lat="49.19433" lon="-0.41027">
        <ele>73.6</ele>
        <time>2023-04-28T13:04:30Z</time>
      </trkpt>
      <trkpt lat="49.19427" lon="-0.41026">
        <ele>74</ele>
        <time>2023-04-28T13:04:31Z</time>
      </trkpt>
      <trkpt lat="49.19421" lon="-0.41024">
        <ele>74.2</ele>
        <time>2023-04-28T13:04:32Z</time>
      </trkpt>
      <trkpt lat="49.19415" lon="-0.41023">
        <ele>74.4</ele>
        <time>2023-04-28T13:04:33Z</time>
      </trkpt>
      <trkpt lat="49.1941" lon="-0.41021">
        <ele>74.4</ele>
        <time>2023-04-28T13:04:34Z</time>
      </trkpt>
      <trkpt lat="49.19404" lon="-0.4102">
        <ele>74.4</ele>
        <time>2023-04-28T13:04:35Z</time>
      </trkpt>
      <trkpt lat="49.19398" lon="-0.41019">
        <ele>74.2</ele>
        <time>2023-04-28T13:04:36Z</time>
      </trkpt>
      <trkpt lat="49.19392" lon="-0.41017">
        <ele>74</ele>
        <time>2023-04-28T13:04:37Z</time>
      </trkpt>
      <trkpt lat="49.19386" lon="-0.41016">
        <ele>74</ele>
        <time>2023-04-28T13:04:38Z</time>
      </trkpt>
      <trkpt lat="49.1938" lon="-0.41015">
        <ele>73.8</ele>
        <time>2023-04-28T13:04:39Z</time>
      </trkpt>
      <trkpt lat="49.19375" lon="-0.41014">
        <ele>73.6</ele>
        <time>2023-04-28T13:04:40Z</time>
      </trkpt>
      <trkpt lat="49.19369" lon="-0.41013">
        <ele>73.6</ele>
        <time>2023-04-28T13:04:41Z</time>
      </trkpt>
      <trkpt lat="49.19363" lon="-0.41012">
        <ele>73.6</ele>
        <time>2023-04-28T13:04:42Z</time>
      </trkpt>
      <trkpt lat="49.19357" lon="-0.41011">
        <ele>73.4</ele>
        <time>2023-04-28T13:04:43Z</time>
      </trkpt>
      <trkpt lat="49.19351" lon="-0.4101">
        <ele>73.4</ele>
        <time>2023-04-28T13:04:44Z</time>
      </trkpt>
      <trkpt lat="49.19345" lon="-0.41009">
        <ele>73.2</ele>
        <time>2023-04-28T13:04:45Z</time>
      </trkpt>
      <trkpt lat="49.19339" lon="-0.41007">
        <ele>73</ele>
        <time>2023-04-28T13:04:46Z</time>
      </trkpt>
      <trkpt lat="49.19333" lon="-0.41006">
        <ele>73</ele>
        <time>2023-04-28T13:04:47Z</time>
      </trkpt>
      <trkpt lat="49.19328" lon="-0.41004">
        <ele>72.8</ele>
        <time>2023-04-28T13:04:48Z</time>
      </trkpt>
      <trkpt lat="49.19322" lon="-0.41002">
        <ele>72.6</ele>
        <time>2023-04-28T13:04:49Z</time>
      </trkpt>
      <trkpt lat="49.19316" lon="-0.40999">
        <ele>72.6</ele>
        <time>2023-04-28T13:04:50Z</time>
      </trkpt>
      <trkpt lat="49.1931" lon="-0.40996">
        <ele>72.4</ele>
        <time>2023-04-28T13:04:51Z</time>
      </trkpt>
      <trkpt lat="49.19305" lon="-0.40993">
        <ele>72.4</ele>
        <time>2023-04-28T13:04:52Z</time>
      </trkpt>
      <trkpt lat="49.19299" lon="-0.40989">
        <ele>72.2</ele>
        <time>2023-04-28T13:04:53Z</time>
      </trkpt>
      <trkpt lat="49.19294" lon="-0.40985">
        <ele>72</ele>
        <time>2023-04-28T13:04:54Z</time>
      </trkpt>
      <trkpt lat="49.19288" lon="-0.40981">
        <ele>72</ele>
        <time>2023-04-28T13:04:55Z</time>
      </trkpt>
      <trkpt lat="49.19283" lon="-0.40976">
        <ele>71.8</ele>
        <time>2023-04-28T13:04:56Z</time>
      </trkpt>
      <trkpt lat="49.19278" lon="-0.40972">
        <ele>71.6</ele>
        <time>2023-04-28T13:04:57Z</time>
      </trkpt>
      <trkpt lat="49.19272" lon="-0.40967">
        <ele>71.6</ele>
        <time>2023-04-28T13:04:58Z</time>
      </trkpt>
      <trkpt lat="49.19267" lon="-0.40963">
        <ele>71.4</ele>
        <time>2023-04-28T13:04:59Z</time>
      </trkpt>
      <trkpt lat="49.19262" lon="-0.40958">
        <ele>71.4</ele>
        <time>2023-04-28T13:05:00Z</time>
      </trkpt>
      <trkpt lat="49.19256" lon="-0.40953">
        <ele>71.2</ele>
        <time>2023-04-28T13:05:01Z</time>
      </trkpt>
      <trkpt lat="49.19251" lon="-0.40949">
        <ele>71</ele>
        <time>2023-04-28T13:05:02Z</time>
      </trkpt>
      <trkpt lat="49.19246" lon="-0.40944">
        <ele>71</ele>
        <time>2023-04-28T13:05:03Z</time>
      </trkpt>
      <trkpt lat="49.19241" lon="-0.4094">
        <ele>71.2</ele>
        <time>2023-04-28T13:05:04Z</time>
      </trkpt>
      <trkpt lat="49.19236" lon="-0.40935">
        <ele>71.4</ele>
        <time>2023-04-28T13:05:05Z</time>
      </trkpt>
      <trkpt lat="49.19231" lon="-0.40931">
        <ele>71.4</ele>
        <time>2023-04-28T13:05:06Z</time>
      </trkpt>
      <trkpt lat="49.19226" lon="-0.40927">
        <ele>71.6</ele>
        <time>2023-04-28T13:05:07Z</time>
      </trkpt>
      <trkpt lat="49.19221" lon="-0.40922">
        <ele>71.6</ele>
        <time>2023-04-28T13:05:08Z</time>
      </trkpt>
      <trkpt lat="49.19216" lon="-0.40918">
        <ele>71.8</ele>
        <time>2023-04-28T13:05:09Z</time>
      </trkpt>
      <trkpt lat="49.19211" lon="-0.40915">
        <ele>72</ele>
        <time>2023-04-28T13:05:10Z</time>
      </trkpt>
      <trkpt lat="49.19205" lon="-0.40913">
        <ele>72</ele>
        <time>2023-04-28T13:05:11Z</time>
      </trkpt>
      <trkpt lat="49.192" lon="-0.40917">
        <ele>72.2</ele>
        <time>2023-04-28T13:05:12Z</time>
      </trkpt>
      <trkpt lat="49.19195" lon="-0.40921">
        <ele>72.2</ele>
        <time>2023-04-28T13:05:13Z</time>
      </trkpt>
      <trkpt lat="49.1919" lon="-0.4092">
        <ele>72.4</ele>
        <time>2023-04-28T13:05:14Z</time>
      </trkpt>
      <trkpt lat="49.19186" lon="-0.40916">
        <ele>72.6</ele>
        <time>2023-04-28T13:05:15Z</time>
      </trkpt>
      <trkpt lat="49.19183" lon="-0.4091">
        <ele>72.6</ele>
        <time>2023-04-28T13:05:16Z</time>
      </trkpt>
      <trkpt lat="49.1918" lon="-0.40902">
        <ele>72.4</ele>
        <time>2023-04-28T13:05:17Z</time>
      </trkpt>
      <trkpt lat="49.19177" lon="-0.40895">
        <ele>72.4</ele>
        <time>2023-04-28T13:05:18Z</time>
      </trkpt>
      <trkpt lat="49.19174" lon="-0.40888">
        <ele>72.2</ele>
        <time>2023-04-28T13:05:19Z</time>
      </trkpt>
      <trkpt lat="49.1917" lon="-0.40881">
        <ele>72</ele>
        <time>2023-04-28T13:05:20Z</time>
      </trkpt>
      <trkpt lat="49.19165" lon="-0.40875">
        <ele>72</ele>
        <time>2023-04-28T13:05:21Z</time>
      </trkpt>
      <trkpt lat="49.1916" lon="-0.4087">
        <ele>71.8</ele>
        <time>2023-04-28T13:05:22Z</time>
      </trkpt>
      <trkpt lat="49.19155" lon="-0.40865">
        <ele>71.6</ele>
        <time>2023-04-28T13:05:23Z</time>
      </trkpt>
      <trkpt lat="49.19151" lon="-0.40861">
        <ele>71.4</ele>
        <time>2023-04-28T13:05:24Z</time>
      </trkpt>
      <trkpt lat="49.19146" lon="-0.40857">
        <ele>71.4</ele>
        <time>2023-04-28T13:05:25Z</time>
      </trkpt>
      <trkpt lat="49.19142" lon="-0.40854">
        <ele>71</ele>
        <time>2023-04-28T13:05:26Z</time>
      </trkpt>
      <trkpt lat="49.19139" lon="-0.40851">
        <ele>71</ele>
        <time>2023-04-28T13:05:27Z</time>
      </trkpt>
      <trkpt lat="49.19135" lon="-0.40849">
        <ele>71</ele>
        <time>2023-04-28T13:05:28Z</time>
      </trkpt>
      <trkpt lat="49.19132" lon="-0.40846">
        <ele>70.8</ele>
        <time>2023-04-28T13:05:29Z</time>
      </trkpt>
      <trkpt lat="49.19127" lon="-0.40841">
        <ele>70.6</ele>
        <time>2023-04-28T13:05:30Z</time>
      </trkpt>
      <trkpt lat="49.19123" lon="-0.40837">
        <ele>70.6</ele>
        <time>2023-04-28T13:05:31Z</time>
      </trkpt>
      <trkpt lat="49.19117" lon="-0.40832">
        <ele>70.4</ele>
        <time>2023-04-28T13:05:32Z</time>
      </trkpt>
      <trkpt lat="49.19112" lon="-0.40828">
        <ele>70.4</ele>
        <time>2023-04-28T13:05:33Z</time>
      </trkpt>
      <trkpt lat="49.19106" lon="-0.40824">
        <ele>70.2</ele>
        <time>2023-04-28T13:05:34Z</time>
      </trkpt>
      <trkpt lat="49.191" lon="-0.4082">
        <ele>70</ele>
        <time>2023-04-28T13:05:35Z</time>
      </trkpt>
      <trkpt lat="49.19094" lon="-0.40816">
        <ele>70</ele>
        <time>2023-04-28T13:05:36Z</time>
      </trkpt>
      <trkpt lat="49.19088" lon="-0.40811">
        <ele>69.8</ele>
        <time>2023-04-28T13:05:37Z</time>
      </trkpt>
      <trkpt lat="49.19082" lon="-0.40807">
        <ele>69.6</ele>
        <time>2023-04-28T13:05:38Z</time>
      </trkpt>
      <trkpt lat="49.19076" lon="-0.40803">
        <ele>69.6</ele>
        <time>2023-04-28T13:05:39Z</time>
      </trkpt>
      <trkpt lat="49.19069" lon="-0.408">
        <ele>69.4</ele>
        <time>2023-04-28T13:05:40Z</time>
      </trkpt>
      <trkpt lat="49.19063" lon="-0.40796">
        <ele>69.2</ele>
        <time>2023-04-28T13:05:41Z</time>
      </trkpt>
      <trkpt lat="49.19056" lon="-0.40793">
        <ele>69</ele>
        <time>2023-04-28T13:05:42Z</time>
      </trkpt>
      <trkpt lat="49.19049" lon="-0.4079">
        <ele>69</ele>
        <time>2023-04-28T13:05:43Z</time>
      </trkpt>
      <trkpt lat="49.19043" lon="-0.40787">
        <ele>68.6</ele>
        <time>2023-04-28T13:05:44Z</time>
      </trkpt>
      <trkpt lat="49.19036" lon="-0.40784">
        <ele>68.6</ele>
        <time>2023-04-28T13:05:45Z</time>
      </trkpt>
      <trkpt lat="49.19029" lon="-0.40781">
        <ele>68.6</ele>
        <time>2023-04-28T13:05:46Z</time>
      </trkpt>
      <trkpt lat="49.19022" lon="-0.40778">
        <ele>68.4</ele>
        <time>2023-04-28T13:05:47Z</time>
      </trkpt>
      <trkpt lat="49.19015" lon="-0.40775">
        <ele>68.2</ele>
        <time>2023-04-28T13:05:48Z</time>
      </trkpt>
      <trkpt lat="49.19008" lon="-0.40773">
        <ele>68</ele>
        <time>2023-04-28T13:05:49Z</time>
      </trkpt>
      <trkpt lat="49.19001" lon="-0.4077">
        <ele>68</ele>
        <time>2023-04-28T13:05:50Z</time>
      </trkpt>
      <trkpt lat="49.18994" lon="-0.40767">
        <ele>67.8</ele>
        <time>2023-04-28T13:05:51Z</time>
      </trkpt>
      <trkpt lat="49.18987" lon="-0.40764">
        <ele>67.6</ele>
        <time>2023-04-28T13:05:52Z</time>
      </trkpt>
      <trkpt lat="49.18979" lon="-0.40761">
        <ele>67.6</ele>
        <time>2023-04-28T13:05:53Z</time>
      </trkpt>
      <trkpt lat="49.18972" lon="-0.40758">
        <ele>67.4</ele>
        <time>2023-04-28T13:05:54Z</time>
      </trkpt>
      <trkpt lat="49.18965" lon="-0.40754">
        <ele>67.2</ele>
        <time>2023-04-28T13:05:55Z</time>
      </trkpt>
      <trkpt lat="49.18958" lon="-0.40751">
        <ele>67</ele>
        <time>2023-04-28T13:05:56Z</time>
      </trkpt>
      <trkpt lat="49.18951" lon="-0.40748">
        <ele>66.8</ele>
        <time>2023-04-28T13:05:57Z</time>
      </trkpt>
      <trkpt lat="49.18943" lon="-0.40745">
        <ele>66.6</ele>
        <time>2023-04-28T13:05:58Z</time>
      </trkpt>
      <trkpt lat="49.18937" lon="-0.40743">
        <ele>66.4</ele>
        <time>2023-04-28T13:05:59Z</time>
      </trkpt>
      <trkpt lat="49.18931" lon="-0.4074">
        <ele>66.2</ele>
        <time>2023-04-28T13:06:00Z</time>
      </trkpt>
      <trkpt lat="49.18927" lon="-0.40738">
        <ele>66</ele>
        <time>2023-04-28T13:06:01Z</time>
      </trkpt>
      <trkpt lat="49.18923" lon="-0.40736">
        <ele>66</ele>
        <time>2023-04-28T13:06:02Z</time>
      </trkpt>
      <trkpt lat="49.1892" lon="-0.40734">
        <ele>66</ele>
        <time>2023-04-28T13:06:03Z</time>
      </trkpt>
      <trkpt lat="49.18918" lon="-0.4073">
        <ele>65.8</ele>
        <time>2023-04-28T13:06:04Z</time>
      </trkpt>
      <trkpt lat="49.18918" lon="-0.40725">
        <ele>65.6</ele>
        <time>2023-04-28T13:06:05Z</time>
      </trkpt>
      <trkpt lat="49.18918" lon="-0.40718">
        <ele>65.6</ele>
        <time>2023-04-28T13:06:06Z</time>
      </trkpt>
      <trkpt lat="49.18919" lon="-0.40711">
        <ele>65.6</ele>
        <time>2023-04-28T13:06:07Z</time>
      </trkpt>
      <trkpt lat="49.1892" lon="-0.40702">
        <ele>65.6</ele>
        <time>2023-04-28T13:06:08Z</time>
      </trkpt>
      <trkpt lat="49.18921" lon="-0.40694">
        <ele>65.4</ele>
        <time>2023-04-28T13:06:09Z</time>
      </trkpt>
      <trkpt lat="49.18921" lon="-0.40685">
        <ele>65.4</ele>
        <time>2023-04-28T13:06:10Z</time>
      </trkpt>
      <trkpt lat="49.18922" lon="-0.40676">
        <ele>65.2</ele>
        <time>2023-04-28T13:06:11Z</time>
      </trkpt>
      <trkpt lat="49.18922" lon="-0.40667">
        <ele>65</ele>
        <time>2023-04-28T13:06:12Z</time>
      </trkpt>
      <trkpt lat="49.18922" lon="-0.40658">
        <ele>65</ele>
        <time>2023-04-28T13:06:13Z</time>
      </trkpt>
      <trkpt lat="49.18922" lon="-0.40649">
        <ele>65</ele>
        <time>2023-04-28T13:06:14Z</time>
      </trkpt>
      <trkpt lat="49.18921" lon="-0.4064">
        <ele>65</ele>
        <time>2023-04-28T13:06:15Z</time>
      </trkpt>
      <trkpt lat="49.18919" lon="-0.40632">
        <ele>65</ele>
        <time>2023-04-28T13:06:16Z</time>
      </trkpt>
      <trkpt lat="49.18916" lon="-0.40625">
        <ele>65</ele>
        <time>2023-04-28T13:06:17Z</time>
      </trkpt>
      <trkpt lat="49.18911" lon="-0.40622">
        <ele>64.6</ele>
        <time>2023-04-28T13:06:18Z</time>
      </trkpt>
      <trkpt lat="49.18905" lon="-0.4062">
        <ele>64.4</ele>
        <time>2023-04-28T13:06:19Z</time>
      </trkpt>
      <trkpt lat="49.18899" lon="-0.40617">
        <ele>64</ele>
        <time>2023-04-28T13:06:20Z</time>
      </trkpt>
      <trkpt lat="49.18892" lon="-0.40614">
        <ele>63.4</ele>
        <time>2023-04-28T13:06:21Z</time>
      </trkpt>
      <trkpt lat="49.18885" lon="-0.40611">
        <ele>63</ele>
        <time>2023-04-28T13:06:22Z</time>
      </trkpt>
      <trkpt lat="49.18878" lon="-0.40608">
        <ele>62.6</ele>
        <time>2023-04-28T13:06:23Z</time>
      </trkpt>
      <trkpt lat="49.18871" lon="-0.40605">
        <ele>62</ele>
        <time>2023-04-28T13:06:24Z</time>
      </trkpt>
      <trkpt lat="49.18864" lon="-0.40602">
        <ele>61.6</ele>
        <time>2023-04-28T13:06:25Z</time>
      </trkpt>
      <trkpt lat="49.18857" lon="-0.40599">
        <ele>61</ele>
        <time>2023-04-28T13:06:26Z</time>
      </trkpt>
      <trkpt lat="49.1885" lon="-0.40596">
        <ele>60.6</ele>
        <time>2023-04-28T13:06:27Z</time>
      </trkpt>
      <trkpt lat="49.18844" lon="-0.40593">
        <ele>60</ele>
        <time>2023-04-28T13:06:28Z</time>
      </trkpt>
      <trkpt lat="49.18837" lon="-0.4059">
        <ele>59.4</ele>
        <time>2023-04-28T13:06:29Z</time>
      </trkpt>
      <trkpt lat="49.18833" lon="-0.40586">
        <ele>59</ele>
        <time>2023-04-28T13:06:30Z</time>
      </trkpt>
      <trkpt lat="49.18831" lon="-0.40579">
        <ele>59</ele>
        <time>2023-04-28T13:06:31Z</time>
      </trkpt>
      <trkpt lat="49.18831" lon="-0.40572">
        <ele>59</ele>
        <time>2023-04-28T13:06:32Z</time>
      </trkpt>
      <trkpt lat="49.18832" lon="-0.40564">
        <ele>59</ele>
        <time>2023-04-28T13:06:33Z</time>
      </trkpt>
      <trkpt lat="49.18834" lon="-0.40557">
        <ele>59</ele>
        <time>2023-04-28T13:06:34Z</time>
      </trkpt>
      <trkpt lat="49.18836" lon="-0.40549">
        <ele>59.2</ele>
        <time>2023-04-28T13:06:35Z</time>
      </trkpt>
      <trkpt lat="49.18837" lon="-0.4054">
        <ele>59.2</ele>
        <time>2023-04-28T13:06:36Z</time>
      </trkpt>
      <trkpt lat="49.18838" lon="-0.40532">
        <ele>59.2</ele>
        <time>2023-04-28T13:06:37Z</time>
      </trkpt>
      <trkpt lat="49.1884" lon="-0.40523">
        <ele>59.4</ele>
        <time>2023-04-28T13:06:38Z</time>
      </trkpt>
      <trkpt lat="49.1884" lon="-0.40514">
        <ele>59.4</ele>
        <time>2023-04-28T13:06:39Z</time>
      </trkpt>
      <trkpt lat="49.18841" lon="-0.40504">
        <ele>59.6</ele>
        <time>2023-04-28T13:06:40Z</time>
      </trkpt>
      <trkpt lat="49.18842" lon="-0.40495">
        <ele>59.4</ele>
        <time>2023-04-28T13:06:41Z</time>
      </trkpt>
      <trkpt lat="49.18843" lon="-0.40485">
        <ele>59</ele>
        <time>2023-04-28T13:06:42Z</time>
      </trkpt>
      <trkpt lat="49.18844" lon="-0.40474">
        <ele>58.8</ele>
        <time>2023-04-28T13:06:43Z</time>
      </trkpt>
      <trkpt lat="49.18846" lon="-0.40464">
        <ele>58.6</ele>
        <time>2023-04-28T13:06:44Z</time>
      </trkpt>
      <trkpt lat="49.18847" lon="-0.40453">
        <ele>58.2</ele>
        <time>2023-04-28T13:06:45Z</time>
      </trkpt>
      <trkpt lat="49.18848" lon="-0.40442">
        <ele>58</ele>
        <time>2023-04-28T13:06:46Z</time>
      </trkpt>
      <trkpt lat="49.18849" lon="-0.40432">
        <ele>57.8</ele>
        <time>2023-04-28T13:06:47Z</time>
      </trkpt>
      <trkpt lat="49.1885" lon="-0.40421">
        <ele>57.4</ele>
        <time>2023-04-28T13:06:48Z</time>
      </trkpt>
      <trkpt lat="49.18851" lon="-0.4041">
        <ele>57.2</ele>
        <time>2023-04-28T13:06:49Z</time>
      </trkpt>
      <trkpt lat="49.18852" lon="-0.40399">
        <ele>57</ele>
        <time>2023-04-28T13:06:50Z</time>
      </trkpt>
      <trkpt lat="49.18853" lon="-0.40389">
        <ele>57</ele>
        <time>2023-04-28T13:06:51Z</time>
      </trkpt>
      <trkpt lat="49.18854" lon="-0.40379">
        <ele>57</ele>
        <time>2023-04-28T13:06:52Z</time>
      </trkpt>
      <trkpt lat="49.18856" lon="-0.40368">
        <ele>57</ele>
        <time>2023-04-28T13:06:53Z</time>
      </trkpt>
      <trkpt lat="49.18858" lon="-0.40358">
        <ele>56.8</ele>
        <time>2023-04-28T13:06:54Z</time>
      </trkpt>
      <trkpt lat="49.18859" lon="-0.40348">
        <ele>56.8</ele>
        <time>2023-04-28T13:06:55Z</time>
      </trkpt>
      <trkpt lat="49.1886" lon="-0.40337">
        <ele>56.8</ele>
        <time>2023-04-28T13:06:56Z</time>
      </trkpt>
      <trkpt lat="49.18861" lon="-0.40326">
        <ele>56.6</ele>
        <time>2023-04-28T13:06:57Z</time>
      </trkpt>
      <trkpt lat="49.18862" lon="-0.40316">
        <ele>56.2</ele>
        <time>2023-04-28T13:06:58Z</time>
      </trkpt>
      <trkpt lat="49.18863" lon="-0.40305">
        <ele>56</ele>
        <time>2023-04-28T13:06:59Z</time>
      </trkpt>
      <trkpt lat="49.18864" lon="-0.40294">
        <ele>56</ele>
        <time>2023-04-28T13:07:00Z</time>
      </trkpt>
      <trkpt lat="49.18865" lon="-0.40283">
        <ele>55.8</ele>
        <time>2023-04-28T13:07:01Z</time>
      </trkpt>
      <trkpt lat="49.18866" lon="-0.40272">
        <ele>55.6</ele>
        <time>2023-04-28T13:07:02Z</time>
      </trkpt>
      <trkpt lat="49.18867" lon="-0.40262">
        <ele>55.2</ele>
        <time>2023-04-28T13:07:03Z</time>
      </trkpt>
      <trkpt lat="49.18869" lon="-0.40253">
        <ele>55.2</ele>
        <time>2023-04-28T13:07:04Z</time>
      </trkpt>
      <trkpt lat="49.18869" lon="-0.40246">
        <ele>55</ele>
        <time>2023-04-28T13:07:05Z</time>
      </trkpt>
      <trkpt lat="49.1887" lon="-0.4024">
        <ele>55</ele>
        <time>2023-04-28T13:07:06Z</time>
      </trkpt>
      <trkpt lat="49.1887" lon="-0.40234">
        <ele>54.8</ele>
        <time>2023-04-28T13:07:07Z</time>
      </trkpt>
      <trkpt lat="49.1887" lon="-0.40228">
        <ele>54.8</ele>
        <time>2023-04-28T13:07:08Z</time>
      </trkpt>
      <trkpt lat="49.1887" lon="-0.40223">
        <ele>54.6</ele>
        <time>2023-04-28T13:07:09Z</time>
      </trkpt>
      <trkpt lat="49.18871" lon="-0.40217">
        <ele>54.4</ele>
        <time>2023-04-28T13:07:10Z</time>
      </trkpt>
      <trkpt lat="49.18872" lon="-0.4021">
        <ele>54.2</ele>
        <time>2023-04-28T13:07:11Z</time>
      </trkpt>
      <trkpt lat="49.18873" lon="-0.40204">
        <ele>54.2</ele>
        <time>2023-04-28T13:07:12Z</time>
      </trkpt>
      <trkpt lat="49.18874" lon="-0.40196">
        <ele>54</ele>
        <time>2023-04-28T13:07:13Z</time>
      </trkpt>
      <trkpt lat="49.18874" lon="-0.40189">
        <ele>54</ele>
        <time>2023-04-28T13:07:14Z</time>
      </trkpt>
      <trkpt lat="49.18875" lon="-0.40182">
        <ele>54</ele>
        <time>2023-04-28T13:07:15Z</time>
      </trkpt>
      <trkpt lat="49.18876" lon="-0.40174">
        <ele>53.8</ele>
        <time>2023-04-28T13:07:16Z</time>
      </trkpt>
      <trkpt lat="49.18877" lon="-0.40167">
        <ele>53.6</ele>
        <time>2023-04-28T13:07:17Z</time>
      </trkpt>
      <trkpt lat="49.18878" lon="-0.4016">
        <ele>53.8</ele>
        <time>2023-04-28T13:07:18Z</time>
      </trkpt>
      <trkpt lat="49.1888" lon="-0.40153">
        <ele>53.8</ele>
        <time>2023-04-28T13:07:19Z</time>
      </trkpt>
      <trkpt lat="49.18881" lon="-0.40145">
        <ele>53.8</ele>
        <time>2023-04-28T13:07:20Z</time>
      </trkpt>
      <trkpt lat="49.18883" lon="-0.40138">
        <ele>54</ele>
        <time>2023-04-28T13:07:21Z</time>
      </trkpt>
      <trkpt lat="49.18885" lon="-0.40131">
        <ele>54</ele>
        <time>2023-04-28T13:07:22Z</time>
      </trkpt>
      <trkpt lat="49.18886" lon="-0.40124">
        <ele>54</ele>
        <time>2023-04-28T13:07:23Z</time>
      </trkpt>
      <trkpt lat="49.18886" lon="-0.40119">
        <ele>54</ele>
        <time>2023-04-28T13:07:24Z</time>
      </trkpt>
      <trkpt lat="49.18884" lon="-0.40114">
        <ele>53.8</ele>
        <time>2023-04-28T13:07:25Z</time>
      </trkpt>
      <trkpt lat="49.18882" lon="-0.4011">
        <ele>53.6</ele>
        <time>2023-04-28T13:07:26Z</time>
      </trkpt>
      <trkpt lat="49.18878" lon="-0.40107">
        <ele>53.4</ele>
        <time>2023-04-28T13:07:27Z</time>
      </trkpt>
      <trkpt lat="49.18874" lon="-0.40102">
        <ele>53</ele>
        <time>2023-04-28T13:07:28Z</time>
      </trkpt>
      <trkpt lat="49.18869" lon="-0.40097">
        <ele>52.8</ele>
        <time>2023-04-28T13:07:29Z</time>
      </trkpt>
      <trkpt lat="49.18865" lon="-0.40093">
        <ele>52.2</ele>
        <time>2023-04-28T13:07:30Z</time>
      </trkpt>
      <trkpt lat="49.1886" lon="-0.40088">
        <ele>52</ele>
        <time>2023-04-28T13:07:31Z</time>
      </trkpt>
      <trkpt lat="49.18855" lon="-0.40084">
        <ele>51.6</ele>
        <time>2023-04-28T13:07:32Z</time>
      </trkpt>
      <trkpt lat="49.18852" lon="-0.4008">
        <ele>51.2</ele>
        <time>2023-04-28T13:07:33Z</time>
      </trkpt>
      <trkpt lat="49.18851" lon="-0.40075">
        <ele>51.2</ele>
        <time>2023-04-28T13:07:34Z</time>
      </trkpt>
      <trkpt lat="49.18853" lon="-0.40071">
        <ele>51.2</ele>
        <time>2023-04-28T13:07:35Z</time>
      </trkpt>
      <trkpt lat="49.18854" lon="-0.40068">
        <ele>51.2</ele>
        <time>2023-04-28T13:07:36Z</time>
      </trkpt>
      <trkpt lat="49.18856" lon="-0.40065">
        <ele>51.4</ele>
        <time>2023-04-28T13:07:37Z</time>
      </trkpt>
      <trkpt lat="49.18857" lon="-0.40063">
        <ele>51.6</ele>
        <time>2023-04-28T13:07:38Z</time>
      </trkpt>
      <trkpt lat="49.18858" lon="-0.40062">
        <ele>51.6</ele>
        <time>2023-04-28T13:07:39Z</time>
      </trkpt>
      <trkpt lat="49.18858" lon="-0.40061">
        <ele>51.6</ele>
        <time>2023-04-28T13:07:40Z</time>
      </trkpt>
      <trkpt lat="49.18858" lon="-0.40059">
        <ele>51.6</ele>
        <time>2023-04-28T13:07:42Z</time>
      </trkpt>
    </trkseg>
  </trk>
</gpx>